<?xml version="1.0" encoding="UTF-8" standalone="no" ?>
<gpx xmlns="http://www.topografix.com/GPX/1/1" xmlns:xsi="http://www.w3.org/2001/XMLSchema-instance" xsi:schemaLocation="http://www.topografix.com/GPX/1/1 http://www.topografix.com/GPX/1/1/gpx.xsd" version="1.1" creator="VisuGPX - https://www.visugpx.com">
  <metadata>
    <name>Grande Traversée des Hauts Plateaux du Vercors [Nord-Sud]</name>
  </metadata>
  <trk>
    <name><![CDATA[GTV 1/4]]></name>
    <trkseg>
      <trkpt lat="45.07228" lon="5.55212">
        <ele>1020.799987793</ele>
        <time>2022-05-26T07:00:53.000Z</time>
      </trkpt>
      <trkpt lat="45.07227" lon="5.55211">
        <ele>1020.799987793</ele>
        <time>2022-05-26T07:00:54.000Z</time>
      </trkpt>
      <trkpt lat="45.07226" lon="5.55208">
        <ele>1021</ele>
        <time>2022-05-26T07:00:55.000Z</time>
      </trkpt>
      <trkpt lat="45.07225" lon="5.55207">
        <ele>1021</ele>
        <time>2022-05-26T07:00:57.000Z</time>
      </trkpt>
      <trkpt lat="45.07216" lon="5.5519">
        <ele>1021.4000244141</ele>
        <time>2022-05-26T07:01:10.000Z</time>
      </trkpt>
      <trkpt lat="45.07215" lon="5.5519">
        <ele>1021.4000244141</ele>
        <time>2022-05-26T07:01:11.000Z</time>
      </trkpt>
      <trkpt lat="45.07214" lon="5.55189">
        <ele>1021.4000244141</ele>
        <time>2022-05-26T07:01:12.000Z</time>
      </trkpt>
      <trkpt lat="45.07211" lon="5.55182">
        <ele>1021.4000244141</ele>
        <time>2022-05-26T07:01:17.000Z</time>
      </trkpt>
      <trkpt lat="45.07206" lon="5.55173">
        <ele>1021.5999755859</ele>
        <time>2022-05-26T07:01:24.000Z</time>
      </trkpt>
      <trkpt lat="45.07206" lon="5.55171">
        <ele>1021.4000244141</ele>
        <time>2022-05-26T07:01:26.000Z</time>
      </trkpt>
      <trkpt lat="45.07208" lon="5.55169">
        <ele>1021.200012207</ele>
        <time>2022-05-26T07:01:28.000Z</time>
      </trkpt>
      <trkpt lat="45.07208" lon="5.55167">
        <ele>1021.200012207</ele>
        <time>2022-05-26T07:01:30.000Z</time>
      </trkpt>
      <trkpt lat="45.07202" lon="5.55154">
        <ele>1020.799987793</ele>
        <time>2022-05-26T07:01:39.000Z</time>
      </trkpt>
      <trkpt lat="45.07197" lon="5.55148">
        <ele>1020.799987793</ele>
        <time>2022-05-26T07:01:45.000Z</time>
      </trkpt>
      <trkpt lat="45.07195" lon="5.55147">
        <ele>1020.799987793</ele>
        <time>2022-05-26T07:01:47.000Z</time>
      </trkpt>
      <trkpt lat="45.07193" lon="5.55145">
        <ele>1020.799987793</ele>
        <time>2022-05-26T07:01:49.000Z</time>
      </trkpt>
      <trkpt lat="45.07192" lon="5.55145">
        <ele>1020.799987793</ele>
        <time>2022-05-26T07:01:50.000Z</time>
      </trkpt>
      <trkpt lat="45.07191" lon="5.55145">
        <ele>1020.799987793</ele>
        <time>2022-05-26T07:01:51.000Z</time>
      </trkpt>
      <trkpt lat="45.0719" lon="5.55144">
        <ele>1020.799987793</ele>
        <time>2022-05-26T07:01:52.000Z</time>
      </trkpt>
      <trkpt lat="45.07188" lon="5.55146">
        <ele>1021</ele>
        <time>2022-05-26T07:01:56.000Z</time>
      </trkpt>
      <trkpt lat="45.07188" lon="5.55147">
        <ele>1021</ele>
        <time>2022-05-26T07:01:58.000Z</time>
      </trkpt>
      <trkpt lat="45.07188" lon="5.55148">
        <ele>1021.200012207</ele>
        <time>2022-05-26T07:01:59.000Z</time>
      </trkpt>
      <trkpt lat="45.0718" lon="5.55152">
        <ele>1022</ele>
        <time>2022-05-26T07:02:09.000Z</time>
      </trkpt>
      <trkpt lat="45.07171" lon="5.55154">
        <ele>1023.200012207</ele>
        <time>2022-05-26T07:02:19.000Z</time>
      </trkpt>
      <trkpt lat="45.07157" lon="5.55147">
        <ele>1024.1999511719</ele>
        <time>2022-05-26T07:02:32.000Z</time>
      </trkpt>
      <trkpt lat="45.0714" lon="5.55135">
        <ele>1024.8000488281</ele>
        <time>2022-05-26T07:02:47.000Z</time>
      </trkpt>
      <trkpt lat="45.07132" lon="5.55126">
        <ele>1025.1999511719</ele>
        <time>2022-05-26T07:02:57.000Z</time>
      </trkpt>
      <trkpt lat="45.07121" lon="5.55125">
        <ele>1025.4000244141</ele>
        <time>2022-05-26T07:03:09.000Z</time>
      </trkpt>
      <trkpt lat="45.07118" lon="5.55124">
        <ele>1025.4000244141</ele>
        <time>2022-05-26T07:03:13.000Z</time>
      </trkpt>
      <trkpt lat="45.07117" lon="5.55124">
        <ele>1025.4000244141</ele>
        <time>2022-05-26T07:03:14.000Z</time>
      </trkpt>
      <trkpt lat="45.07116" lon="5.55124">
        <ele>1025.4000244141</ele>
        <time>2022-05-26T07:03:15.000Z</time>
      </trkpt>
      <trkpt lat="45.07116" lon="5.55124">
        <ele>1025.4000244141</ele>
        <time>2022-05-26T07:03:16.000Z</time>
      </trkpt>
      <trkpt lat="45.07116" lon="5.55123">
        <ele>1025.4000244141</ele>
        <time>2022-05-26T07:03:17.000Z</time>
      </trkpt>
      <trkpt lat="45.07113" lon="5.55122">
        <ele>1025.4000244141</ele>
        <time>2022-05-26T07:03:20.000Z</time>
      </trkpt>
      <trkpt lat="45.0711" lon="5.55121">
        <ele>1025.4000244141</ele>
        <time>2022-05-26T07:03:22.000Z</time>
      </trkpt>
      <trkpt lat="45.07109" lon="5.5512">
        <ele>1025.1999511719</ele>
        <time>2022-05-26T07:03:23.000Z</time>
      </trkpt>
      <trkpt lat="45.07091" lon="5.55113">
        <ele>1025.4000244141</ele>
        <time>2022-05-26T07:03:37.000Z</time>
      </trkpt>
      <trkpt lat="45.07088" lon="5.5511">
        <ele>1025.4000244141</ele>
        <time>2022-05-26T07:03:41.000Z</time>
      </trkpt>
      <trkpt lat="45.07076" lon="5.55106">
        <ele>1025.5999755859</ele>
        <time>2022-05-26T07:03:52.000Z</time>
      </trkpt>
      <trkpt lat="45.07075" lon="5.55107">
        <ele>1025.5999755859</ele>
        <time>2022-05-26T07:03:53.000Z</time>
      </trkpt>
      <trkpt lat="45.0707" lon="5.55108">
        <ele>1026</ele>
        <time>2022-05-26T07:03:58.000Z</time>
      </trkpt>
      <trkpt lat="45.07052" lon="5.55103">
        <ele>1027</ele>
        <time>2022-05-26T07:04:14.000Z</time>
      </trkpt>
      <trkpt lat="45.07037" lon="5.5509">
        <ele>1027.4000244141</ele>
        <time>2022-05-26T07:04:28.000Z</time>
      </trkpt>
      <trkpt lat="45.07022" lon="5.55073">
        <ele>1027.8000488281</ele>
        <time>2022-05-26T07:04:44.000Z</time>
      </trkpt>
      <trkpt lat="45.0701" lon="5.55061">
        <ele>1027.8000488281</ele>
        <time>2022-05-26T07:04:57.000Z</time>
      </trkpt>
      <trkpt lat="45.06996" lon="5.55047">
        <ele>1027</ele>
        <time>2022-05-26T07:05:13.000Z</time>
      </trkpt>
      <trkpt lat="45.06987" lon="5.55022">
        <ele>1025.4000244141</ele>
        <time>2022-05-26T07:05:26.000Z</time>
      </trkpt>
      <trkpt lat="45.06975" lon="5.55003">
        <ele>1023.200012207</ele>
        <time>2022-05-26T07:05:43.000Z</time>
      </trkpt>
      <trkpt lat="45.06971" lon="5.54995">
        <ele>1022.799987793</ele>
        <time>2022-05-26T07:05:52.000Z</time>
      </trkpt>
      <trkpt lat="45.06974" lon="5.54997">
        <ele>1023</ele>
        <time>2022-05-26T07:05:58.000Z</time>
      </trkpt>
      <trkpt lat="45.06972" lon="5.54988">
        <ele>1022.799987793</ele>
        <time>2022-05-26T07:06:39.000Z</time>
      </trkpt>
      <trkpt lat="45.06953" lon="5.5498">
        <ele>1021.4000244141</ele>
        <time>2022-05-26T07:07:03.000Z</time>
      </trkpt>
      <trkpt lat="45.06949" lon="5.54976">
        <ele>1021.200012207</ele>
        <time>2022-05-26T07:07:06.000Z</time>
      </trkpt>
      <trkpt lat="45.06948" lon="5.54975">
        <ele>1021</ele>
        <time>2022-05-26T07:07:07.000Z</time>
      </trkpt>
      <trkpt lat="45.06946" lon="5.54975">
        <ele>1021</ele>
        <time>2022-05-26T07:07:08.000Z</time>
      </trkpt>
      <trkpt lat="45.06944" lon="5.54973">
        <ele>1020.799987793</ele>
        <time>2022-05-26T07:07:10.000Z</time>
      </trkpt>
      <trkpt lat="45.06941" lon="5.54972">
        <ele>1020.5999755859</ele>
        <time>2022-05-26T07:07:12.000Z</time>
      </trkpt>
      <trkpt lat="45.06936" lon="5.54971">
        <ele>1020.200012207</ele>
        <time>2022-05-26T07:07:17.000Z</time>
      </trkpt>
      <trkpt lat="45.06931" lon="5.54966">
        <ele>1019.799987793</ele>
        <time>2022-05-26T07:07:21.000Z</time>
      </trkpt>
      <trkpt lat="45.06925" lon="5.5496">
        <ele>1019</ele>
        <time>2022-05-26T07:07:26.000Z</time>
      </trkpt>
      <trkpt lat="45.06921" lon="5.54958">
        <ele>1018.4000244141</ele>
        <time>2022-05-26T07:07:32.000Z</time>
      </trkpt>
      <trkpt lat="45.06921" lon="5.54952">
        <ele>1018.4000244141</ele>
        <time>2022-05-26T07:07:37.000Z</time>
      </trkpt>
      <trkpt lat="45.06921" lon="5.54926">
        <ele>1017.4000244141</ele>
        <time>2022-05-26T07:07:50.000Z</time>
      </trkpt>
      <trkpt lat="45.0692" lon="5.549">
        <ele>1015</ele>
        <time>2022-05-26T07:08:05.000Z</time>
      </trkpt>
      <trkpt lat="45.06916" lon="5.54875">
        <ele>1011.200012207</ele>
        <time>2022-05-26T07:08:22.000Z</time>
      </trkpt>
      <trkpt lat="45.06916" lon="5.54873">
        <ele>1011</ele>
        <time>2022-05-26T07:08:26.000Z</time>
      </trkpt>
      <trkpt lat="45.06923" lon="5.54878">
        <ele>1012</ele>
        <time>2022-05-26T07:08:54.000Z</time>
      </trkpt>
      <trkpt lat="45.06917" lon="5.54903">
        <ele>1015.200012207</ele>
        <time>2022-05-26T07:09:09.000Z</time>
      </trkpt>
      <trkpt lat="45.0691" lon="5.54927">
        <ele>1016</ele>
        <time>2022-05-26T07:09:24.000Z</time>
      </trkpt>
      <trkpt lat="45.06906" lon="5.54943">
        <ele>1016</ele>
        <time>2022-05-26T07:09:34.000Z</time>
      </trkpt>
      <trkpt lat="45.06903" lon="5.54969">
        <ele>1016.4000244141</ele>
        <time>2022-05-26T07:09:51.000Z</time>
      </trkpt>
      <trkpt lat="45.06893" lon="5.54992">
        <ele>1014.5999755859</ele>
        <time>2022-05-26T07:10:04.000Z</time>
      </trkpt>
      <trkpt lat="45.06887" lon="5.55004">
        <ele>1013.200012207</ele>
        <time>2022-05-26T07:10:16.000Z</time>
      </trkpt>
      <trkpt lat="45.06887" lon="5.55004">
        <ele>1013.200012207</ele>
        <time>2022-05-26T07:10:18.000Z</time>
      </trkpt>
      <trkpt lat="45.06885" lon="5.55005">
        <ele>1012.5999755859</ele>
        <time>2022-05-26T07:10:26.000Z</time>
      </trkpt>
      <trkpt lat="45.06883" lon="5.55001">
        <ele>1012.200012207</ele>
        <time>2022-05-26T07:10:53.000Z</time>
      </trkpt>
      <trkpt lat="45.06875" lon="5.55">
        <ele>1010.5999755859</ele>
        <time>2022-05-26T07:11:18.000Z</time>
      </trkpt>
      <trkpt lat="45.06869" lon="5.54997">
        <ele>1009.4000244141</ele>
        <time>2022-05-26T07:11:23.000Z</time>
      </trkpt>
      <trkpt lat="45.0686" lon="5.54982">
        <ele>1007.4000244141</ele>
        <time>2022-05-26T07:11:37.000Z</time>
      </trkpt>
      <trkpt lat="45.06857" lon="5.54957">
        <ele>1004.200012207</ele>
        <time>2022-05-26T07:11:53.000Z</time>
      </trkpt>
      <trkpt lat="45.06857" lon="5.54932">
        <ele>1002</ele>
        <time>2022-05-26T07:12:07.000Z</time>
      </trkpt>
      <trkpt lat="45.06855" lon="5.54905">
        <ele>999.20001220703</ele>
        <time>2022-05-26T07:12:21.000Z</time>
      </trkpt>
      <trkpt lat="45.06847" lon="5.54882">
        <ele>995.20001220703</ele>
        <time>2022-05-26T07:12:36.000Z</time>
      </trkpt>
      <trkpt lat="45.06841" lon="5.54872">
        <ele>993.20001220703</ele>
        <time>2022-05-26T07:12:43.000Z</time>
      </trkpt>
      <trkpt lat="45.06825" lon="5.54857">
        <ele>989.40002441406</ele>
        <time>2022-05-26T07:13:00.000Z</time>
      </trkpt>
      <trkpt lat="45.06807" lon="5.54851">
        <ele>986.59997558594</ele>
        <time>2022-05-26T07:13:13.000Z</time>
      </trkpt>
      <trkpt lat="45.06791" lon="5.54836">
        <ele>984</ele>
        <time>2022-05-26T07:13:28.000Z</time>
      </trkpt>
      <trkpt lat="45.06779" lon="5.54815">
        <ele>984.40002441406</ele>
        <time>2022-05-26T07:13:43.000Z</time>
      </trkpt>
      <trkpt lat="45.06777" lon="5.54814">
        <ele>984.40002441406</ele>
        <time>2022-05-26T07:13:45.000Z</time>
      </trkpt>
      <trkpt lat="45.06763" lon="5.54802">
        <ele>985.20001220703</ele>
        <time>2022-05-26T07:14:01.000Z</time>
      </trkpt>
      <trkpt lat="45.06758" lon="5.5478">
        <ele>986</ele>
        <time>2022-05-26T07:14:34.000Z</time>
      </trkpt>
      <trkpt lat="45.06741" lon="5.5477">
        <ele>985.40002441406</ele>
        <time>2022-05-26T07:14:50.000Z</time>
      </trkpt>
      <trkpt lat="45.06737" lon="5.54773">
        <ele>985.59997558594</ele>
        <time>2022-05-26T07:14:53.000Z</time>
      </trkpt>
      <trkpt lat="45.06732" lon="5.54777">
        <ele>986</ele>
        <time>2022-05-26T07:14:57.000Z</time>
      </trkpt>
      <trkpt lat="45.06727" lon="5.54776">
        <ele>986</ele>
        <time>2022-05-26T07:15:00.000Z</time>
      </trkpt>
      <trkpt lat="45.06709" lon="5.54778">
        <ele>987</ele>
        <time>2022-05-26T07:15:19.000Z</time>
      </trkpt>
      <trkpt lat="45.06691" lon="5.54783">
        <ele>987.20001220703</ele>
        <time>2022-05-26T07:15:33.000Z</time>
      </trkpt>
      <trkpt lat="45.06689" lon="5.54784">
        <ele>987.20001220703</ele>
        <time>2022-05-26T07:15:35.000Z</time>
      </trkpt>
      <trkpt lat="45.06685" lon="5.54786">
        <ele>987.59997558594</ele>
        <time>2022-05-26T07:15:38.000Z</time>
      </trkpt>
      <trkpt lat="45.06684" lon="5.54786">
        <ele>987.59997558594</ele>
        <time>2022-05-26T07:15:39.000Z</time>
      </trkpt>
      <trkpt lat="45.06683" lon="5.54787">
        <ele>987.79998779297</ele>
        <time>2022-05-26T07:15:40.000Z</time>
      </trkpt>
      <trkpt lat="45.06682" lon="5.54787">
        <ele>987.79998779297</ele>
        <time>2022-05-26T07:15:41.000Z</time>
      </trkpt>
      <trkpt lat="45.06681" lon="5.54787">
        <ele>988</ele>
        <time>2022-05-26T07:15:42.000Z</time>
      </trkpt>
      <trkpt lat="45.0668" lon="5.54788">
        <ele>988</ele>
        <time>2022-05-26T07:15:43.000Z</time>
      </trkpt>
      <trkpt lat="45.06679" lon="5.54788">
        <ele>988</ele>
        <time>2022-05-26T07:15:44.000Z</time>
      </trkpt>
      <trkpt lat="45.06665" lon="5.5479">
        <ele>988.79998779297</ele>
        <time>2022-05-26T07:15:58.000Z</time>
      </trkpt>
      <trkpt lat="45.0666" lon="5.5479">
        <ele>989</ele>
        <time>2022-05-26T07:16:03.000Z</time>
      </trkpt>
      <trkpt lat="45.06655" lon="5.54792">
        <ele>989.40002441406</ele>
        <time>2022-05-26T07:16:07.000Z</time>
      </trkpt>
      <trkpt lat="45.06651" lon="5.54793">
        <ele>989.59997558594</ele>
        <time>2022-05-26T07:16:10.000Z</time>
      </trkpt>
      <trkpt lat="45.06649" lon="5.54794">
        <ele>989.59997558594</ele>
        <time>2022-05-26T07:16:12.000Z</time>
      </trkpt>
      <trkpt lat="45.06648" lon="5.54795">
        <ele>989.59997558594</ele>
        <time>2022-05-26T07:16:13.000Z</time>
      </trkpt>
      <trkpt lat="45.06647" lon="5.54795">
        <ele>989.59997558594</ele>
        <time>2022-05-26T07:16:14.000Z</time>
      </trkpt>
      <trkpt lat="45.06634" lon="5.54801">
        <ele>991.79998779297</ele>
        <time>2022-05-26T07:16:29.000Z</time>
      </trkpt>
      <trkpt lat="45.06634" lon="5.54801">
        <ele>991.79998779297</ele>
        <time>2022-05-26T07:16:30.000Z</time>
      </trkpt>
      <trkpt lat="45.06635" lon="5.54801">
        <ele>992</ele>
        <time>2022-05-26T07:16:31.000Z</time>
      </trkpt>
      <trkpt lat="45.06637" lon="5.54799">
        <ele>991.20001220703</ele>
        <time>2022-05-26T07:16:39.000Z</time>
      </trkpt>
      <trkpt lat="45.06639" lon="5.54799">
        <ele>991</ele>
        <time>2022-05-26T07:16:47.000Z</time>
      </trkpt>
      <trkpt lat="45.06641" lon="5.54806">
        <ele>992.40002441406</ele>
        <time>2022-05-26T07:16:56.000Z</time>
      </trkpt>
      <trkpt lat="45.06641" lon="5.54809">
        <ele>992.79998779297</ele>
        <time>2022-05-26T07:16:58.000Z</time>
      </trkpt>
      <trkpt lat="45.0664" lon="5.54817">
        <ele>994</ele>
        <time>2022-05-26T07:17:05.000Z</time>
      </trkpt>
      <trkpt lat="45.06641" lon="5.54835">
        <ele>996.59997558594</ele>
        <time>2022-05-26T07:17:19.000Z</time>
      </trkpt>
      <trkpt lat="45.06641" lon="5.54836">
        <ele>996.59997558594</ele>
        <time>2022-05-26T07:17:20.000Z</time>
      </trkpt>
      <trkpt lat="45.06641" lon="5.54837">
        <ele>996.59997558594</ele>
        <time>2022-05-26T07:17:21.000Z</time>
      </trkpt>
      <trkpt lat="45.06641" lon="5.54839">
        <ele>996.79998779297</ele>
        <time>2022-05-26T07:17:22.000Z</time>
      </trkpt>
      <trkpt lat="45.06641" lon="5.54844">
        <ele>997.20001220703</ele>
        <time>2022-05-26T07:17:26.000Z</time>
      </trkpt>
      <trkpt lat="45.0664" lon="5.54852">
        <ele>998</ele>
        <time>2022-05-26T07:17:31.000Z</time>
      </trkpt>
      <trkpt lat="45.06637" lon="5.54863">
        <ele>999.59997558594</ele>
        <time>2022-05-26T07:17:39.000Z</time>
      </trkpt>
      <trkpt lat="45.06637" lon="5.54865">
        <ele>999.59997558594</ele>
        <time>2022-05-26T07:17:40.000Z</time>
      </trkpt>
      <trkpt lat="45.06637" lon="5.54867">
        <ele>999.59997558594</ele>
        <time>2022-05-26T07:17:41.000Z</time>
      </trkpt>
      <trkpt lat="45.06637" lon="5.54868">
        <ele>999.79998779297</ele>
        <time>2022-05-26T07:17:42.000Z</time>
      </trkpt>
      <trkpt lat="45.06637" lon="5.54871">
        <ele>1000</ele>
        <time>2022-05-26T07:17:44.000Z</time>
      </trkpt>
      <trkpt lat="45.06637" lon="5.54873">
        <ele>1000</ele>
        <time>2022-05-26T07:17:45.000Z</time>
      </trkpt>
      <trkpt lat="45.06636" lon="5.54874">
        <ele>1000</ele>
        <time>2022-05-26T07:17:46.000Z</time>
      </trkpt>
      <trkpt lat="45.06636" lon="5.54876">
        <ele>1000.200012207</ele>
        <time>2022-05-26T07:17:47.000Z</time>
      </trkpt>
      <trkpt lat="45.06634" lon="5.54882">
        <ele>1000.799987793</ele>
        <time>2022-05-26T07:17:51.000Z</time>
      </trkpt>
      <trkpt lat="45.06633" lon="5.54902">
        <ele>1001.200012207</ele>
        <time>2022-05-26T07:18:03.000Z</time>
      </trkpt>
      <trkpt lat="45.06625" lon="5.54919">
        <ele>1002.200012207</ele>
        <time>2022-05-26T07:18:16.000Z</time>
      </trkpt>
      <trkpt lat="45.06617" lon="5.54927">
        <ele>1002.799987793</ele>
        <time>2022-05-26T07:18:25.000Z</time>
      </trkpt>
      <trkpt lat="45.0661" lon="5.54931">
        <ele>1003.4000244141</ele>
        <time>2022-05-26T07:18:32.000Z</time>
      </trkpt>
      <trkpt lat="45.066" lon="5.54938">
        <ele>1005.200012207</ele>
        <time>2022-05-26T07:18:44.000Z</time>
      </trkpt>
      <trkpt lat="45.066" lon="5.54938">
        <ele>1005.4000244141</ele>
        <time>2022-05-26T07:18:45.000Z</time>
      </trkpt>
      <trkpt lat="45.06599" lon="5.54939">
        <ele>1005.4000244141</ele>
        <time>2022-05-26T07:18:46.000Z</time>
      </trkpt>
      <trkpt lat="45.06599" lon="5.5494">
        <ele>1005.5999755859</ele>
        <time>2022-05-26T07:18:47.000Z</time>
      </trkpt>
      <trkpt lat="45.06595" lon="5.5494">
        <ele>1005.4000244141</ele>
        <time>2022-05-26T07:18:52.000Z</time>
      </trkpt>
      <trkpt lat="45.06592" lon="5.5494">
        <ele>1005.4000244141</ele>
        <time>2022-05-26T07:18:55.000Z</time>
      </trkpt>
      <trkpt lat="45.06587" lon="5.54941">
        <ele>1005.799987793</ele>
        <time>2022-05-26T07:19:01.000Z</time>
      </trkpt>
      <trkpt lat="45.06578" lon="5.54943">
        <ele>1006.4000244141</ele>
        <time>2022-05-26T07:19:12.000Z</time>
      </trkpt>
      <trkpt lat="45.06561" lon="5.54952">
        <ele>1007.799987793</ele>
        <time>2022-05-26T07:19:30.000Z</time>
      </trkpt>
      <trkpt lat="45.06552" lon="5.54959">
        <ele>1008.799987793</ele>
        <time>2022-05-26T07:19:42.000Z</time>
      </trkpt>
      <trkpt lat="45.06543" lon="5.54972">
        <ele>1010.799987793</ele>
        <time>2022-05-26T07:19:56.000Z</time>
      </trkpt>
      <trkpt lat="45.06537" lon="5.54988">
        <ele>1012.200012207</ele>
        <time>2022-05-26T07:20:11.000Z</time>
      </trkpt>
      <trkpt lat="45.06533" lon="5.5501">
        <ele>1014.799987793</ele>
        <time>2022-05-26T07:20:29.000Z</time>
      </trkpt>
      <trkpt lat="45.0653" lon="5.55016">
        <ele>1015.5999755859</ele>
        <time>2022-05-26T07:20:36.000Z</time>
      </trkpt>
      <trkpt lat="45.06528" lon="5.55018">
        <ele>1015.799987793</ele>
        <time>2022-05-26T07:20:38.000Z</time>
      </trkpt>
      <trkpt lat="45.06527" lon="5.5502">
        <ele>1016.200012207</ele>
        <time>2022-05-26T07:20:40.000Z</time>
      </trkpt>
      <trkpt lat="45.06526" lon="5.55021">
        <ele>1016.4000244141</ele>
        <time>2022-05-26T07:20:41.000Z</time>
      </trkpt>
      <trkpt lat="45.06525" lon="5.55021">
        <ele>1016.4000244141</ele>
        <time>2022-05-26T07:20:42.000Z</time>
      </trkpt>
      <trkpt lat="45.06524" lon="5.55022">
        <ele>1016.5999755859</ele>
        <time>2022-05-26T07:20:43.000Z</time>
      </trkpt>
      <trkpt lat="45.06524" lon="5.55022">
        <ele>1016.5999755859</ele>
        <time>2022-05-26T07:20:44.000Z</time>
      </trkpt>
      <trkpt lat="45.06521" lon="5.55023">
        <ele>1017</ele>
        <time>2022-05-26T07:20:47.000Z</time>
      </trkpt>
      <trkpt lat="45.0652" lon="5.55024">
        <ele>1017.200012207</ele>
        <time>2022-05-26T07:20:48.000Z</time>
      </trkpt>
      <trkpt lat="45.06519" lon="5.55025">
        <ele>1017.4000244141</ele>
        <time>2022-05-26T07:20:49.000Z</time>
      </trkpt>
      <trkpt lat="45.06518" lon="5.55025">
        <ele>1017.4000244141</ele>
        <time>2022-05-26T07:20:50.000Z</time>
      </trkpt>
      <trkpt lat="45.06517" lon="5.55026">
        <ele>1017.5999755859</ele>
        <time>2022-05-26T07:20:51.000Z</time>
      </trkpt>
      <trkpt lat="45.06505" lon="5.55045">
        <ele>1021.5999755859</ele>
        <time>2022-05-26T07:21:06.000Z</time>
      </trkpt>
      <trkpt lat="45.06501" lon="5.55072">
        <ele>1023.799987793</ele>
        <time>2022-05-26T07:21:24.000Z</time>
      </trkpt>
      <trkpt lat="45.065" lon="5.55078">
        <ele>1024.4000244141</ele>
        <time>2022-05-26T07:21:28.000Z</time>
      </trkpt>
      <trkpt lat="45.06497" lon="5.55085">
        <ele>1025.8000488281</ele>
        <time>2022-05-26T07:21:34.000Z</time>
      </trkpt>
      <trkpt lat="45.06494" lon="5.55089">
        <ele>1026.8000488281</ele>
        <time>2022-05-26T07:21:38.000Z</time>
      </trkpt>
      <trkpt lat="45.06493" lon="5.55091">
        <ele>1027.1999511719</ele>
        <time>2022-05-26T07:21:39.000Z</time>
      </trkpt>
      <trkpt lat="45.06492" lon="5.55091">
        <ele>1027.4000244141</ele>
        <time>2022-05-26T07:21:40.000Z</time>
      </trkpt>
      <trkpt lat="45.06492" lon="5.55092">
        <ele>1027.8000488281</ele>
        <time>2022-05-26T07:21:41.000Z</time>
      </trkpt>
      <trkpt lat="45.0648" lon="5.55112">
        <ele>1032.1999511719</ele>
        <time>2022-05-26T07:21:57.000Z</time>
      </trkpt>
      <trkpt lat="45.06467" lon="5.5513">
        <ele>1035.5999755859</ele>
        <time>2022-05-26T07:22:13.000Z</time>
      </trkpt>
      <trkpt lat="45.06459" lon="5.55149">
        <ele>1038</ele>
        <time>2022-05-26T07:22:27.000Z</time>
      </trkpt>
      <trkpt lat="45.06452" lon="5.5516">
        <ele>1037.4000244141</ele>
        <time>2022-05-26T07:22:37.000Z</time>
      </trkpt>
      <trkpt lat="45.0644" lon="5.55172">
        <ele>1038.8000488281</ele>
        <time>2022-05-26T07:22:50.000Z</time>
      </trkpt>
      <trkpt lat="45.06425" lon="5.55187">
        <ele>1040</ele>
        <time>2022-05-26T07:23:08.000Z</time>
      </trkpt>
      <trkpt lat="45.0642" lon="5.55194">
        <ele>1040.8000488281</ele>
        <time>2022-05-26T07:23:15.000Z</time>
      </trkpt>
      <trkpt lat="45.06411" lon="5.55207">
        <ele>1042.4000244141</ele>
        <time>2022-05-26T07:23:26.000Z</time>
      </trkpt>
      <trkpt lat="45.06408" lon="5.55214">
        <ele>1043</ele>
        <time>2022-05-26T07:23:32.000Z</time>
      </trkpt>
      <trkpt lat="45.06403" lon="5.5522">
        <ele>1043.8000488281</ele>
        <time>2022-05-26T07:23:38.000Z</time>
      </trkpt>
      <trkpt lat="45.06398" lon="5.55229">
        <ele>1044.5999755859</ele>
        <time>2022-05-26T07:23:45.000Z</time>
      </trkpt>
      <trkpt lat="45.06393" lon="5.5524">
        <ele>1045.5999755859</ele>
        <time>2022-05-26T07:23:55.000Z</time>
      </trkpt>
      <trkpt lat="45.06392" lon="5.55243">
        <ele>1045.8000488281</ele>
        <time>2022-05-26T07:23:57.000Z</time>
      </trkpt>
      <trkpt lat="45.06378" lon="5.5526">
        <ele>1047.8000488281</ele>
        <time>2022-05-26T07:24:14.000Z</time>
      </trkpt>
      <trkpt lat="45.06362" lon="5.55271">
        <ele>1048.8000488281</ele>
        <time>2022-05-26T07:24:28.000Z</time>
      </trkpt>
      <trkpt lat="45.06355" lon="5.55274">
        <ele>1048.8000488281</ele>
        <time>2022-05-26T07:24:33.000Z</time>
      </trkpt>
      <trkpt lat="45.06344" lon="5.55277">
        <ele>1048.8000488281</ele>
        <time>2022-05-26T07:24:42.000Z</time>
      </trkpt>
      <trkpt lat="45.06343" lon="5.55277">
        <ele>1048.5999755859</ele>
        <time>2022-05-26T07:24:44.000Z</time>
      </trkpt>
      <trkpt lat="45.0634" lon="5.55277">
        <ele>1048.5999755859</ele>
        <time>2022-05-26T07:24:47.000Z</time>
      </trkpt>
      <trkpt lat="45.06323" lon="5.55285">
        <ele>1048.1999511719</ele>
        <time>2022-05-26T07:25:03.000Z</time>
      </trkpt>
      <trkpt lat="45.06314" lon="5.55292">
        <ele>1048.1999511719</ele>
        <time>2022-05-26T07:25:11.000Z</time>
      </trkpt>
      <trkpt lat="45.06312" lon="5.55293">
        <ele>1048.1999511719</ele>
        <time>2022-05-26T07:25:13.000Z</time>
      </trkpt>
      <trkpt lat="45.06309" lon="5.55296">
        <ele>1048</ele>
        <time>2022-05-26T07:25:16.000Z</time>
      </trkpt>
      <trkpt lat="45.06308" lon="5.55297">
        <ele>1048</ele>
        <time>2022-05-26T07:25:17.000Z</time>
      </trkpt>
      <trkpt lat="45.06307" lon="5.55297">
        <ele>1048</ele>
        <time>2022-05-26T07:25:18.000Z</time>
      </trkpt>
      <trkpt lat="45.06306" lon="5.55298">
        <ele>1047.8000488281</ele>
        <time>2022-05-26T07:25:19.000Z</time>
      </trkpt>
      <trkpt lat="45.06305" lon="5.55299">
        <ele>1047.8000488281</ele>
        <time>2022-05-26T07:25:20.000Z</time>
      </trkpt>
      <trkpt lat="45.06302" lon="5.55301">
        <ele>1047.5999755859</ele>
        <time>2022-05-26T07:25:23.000Z</time>
      </trkpt>
      <trkpt lat="45.063" lon="5.55302">
        <ele>1047.4000244141</ele>
        <time>2022-05-26T07:25:24.000Z</time>
      </trkpt>
      <trkpt lat="45.06296" lon="5.55304">
        <ele>1047.1999511719</ele>
        <time>2022-05-26T07:25:28.000Z</time>
      </trkpt>
      <trkpt lat="45.06291" lon="5.55308">
        <ele>1047</ele>
        <time>2022-05-26T07:25:34.000Z</time>
      </trkpt>
      <trkpt lat="45.06286" lon="5.55311">
        <ele>1047.1999511719</ele>
        <time>2022-05-26T07:25:39.000Z</time>
      </trkpt>
      <trkpt lat="45.06271" lon="5.55323">
        <ele>1047.1999511719</ele>
        <time>2022-05-26T07:25:53.000Z</time>
      </trkpt>
      <trkpt lat="45.06264" lon="5.55328">
        <ele>1047</ele>
        <time>2022-05-26T07:25:59.000Z</time>
      </trkpt>
      <trkpt lat="45.06254" lon="5.55337">
        <ele>1047.1999511719</ele>
        <time>2022-05-26T07:26:09.000Z</time>
      </trkpt>
      <trkpt lat="45.06244" lon="5.5536">
        <ele>1048.1999511719</ele>
        <time>2022-05-26T07:26:23.000Z</time>
      </trkpt>
      <trkpt lat="45.06243" lon="5.5537">
        <ele>1048.8000488281</ele>
        <time>2022-05-26T07:26:29.000Z</time>
      </trkpt>
      <trkpt lat="45.06242" lon="5.55392">
        <ele>1050.4000244141</ele>
        <time>2022-05-26T07:26:42.000Z</time>
      </trkpt>
      <trkpt lat="45.06242" lon="5.55404">
        <ele>1052</ele>
        <time>2022-05-26T07:26:50.000Z</time>
      </trkpt>
      <trkpt lat="45.06242" lon="5.55421">
        <ele>1054.4000244141</ele>
        <time>2022-05-26T07:27:02.000Z</time>
      </trkpt>
      <trkpt lat="45.0624" lon="5.5543">
        <ele>1055</ele>
        <time>2022-05-26T07:27:08.000Z</time>
      </trkpt>
      <trkpt lat="45.06226" lon="5.55446">
        <ele>1056.4000244141</ele>
        <time>2022-05-26T07:27:25.000Z</time>
      </trkpt>
      <trkpt lat="45.06215" lon="5.55453">
        <ele>1057.5999755859</ele>
        <time>2022-05-26T07:27:35.000Z</time>
      </trkpt>
      <trkpt lat="45.06212" lon="5.55456">
        <ele>1057.8000488281</ele>
        <time>2022-05-26T07:27:38.000Z</time>
      </trkpt>
      <trkpt lat="45.0621" lon="5.55458">
        <ele>1057.8000488281</ele>
        <time>2022-05-26T07:27:40.000Z</time>
      </trkpt>
      <trkpt lat="45.06208" lon="5.55461">
        <ele>1058.1999511719</ele>
        <time>2022-05-26T07:27:44.000Z</time>
      </trkpt>
      <trkpt lat="45.06205" lon="5.55463">
        <ele>1058.4000244141</ele>
        <time>2022-05-26T07:27:47.000Z</time>
      </trkpt>
      <trkpt lat="45.06201" lon="5.55466">
        <ele>1058.8000488281</ele>
        <time>2022-05-26T07:27:51.000Z</time>
      </trkpt>
      <trkpt lat="45.062" lon="5.55468">
        <ele>1059</ele>
        <time>2022-05-26T07:27:54.000Z</time>
      </trkpt>
      <trkpt lat="45.06198" lon="5.55471">
        <ele>1059.1999511719</ele>
        <time>2022-05-26T07:27:57.000Z</time>
      </trkpt>
      <trkpt lat="45.06191" lon="5.55483">
        <ele>1061</ele>
        <time>2022-05-26T07:28:06.000Z</time>
      </trkpt>
      <trkpt lat="45.06185" lon="5.55502">
        <ele>1063.1999511719</ele>
        <time>2022-05-26T07:28:18.000Z</time>
      </trkpt>
      <trkpt lat="45.06178" lon="5.55515">
        <ele>1063.5999755859</ele>
        <time>2022-05-26T07:28:26.000Z</time>
      </trkpt>
      <trkpt lat="45.06171" lon="5.55538">
        <ele>1064.4000244141</ele>
        <time>2022-05-26T07:28:42.000Z</time>
      </trkpt>
      <trkpt lat="45.06168" lon="5.55541">
        <ele>1064.4000244141</ele>
        <time>2022-05-26T07:28:47.000Z</time>
      </trkpt>
      <trkpt lat="45.06168" lon="5.55541">
        <ele>1064.4000244141</ele>
        <time>2022-05-26T07:28:48.000Z</time>
      </trkpt>
      <trkpt lat="45.06167" lon="5.55543">
        <ele>1064.4000244141</ele>
        <time>2022-05-26T07:28:49.000Z</time>
      </trkpt>
      <trkpt lat="45.06167" lon="5.55543">
        <ele>1064.4000244141</ele>
        <time>2022-05-26T07:28:50.000Z</time>
      </trkpt>
      <trkpt lat="45.06164" lon="5.55547">
        <ele>1064.4000244141</ele>
        <time>2022-05-26T07:28:54.000Z</time>
      </trkpt>
      <trkpt lat="45.06149" lon="5.55564">
        <ele>1063.1999511719</ele>
        <time>2022-05-26T07:29:11.000Z</time>
      </trkpt>
      <trkpt lat="45.06143" lon="5.55573">
        <ele>1062.1999511719</ele>
        <time>2022-05-26T07:29:18.000Z</time>
      </trkpt>
      <trkpt lat="45.06129" lon="5.5559">
        <ele>1060.1999511719</ele>
        <time>2022-05-26T07:29:33.000Z</time>
      </trkpt>
      <trkpt lat="45.06123" lon="5.55597">
        <ele>1059</ele>
        <time>2022-05-26T07:29:39.000Z</time>
      </trkpt>
      <trkpt lat="45.06111" lon="5.55612">
        <ele>1057.4000244141</ele>
        <time>2022-05-26T07:29:53.000Z</time>
      </trkpt>
      <trkpt lat="45.06107" lon="5.55617">
        <ele>1057</ele>
        <time>2022-05-26T07:29:59.000Z</time>
      </trkpt>
      <trkpt lat="45.06107" lon="5.5562">
        <ele>1056.8000488281</ele>
        <time>2022-05-26T07:30:03.000Z</time>
      </trkpt>
      <trkpt lat="45.06102" lon="5.55628">
        <ele>1056.8000488281</ele>
        <time>2022-05-26T07:30:14.000Z</time>
      </trkpt>
      <trkpt lat="45.061" lon="5.55631">
        <ele>1056.5999755859</ele>
        <time>2022-05-26T07:30:17.000Z</time>
      </trkpt>
      <trkpt lat="45.06096" lon="5.55635">
        <ele>1056.5999755859</ele>
        <time>2022-05-26T07:30:21.000Z</time>
      </trkpt>
      <trkpt lat="45.06087" lon="5.55635">
        <ele>1056</ele>
        <time>2022-05-26T07:30:31.000Z</time>
      </trkpt>
      <trkpt lat="45.06083" lon="5.55634">
        <ele>1055.5999755859</ele>
        <time>2022-05-26T07:30:34.000Z</time>
      </trkpt>
      <trkpt lat="45.06067" lon="5.55636">
        <ele>1055</ele>
        <time>2022-05-26T07:30:42.000Z</time>
      </trkpt>
      <trkpt lat="45.0606" lon="5.55636">
        <ele>1055</ele>
        <time>2022-05-26T07:30:47.000Z</time>
      </trkpt>
      <trkpt lat="45.0605" lon="5.55631">
        <ele>1055</ele>
        <time>2022-05-26T07:30:56.000Z</time>
      </trkpt>
      <trkpt lat="45.06047" lon="5.55631">
        <ele>1055</ele>
        <time>2022-05-26T07:30:58.000Z</time>
      </trkpt>
      <trkpt lat="45.06046" lon="5.5563">
        <ele>1055</ele>
        <time>2022-05-26T07:30:59.000Z</time>
      </trkpt>
      <trkpt lat="45.06031" lon="5.55621">
        <ele>1056.4000244141</ele>
        <time>2022-05-26T07:31:13.000Z</time>
      </trkpt>
      <trkpt lat="45.06017" lon="5.5561">
        <ele>1057.5999755859</ele>
        <time>2022-05-26T07:31:26.000Z</time>
      </trkpt>
      <trkpt lat="45.06015" lon="5.55608">
        <ele>1057.5999755859</ele>
        <time>2022-05-26T07:31:28.000Z</time>
      </trkpt>
      <trkpt lat="45.06013" lon="5.55607">
        <ele>1058</ele>
        <time>2022-05-26T07:31:30.000Z</time>
      </trkpt>
      <trkpt lat="45.06005" lon="5.55602">
        <ele>1058.8000488281</ele>
        <time>2022-05-26T07:31:38.000Z</time>
      </trkpt>
      <trkpt lat="45.05996" lon="5.55593">
        <ele>1059.4000244141</ele>
        <time>2022-05-26T07:31:48.000Z</time>
      </trkpt>
      <trkpt lat="45.05996" lon="5.55591">
        <ele>1059.1999511719</ele>
        <time>2022-05-26T07:31:51.000Z</time>
      </trkpt>
      <trkpt lat="45.05996" lon="5.55591">
        <ele>1059.1999511719</ele>
        <time>2022-05-26T07:31:59.000Z</time>
      </trkpt>
      <trkpt lat="45.05996" lon="5.55591">
        <ele>1059.1999511719</ele>
        <time>2022-05-26T07:32:02.000Z</time>
      </trkpt>
      <trkpt lat="45.05993" lon="5.55587">
        <ele>1059.4000244141</ele>
        <time>2022-05-26T07:32:07.000Z</time>
      </trkpt>
      <trkpt lat="45.05994" lon="5.55586">
        <ele>1059.1999511719</ele>
        <time>2022-05-26T07:32:19.000Z</time>
      </trkpt>
      <trkpt lat="45.05985" lon="5.55592">
        <ele>1060.4000244141</ele>
        <time>2022-05-26T07:32:28.000Z</time>
      </trkpt>
      <trkpt lat="45.05979" lon="5.55587">
        <ele>1060.8000488281</ele>
        <time>2022-05-26T07:32:35.000Z</time>
      </trkpt>
      <trkpt lat="45.05978" lon="5.55587">
        <ele>1060.8000488281</ele>
        <time>2022-05-26T07:32:36.000Z</time>
      </trkpt>
      <trkpt lat="45.05976" lon="5.55585">
        <ele>1060.8000488281</ele>
        <time>2022-05-26T07:32:37.000Z</time>
      </trkpt>
      <trkpt lat="45.05976" lon="5.55585">
        <ele>1060.8000488281</ele>
        <time>2022-05-26T07:32:38.000Z</time>
      </trkpt>
      <trkpt lat="45.05972" lon="5.55581">
        <ele>1060.5999755859</ele>
        <time>2022-05-26T07:32:42.000Z</time>
      </trkpt>
      <trkpt lat="45.05971" lon="5.5558">
        <ele>1060.5999755859</ele>
        <time>2022-05-26T07:32:43.000Z</time>
      </trkpt>
      <trkpt lat="45.0597" lon="5.55578">
        <ele>1060.5999755859</ele>
        <time>2022-05-26T07:32:44.000Z</time>
      </trkpt>
      <trkpt lat="45.05969" lon="5.55577">
        <ele>1060.4000244141</ele>
        <time>2022-05-26T07:32:45.000Z</time>
      </trkpt>
      <trkpt lat="45.05969" lon="5.55577">
        <ele>1060.4000244141</ele>
        <time>2022-05-26T07:32:46.000Z</time>
      </trkpt>
      <trkpt lat="45.05967" lon="5.55575">
        <ele>1060.4000244141</ele>
        <time>2022-05-26T07:32:47.000Z</time>
      </trkpt>
      <trkpt lat="45.05966" lon="5.55573">
        <ele>1060.1999511719</ele>
        <time>2022-05-26T07:32:50.000Z</time>
      </trkpt>
      <trkpt lat="45.0596" lon="5.55562">
        <ele>1059.4000244141</ele>
        <time>2022-05-26T07:33:00.000Z</time>
      </trkpt>
      <trkpt lat="45.0596" lon="5.55561">
        <ele>1059.4000244141</ele>
        <time>2022-05-26T07:33:01.000Z</time>
      </trkpt>
      <trkpt lat="45.05959" lon="5.55559">
        <ele>1059.4000244141</ele>
        <time>2022-05-26T07:33:02.000Z</time>
      </trkpt>
      <trkpt lat="45.05953" lon="5.5555">
        <ele>1059.4000244141</ele>
        <time>2022-05-26T07:33:09.000Z</time>
      </trkpt>
      <trkpt lat="45.05951" lon="5.55547">
        <ele>1059.1999511719</ele>
        <time>2022-05-26T07:33:12.000Z</time>
      </trkpt>
      <trkpt lat="45.05949" lon="5.55545">
        <ele>1059.1999511719</ele>
        <time>2022-05-26T07:33:13.000Z</time>
      </trkpt>
      <trkpt lat="45.05936" lon="5.55526">
        <ele>1058.8000488281</ele>
        <time>2022-05-26T07:33:29.000Z</time>
      </trkpt>
      <trkpt lat="45.05932" lon="5.55516">
        <ele>1058.5999755859</ele>
        <time>2022-05-26T07:33:36.000Z</time>
      </trkpt>
      <trkpt lat="45.05931" lon="5.55512">
        <ele>1058.4000244141</ele>
        <time>2022-05-26T07:33:38.000Z</time>
      </trkpt>
      <trkpt lat="45.05923" lon="5.55498">
        <ele>1058.1999511719</ele>
        <time>2022-05-26T07:33:49.000Z</time>
      </trkpt>
      <trkpt lat="45.0592" lon="5.55493">
        <ele>1058.1999511719</ele>
        <time>2022-05-26T07:33:53.000Z</time>
      </trkpt>
      <trkpt lat="45.05915" lon="5.55495">
        <ele>1059.1999511719</ele>
        <time>2022-05-26T07:33:57.000Z</time>
      </trkpt>
      <trkpt lat="45.05915" lon="5.55496">
        <ele>1059.5999755859</ele>
        <time>2022-05-26T07:34:00.000Z</time>
      </trkpt>
      <trkpt lat="45.05914" lon="5.55497">
        <ele>1059.8000488281</ele>
        <time>2022-05-26T07:34:02.000Z</time>
      </trkpt>
      <trkpt lat="45.05915" lon="5.55509">
        <ele>1060.8000488281</ele>
        <time>2022-05-26T07:34:23.000Z</time>
      </trkpt>
      <trkpt lat="45.05917" lon="5.5551">
        <ele>1060.5999755859</ele>
        <time>2022-05-26T07:34:25.000Z</time>
      </trkpt>
      <trkpt lat="45.05919" lon="5.55511">
        <ele>1060.4000244141</ele>
        <time>2022-05-26T07:34:28.000Z</time>
      </trkpt>
      <trkpt lat="45.05919" lon="5.55513">
        <ele>1060.5999755859</ele>
        <time>2022-05-26T07:34:30.000Z</time>
      </trkpt>
      <trkpt lat="45.05918" lon="5.55515">
        <ele>1061</ele>
        <time>2022-05-26T07:34:31.000Z</time>
      </trkpt>
      <trkpt lat="45.05918" lon="5.55516">
        <ele>1061.1999511719</ele>
        <time>2022-05-26T07:34:33.000Z</time>
      </trkpt>
      <trkpt lat="45.05917" lon="5.55519">
        <ele>1062</ele>
        <time>2022-05-26T07:34:34.000Z</time>
      </trkpt>
      <trkpt lat="45.05917" lon="5.55519">
        <ele>1062</ele>
        <time>2022-05-26T07:34:35.000Z</time>
      </trkpt>
      <trkpt lat="45.05917" lon="5.55522">
        <ele>1062.8000488281</ele>
        <time>2022-05-26T07:34:36.000Z</time>
      </trkpt>
      <trkpt lat="45.05917" lon="5.55522">
        <ele>1062.8000488281</ele>
        <time>2022-05-26T07:34:37.000Z</time>
      </trkpt>
      <trkpt lat="45.05917" lon="5.55524">
        <ele>1063.1999511719</ele>
        <time>2022-05-26T07:34:38.000Z</time>
      </trkpt>
      <trkpt lat="45.05916" lon="5.55525">
        <ele>1063.8000488281</ele>
        <time>2022-05-26T07:34:39.000Z</time>
      </trkpt>
      <trkpt lat="45.05915" lon="5.55528">
        <ele>1064.5999755859</ele>
        <time>2022-05-26T07:34:40.000Z</time>
      </trkpt>
      <trkpt lat="45.05915" lon="5.55528">
        <ele>1064.5999755859</ele>
        <time>2022-05-26T07:34:41.000Z</time>
      </trkpt>
      <trkpt lat="45.05915" lon="5.5553">
        <ele>1065.1999511719</ele>
        <time>2022-05-26T07:34:42.000Z</time>
      </trkpt>
      <trkpt lat="45.05912" lon="5.55535">
        <ele>1066.8000488281</ele>
        <time>2022-05-26T07:34:48.000Z</time>
      </trkpt>
      <trkpt lat="45.0591" lon="5.55537">
        <ele>1067.5999755859</ele>
        <time>2022-05-26T07:34:50.000Z</time>
      </trkpt>
      <trkpt lat="45.05896" lon="5.55547">
        <ele>1071.4000244141</ele>
        <time>2022-05-26T07:35:16.000Z</time>
      </trkpt>
      <trkpt lat="45.0589" lon="5.55548">
        <ele>1072.1999511719</ele>
        <time>2022-05-26T07:35:21.000Z</time>
      </trkpt>
      <trkpt lat="45.05884" lon="5.55551">
        <ele>1073.4000244141</ele>
        <time>2022-05-26T07:35:27.000Z</time>
      </trkpt>
      <trkpt lat="45.05883" lon="5.55551">
        <ele>1073.5999755859</ele>
        <time>2022-05-26T07:35:28.000Z</time>
      </trkpt>
      <trkpt lat="45.05881" lon="5.55552">
        <ele>1073.8000488281</ele>
        <time>2022-05-26T07:35:29.000Z</time>
      </trkpt>
      <trkpt lat="45.05881" lon="5.55552">
        <ele>1073.8000488281</ele>
        <time>2022-05-26T07:35:30.000Z</time>
      </trkpt>
      <trkpt lat="45.05863" lon="5.55564">
        <ele>1075.1999511719</ele>
        <time>2022-05-26T07:35:46.000Z</time>
      </trkpt>
      <trkpt lat="45.05846" lon="5.55578">
        <ele>1077</ele>
        <time>2022-05-26T07:35:58.000Z</time>
      </trkpt>
      <trkpt lat="45.05842" lon="5.5558">
        <ele>1077.1999511719</ele>
        <time>2022-05-26T07:36:02.000Z</time>
      </trkpt>
      <trkpt lat="45.05839" lon="5.55582">
        <ele>1077.4000244141</ele>
        <time>2022-05-26T07:36:07.000Z</time>
      </trkpt>
      <trkpt lat="45.05833" lon="5.5559">
        <ele>1078.1999511719</ele>
        <time>2022-05-26T07:36:18.000Z</time>
      </trkpt>
      <trkpt lat="45.05831" lon="5.5559">
        <ele>1078.1999511719</ele>
        <time>2022-05-26T07:36:19.000Z</time>
      </trkpt>
      <trkpt lat="45.05828" lon="5.55592">
        <ele>1078.4000244141</ele>
        <time>2022-05-26T07:36:20.000Z</time>
      </trkpt>
      <trkpt lat="45.05828" lon="5.55592">
        <ele>1078.4000244141</ele>
        <time>2022-05-26T07:36:21.000Z</time>
      </trkpt>
      <trkpt lat="45.05817" lon="5.556">
        <ele>1078.8000488281</ele>
        <time>2022-05-26T07:36:30.000Z</time>
      </trkpt>
      <trkpt lat="45.05814" lon="5.55603">
        <ele>1078.8000488281</ele>
        <time>2022-05-26T07:36:34.000Z</time>
      </trkpt>
      <trkpt lat="45.05808" lon="5.55607">
        <ele>1078.8000488281</ele>
        <time>2022-05-26T07:36:39.000Z</time>
      </trkpt>
      <trkpt lat="45.0579" lon="5.55619">
        <ele>1079</ele>
        <time>2022-05-26T07:36:55.000Z</time>
      </trkpt>
      <trkpt lat="45.05781" lon="5.55624">
        <ele>1079.5999755859</ele>
        <time>2022-05-26T07:37:03.000Z</time>
      </trkpt>
      <trkpt lat="45.0577" lon="5.55623">
        <ele>1079.1999511719</ele>
        <time>2022-05-26T07:37:15.000Z</time>
      </trkpt>
      <trkpt lat="45.05765" lon="5.55622">
        <ele>1079</ele>
        <time>2022-05-26T07:37:21.000Z</time>
      </trkpt>
      <trkpt lat="45.05748" lon="5.55622">
        <ele>1079.5999755859</ele>
        <time>2022-05-26T07:37:32.000Z</time>
      </trkpt>
      <trkpt lat="45.0573" lon="5.55629">
        <ele>1080.8000488281</ele>
        <time>2022-05-26T07:37:47.000Z</time>
      </trkpt>
      <trkpt lat="45.05714" lon="5.55633">
        <ele>1081</ele>
        <time>2022-05-26T07:37:59.000Z</time>
      </trkpt>
      <trkpt lat="45.05708" lon="5.55634">
        <ele>1081.1999511719</ele>
        <time>2022-05-26T07:38:07.000Z</time>
      </trkpt>
      <trkpt lat="45.05702" lon="5.55637">
        <ele>1082</ele>
        <time>2022-05-26T07:38:12.000Z</time>
      </trkpt>
      <trkpt lat="45.05702" lon="5.55637">
        <ele>1082.1999511719</ele>
        <time>2022-05-26T07:38:13.000Z</time>
      </trkpt>
      <trkpt lat="45.05684" lon="5.55643">
        <ele>1084.1999511719</ele>
        <time>2022-05-26T07:38:31.000Z</time>
      </trkpt>
      <trkpt lat="45.05668" lon="5.55641">
        <ele>1087.1999511719</ele>
        <time>2022-05-26T07:38:41.000Z</time>
      </trkpt>
      <trkpt lat="45.05667" lon="5.55641">
        <ele>1087.4000244141</ele>
        <time>2022-05-26T07:38:42.000Z</time>
      </trkpt>
      <trkpt lat="45.05648" lon="5.55638">
        <ele>1092.4000244141</ele>
        <time>2022-05-26T07:38:58.000Z</time>
      </trkpt>
      <trkpt lat="45.05641" lon="5.55635">
        <ele>1094.8000488281</ele>
        <time>2022-05-26T07:39:07.000Z</time>
      </trkpt>
      <trkpt lat="45.05639" lon="5.5563">
        <ele>1094.4000244141</ele>
        <time>2022-05-26T07:39:10.000Z</time>
      </trkpt>
      <trkpt lat="45.05633" lon="5.55608">
        <ele>1092.1999511719</ele>
        <time>2022-05-26T07:39:27.000Z</time>
      </trkpt>
      <trkpt lat="45.0562" lon="5.55595">
        <ele>1096</ele>
        <time>2022-05-26T07:39:44.000Z</time>
      </trkpt>
      <trkpt lat="45.05615" lon="5.55595">
        <ele>1098</ele>
        <time>2022-05-26T07:39:47.000Z</time>
      </trkpt>
      <trkpt lat="45.05596" lon="5.55594">
        <ele>1105.5999755859</ele>
        <time>2022-05-26T07:39:58.000Z</time>
      </trkpt>
      <trkpt lat="45.05583" lon="5.55575">
        <ele>1105.8000488281</ele>
        <time>2022-05-26T07:40:20.000Z</time>
      </trkpt>
      <trkpt lat="45.05571" lon="5.55569">
        <ele>1108</ele>
        <time>2022-05-26T07:40:29.000Z</time>
      </trkpt>
      <trkpt lat="45.05569" lon="5.55569">
        <ele>1108.8000488281</ele>
        <time>2022-05-26T07:40:31.000Z</time>
      </trkpt>
      <trkpt lat="45.05568" lon="5.55568">
        <ele>1109.1999511719</ele>
        <time>2022-05-26T07:40:32.000Z</time>
      </trkpt>
      <trkpt lat="45.05562" lon="5.55565">
        <ele>1110.4000244141</ele>
        <time>2022-05-26T07:40:37.000Z</time>
      </trkpt>
      <trkpt lat="45.05561" lon="5.55563">
        <ele>1110.1999511719</ele>
        <time>2022-05-26T07:40:39.000Z</time>
      </trkpt>
      <trkpt lat="45.05559" lon="5.55562">
        <ele>1110.8000488281</ele>
        <time>2022-05-26T07:40:40.000Z</time>
      </trkpt>
      <trkpt lat="45.05559" lon="5.55562">
        <ele>1110.8000488281</ele>
        <time>2022-05-26T07:40:41.000Z</time>
      </trkpt>
      <trkpt lat="45.05558" lon="5.55559">
        <ele>1110.8000488281</ele>
        <time>2022-05-26T07:40:44.000Z</time>
      </trkpt>
      <trkpt lat="45.05551" lon="5.55551">
        <ele>1111.4000244141</ele>
        <time>2022-05-26T07:40:55.000Z</time>
      </trkpt>
      <trkpt lat="45.05537" lon="5.55534">
        <ele>1112.8000488281</ele>
        <time>2022-05-26T07:41:16.000Z</time>
      </trkpt>
      <trkpt lat="45.05536" lon="5.55533">
        <ele>1113</ele>
        <time>2022-05-26T07:41:17.000Z</time>
      </trkpt>
      <trkpt lat="45.05533" lon="5.5553">
        <ele>1113.4000244141</ele>
        <time>2022-05-26T07:41:21.000Z</time>
      </trkpt>
      <trkpt lat="45.05531" lon="5.55527">
        <ele>1113.4000244141</ele>
        <time>2022-05-26T07:41:24.000Z</time>
      </trkpt>
      <trkpt lat="45.05526" lon="5.55519">
        <ele>1112.8000488281</ele>
        <time>2022-05-26T07:41:31.000Z</time>
      </trkpt>
      <trkpt lat="45.05511" lon="5.55503">
        <ele>1113.8000488281</ele>
        <time>2022-05-26T07:41:50.000Z</time>
      </trkpt>
      <trkpt lat="45.05505" lon="5.55493">
        <ele>1113.8000488281</ele>
        <time>2022-05-26T07:41:59.000Z</time>
      </trkpt>
      <trkpt lat="45.05499" lon="5.55488">
        <ele>1114.8000488281</ele>
        <time>2022-05-26T07:42:06.000Z</time>
      </trkpt>
      <trkpt lat="45.05498" lon="5.55487">
        <ele>1114.8000488281</ele>
        <time>2022-05-26T07:42:07.000Z</time>
      </trkpt>
      <trkpt lat="45.05498" lon="5.55486">
        <ele>1114.8000488281</ele>
        <time>2022-05-26T07:42:08.000Z</time>
      </trkpt>
      <trkpt lat="45.05497" lon="5.55485">
        <ele>1114.8000488281</ele>
        <time>2022-05-26T07:42:09.000Z</time>
      </trkpt>
      <trkpt lat="45.05497" lon="5.55485">
        <ele>1114.8000488281</ele>
        <time>2022-05-26T07:42:10.000Z</time>
      </trkpt>
      <trkpt lat="45.05496" lon="5.55483">
        <ele>1114.8000488281</ele>
        <time>2022-05-26T07:42:11.000Z</time>
      </trkpt>
      <trkpt lat="45.05489" lon="5.55472">
        <ele>1115.4000244141</ele>
        <time>2022-05-26T07:42:22.000Z</time>
      </trkpt>
      <trkpt lat="45.05488" lon="5.55471">
        <ele>1115.5999755859</ele>
        <time>2022-05-26T07:42:24.000Z</time>
      </trkpt>
      <trkpt lat="45.05486" lon="5.55469">
        <ele>1116</ele>
        <time>2022-05-26T07:42:27.000Z</time>
      </trkpt>
      <trkpt lat="45.05477" lon="5.5546">
        <ele>1117.8000488281</ele>
        <time>2022-05-26T07:42:37.000Z</time>
      </trkpt>
      <trkpt lat="45.05467" lon="5.55454">
        <ele>1119.8000488281</ele>
        <time>2022-05-26T07:42:46.000Z</time>
      </trkpt>
      <trkpt lat="45.05465" lon="5.55453">
        <ele>1120.1999511719</ele>
        <time>2022-05-26T07:42:48.000Z</time>
      </trkpt>
      <trkpt lat="45.05452" lon="5.55434">
        <ele>1121.8000488281</ele>
        <time>2022-05-26T07:43:07.000Z</time>
      </trkpt>
      <trkpt lat="45.05441" lon="5.55421">
        <ele>1123.1999511719</ele>
        <time>2022-05-26T07:43:17.000Z</time>
      </trkpt>
      <trkpt lat="45.05441" lon="5.55418">
        <ele>1123.1999511719</ele>
        <time>2022-05-26T07:43:18.000Z</time>
      </trkpt>
      <trkpt lat="45.0544" lon="5.55416">
        <ele>1123</ele>
        <time>2022-05-26T07:43:19.000Z</time>
      </trkpt>
      <trkpt lat="45.0544" lon="5.55414">
        <ele>1122.8000488281</ele>
        <time>2022-05-26T07:43:20.000Z</time>
      </trkpt>
      <trkpt lat="45.05437" lon="5.5541">
        <ele>1122.8000488281</ele>
        <time>2022-05-26T07:43:22.000Z</time>
      </trkpt>
      <trkpt lat="45.05436" lon="5.55409">
        <ele>1122.8000488281</ele>
        <time>2022-05-26T07:43:23.000Z</time>
      </trkpt>
      <trkpt lat="45.05436" lon="5.55407">
        <ele>1122.5999755859</ele>
        <time>2022-05-26T07:43:24.000Z</time>
      </trkpt>
      <trkpt lat="45.05435" lon="5.55405">
        <ele>1122.4000244141</ele>
        <time>2022-05-26T07:43:25.000Z</time>
      </trkpt>
      <trkpt lat="45.05434" lon="5.55403">
        <ele>1122.4000244141</ele>
        <time>2022-05-26T07:43:26.000Z</time>
      </trkpt>
      <trkpt lat="45.05434" lon="5.55403">
        <ele>1122.4000244141</ele>
        <time>2022-05-26T07:43:27.000Z</time>
      </trkpt>
      <trkpt lat="45.05432" lon="5.55399">
        <ele>1122.1999511719</ele>
        <time>2022-05-26T07:43:30.000Z</time>
      </trkpt>
      <trkpt lat="45.0543" lon="5.55396">
        <ele>1122.1999511719</ele>
        <time>2022-05-26T07:43:33.000Z</time>
      </trkpt>
      <trkpt lat="45.05426" lon="5.55391">
        <ele>1122.1999511719</ele>
        <time>2022-05-26T07:43:38.000Z</time>
      </trkpt>
      <trkpt lat="45.05423" lon="5.55388">
        <ele>1122.5999755859</ele>
        <time>2022-05-26T07:43:42.000Z</time>
      </trkpt>
      <trkpt lat="45.05408" lon="5.55373">
        <ele>1125.4000244141</ele>
        <time>2022-05-26T07:43:59.000Z</time>
      </trkpt>
      <trkpt lat="45.05402" lon="5.55366">
        <ele>1126.8000488281</ele>
        <time>2022-05-26T07:44:06.000Z</time>
      </trkpt>
      <trkpt lat="45.05401" lon="5.55365">
        <ele>1127.1999511719</ele>
        <time>2022-05-26T07:44:07.000Z</time>
      </trkpt>
      <trkpt lat="45.05397" lon="5.55364">
        <ele>1128.4000244141</ele>
        <time>2022-05-26T07:44:11.000Z</time>
      </trkpt>
      <trkpt lat="45.05391" lon="5.55358">
        <ele>1130.5999755859</ele>
        <time>2022-05-26T07:44:20.000Z</time>
      </trkpt>
      <trkpt lat="45.05392" lon="5.55354">
        <ele>1130.5999755859</ele>
        <time>2022-05-26T07:44:23.000Z</time>
      </trkpt>
      <trkpt lat="45.05387" lon="5.55349">
        <ele>1132.5999755859</ele>
        <time>2022-05-26T07:44:31.000Z</time>
      </trkpt>
      <trkpt lat="45.05375" lon="5.55345">
        <ele>1136.4000244141</ele>
        <time>2022-05-26T07:44:42.000Z</time>
      </trkpt>
      <trkpt lat="45.05371" lon="5.55341">
        <ele>1136.8000488281</ele>
        <time>2022-05-26T07:44:47.000Z</time>
      </trkpt>
      <trkpt lat="45.05358" lon="5.55333">
        <ele>1137.8000488281</ele>
        <time>2022-05-26T07:45:00.000Z</time>
      </trkpt>
      <trkpt lat="45.05342" lon="5.5532">
        <ele>1138.5999755859</ele>
        <time>2022-05-26T07:45:15.000Z</time>
      </trkpt>
      <trkpt lat="45.05335" lon="5.55317">
        <ele>1138</ele>
        <time>2022-05-26T07:45:21.000Z</time>
      </trkpt>
      <trkpt lat="45.05317" lon="5.55309">
        <ele>1136.1999511719</ele>
        <time>2022-05-26T07:45:37.000Z</time>
      </trkpt>
      <trkpt lat="45.05309" lon="5.55306">
        <ele>1134.5999755859</ele>
        <time>2022-05-26T07:45:49.000Z</time>
      </trkpt>
      <trkpt lat="45.0531" lon="5.55309">
        <ele>1134.4000244141</ele>
        <time>2022-05-26T07:46:29.000Z</time>
      </trkpt>
      <trkpt lat="45.0531" lon="5.55308">
        <ele>1134.5999755859</ele>
        <time>2022-05-26T07:46:34.000Z</time>
      </trkpt>
      <trkpt lat="45.0531" lon="5.55306">
        <ele>1134.5999755859</ele>
        <time>2022-05-26T07:46:41.000Z</time>
      </trkpt>
      <trkpt lat="45.05311" lon="5.55305">
        <ele>1134.8000488281</ele>
        <time>2022-05-26T07:46:49.000Z</time>
      </trkpt>
      <trkpt lat="45.05311" lon="5.55305">
        <ele>1134.8000488281</ele>
        <time>2022-05-26T07:46:52.000Z</time>
      </trkpt>
      <trkpt lat="45.05311" lon="5.55305">
        <ele>1134.8000488281</ele>
        <time>2022-05-26T07:46:56.000Z</time>
      </trkpt>
      <trkpt lat="45.05311" lon="5.55305">
        <ele>1134.8000488281</ele>
        <time>2022-05-26T07:46:57.000Z</time>
      </trkpt>
      <trkpt lat="45.05306" lon="5.55304">
        <ele>1133.8000488281</ele>
        <time>2022-05-26T07:47:57.000Z</time>
      </trkpt>
      <trkpt lat="45.05303" lon="5.55302">
        <ele>1133.1999511719</ele>
        <time>2022-05-26T07:48:00.000Z</time>
      </trkpt>
      <trkpt lat="45.05302" lon="5.55301">
        <ele>1133</ele>
        <time>2022-05-26T07:48:01.000Z</time>
      </trkpt>
      <trkpt lat="45.05297" lon="5.55298">
        <ele>1131.8000488281</ele>
        <time>2022-05-26T07:48:06.000Z</time>
      </trkpt>
      <trkpt lat="45.05295" lon="5.55298">
        <ele>1131.4000244141</ele>
        <time>2022-05-26T07:48:07.000Z</time>
      </trkpt>
      <trkpt lat="45.05294" lon="5.55297">
        <ele>1131.1999511719</ele>
        <time>2022-05-26T07:48:08.000Z</time>
      </trkpt>
      <trkpt lat="45.05292" lon="5.55296">
        <ele>1130.8000488281</ele>
        <time>2022-05-26T07:48:09.000Z</time>
      </trkpt>
      <trkpt lat="45.05292" lon="5.55296">
        <ele>1130.8000488281</ele>
        <time>2022-05-26T07:48:10.000Z</time>
      </trkpt>
      <trkpt lat="45.05274" lon="5.55292">
        <ele>1126.8000488281</ele>
        <time>2022-05-26T07:48:23.000Z</time>
      </trkpt>
      <trkpt lat="45.05265" lon="5.5529">
        <ele>1125</ele>
        <time>2022-05-26T07:48:30.000Z</time>
      </trkpt>
      <trkpt lat="45.05263" lon="5.5529">
        <ele>1124.5999755859</ele>
        <time>2022-05-26T07:48:32.000Z</time>
      </trkpt>
      <trkpt lat="45.05253" lon="5.55286">
        <ele>1122.8000488281</ele>
        <time>2022-05-26T07:48:41.000Z</time>
      </trkpt>
      <trkpt lat="45.05234" lon="5.55287">
        <ele>1120.4000244141</ele>
        <time>2022-05-26T07:48:55.000Z</time>
      </trkpt>
      <trkpt lat="45.05221" lon="5.55292">
        <ele>1119</ele>
        <time>2022-05-26T07:49:05.000Z</time>
      </trkpt>
      <trkpt lat="45.05205" lon="5.55294">
        <ele>1117.4000244141</ele>
        <time>2022-05-26T07:49:16.000Z</time>
      </trkpt>
      <trkpt lat="45.05202" lon="5.55294">
        <ele>1117.1999511719</ele>
        <time>2022-05-26T07:49:18.000Z</time>
      </trkpt>
      <trkpt lat="45.05201" lon="5.55294">
        <ele>1117.1999511719</ele>
        <time>2022-05-26T07:49:19.000Z</time>
      </trkpt>
      <trkpt lat="45.05199" lon="5.55293">
        <ele>1117</ele>
        <time>2022-05-26T07:49:21.000Z</time>
      </trkpt>
      <trkpt lat="45.05198" lon="5.55292">
        <ele>1117</ele>
        <time>2022-05-26T07:49:22.000Z</time>
      </trkpt>
      <trkpt lat="45.05197" lon="5.55292">
        <ele>1116.8000488281</ele>
        <time>2022-05-26T07:49:23.000Z</time>
      </trkpt>
      <trkpt lat="45.05195" lon="5.5529">
        <ele>1116.5999755859</ele>
        <time>2022-05-26T07:49:24.000Z</time>
      </trkpt>
      <trkpt lat="45.05195" lon="5.5529">
        <ele>1116.5999755859</ele>
        <time>2022-05-26T07:49:25.000Z</time>
      </trkpt>
      <trkpt lat="45.05194" lon="5.55289">
        <ele>1116.5999755859</ele>
        <time>2022-05-26T07:49:26.000Z</time>
      </trkpt>
      <trkpt lat="45.0519" lon="5.55287">
        <ele>1116</ele>
        <time>2022-05-26T07:49:30.000Z</time>
      </trkpt>
      <trkpt lat="45.05186" lon="5.55283">
        <ele>1115.5999755859</ele>
        <time>2022-05-26T07:49:33.000Z</time>
      </trkpt>
      <trkpt lat="45.05183" lon="5.55279">
        <ele>1115</ele>
        <time>2022-05-26T07:49:36.000Z</time>
      </trkpt>
      <trkpt lat="45.05182" lon="5.55278">
        <ele>1115</ele>
        <time>2022-05-26T07:49:37.000Z</time>
      </trkpt>
      <trkpt lat="45.05181" lon="5.55277">
        <ele>1115</ele>
        <time>2022-05-26T07:49:38.000Z</time>
      </trkpt>
      <trkpt lat="45.05178" lon="5.55275">
        <ele>1115.4000244141</ele>
        <time>2022-05-26T07:49:40.000Z</time>
      </trkpt>
      <trkpt lat="45.05176" lon="5.55275">
        <ele>1115.4000244141</ele>
        <time>2022-05-26T07:49:41.000Z</time>
      </trkpt>
      <trkpt lat="45.05176" lon="5.55274">
        <ele>1115.5999755859</ele>
        <time>2022-05-26T07:49:42.000Z</time>
      </trkpt>
      <trkpt lat="45.05174" lon="5.5527">
        <ele>1115.5999755859</ele>
        <time>2022-05-26T07:49:43.000Z</time>
      </trkpt>
      <trkpt lat="45.05164" lon="5.55262">
        <ele>1116.4000244141</ele>
        <time>2022-05-26T07:49:53.000Z</time>
      </trkpt>
      <trkpt lat="45.05148" lon="5.55252">
        <ele>1117.5999755859</ele>
        <time>2022-05-26T07:50:07.000Z</time>
      </trkpt>
      <trkpt lat="45.05139" lon="5.55247">
        <ele>1117</ele>
        <time>2022-05-26T07:50:14.000Z</time>
      </trkpt>
      <trkpt lat="45.05131" lon="5.5524">
        <ele>1115.8000488281</ele>
        <time>2022-05-26T07:50:23.000Z</time>
      </trkpt>
      <trkpt lat="45.05114" lon="5.55231">
        <ele>1114.8000488281</ele>
        <time>2022-05-26T07:50:36.000Z</time>
      </trkpt>
      <trkpt lat="45.05107" lon="5.55226">
        <ele>1113.8000488281</ele>
        <time>2022-05-26T07:50:43.000Z</time>
      </trkpt>
      <trkpt lat="45.05096" lon="5.55217">
        <ele>1113.5999755859</ele>
        <time>2022-05-26T07:50:54.000Z</time>
      </trkpt>
      <trkpt lat="45.05091" lon="5.55214">
        <ele>1114.4000244141</ele>
        <time>2022-05-26T07:50:58.000Z</time>
      </trkpt>
      <trkpt lat="45.05089" lon="5.55212">
        <ele>1114.5999755859</ele>
        <time>2022-05-26T07:51:00.000Z</time>
      </trkpt>
      <trkpt lat="45.05087" lon="5.55209">
        <ele>1114.8000488281</ele>
        <time>2022-05-26T07:51:04.000Z</time>
      </trkpt>
      <trkpt lat="45.05085" lon="5.55208">
        <ele>1115</ele>
        <time>2022-05-26T07:51:06.000Z</time>
      </trkpt>
      <trkpt lat="45.0507" lon="5.55192">
        <ele>1116.4000244141</ele>
        <time>2022-05-26T07:51:21.000Z</time>
      </trkpt>
      <trkpt lat="45.0506" lon="5.55186">
        <ele>1117.1999511719</ele>
        <time>2022-05-26T07:51:33.000Z</time>
      </trkpt>
      <trkpt lat="45.0506" lon="5.55186">
        <ele>1117</ele>
        <time>2022-05-26T07:51:45.000Z</time>
      </trkpt>
      <trkpt lat="45.05059" lon="5.55186">
        <ele>1117.4000244141</ele>
        <time>2022-05-26T07:51:51.000Z</time>
      </trkpt>
      <trkpt lat="45.05058" lon="5.55186">
        <ele>1117.5999755859</ele>
        <time>2022-05-26T07:51:52.000Z</time>
      </trkpt>
      <trkpt lat="45.05058" lon="5.55186">
        <ele>1117.5999755859</ele>
        <time>2022-05-26T07:51:53.000Z</time>
      </trkpt>
      <trkpt lat="45.05053" lon="5.55188">
        <ele>1119.5999755859</ele>
        <time>2022-05-26T07:52:07.000Z</time>
      </trkpt>
      <trkpt lat="45.05045" lon="5.55185">
        <ele>1120.8000488281</ele>
        <time>2022-05-26T07:52:16.000Z</time>
      </trkpt>
      <trkpt lat="45.05044" lon="5.55185">
        <ele>1121</ele>
        <time>2022-05-26T07:52:17.000Z</time>
      </trkpt>
      <trkpt lat="45.05034" lon="5.55183">
        <ele>1121.1999511719</ele>
        <time>2022-05-26T07:52:25.000Z</time>
      </trkpt>
      <trkpt lat="45.0503" lon="5.55184">
        <ele>1121.4000244141</ele>
        <time>2022-05-26T07:52:29.000Z</time>
      </trkpt>
      <trkpt lat="45.05027" lon="5.55184">
        <ele>1121.1999511719</ele>
        <time>2022-05-26T07:52:31.000Z</time>
      </trkpt>
      <trkpt lat="45.05027" lon="5.55184">
        <ele>1121.1999511719</ele>
        <time>2022-05-26T07:52:32.000Z</time>
      </trkpt>
      <trkpt lat="45.05015" lon="5.55187">
        <ele>1121.4000244141</ele>
        <time>2022-05-26T07:52:41.000Z</time>
      </trkpt>
      <trkpt lat="45.05012" lon="5.55188">
        <ele>1121.8000488281</ele>
        <time>2022-05-26T07:52:45.000Z</time>
      </trkpt>
      <trkpt lat="45.05005" lon="5.5519">
        <ele>1122.1999511719</ele>
        <time>2022-05-26T07:52:54.000Z</time>
      </trkpt>
      <trkpt lat="45.05003" lon="5.55191">
        <ele>1122.4000244141</ele>
        <time>2022-05-26T07:52:55.000Z</time>
      </trkpt>
      <trkpt lat="45.04985" lon="5.55195">
        <ele>1123</ele>
        <time>2022-05-26T07:53:10.000Z</time>
      </trkpt>
      <trkpt lat="45.04967" lon="5.55199">
        <ele>1125.1999511719</ele>
        <time>2022-05-26T07:53:24.000Z</time>
      </trkpt>
      <trkpt lat="45.04949" lon="5.55201">
        <ele>1126.1999511719</ele>
        <time>2022-05-26T07:53:41.000Z</time>
      </trkpt>
      <trkpt lat="45.04944" lon="5.55201">
        <ele>1126.1999511719</ele>
        <time>2022-05-26T07:53:44.000Z</time>
      </trkpt>
      <trkpt lat="45.04925" lon="5.552">
        <ele>1126.8000488281</ele>
        <time>2022-05-26T07:54:00.000Z</time>
      </trkpt>
      <trkpt lat="45.04914" lon="5.55201">
        <ele>1127.4000244141</ele>
        <time>2022-05-26T07:54:11.000Z</time>
      </trkpt>
      <trkpt lat="45.04906" lon="5.55201">
        <ele>1127.5999755859</ele>
        <time>2022-05-26T07:54:19.000Z</time>
      </trkpt>
      <trkpt lat="45.04887" lon="5.55201">
        <ele>1128</ele>
        <time>2022-05-26T07:54:31.000Z</time>
      </trkpt>
      <trkpt lat="45.04869" lon="5.55202">
        <ele>1128</ele>
        <time>2022-05-26T07:54:43.000Z</time>
      </trkpt>
      <trkpt lat="45.04858" lon="5.55205">
        <ele>1128.1999511719</ele>
        <time>2022-05-26T07:54:52.000Z</time>
      </trkpt>
      <trkpt lat="45.04842" lon="5.5522">
        <ele>1129.8000488281</ele>
        <time>2022-05-26T07:55:09.000Z</time>
      </trkpt>
      <trkpt lat="45.04834" lon="5.55238">
        <ele>1131</ele>
        <time>2022-05-26T07:55:19.000Z</time>
      </trkpt>
      <trkpt lat="45.04834" lon="5.5524">
        <ele>1131</ele>
        <time>2022-05-26T07:55:20.000Z</time>
      </trkpt>
      <trkpt lat="45.04831" lon="5.55254">
        <ele>1131.4000244141</ele>
        <time>2022-05-26T07:55:28.000Z</time>
      </trkpt>
      <trkpt lat="45.04831" lon="5.55262">
        <ele>1132.1999511719</ele>
        <time>2022-05-26T07:55:33.000Z</time>
      </trkpt>
      <trkpt lat="45.04826" lon="5.55288">
        <ele>1131</ele>
        <time>2022-05-26T07:55:48.000Z</time>
      </trkpt>
      <trkpt lat="45.04822" lon="5.55314">
        <ele>1129.1999511719</ele>
        <time>2022-05-26T07:56:03.000Z</time>
      </trkpt>
      <trkpt lat="45.04821" lon="5.5534">
        <ele>1128</ele>
        <time>2022-05-26T07:56:18.000Z</time>
      </trkpt>
      <trkpt lat="45.04819" lon="5.55367">
        <ele>1126.8000488281</ele>
        <time>2022-05-26T07:56:33.000Z</time>
      </trkpt>
      <trkpt lat="45.04818" lon="5.5538">
        <ele>1126.5999755859</ele>
        <time>2022-05-26T07:56:40.000Z</time>
      </trkpt>
      <trkpt lat="45.04818" lon="5.55382">
        <ele>1126.5999755859</ele>
        <time>2022-05-26T07:56:41.000Z</time>
      </trkpt>
      <trkpt lat="45.04817" lon="5.55384">
        <ele>1126.5999755859</ele>
        <time>2022-05-26T07:56:42.000Z</time>
      </trkpt>
      <trkpt lat="45.04815" lon="5.5541">
        <ele>1126.5999755859</ele>
        <time>2022-05-26T07:56:57.000Z</time>
      </trkpt>
      <trkpt lat="45.04818" lon="5.55416">
        <ele>1127.8000488281</ele>
        <time>2022-05-26T07:57:00.000Z</time>
      </trkpt>
      <trkpt lat="45.04821" lon="5.55441">
        <ele>1129</ele>
        <time>2022-05-26T07:57:13.000Z</time>
      </trkpt>
      <trkpt lat="45.04822" lon="5.55467">
        <ele>1128.8000488281</ele>
        <time>2022-05-26T07:57:28.000Z</time>
      </trkpt>
      <trkpt lat="45.04825" lon="5.55493">
        <ele>1128.5999755859</ele>
        <time>2022-05-26T07:57:42.000Z</time>
      </trkpt>
      <trkpt lat="45.04827" lon="5.55503">
        <ele>1129.4000244141</ele>
        <time>2022-05-26T07:57:48.000Z</time>
      </trkpt>
      <trkpt lat="45.0482" lon="5.55525">
        <ele>1126.8000488281</ele>
        <time>2022-05-26T07:58:05.000Z</time>
      </trkpt>
      <trkpt lat="45.04805" lon="5.55538">
        <ele>1124.8000488281</ele>
        <time>2022-05-26T07:58:19.000Z</time>
      </trkpt>
      <trkpt lat="45.04788" lon="5.55549">
        <ele>1124</ele>
        <time>2022-05-26T07:58:35.000Z</time>
      </trkpt>
      <trkpt lat="45.04769" lon="5.55544">
        <ele>1123.4000244141</ele>
        <time>2022-05-26T07:58:52.000Z</time>
      </trkpt>
      <trkpt lat="45.04755" lon="5.55533">
        <ele>1123.5999755859</ele>
        <time>2022-05-26T07:59:04.000Z</time>
      </trkpt>
      <trkpt lat="45.04748" lon="5.55528">
        <ele>1123.8000488281</ele>
        <time>2022-05-26T07:59:11.000Z</time>
      </trkpt>
      <trkpt lat="45.04745" lon="5.5552">
        <ele>1123.1999511719</ele>
        <time>2022-05-26T07:59:16.000Z</time>
      </trkpt>
      <trkpt lat="45.04743" lon="5.55518">
        <ele>1123</ele>
        <time>2022-05-26T07:59:18.000Z</time>
      </trkpt>
      <trkpt lat="45.0474" lon="5.55515">
        <ele>1122.8000488281</ele>
        <time>2022-05-26T07:59:20.000Z</time>
      </trkpt>
      <trkpt lat="45.04737" lon="5.5551">
        <ele>1122.5999755859</ele>
        <time>2022-05-26T07:59:24.000Z</time>
      </trkpt>
      <trkpt lat="45.0473" lon="5.55497">
        <ele>1122.4000244141</ele>
        <time>2022-05-26T07:59:35.000Z</time>
      </trkpt>
      <trkpt lat="45.04727" lon="5.55495">
        <ele>1123</ele>
        <time>2022-05-26T07:59:40.000Z</time>
      </trkpt>
      <trkpt lat="45.04723" lon="5.55485">
        <ele>1122.8000488281</ele>
        <time>2022-05-26T07:59:47.000Z</time>
      </trkpt>
      <trkpt lat="45.04718" lon="5.55468">
        <ele>1122.1999511719</ele>
        <time>2022-05-26T07:59:59.000Z</time>
      </trkpt>
      <trkpt lat="45.04713" lon="5.55458">
        <ele>1122.5999755859</ele>
        <time>2022-05-26T08:00:06.000Z</time>
      </trkpt>
      <trkpt lat="45.04712" lon="5.55457">
        <ele>1122.5999755859</ele>
        <time>2022-05-26T08:00:07.000Z</time>
      </trkpt>
      <trkpt lat="45.04711" lon="5.55455">
        <ele>1122.8000488281</ele>
        <time>2022-05-26T08:00:08.000Z</time>
      </trkpt>
      <trkpt lat="45.04695" lon="5.55445">
        <ele>1124.4000244141</ele>
        <time>2022-05-26T08:00:23.000Z</time>
      </trkpt>
      <trkpt lat="45.04685" lon="5.55446">
        <ele>1126.4000244141</ele>
        <time>2022-05-26T08:00:31.000Z</time>
      </trkpt>
      <trkpt lat="45.0468" lon="5.55448">
        <ele>1127</ele>
        <time>2022-05-26T08:00:37.000Z</time>
      </trkpt>
      <trkpt lat="45.0468" lon="5.55445">
        <ele>1126.8000488281</ele>
        <time>2022-05-26T08:00:40.000Z</time>
      </trkpt>
      <trkpt lat="45.0468" lon="5.55441">
        <ele>1126</ele>
        <time>2022-05-26T08:00:44.000Z</time>
      </trkpt>
      <trkpt lat="45.04682" lon="5.55435">
        <ele>1125</ele>
        <time>2022-05-26T08:01:33.000Z</time>
      </trkpt>
      <trkpt lat="45.04677" lon="5.55419">
        <ele>1122.1999511719</ele>
        <time>2022-05-26T08:01:46.000Z</time>
      </trkpt>
      <trkpt lat="45.04677" lon="5.55418">
        <ele>1122.1999511719</ele>
        <time>2022-05-26T08:01:47.000Z</time>
      </trkpt>
      <trkpt lat="45.04677" lon="5.55418">
        <ele>1122.1999511719</ele>
        <time>2022-05-26T08:01:48.000Z</time>
      </trkpt>
      <trkpt lat="45.04675" lon="5.5542">
        <ele>1122.5999755859</ele>
        <time>2022-05-26T08:01:53.000Z</time>
      </trkpt>
      <trkpt lat="45.04674" lon="5.55419">
        <ele>1122.4000244141</ele>
        <time>2022-05-26T08:01:57.000Z</time>
      </trkpt>
      <trkpt lat="45.04674" lon="5.55419">
        <ele>1122.4000244141</ele>
        <time>2022-05-26T08:01:58.000Z</time>
      </trkpt>
      <trkpt lat="45.04675" lon="5.55418">
        <ele>1122.1999511719</ele>
        <time>2022-05-26T08:01:59.000Z</time>
      </trkpt>
      <trkpt lat="45.04676" lon="5.55419">
        <ele>1122.1999511719</ele>
        <time>2022-05-26T08:02:00.000Z</time>
      </trkpt>
      <trkpt lat="45.04675" lon="5.55419">
        <ele>1122.4000244141</ele>
        <time>2022-05-26T08:02:03.000Z</time>
      </trkpt>
      <trkpt lat="45.04675" lon="5.5542">
        <ele>1122.5999755859</ele>
        <time>2022-05-26T08:02:04.000Z</time>
      </trkpt>
      <trkpt lat="45.04676" lon="5.5542">
        <ele>1122.5999755859</ele>
        <time>2022-05-26T08:02:05.000Z</time>
      </trkpt>
      <trkpt lat="45.04677" lon="5.55421">
        <ele>1122.5999755859</ele>
        <time>2022-05-26T08:02:08.000Z</time>
      </trkpt>
      <trkpt lat="45.04677" lon="5.55441">
        <ele>1126.1999511719</ele>
        <time>2022-05-26T08:02:24.000Z</time>
      </trkpt>
      <trkpt lat="45.04676" lon="5.55443">
        <ele>1126.1999511719</ele>
        <time>2022-05-26T08:02:25.000Z</time>
      </trkpt>
      <trkpt lat="45.04676" lon="5.55445">
        <ele>1126.1999511719</ele>
        <time>2022-05-26T08:02:26.000Z</time>
      </trkpt>
      <trkpt lat="45.04676" lon="5.55447">
        <ele>1126.4000244141</ele>
        <time>2022-05-26T08:02:27.000Z</time>
      </trkpt>
      <trkpt lat="45.04675" lon="5.55451">
        <ele>1126.8000488281</ele>
        <time>2022-05-26T08:02:29.000Z</time>
      </trkpt>
      <trkpt lat="45.04674" lon="5.55458">
        <ele>1127.4000244141</ele>
        <time>2022-05-26T08:02:32.000Z</time>
      </trkpt>
      <trkpt lat="45.04675" lon="5.55468">
        <ele>1128.5999755859</ele>
        <time>2022-05-26T08:02:37.000Z</time>
      </trkpt>
      <trkpt lat="45.04675" lon="5.55471">
        <ele>1128.8000488281</ele>
        <time>2022-05-26T08:02:39.000Z</time>
      </trkpt>
      <trkpt lat="45.04675" lon="5.55477">
        <ele>1129</ele>
        <time>2022-05-26T08:02:42.000Z</time>
      </trkpt>
      <trkpt lat="45.04675" lon="5.55478">
        <ele>1129</ele>
        <time>2022-05-26T08:02:43.000Z</time>
      </trkpt>
      <trkpt lat="45.04672" lon="5.55486">
        <ele>1128.5999755859</ele>
        <time>2022-05-26T08:02:49.000Z</time>
      </trkpt>
      <trkpt lat="45.04671" lon="5.55491">
        <ele>1128.4000244141</ele>
        <time>2022-05-26T08:02:52.000Z</time>
      </trkpt>
      <trkpt lat="45.04664" lon="5.555">
        <ele>1128.5999755859</ele>
        <time>2022-05-26T08:02:59.000Z</time>
      </trkpt>
      <trkpt lat="45.04664" lon="5.55502">
        <ele>1128.8000488281</ele>
        <time>2022-05-26T08:03:01.000Z</time>
      </trkpt>
      <trkpt lat="45.04662" lon="5.55503">
        <ele>1128.5999755859</ele>
        <time>2022-05-26T08:03:03.000Z</time>
      </trkpt>
      <trkpt lat="45.04657" lon="5.55508">
        <ele>1128.1999511719</ele>
        <time>2022-05-26T08:03:08.000Z</time>
      </trkpt>
      <trkpt lat="45.04641" lon="5.55522">
        <ele>1125.8000488281</ele>
        <time>2022-05-26T08:03:19.000Z</time>
      </trkpt>
      <trkpt lat="45.04625" lon="5.5553">
        <ele>1125</ele>
        <time>2022-05-26T08:03:41.000Z</time>
      </trkpt>
      <trkpt lat="45.04617" lon="5.55533">
        <ele>1124.5999755859</ele>
        <time>2022-05-26T08:03:47.000Z</time>
      </trkpt>
      <trkpt lat="45.04616" lon="5.55533">
        <ele>1124.5999755859</ele>
        <time>2022-05-26T08:03:48.000Z</time>
      </trkpt>
      <trkpt lat="45.04614" lon="5.55533">
        <ele>1124.4000244141</ele>
        <time>2022-05-26T08:03:49.000Z</time>
      </trkpt>
      <trkpt lat="45.04612" lon="5.55534">
        <ele>1124.1999511719</ele>
        <time>2022-05-26T08:03:51.000Z</time>
      </trkpt>
      <trkpt lat="45.046" lon="5.55539">
        <ele>1124.1999511719</ele>
        <time>2022-05-26T08:03:59.000Z</time>
      </trkpt>
      <trkpt lat="45.04597" lon="5.55542">
        <ele>1124</ele>
        <time>2022-05-26T08:04:03.000Z</time>
      </trkpt>
      <trkpt lat="45.04589" lon="5.55548">
        <ele>1123.5999755859</ele>
        <time>2022-05-26T08:04:09.000Z</time>
      </trkpt>
      <trkpt lat="45.04583" lon="5.55554">
        <ele>1123.8000488281</ele>
        <time>2022-05-26T08:04:13.000Z</time>
      </trkpt>
      <trkpt lat="45.04582" lon="5.55556">
        <ele>1124</ele>
        <time>2022-05-26T08:04:15.000Z</time>
      </trkpt>
      <trkpt lat="45.0458" lon="5.55561">
        <ele>1124.4000244141</ele>
        <time>2022-05-26T08:04:18.000Z</time>
      </trkpt>
      <trkpt lat="45.04568" lon="5.55582">
        <ele>1124.1999511719</ele>
        <time>2022-05-26T08:04:33.000Z</time>
      </trkpt>
      <trkpt lat="45.04557" lon="5.55602">
        <ele>1123</ele>
        <time>2022-05-26T08:04:46.000Z</time>
      </trkpt>
      <trkpt lat="45.04557" lon="5.55623">
        <ele>1125.8000488281</ele>
        <time>2022-05-26T08:05:00.000Z</time>
      </trkpt>
      <trkpt lat="45.04557" lon="5.55638">
        <ele>1128</ele>
        <time>2022-05-26T08:05:08.000Z</time>
      </trkpt>
      <trkpt lat="45.04553" lon="5.55663">
        <ele>1130.1999511719</ele>
        <time>2022-05-26T08:05:23.000Z</time>
      </trkpt>
      <trkpt lat="45.04552" lon="5.55678">
        <ele>1131.1999511719</ele>
        <time>2022-05-26T08:05:32.000Z</time>
      </trkpt>
      <trkpt lat="45.04552" lon="5.55679">
        <ele>1131.4000244141</ele>
        <time>2022-05-26T08:05:34.000Z</time>
      </trkpt>
      <trkpt lat="45.04552" lon="5.55681">
        <ele>1131.5999755859</ele>
        <time>2022-05-26T08:05:36.000Z</time>
      </trkpt>
      <trkpt lat="45.04549" lon="5.55693">
        <ele>1131.1999511719</ele>
        <time>2022-05-26T08:05:42.000Z</time>
      </trkpt>
      <trkpt lat="45.0454" lon="5.55718">
        <ele>1129.1999511719</ele>
        <time>2022-05-26T08:05:53.000Z</time>
      </trkpt>
      <trkpt lat="45.0454" lon="5.5572">
        <ele>1129.1999511719</ele>
        <time>2022-05-26T08:05:55.000Z</time>
      </trkpt>
      <trkpt lat="45.04539" lon="5.55723">
        <ele>1129</ele>
        <time>2022-05-26T08:05:57.000Z</time>
      </trkpt>
      <trkpt lat="45.04527" lon="5.55744">
        <ele>1126</ele>
        <time>2022-05-26T08:06:08.000Z</time>
      </trkpt>
      <trkpt lat="45.04515" lon="5.55764">
        <ele>1123.8000488281</ele>
        <time>2022-05-26T08:06:21.000Z</time>
      </trkpt>
      <trkpt lat="45.04507" lon="5.55781">
        <ele>1124.1999511719</ele>
        <time>2022-05-26T08:06:32.000Z</time>
      </trkpt>
      <trkpt lat="45.04504" lon="5.55787">
        <ele>1124</ele>
        <time>2022-05-26T08:06:36.000Z</time>
      </trkpt>
      <trkpt lat="45.04497" lon="5.55812">
        <ele>1125</ele>
        <time>2022-05-26T08:06:51.000Z</time>
      </trkpt>
      <trkpt lat="45.04496" lon="5.55814">
        <ele>1125.1999511719</ele>
        <time>2022-05-26T08:06:53.000Z</time>
      </trkpt>
      <trkpt lat="45.04487" lon="5.55828">
        <ele>1124.1999511719</ele>
        <time>2022-05-26T08:07:04.000Z</time>
      </trkpt>
      <trkpt lat="45.04486" lon="5.55832">
        <ele>1124.8000488281</ele>
        <time>2022-05-26T08:07:08.000Z</time>
      </trkpt>
      <trkpt lat="45.04489" lon="5.55834">
        <ele>1125.1999511719</ele>
        <time>2022-05-26T08:07:14.000Z</time>
      </trkpt>
      <trkpt lat="45.04489" lon="5.55834">
        <ele>1125.1999511719</ele>
        <time>2022-05-26T08:07:16.000Z</time>
      </trkpt>
      <trkpt lat="45.0449" lon="5.55833">
        <ele>1125.5999755859</ele>
        <time>2022-05-26T08:07:19.000Z</time>
      </trkpt>
      <trkpt lat="45.04491" lon="5.55831">
        <ele>1125.5999755859</ele>
        <time>2022-05-26T08:07:26.000Z</time>
      </trkpt>
      <trkpt lat="45.04491" lon="5.55831">
        <ele>1125.8000488281</ele>
        <time>2022-05-26T08:07:30.000Z</time>
      </trkpt>
      <trkpt lat="45.04491" lon="5.55831">
        <ele>1125.4000244141</ele>
        <time>2022-05-26T08:07:33.000Z</time>
      </trkpt>
      <trkpt lat="45.0449" lon="5.55832">
        <ele>1125.4000244141</ele>
        <time>2022-05-26T08:07:37.000Z</time>
      </trkpt>
      <trkpt lat="45.04493" lon="5.55831">
        <ele>1126.1999511719</ele>
        <time>2022-05-26T08:07:56.000Z</time>
      </trkpt>
      <trkpt lat="45.04492" lon="5.5583">
        <ele>1125.8000488281</ele>
        <time>2022-05-26T08:08:10.000Z</time>
      </trkpt>
      <trkpt lat="45.04492" lon="5.55831">
        <ele>1125.8000488281</ele>
        <time>2022-05-26T08:08:13.000Z</time>
      </trkpt>
      <trkpt lat="45.04491" lon="5.55831">
        <ele>1125.5999755859</ele>
        <time>2022-05-26T08:08:14.000Z</time>
      </trkpt>
      <trkpt lat="45.04491" lon="5.55831">
        <ele>1125.5999755859</ele>
        <time>2022-05-26T08:08:15.000Z</time>
      </trkpt>
      <trkpt lat="45.04488" lon="5.55833">
        <ele>1124.8000488281</ele>
        <time>2022-05-26T08:08:23.000Z</time>
      </trkpt>
      <trkpt lat="45.04487" lon="5.55834">
        <ele>1125</ele>
        <time>2022-05-26T08:08:24.000Z</time>
      </trkpt>
      <trkpt lat="45.04485" lon="5.55835">
        <ele>1125</ele>
        <time>2022-05-26T08:08:30.000Z</time>
      </trkpt>
      <trkpt lat="45.04482" lon="5.55835">
        <ele>1125</ele>
        <time>2022-05-26T08:08:32.000Z</time>
      </trkpt>
      <trkpt lat="45.04481" lon="5.55834">
        <ele>1125</ele>
        <time>2022-05-26T08:08:33.000Z</time>
      </trkpt>
      <trkpt lat="45.04463" lon="5.55825">
        <ele>1124</ele>
        <time>2022-05-26T08:08:46.000Z</time>
      </trkpt>
      <trkpt lat="45.04459" lon="5.55821">
        <ele>1123.5999755859</ele>
        <time>2022-05-26T08:08:50.000Z</time>
      </trkpt>
      <trkpt lat="45.04453" lon="5.55813">
        <ele>1123.5999755859</ele>
        <time>2022-05-26T08:08:58.000Z</time>
      </trkpt>
      <trkpt lat="45.04452" lon="5.55811">
        <ele>1123.5999755859</ele>
        <time>2022-05-26T08:09:00.000Z</time>
      </trkpt>
      <trkpt lat="45.04436" lon="5.55799">
        <ele>1124.8000488281</ele>
        <time>2022-05-26T08:09:17.000Z</time>
      </trkpt>
      <trkpt lat="45.04425" lon="5.55779">
        <ele>1124.8000488281</ele>
        <time>2022-05-26T08:09:37.000Z</time>
      </trkpt>
      <trkpt lat="45.04411" lon="5.5576">
        <ele>1125.4000244141</ele>
        <time>2022-05-26T08:09:51.000Z</time>
      </trkpt>
      <trkpt lat="45.0441" lon="5.55752">
        <ele>1124.8000488281</ele>
        <time>2022-05-26T08:09:56.000Z</time>
      </trkpt>
      <trkpt lat="45.04406" lon="5.55737">
        <ele>1125</ele>
        <time>2022-05-26T08:10:06.000Z</time>
      </trkpt>
      <trkpt lat="45.04399" lon="5.55713">
        <ele>1127</ele>
        <time>2022-05-26T08:10:20.000Z</time>
      </trkpt>
      <trkpt lat="45.04398" lon="5.5571">
        <ele>1127.1999511719</ele>
        <time>2022-05-26T08:10:22.000Z</time>
      </trkpt>
      <trkpt lat="45.04389" lon="5.55686">
        <ele>1130</ele>
        <time>2022-05-26T08:10:39.000Z</time>
      </trkpt>
      <trkpt lat="45.04379" lon="5.55669">
        <ele>1133</ele>
        <time>2022-05-26T08:10:51.000Z</time>
      </trkpt>
      <trkpt lat="45.04379" lon="5.55663">
        <ele>1133.1999511719</ele>
        <time>2022-05-26T08:10:55.000Z</time>
      </trkpt>
      <trkpt lat="45.04369" lon="5.55641">
        <ele>1138.5999755859</ele>
        <time>2022-05-26T08:11:17.000Z</time>
      </trkpt>
      <trkpt lat="45.04362" lon="5.5563">
        <ele>1142</ele>
        <time>2022-05-26T08:11:29.000Z</time>
      </trkpt>
      <trkpt lat="45.04348" lon="5.55613">
        <ele>1148</ele>
        <time>2022-05-26T08:11:44.000Z</time>
      </trkpt>
      <trkpt lat="45.04346" lon="5.55611">
        <ele>1148.5999755859</ele>
        <time>2022-05-26T08:11:46.000Z</time>
      </trkpt>
      <trkpt lat="45.04345" lon="5.55608">
        <ele>1149</ele>
        <time>2022-05-26T08:11:47.000Z</time>
      </trkpt>
      <trkpt lat="45.04345" lon="5.55608">
        <ele>1149</ele>
        <time>2022-05-26T08:11:48.000Z</time>
      </trkpt>
      <trkpt lat="45.04343" lon="5.55606">
        <ele>1149.1999511719</ele>
        <time>2022-05-26T08:11:51.000Z</time>
      </trkpt>
      <trkpt lat="45.04342" lon="5.55604">
        <ele>1149.4000244141</ele>
        <time>2022-05-26T08:11:52.000Z</time>
      </trkpt>
      <trkpt lat="45.04341" lon="5.556">
        <ele>1149</ele>
        <time>2022-05-26T08:11:57.000Z</time>
      </trkpt>
      <trkpt lat="45.04342" lon="5.55591">
        <ele>1146.8000488281</ele>
        <time>2022-05-26T08:12:07.000Z</time>
      </trkpt>
      <trkpt lat="45.04342" lon="5.55588">
        <ele>1146.5999755859</ele>
        <time>2022-05-26T08:12:09.000Z</time>
      </trkpt>
      <trkpt lat="45.04341" lon="5.55582">
        <ele>1146.1999511719</ele>
        <time>2022-05-26T08:12:13.000Z</time>
      </trkpt>
      <trkpt lat="45.04341" lon="5.55581">
        <ele>1146</ele>
        <time>2022-05-26T08:12:15.000Z</time>
      </trkpt>
      <trkpt lat="45.0434" lon="5.55576">
        <ele>1145.4000244141</ele>
        <time>2022-05-26T08:12:20.000Z</time>
      </trkpt>
      <trkpt lat="45.04339" lon="5.55573">
        <ele>1145</ele>
        <time>2022-05-26T08:12:22.000Z</time>
      </trkpt>
      <trkpt lat="45.04339" lon="5.55571">
        <ele>1144.8000488281</ele>
        <time>2022-05-26T08:12:23.000Z</time>
      </trkpt>
      <trkpt lat="45.04338" lon="5.55569">
        <ele>1144.1999511719</ele>
        <time>2022-05-26T08:12:25.000Z</time>
      </trkpt>
      <trkpt lat="45.04338" lon="5.55568">
        <ele>1144.1999511719</ele>
        <time>2022-05-26T08:12:26.000Z</time>
      </trkpt>
      <trkpt lat="45.04335" lon="5.5556">
        <ele>1143.4000244141</ele>
        <time>2022-05-26T08:12:32.000Z</time>
      </trkpt>
      <trkpt lat="45.04332" lon="5.55554">
        <ele>1144.1999511719</ele>
        <time>2022-05-26T08:12:36.000Z</time>
      </trkpt>
      <trkpt lat="45.04331" lon="5.55551">
        <ele>1144.8000488281</ele>
        <time>2022-05-26T08:12:38.000Z</time>
      </trkpt>
      <trkpt lat="45.04328" lon="5.55546">
        <ele>1146.4000244141</ele>
        <time>2022-05-26T08:12:41.000Z</time>
      </trkpt>
      <trkpt lat="45.04324" lon="5.55542">
        <ele>1148.4000244141</ele>
        <time>2022-05-26T08:12:44.000Z</time>
      </trkpt>
      <trkpt lat="45.04313" lon="5.55527">
        <ele>1151.5999755859</ele>
        <time>2022-05-26T08:13:00.000Z</time>
      </trkpt>
      <trkpt lat="45.04311" lon="5.55513">
        <ele>1150.8000488281</ele>
        <time>2022-05-26T08:13:15.000Z</time>
      </trkpt>
      <trkpt lat="45.04307" lon="5.55508">
        <ele>1151.8000488281</ele>
        <time>2022-05-26T08:13:19.000Z</time>
      </trkpt>
      <trkpt lat="45.04304" lon="5.55506">
        <ele>1152.5999755859</ele>
        <time>2022-05-26T08:13:22.000Z</time>
      </trkpt>
      <trkpt lat="45.043" lon="5.55499">
        <ele>1153.8000488281</ele>
        <time>2022-05-26T08:13:29.000Z</time>
      </trkpt>
      <trkpt lat="45.0429" lon="5.55477">
        <ele>1156</ele>
        <time>2022-05-26T08:13:48.000Z</time>
      </trkpt>
      <trkpt lat="45.04289" lon="5.55475">
        <ele>1156</ele>
        <time>2022-05-26T08:13:49.000Z</time>
      </trkpt>
      <trkpt lat="45.04282" lon="5.55451">
        <ele>1155.5999755859</ele>
        <time>2022-05-26T08:14:06.000Z</time>
      </trkpt>
      <trkpt lat="45.04271" lon="5.55435">
        <ele>1157.8000488281</ele>
        <time>2022-05-26T08:14:19.000Z</time>
      </trkpt>
      <trkpt lat="45.04267" lon="5.55427">
        <ele>1159</ele>
        <time>2022-05-26T08:14:25.000Z</time>
      </trkpt>
      <trkpt lat="45.04264" lon="5.55419">
        <ele>1159.1999511719</ele>
        <time>2022-05-26T08:14:30.000Z</time>
      </trkpt>
      <trkpt lat="45.04253" lon="5.55398">
        <ele>1159.1999511719</ele>
        <time>2022-05-26T08:14:47.000Z</time>
      </trkpt>
      <trkpt lat="45.04246" lon="5.55383">
        <ele>1158.8000488281</ele>
        <time>2022-05-26T08:14:55.000Z</time>
      </trkpt>
      <trkpt lat="45.04237" lon="5.5536">
        <ele>1157.5999755859</ele>
        <time>2022-05-26T08:15:10.000Z</time>
      </trkpt>
      <trkpt lat="45.04229" lon="5.55348">
        <ele>1157.5999755859</ele>
        <time>2022-05-26T08:15:18.000Z</time>
      </trkpt>
      <trkpt lat="45.04228" lon="5.55346">
        <ele>1157.5999755859</ele>
        <time>2022-05-26T08:15:19.000Z</time>
      </trkpt>
      <trkpt lat="45.04226" lon="5.55342">
        <ele>1157.4000244141</ele>
        <time>2022-05-26T08:15:21.000Z</time>
      </trkpt>
      <trkpt lat="45.04225" lon="5.5534">
        <ele>1157.4000244141</ele>
        <time>2022-05-26T08:15:22.000Z</time>
      </trkpt>
      <trkpt lat="45.04224" lon="5.55336">
        <ele>1157</ele>
        <time>2022-05-26T08:15:24.000Z</time>
      </trkpt>
      <trkpt lat="45.04222" lon="5.55333">
        <ele>1157</ele>
        <time>2022-05-26T08:15:26.000Z</time>
      </trkpt>
      <trkpt lat="45.0422" lon="5.55325">
        <ele>1156.5999755859</ele>
        <time>2022-05-26T08:15:31.000Z</time>
      </trkpt>
      <trkpt lat="45.04213" lon="5.55301">
        <ele>1156.1999511719</ele>
        <time>2022-05-26T08:15:46.000Z</time>
      </trkpt>
      <trkpt lat="45.04213" lon="5.553">
        <ele>1156</ele>
        <time>2022-05-26T08:15:47.000Z</time>
      </trkpt>
      <trkpt lat="45.04213" lon="5.55299">
        <ele>1156</ele>
        <time>2022-05-26T08:15:48.000Z</time>
      </trkpt>
      <trkpt lat="45.0421" lon="5.55292">
        <ele>1156.4000244141</ele>
        <time>2022-05-26T08:15:52.000Z</time>
      </trkpt>
      <trkpt lat="45.04197" lon="5.55278">
        <ele>1158.1999511719</ele>
        <time>2022-05-26T08:16:04.000Z</time>
      </trkpt>
      <trkpt lat="45.04193" lon="5.55276">
        <ele>1158.5999755859</ele>
        <time>2022-05-26T08:16:07.000Z</time>
      </trkpt>
      <trkpt lat="45.04185" lon="5.55252">
        <ele>1157.4000244141</ele>
        <time>2022-05-26T08:16:23.000Z</time>
      </trkpt>
      <trkpt lat="45.04182" lon="5.55249">
        <ele>1157.5999755859</ele>
        <time>2022-05-26T08:16:27.000Z</time>
      </trkpt>
      <trkpt lat="45.04177" lon="5.55247">
        <ele>1158.4000244141</ele>
        <time>2022-05-26T08:16:30.000Z</time>
      </trkpt>
      <trkpt lat="45.04175" lon="5.55245">
        <ele>1158.8000488281</ele>
        <time>2022-05-26T08:16:32.000Z</time>
      </trkpt>
      <trkpt lat="45.04172" lon="5.55245">
        <ele>1159.4000244141</ele>
        <time>2022-05-26T08:16:34.000Z</time>
      </trkpt>
      <trkpt lat="45.04168" lon="5.55238">
        <ele>1159.5999755859</ele>
        <time>2022-05-26T08:16:41.000Z</time>
      </trkpt>
      <trkpt lat="45.04166" lon="5.55235">
        <ele>1159.5999755859</ele>
        <time>2022-05-26T08:16:44.000Z</time>
      </trkpt>
      <trkpt lat="45.04165" lon="5.55231">
        <ele>1159.1999511719</ele>
        <time>2022-05-26T08:16:47.000Z</time>
      </trkpt>
      <trkpt lat="45.04158" lon="5.55209">
        <ele>1156.1999511719</ele>
        <time>2022-05-26T08:17:00.000Z</time>
      </trkpt>
      <trkpt lat="45.04149" lon="5.55188">
        <ele>1153.4000244141</ele>
        <time>2022-05-26T08:17:15.000Z</time>
      </trkpt>
      <trkpt lat="45.04147" lon="5.55177">
        <ele>1151.5999755859</ele>
        <time>2022-05-26T08:17:23.000Z</time>
      </trkpt>
      <trkpt lat="45.04138" lon="5.55152">
        <ele>1149.5999755859</ele>
        <time>2022-05-26T08:17:37.000Z</time>
      </trkpt>
      <trkpt lat="45.04146" lon="5.55147">
        <ele>1147.4000244141</ele>
        <time>2022-05-26T08:17:45.000Z</time>
      </trkpt>
      <trkpt lat="45.04143" lon="5.55143">
        <ele>1147.4000244141</ele>
        <time>2022-05-26T08:18:19.000Z</time>
      </trkpt>
      <trkpt lat="45.0414" lon="5.55132">
        <ele>1147.5999755859</ele>
        <time>2022-05-26T08:18:26.000Z</time>
      </trkpt>
      <trkpt lat="45.0414" lon="5.55129">
        <ele>1147.5999755859</ele>
        <time>2022-05-26T08:18:28.000Z</time>
      </trkpt>
      <trkpt lat="45.04139" lon="5.55129">
        <ele>1147.8000488281</ele>
        <time>2022-05-26T08:18:30.000Z</time>
      </trkpt>
      <trkpt lat="45.04139" lon="5.55128">
        <ele>1147.5999755859</ele>
        <time>2022-05-26T08:18:31.000Z</time>
      </trkpt>
      <trkpt lat="45.04141" lon="5.55125">
        <ele>1147.1999511719</ele>
        <time>2022-05-26T08:18:34.000Z</time>
      </trkpt>
      <trkpt lat="45.04142" lon="5.55125">
        <ele>1146.8000488281</ele>
        <time>2022-05-26T08:18:35.000Z</time>
      </trkpt>
      <trkpt lat="45.04142" lon="5.55124">
        <ele>1146.8000488281</ele>
        <time>2022-05-26T08:18:38.000Z</time>
      </trkpt>
      <trkpt lat="45.04137" lon="5.55112">
        <ele>1146.8000488281</ele>
        <time>2022-05-26T08:18:48.000Z</time>
      </trkpt>
      <trkpt lat="45.04137" lon="5.55107">
        <ele>1147.1999511719</ele>
        <time>2022-05-26T08:18:50.000Z</time>
      </trkpt>
      <trkpt lat="45.04136" lon="5.55097">
        <ele>1148.4000244141</ele>
        <time>2022-05-26T08:18:53.000Z</time>
      </trkpt>
      <trkpt lat="45.04136" lon="5.55093">
        <ele>1148.4000244141</ele>
        <time>2022-05-26T08:18:54.000Z</time>
      </trkpt>
      <trkpt lat="45.04131" lon="5.55079">
        <ele>1150.8000488281</ele>
        <time>2022-05-26T08:19:01.000Z</time>
      </trkpt>
      <trkpt lat="45.04131" lon="5.55077">
        <ele>1151</ele>
        <time>2022-05-26T08:19:02.000Z</time>
      </trkpt>
      <trkpt lat="45.0413" lon="5.5507">
        <ele>1151.8000488281</ele>
        <time>2022-05-26T08:19:07.000Z</time>
      </trkpt>
      <trkpt lat="45.04131" lon="5.55048">
        <ele>1153</ele>
        <time>2022-05-26T08:19:24.000Z</time>
      </trkpt>
      <trkpt lat="45.04132" lon="5.55049">
        <ele>1152.8000488281</ele>
        <time>2022-05-26T08:19:26.000Z</time>
      </trkpt>
      <trkpt lat="45.04134" lon="5.55046">
        <ele>1152.4000244141</ele>
        <time>2022-05-26T08:19:29.000Z</time>
      </trkpt>
      <trkpt lat="45.04141" lon="5.5504">
        <ele>1150.8000488281</ele>
        <time>2022-05-26T08:19:41.000Z</time>
      </trkpt>
      <trkpt lat="45.0414" lon="5.5504">
        <ele>1150.8000488281</ele>
        <time>2022-05-26T08:19:42.000Z</time>
      </trkpt>
      <trkpt lat="45.04136" lon="5.55044">
        <ele>1151.8000488281</ele>
        <time>2022-05-26T08:19:47.000Z</time>
      </trkpt>
      <trkpt lat="45.04134" lon="5.55046">
        <ele>1152.4000244141</ele>
        <time>2022-05-26T08:19:52.000Z</time>
      </trkpt>
      <trkpt lat="45.04136" lon="5.55047">
        <ele>1151.5999755859</ele>
        <time>2022-05-26T08:20:02.000Z</time>
      </trkpt>
      <trkpt lat="45.04139" lon="5.55034">
        <ele>1152</ele>
        <time>2022-05-26T08:20:14.000Z</time>
      </trkpt>
      <trkpt lat="45.0414" lon="5.55032">
        <ele>1152.1999511719</ele>
        <time>2022-05-26T08:20:16.000Z</time>
      </trkpt>
      <trkpt lat="45.04143" lon="5.55027">
        <ele>1152</ele>
        <time>2022-05-26T08:20:21.000Z</time>
      </trkpt>
      <trkpt lat="45.04157" lon="5.55011">
        <ele>1150</ele>
        <time>2022-05-26T08:20:34.000Z</time>
      </trkpt>
      <trkpt lat="45.04171" lon="5.54996">
        <ele>1147</ele>
        <time>2022-05-26T08:20:47.000Z</time>
      </trkpt>
      <trkpt lat="45.04187" lon="5.54981">
        <ele>1144.5999755859</ele>
        <time>2022-05-26T08:21:01.000Z</time>
      </trkpt>
      <trkpt lat="45.04189" lon="5.54979">
        <ele>1144.4000244141</ele>
        <time>2022-05-26T08:21:05.000Z</time>
      </trkpt>
      <trkpt lat="45.04197" lon="5.54976">
        <ele>1143</ele>
        <time>2022-05-26T08:21:12.000Z</time>
      </trkpt>
      <trkpt lat="45.04198" lon="5.54976">
        <ele>1142.5999755859</ele>
        <time>2022-05-26T08:21:13.000Z</time>
      </trkpt>
      <trkpt lat="45.04212" lon="5.54964">
        <ele>1140.5999755859</ele>
        <time>2022-05-26T08:21:28.000Z</time>
      </trkpt>
      <trkpt lat="45.04214" lon="5.54958">
        <ele>1140.8000488281</ele>
        <time>2022-05-26T08:21:32.000Z</time>
      </trkpt>
      <trkpt lat="45.04216" lon="5.54956">
        <ele>1140.5999755859</ele>
        <time>2022-05-26T08:21:34.000Z</time>
      </trkpt>
      <trkpt lat="45.04232" lon="5.54941">
        <ele>1138.4000244141</ele>
        <time>2022-05-26T08:21:46.000Z</time>
      </trkpt>
      <trkpt lat="45.04248" lon="5.54927">
        <ele>1137.1999511719</ele>
        <time>2022-05-26T08:21:56.000Z</time>
      </trkpt>
      <trkpt lat="45.04251" lon="5.54918">
        <ele>1137.5999755859</ele>
        <time>2022-05-26T08:22:02.000Z</time>
      </trkpt>
      <trkpt lat="45.04254" lon="5.54914">
        <ele>1137</ele>
        <time>2022-05-26T08:22:12.000Z</time>
      </trkpt>
      <trkpt lat="45.04255" lon="5.54914">
        <ele>1136.8000488281</ele>
        <time>2022-05-26T08:22:15.000Z</time>
      </trkpt>
      <trkpt lat="45.04256" lon="5.54914">
        <ele>1136.5999755859</ele>
        <time>2022-05-26T08:22:16.000Z</time>
      </trkpt>
      <trkpt lat="45.04256" lon="5.54914">
        <ele>1136.5999755859</ele>
        <time>2022-05-26T08:22:19.000Z</time>
      </trkpt>
      <trkpt lat="45.04256" lon="5.54914">
        <ele>1136.5999755859</ele>
        <time>2022-05-26T08:22:28.000Z</time>
      </trkpt>
      <trkpt lat="45.04252" lon="5.54914">
        <ele>1137.4000244141</ele>
        <time>2022-05-26T08:23:00.000Z</time>
      </trkpt>
      <trkpt lat="45.04251" lon="5.54914">
        <ele>1137.4000244141</ele>
        <time>2022-05-26T08:23:02.000Z</time>
      </trkpt>
      <trkpt lat="45.04251" lon="5.54914">
        <ele>1137.5999755859</ele>
        <time>2022-05-26T08:23:03.000Z</time>
      </trkpt>
      <trkpt lat="45.0425" lon="5.54913">
        <ele>1137.8000488281</ele>
        <time>2022-05-26T08:23:08.000Z</time>
      </trkpt>
      <trkpt lat="45.04255" lon="5.54916">
        <ele>1136.8000488281</ele>
        <time>2022-05-26T08:23:34.000Z</time>
      </trkpt>
      <trkpt lat="45.04254" lon="5.54902">
        <ele>1137.5999755859</ele>
        <time>2022-05-26T08:23:50.000Z</time>
      </trkpt>
      <trkpt lat="45.04255" lon="5.54899">
        <ele>1137.8000488281</ele>
        <time>2022-05-26T08:23:53.000Z</time>
      </trkpt>
      <trkpt lat="45.04255" lon="5.54898">
        <ele>1137.8000488281</ele>
        <time>2022-05-26T08:23:54.000Z</time>
      </trkpt>
      <trkpt lat="45.04258" lon="5.54893">
        <ele>1138.1999511719</ele>
        <time>2022-05-26T08:23:58.000Z</time>
      </trkpt>
      <trkpt lat="45.04264" lon="5.54886">
        <ele>1138</ele>
        <time>2022-05-26T08:24:04.000Z</time>
      </trkpt>
      <trkpt lat="45.0427" lon="5.54875">
        <ele>1137</ele>
        <time>2022-05-26T08:24:12.000Z</time>
      </trkpt>
      <trkpt lat="45.04273" lon="5.54868">
        <ele>1136.5999755859</ele>
        <time>2022-05-26T08:24:19.000Z</time>
      </trkpt>
      <trkpt lat="45.04275" lon="5.54863">
        <ele>1136.5999755859</ele>
        <time>2022-05-26T08:24:22.000Z</time>
      </trkpt>
      <trkpt lat="45.04278" lon="5.54857">
        <ele>1136</ele>
        <time>2022-05-26T08:24:26.000Z</time>
      </trkpt>
      <trkpt lat="45.04281" lon="5.54851">
        <ele>1135.1999511719</ele>
        <time>2022-05-26T08:24:32.000Z</time>
      </trkpt>
      <trkpt lat="45.04282" lon="5.54848">
        <ele>1135</ele>
        <time>2022-05-26T08:24:34.000Z</time>
      </trkpt>
      <trkpt lat="45.04283" lon="5.54844">
        <ele>1134.8000488281</ele>
        <time>2022-05-26T08:24:37.000Z</time>
      </trkpt>
      <trkpt lat="45.04283" lon="5.54842">
        <ele>1134.8000488281</ele>
        <time>2022-05-26T08:24:42.000Z</time>
      </trkpt>
      <trkpt lat="45.04283" lon="5.54842">
        <ele>1134.8000488281</ele>
        <time>2022-05-26T08:24:45.000Z</time>
      </trkpt>
      <trkpt lat="45.04283" lon="5.54842">
        <ele>1134.8000488281</ele>
        <time>2022-05-26T08:24:46.000Z</time>
      </trkpt>
      <trkpt lat="45.04283" lon="5.54842">
        <ele>1134.8000488281</ele>
        <time>2022-05-26T08:24:47.000Z</time>
      </trkpt>
      <trkpt lat="45.04283" lon="5.54839">
        <ele>1134.5999755859</ele>
        <time>2022-05-26T08:25:12.000Z</time>
      </trkpt>
      <trkpt lat="45.04282" lon="5.54839">
        <ele>1134.5999755859</ele>
        <time>2022-05-26T08:25:17.000Z</time>
      </trkpt>
      <trkpt lat="45.04283" lon="5.54838">
        <ele>1134.4000244141</ele>
        <time>2022-05-26T08:25:24.000Z</time>
      </trkpt>
      <trkpt lat="45.04283" lon="5.54836">
        <ele>1134.4000244141</ele>
        <time>2022-05-26T08:25:33.000Z</time>
      </trkpt>
      <trkpt lat="45.04283" lon="5.54836">
        <ele>1134.4000244141</ele>
        <time>2022-05-26T08:25:34.000Z</time>
      </trkpt>
      <trkpt lat="45.04284" lon="5.54836">
        <ele>1134.4000244141</ele>
        <time>2022-05-26T08:25:35.000Z</time>
      </trkpt>
      <trkpt lat="45.04284" lon="5.54836">
        <ele>1134.4000244141</ele>
        <time>2022-05-26T08:25:36.000Z</time>
      </trkpt>
      <trkpt lat="45.04283" lon="5.54835">
        <ele>1134.4000244141</ele>
        <time>2022-05-26T08:25:44.000Z</time>
      </trkpt>
      <trkpt lat="45.0428" lon="5.54837">
        <ele>1135</ele>
        <time>2022-05-26T08:25:56.000Z</time>
      </trkpt>
      <trkpt lat="45.0428" lon="5.54837">
        <ele>1135</ele>
        <time>2022-05-26T08:25:57.000Z</time>
      </trkpt>
      <trkpt lat="45.04281" lon="5.5484">
        <ele>1134.8000488281</ele>
        <time>2022-05-26T08:26:08.000Z</time>
      </trkpt>
      <trkpt lat="45.04279" lon="5.54843">
        <ele>1135.1999511719</ele>
        <time>2022-05-26T08:26:15.000Z</time>
      </trkpt>
      <trkpt lat="45.0428" lon="5.54845">
        <ele>1135.1999511719</ele>
        <time>2022-05-26T08:26:25.000Z</time>
      </trkpt>
      <trkpt lat="45.0428" lon="5.54843">
        <ele>1135.1999511719</ele>
        <time>2022-05-26T08:26:32.000Z</time>
      </trkpt>
      <trkpt lat="45.0428" lon="5.54844">
        <ele>1135.1999511719</ele>
        <time>2022-05-26T08:26:41.000Z</time>
      </trkpt>
      <trkpt lat="45.04289" lon="5.54839">
        <ele>1133.8000488281</ele>
        <time>2022-05-26T08:27:15.000Z</time>
      </trkpt>
      <trkpt lat="45.04295" lon="5.54838">
        <ele>1132.4000244141</ele>
        <time>2022-05-26T08:27:20.000Z</time>
      </trkpt>
      <trkpt lat="45.04297" lon="5.54838">
        <ele>1132</ele>
        <time>2022-05-26T08:27:21.000Z</time>
      </trkpt>
      <trkpt lat="45.04299" lon="5.54837">
        <ele>1131.8000488281</ele>
        <time>2022-05-26T08:27:22.000Z</time>
      </trkpt>
      <trkpt lat="45.04304" lon="5.54836">
        <ele>1131</ele>
        <time>2022-05-26T08:27:26.000Z</time>
      </trkpt>
      <trkpt lat="45.04306" lon="5.54835">
        <ele>1130.5999755859</ele>
        <time>2022-05-26T08:27:28.000Z</time>
      </trkpt>
      <trkpt lat="45.04308" lon="5.54834">
        <ele>1130.1999511719</ele>
        <time>2022-05-26T08:27:30.000Z</time>
      </trkpt>
      <trkpt lat="45.04309" lon="5.54833">
        <ele>1130</ele>
        <time>2022-05-26T08:27:31.000Z</time>
      </trkpt>
      <trkpt lat="45.0431" lon="5.54833">
        <ele>1129.8000488281</ele>
        <time>2022-05-26T08:27:32.000Z</time>
      </trkpt>
      <trkpt lat="45.04323" lon="5.54826">
        <ele>1127</ele>
        <time>2022-05-26T08:27:43.000Z</time>
      </trkpt>
      <trkpt lat="45.0433" lon="5.54824">
        <ele>1126</ele>
        <time>2022-05-26T08:27:47.000Z</time>
      </trkpt>
      <trkpt lat="45.04337" lon="5.54823">
        <ele>1124.8000488281</ele>
        <time>2022-05-26T08:27:52.000Z</time>
      </trkpt>
      <trkpt lat="45.04344" lon="5.54823">
        <ele>1124</ele>
        <time>2022-05-26T08:27:58.000Z</time>
      </trkpt>
      <trkpt lat="45.04345" lon="5.54823">
        <ele>1124</ele>
        <time>2022-05-26T08:27:59.000Z</time>
      </trkpt>
      <trkpt lat="45.04349" lon="5.54824">
        <ele>1123.5999755859</ele>
        <time>2022-05-26T08:28:02.000Z</time>
      </trkpt>
      <trkpt lat="45.04352" lon="5.54823">
        <ele>1123</ele>
        <time>2022-05-26T08:28:04.000Z</time>
      </trkpt>
      <trkpt lat="45.04353" lon="5.54823">
        <ele>1122.8000488281</ele>
        <time>2022-05-26T08:28:05.000Z</time>
      </trkpt>
      <trkpt lat="45.04354" lon="5.54824">
        <ele>1122.8000488281</ele>
        <time>2022-05-26T08:28:06.000Z</time>
      </trkpt>
      <trkpt lat="45.04373" lon="5.54818">
        <ele>1119.4000244141</ele>
        <time>2022-05-26T08:28:18.000Z</time>
      </trkpt>
      <trkpt lat="45.04376" lon="5.54816">
        <ele>1118.5999755859</ele>
        <time>2022-05-26T08:28:22.000Z</time>
      </trkpt>
      <trkpt lat="45.04378" lon="5.54813">
        <ele>1117.8000488281</ele>
        <time>2022-05-26T08:28:30.000Z</time>
      </trkpt>
      <trkpt lat="45.04379" lon="5.54812">
        <ele>1117.4000244141</ele>
        <time>2022-05-26T08:28:31.000Z</time>
      </trkpt>
      <trkpt lat="45.04381" lon="5.5481">
        <ele>1116.5999755859</ele>
        <time>2022-05-26T08:28:33.000Z</time>
      </trkpt>
      <trkpt lat="45.04383" lon="5.54806">
        <ele>1115.4000244141</ele>
        <time>2022-05-26T08:28:35.000Z</time>
      </trkpt>
      <trkpt lat="45.04384" lon="5.54804">
        <ele>1114.8000488281</ele>
        <time>2022-05-26T08:28:36.000Z</time>
      </trkpt>
      <trkpt lat="45.04385" lon="5.54803">
        <ele>1114.1999511719</ele>
        <time>2022-05-26T08:28:37.000Z</time>
      </trkpt>
      <trkpt lat="45.04386" lon="5.54802">
        <ele>1113.4000244141</ele>
        <time>2022-05-26T08:28:38.000Z</time>
      </trkpt>
      <trkpt lat="45.04388" lon="5.54797">
        <ele>1112</ele>
        <time>2022-05-26T08:28:41.000Z</time>
      </trkpt>
      <trkpt lat="45.04386" lon="5.54792">
        <ele>1111.5999755859</ele>
        <time>2022-05-26T08:28:44.000Z</time>
      </trkpt>
      <trkpt lat="45.04386" lon="5.54787">
        <ele>1110.8000488281</ele>
        <time>2022-05-26T08:28:47.000Z</time>
      </trkpt>
      <trkpt lat="45.04385" lon="5.5478">
        <ele>1110</ele>
        <time>2022-05-26T08:28:52.000Z</time>
      </trkpt>
      <trkpt lat="45.04385" lon="5.54779">
        <ele>1109.8000488281</ele>
        <time>2022-05-26T08:28:53.000Z</time>
      </trkpt>
      <trkpt lat="45.04383" lon="5.54772">
        <ele>1109</ele>
        <time>2022-05-26T08:28:59.000Z</time>
      </trkpt>
      <trkpt lat="45.04383" lon="5.5477">
        <ele>1108.8000488281</ele>
        <time>2022-05-26T08:29:00.000Z</time>
      </trkpt>
      <trkpt lat="45.04383" lon="5.54764">
        <ele>1107.4000244141</ele>
        <time>2022-05-26T08:29:03.000Z</time>
      </trkpt>
      <trkpt lat="45.04383" lon="5.54762">
        <ele>1107</ele>
        <time>2022-05-26T08:29:04.000Z</time>
      </trkpt>
      <trkpt lat="45.04383" lon="5.5476">
        <ele>1106.4000244141</ele>
        <time>2022-05-26T08:29:05.000Z</time>
      </trkpt>
      <trkpt lat="45.04378" lon="5.54734">
        <ele>1102</ele>
        <time>2022-05-26T08:29:16.000Z</time>
      </trkpt>
      <trkpt lat="45.04371" lon="5.5471">
        <ele>1097.1999511719</ele>
        <time>2022-05-26T08:29:28.000Z</time>
      </trkpt>
      <trkpt lat="45.04365" lon="5.54699">
        <ele>1095</ele>
        <time>2022-05-26T08:29:35.000Z</time>
      </trkpt>
      <trkpt lat="45.0436" lon="5.54692">
        <ele>1093.8000488281</ele>
        <time>2022-05-26T08:29:40.000Z</time>
      </trkpt>
      <trkpt lat="45.04346" lon="5.54685">
        <ele>1094.4000244141</ele>
        <time>2022-05-26T08:29:53.000Z</time>
      </trkpt>
      <trkpt lat="45.04338" lon="5.54684">
        <ele>1096.8000488281</ele>
        <time>2022-05-26T08:30:00.000Z</time>
      </trkpt>
      <trkpt lat="45.04333" lon="5.54684">
        <ele>1097.5999755859</ele>
        <time>2022-05-26T08:30:05.000Z</time>
      </trkpt>
      <trkpt lat="45.04323" lon="5.54678">
        <ele>1098.4000244141</ele>
        <time>2022-05-26T08:30:11.000Z</time>
      </trkpt>
      <trkpt lat="45.04316" lon="5.54672">
        <ele>1098.8000488281</ele>
        <time>2022-05-26T08:30:18.000Z</time>
      </trkpt>
      <trkpt lat="45.04313" lon="5.54668">
        <ele>1098.8000488281</ele>
        <time>2022-05-26T08:30:24.000Z</time>
      </trkpt>
      <trkpt lat="45.04309" lon="5.5466">
        <ele>1098.8000488281</ele>
        <time>2022-05-26T08:30:32.000Z</time>
      </trkpt>
      <trkpt lat="45.04305" lon="5.54659">
        <ele>1099.4000244141</ele>
        <time>2022-05-26T08:30:35.000Z</time>
      </trkpt>
      <trkpt lat="45.04303" lon="5.54658">
        <ele>1099.8000488281</ele>
        <time>2022-05-26T08:30:37.000Z</time>
      </trkpt>
      <trkpt lat="45.043" lon="5.54656">
        <ele>1100.1999511719</ele>
        <time>2022-05-26T08:30:38.000Z</time>
      </trkpt>
      <trkpt lat="45.04297" lon="5.54651">
        <ele>1100.1999511719</ele>
        <time>2022-05-26T08:30:46.000Z</time>
      </trkpt>
      <trkpt lat="45.04296" lon="5.54651">
        <ele>1100.4000244141</ele>
        <time>2022-05-26T08:30:48.000Z</time>
      </trkpt>
      <trkpt lat="45.04298" lon="5.54647">
        <ele>1099.8000488281</ele>
        <time>2022-05-26T08:30:52.000Z</time>
      </trkpt>
      <trkpt lat="45.04297" lon="5.5464">
        <ele>1098.8000488281</ele>
        <time>2022-05-26T08:30:56.000Z</time>
      </trkpt>
      <trkpt lat="45.04296" lon="5.54636">
        <ele>1099</ele>
        <time>2022-05-26T08:30:58.000Z</time>
      </trkpt>
      <trkpt lat="45.04297" lon="5.5463">
        <ele>1098.5999755859</ele>
        <time>2022-05-26T08:31:02.000Z</time>
      </trkpt>
      <trkpt lat="45.04299" lon="5.54606">
        <ele>1097</ele>
        <time>2022-05-26T08:31:15.000Z</time>
      </trkpt>
      <trkpt lat="45.043" lon="5.54589">
        <ele>1095.5999755859</ele>
        <time>2022-05-26T08:31:25.000Z</time>
      </trkpt>
      <trkpt lat="45.04301" lon="5.54588">
        <ele>1095</ele>
        <time>2022-05-26T08:31:26.000Z</time>
      </trkpt>
      <trkpt lat="45.04302" lon="5.54586">
        <ele>1094.4000244141</ele>
        <time>2022-05-26T08:31:27.000Z</time>
      </trkpt>
      <trkpt lat="45.04303" lon="5.54584">
        <ele>1093.8000488281</ele>
        <time>2022-05-26T08:31:28.000Z</time>
      </trkpt>
      <trkpt lat="45.04303" lon="5.54582">
        <ele>1093.8000488281</ele>
        <time>2022-05-26T08:31:29.000Z</time>
      </trkpt>
      <trkpt lat="45.04303" lon="5.5458">
        <ele>1094.1999511719</ele>
        <time>2022-05-26T08:31:30.000Z</time>
      </trkpt>
      <trkpt lat="45.04303" lon="5.54578">
        <ele>1094.1999511719</ele>
        <time>2022-05-26T08:31:31.000Z</time>
      </trkpt>
      <trkpt lat="45.04302" lon="5.54571">
        <ele>1095.8000488281</ele>
        <time>2022-05-26T08:31:35.000Z</time>
      </trkpt>
      <trkpt lat="45.04301" lon="5.54569">
        <ele>1096.1999511719</ele>
        <time>2022-05-26T08:31:36.000Z</time>
      </trkpt>
      <trkpt lat="45.043" lon="5.54568">
        <ele>1096.8000488281</ele>
        <time>2022-05-26T08:31:37.000Z</time>
      </trkpt>
      <trkpt lat="45.04298" lon="5.54565">
        <ele>1098</ele>
        <time>2022-05-26T08:31:38.000Z</time>
      </trkpt>
      <trkpt lat="45.04298" lon="5.54565">
        <ele>1098</ele>
        <time>2022-05-26T08:31:39.000Z</time>
      </trkpt>
      <trkpt lat="45.04296" lon="5.54562">
        <ele>1099.1999511719</ele>
        <time>2022-05-26T08:31:42.000Z</time>
      </trkpt>
      <trkpt lat="45.04294" lon="5.54557">
        <ele>1100.4000244141</ele>
        <time>2022-05-26T08:31:46.000Z</time>
      </trkpt>
      <trkpt lat="45.04294" lon="5.54556">
        <ele>1100.1999511719</ele>
        <time>2022-05-26T08:31:47.000Z</time>
      </trkpt>
      <trkpt lat="45.04294" lon="5.54554">
        <ele>1100</ele>
        <time>2022-05-26T08:31:48.000Z</time>
      </trkpt>
      <trkpt lat="45.04292" lon="5.54543">
        <ele>1100.8000488281</ele>
        <time>2022-05-26T08:31:57.000Z</time>
      </trkpt>
      <trkpt lat="45.0429" lon="5.54529">
        <ele>1101.4000244141</ele>
        <time>2022-05-26T08:32:03.000Z</time>
      </trkpt>
      <trkpt lat="45.04282" lon="5.54519">
        <ele>1104.5999755859</ele>
        <time>2022-05-26T08:32:12.000Z</time>
      </trkpt>
      <trkpt lat="45.04282" lon="5.54515">
        <ele>1104.8000488281</ele>
        <time>2022-05-26T08:32:16.000Z</time>
      </trkpt>
      <trkpt lat="45.04283" lon="5.5451">
        <ele>1104.4000244141</ele>
        <time>2022-05-26T08:32:19.000Z</time>
      </trkpt>
      <trkpt lat="45.04285" lon="5.54502">
        <ele>1104</ele>
        <time>2022-05-26T08:32:26.000Z</time>
      </trkpt>
      <trkpt lat="45.04283" lon="5.545">
        <ele>1104.8000488281</ele>
        <time>2022-05-26T08:32:31.000Z</time>
      </trkpt>
      <trkpt lat="45.04282" lon="5.545">
        <ele>1104.8000488281</ele>
        <time>2022-05-26T08:32:33.000Z</time>
      </trkpt>
      <trkpt lat="45.04282" lon="5.54499">
        <ele>1105</ele>
        <time>2022-05-26T08:32:37.000Z</time>
      </trkpt>
      <trkpt lat="45.04282" lon="5.54499">
        <ele>1105</ele>
        <time>2022-05-26T08:32:39.000Z</time>
      </trkpt>
      <trkpt lat="45.04281" lon="5.54499">
        <ele>1105.1999511719</ele>
        <time>2022-05-26T08:32:42.000Z</time>
      </trkpt>
      <trkpt lat="45.04281" lon="5.54499">
        <ele>1105.1999511719</ele>
        <time>2022-05-26T08:32:44.000Z</time>
      </trkpt>
      <trkpt lat="45.0428" lon="5.54495">
        <ele>1105</ele>
        <time>2022-05-26T08:32:49.000Z</time>
      </trkpt>
      <trkpt lat="45.04275" lon="5.54471">
        <ele>1104</ele>
        <time>2022-05-26T08:33:04.000Z</time>
      </trkpt>
      <trkpt lat="45.04272" lon="5.54461">
        <ele>1103.8000488281</ele>
        <time>2022-05-26T08:33:09.000Z</time>
      </trkpt>
      <trkpt lat="45.0426" lon="5.54436">
        <ele>1104.1999511719</ele>
        <time>2022-05-26T08:33:22.000Z</time>
      </trkpt>
      <trkpt lat="45.04248" lon="5.54412">
        <ele>1105</ele>
        <time>2022-05-26T08:33:33.000Z</time>
      </trkpt>
      <trkpt lat="45.04234" lon="5.54393">
        <ele>1105.1999511719</ele>
        <time>2022-05-26T08:33:44.000Z</time>
      </trkpt>
      <trkpt lat="45.04229" lon="5.54367">
        <ele>1102.1999511719</ele>
        <time>2022-05-26T08:33:58.000Z</time>
      </trkpt>
      <trkpt lat="45.04223" lon="5.54341">
        <ele>1100.1999511719</ele>
        <time>2022-05-26T08:34:09.000Z</time>
      </trkpt>
      <trkpt lat="45.04214" lon="5.54317">
        <ele>1097.1999511719</ele>
        <time>2022-05-26T08:34:22.000Z</time>
      </trkpt>
      <trkpt lat="45.04209" lon="5.54301">
        <ele>1095</ele>
        <time>2022-05-26T08:34:31.000Z</time>
      </trkpt>
      <trkpt lat="45.04209" lon="5.54275">
        <ele>1089.8000488281</ele>
        <time>2022-05-26T08:34:49.000Z</time>
      </trkpt>
      <trkpt lat="45.04208" lon="5.54249">
        <ele>1088.1999511719</ele>
        <time>2022-05-26T08:35:05.000Z</time>
      </trkpt>
      <trkpt lat="45.04204" lon="5.54239">
        <ele>1088.1999511719</ele>
        <time>2022-05-26T08:35:14.000Z</time>
      </trkpt>
      <trkpt lat="45.04204" lon="5.54237">
        <ele>1088.1999511719</ele>
        <time>2022-05-26T08:35:16.000Z</time>
      </trkpt>
      <trkpt lat="45.04204" lon="5.54233">
        <ele>1087.8000488281</ele>
        <time>2022-05-26T08:35:18.000Z</time>
      </trkpt>
      <trkpt lat="45.04202" lon="5.54217">
        <ele>1087</ele>
        <time>2022-05-26T08:35:28.000Z</time>
      </trkpt>
      <trkpt lat="45.04193" lon="5.54195">
        <ele>1087</ele>
        <time>2022-05-26T08:35:41.000Z</time>
      </trkpt>
      <trkpt lat="45.04176" lon="5.54184">
        <ele>1088.1999511719</ele>
        <time>2022-05-26T08:35:53.000Z</time>
      </trkpt>
      <trkpt lat="45.04161" lon="5.54171">
        <ele>1089.1999511719</ele>
        <time>2022-05-26T08:36:05.000Z</time>
      </trkpt>
      <trkpt lat="45.04147" lon="5.54152">
        <ele>1090.8000488281</ele>
        <time>2022-05-26T08:36:19.000Z</time>
      </trkpt>
      <trkpt lat="45.04145" lon="5.54131">
        <ele>1090.8000488281</ele>
        <time>2022-05-26T08:36:33.000Z</time>
      </trkpt>
      <trkpt lat="45.04146" lon="5.54129">
        <ele>1090.5999755859</ele>
        <time>2022-05-26T08:36:34.000Z</time>
      </trkpt>
      <trkpt lat="45.04146" lon="5.54128">
        <ele>1090.5999755859</ele>
        <time>2022-05-26T08:36:35.000Z</time>
      </trkpt>
      <trkpt lat="45.04146" lon="5.54121">
        <ele>1090.1999511719</ele>
        <time>2022-05-26T08:36:39.000Z</time>
      </trkpt>
      <trkpt lat="45.04147" lon="5.54117">
        <ele>1089.8000488281</ele>
        <time>2022-05-26T08:36:41.000Z</time>
      </trkpt>
      <trkpt lat="45.04147" lon="5.54111">
        <ele>1089.4000244141</ele>
        <time>2022-05-26T08:36:45.000Z</time>
      </trkpt>
      <trkpt lat="45.04147" lon="5.54094">
        <ele>1088.8000488281</ele>
        <time>2022-05-26T08:36:57.000Z</time>
      </trkpt>
      <trkpt lat="45.04148" lon="5.54092">
        <ele>1088.5999755859</ele>
        <time>2022-05-26T08:36:58.000Z</time>
      </trkpt>
      <trkpt lat="45.0415" lon="5.54066">
        <ele>1087.4000244141</ele>
        <time>2022-05-26T08:37:13.000Z</time>
      </trkpt>
      <trkpt lat="45.04148" lon="5.54058">
        <ele>1088</ele>
        <time>2022-05-26T08:37:19.000Z</time>
      </trkpt>
      <trkpt lat="45.04148" lon="5.54054">
        <ele>1087.8000488281</ele>
        <time>2022-05-26T08:37:21.000Z</time>
      </trkpt>
      <trkpt lat="45.04149" lon="5.54028">
        <ele>1088.1999511719</ele>
        <time>2022-05-26T08:37:34.000Z</time>
      </trkpt>
      <trkpt lat="45.04146" lon="5.5402">
        <ele>1088.5999755859</ele>
        <time>2022-05-26T08:37:38.000Z</time>
      </trkpt>
      <trkpt lat="45.04139" lon="5.54007">
        <ele>1090.4000244141</ele>
        <time>2022-05-26T08:37:46.000Z</time>
      </trkpt>
      <trkpt lat="45.04132" lon="5.53992">
        <ele>1091.4000244141</ele>
        <time>2022-05-26T08:37:56.000Z</time>
      </trkpt>
      <trkpt lat="45.04129" lon="5.53986">
        <ele>1091.4000244141</ele>
        <time>2022-05-26T08:38:00.000Z</time>
      </trkpt>
      <trkpt lat="45.04123" lon="5.53962">
        <ele>1091.5999755859</ele>
        <time>2022-05-26T08:38:17.000Z</time>
      </trkpt>
      <trkpt lat="45.04121" lon="5.53936">
        <ele>1092.5999755859</ele>
        <time>2022-05-26T08:38:33.000Z</time>
      </trkpt>
      <trkpt lat="45.04119" lon="5.53911">
        <ele>1092.8000488281</ele>
        <time>2022-05-26T08:38:51.000Z</time>
      </trkpt>
      <trkpt lat="45.04116" lon="5.53902">
        <ele>1092.8000488281</ele>
        <time>2022-05-26T08:38:58.000Z</time>
      </trkpt>
      <trkpt lat="45.04115" lon="5.53899">
        <ele>1092.8000488281</ele>
        <time>2022-05-26T08:38:59.000Z</time>
      </trkpt>
      <trkpt lat="45.04112" lon="5.53894">
        <ele>1092.8000488281</ele>
        <time>2022-05-26T08:39:03.000Z</time>
      </trkpt>
      <trkpt lat="45.04111" lon="5.53892">
        <ele>1092.8000488281</ele>
        <time>2022-05-26T08:39:04.000Z</time>
      </trkpt>
      <trkpt lat="45.04108" lon="5.53888">
        <ele>1093</ele>
        <time>2022-05-26T08:39:07.000Z</time>
      </trkpt>
      <trkpt lat="45.041" lon="5.53872">
        <ele>1093.4000244141</ele>
        <time>2022-05-26T08:39:17.000Z</time>
      </trkpt>
      <trkpt lat="45.04083" lon="5.53866">
        <ele>1095.5999755859</ele>
        <time>2022-05-26T08:39:33.000Z</time>
      </trkpt>
      <trkpt lat="45.04079" lon="5.53866">
        <ele>1096</ele>
        <time>2022-05-26T08:39:35.000Z</time>
      </trkpt>
      <trkpt lat="45.04077" lon="5.53865">
        <ele>1096.1999511719</ele>
        <time>2022-05-26T08:39:37.000Z</time>
      </trkpt>
      <trkpt lat="45.04076" lon="5.53864">
        <ele>1096.1999511719</ele>
        <time>2022-05-26T08:39:38.000Z</time>
      </trkpt>
      <trkpt lat="45.04075" lon="5.53862">
        <ele>1096.4000244141</ele>
        <time>2022-05-26T08:39:40.000Z</time>
      </trkpt>
      <trkpt lat="45.04072" lon="5.5386">
        <ele>1096.5999755859</ele>
        <time>2022-05-26T08:39:42.000Z</time>
      </trkpt>
      <trkpt lat="45.0407" lon="5.5386">
        <ele>1096.8000488281</ele>
        <time>2022-05-26T08:39:44.000Z</time>
      </trkpt>
      <trkpt lat="45.04064" lon="5.53856">
        <ele>1097.1999511719</ele>
        <time>2022-05-26T08:39:51.000Z</time>
      </trkpt>
      <trkpt lat="45.04061" lon="5.53854">
        <ele>1097.4000244141</ele>
        <time>2022-05-26T08:39:55.000Z</time>
      </trkpt>
      <trkpt lat="45.04059" lon="5.53852">
        <ele>1097.5999755859</ele>
        <time>2022-05-26T08:39:58.000Z</time>
      </trkpt>
      <trkpt lat="45.04057" lon="5.53851">
        <ele>1097.5999755859</ele>
        <time>2022-05-26T08:40:00.000Z</time>
      </trkpt>
      <trkpt lat="45.04055" lon="5.53849">
        <ele>1097.8000488281</ele>
        <time>2022-05-26T08:40:03.000Z</time>
      </trkpt>
      <trkpt lat="45.04053" lon="5.53846">
        <ele>1097.8000488281</ele>
        <time>2022-05-26T08:40:06.000Z</time>
      </trkpt>
      <trkpt lat="45.04052" lon="5.53846">
        <ele>1098</ele>
        <time>2022-05-26T08:40:08.000Z</time>
      </trkpt>
      <trkpt lat="45.0405" lon="5.53846">
        <ele>1098.1999511719</ele>
        <time>2022-05-26T08:40:10.000Z</time>
      </trkpt>
      <trkpt lat="45.04045" lon="5.53841">
        <ele>1098.4000244141</ele>
        <time>2022-05-26T08:40:15.000Z</time>
      </trkpt>
      <trkpt lat="45.04037" lon="5.53835">
        <ele>1098.5999755859</ele>
        <time>2022-05-26T08:40:20.000Z</time>
      </trkpt>
      <trkpt lat="45.04021" lon="5.53819">
        <ele>1097.5999755859</ele>
        <time>2022-05-26T08:40:31.000Z</time>
      </trkpt>
      <trkpt lat="45.04006" lon="5.53804">
        <ele>1096</ele>
        <time>2022-05-26T08:40:45.000Z</time>
      </trkpt>
      <trkpt lat="45.04005" lon="5.53803">
        <ele>1095.8000488281</ele>
        <time>2022-05-26T08:40:46.000Z</time>
      </trkpt>
      <trkpt lat="45.04" lon="5.538">
        <ele>1095.4000244141</ele>
        <time>2022-05-26T08:40:52.000Z</time>
      </trkpt>
      <trkpt lat="45.03996" lon="5.53797">
        <ele>1095</ele>
        <time>2022-05-26T08:40:56.000Z</time>
      </trkpt>
      <trkpt lat="45.03989" lon="5.53792">
        <ele>1094.1999511719</ele>
        <time>2022-05-26T08:41:03.000Z</time>
      </trkpt>
      <trkpt lat="45.03989" lon="5.53791">
        <ele>1094</ele>
        <time>2022-05-26T08:41:04.000Z</time>
      </trkpt>
      <trkpt lat="45.03983" lon="5.53782">
        <ele>1092.8000488281</ele>
        <time>2022-05-26T08:41:12.000Z</time>
      </trkpt>
      <trkpt lat="45.03981" lon="5.5378">
        <ele>1092.5999755859</ele>
        <time>2022-05-26T08:41:14.000Z</time>
      </trkpt>
      <trkpt lat="45.0398" lon="5.53778">
        <ele>1092.5999755859</ele>
        <time>2022-05-26T08:41:15.000Z</time>
      </trkpt>
      <trkpt lat="45.03979" lon="5.53777">
        <ele>1092.5999755859</ele>
        <time>2022-05-26T08:41:16.000Z</time>
      </trkpt>
      <trkpt lat="45.03967" lon="5.53761">
        <ele>1093</ele>
        <time>2022-05-26T08:41:28.000Z</time>
      </trkpt>
      <trkpt lat="45.03966" lon="5.5376">
        <ele>1093</ele>
        <time>2022-05-26T08:41:29.000Z</time>
      </trkpt>
      <trkpt lat="45.03964" lon="5.53758">
        <ele>1093</ele>
        <time>2022-05-26T08:41:30.000Z</time>
      </trkpt>
      <trkpt lat="45.03954" lon="5.53745">
        <ele>1093</ele>
        <time>2022-05-26T08:41:39.000Z</time>
      </trkpt>
      <trkpt lat="45.03951" lon="5.53743">
        <ele>1093.1999511719</ele>
        <time>2022-05-26T08:41:41.000Z</time>
      </trkpt>
      <trkpt lat="45.03936" lon="5.53729">
        <ele>1093.1999511719</ele>
        <time>2022-05-26T08:41:51.000Z</time>
      </trkpt>
      <trkpt lat="45.0392" lon="5.53717">
        <ele>1093.8000488281</ele>
        <time>2022-05-26T08:42:07.000Z</time>
      </trkpt>
      <trkpt lat="45.03914" lon="5.53713">
        <ele>1094.4000244141</ele>
        <time>2022-05-26T08:42:13.000Z</time>
      </trkpt>
      <trkpt lat="45.03911" lon="5.53711">
        <ele>1094.5999755859</ele>
        <time>2022-05-26T08:42:16.000Z</time>
      </trkpt>
      <trkpt lat="45.03911" lon="5.53711">
        <ele>1094.4000244141</ele>
        <time>2022-05-26T08:42:17.000Z</time>
      </trkpt>
      <trkpt lat="45.0391" lon="5.53709">
        <ele>1094.4000244141</ele>
        <time>2022-05-26T08:42:18.000Z</time>
      </trkpt>
      <trkpt lat="45.03895" lon="5.53693">
        <ele>1093.5999755859</ele>
        <time>2022-05-26T08:42:33.000Z</time>
      </trkpt>
      <trkpt lat="45.03893" lon="5.53691">
        <ele>1093.5999755859</ele>
        <time>2022-05-26T08:42:35.000Z</time>
      </trkpt>
      <trkpt lat="45.03888" lon="5.53684">
        <ele>1093.5999755859</ele>
        <time>2022-05-26T08:42:42.000Z</time>
      </trkpt>
      <trkpt lat="45.03872" lon="5.53668">
        <ele>1093.4000244141</ele>
        <time>2022-05-26T08:42:58.000Z</time>
      </trkpt>
      <trkpt lat="45.03857" lon="5.53653">
        <ele>1092.8000488281</ele>
        <time>2022-05-26T08:43:12.000Z</time>
      </trkpt>
      <trkpt lat="45.03847" lon="5.53642">
        <ele>1092.4000244141</ele>
        <time>2022-05-26T08:43:24.000Z</time>
      </trkpt>
      <trkpt lat="45.03837" lon="5.53629">
        <ele>1091.5999755859</ele>
        <time>2022-05-26T08:43:35.000Z</time>
      </trkpt>
      <trkpt lat="45.03834" lon="5.53625">
        <ele>1091.4000244141</ele>
        <time>2022-05-26T08:43:39.000Z</time>
      </trkpt>
      <trkpt lat="45.0382" lon="5.53607">
        <ele>1090.5999755859</ele>
        <time>2022-05-26T08:43:54.000Z</time>
      </trkpt>
      <trkpt lat="45.03817" lon="5.53603">
        <ele>1090.4000244141</ele>
        <time>2022-05-26T08:43:57.000Z</time>
      </trkpt>
      <trkpt lat="45.03817" lon="5.53602">
        <ele>1090.4000244141</ele>
        <time>2022-05-26T08:43:58.000Z</time>
      </trkpt>
      <trkpt lat="45.03817" lon="5.53602">
        <ele>1090.4000244141</ele>
        <time>2022-05-26T08:43:59.000Z</time>
      </trkpt>
      <trkpt lat="45.03817" lon="5.53602">
        <ele>1090.4000244141</ele>
        <time>2022-05-26T08:44:04.000Z</time>
      </trkpt>
      <trkpt lat="45.03817" lon="5.53601">
        <ele>1090.4000244141</ele>
        <time>2022-05-26T08:44:06.000Z</time>
      </trkpt>
      <trkpt lat="45.03817" lon="5.53601">
        <ele>1090.4000244141</ele>
        <time>2022-05-26T08:44:08.000Z</time>
      </trkpt>
      <trkpt lat="45.03817" lon="5.53601">
        <ele>1090.4000244141</ele>
        <time>2022-05-26T08:44:09.000Z</time>
      </trkpt>
      <trkpt lat="45.03817" lon="5.53601">
        <ele>1090.4000244141</ele>
        <time>2022-05-26T08:44:10.000Z</time>
      </trkpt>
      <trkpt lat="45.03816" lon="5.53601">
        <ele>1090.4000244141</ele>
        <time>2022-05-26T08:44:29.000Z</time>
      </trkpt>
      <trkpt lat="45.03816" lon="5.536">
        <ele>1090.4000244141</ele>
        <time>2022-05-26T08:44:40.000Z</time>
      </trkpt>
      <trkpt lat="45.03817" lon="5.53601">
        <ele>1090.4000244141</ele>
        <time>2022-05-26T08:44:47.000Z</time>
      </trkpt>
      <trkpt lat="45.03815" lon="5.53601">
        <ele>1090.4000244141</ele>
        <time>2022-05-26T08:45:04.000Z</time>
      </trkpt>
      <trkpt lat="45.03373" lon="5.53252">
        <ele>1094.4000244141</ele>
        <time>2022-05-26T09:26:54.000Z</time>
      </trkpt>
      <trkpt lat="45.03373" lon="5.53246">
        <ele>1094.1999511719</ele>
        <time>2022-05-26T09:26:55.000Z</time>
      </trkpt>
      <trkpt lat="45.03374" lon="5.53237">
        <ele>1094.1999511719</ele>
        <time>2022-05-26T09:27:02.000Z</time>
      </trkpt>
      <trkpt lat="45.03373" lon="5.53236">
        <ele>1094.1999511719</ele>
        <time>2022-05-26T09:27:03.000Z</time>
      </trkpt>
      <trkpt lat="45.03373" lon="5.53236">
        <ele>1094.1999511719</ele>
        <time>2022-05-26T09:27:04.000Z</time>
      </trkpt>
      <trkpt lat="45.03373" lon="5.53234">
        <ele>1094.1999511719</ele>
        <time>2022-05-26T09:27:05.000Z</time>
      </trkpt>
      <trkpt lat="45.03372" lon="5.53233">
        <ele>1094.1999511719</ele>
        <time>2022-05-26T09:27:06.000Z</time>
      </trkpt>
      <trkpt lat="45.03371" lon="5.53231">
        <ele>1094.4000244141</ele>
        <time>2022-05-26T09:27:08.000Z</time>
      </trkpt>
      <trkpt lat="45.0337" lon="5.53229">
        <ele>1094.4000244141</ele>
        <time>2022-05-26T09:27:09.000Z</time>
      </trkpt>
      <trkpt lat="45.03363" lon="5.53212">
        <ele>1094.8000488281</ele>
        <time>2022-05-26T09:27:20.000Z</time>
      </trkpt>
      <trkpt lat="45.03355" lon="5.53196">
        <ele>1095.8000488281</ele>
        <time>2022-05-26T09:27:31.000Z</time>
      </trkpt>
      <trkpt lat="45.03353" lon="5.53191">
        <ele>1095.5999755859</ele>
        <time>2022-05-26T09:27:34.000Z</time>
      </trkpt>
      <trkpt lat="45.03351" lon="5.53187">
        <ele>1095.5999755859</ele>
        <time>2022-05-26T09:27:37.000Z</time>
      </trkpt>
      <trkpt lat="45.0335" lon="5.53179">
        <ele>1095.4000244141</ele>
        <time>2022-05-26T09:27:44.000Z</time>
      </trkpt>
      <trkpt lat="45.03349" lon="5.53175">
        <ele>1095.1999511719</ele>
        <time>2022-05-26T09:27:47.000Z</time>
      </trkpt>
      <trkpt lat="45.0335" lon="5.53173">
        <ele>1095.1999511719</ele>
        <time>2022-05-26T09:27:48.000Z</time>
      </trkpt>
      <trkpt lat="45.0335" lon="5.5317">
        <ele>1095</ele>
        <time>2022-05-26T09:27:51.000Z</time>
      </trkpt>
      <trkpt lat="45.03349" lon="5.53161">
        <ele>1095</ele>
        <time>2022-05-26T09:27:56.000Z</time>
      </trkpt>
      <trkpt lat="45.03344" lon="5.53139">
        <ele>1095</ele>
        <time>2022-05-26T09:28:09.000Z</time>
      </trkpt>
      <trkpt lat="45.03342" lon="5.53123">
        <ele>1093.8000488281</ele>
        <time>2022-05-26T09:28:22.000Z</time>
      </trkpt>
      <trkpt lat="45.03338" lon="5.53116">
        <ele>1093.1999511719</ele>
        <time>2022-05-26T09:28:31.000Z</time>
      </trkpt>
      <trkpt lat="45.03337" lon="5.53115">
        <ele>1093.1999511719</ele>
        <time>2022-05-26T09:28:35.000Z</time>
      </trkpt>
      <trkpt lat="45.03327" lon="5.53122">
        <ele>1093.8000488281</ele>
        <time>2022-05-26T09:28:54.000Z</time>
      </trkpt>
      <trkpt lat="45.03322" lon="5.5313">
        <ele>1094.1999511719</ele>
        <time>2022-05-26T09:29:00.000Z</time>
      </trkpt>
      <trkpt lat="45.03306" lon="5.53143">
        <ele>1095.1999511719</ele>
        <time>2022-05-26T09:29:17.000Z</time>
      </trkpt>
      <trkpt lat="45.03295" lon="5.53148">
        <ele>1095.5999755859</ele>
        <time>2022-05-26T09:29:27.000Z</time>
      </trkpt>
      <trkpt lat="45.03285" lon="5.53146">
        <ele>1095.8000488281</ele>
        <time>2022-05-26T09:29:35.000Z</time>
      </trkpt>
      <trkpt lat="45.03284" lon="5.53145">
        <ele>1095.8000488281</ele>
        <time>2022-05-26T09:29:36.000Z</time>
      </trkpt>
      <trkpt lat="45.0328" lon="5.53142">
        <ele>1095.5999755859</ele>
        <time>2022-05-26T09:29:39.000Z</time>
      </trkpt>
      <trkpt lat="45.03273" lon="5.53132">
        <ele>1095.8000488281</ele>
        <time>2022-05-26T09:29:46.000Z</time>
      </trkpt>
      <trkpt lat="45.03265" lon="5.53119">
        <ele>1096</ele>
        <time>2022-05-26T09:29:55.000Z</time>
      </trkpt>
      <trkpt lat="45.0326" lon="5.5311">
        <ele>1096.4000244141</ele>
        <time>2022-05-26T09:30:01.000Z</time>
      </trkpt>
      <trkpt lat="45.03248" lon="5.53092">
        <ele>1097.1999511719</ele>
        <time>2022-05-26T09:30:14.000Z</time>
      </trkpt>
      <trkpt lat="45.03234" lon="5.53074">
        <ele>1098.5999755859</ele>
        <time>2022-05-26T09:30:28.000Z</time>
      </trkpt>
      <trkpt lat="45.03224" lon="5.53063">
        <ele>1099.8000488281</ele>
        <time>2022-05-26T09:30:43.000Z</time>
      </trkpt>
      <trkpt lat="45.03209" lon="5.53059">
        <ele>1101</ele>
        <time>2022-05-26T09:31:02.000Z</time>
      </trkpt>
      <trkpt lat="45.03206" lon="5.5306">
        <ele>1101.1999511719</ele>
        <time>2022-05-26T09:31:06.000Z</time>
      </trkpt>
      <trkpt lat="45.032" lon="5.5306">
        <ele>1101.5999755859</ele>
        <time>2022-05-26T09:31:12.000Z</time>
      </trkpt>
      <trkpt lat="45.03183" lon="5.53049">
        <ele>1102.5999755859</ele>
        <time>2022-05-26T09:31:27.000Z</time>
      </trkpt>
      <trkpt lat="45.03167" lon="5.53037">
        <ele>1103.4000244141</ele>
        <time>2022-05-26T09:31:39.000Z</time>
      </trkpt>
      <trkpt lat="45.03166" lon="5.53034">
        <ele>1103.4000244141</ele>
        <time>2022-05-26T09:31:44.000Z</time>
      </trkpt>
      <trkpt lat="45.0317" lon="5.53037">
        <ele>1103.1999511719</ele>
        <time>2022-05-26T09:31:59.000Z</time>
      </trkpt>
      <trkpt lat="45.03177" lon="5.53013">
        <ele>1101</ele>
        <time>2022-05-26T09:32:20.000Z</time>
      </trkpt>
      <trkpt lat="45.03168" lon="5.5299">
        <ele>1100</ele>
        <time>2022-05-26T09:32:35.000Z</time>
      </trkpt>
      <trkpt lat="45.03159" lon="5.52967">
        <ele>1099.4000244141</ele>
        <time>2022-05-26T09:32:47.000Z</time>
      </trkpt>
      <trkpt lat="45.03155" lon="5.52961">
        <ele>1099.4000244141</ele>
        <time>2022-05-26T09:32:51.000Z</time>
      </trkpt>
      <trkpt lat="45.03154" lon="5.5296">
        <ele>1099.4000244141</ele>
        <time>2022-05-26T09:32:52.000Z</time>
      </trkpt>
      <trkpt lat="45.03153" lon="5.52957">
        <ele>1099.4000244141</ele>
        <time>2022-05-26T09:32:53.000Z</time>
      </trkpt>
      <trkpt lat="45.03153" lon="5.52957">
        <ele>1099.4000244141</ele>
        <time>2022-05-26T09:32:54.000Z</time>
      </trkpt>
      <trkpt lat="45.0315" lon="5.5295">
        <ele>1099.4000244141</ele>
        <time>2022-05-26T09:32:57.000Z</time>
      </trkpt>
      <trkpt lat="45.03149" lon="5.52947">
        <ele>1099.4000244141</ele>
        <time>2022-05-26T09:32:58.000Z</time>
      </trkpt>
      <trkpt lat="45.03147" lon="5.52944">
        <ele>1099.4000244141</ele>
        <time>2022-05-26T09:33:01.000Z</time>
      </trkpt>
      <trkpt lat="45.03146" lon="5.52942">
        <ele>1099.5999755859</ele>
        <time>2022-05-26T09:33:03.000Z</time>
      </trkpt>
      <trkpt lat="45.03145" lon="5.52941">
        <ele>1099.5999755859</ele>
        <time>2022-05-26T09:33:04.000Z</time>
      </trkpt>
      <trkpt lat="45.03143" lon="5.52937">
        <ele>1099.8000488281</ele>
        <time>2022-05-26T09:33:07.000Z</time>
      </trkpt>
      <trkpt lat="45.0313" lon="5.52923">
        <ele>1100.5999755859</ele>
        <time>2022-05-26T09:33:21.000Z</time>
      </trkpt>
      <trkpt lat="45.03117" lon="5.52906">
        <ele>1100.5999755859</ele>
        <time>2022-05-26T09:33:37.000Z</time>
      </trkpt>
      <trkpt lat="45.0311" lon="5.52892">
        <ele>1100</ele>
        <time>2022-05-26T09:33:47.000Z</time>
      </trkpt>
      <trkpt lat="45.03106" lon="5.5288">
        <ele>1100</ele>
        <time>2022-05-26T09:33:54.000Z</time>
      </trkpt>
      <trkpt lat="45.03104" lon="5.52859">
        <ele>1100.4000244141</ele>
        <time>2022-05-26T09:34:09.000Z</time>
      </trkpt>
      <trkpt lat="45.03105" lon="5.52832">
        <ele>1101.8000488281</ele>
        <time>2022-05-26T09:34:24.000Z</time>
      </trkpt>
      <trkpt lat="45.03103" lon="5.52818">
        <ele>1101.5999755859</ele>
        <time>2022-05-26T09:34:33.000Z</time>
      </trkpt>
      <trkpt lat="45.031" lon="5.52792">
        <ele>1101.1999511719</ele>
        <time>2022-05-26T09:34:48.000Z</time>
      </trkpt>
      <trkpt lat="45.03099" lon="5.52784">
        <ele>1101.1999511719</ele>
        <time>2022-05-26T09:34:53.000Z</time>
      </trkpt>
      <trkpt lat="45.03098" lon="5.52775">
        <ele>1101.1999511719</ele>
        <time>2022-05-26T09:34:59.000Z</time>
      </trkpt>
      <trkpt lat="45.03088" lon="5.52754">
        <ele>1101.5999755859</ele>
        <time>2022-05-26T09:35:14.000Z</time>
      </trkpt>
      <trkpt lat="45.03086" lon="5.52754">
        <ele>1101.4000244141</ele>
        <time>2022-05-26T09:35:17.000Z</time>
      </trkpt>
      <trkpt lat="45.03081" lon="5.52754">
        <ele>1101.1999511719</ele>
        <time>2022-05-26T09:35:22.000Z</time>
      </trkpt>
      <trkpt lat="45.03063" lon="5.5276">
        <ele>1101</ele>
        <time>2022-05-26T09:35:40.000Z</time>
      </trkpt>
      <trkpt lat="45.03045" lon="5.52766">
        <ele>1101</ele>
        <time>2022-05-26T09:35:57.000Z</time>
      </trkpt>
      <trkpt lat="45.03027" lon="5.52769">
        <ele>1102.4000244141</ele>
        <time>2022-05-26T09:36:11.000Z</time>
      </trkpt>
      <trkpt lat="45.03021" lon="5.52771">
        <ele>1103</ele>
        <time>2022-05-26T09:36:16.000Z</time>
      </trkpt>
      <trkpt lat="45.0302" lon="5.52771">
        <ele>1103.1999511719</ele>
        <time>2022-05-26T09:36:17.000Z</time>
      </trkpt>
      <trkpt lat="45.03017" lon="5.52772">
        <ele>1103.4000244141</ele>
        <time>2022-05-26T09:36:19.000Z</time>
      </trkpt>
      <trkpt lat="45.03016" lon="5.52772">
        <ele>1103.5999755859</ele>
        <time>2022-05-26T09:36:20.000Z</time>
      </trkpt>
      <trkpt lat="45.03015" lon="5.52773">
        <ele>1103.8000488281</ele>
        <time>2022-05-26T09:36:21.000Z</time>
      </trkpt>
      <trkpt lat="45.03013" lon="5.52773">
        <ele>1103.8000488281</ele>
        <time>2022-05-26T09:36:22.000Z</time>
      </trkpt>
      <trkpt lat="45.02995" lon="5.52773">
        <ele>1105.1999511719</ele>
        <time>2022-05-26T09:36:38.000Z</time>
      </trkpt>
      <trkpt lat="45.02989" lon="5.52774">
        <ele>1105.8000488281</ele>
        <time>2022-05-26T09:36:45.000Z</time>
      </trkpt>
      <trkpt lat="45.02983" lon="5.52775">
        <ele>1106.1999511719</ele>
        <time>2022-05-26T09:36:50.000Z</time>
      </trkpt>
      <trkpt lat="45.02964" lon="5.52777">
        <ele>1107.5999755859</ele>
        <time>2022-05-26T09:37:08.000Z</time>
      </trkpt>
      <trkpt lat="45.02952" lon="5.52775">
        <ele>1108.5999755859</ele>
        <time>2022-05-26T09:37:19.000Z</time>
      </trkpt>
      <trkpt lat="45.02948" lon="5.52775">
        <ele>1109</ele>
        <time>2022-05-26T09:37:22.000Z</time>
      </trkpt>
      <trkpt lat="45.02945" lon="5.52775">
        <ele>1109.1999511719</ele>
        <time>2022-05-26T09:37:24.000Z</time>
      </trkpt>
      <trkpt lat="45.02943" lon="5.52775">
        <ele>1109.4000244141</ele>
        <time>2022-05-26T09:37:26.000Z</time>
      </trkpt>
      <trkpt lat="45.0294" lon="5.52775">
        <ele>1109.8000488281</ele>
        <time>2022-05-26T09:37:29.000Z</time>
      </trkpt>
      <trkpt lat="45.02939" lon="5.52775">
        <ele>1110</ele>
        <time>2022-05-26T09:37:30.000Z</time>
      </trkpt>
      <trkpt lat="45.02933" lon="5.52777">
        <ele>1110.5999755859</ele>
        <time>2022-05-26T09:37:37.000Z</time>
      </trkpt>
      <trkpt lat="45.02933" lon="5.52777">
        <ele>1110.5999755859</ele>
        <time>2022-05-26T09:37:40.000Z</time>
      </trkpt>
      <trkpt lat="45.02932" lon="5.52779">
        <ele>1111</ele>
        <time>2022-05-26T09:37:45.000Z</time>
      </trkpt>
      <trkpt lat="45.02931" lon="5.5278">
        <ele>1111</ele>
        <time>2022-05-26T09:37:51.000Z</time>
      </trkpt>
      <trkpt lat="45.02932" lon="5.5278">
        <ele>1111</ele>
        <time>2022-05-26T09:37:52.000Z</time>
      </trkpt>
      <trkpt lat="45.02932" lon="5.5278">
        <ele>1111</ele>
        <time>2022-05-26T09:37:53.000Z</time>
      </trkpt>
      <trkpt lat="45.02934" lon="5.52779">
        <ele>1110.8000488281</ele>
        <time>2022-05-26T09:37:56.000Z</time>
      </trkpt>
      <trkpt lat="45.02935" lon="5.52777">
        <ele>1110.4000244141</ele>
        <time>2022-05-26T09:38:01.000Z</time>
      </trkpt>
      <trkpt lat="45.02935" lon="5.52776">
        <ele>1110.4000244141</ele>
        <time>2022-05-26T09:38:04.000Z</time>
      </trkpt>
      <trkpt lat="45.02933" lon="5.52774">
        <ele>1110.5999755859</ele>
        <time>2022-05-26T09:38:08.000Z</time>
      </trkpt>
      <trkpt lat="45.02931" lon="5.52773">
        <ele>1110.5999755859</ele>
        <time>2022-05-26T09:38:09.000Z</time>
      </trkpt>
      <trkpt lat="45.0293" lon="5.52772">
        <ele>1110.5999755859</ele>
        <time>2022-05-26T09:38:10.000Z</time>
      </trkpt>
      <trkpt lat="45.02929" lon="5.52767">
        <ele>1110.1999511719</ele>
        <time>2022-05-26T09:38:13.000Z</time>
      </trkpt>
      <trkpt lat="45.02928" lon="5.52765">
        <ele>1110.1999511719</ele>
        <time>2022-05-26T09:38:14.000Z</time>
      </trkpt>
      <trkpt lat="45.02928" lon="5.52765">
        <ele>1110.1999511719</ele>
        <time>2022-05-26T09:38:15.000Z</time>
      </trkpt>
      <trkpt lat="45.02927" lon="5.52762">
        <ele>1110</ele>
        <time>2022-05-26T09:38:17.000Z</time>
      </trkpt>
      <trkpt lat="45.02925" lon="5.52755">
        <ele>1109.5999755859</ele>
        <time>2022-05-26T09:38:21.000Z</time>
      </trkpt>
      <trkpt lat="45.02912" lon="5.52736">
        <ele>1108</ele>
        <time>2022-05-26T09:38:38.000Z</time>
      </trkpt>
      <trkpt lat="45.02898" lon="5.52719">
        <ele>1107.1999511719</ele>
        <time>2022-05-26T09:38:54.000Z</time>
      </trkpt>
      <trkpt lat="45.02888" lon="5.52707">
        <ele>1107.4000244141</ele>
        <time>2022-05-26T09:39:04.000Z</time>
      </trkpt>
      <trkpt lat="45.02876" lon="5.52702">
        <ele>1108.1999511719</ele>
        <time>2022-05-26T09:39:15.000Z</time>
      </trkpt>
      <trkpt lat="45.02858" lon="5.52692">
        <ele>1111.5999755859</ele>
        <time>2022-05-26T09:39:31.000Z</time>
      </trkpt>
      <trkpt lat="45.02848" lon="5.52685">
        <ele>1113.5999755859</ele>
        <time>2022-05-26T09:39:40.000Z</time>
      </trkpt>
      <trkpt lat="45.02832" lon="5.52674">
        <ele>1116.5999755859</ele>
        <time>2022-05-26T09:39:55.000Z</time>
      </trkpt>
      <trkpt lat="45.02821" lon="5.52666">
        <ele>1118.8000488281</ele>
        <time>2022-05-26T09:40:06.000Z</time>
      </trkpt>
      <trkpt lat="45.02819" lon="5.52663">
        <ele>1119</ele>
        <time>2022-05-26T09:40:09.000Z</time>
      </trkpt>
      <trkpt lat="45.02816" lon="5.5266">
        <ele>1119.1999511719</ele>
        <time>2022-05-26T09:40:14.000Z</time>
      </trkpt>
      <trkpt lat="45.02812" lon="5.52656">
        <ele>1119.4000244141</ele>
        <time>2022-05-26T09:40:20.000Z</time>
      </trkpt>
      <trkpt lat="45.02811" lon="5.52654">
        <ele>1119.4000244141</ele>
        <time>2022-05-26T09:40:21.000Z</time>
      </trkpt>
      <trkpt lat="45.02809" lon="5.52652">
        <ele>1119.5999755859</ele>
        <time>2022-05-26T09:40:23.000Z</time>
      </trkpt>
      <trkpt lat="45.02802" lon="5.52631">
        <ele>1120</ele>
        <time>2022-05-26T09:40:39.000Z</time>
      </trkpt>
      <trkpt lat="45.028" lon="5.52618">
        <ele>1120.1999511719</ele>
        <time>2022-05-26T09:40:47.000Z</time>
      </trkpt>
      <trkpt lat="45.02798" lon="5.52594">
        <ele>1119.1999511719</ele>
        <time>2022-05-26T09:41:01.000Z</time>
      </trkpt>
      <trkpt lat="45.02796" lon="5.52581">
        <ele>1118.8000488281</ele>
        <time>2022-05-26T09:41:09.000Z</time>
      </trkpt>
      <trkpt lat="45.02795" lon="5.52555">
        <ele>1118</ele>
        <time>2022-05-26T09:41:26.000Z</time>
      </trkpt>
      <trkpt lat="45.02793" lon="5.52535">
        <ele>1118</ele>
        <time>2022-05-26T09:41:37.000Z</time>
      </trkpt>
      <trkpt lat="45.0279" lon="5.52512">
        <ele>1118.1999511719</ele>
        <time>2022-05-26T09:41:55.000Z</time>
      </trkpt>
      <trkpt lat="45.02792" lon="5.5251">
        <ele>1118</ele>
        <time>2022-05-26T09:42:04.000Z</time>
      </trkpt>
      <trkpt lat="45.02793" lon="5.5251">
        <ele>1118</ele>
        <time>2022-05-26T09:42:05.000Z</time>
      </trkpt>
      <trkpt lat="45.02792" lon="5.5251">
        <ele>1118</ele>
        <time>2022-05-26T09:42:12.000Z</time>
      </trkpt>
      <trkpt lat="45.02792" lon="5.52511">
        <ele>1118</ele>
        <time>2022-05-26T09:42:15.000Z</time>
      </trkpt>
      <trkpt lat="45.02792" lon="5.52504">
        <ele>1118</ele>
        <time>2022-05-26T09:42:24.000Z</time>
      </trkpt>
      <trkpt lat="45.02792" lon="5.52503">
        <ele>1118</ele>
        <time>2022-05-26T09:42:33.000Z</time>
      </trkpt>
      <trkpt lat="45.02797" lon="5.52509">
        <ele>1118</ele>
        <time>2022-05-26T09:43:02.000Z</time>
      </trkpt>
      <trkpt lat="45.02797" lon="5.52512">
        <ele>1118</ele>
        <time>2022-05-26T09:43:13.000Z</time>
      </trkpt>
      <trkpt lat="45.02797" lon="5.52509">
        <ele>1118</ele>
        <time>2022-05-26T09:43:15.000Z</time>
      </trkpt>
      <trkpt lat="45.02795" lon="5.52494">
        <ele>1118.1999511719</ele>
        <time>2022-05-26T09:43:23.000Z</time>
      </trkpt>
      <trkpt lat="45.02795" lon="5.52488">
        <ele>1118.4000244141</ele>
        <time>2022-05-26T09:43:27.000Z</time>
      </trkpt>
      <trkpt lat="45.02793" lon="5.52469">
        <ele>1119</ele>
        <time>2022-05-26T09:43:40.000Z</time>
      </trkpt>
      <trkpt lat="45.02786" lon="5.52445">
        <ele>1119.5999755859</ele>
        <time>2022-05-26T09:43:55.000Z</time>
      </trkpt>
      <trkpt lat="45.02777" lon="5.52423">
        <ele>1120.4000244141</ele>
        <time>2022-05-26T09:44:09.000Z</time>
      </trkpt>
      <trkpt lat="45.02765" lon="5.52403">
        <ele>1121.4000244141</ele>
        <time>2022-05-26T09:44:26.000Z</time>
      </trkpt>
      <trkpt lat="45.02753" lon="5.52384">
        <ele>1121.4000244141</ele>
        <time>2022-05-26T09:44:41.000Z</time>
      </trkpt>
      <trkpt lat="45.02747" lon="5.52371">
        <ele>1121.5999755859</ele>
        <time>2022-05-26T09:44:50.000Z</time>
      </trkpt>
      <trkpt lat="45.02746" lon="5.5237">
        <ele>1121.5999755859</ele>
        <time>2022-05-26T09:44:51.000Z</time>
      </trkpt>
      <trkpt lat="45.02745" lon="5.52366">
        <ele>1121.5999755859</ele>
        <time>2022-05-26T09:44:53.000Z</time>
      </trkpt>
      <trkpt lat="45.02738" lon="5.52342">
        <ele>1122</ele>
        <time>2022-05-26T09:45:06.000Z</time>
      </trkpt>
      <trkpt lat="45.02733" lon="5.52325">
        <ele>1122.1999511719</ele>
        <time>2022-05-26T09:45:17.000Z</time>
      </trkpt>
      <trkpt lat="45.02725" lon="5.52309">
        <ele>1122.4000244141</ele>
        <time>2022-05-26T09:45:29.000Z</time>
      </trkpt>
      <trkpt lat="45.02719" lon="5.52294">
        <ele>1122</ele>
        <time>2022-05-26T09:45:42.000Z</time>
      </trkpt>
      <trkpt lat="45.02719" lon="5.52292">
        <ele>1122</ele>
        <time>2022-05-26T09:45:50.000Z</time>
      </trkpt>
      <trkpt lat="45.02718" lon="5.52295">
        <ele>1122.1999511719</ele>
        <time>2022-05-26T09:46:14.000Z</time>
      </trkpt>
      <trkpt lat="45.02719" lon="5.52296">
        <ele>1122.1999511719</ele>
        <time>2022-05-26T09:46:15.000Z</time>
      </trkpt>
      <trkpt lat="45.02719" lon="5.52296">
        <ele>1122.1999511719</ele>
        <time>2022-05-26T09:46:16.000Z</time>
      </trkpt>
      <trkpt lat="45.02719" lon="5.52296">
        <ele>1122.1999511719</ele>
        <time>2022-05-26T09:46:17.000Z</time>
      </trkpt>
      <trkpt lat="45.02719" lon="5.52297">
        <ele>1122.1999511719</ele>
        <time>2022-05-26T09:46:23.000Z</time>
      </trkpt>
      <trkpt lat="45.02719" lon="5.52296">
        <ele>1122.1999511719</ele>
        <time>2022-05-26T09:46:36.000Z</time>
      </trkpt>
      <trkpt lat="45.02718" lon="5.52297">
        <ele>1122.4000244141</ele>
        <time>2022-05-26T09:46:45.000Z</time>
      </trkpt>
      <trkpt lat="45.02718" lon="5.52299">
        <ele>1122.5999755859</ele>
        <time>2022-05-26T09:46:55.000Z</time>
      </trkpt>
      <trkpt lat="45.02717" lon="5.52297">
        <ele>1122.5999755859</ele>
        <time>2022-05-26T09:47:19.000Z</time>
      </trkpt>
      <trkpt lat="45.02715" lon="5.52289">
        <ele>1122.1999511719</ele>
        <time>2022-05-26T09:47:26.000Z</time>
      </trkpt>
      <trkpt lat="45.02713" lon="5.52279">
        <ele>1121.8000488281</ele>
        <time>2022-05-26T09:47:32.000Z</time>
      </trkpt>
      <trkpt lat="45.0271" lon="5.52269">
        <ele>1121</ele>
        <time>2022-05-26T09:47:38.000Z</time>
      </trkpt>
      <trkpt lat="45.02709" lon="5.52266">
        <ele>1120.5999755859</ele>
        <time>2022-05-26T09:47:40.000Z</time>
      </trkpt>
      <trkpt lat="45.02708" lon="5.52258">
        <ele>1119.8000488281</ele>
        <time>2022-05-26T09:47:44.000Z</time>
      </trkpt>
      <trkpt lat="45.02707" lon="5.52254">
        <ele>1119.5999755859</ele>
        <time>2022-05-26T09:47:46.000Z</time>
      </trkpt>
      <trkpt lat="45.02703" lon="5.52239">
        <ele>1119.1999511719</ele>
        <time>2022-05-26T09:47:55.000Z</time>
      </trkpt>
      <trkpt lat="45.02702" lon="5.52235">
        <ele>1119.1999511719</ele>
        <time>2022-05-26T09:47:58.000Z</time>
      </trkpt>
      <trkpt lat="45.02701" lon="5.5223">
        <ele>1119.1999511719</ele>
        <time>2022-05-26T09:48:01.000Z</time>
      </trkpt>
      <trkpt lat="45.027" lon="5.52228">
        <ele>1119.1999511719</ele>
        <time>2022-05-26T09:48:02.000Z</time>
      </trkpt>
      <trkpt lat="45.02698" lon="5.52225">
        <ele>1119.1999511719</ele>
        <time>2022-05-26T09:48:05.000Z</time>
      </trkpt>
      <trkpt lat="45.02698" lon="5.52224">
        <ele>1119.1999511719</ele>
        <time>2022-05-26T09:48:06.000Z</time>
      </trkpt>
      <trkpt lat="45.02695" lon="5.5222">
        <ele>1119.4000244141</ele>
        <time>2022-05-26T09:48:11.000Z</time>
      </trkpt>
      <trkpt lat="45.02693" lon="5.5222">
        <ele>1119.5999755859</ele>
        <time>2022-05-26T09:48:15.000Z</time>
      </trkpt>
      <trkpt lat="45.02693" lon="5.5222">
        <ele>1119.5999755859</ele>
        <time>2022-05-26T09:48:18.000Z</time>
      </trkpt>
      <trkpt lat="45.02693" lon="5.5222">
        <ele>1119.5999755859</ele>
        <time>2022-05-26T09:48:19.000Z</time>
      </trkpt>
      <trkpt lat="45.02693" lon="5.5222">
        <ele>1119.5999755859</ele>
        <time>2022-05-26T09:48:21.000Z</time>
      </trkpt>
      <trkpt lat="45.02692" lon="5.52219">
        <ele>1119.8000488281</ele>
        <time>2022-05-26T09:48:25.000Z</time>
      </trkpt>
      <trkpt lat="45.02692" lon="5.52219">
        <ele>1119.8000488281</ele>
        <time>2022-05-26T09:48:36.000Z</time>
      </trkpt>
      <trkpt lat="45.02689" lon="5.52221">
        <ele>1120</ele>
        <time>2022-05-26T09:49:00.000Z</time>
      </trkpt>
      <trkpt lat="45.02689" lon="5.52221">
        <ele>1120.1999511719</ele>
        <time>2022-05-26T09:49:13.000Z</time>
      </trkpt>
      <trkpt lat="45.02689" lon="5.52221">
        <ele>1120</ele>
        <time>2022-05-26T09:49:20.000Z</time>
      </trkpt>
      <trkpt lat="45.02689" lon="5.52221">
        <ele>1120</ele>
        <time>2022-05-26T09:49:21.000Z</time>
      </trkpt>
      <trkpt lat="45.02689" lon="5.52221">
        <ele>1120</ele>
        <time>2022-05-26T09:49:22.000Z</time>
      </trkpt>
      <trkpt lat="45.0268" lon="5.5222">
        <ele>1121</ele>
        <time>2022-05-26T09:49:35.000Z</time>
      </trkpt>
      <trkpt lat="45.02679" lon="5.5222">
        <ele>1121.1999511719</ele>
        <time>2022-05-26T09:49:36.000Z</time>
      </trkpt>
      <trkpt lat="45.02677" lon="5.52218">
        <ele>1121.4000244141</ele>
        <time>2022-05-26T09:49:39.000Z</time>
      </trkpt>
      <trkpt lat="45.02672" lon="5.52213">
        <ele>1121.5999755859</ele>
        <time>2022-05-26T09:49:43.000Z</time>
      </trkpt>
      <trkpt lat="45.02668" lon="5.52206">
        <ele>1121.8000488281</ele>
        <time>2022-05-26T09:49:49.000Z</time>
      </trkpt>
      <trkpt lat="45.02667" lon="5.52204">
        <ele>1121.8000488281</ele>
        <time>2022-05-26T09:49:50.000Z</time>
      </trkpt>
      <trkpt lat="45.02667" lon="5.52204">
        <ele>1121.8000488281</ele>
        <time>2022-05-26T09:49:51.000Z</time>
      </trkpt>
      <trkpt lat="45.02665" lon="5.52202">
        <ele>1122</ele>
        <time>2022-05-26T09:49:52.000Z</time>
      </trkpt>
      <trkpt lat="45.02664" lon="5.52201">
        <ele>1122</ele>
        <time>2022-05-26T09:49:54.000Z</time>
      </trkpt>
      <trkpt lat="45.02661" lon="5.52197">
        <ele>1122.1999511719</ele>
        <time>2022-05-26T09:49:58.000Z</time>
      </trkpt>
      <trkpt lat="45.02659" lon="5.52194">
        <ele>1122.4000244141</ele>
        <time>2022-05-26T09:50:02.000Z</time>
      </trkpt>
      <trkpt lat="45.02656" lon="5.52192">
        <ele>1122.4000244141</ele>
        <time>2022-05-26T09:50:05.000Z</time>
      </trkpt>
      <trkpt lat="45.02651" lon="5.52189">
        <ele>1123</ele>
        <time>2022-05-26T09:50:10.000Z</time>
      </trkpt>
      <trkpt lat="45.02649" lon="5.52189">
        <ele>1123.1999511719</ele>
        <time>2022-05-26T09:50:11.000Z</time>
      </trkpt>
      <trkpt lat="45.02641" lon="5.52181">
        <ele>1123.8000488281</ele>
        <time>2022-05-26T09:50:19.000Z</time>
      </trkpt>
      <trkpt lat="45.0264" lon="5.52179">
        <ele>1123.8000488281</ele>
        <time>2022-05-26T09:50:20.000Z</time>
      </trkpt>
      <trkpt lat="45.0264" lon="5.52179">
        <ele>1123.8000488281</ele>
        <time>2022-05-26T09:50:21.000Z</time>
      </trkpt>
      <trkpt lat="45.02639" lon="5.52178">
        <ele>1123.8000488281</ele>
        <time>2022-05-26T09:50:22.000Z</time>
      </trkpt>
      <trkpt lat="45.02637" lon="5.52176">
        <ele>1124</ele>
        <time>2022-05-26T09:50:24.000Z</time>
      </trkpt>
      <trkpt lat="45.02636" lon="5.52174">
        <ele>1124</ele>
        <time>2022-05-26T09:50:26.000Z</time>
      </trkpt>
      <trkpt lat="45.02634" lon="5.52171">
        <ele>1124</ele>
        <time>2022-05-26T09:50:28.000Z</time>
      </trkpt>
      <trkpt lat="45.02631" lon="5.52168">
        <ele>1124.1999511719</ele>
        <time>2022-05-26T09:50:31.000Z</time>
      </trkpt>
      <trkpt lat="45.02629" lon="5.52166">
        <ele>1124.4000244141</ele>
        <time>2022-05-26T09:50:32.000Z</time>
      </trkpt>
      <trkpt lat="45.02625" lon="5.5216">
        <ele>1124.4000244141</ele>
        <time>2022-05-26T09:50:38.000Z</time>
      </trkpt>
      <trkpt lat="45.02623" lon="5.52157">
        <ele>1124.4000244141</ele>
        <time>2022-05-26T09:50:40.000Z</time>
      </trkpt>
      <trkpt lat="45.02621" lon="5.52155">
        <ele>1124.4000244141</ele>
        <time>2022-05-26T09:50:42.000Z</time>
      </trkpt>
      <trkpt lat="45.02618" lon="5.52152">
        <ele>1124.8000488281</ele>
        <time>2022-05-26T09:50:45.000Z</time>
      </trkpt>
      <trkpt lat="45.02608" lon="5.52143">
        <ele>1125.5999755859</ele>
        <time>2022-05-26T09:50:55.000Z</time>
      </trkpt>
      <trkpt lat="45.02592" lon="5.52131">
        <ele>1128</ele>
        <time>2022-05-26T09:51:11.000Z</time>
      </trkpt>
      <trkpt lat="45.02588" lon="5.52126">
        <ele>1128.5999755859</ele>
        <time>2022-05-26T09:51:16.000Z</time>
      </trkpt>
      <trkpt lat="45.02584" lon="5.5212">
        <ele>1129</ele>
        <time>2022-05-26T09:51:22.000Z</time>
      </trkpt>
      <trkpt lat="45.02574" lon="5.52099">
        <ele>1130.5999755859</ele>
        <time>2022-05-26T09:51:37.000Z</time>
      </trkpt>
      <trkpt lat="45.02577" lon="5.52091">
        <ele>1129.5999755859</ele>
        <time>2022-05-26T09:51:42.000Z</time>
      </trkpt>
      <trkpt lat="45.0259" lon="5.5208">
        <ele>1125.8000488281</ele>
        <time>2022-05-26T09:51:56.000Z</time>
      </trkpt>
      <trkpt lat="45.02604" lon="5.52063">
        <ele>1122.8000488281</ele>
        <time>2022-05-26T09:52:10.000Z</time>
      </trkpt>
      <trkpt lat="45.02606" lon="5.52058">
        <ele>1122.8000488281</ele>
        <time>2022-05-26T09:52:13.000Z</time>
      </trkpt>
      <trkpt lat="45.02606" lon="5.52056">
        <ele>1123</ele>
        <time>2022-05-26T09:52:14.000Z</time>
      </trkpt>
      <trkpt lat="45.02606" lon="5.5205">
        <ele>1122.8000488281</ele>
        <time>2022-05-26T09:52:17.000Z</time>
      </trkpt>
      <trkpt lat="45.02605" lon="5.52046">
        <ele>1123</ele>
        <time>2022-05-26T09:52:19.000Z</time>
      </trkpt>
      <trkpt lat="45.02604" lon="5.52042">
        <ele>1123.1999511719</ele>
        <time>2022-05-26T09:52:25.000Z</time>
      </trkpt>
      <trkpt lat="45.02601" lon="5.52034">
        <ele>1123.5999755859</ele>
        <time>2022-05-26T09:52:41.000Z</time>
      </trkpt>
      <trkpt lat="45.02595" lon="5.52031">
        <ele>1124.4000244141</ele>
        <time>2022-05-26T09:52:55.000Z</time>
      </trkpt>
      <trkpt lat="45.02594" lon="5.5203">
        <ele>1124.5999755859</ele>
        <time>2022-05-26T09:52:57.000Z</time>
      </trkpt>
      <trkpt lat="45.02594" lon="5.5203">
        <ele>1124.5999755859</ele>
        <time>2022-05-26T09:52:58.000Z</time>
      </trkpt>
      <trkpt lat="45.02594" lon="5.5203">
        <ele>1124.5999755859</ele>
        <time>2022-05-26T09:52:59.000Z</time>
      </trkpt>
      <trkpt lat="45.02594" lon="5.52029">
        <ele>1124.5999755859</ele>
        <time>2022-05-26T09:53:00.000Z</time>
      </trkpt>
      <trkpt lat="45.02592" lon="5.52027">
        <ele>1124.5999755859</ele>
        <time>2022-05-26T09:53:01.000Z</time>
      </trkpt>
      <trkpt lat="45.02592" lon="5.52025">
        <ele>1124.5999755859</ele>
        <time>2022-05-26T09:53:03.000Z</time>
      </trkpt>
      <trkpt lat="45.02591" lon="5.52023">
        <ele>1124.5999755859</ele>
        <time>2022-05-26T09:53:05.000Z</time>
      </trkpt>
      <trkpt lat="45.02589" lon="5.5202">
        <ele>1124.8000488281</ele>
        <time>2022-05-26T09:53:08.000Z</time>
      </trkpt>
      <trkpt lat="45.02589" lon="5.52016">
        <ele>1124.5999755859</ele>
        <time>2022-05-26T09:53:11.000Z</time>
      </trkpt>
      <trkpt lat="45.02587" lon="5.52013">
        <ele>1124.8000488281</ele>
        <time>2022-05-26T09:53:14.000Z</time>
      </trkpt>
      <trkpt lat="45.02587" lon="5.52007">
        <ele>1124.8000488281</ele>
        <time>2022-05-26T09:53:20.000Z</time>
      </trkpt>
      <trkpt lat="45.02584" lon="5.52001">
        <ele>1125</ele>
        <time>2022-05-26T09:53:25.000Z</time>
      </trkpt>
      <trkpt lat="45.02582" lon="5.51997">
        <ele>1125.1999511719</ele>
        <time>2022-05-26T09:53:28.000Z</time>
      </trkpt>
      <trkpt lat="45.02578" lon="5.51992">
        <ele>1125.4000244141</ele>
        <time>2022-05-26T09:53:34.000Z</time>
      </trkpt>
      <trkpt lat="45.02569" lon="5.51987">
        <ele>1126.1999511719</ele>
        <time>2022-05-26T09:53:44.000Z</time>
      </trkpt>
      <trkpt lat="45.02568" lon="5.51987">
        <ele>1126.1999511719</ele>
        <time>2022-05-26T09:53:45.000Z</time>
      </trkpt>
      <trkpt lat="45.02561" lon="5.51985">
        <ele>1127</ele>
        <time>2022-05-26T09:53:52.000Z</time>
      </trkpt>
      <trkpt lat="45.02557" lon="5.51983">
        <ele>1127.4000244141</ele>
        <time>2022-05-26T09:53:59.000Z</time>
      </trkpt>
      <trkpt lat="45.02553" lon="5.51979">
        <ele>1128</ele>
        <time>2022-05-26T09:54:05.000Z</time>
      </trkpt>
      <trkpt lat="45.02551" lon="5.51976">
        <ele>1128.1999511719</ele>
        <time>2022-05-26T09:54:06.000Z</time>
      </trkpt>
      <trkpt lat="45.02549" lon="5.51973">
        <ele>1128.1999511719</ele>
        <time>2022-05-26T09:54:09.000Z</time>
      </trkpt>
      <trkpt lat="45.02549" lon="5.51972">
        <ele>1128.4000244141</ele>
        <time>2022-05-26T09:54:10.000Z</time>
      </trkpt>
      <trkpt lat="45.02545" lon="5.5197">
        <ele>1128.5999755859</ele>
        <time>2022-05-26T09:54:15.000Z</time>
      </trkpt>
      <trkpt lat="45.02544" lon="5.5197">
        <ele>1128.8000488281</ele>
        <time>2022-05-26T09:54:17.000Z</time>
      </trkpt>
      <trkpt lat="45.02531" lon="5.51962">
        <ele>1131.5999755859</ele>
        <time>2022-05-26T09:54:29.000Z</time>
      </trkpt>
      <trkpt lat="45.02528" lon="5.51962">
        <ele>1132.1999511719</ele>
        <time>2022-05-26T09:54:34.000Z</time>
      </trkpt>
      <trkpt lat="45.02528" lon="5.51963">
        <ele>1132.1999511719</ele>
        <time>2022-05-26T09:54:38.000Z</time>
      </trkpt>
      <trkpt lat="45.02528" lon="5.51964">
        <ele>1132</ele>
        <time>2022-05-26T09:54:44.000Z</time>
      </trkpt>
      <trkpt lat="45.02529" lon="5.51963">
        <ele>1131.8000488281</ele>
        <time>2022-05-26T09:54:55.000Z</time>
      </trkpt>
      <trkpt lat="45.02528" lon="5.51961">
        <ele>1132</ele>
        <time>2022-05-26T09:54:59.000Z</time>
      </trkpt>
      <trkpt lat="45.02528" lon="5.51961">
        <ele>1132</ele>
        <time>2022-05-26T09:55:00.000Z</time>
      </trkpt>
      <trkpt lat="45.02532" lon="5.5196">
        <ele>1131.4000244141</ele>
        <time>2022-05-26T09:55:07.000Z</time>
      </trkpt>
      <trkpt lat="45.02531" lon="5.5196">
        <ele>1131.5999755859</ele>
        <time>2022-05-26T09:55:10.000Z</time>
      </trkpt>
      <trkpt lat="45.02524" lon="5.51951">
        <ele>1133</ele>
        <time>2022-05-26T09:55:21.000Z</time>
      </trkpt>
      <trkpt lat="45.02521" lon="5.51946">
        <ele>1133.5999755859</ele>
        <time>2022-05-26T09:55:25.000Z</time>
      </trkpt>
      <trkpt lat="45.02521" lon="5.51944">
        <ele>1133.8000488281</ele>
        <time>2022-05-26T09:55:26.000Z</time>
      </trkpt>
      <trkpt lat="45.02515" lon="5.51934">
        <ele>1135.1999511719</ele>
        <time>2022-05-26T09:55:34.000Z</time>
      </trkpt>
      <trkpt lat="45.02513" lon="5.51928">
        <ele>1136.1999511719</ele>
        <time>2022-05-26T09:55:39.000Z</time>
      </trkpt>
      <trkpt lat="45.0251" lon="5.51924">
        <ele>1137</ele>
        <time>2022-05-26T09:55:44.000Z</time>
      </trkpt>
      <trkpt lat="45.02509" lon="5.51921">
        <ele>1137.1999511719</ele>
        <time>2022-05-26T09:55:45.000Z</time>
      </trkpt>
      <trkpt lat="45.02509" lon="5.51921">
        <ele>1137.1999511719</ele>
        <time>2022-05-26T09:55:46.000Z</time>
      </trkpt>
      <trkpt lat="45.02508" lon="5.51918">
        <ele>1137.5999755859</ele>
        <time>2022-05-26T09:55:48.000Z</time>
      </trkpt>
      <trkpt lat="45.02506" lon="5.51912">
        <ele>1138</ele>
        <time>2022-05-26T09:55:53.000Z</time>
      </trkpt>
      <trkpt lat="45.02504" lon="5.51898">
        <ele>1138.5999755859</ele>
        <time>2022-05-26T09:56:05.000Z</time>
      </trkpt>
      <trkpt lat="45.02497" lon="5.51881">
        <ele>1140.1999511719</ele>
        <time>2022-05-26T09:56:22.000Z</time>
      </trkpt>
      <trkpt lat="45.02492" lon="5.51875">
        <ele>1141</ele>
        <time>2022-05-26T09:56:29.000Z</time>
      </trkpt>
      <trkpt lat="45.02488" lon="5.51869">
        <ele>1141.8000488281</ele>
        <time>2022-05-26T09:56:38.000Z</time>
      </trkpt>
      <trkpt lat="45.02487" lon="5.51867">
        <ele>1142</ele>
        <time>2022-05-26T09:56:40.000Z</time>
      </trkpt>
      <trkpt lat="45.02482" lon="5.51864">
        <ele>1142.1999511719</ele>
        <time>2022-05-26T09:56:45.000Z</time>
      </trkpt>
      <trkpt lat="45.02474" lon="5.51861">
        <ele>1142.4000244141</ele>
        <time>2022-05-26T09:56:53.000Z</time>
      </trkpt>
      <trkpt lat="45.02462" lon="5.51846">
        <ele>1142.4000244141</ele>
        <time>2022-05-26T09:57:07.000Z</time>
      </trkpt>
      <trkpt lat="45.02456" lon="5.51836">
        <ele>1142.4000244141</ele>
        <time>2022-05-26T09:57:17.000Z</time>
      </trkpt>
      <trkpt lat="45.02452" lon="5.51829">
        <ele>1142.4000244141</ele>
        <time>2022-05-26T09:57:23.000Z</time>
      </trkpt>
      <trkpt lat="45.02451" lon="5.51826">
        <ele>1142.1999511719</ele>
        <time>2022-05-26T09:57:24.000Z</time>
      </trkpt>
      <trkpt lat="45.02451" lon="5.51826">
        <ele>1142.1999511719</ele>
        <time>2022-05-26T09:57:25.000Z</time>
      </trkpt>
      <trkpt lat="45.02451" lon="5.51824">
        <ele>1142.4000244141</ele>
        <time>2022-05-26T09:57:26.000Z</time>
      </trkpt>
      <trkpt lat="45.02449" lon="5.51797">
        <ele>1143.4000244141</ele>
        <time>2022-05-26T09:57:42.000Z</time>
      </trkpt>
      <trkpt lat="45.0245" lon="5.51785">
        <ele>1144.1999511719</ele>
        <time>2022-05-26T09:57:50.000Z</time>
      </trkpt>
      <trkpt lat="45.02461" lon="5.51765">
        <ele>1146</ele>
        <time>2022-05-26T09:58:05.000Z</time>
      </trkpt>
      <trkpt lat="45.02463" lon="5.51761">
        <ele>1146</ele>
        <time>2022-05-26T09:58:06.000Z</time>
      </trkpt>
      <trkpt lat="45.02463" lon="5.51756">
        <ele>1146.4000244141</ele>
        <time>2022-05-26T09:58:14.000Z</time>
      </trkpt>
      <trkpt lat="45.02466" lon="5.51757">
        <ele>1146.1999511719</ele>
        <time>2022-05-26T09:59:16.000Z</time>
      </trkpt>
      <trkpt lat="45.02467" lon="5.51754">
        <ele>1146.8000488281</ele>
        <time>2022-05-26T10:00:05.000Z</time>
      </trkpt>
      <trkpt lat="45.02467" lon="5.51751">
        <ele>1147.1999511719</ele>
        <time>2022-05-26T10:00:12.000Z</time>
      </trkpt>
      <trkpt lat="45.02467" lon="5.5175">
        <ele>1147.4000244141</ele>
        <time>2022-05-26T10:00:15.000Z</time>
      </trkpt>
      <trkpt lat="45.02468" lon="5.51752">
        <ele>1147</ele>
        <time>2022-05-26T10:00:18.000Z</time>
      </trkpt>
      <trkpt lat="45.0247" lon="5.51755">
        <ele>1146.8000488281</ele>
        <time>2022-05-26T10:00:20.000Z</time>
      </trkpt>
      <trkpt lat="45.02473" lon="5.5176">
        <ele>1146.1999511719</ele>
        <time>2022-05-26T10:00:26.000Z</time>
      </trkpt>
      <trkpt lat="45.0247" lon="5.51757">
        <ele>1146.4000244141</ele>
        <time>2022-05-26T10:00:34.000Z</time>
      </trkpt>
      <trkpt lat="45.02469" lon="5.51757">
        <ele>1146.4000244141</ele>
        <time>2022-05-26T10:00:37.000Z</time>
      </trkpt>
      <trkpt lat="45.02468" lon="5.51756">
        <ele>1146.5999755859</ele>
        <time>2022-05-26T10:00:39.000Z</time>
      </trkpt>
      <trkpt lat="45.02463" lon="5.51754">
        <ele>1146.5999755859</ele>
        <time>2022-05-26T10:00:51.000Z</time>
      </trkpt>
      <trkpt lat="45.02461" lon="5.51754">
        <ele>1146.5999755859</ele>
        <time>2022-05-26T10:00:55.000Z</time>
      </trkpt>
      <trkpt lat="45.0246" lon="5.51753">
        <ele>1146.8000488281</ele>
        <time>2022-05-26T10:00:59.000Z</time>
      </trkpt>
      <trkpt lat="45.0246" lon="5.51753">
        <ele>1146.8000488281</ele>
        <time>2022-05-26T10:01:01.000Z</time>
      </trkpt>
      <trkpt lat="45.0246" lon="5.51755">
        <ele>1146.5999755859</ele>
        <time>2022-05-26T10:01:12.000Z</time>
      </trkpt>
      <trkpt lat="45.0246" lon="5.51755">
        <ele>1146.5999755859</ele>
        <time>2022-05-26T10:01:25.000Z</time>
      </trkpt>
      <trkpt lat="45.02465" lon="5.51757">
        <ele>1146.4000244141</ele>
        <time>2022-05-26T10:02:20.000Z</time>
      </trkpt>
      <trkpt lat="45.02464" lon="5.51757">
        <ele>1146.4000244141</ele>
        <time>2022-05-26T10:02:21.000Z</time>
      </trkpt>
      <trkpt lat="45.02464" lon="5.51758">
        <ele>1146.1999511719</ele>
        <time>2022-05-26T10:02:24.000Z</time>
      </trkpt>
      <trkpt lat="45.02464" lon="5.51757">
        <ele>1146.4000244141</ele>
        <time>2022-05-26T10:02:25.000Z</time>
      </trkpt>
      <trkpt lat="45.02464" lon="5.51757">
        <ele>1146.4000244141</ele>
        <time>2022-05-26T10:02:26.000Z</time>
      </trkpt>
      <trkpt lat="45.02465" lon="5.51757">
        <ele>1146.4000244141</ele>
        <time>2022-05-26T10:02:27.000Z</time>
      </trkpt>
      <trkpt lat="45.02465" lon="5.51757">
        <ele>1146.4000244141</ele>
        <time>2022-05-26T10:02:28.000Z</time>
      </trkpt>
      <trkpt lat="45.02465" lon="5.51757">
        <ele>1146.4000244141</ele>
        <time>2022-05-26T10:02:29.000Z</time>
      </trkpt>
      <trkpt lat="45.02465" lon="5.51757">
        <ele>1146.1999511719</ele>
        <time>2022-05-26T10:02:35.000Z</time>
      </trkpt>
      <trkpt lat="45.02466" lon="5.51757">
        <ele>1146.1999511719</ele>
        <time>2022-05-26T10:02:41.000Z</time>
      </trkpt>
      <trkpt lat="45.02466" lon="5.51756">
        <ele>1146.4000244141</ele>
        <time>2022-05-26T10:02:52.000Z</time>
      </trkpt>
      <trkpt lat="45.02466" lon="5.51757">
        <ele>1146.4000244141</ele>
        <time>2022-05-26T10:02:53.000Z</time>
      </trkpt>
      <trkpt lat="45.02466" lon="5.51757">
        <ele>1146.4000244141</ele>
        <time>2022-05-26T10:02:54.000Z</time>
      </trkpt>
      <trkpt lat="45.02465" lon="5.5176">
        <ele>1146</ele>
        <time>2022-05-26T10:03:21.000Z</time>
      </trkpt>
      <trkpt lat="45.02465" lon="5.51759">
        <ele>1146.1999511719</ele>
        <time>2022-05-26T10:03:39.000Z</time>
      </trkpt>
      <trkpt lat="45.02466" lon="5.51761">
        <ele>1146</ele>
        <time>2022-05-26T10:03:41.000Z</time>
      </trkpt>
      <trkpt lat="45.02467" lon="5.51762">
        <ele>1145.8000488281</ele>
        <time>2022-05-26T10:03:45.000Z</time>
      </trkpt>
      <trkpt lat="45.02464" lon="5.5176">
        <ele>1146.1999511719</ele>
        <time>2022-05-26T10:04:14.000Z</time>
      </trkpt>
      <trkpt lat="45.02464" lon="5.5176">
        <ele>1146.1999511719</ele>
        <time>2022-05-26T10:04:18.000Z</time>
      </trkpt>
      <trkpt lat="45.02465" lon="5.51759">
        <ele>1146.1999511719</ele>
        <time>2022-05-26T10:04:27.000Z</time>
      </trkpt>
      <trkpt lat="45.02465" lon="5.51758">
        <ele>1146.1999511719</ele>
        <time>2022-05-26T10:04:29.000Z</time>
      </trkpt>
      <trkpt lat="45.02469" lon="5.51761">
        <ele>1146</ele>
        <time>2022-05-26T10:04:36.000Z</time>
      </trkpt>
      <trkpt lat="45.02469" lon="5.51762">
        <ele>1145.8000488281</ele>
        <time>2022-05-26T10:04:49.000Z</time>
      </trkpt>
      <trkpt lat="45.02468" lon="5.51762">
        <ele>1145.8000488281</ele>
        <time>2022-05-26T10:04:50.000Z</time>
      </trkpt>
      <trkpt lat="45.02468" lon="5.51761">
        <ele>1146</ele>
        <time>2022-05-26T10:05:03.000Z</time>
      </trkpt>
      <trkpt lat="45.02469" lon="5.51761">
        <ele>1145.8000488281</ele>
        <time>2022-05-26T10:05:19.000Z</time>
      </trkpt>
      <trkpt lat="45.02472" lon="5.51761">
        <ele>1146</ele>
        <time>2022-05-26T10:05:48.000Z</time>
      </trkpt>
      <trkpt lat="45.02472" lon="5.51763">
        <ele>1145.5999755859</ele>
        <time>2022-05-26T10:06:01.000Z</time>
      </trkpt>
      <trkpt lat="45.02466" lon="5.51762">
        <ele>1146</ele>
        <time>2022-05-26T10:06:36.000Z</time>
      </trkpt>
      <trkpt lat="45.02471" lon="5.51763">
        <ele>1145.5999755859</ele>
        <time>2022-05-26T10:07:06.000Z</time>
      </trkpt>
      <trkpt lat="45.0247" lon="5.51763">
        <ele>1145.5999755859</ele>
        <time>2022-05-26T10:07:14.000Z</time>
      </trkpt>
      <trkpt lat="45.0247" lon="5.51763">
        <ele>1145.5999755859</ele>
        <time>2022-05-26T10:07:15.000Z</time>
      </trkpt>
      <trkpt lat="45.0247" lon="5.51764">
        <ele>1145.5999755859</ele>
        <time>2022-05-26T10:07:16.000Z</time>
      </trkpt>
      <trkpt lat="45.0247" lon="5.51764">
        <ele>1145.5999755859</ele>
        <time>2022-05-26T10:07:17.000Z</time>
      </trkpt>
      <trkpt lat="45.0247" lon="5.51764">
        <ele>1145.5999755859</ele>
        <time>2022-05-26T10:07:18.000Z</time>
      </trkpt>
      <trkpt lat="45.0247" lon="5.51765">
        <ele>1145.5999755859</ele>
        <time>2022-05-26T10:07:21.000Z</time>
      </trkpt>
      <trkpt lat="45.02469" lon="5.51765">
        <ele>1145.5999755859</ele>
        <time>2022-05-26T10:07:24.000Z</time>
      </trkpt>
      <trkpt lat="45.02471" lon="5.51762">
        <ele>1145.8000488281</ele>
        <time>2022-05-26T10:07:30.000Z</time>
      </trkpt>
      <trkpt lat="45.02471" lon="5.51762">
        <ele>1145.8000488281</ele>
        <time>2022-05-26T10:07:33.000Z</time>
      </trkpt>
      <trkpt lat="45.02469" lon="5.51761">
        <ele>1146</ele>
        <time>2022-05-26T10:07:35.000Z</time>
      </trkpt>
      <trkpt lat="45.02469" lon="5.5176">
        <ele>1146</ele>
        <time>2022-05-26T10:07:36.000Z</time>
      </trkpt>
      <trkpt lat="45.02469" lon="5.5176">
        <ele>1146</ele>
        <time>2022-05-26T10:07:38.000Z</time>
      </trkpt>
      <trkpt lat="45.02469" lon="5.5176">
        <ele>1146</ele>
        <time>2022-05-26T10:07:39.000Z</time>
      </trkpt>
      <trkpt lat="45.02468" lon="5.5176">
        <ele>1146</ele>
        <time>2022-05-26T10:07:41.000Z</time>
      </trkpt>
      <trkpt lat="45.02468" lon="5.5176">
        <ele>1146</ele>
        <time>2022-05-26T10:07:42.000Z</time>
      </trkpt>
      <trkpt lat="45.02468" lon="5.5176">
        <ele>1146</ele>
        <time>2022-05-26T10:07:43.000Z</time>
      </trkpt>
      <trkpt lat="45.02469" lon="5.51759">
        <ele>1146.1999511719</ele>
        <time>2022-05-26T10:07:45.000Z</time>
      </trkpt>
      <trkpt lat="45.0247" lon="5.51759">
        <ele>1146</ele>
        <time>2022-05-26T10:07:48.000Z</time>
      </trkpt>
      <trkpt lat="45.02469" lon="5.51761">
        <ele>1146</ele>
        <time>2022-05-26T10:07:58.000Z</time>
      </trkpt>
      <trkpt lat="45.02469" lon="5.5176">
        <ele>1146</ele>
        <time>2022-05-26T10:08:05.000Z</time>
      </trkpt>
      <trkpt lat="45.02467" lon="5.51758">
        <ele>1146.1999511719</ele>
        <time>2022-05-26T10:08:24.000Z</time>
      </trkpt>
      <trkpt lat="45.02467" lon="5.51757">
        <ele>1146.1999511719</ele>
        <time>2022-05-26T10:08:29.000Z</time>
      </trkpt>
      <trkpt lat="45.02466" lon="5.51758">
        <ele>1146.1999511719</ele>
        <time>2022-05-26T10:08:30.000Z</time>
      </trkpt>
      <trkpt lat="45.02466" lon="5.51758">
        <ele>1146.1999511719</ele>
        <time>2022-05-26T10:08:31.000Z</time>
      </trkpt>
      <trkpt lat="45.02466" lon="5.51757">
        <ele>1146.1999511719</ele>
        <time>2022-05-26T10:08:35.000Z</time>
      </trkpt>
      <trkpt lat="45.02467" lon="5.51754">
        <ele>1146.8000488281</ele>
        <time>2022-05-26T10:08:58.000Z</time>
      </trkpt>
      <trkpt lat="45.02467" lon="5.5176">
        <ele>1146</ele>
        <time>2022-05-26T10:09:56.000Z</time>
      </trkpt>
      <trkpt lat="45.02466" lon="5.5176">
        <ele>1146</ele>
        <time>2022-05-26T10:09:58.000Z</time>
      </trkpt>
      <trkpt lat="45.02466" lon="5.5176">
        <ele>1146</ele>
        <time>2022-05-26T10:09:59.000Z</time>
      </trkpt>
      <trkpt lat="45.02467" lon="5.51762">
        <ele>1146</ele>
        <time>2022-05-26T10:10:09.000Z</time>
      </trkpt>
      <trkpt lat="45.02468" lon="5.51762">
        <ele>1145.8000488281</ele>
        <time>2022-05-26T10:10:11.000Z</time>
      </trkpt>
      <trkpt lat="45.02468" lon="5.51761">
        <ele>1145.8000488281</ele>
        <time>2022-05-26T10:10:13.000Z</time>
      </trkpt>
      <trkpt lat="45.02468" lon="5.51761">
        <ele>1146</ele>
        <time>2022-05-26T10:10:15.000Z</time>
      </trkpt>
      <trkpt lat="45.02468" lon="5.51761">
        <ele>1145.8000488281</ele>
        <time>2022-05-26T10:10:16.000Z</time>
      </trkpt>
      <trkpt lat="45.02468" lon="5.51761">
        <ele>1145.8000488281</ele>
        <time>2022-05-26T10:10:17.000Z</time>
      </trkpt>
      <trkpt lat="45.02467" lon="5.51761">
        <ele>1146</ele>
        <time>2022-05-26T10:10:21.000Z</time>
      </trkpt>
      <trkpt lat="45.02467" lon="5.5176">
        <ele>1146</ele>
        <time>2022-05-26T10:10:23.000Z</time>
      </trkpt>
      <trkpt lat="45.02466" lon="5.51759">
        <ele>1146.1999511719</ele>
        <time>2022-05-26T10:10:26.000Z</time>
      </trkpt>
      <trkpt lat="45.02466" lon="5.51758">
        <ele>1146.1999511719</ele>
        <time>2022-05-26T10:10:28.000Z</time>
      </trkpt>
      <trkpt lat="45.02466" lon="5.51758">
        <ele>1146.1999511719</ele>
        <time>2022-05-26T10:10:31.000Z</time>
      </trkpt>
      <trkpt lat="45.02466" lon="5.51757">
        <ele>1146.4000244141</ele>
        <time>2022-05-26T10:10:34.000Z</time>
      </trkpt>
      <trkpt lat="45.02466" lon="5.51757">
        <ele>1146.4000244141</ele>
        <time>2022-05-26T10:10:47.000Z</time>
      </trkpt>
      <trkpt lat="45.02466" lon="5.51756">
        <ele>1146.4000244141</ele>
        <time>2022-05-26T10:10:55.000Z</time>
      </trkpt>
      <trkpt lat="45.02465" lon="5.51756">
        <ele>1146.4000244141</ele>
        <time>2022-05-26T10:11:21.000Z</time>
      </trkpt>
      <trkpt lat="45.02464" lon="5.51757">
        <ele>1146.4000244141</ele>
        <time>2022-05-26T10:11:28.000Z</time>
      </trkpt>
      <trkpt lat="45.0246" lon="5.51755">
        <ele>1146.5999755859</ele>
        <time>2022-05-26T10:11:34.000Z</time>
      </trkpt>
      <trkpt lat="45.02457" lon="5.51756">
        <ele>1146.4000244141</ele>
        <time>2022-05-26T10:11:37.000Z</time>
      </trkpt>
      <trkpt lat="45.02452" lon="5.51754">
        <ele>1146.1999511719</ele>
        <time>2022-05-26T10:11:43.000Z</time>
      </trkpt>
      <trkpt lat="45.0245" lon="5.51753">
        <ele>1146.1999511719</ele>
        <time>2022-05-26T10:11:45.000Z</time>
      </trkpt>
      <trkpt lat="45.02449" lon="5.51752">
        <ele>1146.1999511719</ele>
        <time>2022-05-26T10:11:46.000Z</time>
      </trkpt>
      <trkpt lat="45.02447" lon="5.51751">
        <ele>1146</ele>
        <time>2022-05-26T10:11:48.000Z</time>
      </trkpt>
      <trkpt lat="45.02445" lon="5.5175">
        <ele>1146</ele>
        <time>2022-05-26T10:11:49.000Z</time>
      </trkpt>
      <trkpt lat="45.02445" lon="5.5175">
        <ele>1146</ele>
        <time>2022-05-26T10:11:50.000Z</time>
      </trkpt>
      <trkpt lat="45.02442" lon="5.51747">
        <ele>1146.1999511719</ele>
        <time>2022-05-26T10:11:54.000Z</time>
      </trkpt>
      <trkpt lat="45.02436" lon="5.51745">
        <ele>1146</ele>
        <time>2022-05-26T10:11:59.000Z</time>
      </trkpt>
      <trkpt lat="45.0242" lon="5.51737">
        <ele>1146</ele>
        <time>2022-05-26T10:12:14.000Z</time>
      </trkpt>
      <trkpt lat="45.02401" lon="5.51736">
        <ele>1145.5999755859</ele>
        <time>2022-05-26T10:12:29.000Z</time>
      </trkpt>
      <trkpt lat="45.02383" lon="5.51737">
        <ele>1147.1999511719</ele>
        <time>2022-05-26T10:12:45.000Z</time>
      </trkpt>
      <trkpt lat="45.0238" lon="5.51737">
        <ele>1147.4000244141</ele>
        <time>2022-05-26T10:12:47.000Z</time>
      </trkpt>
      <trkpt lat="45.02377" lon="5.51737">
        <ele>1147.8000488281</ele>
        <time>2022-05-26T10:12:50.000Z</time>
      </trkpt>
      <trkpt lat="45.02374" lon="5.51736">
        <ele>1148.1999511719</ele>
        <time>2022-05-26T10:12:52.000Z</time>
      </trkpt>
      <trkpt lat="45.02371" lon="5.51736">
        <ele>1148.5999755859</ele>
        <time>2022-05-26T10:12:54.000Z</time>
      </trkpt>
      <trkpt lat="45.02369" lon="5.51735">
        <ele>1149</ele>
        <time>2022-05-26T10:12:56.000Z</time>
      </trkpt>
      <trkpt lat="45.0235" lon="5.51742">
        <ele>1151.1999511719</ele>
        <time>2022-05-26T10:13:08.000Z</time>
      </trkpt>
      <trkpt lat="45.02332" lon="5.51745">
        <ele>1152.8000488281</ele>
        <time>2022-05-26T10:13:23.000Z</time>
      </trkpt>
      <trkpt lat="45.02314" lon="5.51741">
        <ele>1154.8000488281</ele>
        <time>2022-05-26T10:13:41.000Z</time>
      </trkpt>
      <trkpt lat="45.02313" lon="5.51741">
        <ele>1154.8000488281</ele>
        <time>2022-05-26T10:13:43.000Z</time>
      </trkpt>
      <trkpt lat="45.02309" lon="5.51739">
        <ele>1155.1999511719</ele>
        <time>2022-05-26T10:13:47.000Z</time>
      </trkpt>
      <trkpt lat="45.02306" lon="5.51737">
        <ele>1155.5999755859</ele>
        <time>2022-05-26T10:13:50.000Z</time>
      </trkpt>
      <trkpt lat="45.02303" lon="5.51736">
        <ele>1156</ele>
        <time>2022-05-26T10:13:52.000Z</time>
      </trkpt>
      <trkpt lat="45.02301" lon="5.51734">
        <ele>1156.1999511719</ele>
        <time>2022-05-26T10:13:55.000Z</time>
      </trkpt>
      <trkpt lat="45.02293" lon="5.5173">
        <ele>1157.1999511719</ele>
        <time>2022-05-26T10:14:01.000Z</time>
      </trkpt>
      <trkpt lat="45.0229" lon="5.51727">
        <ele>1157.4000244141</ele>
        <time>2022-05-26T10:14:05.000Z</time>
      </trkpt>
      <trkpt lat="45.02273" lon="5.51719">
        <ele>1158.4000244141</ele>
        <time>2022-05-26T10:14:19.000Z</time>
      </trkpt>
      <trkpt lat="45.02255" lon="5.51717">
        <ele>1158.1999511719</ele>
        <time>2022-05-26T10:14:34.000Z</time>
      </trkpt>
      <trkpt lat="45.02251" lon="5.51719">
        <ele>1157.4000244141</ele>
        <time>2022-05-26T10:14:37.000Z</time>
      </trkpt>
      <trkpt lat="45.02233" lon="5.51717">
        <ele>1155.4000244141</ele>
        <time>2022-05-26T10:14:52.000Z</time>
      </trkpt>
      <trkpt lat="45.02215" lon="5.51707">
        <ele>1156</ele>
        <time>2022-05-26T10:15:07.000Z</time>
      </trkpt>
      <trkpt lat="45.02198" lon="5.51696">
        <ele>1157</ele>
        <time>2022-05-26T10:15:20.000Z</time>
      </trkpt>
      <trkpt lat="45.02185" lon="5.51686">
        <ele>1157.4000244141</ele>
        <time>2022-05-26T10:15:34.000Z</time>
      </trkpt>
      <trkpt lat="45.02174" lon="5.51677">
        <ele>1157.4000244141</ele>
        <time>2022-05-26T10:15:44.000Z</time>
      </trkpt>
      <trkpt lat="45.02156" lon="5.5167">
        <ele>1157</ele>
        <time>2022-05-26T10:15:58.000Z</time>
      </trkpt>
      <trkpt lat="45.02138" lon="5.51665">
        <ele>1157.1999511719</ele>
        <time>2022-05-26T10:16:14.000Z</time>
      </trkpt>
      <trkpt lat="45.0212" lon="5.51657">
        <ele>1158</ele>
        <time>2022-05-26T10:16:30.000Z</time>
      </trkpt>
      <trkpt lat="45.02104" lon="5.51643">
        <ele>1159.5999755859</ele>
        <time>2022-05-26T10:16:44.000Z</time>
      </trkpt>
      <trkpt lat="45.02092" lon="5.51623">
        <ele>1161.5999755859</ele>
        <time>2022-05-26T10:16:58.000Z</time>
      </trkpt>
      <trkpt lat="45.0209" lon="5.51607">
        <ele>1162.8000488281</ele>
        <time>2022-05-26T10:17:08.000Z</time>
      </trkpt>
      <trkpt lat="45.02092" lon="5.51604">
        <ele>1162.8000488281</ele>
        <time>2022-05-26T10:17:19.000Z</time>
      </trkpt>
      <trkpt lat="45.02092" lon="5.51604">
        <ele>1162.8000488281</ele>
        <time>2022-05-26T10:17:24.000Z</time>
      </trkpt>
      <trkpt lat="45.02093" lon="5.51604">
        <ele>1162.8000488281</ele>
        <time>2022-05-26T10:17:25.000Z</time>
      </trkpt>
      <trkpt lat="45.02092" lon="5.51605">
        <ele>1162.5999755859</ele>
        <time>2022-05-26T10:17:34.000Z</time>
      </trkpt>
      <trkpt lat="45.02093" lon="5.51605">
        <ele>1162.5999755859</ele>
        <time>2022-05-26T10:17:55.000Z</time>
      </trkpt>
      <trkpt lat="45.02088" lon="5.51599">
        <ele>1163.1999511719</ele>
        <time>2022-05-26T10:18:13.000Z</time>
      </trkpt>
      <trkpt lat="45.02084" lon="5.51595">
        <ele>1163.8000488281</ele>
        <time>2022-05-26T10:18:17.000Z</time>
      </trkpt>
      <trkpt lat="45.02078" lon="5.51585">
        <ele>1164.5999755859</ele>
        <time>2022-05-26T10:18:24.000Z</time>
      </trkpt>
      <trkpt lat="45.02065" lon="5.51566">
        <ele>1165.8000488281</ele>
        <time>2022-05-26T10:18:40.000Z</time>
      </trkpt>
      <trkpt lat="45.02048" lon="5.51555">
        <ele>1166.8000488281</ele>
        <time>2022-05-26T10:18:59.000Z</time>
      </trkpt>
      <trkpt lat="45.02033" lon="5.51547">
        <ele>1167.5999755859</ele>
        <time>2022-05-26T10:19:13.000Z</time>
      </trkpt>
      <trkpt lat="45.02019" lon="5.51542">
        <ele>1168.5999755859</ele>
        <time>2022-05-26T10:19:26.000Z</time>
      </trkpt>
      <trkpt lat="45.02016" lon="5.51541">
        <ele>1169</ele>
        <time>2022-05-26T10:19:29.000Z</time>
      </trkpt>
      <trkpt lat="45.02015" lon="5.5154">
        <ele>1169</ele>
        <time>2022-05-26T10:19:30.000Z</time>
      </trkpt>
      <trkpt lat="45.02012" lon="5.5154">
        <ele>1169.1999511719</ele>
        <time>2022-05-26T10:19:31.000Z</time>
      </trkpt>
      <trkpt lat="45.02007" lon="5.51539">
        <ele>1169.5999755859</ele>
        <time>2022-05-26T10:19:37.000Z</time>
      </trkpt>
      <trkpt lat="45.02004" lon="5.51538">
        <ele>1169.8000488281</ele>
        <time>2022-05-26T10:19:39.000Z</time>
      </trkpt>
      <trkpt lat="45.01987" lon="5.51539">
        <ele>1171</ele>
        <time>2022-05-26T10:19:52.000Z</time>
      </trkpt>
      <trkpt lat="45.01968" lon="5.51537">
        <ele>1171.5999755859</ele>
        <time>2022-05-26T10:20:09.000Z</time>
      </trkpt>
      <trkpt lat="45.01956" lon="5.51539">
        <ele>1172.8000488281</ele>
        <time>2022-05-26T10:20:19.000Z</time>
      </trkpt>
      <trkpt lat="45.01948" lon="5.51537">
        <ele>1172.5999755859</ele>
        <time>2022-05-26T10:20:26.000Z</time>
      </trkpt>
      <trkpt lat="45.01948" lon="5.51536">
        <ele>1172.5999755859</ele>
        <time>2022-05-26T10:20:27.000Z</time>
      </trkpt>
      <trkpt lat="45.01946" lon="5.51536">
        <ele>1172.5999755859</ele>
        <time>2022-05-26T10:20:28.000Z</time>
      </trkpt>
      <trkpt lat="45.01927" lon="5.51535">
        <ele>1173</ele>
        <time>2022-05-26T10:20:43.000Z</time>
      </trkpt>
      <trkpt lat="45.01908" lon="5.51531">
        <ele>1174</ele>
        <time>2022-05-26T10:20:57.000Z</time>
      </trkpt>
      <trkpt lat="45.01892" lon="5.51516">
        <ele>1173.5999755859</ele>
        <time>2022-05-26T10:21:15.000Z</time>
      </trkpt>
      <trkpt lat="45.01877" lon="5.515">
        <ele>1173</ele>
        <time>2022-05-26T10:21:31.000Z</time>
      </trkpt>
      <trkpt lat="45.01867" lon="5.51489">
        <ele>1173</ele>
        <time>2022-05-26T10:21:41.000Z</time>
      </trkpt>
      <trkpt lat="45.01851" lon="5.51477">
        <ele>1173</ele>
        <time>2022-05-26T10:21:56.000Z</time>
      </trkpt>
      <trkpt lat="45.01836" lon="5.51467">
        <ele>1174.4000244141</ele>
        <time>2022-05-26T10:22:08.000Z</time>
      </trkpt>
      <trkpt lat="45.01819" lon="5.51458">
        <ele>1176.4000244141</ele>
        <time>2022-05-26T10:22:23.000Z</time>
      </trkpt>
      <trkpt lat="45.01801" lon="5.51449">
        <ele>1176.1999511719</ele>
        <time>2022-05-26T10:22:39.000Z</time>
      </trkpt>
      <trkpt lat="45.01796" lon="5.51448">
        <ele>1176</ele>
        <time>2022-05-26T10:22:44.000Z</time>
      </trkpt>
      <trkpt lat="45.01779" lon="5.5144">
        <ele>1175.4000244141</ele>
        <time>2022-05-26T10:23:01.000Z</time>
      </trkpt>
      <trkpt lat="45.0176" lon="5.51437">
        <ele>1175</ele>
        <time>2022-05-26T10:23:19.000Z</time>
      </trkpt>
      <trkpt lat="45.01742" lon="5.5143">
        <ele>1176</ele>
        <time>2022-05-26T10:23:36.000Z</time>
      </trkpt>
      <trkpt lat="45.0173" lon="5.51425">
        <ele>1177.4000244141</ele>
        <time>2022-05-26T10:23:49.000Z</time>
      </trkpt>
      <trkpt lat="45.01723" lon="5.5142">
        <ele>1178.5999755859</ele>
        <time>2022-05-26T10:23:56.000Z</time>
      </trkpt>
      <trkpt lat="45.0172" lon="5.51418">
        <ele>1179</ele>
        <time>2022-05-26T10:23:58.000Z</time>
      </trkpt>
      <trkpt lat="45.01715" lon="5.51416">
        <ele>1179.8000488281</ele>
        <time>2022-05-26T10:24:02.000Z</time>
      </trkpt>
      <trkpt lat="45.01711" lon="5.51413">
        <ele>1180</ele>
        <time>2022-05-26T10:24:06.000Z</time>
      </trkpt>
      <trkpt lat="45.01697" lon="5.51397">
        <ele>1179.4000244141</ele>
        <time>2022-05-26T10:24:24.000Z</time>
      </trkpt>
      <trkpt lat="45.01687" lon="5.51383">
        <ele>1178.5999755859</ele>
        <time>2022-05-26T10:24:39.000Z</time>
      </trkpt>
      <trkpt lat="45.01682" lon="5.51379">
        <ele>1178.4000244141</ele>
        <time>2022-05-26T10:24:46.000Z</time>
      </trkpt>
      <trkpt lat="45.01682" lon="5.51378">
        <ele>1178.4000244141</ele>
        <time>2022-05-26T10:24:47.000Z</time>
      </trkpt>
      <trkpt lat="45.01681" lon="5.51377">
        <ele>1178.1999511719</ele>
        <time>2022-05-26T10:24:48.000Z</time>
      </trkpt>
      <trkpt lat="45.01679" lon="5.51374">
        <ele>1178.1999511719</ele>
        <time>2022-05-26T10:24:50.000Z</time>
      </trkpt>
      <trkpt lat="45.01677" lon="5.51373">
        <ele>1178.1999511719</ele>
        <time>2022-05-26T10:24:53.000Z</time>
      </trkpt>
      <trkpt lat="45.01673" lon="5.51371">
        <ele>1178.5999755859</ele>
        <time>2022-05-26T10:24:57.000Z</time>
      </trkpt>
      <trkpt lat="45.01662" lon="5.5136">
        <ele>1178.8000488281</ele>
        <time>2022-05-26T10:25:09.000Z</time>
      </trkpt>
      <trkpt lat="45.0166" lon="5.51356">
        <ele>1178.1999511719</ele>
        <time>2022-05-26T10:25:13.000Z</time>
      </trkpt>
      <trkpt lat="45.01657" lon="5.51345">
        <ele>1176.5999755859</ele>
        <time>2022-05-26T10:25:17.000Z</time>
      </trkpt>
      <trkpt lat="45.01648" lon="5.5134">
        <ele>1178</ele>
        <time>2022-05-26T10:25:29.000Z</time>
      </trkpt>
      <trkpt lat="45.0164" lon="5.51335">
        <ele>1179</ele>
        <time>2022-05-26T10:25:38.000Z</time>
      </trkpt>
      <trkpt lat="45.01623" lon="5.51329">
        <ele>1183.1999511719</ele>
        <time>2022-05-26T10:25:56.000Z</time>
      </trkpt>
      <trkpt lat="45.01605" lon="5.5132">
        <ele>1187.1999511719</ele>
        <time>2022-05-26T10:26:12.000Z</time>
      </trkpt>
      <trkpt lat="45.01603" lon="5.51319">
        <ele>1187.5999755859</ele>
        <time>2022-05-26T10:26:14.000Z</time>
      </trkpt>
      <trkpt lat="45.01585" lon="5.5131">
        <ele>1190.1999511719</ele>
        <time>2022-05-26T10:26:34.000Z</time>
      </trkpt>
      <trkpt lat="45.01581" lon="5.51306">
        <ele>1190</ele>
        <time>2022-05-26T10:26:39.000Z</time>
      </trkpt>
      <trkpt lat="45.01574" lon="5.51299">
        <ele>1190</ele>
        <time>2022-05-26T10:26:47.000Z</time>
      </trkpt>
      <trkpt lat="45.01558" lon="5.51289">
        <ele>1191.5999755859</ele>
        <time>2022-05-26T10:27:03.000Z</time>
      </trkpt>
      <trkpt lat="45.01542" lon="5.51281">
        <ele>1193.5999755859</ele>
        <time>2022-05-26T10:27:18.000Z</time>
      </trkpt>
      <trkpt lat="45.01525" lon="5.51273">
        <ele>1194.5999755859</ele>
        <time>2022-05-26T10:27:35.000Z</time>
      </trkpt>
      <trkpt lat="45.01518" lon="5.51269">
        <ele>1195.1999511719</ele>
        <time>2022-05-26T10:27:42.000Z</time>
      </trkpt>
      <trkpt lat="45.01515" lon="5.51252">
        <ele>1193.1999511719</ele>
        <time>2022-05-26T10:27:55.000Z</time>
      </trkpt>
      <trkpt lat="45.01513" lon="5.51236">
        <ele>1192</ele>
        <time>2022-05-26T10:28:04.000Z</time>
      </trkpt>
      <trkpt lat="45.01508" lon="5.51224">
        <ele>1192</ele>
        <time>2022-05-26T10:28:13.000Z</time>
      </trkpt>
      <trkpt lat="45.01503" lon="5.5122">
        <ele>1192.5999755859</ele>
        <time>2022-05-26T10:28:17.000Z</time>
      </trkpt>
      <trkpt lat="45.015" lon="5.51219">
        <ele>1193</ele>
        <time>2022-05-26T10:28:20.000Z</time>
      </trkpt>
      <trkpt lat="45.01497" lon="5.51217">
        <ele>1193.1999511719</ele>
        <time>2022-05-26T10:28:23.000Z</time>
      </trkpt>
      <trkpt lat="45.01493" lon="5.51215">
        <ele>1193.8000488281</ele>
        <time>2022-05-26T10:28:28.000Z</time>
      </trkpt>
      <trkpt lat="45.01475" lon="5.51208">
        <ele>1196.1999511719</ele>
        <time>2022-05-26T10:28:51.000Z</time>
      </trkpt>
      <trkpt lat="45.01474" lon="5.51209">
        <ele>1196.4000244141</ele>
        <time>2022-05-26T10:28:52.000Z</time>
      </trkpt>
      <trkpt lat="45.01473" lon="5.51209">
        <ele>1196.4000244141</ele>
        <time>2022-05-26T10:28:53.000Z</time>
      </trkpt>
      <trkpt lat="45.01471" lon="5.51209">
        <ele>1196.5999755859</ele>
        <time>2022-05-26T10:28:54.000Z</time>
      </trkpt>
      <trkpt lat="45.0147" lon="5.51208">
        <ele>1196.8000488281</ele>
        <time>2022-05-26T10:28:55.000Z</time>
      </trkpt>
      <trkpt lat="45.01467" lon="5.51208">
        <ele>1197.4000244141</ele>
        <time>2022-05-26T10:28:56.000Z</time>
      </trkpt>
      <trkpt lat="45.01465" lon="5.51207">
        <ele>1197.5999755859</ele>
        <time>2022-05-26T10:28:58.000Z</time>
      </trkpt>
      <trkpt lat="45.01463" lon="5.51205">
        <ele>1197.8000488281</ele>
        <time>2022-05-26T10:29:00.000Z</time>
      </trkpt>
      <trkpt lat="45.01458" lon="5.51202">
        <ele>1198.4000244141</ele>
        <time>2022-05-26T10:29:04.000Z</time>
      </trkpt>
      <trkpt lat="45.01454" lon="5.51199">
        <ele>1198.5999755859</ele>
        <time>2022-05-26T10:29:07.000Z</time>
      </trkpt>
      <trkpt lat="45.01439" lon="5.51186">
        <ele>1199.8000488281</ele>
        <time>2022-05-26T10:29:24.000Z</time>
      </trkpt>
      <trkpt lat="45.01432" lon="5.5118">
        <ele>1200.4000244141</ele>
        <time>2022-05-26T10:29:31.000Z</time>
      </trkpt>
      <trkpt lat="45.01419" lon="5.51167">
        <ele>1201.1999511719</ele>
        <time>2022-05-26T10:29:47.000Z</time>
      </trkpt>
      <trkpt lat="45.01417" lon="5.51163">
        <ele>1201.5999755859</ele>
        <time>2022-05-26T10:29:51.000Z</time>
      </trkpt>
      <trkpt lat="45.014" lon="5.51152">
        <ele>1203.4000244141</ele>
        <time>2022-05-26T10:30:09.000Z</time>
      </trkpt>
      <trkpt lat="45.01391" lon="5.51142">
        <ele>1204.1999511719</ele>
        <time>2022-05-26T10:30:17.000Z</time>
      </trkpt>
      <trkpt lat="45.01377" lon="5.51125">
        <ele>1205.8000488281</ele>
        <time>2022-05-26T10:30:32.000Z</time>
      </trkpt>
      <trkpt lat="45.01371" lon="5.5112">
        <ele>1206</ele>
        <time>2022-05-26T10:30:37.000Z</time>
      </trkpt>
      <trkpt lat="45.01356" lon="5.51105">
        <ele>1205.8000488281</ele>
        <time>2022-05-26T10:30:51.000Z</time>
      </trkpt>
      <trkpt lat="45.01345" lon="5.51084">
        <ele>1204.8000488281</ele>
        <time>2022-05-26T10:31:07.000Z</time>
      </trkpt>
      <trkpt lat="45.01333" lon="5.51064">
        <ele>1203.4000244141</ele>
        <time>2022-05-26T10:31:23.000Z</time>
      </trkpt>
      <trkpt lat="45.01317" lon="5.51051">
        <ele>1202.5999755859</ele>
        <time>2022-05-26T10:31:41.000Z</time>
      </trkpt>
      <trkpt lat="45.01302" lon="5.51034">
        <ele>1204.8000488281</ele>
        <time>2022-05-26T10:31:56.000Z</time>
      </trkpt>
      <trkpt lat="45.01287" lon="5.5102">
        <ele>1206.5999755859</ele>
        <time>2022-05-26T10:32:12.000Z</time>
      </trkpt>
      <trkpt lat="45.01268" lon="5.51014">
        <ele>1207.4000244141</ele>
        <time>2022-05-26T10:32:29.000Z</time>
      </trkpt>
      <trkpt lat="45.01251" lon="5.51009">
        <ele>1207.5999755859</ele>
        <time>2022-05-26T10:32:45.000Z</time>
      </trkpt>
      <trkpt lat="45.01233" lon="5.5101">
        <ele>1207.1999511719</ele>
        <time>2022-05-26T10:33:02.000Z</time>
      </trkpt>
      <trkpt lat="45.01222" lon="5.51009">
        <ele>1206.8000488281</ele>
        <time>2022-05-26T10:33:12.000Z</time>
      </trkpt>
      <trkpt lat="45.01204" lon="5.51006">
        <ele>1206.5999755859</ele>
        <time>2022-05-26T10:33:28.000Z</time>
      </trkpt>
      <trkpt lat="45.01185" lon="5.51007">
        <ele>1205.8000488281</ele>
        <time>2022-05-26T10:33:42.000Z</time>
      </trkpt>
      <trkpt lat="45.01166" lon="5.51011">
        <ele>1204.8000488281</ele>
        <time>2022-05-26T10:33:57.000Z</time>
      </trkpt>
      <trkpt lat="45.01148" lon="5.51001">
        <ele>1206.1999511719</ele>
        <time>2022-05-26T10:34:12.000Z</time>
      </trkpt>
      <trkpt lat="45.01135" lon="5.50992">
        <ele>1208.5999755859</ele>
        <time>2022-05-26T10:34:26.000Z</time>
      </trkpt>
      <trkpt lat="45.01131" lon="5.50988">
        <ele>1209.4000244141</ele>
        <time>2022-05-26T10:34:29.000Z</time>
      </trkpt>
      <trkpt lat="45.01114" lon="5.5098">
        <ele>1211.5999755859</ele>
        <time>2022-05-26T10:34:44.000Z</time>
      </trkpt>
      <trkpt lat="45.01113" lon="5.5098">
        <ele>1211.8000488281</ele>
        <time>2022-05-26T10:34:45.000Z</time>
      </trkpt>
      <trkpt lat="45.01109" lon="5.50977">
        <ele>1212.5999755859</ele>
        <time>2022-05-26T10:34:49.000Z</time>
      </trkpt>
      <trkpt lat="45.01099" lon="5.50973">
        <ele>1213.8000488281</ele>
        <time>2022-05-26T10:34:58.000Z</time>
      </trkpt>
      <trkpt lat="45.01096" lon="5.50971">
        <ele>1214.4000244141</ele>
        <time>2022-05-26T10:35:01.000Z</time>
      </trkpt>
      <trkpt lat="45.01092" lon="5.50969">
        <ele>1215</ele>
        <time>2022-05-26T10:35:05.000Z</time>
      </trkpt>
      <trkpt lat="45.0109" lon="5.50967">
        <ele>1215.4000244141</ele>
        <time>2022-05-26T10:35:06.000Z</time>
      </trkpt>
      <trkpt lat="45.0109" lon="5.50967">
        <ele>1215.4000244141</ele>
        <time>2022-05-26T10:35:07.000Z</time>
      </trkpt>
      <trkpt lat="45.01089" lon="5.50966">
        <ele>1215.5999755859</ele>
        <time>2022-05-26T10:35:08.000Z</time>
      </trkpt>
      <trkpt lat="45.01074" lon="5.50952">
        <ele>1218.5999755859</ele>
        <time>2022-05-26T10:35:24.000Z</time>
      </trkpt>
      <trkpt lat="45.01057" lon="5.50941">
        <ele>1221.1999511719</ele>
        <time>2022-05-26T10:35:41.000Z</time>
      </trkpt>
      <trkpt lat="45.01049" lon="5.50932">
        <ele>1222.4000244141</ele>
        <time>2022-05-26T10:35:53.000Z</time>
      </trkpt>
      <trkpt lat="45.01036" lon="5.50924">
        <ele>1223.5999755859</ele>
        <time>2022-05-26T10:36:07.000Z</time>
      </trkpt>
      <trkpt lat="45.01028" lon="5.50925">
        <ele>1224</ele>
        <time>2022-05-26T10:36:15.000Z</time>
      </trkpt>
      <trkpt lat="45.01028" lon="5.50925">
        <ele>1224</ele>
        <time>2022-05-26T10:36:16.000Z</time>
      </trkpt>
      <trkpt lat="45.01018" lon="5.50928">
        <ele>1224.4000244141</ele>
        <time>2022-05-26T10:36:30.000Z</time>
      </trkpt>
      <trkpt lat="45.01018" lon="5.50928">
        <ele>1224.4000244141</ele>
        <time>2022-05-26T10:36:31.000Z</time>
      </trkpt>
      <trkpt lat="45.01009" lon="5.5093">
        <ele>1224.5999755859</ele>
        <time>2022-05-26T10:36:41.000Z</time>
      </trkpt>
      <trkpt lat="45.01005" lon="5.50932">
        <ele>1224.4000244141</ele>
        <time>2022-05-26T10:36:44.000Z</time>
      </trkpt>
      <trkpt lat="45.00994" lon="5.50935">
        <ele>1224.8000488281</ele>
        <time>2022-05-26T10:36:54.000Z</time>
      </trkpt>
      <trkpt lat="45.00991" lon="5.50936">
        <ele>1224.8000488281</ele>
        <time>2022-05-26T10:36:56.000Z</time>
      </trkpt>
      <trkpt lat="45.00989" lon="5.50937">
        <ele>1225</ele>
        <time>2022-05-26T10:36:57.000Z</time>
      </trkpt>
      <trkpt lat="45.00989" lon="5.50937">
        <ele>1225</ele>
        <time>2022-05-26T10:36:58.000Z</time>
      </trkpt>
      <trkpt lat="45.00976" lon="5.50938">
        <ele>1225.4000244141</ele>
        <time>2022-05-26T10:37:09.000Z</time>
      </trkpt>
      <trkpt lat="45.00973" lon="5.50939">
        <ele>1225.4000244141</ele>
        <time>2022-05-26T10:37:12.000Z</time>
      </trkpt>
      <trkpt lat="45.00969" lon="5.5094">
        <ele>1225.5999755859</ele>
        <time>2022-05-26T10:37:15.000Z</time>
      </trkpt>
      <trkpt lat="45.00951" lon="5.50944">
        <ele>1226.1999511719</ele>
        <time>2022-05-26T10:37:32.000Z</time>
      </trkpt>
      <trkpt lat="45.00932" lon="5.50947">
        <ele>1227</ele>
        <time>2022-05-26T10:37:52.000Z</time>
      </trkpt>
      <trkpt lat="45.00923" lon="5.50953">
        <ele>1226.5999755859</ele>
        <time>2022-05-26T10:38:00.000Z</time>
      </trkpt>
      <trkpt lat="45.00922" lon="5.50955">
        <ele>1226.5999755859</ele>
        <time>2022-05-26T10:38:02.000Z</time>
      </trkpt>
      <trkpt lat="45.00908" lon="5.50973">
        <ele>1226</ele>
        <time>2022-05-26T10:38:14.000Z</time>
      </trkpt>
      <trkpt lat="45.00906" lon="5.50976">
        <ele>1226</ele>
        <time>2022-05-26T10:38:16.000Z</time>
      </trkpt>
      <trkpt lat="45.00905" lon="5.50978">
        <ele>1225.8000488281</ele>
        <time>2022-05-26T10:38:17.000Z</time>
      </trkpt>
      <trkpt lat="45.00904" lon="5.50979">
        <ele>1225.8000488281</ele>
        <time>2022-05-26T10:38:18.000Z</time>
      </trkpt>
      <trkpt lat="45.00889" lon="5.50993">
        <ele>1224.8000488281</ele>
        <time>2022-05-26T10:38:33.000Z</time>
      </trkpt>
      <trkpt lat="45.00881" lon="5.50999">
        <ele>1224.1999511719</ele>
        <time>2022-05-26T10:38:41.000Z</time>
      </trkpt>
      <trkpt lat="45.00875" lon="5.51004">
        <ele>1224</ele>
        <time>2022-05-26T10:38:47.000Z</time>
      </trkpt>
      <trkpt lat="45.00861" lon="5.51021">
        <ele>1224.1999511719</ele>
        <time>2022-05-26T10:39:01.000Z</time>
      </trkpt>
      <trkpt lat="45.00856" lon="5.51032">
        <ele>1223.8000488281</ele>
        <time>2022-05-26T10:39:07.000Z</time>
      </trkpt>
      <trkpt lat="45.00841" lon="5.51047">
        <ele>1223.5999755859</ele>
        <time>2022-05-26T10:39:23.000Z</time>
      </trkpt>
      <trkpt lat="45.00839" lon="5.51049">
        <ele>1223.5999755859</ele>
        <time>2022-05-26T10:39:26.000Z</time>
      </trkpt>
      <trkpt lat="45.00823" lon="5.51061">
        <ele>1223.5999755859</ele>
        <time>2022-05-26T10:39:42.000Z</time>
      </trkpt>
      <trkpt lat="45.00818" lon="5.51063">
        <ele>1223.1999511719</ele>
        <time>2022-05-26T10:39:47.000Z</time>
      </trkpt>
      <trkpt lat="45.0081" lon="5.51068">
        <ele>1222.4000244141</ele>
        <time>2022-05-26T10:39:55.000Z</time>
      </trkpt>
      <trkpt lat="45.00806" lon="5.51069">
        <ele>1222</ele>
        <time>2022-05-26T10:40:00.000Z</time>
      </trkpt>
      <trkpt lat="45.00804" lon="5.51069">
        <ele>1222</ele>
        <time>2022-05-26T10:40:04.000Z</time>
      </trkpt>
      <trkpt lat="45.00803" lon="5.51069">
        <ele>1222.1999511719</ele>
        <time>2022-05-26T10:40:07.000Z</time>
      </trkpt>
      <trkpt lat="45.00791" lon="5.51069">
        <ele>1222.5999755859</ele>
        <time>2022-05-26T10:40:30.000Z</time>
      </trkpt>
      <trkpt lat="45.00786" lon="5.51063">
        <ele>1223.1999511719</ele>
        <time>2022-05-26T10:40:37.000Z</time>
      </trkpt>
      <trkpt lat="45.00785" lon="5.5106">
        <ele>1223.4000244141</ele>
        <time>2022-05-26T10:40:40.000Z</time>
      </trkpt>
      <trkpt lat="45.00781" lon="5.51055">
        <ele>1223.8000488281</ele>
        <time>2022-05-26T10:40:46.000Z</time>
      </trkpt>
      <trkpt lat="45.00777" lon="5.51051">
        <ele>1224.1999511719</ele>
        <time>2022-05-26T10:40:50.000Z</time>
      </trkpt>
      <trkpt lat="45.00769" lon="5.51049">
        <ele>1225</ele>
        <time>2022-05-26T10:40:59.000Z</time>
      </trkpt>
      <trkpt lat="45.00761" lon="5.51052">
        <ele>1225.4000244141</ele>
        <time>2022-05-26T10:41:09.000Z</time>
      </trkpt>
      <trkpt lat="45.00751" lon="5.51056">
        <ele>1226</ele>
        <time>2022-05-26T10:41:18.000Z</time>
      </trkpt>
      <trkpt lat="45.00748" lon="5.51056">
        <ele>1226</ele>
        <time>2022-05-26T10:41:19.000Z</time>
      </trkpt>
      <trkpt lat="45.00731" lon="5.51065">
        <ele>1227</ele>
        <time>2022-05-26T10:41:39.000Z</time>
      </trkpt>
      <trkpt lat="45.00723" lon="5.51075">
        <ele>1227.4000244141</ele>
        <time>2022-05-26T10:41:49.000Z</time>
      </trkpt>
      <trkpt lat="45.00722" lon="5.51078">
        <ele>1227.5999755859</ele>
        <time>2022-05-26T10:41:51.000Z</time>
      </trkpt>
      <trkpt lat="45.0072" lon="5.5108">
        <ele>1227.8000488281</ele>
        <time>2022-05-26T10:41:52.000Z</time>
      </trkpt>
      <trkpt lat="45.00713" lon="5.51087">
        <ele>1228.4000244141</ele>
        <time>2022-05-26T10:42:00.000Z</time>
      </trkpt>
      <trkpt lat="45.00707" lon="5.5109">
        <ele>1229</ele>
        <time>2022-05-26T10:42:10.000Z</time>
      </trkpt>
      <trkpt lat="45.00707" lon="5.51097">
        <ele>1229.1999511719</ele>
        <time>2022-05-26T10:43:29.000Z</time>
      </trkpt>
      <trkpt lat="45.00707" lon="5.51098">
        <ele>1229.1999511719</ele>
        <time>2022-05-26T10:43:31.000Z</time>
      </trkpt>
      <trkpt lat="45.00697" lon="5.51112">
        <ele>1230.1999511719</ele>
        <time>2022-05-26T10:43:52.000Z</time>
      </trkpt>
      <trkpt lat="45.0068" lon="5.51124">
        <ele>1231.5999755859</ele>
        <time>2022-05-26T10:44:10.000Z</time>
      </trkpt>
      <trkpt lat="45.00663" lon="5.51133">
        <ele>1231.8000488281</ele>
        <time>2022-05-26T10:44:23.000Z</time>
      </trkpt>
      <trkpt lat="45.00659" lon="5.51135">
        <ele>1232</ele>
        <time>2022-05-26T10:44:27.000Z</time>
      </trkpt>
      <trkpt lat="45.00657" lon="5.51135">
        <ele>1232</ele>
        <time>2022-05-26T10:44:28.000Z</time>
      </trkpt>
      <trkpt lat="45.00657" lon="5.51135">
        <ele>1232</ele>
        <time>2022-05-26T10:44:29.000Z</time>
      </trkpt>
      <trkpt lat="45.00648" lon="5.51141">
        <ele>1232.5999755859</ele>
        <time>2022-05-26T10:44:40.000Z</time>
      </trkpt>
      <trkpt lat="45.00637" lon="5.51148">
        <ele>1233.8000488281</ele>
        <time>2022-05-26T10:44:55.000Z</time>
      </trkpt>
      <trkpt lat="45.00637" lon="5.51149">
        <ele>1233.5999755859</ele>
        <time>2022-05-26T10:44:57.000Z</time>
      </trkpt>
      <trkpt lat="45.00637" lon="5.51149">
        <ele>1233.5999755859</ele>
        <time>2022-05-26T10:45:05.000Z</time>
      </trkpt>
      <trkpt lat="45.00626" lon="5.51154">
        <ele>1235</ele>
        <time>2022-05-26T11:24:06.000Z</time>
      </trkpt>
      <trkpt lat="45.00626" lon="5.51153">
        <ele>1235</ele>
        <time>2022-05-26T11:24:09.000Z</time>
      </trkpt>
      <trkpt lat="45.00625" lon="5.51152">
        <ele>1235</ele>
        <time>2022-05-26T11:24:11.000Z</time>
      </trkpt>
      <trkpt lat="45.00621" lon="5.51148">
        <ele>1235.5999755859</ele>
        <time>2022-05-26T11:24:17.000Z</time>
      </trkpt>
      <trkpt lat="45.0062" lon="5.51147">
        <ele>1235.8000488281</ele>
        <time>2022-05-26T11:24:20.000Z</time>
      </trkpt>
      <trkpt lat="45.00619" lon="5.51146">
        <ele>1235.8000488281</ele>
        <time>2022-05-26T11:24:22.000Z</time>
      </trkpt>
      <trkpt lat="45.00617" lon="5.51144">
        <ele>1236.1999511719</ele>
        <time>2022-05-26T11:24:26.000Z</time>
      </trkpt>
      <trkpt lat="45.00617" lon="5.51144">
        <ele>1236.1999511719</ele>
        <time>2022-05-26T11:24:27.000Z</time>
      </trkpt>
      <trkpt lat="45.00616" lon="5.51143">
        <ele>1236.1999511719</ele>
        <time>2022-05-26T11:24:28.000Z</time>
      </trkpt>
      <trkpt lat="45.00616" lon="5.51143">
        <ele>1236.4000244141</ele>
        <time>2022-05-26T11:24:29.000Z</time>
      </trkpt>
      <trkpt lat="45.00615" lon="5.51142">
        <ele>1236.4000244141</ele>
        <time>2022-05-26T11:24:31.000Z</time>
      </trkpt>
      <trkpt lat="45.00616" lon="5.5114">
        <ele>1236.4000244141</ele>
        <time>2022-05-26T11:24:33.000Z</time>
      </trkpt>
      <trkpt lat="45.00615" lon="5.5114">
        <ele>1236.4000244141</ele>
        <time>2022-05-26T11:24:35.000Z</time>
      </trkpt>
      <trkpt lat="45.00615" lon="5.5114">
        <ele>1236.5999755859</ele>
        <time>2022-05-26T11:24:36.000Z</time>
      </trkpt>
      <trkpt lat="45.00612" lon="5.51138">
        <ele>1236.8000488281</ele>
        <time>2022-05-26T11:24:39.000Z</time>
      </trkpt>
      <trkpt lat="45.0061" lon="5.51137">
        <ele>1237.1999511719</ele>
        <time>2022-05-26T11:24:42.000Z</time>
      </trkpt>
      <trkpt lat="45.00605" lon="5.51134">
        <ele>1237.8000488281</ele>
        <time>2022-05-26T11:24:46.000Z</time>
      </trkpt>
      <trkpt lat="45.00604" lon="5.51132">
        <ele>1237.8000488281</ele>
        <time>2022-05-26T11:24:47.000Z</time>
      </trkpt>
      <trkpt lat="45.00602" lon="5.51131">
        <ele>1238</ele>
        <time>2022-05-26T11:24:49.000Z</time>
      </trkpt>
      <trkpt lat="45.00601" lon="5.5113">
        <ele>1238.1999511719</ele>
        <time>2022-05-26T11:24:50.000Z</time>
      </trkpt>
      <trkpt lat="45.00601" lon="5.5113">
        <ele>1238.1999511719</ele>
        <time>2022-05-26T11:24:51.000Z</time>
      </trkpt>
      <trkpt lat="45.006" lon="5.51129">
        <ele>1238.1999511719</ele>
        <time>2022-05-26T11:24:52.000Z</time>
      </trkpt>
      <trkpt lat="45.006" lon="5.51128">
        <ele>1238.1999511719</ele>
        <time>2022-05-26T11:24:53.000Z</time>
      </trkpt>
      <trkpt lat="45.00599" lon="5.51128">
        <ele>1238.4000244141</ele>
        <time>2022-05-26T11:24:54.000Z</time>
      </trkpt>
      <trkpt lat="45.00597" lon="5.51126">
        <ele>1238.5999755859</ele>
        <time>2022-05-26T11:24:56.000Z</time>
      </trkpt>
      <trkpt lat="45.00594" lon="5.51125">
        <ele>1239</ele>
        <time>2022-05-26T11:24:58.000Z</time>
      </trkpt>
      <trkpt lat="45.00591" lon="5.51124">
        <ele>1239.4000244141</ele>
        <time>2022-05-26T11:25:00.000Z</time>
      </trkpt>
      <trkpt lat="45.00589" lon="5.51123">
        <ele>1239.5999755859</ele>
        <time>2022-05-26T11:25:01.000Z</time>
      </trkpt>
      <trkpt lat="45.00588" lon="5.51122">
        <ele>1239.8000488281</ele>
        <time>2022-05-26T11:25:02.000Z</time>
      </trkpt>
      <trkpt lat="45.00579" lon="5.51116">
        <ele>1240.8000488281</ele>
        <time>2022-05-26T11:25:09.000Z</time>
      </trkpt>
      <trkpt lat="45.00577" lon="5.51114">
        <ele>1241</ele>
        <time>2022-05-26T11:25:11.000Z</time>
      </trkpt>
      <trkpt lat="45.00576" lon="5.51114">
        <ele>1241.1999511719</ele>
        <time>2022-05-26T11:25:12.000Z</time>
      </trkpt>
      <trkpt lat="45.00575" lon="5.51113">
        <ele>1241.1999511719</ele>
        <time>2022-05-26T11:25:13.000Z</time>
      </trkpt>
      <trkpt lat="45.00567" lon="5.5111">
        <ele>1242</ele>
        <time>2022-05-26T11:25:22.000Z</time>
      </trkpt>
      <trkpt lat="45.00565" lon="5.51109">
        <ele>1242.1999511719</ele>
        <time>2022-05-26T11:25:25.000Z</time>
      </trkpt>
      <trkpt lat="45.00549" lon="5.51105">
        <ele>1243.4000244141</ele>
        <time>2022-05-26T11:25:40.000Z</time>
      </trkpt>
      <trkpt lat="45.00543" lon="5.51096">
        <ele>1243.1999511719</ele>
        <time>2022-05-26T11:25:52.000Z</time>
      </trkpt>
      <trkpt lat="45.00524" lon="5.51093">
        <ele>1245</ele>
        <time>2022-05-26T11:26:08.000Z</time>
      </trkpt>
      <trkpt lat="45.00511" lon="5.51089">
        <ele>1245.8000488281</ele>
        <time>2022-05-26T11:26:20.000Z</time>
      </trkpt>
      <trkpt lat="45.0051" lon="5.51087">
        <ele>1245.8000488281</ele>
        <time>2022-05-26T11:26:22.000Z</time>
      </trkpt>
      <trkpt lat="45.00505" lon="5.51085">
        <ele>1246</ele>
        <time>2022-05-26T11:26:28.000Z</time>
      </trkpt>
      <trkpt lat="45.00502" lon="5.51082">
        <ele>1246.4000244141</ele>
        <time>2022-05-26T11:26:33.000Z</time>
      </trkpt>
      <trkpt lat="45.00501" lon="5.51082">
        <ele>1246.4000244141</ele>
        <time>2022-05-26T11:26:34.000Z</time>
      </trkpt>
      <trkpt lat="45.005" lon="5.51081">
        <ele>1246.5999755859</ele>
        <time>2022-05-26T11:26:35.000Z</time>
      </trkpt>
      <trkpt lat="45.00499" lon="5.51081">
        <ele>1246.5999755859</ele>
        <time>2022-05-26T11:26:36.000Z</time>
      </trkpt>
      <trkpt lat="45.00496" lon="5.5108">
        <ele>1247</ele>
        <time>2022-05-26T11:26:40.000Z</time>
      </trkpt>
      <trkpt lat="45.00492" lon="5.51076">
        <ele>1247.4000244141</ele>
        <time>2022-05-26T11:26:45.000Z</time>
      </trkpt>
      <trkpt lat="45.0049" lon="5.51075">
        <ele>1247.5999755859</ele>
        <time>2022-05-26T11:26:46.000Z</time>
      </trkpt>
      <trkpt lat="45.0049" lon="5.51074">
        <ele>1247.5999755859</ele>
        <time>2022-05-26T11:26:47.000Z</time>
      </trkpt>
      <trkpt lat="45.00489" lon="5.51071">
        <ele>1247.8000488281</ele>
        <time>2022-05-26T11:26:49.000Z</time>
      </trkpt>
      <trkpt lat="45.00489" lon="5.51065">
        <ele>1247.8000488281</ele>
        <time>2022-05-26T11:26:56.000Z</time>
      </trkpt>
      <trkpt lat="45.00489" lon="5.51063">
        <ele>1247.8000488281</ele>
        <time>2022-05-26T11:26:58.000Z</time>
      </trkpt>
      <trkpt lat="45.00481" lon="5.51051">
        <ele>1248.5999755859</ele>
        <time>2022-05-26T11:27:02.000Z</time>
      </trkpt>
      <trkpt lat="45.00479" lon="5.51046">
        <ele>1248.8000488281</ele>
        <time>2022-05-26T11:27:04.000Z</time>
      </trkpt>
      <trkpt lat="45.00469" lon="5.51025">
        <ele>1249.4000244141</ele>
        <time>2022-05-26T11:27:13.000Z</time>
      </trkpt>
      <trkpt lat="45.00452" lon="5.51013">
        <ele>1249.5999755859</ele>
        <time>2022-05-26T11:27:27.000Z</time>
      </trkpt>
      <trkpt lat="45.00441" lon="5.51007">
        <ele>1248.8000488281</ele>
        <time>2022-05-26T11:27:36.000Z</time>
      </trkpt>
      <trkpt lat="45.00423" lon="5.51001">
        <ele>1248</ele>
        <time>2022-05-26T11:27:52.000Z</time>
      </trkpt>
      <trkpt lat="45.00405" lon="5.50994">
        <ele>1247.8000488281</ele>
        <time>2022-05-26T11:28:05.000Z</time>
      </trkpt>
      <trkpt lat="45.00387" lon="5.50985">
        <ele>1249.1999511719</ele>
        <time>2022-05-26T11:28:22.000Z</time>
      </trkpt>
      <trkpt lat="45.00386" lon="5.50984">
        <ele>1249.4000244141</ele>
        <time>2022-05-26T11:28:23.000Z</time>
      </trkpt>
      <trkpt lat="45.00384" lon="5.50983">
        <ele>1249.4000244141</ele>
        <time>2022-05-26T11:28:25.000Z</time>
      </trkpt>
      <trkpt lat="45.00371" lon="5.50986">
        <ele>1251.8000488281</ele>
        <time>2022-05-26T11:28:47.000Z</time>
      </trkpt>
      <trkpt lat="45.00362" lon="5.50992">
        <ele>1254</ele>
        <time>2022-05-26T11:28:57.000Z</time>
      </trkpt>
      <trkpt lat="45.00359" lon="5.50995">
        <ele>1254.8000488281</ele>
        <time>2022-05-26T11:29:02.000Z</time>
      </trkpt>
      <trkpt lat="45.00358" lon="5.50996">
        <ele>1255</ele>
        <time>2022-05-26T11:29:03.000Z</time>
      </trkpt>
      <trkpt lat="45.00357" lon="5.50996">
        <ele>1255.1999511719</ele>
        <time>2022-05-26T11:29:04.000Z</time>
      </trkpt>
      <trkpt lat="45.00348" lon="5.51002">
        <ele>1256.8000488281</ele>
        <time>2022-05-26T11:29:13.000Z</time>
      </trkpt>
      <trkpt lat="45.00344" lon="5.51007">
        <ele>1257.5999755859</ele>
        <time>2022-05-26T11:29:22.000Z</time>
      </trkpt>
      <trkpt lat="45.00344" lon="5.51009">
        <ele>1257.5999755859</ele>
        <time>2022-05-26T11:29:24.000Z</time>
      </trkpt>
      <trkpt lat="45.00341" lon="5.51008">
        <ele>1258</ele>
        <time>2022-05-26T11:29:32.000Z</time>
      </trkpt>
      <trkpt lat="45.00326" lon="5.51012">
        <ele>1260.8000488281</ele>
        <time>2022-05-26T11:29:59.000Z</time>
      </trkpt>
      <trkpt lat="45.00324" lon="5.51012">
        <ele>1261.1999511719</ele>
        <time>2022-05-26T11:30:04.000Z</time>
      </trkpt>
      <trkpt lat="45.00323" lon="5.51012">
        <ele>1261.4000244141</ele>
        <time>2022-05-26T11:30:06.000Z</time>
      </trkpt>
      <trkpt lat="45.00322" lon="5.51012">
        <ele>1261.5999755859</ele>
        <time>2022-05-26T11:30:07.000Z</time>
      </trkpt>
      <trkpt lat="45.00321" lon="5.51012">
        <ele>1261.8000488281</ele>
        <time>2022-05-26T11:30:08.000Z</time>
      </trkpt>
      <trkpt lat="45.00302" lon="5.51017">
        <ele>1263.5999755859</ele>
        <time>2022-05-26T11:30:29.000Z</time>
      </trkpt>
      <trkpt lat="45.00296" lon="5.51013">
        <ele>1264</ele>
        <time>2022-05-26T11:30:33.000Z</time>
      </trkpt>
      <trkpt lat="45.00287" lon="5.51008">
        <ele>1264.8000488281</ele>
        <time>2022-05-26T11:30:39.000Z</time>
      </trkpt>
      <trkpt lat="45.00285" lon="5.51006">
        <ele>1265</ele>
        <time>2022-05-26T11:30:42.000Z</time>
      </trkpt>
      <trkpt lat="45.00283" lon="5.51004">
        <ele>1265.1999511719</ele>
        <time>2022-05-26T11:30:45.000Z</time>
      </trkpt>
      <trkpt lat="45.00281" lon="5.51003">
        <ele>1265.1999511719</ele>
        <time>2022-05-26T11:30:47.000Z</time>
      </trkpt>
      <trkpt lat="45.0028" lon="5.51002">
        <ele>1265.4000244141</ele>
        <time>2022-05-26T11:30:49.000Z</time>
      </trkpt>
      <trkpt lat="45.00273" lon="5.50997">
        <ele>1266.1999511719</ele>
        <time>2022-05-26T11:30:57.000Z</time>
      </trkpt>
      <trkpt lat="45.00271" lon="5.50996">
        <ele>1266.4000244141</ele>
        <time>2022-05-26T11:31:00.000Z</time>
      </trkpt>
      <trkpt lat="45.00256" lon="5.50985">
        <ele>1268.4000244141</ele>
        <time>2022-05-26T11:31:23.000Z</time>
      </trkpt>
      <trkpt lat="45.00254" lon="5.50985">
        <ele>1268.5999755859</ele>
        <time>2022-05-26T11:31:26.000Z</time>
      </trkpt>
      <trkpt lat="45.00239" lon="5.50974">
        <ele>1270.5999755859</ele>
        <time>2022-05-26T11:31:36.000Z</time>
      </trkpt>
      <trkpt lat="45.00232" lon="5.50973">
        <ele>1271.1999511719</ele>
        <time>2022-05-26T11:31:43.000Z</time>
      </trkpt>
      <trkpt lat="45.00217" lon="5.50968">
        <ele>1271.8000488281</ele>
        <time>2022-05-26T11:31:54.000Z</time>
      </trkpt>
      <trkpt lat="45.00213" lon="5.50967">
        <ele>1272</ele>
        <time>2022-05-26T11:31:57.000Z</time>
      </trkpt>
      <trkpt lat="45.0021" lon="5.50966">
        <ele>1272.1999511719</ele>
        <time>2022-05-26T11:31:59.000Z</time>
      </trkpt>
      <trkpt lat="45.00203" lon="5.50965">
        <ele>1272</ele>
        <time>2022-05-26T11:32:06.000Z</time>
      </trkpt>
      <trkpt lat="45.00202" lon="5.50965">
        <ele>1272</ele>
        <time>2022-05-26T11:32:07.000Z</time>
      </trkpt>
      <trkpt lat="45.00201" lon="5.50965">
        <ele>1272</ele>
        <time>2022-05-26T11:32:08.000Z</time>
      </trkpt>
      <trkpt lat="45.002" lon="5.50965">
        <ele>1272</ele>
        <time>2022-05-26T11:32:09.000Z</time>
      </trkpt>
      <trkpt lat="45.00192" lon="5.50955">
        <ele>1272</ele>
        <time>2022-05-26T11:32:23.000Z</time>
      </trkpt>
      <trkpt lat="45.00192" lon="5.50954">
        <ele>1272</ele>
        <time>2022-05-26T11:32:24.000Z</time>
      </trkpt>
      <trkpt lat="45.00185" lon="5.50932">
        <ele>1272.1999511719</ele>
        <time>2022-05-26T11:32:44.000Z</time>
      </trkpt>
      <trkpt lat="45.00185" lon="5.50905">
        <ele>1272.8000488281</ele>
        <time>2022-05-26T11:33:01.000Z</time>
      </trkpt>
      <trkpt lat="45.00189" lon="5.50881">
        <ele>1274.1999511719</ele>
        <time>2022-05-26T11:33:22.000Z</time>
      </trkpt>
      <trkpt lat="45.00183" lon="5.50863">
        <ele>1274.1999511719</ele>
        <time>2022-05-26T11:33:36.000Z</time>
      </trkpt>
      <trkpt lat="45.00178" lon="5.50857">
        <ele>1274</ele>
        <time>2022-05-26T11:33:40.000Z</time>
      </trkpt>
      <trkpt lat="45.00173" lon="5.50853">
        <ele>1274</ele>
        <time>2022-05-26T11:33:46.000Z</time>
      </trkpt>
      <trkpt lat="45.00164" lon="5.50847">
        <ele>1274</ele>
        <time>2022-05-26T11:33:51.000Z</time>
      </trkpt>
      <trkpt lat="45.00146" lon="5.50836">
        <ele>1274.1999511719</ele>
        <time>2022-05-26T11:34:03.000Z</time>
      </trkpt>
      <trkpt lat="45.00134" lon="5.50817">
        <ele>1274.5999755859</ele>
        <time>2022-05-26T11:34:16.000Z</time>
      </trkpt>
      <trkpt lat="45.00128" lon="5.50805">
        <ele>1275.1999511719</ele>
        <time>2022-05-26T11:34:24.000Z</time>
      </trkpt>
      <trkpt lat="45.00125" lon="5.50801">
        <ele>1275.4000244141</ele>
        <time>2022-05-26T11:34:29.000Z</time>
      </trkpt>
      <trkpt lat="45.00107" lon="5.50791">
        <ele>1274.8000488281</ele>
        <time>2022-05-26T11:34:43.000Z</time>
      </trkpt>
      <trkpt lat="45.00095" lon="5.50785">
        <ele>1274.8000488281</ele>
        <time>2022-05-26T11:34:55.000Z</time>
      </trkpt>
      <trkpt lat="45.00093" lon="5.50785">
        <ele>1275</ele>
        <time>2022-05-26T11:34:57.000Z</time>
      </trkpt>
      <trkpt lat="45.00086" lon="5.50781">
        <ele>1275.4000244141</ele>
        <time>2022-05-26T11:35:03.000Z</time>
      </trkpt>
      <trkpt lat="45.00085" lon="5.5078">
        <ele>1275.4000244141</ele>
        <time>2022-05-26T11:35:04.000Z</time>
      </trkpt>
      <trkpt lat="45.00066" lon="5.50774">
        <ele>1276.1999511719</ele>
        <time>2022-05-26T11:35:20.000Z</time>
      </trkpt>
      <trkpt lat="45.00049" lon="5.50769">
        <ele>1276.1999511719</ele>
        <time>2022-05-26T11:35:37.000Z</time>
      </trkpt>
      <trkpt lat="45.0003" lon="5.50767">
        <ele>1275</ele>
        <time>2022-05-26T11:35:53.000Z</time>
      </trkpt>
      <trkpt lat="45.00011" lon="5.50761">
        <ele>1273.5999755859</ele>
        <time>2022-05-26T11:36:10.000Z</time>
      </trkpt>
      <trkpt lat="45" lon="5.50755">
        <ele>1273.4000244141</ele>
        <time>2022-05-26T11:36:18.000Z</time>
      </trkpt>
      <trkpt lat="44.99991" lon="5.50752">
        <ele>1273.1999511719</ele>
        <time>2022-05-26T11:36:27.000Z</time>
      </trkpt>
      <trkpt lat="44.99977" lon="5.50755">
        <ele>1267.5999755859</ele>
        <time>2022-05-26T11:36:40.000Z</time>
      </trkpt>
      <trkpt lat="44.99974" lon="5.50756">
        <ele>1267.4000244141</ele>
        <time>2022-05-26T11:36:43.000Z</time>
      </trkpt>
      <trkpt lat="44.99972" lon="5.50757">
        <ele>1267.1999511719</ele>
        <time>2022-05-26T11:36:44.000Z</time>
      </trkpt>
      <trkpt lat="44.99966" lon="5.50759">
        <ele>1267</ele>
        <time>2022-05-26T11:36:49.000Z</time>
      </trkpt>
      <trkpt lat="44.99965" lon="5.50759">
        <ele>1267</ele>
        <time>2022-05-26T11:36:50.000Z</time>
      </trkpt>
      <trkpt lat="44.99963" lon="5.5076">
        <ele>1267</ele>
        <time>2022-05-26T11:36:51.000Z</time>
      </trkpt>
      <trkpt lat="44.99962" lon="5.5076">
        <ele>1267</ele>
        <time>2022-05-26T11:36:52.000Z</time>
      </trkpt>
      <trkpt lat="44.9996" lon="5.50761">
        <ele>1267</ele>
        <time>2022-05-26T11:36:55.000Z</time>
      </trkpt>
      <trkpt lat="44.99958" lon="5.50767">
        <ele>1267</ele>
        <time>2022-05-26T11:37:03.000Z</time>
      </trkpt>
      <trkpt lat="44.99959" lon="5.50768">
        <ele>1267</ele>
        <time>2022-05-26T11:37:27.000Z</time>
      </trkpt>
      <trkpt lat="44.99959" lon="5.50768">
        <ele>1267</ele>
        <time>2022-05-26T11:37:39.000Z</time>
      </trkpt>
      <trkpt lat="44.9996" lon="5.50768">
        <ele>1267</ele>
        <time>2022-05-26T11:37:50.000Z</time>
      </trkpt>
      <trkpt lat="44.99961" lon="5.50768">
        <ele>1267</ele>
        <time>2022-05-26T11:37:55.000Z</time>
      </trkpt>
      <trkpt lat="44.99963" lon="5.50768">
        <ele>1267</ele>
        <time>2022-05-26T11:38:03.000Z</time>
      </trkpt>
      <trkpt lat="44.99963" lon="5.50771">
        <ele>1267</ele>
        <time>2022-05-26T11:38:18.000Z</time>
      </trkpt>
      <trkpt lat="44.99961" lon="5.50768">
        <ele>1267</ele>
        <time>2022-05-26T11:38:24.000Z</time>
      </trkpt>
      <trkpt lat="44.9996" lon="5.50766">
        <ele>1267</ele>
        <time>2022-05-26T11:38:28.000Z</time>
      </trkpt>
      <trkpt lat="44.99961" lon="5.50766">
        <ele>1267</ele>
        <time>2022-05-26T11:38:29.000Z</time>
      </trkpt>
      <trkpt lat="44.99961" lon="5.50766">
        <ele>1267</ele>
        <time>2022-05-26T11:38:30.000Z</time>
      </trkpt>
      <trkpt lat="44.99959" lon="5.50766">
        <ele>1267</ele>
        <time>2022-05-26T11:38:50.000Z</time>
      </trkpt>
      <trkpt lat="44.99959" lon="5.50765">
        <ele>1267</ele>
        <time>2022-05-26T11:38:51.000Z</time>
      </trkpt>
      <trkpt lat="44.99959" lon="5.50765">
        <ele>1267</ele>
        <time>2022-05-26T11:38:52.000Z</time>
      </trkpt>
      <trkpt lat="44.99958" lon="5.50764">
        <ele>1267</ele>
        <time>2022-05-26T11:39:12.000Z</time>
      </trkpt>
      <trkpt lat="44.99959" lon="5.50765">
        <ele>1267</ele>
        <time>2022-05-26T11:39:26.000Z</time>
      </trkpt>
      <trkpt lat="44.99959" lon="5.50763">
        <ele>1267</ele>
        <time>2022-05-26T11:39:33.000Z</time>
      </trkpt>
      <trkpt lat="44.99959" lon="5.50764">
        <ele>1267</ele>
        <time>2022-05-26T11:39:40.000Z</time>
      </trkpt>
      <trkpt lat="44.99957" lon="5.50764">
        <ele>1267</ele>
        <time>2022-05-26T11:39:46.000Z</time>
      </trkpt>
      <trkpt lat="44.99955" lon="5.50765">
        <ele>1267.1999511719</ele>
        <time>2022-05-26T11:39:52.000Z</time>
      </trkpt>
      <trkpt lat="44.99954" lon="5.50769">
        <ele>1267.1999511719</ele>
        <time>2022-05-26T11:40:01.000Z</time>
      </trkpt>
      <trkpt lat="44.99953" lon="5.5077">
        <ele>1267.1999511719</ele>
        <time>2022-05-26T11:40:03.000Z</time>
      </trkpt>
      <trkpt lat="44.9995" lon="5.50769">
        <ele>1267.1999511719</ele>
        <time>2022-05-26T11:40:08.000Z</time>
      </trkpt>
      <trkpt lat="44.99947" lon="5.50768">
        <ele>1267.4000244141</ele>
        <time>2022-05-26T11:40:11.000Z</time>
      </trkpt>
      <trkpt lat="44.99947" lon="5.50768">
        <ele>1267.4000244141</ele>
        <time>2022-05-26T11:40:12.000Z</time>
      </trkpt>
      <trkpt lat="44.99945" lon="5.50767">
        <ele>1267.4000244141</ele>
        <time>2022-05-26T11:40:14.000Z</time>
      </trkpt>
      <trkpt lat="44.99938" lon="5.50768">
        <ele>1267.4000244141</ele>
        <time>2022-05-26T11:40:26.000Z</time>
      </trkpt>
      <trkpt lat="44.99935" lon="5.50768">
        <ele>1267.4000244141</ele>
        <time>2022-05-26T11:40:29.000Z</time>
      </trkpt>
      <trkpt lat="44.99931" lon="5.50767">
        <ele>1267.4000244141</ele>
        <time>2022-05-26T11:40:32.000Z</time>
      </trkpt>
      <trkpt lat="44.99928" lon="5.50768">
        <ele>1267.4000244141</ele>
        <time>2022-05-26T11:40:35.000Z</time>
      </trkpt>
      <trkpt lat="44.99928" lon="5.50768">
        <ele>1267.4000244141</ele>
        <time>2022-05-26T11:40:36.000Z</time>
      </trkpt>
      <trkpt lat="44.99927" lon="5.50768">
        <ele>1267.5999755859</ele>
        <time>2022-05-26T11:40:37.000Z</time>
      </trkpt>
      <trkpt lat="44.99925" lon="5.50768">
        <ele>1267.5999755859</ele>
        <time>2022-05-26T11:40:38.000Z</time>
      </trkpt>
      <trkpt lat="44.99911" lon="5.50775">
        <ele>1267.8000488281</ele>
        <time>2022-05-26T11:40:51.000Z</time>
      </trkpt>
      <trkpt lat="44.99904" lon="5.50779">
        <ele>1268</ele>
        <time>2022-05-26T11:40:57.000Z</time>
      </trkpt>
      <trkpt lat="44.99902" lon="5.50779">
        <ele>1268</ele>
        <time>2022-05-26T11:40:59.000Z</time>
      </trkpt>
      <trkpt lat="44.99899" lon="5.5078">
        <ele>1268</ele>
        <time>2022-05-26T11:41:03.000Z</time>
      </trkpt>
      <trkpt lat="44.99881" lon="5.50789">
        <ele>1268</ele>
        <time>2022-05-26T11:41:19.000Z</time>
      </trkpt>
      <trkpt lat="44.99876" lon="5.50792">
        <ele>1268</ele>
        <time>2022-05-26T11:41:26.000Z</time>
      </trkpt>
      <trkpt lat="44.99871" lon="5.50792">
        <ele>1268</ele>
        <time>2022-05-26T11:41:30.000Z</time>
      </trkpt>
      <trkpt lat="44.99869" lon="5.50792">
        <ele>1268</ele>
        <time>2022-05-26T11:41:32.000Z</time>
      </trkpt>
      <trkpt lat="44.99867" lon="5.50791">
        <ele>1268</ele>
        <time>2022-05-26T11:41:33.000Z</time>
      </trkpt>
      <trkpt lat="44.99866" lon="5.5079">
        <ele>1268</ele>
        <time>2022-05-26T11:41:34.000Z</time>
      </trkpt>
      <trkpt lat="44.99864" lon="5.5079">
        <ele>1268</ele>
        <time>2022-05-26T11:41:35.000Z</time>
      </trkpt>
      <trkpt lat="44.99861" lon="5.5079">
        <ele>1268</ele>
        <time>2022-05-26T11:41:37.000Z</time>
      </trkpt>
      <trkpt lat="44.9986" lon="5.5079">
        <ele>1268</ele>
        <time>2022-05-26T11:41:38.000Z</time>
      </trkpt>
      <trkpt lat="44.99858" lon="5.50789">
        <ele>1268</ele>
        <time>2022-05-26T11:41:40.000Z</time>
      </trkpt>
      <trkpt lat="44.99851" lon="5.50787">
        <ele>1268</ele>
        <time>2022-05-26T11:41:47.000Z</time>
      </trkpt>
      <trkpt lat="44.99847" lon="5.50785">
        <ele>1268</ele>
        <time>2022-05-26T11:41:51.000Z</time>
      </trkpt>
      <trkpt lat="44.99837" lon="5.50778">
        <ele>1268.4000244141</ele>
        <time>2022-05-26T11:42:02.000Z</time>
      </trkpt>
      <trkpt lat="44.99833" lon="5.50774">
        <ele>1268.4000244141</ele>
        <time>2022-05-26T11:42:07.000Z</time>
      </trkpt>
      <trkpt lat="44.99831" lon="5.5077">
        <ele>1268.5999755859</ele>
        <time>2022-05-26T11:42:11.000Z</time>
      </trkpt>
      <trkpt lat="44.99826" lon="5.50766">
        <ele>1268.8000488281</ele>
        <time>2022-05-26T11:42:17.000Z</time>
      </trkpt>
      <trkpt lat="44.99821" lon="5.50763">
        <ele>1269</ele>
        <time>2022-05-26T11:42:22.000Z</time>
      </trkpt>
      <trkpt lat="44.99817" lon="5.50761">
        <ele>1269.1999511719</ele>
        <time>2022-05-26T11:42:28.000Z</time>
      </trkpt>
      <trkpt lat="44.99813" lon="5.50758">
        <ele>1269.4000244141</ele>
        <time>2022-05-26T11:42:32.000Z</time>
      </trkpt>
      <trkpt lat="44.99812" lon="5.50757">
        <ele>1269.5999755859</ele>
        <time>2022-05-26T11:42:33.000Z</time>
      </trkpt>
      <trkpt lat="44.99811" lon="5.50756">
        <ele>1269.5999755859</ele>
        <time>2022-05-26T11:42:34.000Z</time>
      </trkpt>
      <trkpt lat="44.99794" lon="5.50745">
        <ele>1271</ele>
        <time>2022-05-26T11:42:50.000Z</time>
      </trkpt>
      <trkpt lat="44.99782" lon="5.50727">
        <ele>1273.1999511719</ele>
        <time>2022-05-26T11:43:08.000Z</time>
      </trkpt>
      <trkpt lat="44.99777" lon="5.50718">
        <ele>1274</ele>
        <time>2022-05-26T11:43:16.000Z</time>
      </trkpt>
      <trkpt lat="44.99771" lon="5.50712">
        <ele>1274.5999755859</ele>
        <time>2022-05-26T11:43:21.000Z</time>
      </trkpt>
      <trkpt lat="44.99767" lon="5.5071">
        <ele>1275</ele>
        <time>2022-05-26T11:43:25.000Z</time>
      </trkpt>
      <trkpt lat="44.99765" lon="5.50709">
        <ele>1275.4000244141</ele>
        <time>2022-05-26T11:43:27.000Z</time>
      </trkpt>
      <trkpt lat="44.99752" lon="5.50702">
        <ele>1277</ele>
        <time>2022-05-26T11:43:46.000Z</time>
      </trkpt>
      <trkpt lat="44.9975" lon="5.50702">
        <ele>1277.1999511719</ele>
        <time>2022-05-26T11:43:51.000Z</time>
      </trkpt>
      <trkpt lat="44.99751" lon="5.50703">
        <ele>1277.1999511719</ele>
        <time>2022-05-26T11:43:54.000Z</time>
      </trkpt>
      <trkpt lat="44.9975" lon="5.50703">
        <ele>1277.1999511719</ele>
        <time>2022-05-26T11:43:55.000Z</time>
      </trkpt>
      <trkpt lat="44.9975" lon="5.50703">
        <ele>1277.1999511719</ele>
        <time>2022-05-26T11:43:56.000Z</time>
      </trkpt>
      <trkpt lat="44.9975" lon="5.50703">
        <ele>1277.1999511719</ele>
        <time>2022-05-26T11:44:00.000Z</time>
      </trkpt>
      <trkpt lat="44.9975" lon="5.50703">
        <ele>1277.1999511719</ele>
        <time>2022-05-26T11:44:01.000Z</time>
      </trkpt>
      <trkpt lat="44.9975" lon="5.50703">
        <ele>1277.4000244141</ele>
        <time>2022-05-26T11:44:02.000Z</time>
      </trkpt>
      <trkpt lat="44.9975" lon="5.50703">
        <ele>1277.4000244141</ele>
        <time>2022-05-26T11:44:04.000Z</time>
      </trkpt>
      <trkpt lat="44.99749" lon="5.50702">
        <ele>1277.4000244141</ele>
        <time>2022-05-26T11:44:06.000Z</time>
      </trkpt>
      <trkpt lat="44.99749" lon="5.50703">
        <ele>1277.4000244141</ele>
        <time>2022-05-26T11:44:17.000Z</time>
      </trkpt>
      <trkpt lat="44.9975" lon="5.50704">
        <ele>1277.4000244141</ele>
        <time>2022-05-26T11:44:23.000Z</time>
      </trkpt>
      <trkpt lat="44.99751" lon="5.50706">
        <ele>1277.1999511719</ele>
        <time>2022-05-26T11:44:27.000Z</time>
      </trkpt>
      <trkpt lat="44.99753" lon="5.50708">
        <ele>1277</ele>
        <time>2022-05-26T11:44:35.000Z</time>
      </trkpt>
      <trkpt lat="44.99752" lon="5.50708">
        <ele>1277.1999511719</ele>
        <time>2022-05-26T11:44:38.000Z</time>
      </trkpt>
      <trkpt lat="44.99751" lon="5.50708">
        <ele>1277.4000244141</ele>
        <time>2022-05-26T11:44:39.000Z</time>
      </trkpt>
      <trkpt lat="44.9975" lon="5.50707">
        <ele>1277.4000244141</ele>
        <time>2022-05-26T11:44:40.000Z</time>
      </trkpt>
      <trkpt lat="44.99749" lon="5.50707">
        <ele>1277.5999755859</ele>
        <time>2022-05-26T11:44:41.000Z</time>
      </trkpt>
      <trkpt lat="44.99748" lon="5.50706">
        <ele>1277.5999755859</ele>
        <time>2022-05-26T11:44:42.000Z</time>
      </trkpt>
      <trkpt lat="44.99747" lon="5.50706">
        <ele>1277.8000488281</ele>
        <time>2022-05-26T11:44:43.000Z</time>
      </trkpt>
      <trkpt lat="44.99746" lon="5.50705">
        <ele>1278</ele>
        <time>2022-05-26T11:44:44.000Z</time>
      </trkpt>
      <trkpt lat="44.99745" lon="5.50704">
        <ele>1278.1999511719</ele>
        <time>2022-05-26T11:44:46.000Z</time>
      </trkpt>
      <trkpt lat="44.99743" lon="5.50703">
        <ele>1278.4000244141</ele>
        <time>2022-05-26T11:44:48.000Z</time>
      </trkpt>
      <trkpt lat="44.99742" lon="5.50703">
        <ele>1278.4000244141</ele>
        <time>2022-05-26T11:44:50.000Z</time>
      </trkpt>
      <trkpt lat="44.99741" lon="5.50703">
        <ele>1278.5999755859</ele>
        <time>2022-05-26T11:44:52.000Z</time>
      </trkpt>
      <trkpt lat="44.99739" lon="5.50702">
        <ele>1278.8000488281</ele>
        <time>2022-05-26T11:45:00.000Z</time>
      </trkpt>
      <trkpt lat="44.99739" lon="5.50702">
        <ele>1279</ele>
        <time>2022-05-26T11:45:01.000Z</time>
      </trkpt>
      <trkpt lat="44.99738" lon="5.50702">
        <ele>1279</ele>
        <time>2022-05-26T11:45:02.000Z</time>
      </trkpt>
      <trkpt lat="44.99735" lon="5.50704">
        <ele>1279.4000244141</ele>
        <time>2022-05-26T11:45:08.000Z</time>
      </trkpt>
      <trkpt lat="44.99731" lon="5.50704">
        <ele>1280</ele>
        <time>2022-05-26T11:45:13.000Z</time>
      </trkpt>
      <trkpt lat="44.99728" lon="5.50706">
        <ele>1280.5999755859</ele>
        <time>2022-05-26T11:45:17.000Z</time>
      </trkpt>
      <trkpt lat="44.99726" lon="5.50708">
        <ele>1281</ele>
        <time>2022-05-26T11:45:21.000Z</time>
      </trkpt>
      <trkpt lat="44.99725" lon="5.50708">
        <ele>1281.1999511719</ele>
        <time>2022-05-26T11:45:22.000Z</time>
      </trkpt>
      <trkpt lat="44.99724" lon="5.50709">
        <ele>1281.1999511719</ele>
        <time>2022-05-26T11:45:23.000Z</time>
      </trkpt>
      <trkpt lat="44.99723" lon="5.50709">
        <ele>1281.4000244141</ele>
        <time>2022-05-26T11:45:24.000Z</time>
      </trkpt>
      <trkpt lat="44.99722" lon="5.5071">
        <ele>1281.4000244141</ele>
        <time>2022-05-26T11:45:25.000Z</time>
      </trkpt>
      <trkpt lat="44.99721" lon="5.5071">
        <ele>1281.5999755859</ele>
        <time>2022-05-26T11:45:27.000Z</time>
      </trkpt>
      <trkpt lat="44.9972" lon="5.5071">
        <ele>1281.8000488281</ele>
        <time>2022-05-26T11:45:28.000Z</time>
      </trkpt>
      <trkpt lat="44.99718" lon="5.50711">
        <ele>1282</ele>
        <time>2022-05-26T11:45:29.000Z</time>
      </trkpt>
      <trkpt lat="44.99714" lon="5.50713">
        <ele>1282.4000244141</ele>
        <time>2022-05-26T11:45:34.000Z</time>
      </trkpt>
      <trkpt lat="44.99709" lon="5.50713">
        <ele>1283</ele>
        <time>2022-05-26T11:45:39.000Z</time>
      </trkpt>
      <trkpt lat="44.99708" lon="5.50714">
        <ele>1283</ele>
        <time>2022-05-26T11:45:40.000Z</time>
      </trkpt>
      <trkpt lat="44.99708" lon="5.50714">
        <ele>1283</ele>
        <time>2022-05-26T11:45:41.000Z</time>
      </trkpt>
      <trkpt lat="44.99707" lon="5.50714">
        <ele>1283.1999511719</ele>
        <time>2022-05-26T11:45:42.000Z</time>
      </trkpt>
      <trkpt lat="44.99702" lon="5.50715">
        <ele>1283.4000244141</ele>
        <time>2022-05-26T11:45:46.000Z</time>
      </trkpt>
      <trkpt lat="44.99696" lon="5.50716">
        <ele>1283.5999755859</ele>
        <time>2022-05-26T11:45:51.000Z</time>
      </trkpt>
      <trkpt lat="44.99684" lon="5.50717">
        <ele>1284</ele>
        <time>2022-05-26T11:46:03.000Z</time>
      </trkpt>
      <trkpt lat="44.99683" lon="5.50718">
        <ele>1284</ele>
        <time>2022-05-26T11:46:04.000Z</time>
      </trkpt>
      <trkpt lat="44.99668" lon="5.50725">
        <ele>1285.1999511719</ele>
        <time>2022-05-26T11:46:21.000Z</time>
      </trkpt>
      <trkpt lat="44.99666" lon="5.50726">
        <ele>1285.4000244141</ele>
        <time>2022-05-26T11:46:27.000Z</time>
      </trkpt>
      <trkpt lat="44.99664" lon="5.50729">
        <ele>1285.5999755859</ele>
        <time>2022-05-26T11:46:34.000Z</time>
      </trkpt>
      <trkpt lat="44.99661" lon="5.5073">
        <ele>1285.8000488281</ele>
        <time>2022-05-26T11:46:45.000Z</time>
      </trkpt>
      <trkpt lat="44.99659" lon="5.50731">
        <ele>1286</ele>
        <time>2022-05-26T11:46:50.000Z</time>
      </trkpt>
      <trkpt lat="44.9966" lon="5.50733">
        <ele>1285.8000488281</ele>
        <time>2022-05-26T11:46:55.000Z</time>
      </trkpt>
      <trkpt lat="44.99651" lon="5.50735">
        <ele>1286.1999511719</ele>
        <time>2022-05-26T11:47:06.000Z</time>
      </trkpt>
      <trkpt lat="44.99648" lon="5.50736">
        <ele>1286.5999755859</ele>
        <time>2022-05-26T11:47:09.000Z</time>
      </trkpt>
      <trkpt lat="44.99643" lon="5.50737">
        <ele>1287</ele>
        <time>2022-05-26T11:47:13.000Z</time>
      </trkpt>
      <trkpt lat="44.99625" lon="5.50743">
        <ele>1288.4000244141</ele>
        <time>2022-05-26T11:47:31.000Z</time>
      </trkpt>
      <trkpt lat="44.99607" lon="5.50749">
        <ele>1291.4000244141</ele>
        <time>2022-05-26T11:47:50.000Z</time>
      </trkpt>
      <trkpt lat="44.99596" lon="5.5075">
        <ele>1293.1999511719</ele>
        <time>2022-05-26T11:48:00.000Z</time>
      </trkpt>
      <trkpt lat="44.99595" lon="5.50751">
        <ele>1293.4000244141</ele>
        <time>2022-05-26T11:48:01.000Z</time>
      </trkpt>
      <trkpt lat="44.99594" lon="5.50751">
        <ele>1293.4000244141</ele>
        <time>2022-05-26T11:48:02.000Z</time>
      </trkpt>
      <trkpt lat="44.99593" lon="5.50751">
        <ele>1293.5999755859</ele>
        <time>2022-05-26T11:48:03.000Z</time>
      </trkpt>
      <trkpt lat="44.99589" lon="5.50753">
        <ele>1294.4000244141</ele>
        <time>2022-05-26T11:48:06.000Z</time>
      </trkpt>
      <trkpt lat="44.99588" lon="5.50753">
        <ele>1294.4000244141</ele>
        <time>2022-05-26T11:48:07.000Z</time>
      </trkpt>
      <trkpt lat="44.99587" lon="5.50753">
        <ele>1294.5999755859</ele>
        <time>2022-05-26T11:48:08.000Z</time>
      </trkpt>
      <trkpt lat="44.99586" lon="5.50753">
        <ele>1294.8000488281</ele>
        <time>2022-05-26T11:48:09.000Z</time>
      </trkpt>
      <trkpt lat="44.9958" lon="5.5075">
        <ele>1296.1999511719</ele>
        <time>2022-05-26T11:48:15.000Z</time>
      </trkpt>
      <trkpt lat="44.99577" lon="5.50748">
        <ele>1296.5999755859</ele>
        <time>2022-05-26T11:48:18.000Z</time>
      </trkpt>
      <trkpt lat="44.99569" lon="5.50736">
        <ele>1298</ele>
        <time>2022-05-26T11:48:29.000Z</time>
      </trkpt>
      <trkpt lat="44.99564" lon="5.50724">
        <ele>1298.8000488281</ele>
        <time>2022-05-26T11:48:37.000Z</time>
      </trkpt>
      <trkpt lat="44.99562" lon="5.50717">
        <ele>1299</ele>
        <time>2022-05-26T11:48:43.000Z</time>
      </trkpt>
      <trkpt lat="44.99561" lon="5.50716">
        <ele>1299.1999511719</ele>
        <time>2022-05-26T11:48:44.000Z</time>
      </trkpt>
      <trkpt lat="44.99561" lon="5.50715">
        <ele>1299.1999511719</ele>
        <time>2022-05-26T11:48:45.000Z</time>
      </trkpt>
      <trkpt lat="44.99559" lon="5.50714">
        <ele>1299.4000244141</ele>
        <time>2022-05-26T11:48:47.000Z</time>
      </trkpt>
      <trkpt lat="44.99558" lon="5.50713">
        <ele>1299.5999755859</ele>
        <time>2022-05-26T11:48:48.000Z</time>
      </trkpt>
      <trkpt lat="44.99557" lon="5.50711">
        <ele>1299.8000488281</ele>
        <time>2022-05-26T11:48:50.000Z</time>
      </trkpt>
      <trkpt lat="44.99542" lon="5.50705">
        <ele>1302</ele>
        <time>2022-05-26T11:49:02.000Z</time>
      </trkpt>
      <trkpt lat="44.99535" lon="5.50704">
        <ele>1302.4000244141</ele>
        <time>2022-05-26T11:49:07.000Z</time>
      </trkpt>
      <trkpt lat="44.99527" lon="5.50702">
        <ele>1303</ele>
        <time>2022-05-26T11:49:15.000Z</time>
      </trkpt>
      <trkpt lat="44.9952" lon="5.50698">
        <ele>1303.5999755859</ele>
        <time>2022-05-26T11:49:21.000Z</time>
      </trkpt>
      <trkpt lat="44.99518" lon="5.50697">
        <ele>1303.5999755859</ele>
        <time>2022-05-26T11:49:23.000Z</time>
      </trkpt>
      <trkpt lat="44.99507" lon="5.50693">
        <ele>1304.1999511719</ele>
        <time>2022-05-26T11:49:34.000Z</time>
      </trkpt>
      <trkpt lat="44.99498" lon="5.5069">
        <ele>1304.4000244141</ele>
        <time>2022-05-26T11:49:42.000Z</time>
      </trkpt>
      <trkpt lat="44.99486" lon="5.50686">
        <ele>1304.8000488281</ele>
        <time>2022-05-26T11:49:53.000Z</time>
      </trkpt>
      <trkpt lat="44.99485" lon="5.50685">
        <ele>1304.8000488281</ele>
        <time>2022-05-26T11:49:54.000Z</time>
      </trkpt>
      <trkpt lat="44.99483" lon="5.50684">
        <ele>1305</ele>
        <time>2022-05-26T11:49:56.000Z</time>
      </trkpt>
      <trkpt lat="44.99482" lon="5.50683">
        <ele>1305</ele>
        <time>2022-05-26T11:49:57.000Z</time>
      </trkpt>
      <trkpt lat="44.99472" lon="5.50677">
        <ele>1306</ele>
        <time>2022-05-26T11:50:10.000Z</time>
      </trkpt>
      <trkpt lat="44.9947" lon="5.50675">
        <ele>1306</ele>
        <time>2022-05-26T11:50:12.000Z</time>
      </trkpt>
      <trkpt lat="44.99465" lon="5.5067">
        <ele>1306.4000244141</ele>
        <time>2022-05-26T11:50:18.000Z</time>
      </trkpt>
      <trkpt lat="44.99464" lon="5.50668">
        <ele>1306.4000244141</ele>
        <time>2022-05-26T11:50:20.000Z</time>
      </trkpt>
      <trkpt lat="44.99448" lon="5.50659">
        <ele>1308.5999755859</ele>
        <time>2022-05-26T11:50:39.000Z</time>
      </trkpt>
      <trkpt lat="44.99443" lon="5.50658">
        <ele>1309.4000244141</ele>
        <time>2022-05-26T11:50:44.000Z</time>
      </trkpt>
      <trkpt lat="44.99441" lon="5.50658">
        <ele>1309.8000488281</ele>
        <time>2022-05-26T11:50:47.000Z</time>
      </trkpt>
      <trkpt lat="44.99436" lon="5.50657">
        <ele>1310.5999755859</ele>
        <time>2022-05-26T11:50:54.000Z</time>
      </trkpt>
      <trkpt lat="44.99436" lon="5.50656">
        <ele>1310.5999755859</ele>
        <time>2022-05-26T11:50:56.000Z</time>
      </trkpt>
      <trkpt lat="44.99437" lon="5.50655">
        <ele>1310.4000244141</ele>
        <time>2022-05-26T11:51:03.000Z</time>
      </trkpt>
      <trkpt lat="44.99437" lon="5.50655">
        <ele>1310.4000244141</ele>
        <time>2022-05-26T11:51:04.000Z</time>
      </trkpt>
      <trkpt lat="44.99437" lon="5.50654">
        <ele>1310.4000244141</ele>
        <time>2022-05-26T11:51:05.000Z</time>
      </trkpt>
      <trkpt lat="44.99437" lon="5.50654">
        <ele>1310.4000244141</ele>
        <time>2022-05-26T11:51:06.000Z</time>
      </trkpt>
      <trkpt lat="44.99437" lon="5.50654">
        <ele>1310.4000244141</ele>
        <time>2022-05-26T11:51:07.000Z</time>
      </trkpt>
      <trkpt lat="44.99438" lon="5.50654">
        <ele>1310.1999511719</ele>
        <time>2022-05-26T11:51:13.000Z</time>
      </trkpt>
      <trkpt lat="44.99438" lon="5.50655">
        <ele>1310.1999511719</ele>
        <time>2022-05-26T11:51:15.000Z</time>
      </trkpt>
      <trkpt lat="44.99438" lon="5.50655">
        <ele>1310.1999511719</ele>
        <time>2022-05-26T11:51:16.000Z</time>
      </trkpt>
      <trkpt lat="44.99438" lon="5.50656">
        <ele>1310.1999511719</ele>
        <time>2022-05-26T11:51:18.000Z</time>
      </trkpt>
      <trkpt lat="44.99438" lon="5.50655">
        <ele>1310.1999511719</ele>
        <time>2022-05-26T11:51:22.000Z</time>
      </trkpt>
      <trkpt lat="44.99439" lon="5.50655">
        <ele>1310</ele>
        <time>2022-05-26T11:51:23.000Z</time>
      </trkpt>
      <trkpt lat="44.99439" lon="5.50655">
        <ele>1310</ele>
        <time>2022-05-26T11:51:24.000Z</time>
      </trkpt>
      <trkpt lat="44.99439" lon="5.50655">
        <ele>1310</ele>
        <time>2022-05-26T11:51:25.000Z</time>
      </trkpt>
      <trkpt lat="44.99439" lon="5.50655">
        <ele>1310</ele>
        <time>2022-05-26T11:51:26.000Z</time>
      </trkpt>
      <trkpt lat="44.99439" lon="5.50655">
        <ele>1310</ele>
        <time>2022-05-26T11:51:27.000Z</time>
      </trkpt>
      <trkpt lat="44.99439" lon="5.50655">
        <ele>1310</ele>
        <time>2022-05-26T11:51:28.000Z</time>
      </trkpt>
      <trkpt lat="44.99439" lon="5.50656">
        <ele>1310.1999511719</ele>
        <time>2022-05-26T11:51:29.000Z</time>
      </trkpt>
      <trkpt lat="44.99439" lon="5.50656">
        <ele>1310.1999511719</ele>
        <time>2022-05-26T11:51:30.000Z</time>
      </trkpt>
      <trkpt lat="44.99438" lon="5.50656">
        <ele>1310.1999511719</ele>
        <time>2022-05-26T11:51:31.000Z</time>
      </trkpt>
      <trkpt lat="44.99438" lon="5.50656">
        <ele>1310.1999511719</ele>
        <time>2022-05-26T11:51:32.000Z</time>
      </trkpt>
      <trkpt lat="44.99438" lon="5.50657">
        <ele>1310.1999511719</ele>
        <time>2022-05-26T11:51:44.000Z</time>
      </trkpt>
      <trkpt lat="44.99438" lon="5.50657">
        <ele>1310.1999511719</ele>
        <time>2022-05-26T11:51:45.000Z</time>
      </trkpt>
      <trkpt lat="44.99438" lon="5.50657">
        <ele>1310.1999511719</ele>
        <time>2022-05-26T11:51:46.000Z</time>
      </trkpt>
      <trkpt lat="44.99438" lon="5.50657">
        <ele>1310.1999511719</ele>
        <time>2022-05-26T11:51:48.000Z</time>
      </trkpt>
      <trkpt lat="44.99438" lon="5.50657">
        <ele>1310.1999511719</ele>
        <time>2022-05-26T11:51:49.000Z</time>
      </trkpt>
      <trkpt lat="44.99438" lon="5.50657">
        <ele>1310.1999511719</ele>
        <time>2022-05-26T11:51:53.000Z</time>
      </trkpt>
      <trkpt lat="44.99438" lon="5.50658">
        <ele>1310.1999511719</ele>
        <time>2022-05-26T11:51:55.000Z</time>
      </trkpt>
      <trkpt lat="44.99439" lon="5.50658">
        <ele>1310.1999511719</ele>
        <time>2022-05-26T11:52:01.000Z</time>
      </trkpt>
      <trkpt lat="44.99438" lon="5.5065">
        <ele>1310</ele>
        <time>2022-05-26T11:52:32.000Z</time>
      </trkpt>
      <trkpt lat="44.99437" lon="5.50653">
        <ele>1310.1999511719</ele>
        <time>2022-05-26T11:52:39.000Z</time>
      </trkpt>
      <trkpt lat="44.99438" lon="5.50655">
        <ele>1310.1999511719</ele>
        <time>2022-05-26T11:52:54.000Z</time>
      </trkpt>
      <trkpt lat="44.99437" lon="5.50654">
        <ele>1310.4000244141</ele>
        <time>2022-05-26T11:52:57.000Z</time>
      </trkpt>
      <trkpt lat="44.99437" lon="5.50654">
        <ele>1310.4000244141</ele>
        <time>2022-05-26T11:53:06.000Z</time>
      </trkpt>
      <trkpt lat="44.99437" lon="5.50655">
        <ele>1310.4000244141</ele>
        <time>2022-05-26T11:53:10.000Z</time>
      </trkpt>
      <trkpt lat="44.99436" lon="5.50655">
        <ele>1310.4000244141</ele>
        <time>2022-05-26T11:53:15.000Z</time>
      </trkpt>
      <trkpt lat="44.99435" lon="5.50653">
        <ele>1310.5999755859</ele>
        <time>2022-05-26T11:53:19.000Z</time>
      </trkpt>
      <trkpt lat="44.99435" lon="5.50652">
        <ele>1310.5999755859</ele>
        <time>2022-05-26T11:53:21.000Z</time>
      </trkpt>
      <trkpt lat="44.99434" lon="5.50652">
        <ele>1310.8000488281</ele>
        <time>2022-05-26T11:53:22.000Z</time>
      </trkpt>
      <trkpt lat="44.99433" lon="5.50651">
        <ele>1311</ele>
        <time>2022-05-26T11:53:23.000Z</time>
      </trkpt>
      <trkpt lat="44.99432" lon="5.5065">
        <ele>1311.1999511719</ele>
        <time>2022-05-26T11:53:24.000Z</time>
      </trkpt>
      <trkpt lat="44.99431" lon="5.5065">
        <ele>1311.1999511719</ele>
        <time>2022-05-26T11:53:25.000Z</time>
      </trkpt>
      <trkpt lat="44.9943" lon="5.50649">
        <ele>1311.4000244141</ele>
        <time>2022-05-26T11:53:26.000Z</time>
      </trkpt>
      <trkpt lat="44.99428" lon="5.50648">
        <ele>1311.5999755859</ele>
        <time>2022-05-26T11:53:27.000Z</time>
      </trkpt>
      <trkpt lat="44.99427" lon="5.50647">
        <ele>1311.8000488281</ele>
        <time>2022-05-26T11:53:28.000Z</time>
      </trkpt>
      <trkpt lat="44.99425" lon="5.50646">
        <ele>1312</ele>
        <time>2022-05-26T11:53:30.000Z</time>
      </trkpt>
      <trkpt lat="44.99422" lon="5.50644">
        <ele>1312.4000244141</ele>
        <time>2022-05-26T11:53:32.000Z</time>
      </trkpt>
      <trkpt lat="44.9942" lon="5.50643">
        <ele>1312.5999755859</ele>
        <time>2022-05-26T11:53:33.000Z</time>
      </trkpt>
      <trkpt lat="44.99419" lon="5.50643">
        <ele>1312.8000488281</ele>
        <time>2022-05-26T11:53:34.000Z</time>
      </trkpt>
      <trkpt lat="44.99413" lon="5.50644">
        <ele>1313.5999755859</ele>
        <time>2022-05-26T11:53:39.000Z</time>
      </trkpt>
      <trkpt lat="44.99408" lon="5.50645">
        <ele>1314.4000244141</ele>
        <time>2022-05-26T11:53:43.000Z</time>
      </trkpt>
      <trkpt lat="44.99404" lon="5.50645">
        <ele>1315</ele>
        <time>2022-05-26T11:53:46.000Z</time>
      </trkpt>
      <trkpt lat="44.99403" lon="5.50645">
        <ele>1315.1999511719</ele>
        <time>2022-05-26T11:53:47.000Z</time>
      </trkpt>
      <trkpt lat="44.99401" lon="5.50647">
        <ele>1315.4000244141</ele>
        <time>2022-05-26T11:53:48.000Z</time>
      </trkpt>
      <trkpt lat="44.994" lon="5.50647">
        <ele>1315.5999755859</ele>
        <time>2022-05-26T11:53:49.000Z</time>
      </trkpt>
      <trkpt lat="44.99398" lon="5.50648">
        <ele>1315.8000488281</ele>
        <time>2022-05-26T11:53:50.000Z</time>
      </trkpt>
      <trkpt lat="44.99398" lon="5.50649">
        <ele>1316</ele>
        <time>2022-05-26T11:53:51.000Z</time>
      </trkpt>
      <trkpt lat="44.99396" lon="5.50651">
        <ele>1316.1999511719</ele>
        <time>2022-05-26T11:53:53.000Z</time>
      </trkpt>
      <trkpt lat="44.99391" lon="5.50656">
        <ele>1317</ele>
        <time>2022-05-26T11:53:59.000Z</time>
      </trkpt>
      <trkpt lat="44.9939" lon="5.50657">
        <ele>1317.1999511719</ele>
        <time>2022-05-26T11:54:01.000Z</time>
      </trkpt>
      <trkpt lat="44.99388" lon="5.50659">
        <ele>1317.5999755859</ele>
        <time>2022-05-26T11:54:04.000Z</time>
      </trkpt>
      <trkpt lat="44.99383" lon="5.50659">
        <ele>1318.4000244141</ele>
        <time>2022-05-26T11:54:08.000Z</time>
      </trkpt>
      <trkpt lat="44.99382" lon="5.5066">
        <ele>1318.5999755859</ele>
        <time>2022-05-26T11:54:09.000Z</time>
      </trkpt>
      <trkpt lat="44.99378" lon="5.50661">
        <ele>1319.1999511719</ele>
        <time>2022-05-26T11:54:12.000Z</time>
      </trkpt>
      <trkpt lat="44.9936" lon="5.50659">
        <ele>1320.8000488281</ele>
        <time>2022-05-26T11:54:24.000Z</time>
      </trkpt>
      <trkpt lat="44.99349" lon="5.50652">
        <ele>1321.4000244141</ele>
        <time>2022-05-26T11:54:32.000Z</time>
      </trkpt>
      <trkpt lat="44.99347" lon="5.50651">
        <ele>1321.4000244141</ele>
        <time>2022-05-26T11:54:34.000Z</time>
      </trkpt>
      <trkpt lat="44.99343" lon="5.50649">
        <ele>1321.8000488281</ele>
        <time>2022-05-26T11:54:37.000Z</time>
      </trkpt>
      <trkpt lat="44.99326" lon="5.50638">
        <ele>1323.1999511719</ele>
        <time>2022-05-26T11:54:52.000Z</time>
      </trkpt>
      <trkpt lat="44.99317" lon="5.5063">
        <ele>1323.8000488281</ele>
        <time>2022-05-26T11:54:59.000Z</time>
      </trkpt>
      <trkpt lat="44.9931" lon="5.50608">
        <ele>1323.8000488281</ele>
        <time>2022-05-26T11:55:18.000Z</time>
      </trkpt>
      <trkpt lat="44.9931" lon="5.50607">
        <ele>1323.5999755859</ele>
        <time>2022-05-26T11:55:19.000Z</time>
      </trkpt>
      <trkpt lat="44.99308" lon="5.50603">
        <ele>1323.5999755859</ele>
        <time>2022-05-26T11:55:21.000Z</time>
      </trkpt>
      <trkpt lat="44.99296" lon="5.50582">
        <ele>1323.5999755859</ele>
        <time>2022-05-26T11:55:33.000Z</time>
      </trkpt>
      <trkpt lat="44.99295" lon="5.50581">
        <ele>1323.5999755859</ele>
        <time>2022-05-26T11:55:34.000Z</time>
      </trkpt>
      <trkpt lat="44.99284" lon="5.50561">
        <ele>1323.8000488281</ele>
        <time>2022-05-26T11:55:47.000Z</time>
      </trkpt>
      <trkpt lat="44.99274" lon="5.50545">
        <ele>1324.1999511719</ele>
        <time>2022-05-26T11:55:59.000Z</time>
      </trkpt>
      <trkpt lat="44.9927" lon="5.5054">
        <ele>1324.5999755859</ele>
        <time>2022-05-26T11:56:07.000Z</time>
      </trkpt>
      <trkpt lat="44.99266" lon="5.50537">
        <ele>1324.8000488281</ele>
        <time>2022-05-26T11:56:10.000Z</time>
      </trkpt>
      <trkpt lat="44.99265" lon="5.50536">
        <ele>1325</ele>
        <time>2022-05-26T11:56:11.000Z</time>
      </trkpt>
      <trkpt lat="44.99264" lon="5.50535">
        <ele>1325</ele>
        <time>2022-05-26T11:56:14.000Z</time>
      </trkpt>
      <trkpt lat="44.99257" lon="5.50523">
        <ele>1325.5999755859</ele>
        <time>2022-05-26T11:56:28.000Z</time>
      </trkpt>
      <trkpt lat="44.99257" lon="5.50523">
        <ele>1325.8000488281</ele>
        <time>2022-05-26T11:56:29.000Z</time>
      </trkpt>
      <trkpt lat="44.99256" lon="5.50522">
        <ele>1325.8000488281</ele>
        <time>2022-05-26T11:56:30.000Z</time>
      </trkpt>
      <trkpt lat="44.99252" lon="5.5053">
        <ele>1326.1999511719</ele>
        <time>2022-05-26T11:56:46.000Z</time>
      </trkpt>
      <trkpt lat="44.99251" lon="5.50532">
        <ele>1326.4000244141</ele>
        <time>2022-05-26T11:56:49.000Z</time>
      </trkpt>
      <trkpt lat="44.9925" lon="5.50533">
        <ele>1326.4000244141</ele>
        <time>2022-05-26T11:56:51.000Z</time>
      </trkpt>
      <trkpt lat="44.99246" lon="5.50532">
        <ele>1327</ele>
        <time>2022-05-26T11:56:58.000Z</time>
      </trkpt>
      <trkpt lat="44.99244" lon="5.50532">
        <ele>1327.1999511719</ele>
        <time>2022-05-26T11:57:01.000Z</time>
      </trkpt>
      <trkpt lat="44.99243" lon="5.50531">
        <ele>1327.1999511719</ele>
        <time>2022-05-26T11:57:02.000Z</time>
      </trkpt>
      <trkpt lat="44.99242" lon="5.50531">
        <ele>1327.4000244141</ele>
        <time>2022-05-26T11:57:04.000Z</time>
      </trkpt>
      <trkpt lat="44.99239" lon="5.5053">
        <ele>1327.5999755859</ele>
        <time>2022-05-26T11:57:08.000Z</time>
      </trkpt>
      <trkpt lat="44.99239" lon="5.5053">
        <ele>1327.5999755859</ele>
        <time>2022-05-26T11:57:09.000Z</time>
      </trkpt>
      <trkpt lat="44.99239" lon="5.50529">
        <ele>1327.8000488281</ele>
        <time>2022-05-26T11:57:10.000Z</time>
      </trkpt>
      <trkpt lat="44.99237" lon="5.50528">
        <ele>1328</ele>
        <time>2022-05-26T11:57:12.000Z</time>
      </trkpt>
      <trkpt lat="44.99235" lon="5.50527">
        <ele>1328</ele>
        <time>2022-05-26T11:57:14.000Z</time>
      </trkpt>
      <trkpt lat="44.99233" lon="5.50524">
        <ele>1328.1999511719</ele>
        <time>2022-05-26T11:57:20.000Z</time>
      </trkpt>
      <trkpt lat="44.99232" lon="5.50523">
        <ele>1328.4000244141</ele>
        <time>2022-05-26T11:57:22.000Z</time>
      </trkpt>
      <trkpt lat="44.99231" lon="5.50522">
        <ele>1328.5999755859</ele>
        <time>2022-05-26T11:57:24.000Z</time>
      </trkpt>
      <trkpt lat="44.99227" lon="5.50517">
        <ele>1329</ele>
        <time>2022-05-26T11:57:27.000Z</time>
      </trkpt>
      <trkpt lat="44.99226" lon="5.50516">
        <ele>1329</ele>
        <time>2022-05-26T11:57:28.000Z</time>
      </trkpt>
      <trkpt lat="44.99226" lon="5.50515">
        <ele>1329.1999511719</ele>
        <time>2022-05-26T11:57:29.000Z</time>
      </trkpt>
      <trkpt lat="44.99224" lon="5.50514">
        <ele>1329.1999511719</ele>
        <time>2022-05-26T11:57:30.000Z</time>
      </trkpt>
      <trkpt lat="44.9922" lon="5.5051">
        <ele>1329.5999755859</ele>
        <time>2022-05-26T11:57:34.000Z</time>
      </trkpt>
      <trkpt lat="44.99217" lon="5.50506">
        <ele>1330</ele>
        <time>2022-05-26T11:57:39.000Z</time>
      </trkpt>
      <trkpt lat="44.99216" lon="5.50505">
        <ele>1330</ele>
        <time>2022-05-26T11:57:40.000Z</time>
      </trkpt>
      <trkpt lat="44.99216" lon="5.50504">
        <ele>1330.1999511719</ele>
        <time>2022-05-26T11:57:42.000Z</time>
      </trkpt>
      <trkpt lat="44.99214" lon="5.50502">
        <ele>1330.4000244141</ele>
        <time>2022-05-26T11:57:44.000Z</time>
      </trkpt>
      <trkpt lat="44.99212" lon="5.50499">
        <ele>1330.5999755859</ele>
        <time>2022-05-26T11:57:49.000Z</time>
      </trkpt>
      <trkpt lat="44.99208" lon="5.50497">
        <ele>1331</ele>
        <time>2022-05-26T11:57:55.000Z</time>
      </trkpt>
      <trkpt lat="44.99206" lon="5.50497">
        <ele>1331.1999511719</ele>
        <time>2022-05-26T11:57:57.000Z</time>
      </trkpt>
      <trkpt lat="44.99205" lon="5.50497">
        <ele>1331.5999755859</ele>
        <time>2022-05-26T11:57:59.000Z</time>
      </trkpt>
      <trkpt lat="44.99204" lon="5.50496">
        <ele>1331.8000488281</ele>
        <time>2022-05-26T11:58:00.000Z</time>
      </trkpt>
      <trkpt lat="44.99202" lon="5.50494">
        <ele>1332</ele>
        <time>2022-05-26T11:58:04.000Z</time>
      </trkpt>
      <trkpt lat="44.992" lon="5.50491">
        <ele>1332.4000244141</ele>
        <time>2022-05-26T11:58:08.000Z</time>
      </trkpt>
      <trkpt lat="44.99199" lon="5.50488">
        <ele>1332.5999755859</ele>
        <time>2022-05-26T11:58:12.000Z</time>
      </trkpt>
      <trkpt lat="44.99197" lon="5.50485">
        <ele>1332.8000488281</ele>
        <time>2022-05-26T11:58:14.000Z</time>
      </trkpt>
      <trkpt lat="44.99197" lon="5.50481">
        <ele>1332.8000488281</ele>
        <time>2022-05-26T11:58:20.000Z</time>
      </trkpt>
      <trkpt lat="44.99196" lon="5.5048">
        <ele>1332.8000488281</ele>
        <time>2022-05-26T11:58:24.000Z</time>
      </trkpt>
      <trkpt lat="44.99196" lon="5.5048">
        <ele>1332.8000488281</ele>
        <time>2022-05-26T11:58:25.000Z</time>
      </trkpt>
      <trkpt lat="44.99197" lon="5.50479">
        <ele>1332.8000488281</ele>
        <time>2022-05-26T11:58:27.000Z</time>
      </trkpt>
      <trkpt lat="44.99196" lon="5.50479">
        <ele>1332.8000488281</ele>
        <time>2022-05-26T11:58:33.000Z</time>
      </trkpt>
      <trkpt lat="44.99196" lon="5.50481">
        <ele>1333</ele>
        <time>2022-05-26T11:58:50.000Z</time>
      </trkpt>
      <trkpt lat="44.99195" lon="5.50482">
        <ele>1333.1999511719</ele>
        <time>2022-05-26T11:58:54.000Z</time>
      </trkpt>
      <trkpt lat="44.99194" lon="5.50481">
        <ele>1333.4000244141</ele>
        <time>2022-05-26T11:58:56.000Z</time>
      </trkpt>
      <trkpt lat="44.99194" lon="5.50479">
        <ele>1333.4000244141</ele>
        <time>2022-05-26T11:59:02.000Z</time>
      </trkpt>
      <trkpt lat="44.99193" lon="5.50478">
        <ele>1333.4000244141</ele>
        <time>2022-05-26T11:59:11.000Z</time>
      </trkpt>
      <trkpt lat="44.99188" lon="5.50473">
        <ele>1334.1999511719</ele>
        <time>2022-05-26T11:59:21.000Z</time>
      </trkpt>
      <trkpt lat="44.99184" lon="5.50469">
        <ele>1335.1999511719</ele>
        <time>2022-05-26T11:59:30.000Z</time>
      </trkpt>
      <trkpt lat="44.99183" lon="5.50468">
        <ele>1335.4000244141</ele>
        <time>2022-05-26T11:59:32.000Z</time>
      </trkpt>
      <trkpt lat="44.99182" lon="5.50468">
        <ele>1335.4000244141</ele>
        <time>2022-05-26T11:59:33.000Z</time>
      </trkpt>
      <trkpt lat="44.99182" lon="5.50468">
        <ele>1335.5999755859</ele>
        <time>2022-05-26T11:59:34.000Z</time>
      </trkpt>
      <trkpt lat="44.99182" lon="5.50467">
        <ele>1335.4000244141</ele>
        <time>2022-05-26T11:59:35.000Z</time>
      </trkpt>
      <trkpt lat="44.99179" lon="5.50465">
        <ele>1336</ele>
        <time>2022-05-26T11:59:43.000Z</time>
      </trkpt>
      <trkpt lat="44.99172" lon="5.5046">
        <ele>1336.8000488281</ele>
        <time>2022-05-26T11:59:52.000Z</time>
      </trkpt>
      <trkpt lat="44.99168" lon="5.5046">
        <ele>1337.4000244141</ele>
        <time>2022-05-26T11:59:57.000Z</time>
      </trkpt>
      <trkpt lat="44.99166" lon="5.5046">
        <ele>1337.8000488281</ele>
        <time>2022-05-26T12:00:00.000Z</time>
      </trkpt>
      <trkpt lat="44.99163" lon="5.50459">
        <ele>1338.1999511719</ele>
        <time>2022-05-26T12:00:03.000Z</time>
      </trkpt>
      <trkpt lat="44.99162" lon="5.50459">
        <ele>1338.4000244141</ele>
        <time>2022-05-26T12:00:04.000Z</time>
      </trkpt>
      <trkpt lat="44.99152" lon="5.50456">
        <ele>1339.8000488281</ele>
        <time>2022-05-26T12:00:14.000Z</time>
      </trkpt>
      <trkpt lat="44.9915" lon="5.50455">
        <ele>1340</ele>
        <time>2022-05-26T12:00:16.000Z</time>
      </trkpt>
      <trkpt lat="44.9915" lon="5.50455">
        <ele>1340</ele>
        <time>2022-05-26T12:00:17.000Z</time>
      </trkpt>
      <trkpt lat="44.99146" lon="5.50454">
        <ele>1340.4000244141</ele>
        <time>2022-05-26T12:00:21.000Z</time>
      </trkpt>
      <trkpt lat="44.99145" lon="5.50454">
        <ele>1340.4000244141</ele>
        <time>2022-05-26T12:00:22.000Z</time>
      </trkpt>
      <trkpt lat="44.99145" lon="5.50453">
        <ele>1340.4000244141</ele>
        <time>2022-05-26T12:00:23.000Z</time>
      </trkpt>
      <trkpt lat="44.99144" lon="5.50453">
        <ele>1340.5999755859</ele>
        <time>2022-05-26T12:00:24.000Z</time>
      </trkpt>
      <trkpt lat="44.99141" lon="5.50452">
        <ele>1340.5999755859</ele>
        <time>2022-05-26T12:00:26.000Z</time>
      </trkpt>
      <trkpt lat="44.9914" lon="5.50451">
        <ele>1340.8000488281</ele>
        <time>2022-05-26T12:00:28.000Z</time>
      </trkpt>
      <trkpt lat="44.9914" lon="5.5045">
        <ele>1340.8000488281</ele>
        <time>2022-05-26T12:00:30.000Z</time>
      </trkpt>
      <trkpt lat="44.99138" lon="5.5045">
        <ele>1341</ele>
        <time>2022-05-26T12:00:34.000Z</time>
      </trkpt>
      <trkpt lat="44.99138" lon="5.5045">
        <ele>1341</ele>
        <time>2022-05-26T12:00:35.000Z</time>
      </trkpt>
      <trkpt lat="44.99134" lon="5.50445">
        <ele>1341</ele>
        <time>2022-05-26T12:00:42.000Z</time>
      </trkpt>
      <trkpt lat="44.99132" lon="5.50443">
        <ele>1341</ele>
        <time>2022-05-26T12:00:44.000Z</time>
      </trkpt>
      <trkpt lat="44.99131" lon="5.50442">
        <ele>1341</ele>
        <time>2022-05-26T12:00:45.000Z</time>
      </trkpt>
      <trkpt lat="44.9913" lon="5.50441">
        <ele>1341</ele>
        <time>2022-05-26T12:00:46.000Z</time>
      </trkpt>
      <trkpt lat="44.99124" lon="5.50437">
        <ele>1341.1999511719</ele>
        <time>2022-05-26T12:00:52.000Z</time>
      </trkpt>
      <trkpt lat="44.99121" lon="5.50434">
        <ele>1341.4000244141</ele>
        <time>2022-05-26T12:00:54.000Z</time>
      </trkpt>
      <trkpt lat="44.99118" lon="5.50431">
        <ele>1341.5999755859</ele>
        <time>2022-05-26T12:00:57.000Z</time>
      </trkpt>
      <trkpt lat="44.99106" lon="5.5042">
        <ele>1342</ele>
        <time>2022-05-26T12:01:09.000Z</time>
      </trkpt>
      <trkpt lat="44.99102" lon="5.50419">
        <ele>1342.4000244141</ele>
        <time>2022-05-26T12:01:12.000Z</time>
      </trkpt>
      <trkpt lat="44.99096" lon="5.50415">
        <ele>1343</ele>
        <time>2022-05-26T12:01:16.000Z</time>
      </trkpt>
      <trkpt lat="44.99089" lon="5.50409">
        <ele>1343.5999755859</ele>
        <time>2022-05-26T12:01:22.000Z</time>
      </trkpt>
      <trkpt lat="44.99083" lon="5.50404">
        <ele>1344</ele>
        <time>2022-05-26T12:01:31.000Z</time>
      </trkpt>
      <trkpt lat="44.99082" lon="5.504">
        <ele>1344</ele>
        <time>2022-05-26T12:01:35.000Z</time>
      </trkpt>
      <trkpt lat="44.99063" lon="5.50394">
        <ele>1345.8000488281</ele>
        <time>2022-05-26T12:01:52.000Z</time>
      </trkpt>
      <trkpt lat="44.99044" lon="5.50394">
        <ele>1348</ele>
        <time>2022-05-26T12:02:08.000Z</time>
      </trkpt>
      <trkpt lat="44.99039" lon="5.50393">
        <ele>1348.4000244141</ele>
        <time>2022-05-26T12:02:12.000Z</time>
      </trkpt>
      <trkpt lat="44.99038" lon="5.50392">
        <ele>1348.4000244141</ele>
        <time>2022-05-26T12:02:13.000Z</time>
      </trkpt>
      <trkpt lat="44.99037" lon="5.50392">
        <ele>1348.5999755859</ele>
        <time>2022-05-26T12:02:14.000Z</time>
      </trkpt>
      <trkpt lat="44.99036" lon="5.50391">
        <ele>1348.5999755859</ele>
        <time>2022-05-26T12:02:15.000Z</time>
      </trkpt>
      <trkpt lat="44.99034" lon="5.5039">
        <ele>1348.5999755859</ele>
        <time>2022-05-26T12:02:18.000Z</time>
      </trkpt>
      <trkpt lat="44.99032" lon="5.50389">
        <ele>1348.5999755859</ele>
        <time>2022-05-26T12:02:20.000Z</time>
      </trkpt>
      <trkpt lat="44.99028" lon="5.50388">
        <ele>1348.8000488281</ele>
        <time>2022-05-26T12:02:24.000Z</time>
      </trkpt>
      <trkpt lat="44.99027" lon="5.50387">
        <ele>1348.8000488281</ele>
        <time>2022-05-26T12:02:25.000Z</time>
      </trkpt>
      <trkpt lat="44.99025" lon="5.50387">
        <ele>1349</ele>
        <time>2022-05-26T12:02:28.000Z</time>
      </trkpt>
      <trkpt lat="44.99024" lon="5.50387">
        <ele>1349</ele>
        <time>2022-05-26T12:02:29.000Z</time>
      </trkpt>
      <trkpt lat="44.99024" lon="5.50386">
        <ele>1349</ele>
        <time>2022-05-26T12:02:30.000Z</time>
      </trkpt>
      <trkpt lat="44.99024" lon="5.50386">
        <ele>1349</ele>
        <time>2022-05-26T12:02:31.000Z</time>
      </trkpt>
      <trkpt lat="44.99022" lon="5.50385">
        <ele>1349</ele>
        <time>2022-05-26T12:02:34.000Z</time>
      </trkpt>
      <trkpt lat="44.99021" lon="5.50385">
        <ele>1349</ele>
        <time>2022-05-26T12:02:35.000Z</time>
      </trkpt>
      <trkpt lat="44.99019" lon="5.50384">
        <ele>1349</ele>
        <time>2022-05-26T12:02:37.000Z</time>
      </trkpt>
      <trkpt lat="44.99015" lon="5.50383">
        <ele>1349.1999511719</ele>
        <time>2022-05-26T12:02:41.000Z</time>
      </trkpt>
      <trkpt lat="44.99008" lon="5.50386">
        <ele>1349.8000488281</ele>
        <time>2022-05-26T12:02:49.000Z</time>
      </trkpt>
      <trkpt lat="44.99006" lon="5.50389">
        <ele>1350.1999511719</ele>
        <time>2022-05-26T12:02:52.000Z</time>
      </trkpt>
      <trkpt lat="44.99005" lon="5.5039">
        <ele>1350.4000244141</ele>
        <time>2022-05-26T12:02:55.000Z</time>
      </trkpt>
      <trkpt lat="44.99" lon="5.50394">
        <ele>1350.8000488281</ele>
        <time>2022-05-26T12:03:03.000Z</time>
      </trkpt>
      <trkpt lat="44.98996" lon="5.50392">
        <ele>1350.8000488281</ele>
        <time>2022-05-26T12:03:07.000Z</time>
      </trkpt>
      <trkpt lat="44.98989" lon="5.50392">
        <ele>1351.1999511719</ele>
        <time>2022-05-26T12:03:12.000Z</time>
      </trkpt>
      <trkpt lat="44.98988" lon="5.50393">
        <ele>1351.1999511719</ele>
        <time>2022-05-26T12:03:13.000Z</time>
      </trkpt>
      <trkpt lat="44.98985" lon="5.50395">
        <ele>1351.1999511719</ele>
        <time>2022-05-26T12:03:16.000Z</time>
      </trkpt>
      <trkpt lat="44.98981" lon="5.50396">
        <ele>1351.1999511719</ele>
        <time>2022-05-26T12:03:20.000Z</time>
      </trkpt>
      <trkpt lat="44.98979" lon="5.50397">
        <ele>1351.1999511719</ele>
        <time>2022-05-26T12:03:21.000Z</time>
      </trkpt>
      <trkpt lat="44.98974" lon="5.50399">
        <ele>1351.4000244141</ele>
        <time>2022-05-26T12:03:26.000Z</time>
      </trkpt>
      <trkpt lat="44.98973" lon="5.504">
        <ele>1351.4000244141</ele>
        <time>2022-05-26T12:03:27.000Z</time>
      </trkpt>
      <trkpt lat="44.98971" lon="5.50402">
        <ele>1351.4000244141</ele>
        <time>2022-05-26T12:03:29.000Z</time>
      </trkpt>
      <trkpt lat="44.9897" lon="5.50404">
        <ele>1352</ele>
        <time>2022-05-26T12:03:30.000Z</time>
      </trkpt>
      <trkpt lat="44.98969" lon="5.50409">
        <ele>1353.4000244141</ele>
        <time>2022-05-26T12:03:34.000Z</time>
      </trkpt>
      <trkpt lat="44.98968" lon="5.5041">
        <ele>1353.8000488281</ele>
        <time>2022-05-26T12:03:35.000Z</time>
      </trkpt>
      <trkpt lat="44.98966" lon="5.50411">
        <ele>1354.1999511719</ele>
        <time>2022-05-26T12:03:38.000Z</time>
      </trkpt>
      <trkpt lat="44.98959" lon="5.50418">
        <ele>1357</ele>
        <time>2022-05-26T12:03:46.000Z</time>
      </trkpt>
      <trkpt lat="44.98958" lon="5.50419">
        <ele>1357.1999511719</ele>
        <time>2022-05-26T12:03:47.000Z</time>
      </trkpt>
      <trkpt lat="44.98957" lon="5.50419">
        <ele>1357.1999511719</ele>
        <time>2022-05-26T12:03:48.000Z</time>
      </trkpt>
      <trkpt lat="44.98956" lon="5.50419">
        <ele>1357.4000244141</ele>
        <time>2022-05-26T12:03:49.000Z</time>
      </trkpt>
      <trkpt lat="44.98946" lon="5.50413">
        <ele>1356.5999755859</ele>
        <time>2022-05-26T12:03:59.000Z</time>
      </trkpt>
      <trkpt lat="44.98941" lon="5.50406">
        <ele>1355.1999511719</ele>
        <time>2022-05-26T12:04:07.000Z</time>
      </trkpt>
      <trkpt lat="44.9894" lon="5.50405">
        <ele>1355</ele>
        <time>2022-05-26T12:04:09.000Z</time>
      </trkpt>
      <trkpt lat="44.98935" lon="5.50401">
        <ele>1354.4000244141</ele>
        <time>2022-05-26T12:04:17.000Z</time>
      </trkpt>
      <trkpt lat="44.98933" lon="5.504">
        <ele>1354.1999511719</ele>
        <time>2022-05-26T12:04:20.000Z</time>
      </trkpt>
      <trkpt lat="44.98932" lon="5.504">
        <ele>1354.1999511719</ele>
        <time>2022-05-26T12:04:22.000Z</time>
      </trkpt>
      <trkpt lat="44.98928" lon="5.50399">
        <ele>1354.4000244141</ele>
        <time>2022-05-26T12:04:26.000Z</time>
      </trkpt>
      <trkpt lat="44.98926" lon="5.504">
        <ele>1354.5999755859</ele>
        <time>2022-05-26T12:04:30.000Z</time>
      </trkpt>
      <trkpt lat="44.98922" lon="5.50403">
        <ele>1355.5999755859</ele>
        <time>2022-05-26T12:04:37.000Z</time>
      </trkpt>
      <trkpt lat="44.98921" lon="5.50401">
        <ele>1355.1999511719</ele>
        <time>2022-05-26T12:04:41.000Z</time>
      </trkpt>
      <trkpt lat="44.9892" lon="5.50399">
        <ele>1355</ele>
        <time>2022-05-26T12:04:44.000Z</time>
      </trkpt>
      <trkpt lat="44.98911" lon="5.50398">
        <ele>1355.4000244141</ele>
        <time>2022-05-26T12:04:57.000Z</time>
      </trkpt>
      <trkpt lat="44.98906" lon="5.50395">
        <ele>1355</ele>
        <time>2022-05-26T12:05:03.000Z</time>
      </trkpt>
      <trkpt lat="44.98902" lon="5.50392">
        <ele>1354.5999755859</ele>
        <time>2022-05-26T12:05:12.000Z</time>
      </trkpt>
      <trkpt lat="44.98899" lon="5.5039">
        <ele>1354.5999755859</ele>
        <time>2022-05-26T12:05:15.000Z</time>
      </trkpt>
      <trkpt lat="44.98896" lon="5.50392">
        <ele>1355.1999511719</ele>
        <time>2022-05-26T12:05:19.000Z</time>
      </trkpt>
      <trkpt lat="44.98891" lon="5.50388">
        <ele>1354.5999755859</ele>
        <time>2022-05-26T12:05:23.000Z</time>
      </trkpt>
      <trkpt lat="44.98889" lon="5.50384">
        <ele>1353.8000488281</ele>
        <time>2022-05-26T12:05:27.000Z</time>
      </trkpt>
      <trkpt lat="44.98886" lon="5.50384">
        <ele>1353.8000488281</ele>
        <time>2022-05-26T12:05:36.000Z</time>
      </trkpt>
      <trkpt lat="44.98885" lon="5.50383">
        <ele>1353.8000488281</ele>
        <time>2022-05-26T12:05:37.000Z</time>
      </trkpt>
      <trkpt lat="44.98882" lon="5.50381">
        <ele>1353.5999755859</ele>
        <time>2022-05-26T12:05:41.000Z</time>
      </trkpt>
      <trkpt lat="44.98879" lon="5.50381">
        <ele>1353.5999755859</ele>
        <time>2022-05-26T12:05:44.000Z</time>
      </trkpt>
      <trkpt lat="44.98876" lon="5.50379">
        <ele>1353.4000244141</ele>
        <time>2022-05-26T12:05:46.000Z</time>
      </trkpt>
      <trkpt lat="44.98874" lon="5.50378">
        <ele>1353.1999511719</ele>
        <time>2022-05-26T12:05:48.000Z</time>
      </trkpt>
      <trkpt lat="44.98872" lon="5.50377">
        <ele>1353</ele>
        <time>2022-05-26T12:05:49.000Z</time>
      </trkpt>
      <trkpt lat="44.98871" lon="5.50376">
        <ele>1353</ele>
        <time>2022-05-26T12:05:50.000Z</time>
      </trkpt>
      <trkpt lat="44.98859" lon="5.50373">
        <ele>1353.8000488281</ele>
        <time>2022-05-26T12:06:05.000Z</time>
      </trkpt>
      <trkpt lat="44.98859" lon="5.50373">
        <ele>1353.5999755859</ele>
        <time>2022-05-26T12:06:13.000Z</time>
      </trkpt>
      <trkpt lat="44.98858" lon="5.50371">
        <ele>1353.4000244141</ele>
        <time>2022-05-26T12:06:16.000Z</time>
      </trkpt>
      <trkpt lat="44.98855" lon="5.50371">
        <ele>1353.5999755859</ele>
        <time>2022-05-26T12:06:21.000Z</time>
      </trkpt>
      <trkpt lat="44.98853" lon="5.50372">
        <ele>1353.8000488281</ele>
        <time>2022-05-26T12:06:23.000Z</time>
      </trkpt>
      <trkpt lat="44.98835" lon="5.50378">
        <ele>1355.4000244141</ele>
        <time>2022-05-26T12:06:36.000Z</time>
      </trkpt>
      <trkpt lat="44.98829" lon="5.50383">
        <ele>1356.5999755859</ele>
        <time>2022-05-26T12:06:42.000Z</time>
      </trkpt>
      <trkpt lat="44.98828" lon="5.50384">
        <ele>1356.5999755859</ele>
        <time>2022-05-26T12:06:43.000Z</time>
      </trkpt>
      <trkpt lat="44.98825" lon="5.50383">
        <ele>1356.8000488281</ele>
        <time>2022-05-26T12:06:47.000Z</time>
      </trkpt>
      <trkpt lat="44.98824" lon="5.50383">
        <ele>1356.8000488281</ele>
        <time>2022-05-26T12:06:48.000Z</time>
      </trkpt>
      <trkpt lat="44.98817" lon="5.50387">
        <ele>1357.8000488281</ele>
        <time>2022-05-26T12:06:54.000Z</time>
      </trkpt>
      <trkpt lat="44.98815" lon="5.50388">
        <ele>1358</ele>
        <time>2022-05-26T12:06:56.000Z</time>
      </trkpt>
      <trkpt lat="44.98801" lon="5.50391">
        <ele>1359</ele>
        <time>2022-05-26T12:07:06.000Z</time>
      </trkpt>
      <trkpt lat="44.988" lon="5.50391">
        <ele>1359</ele>
        <time>2022-05-26T12:07:07.000Z</time>
      </trkpt>
      <trkpt lat="44.98793" lon="5.5039">
        <ele>1359.1999511719</ele>
        <time>2022-05-26T12:07:14.000Z</time>
      </trkpt>
      <trkpt lat="44.98791" lon="5.50393">
        <ele>1359.5999755859</ele>
        <time>2022-05-26T12:07:18.000Z</time>
      </trkpt>
      <trkpt lat="44.98779" lon="5.50395">
        <ele>1361.4000244141</ele>
        <time>2022-05-26T12:07:29.000Z</time>
      </trkpt>
      <trkpt lat="44.98773" lon="5.50394">
        <ele>1362.1999511719</ele>
        <time>2022-05-26T12:07:35.000Z</time>
      </trkpt>
      <trkpt lat="44.98764" lon="5.50391">
        <ele>1363.1999511719</ele>
        <time>2022-05-26T12:07:43.000Z</time>
      </trkpt>
      <trkpt lat="44.98751" lon="5.50396">
        <ele>1365.8000488281</ele>
        <time>2022-05-26T12:07:56.000Z</time>
      </trkpt>
      <trkpt lat="44.98751" lon="5.50396">
        <ele>1365.5999755859</ele>
        <time>2022-05-26T12:07:59.000Z</time>
      </trkpt>
      <trkpt lat="44.98752" lon="5.50394">
        <ele>1365.5999755859</ele>
        <time>2022-05-26T12:08:01.000Z</time>
      </trkpt>
      <trkpt lat="44.98751" lon="5.50392">
        <ele>1365.4000244141</ele>
        <time>2022-05-26T12:08:03.000Z</time>
      </trkpt>
      <trkpt lat="44.98751" lon="5.5039">
        <ele>1365.4000244141</ele>
        <time>2022-05-26T12:08:05.000Z</time>
      </trkpt>
      <trkpt lat="44.9875" lon="5.50388">
        <ele>1365.4000244141</ele>
        <time>2022-05-26T12:08:09.000Z</time>
      </trkpt>
      <trkpt lat="44.9875" lon="5.50388">
        <ele>1365.4000244141</ele>
        <time>2022-05-26T12:08:10.000Z</time>
      </trkpt>
      <trkpt lat="44.98752" lon="5.50387">
        <ele>1365</ele>
        <time>2022-05-26T12:08:13.000Z</time>
      </trkpt>
      <trkpt lat="44.98753" lon="5.50384">
        <ele>1365</ele>
        <time>2022-05-26T12:08:16.000Z</time>
      </trkpt>
      <trkpt lat="44.98753" lon="5.5038">
        <ele>1364.8000488281</ele>
        <time>2022-05-26T12:08:19.000Z</time>
      </trkpt>
      <trkpt lat="44.98754" lon="5.50376">
        <ele>1364.5999755859</ele>
        <time>2022-05-26T12:08:22.000Z</time>
      </trkpt>
      <trkpt lat="44.98754" lon="5.50373">
        <ele>1364.1999511719</ele>
        <time>2022-05-26T12:08:24.000Z</time>
      </trkpt>
      <trkpt lat="44.98755" lon="5.50368">
        <ele>1363.8000488281</ele>
        <time>2022-05-26T12:08:27.000Z</time>
      </trkpt>
      <trkpt lat="44.98755" lon="5.50367">
        <ele>1363.4000244141</ele>
        <time>2022-05-26T12:08:29.000Z</time>
      </trkpt>
      <trkpt lat="44.98757" lon="5.50363">
        <ele>1362.8000488281</ele>
        <time>2022-05-26T12:08:32.000Z</time>
      </trkpt>
      <trkpt lat="44.98759" lon="5.50362">
        <ele>1362.1999511719</ele>
        <time>2022-05-26T12:08:34.000Z</time>
      </trkpt>
      <trkpt lat="44.98761" lon="5.50362">
        <ele>1361.5999755859</ele>
        <time>2022-05-26T12:08:39.000Z</time>
      </trkpt>
      <trkpt lat="44.98761" lon="5.5036">
        <ele>1361.5999755859</ele>
        <time>2022-05-26T12:08:42.000Z</time>
      </trkpt>
      <trkpt lat="44.98762" lon="5.50357">
        <ele>1361.4000244141</ele>
        <time>2022-05-26T12:08:45.000Z</time>
      </trkpt>
      <trkpt lat="44.98764" lon="5.50349">
        <ele>1360.5999755859</ele>
        <time>2022-05-26T12:08:52.000Z</time>
      </trkpt>
      <trkpt lat="44.98765" lon="5.50344">
        <ele>1360.1999511719</ele>
        <time>2022-05-26T12:08:56.000Z</time>
      </trkpt>
      <trkpt lat="44.98767" lon="5.50341">
        <ele>1359.5999755859</ele>
        <time>2022-05-26T12:08:59.000Z</time>
      </trkpt>
      <trkpt lat="44.98767" lon="5.5033">
        <ele>1358.8000488281</ele>
        <time>2022-05-26T12:09:05.000Z</time>
      </trkpt>
      <trkpt lat="44.9877" lon="5.50317">
        <ele>1357.4000244141</ele>
        <time>2022-05-26T12:09:13.000Z</time>
      </trkpt>
      <trkpt lat="44.98775" lon="5.50315">
        <ele>1355.8000488281</ele>
        <time>2022-05-26T12:09:17.000Z</time>
      </trkpt>
      <trkpt lat="44.98777" lon="5.50312">
        <ele>1354.8000488281</ele>
        <time>2022-05-26T12:09:20.000Z</time>
      </trkpt>
      <trkpt lat="44.98777" lon="5.50297">
        <ele>1354</ele>
        <time>2022-05-26T12:09:29.000Z</time>
      </trkpt>
      <trkpt lat="44.98778" lon="5.50293">
        <ele>1353.4000244141</ele>
        <time>2022-05-26T12:09:33.000Z</time>
      </trkpt>
      <trkpt lat="44.98778" lon="5.5029">
        <ele>1353.1999511719</ele>
        <time>2022-05-26T12:09:37.000Z</time>
      </trkpt>
      <trkpt lat="44.98779" lon="5.50288">
        <ele>1352.8000488281</ele>
        <time>2022-05-26T12:09:41.000Z</time>
      </trkpt>
      <trkpt lat="44.98779" lon="5.50287">
        <ele>1352.5999755859</ele>
        <time>2022-05-26T12:09:46.000Z</time>
      </trkpt>
      <trkpt lat="44.98779" lon="5.50287">
        <ele>1352.8000488281</ele>
        <time>2022-05-26T12:09:49.000Z</time>
      </trkpt>
      <trkpt lat="44.9878" lon="5.50288">
        <ele>1352.5999755859</ele>
        <time>2022-05-26T12:09:52.000Z</time>
      </trkpt>
      <trkpt lat="44.9878" lon="5.50288">
        <ele>1352.5999755859</ele>
        <time>2022-05-26T12:09:54.000Z</time>
      </trkpt>
      <trkpt lat="44.98781" lon="5.50287">
        <ele>1352</ele>
        <time>2022-05-26T12:09:58.000Z</time>
      </trkpt>
      <trkpt lat="44.98783" lon="5.50285">
        <ele>1351.4000244141</ele>
        <time>2022-05-26T12:10:03.000Z</time>
      </trkpt>
      <trkpt lat="44.98783" lon="5.50284">
        <ele>1351.1999511719</ele>
        <time>2022-05-26T12:10:05.000Z</time>
      </trkpt>
      <trkpt lat="44.988" lon="5.50269">
        <ele>1345.4000244141</ele>
        <time>2022-05-26T12:10:29.000Z</time>
      </trkpt>
      <trkpt lat="44.98805" lon="5.50267">
        <ele>1343.4000244141</ele>
        <time>2022-05-26T12:10:39.000Z</time>
      </trkpt>
      <trkpt lat="44.98809" lon="5.50268">
        <ele>1341.5999755859</ele>
        <time>2022-05-26T12:10:44.000Z</time>
      </trkpt>
      <trkpt lat="44.9881" lon="5.50267">
        <ele>1341.4000244141</ele>
        <time>2022-05-26T12:10:46.000Z</time>
      </trkpt>
      <trkpt lat="44.98811" lon="5.50266">
        <ele>1341.4000244141</ele>
        <time>2022-05-26T12:10:47.000Z</time>
      </trkpt>
      <trkpt lat="44.98811" lon="5.50265">
        <ele>1341.1999511719</ele>
        <time>2022-05-26T12:10:48.000Z</time>
      </trkpt>
      <trkpt lat="44.98818" lon="5.50261">
        <ele>1339.1999511719</ele>
        <time>2022-05-26T12:10:56.000Z</time>
      </trkpt>
      <trkpt lat="44.98819" lon="5.50261">
        <ele>1338.8000488281</ele>
        <time>2022-05-26T12:10:57.000Z</time>
      </trkpt>
      <trkpt lat="44.98827" lon="5.50254">
        <ele>1338.1999511719</ele>
        <time>2022-05-26T12:11:08.000Z</time>
      </trkpt>
      <trkpt lat="44.9883" lon="5.50248">
        <ele>1337.1999511719</ele>
        <time>2022-05-26T12:11:13.000Z</time>
      </trkpt>
      <trkpt lat="44.98834" lon="5.50244">
        <ele>1336.8000488281</ele>
        <time>2022-05-26T12:11:16.000Z</time>
      </trkpt>
      <trkpt lat="44.98843" lon="5.50232">
        <ele>1336</ele>
        <time>2022-05-26T12:11:26.000Z</time>
      </trkpt>
      <trkpt lat="44.98844" lon="5.50231">
        <ele>1335.8000488281</ele>
        <time>2022-05-26T12:11:27.000Z</time>
      </trkpt>
      <trkpt lat="44.9885" lon="5.50226">
        <ele>1335.4000244141</ele>
        <time>2022-05-26T12:11:34.000Z</time>
      </trkpt>
      <trkpt lat="44.98853" lon="5.50223">
        <ele>1335</ele>
        <time>2022-05-26T12:11:37.000Z</time>
      </trkpt>
      <trkpt lat="44.98855" lon="5.50222">
        <ele>1335</ele>
        <time>2022-05-26T12:11:39.000Z</time>
      </trkpt>
      <trkpt lat="44.98855" lon="5.50222">
        <ele>1334.8000488281</ele>
        <time>2022-05-26T12:11:43.000Z</time>
      </trkpt>
      <trkpt lat="44.98859" lon="5.50217">
        <ele>1335.1999511719</ele>
        <time>2022-05-26T12:11:55.000Z</time>
      </trkpt>
      <trkpt lat="44.9886" lon="5.50216">
        <ele>1335.1999511719</ele>
        <time>2022-05-26T12:11:58.000Z</time>
      </trkpt>
      <trkpt lat="44.98863" lon="5.50213">
        <ele>1335.4000244141</ele>
        <time>2022-05-26T12:12:07.000Z</time>
      </trkpt>
      <trkpt lat="44.98863" lon="5.50212">
        <ele>1335.4000244141</ele>
        <time>2022-05-26T12:12:09.000Z</time>
      </trkpt>
      <trkpt lat="44.98863" lon="5.50212">
        <ele>1335.4000244141</ele>
        <time>2022-05-26T12:12:10.000Z</time>
      </trkpt>
      <trkpt lat="44.98863" lon="5.50212">
        <ele>1335.4000244141</ele>
        <time>2022-05-26T12:12:11.000Z</time>
      </trkpt>
      <trkpt lat="44.98863" lon="5.50213">
        <ele>1335.4000244141</ele>
        <time>2022-05-26T12:12:12.000Z</time>
      </trkpt>
      <trkpt lat="44.98866" lon="5.50205">
        <ele>1336</ele>
        <time>2022-05-26T12:12:26.000Z</time>
      </trkpt>
      <trkpt lat="44.98868" lon="5.502">
        <ele>1336.5999755859</ele>
        <time>2022-05-26T12:12:30.000Z</time>
      </trkpt>
      <trkpt lat="44.98872" lon="5.5019">
        <ele>1337</ele>
        <time>2022-05-26T12:12:37.000Z</time>
      </trkpt>
      <trkpt lat="44.98876" lon="5.50184">
        <ele>1337</ele>
        <time>2022-05-26T12:12:44.000Z</time>
      </trkpt>
      <trkpt lat="44.98877" lon="5.50184">
        <ele>1337</ele>
        <time>2022-05-26T12:12:45.000Z</time>
      </trkpt>
      <trkpt lat="44.98877" lon="5.50183">
        <ele>1337</ele>
        <time>2022-05-26T12:12:48.000Z</time>
      </trkpt>
      <trkpt lat="44.98877" lon="5.50182">
        <ele>1337</ele>
        <time>2022-05-26T12:12:50.000Z</time>
      </trkpt>
      <trkpt lat="44.98878" lon="5.5018">
        <ele>1337.1999511719</ele>
        <time>2022-05-26T12:12:52.000Z</time>
      </trkpt>
      <trkpt lat="44.98879" lon="5.50178">
        <ele>1337.4000244141</ele>
        <time>2022-05-26T12:12:55.000Z</time>
      </trkpt>
      <trkpt lat="44.98881" lon="5.50173">
        <ele>1337.5999755859</ele>
        <time>2022-05-26T12:13:01.000Z</time>
      </trkpt>
      <trkpt lat="44.98882" lon="5.50173">
        <ele>1337.5999755859</ele>
        <time>2022-05-26T12:13:03.000Z</time>
      </trkpt>
      <trkpt lat="44.98888" lon="5.50159">
        <ele>1337.5999755859</ele>
        <time>2022-05-26T12:13:17.000Z</time>
      </trkpt>
      <trkpt lat="44.98885" lon="5.50157">
        <ele>1338.1999511719</ele>
        <time>2022-05-26T12:13:44.000Z</time>
      </trkpt>
      <trkpt lat="44.98885" lon="5.50156">
        <ele>1338.1999511719</ele>
        <time>2022-05-26T12:14:02.000Z</time>
      </trkpt>
      <trkpt lat="44.9889" lon="5.5015">
        <ele>1337.8000488281</ele>
        <time>2022-05-26T12:14:15.000Z</time>
      </trkpt>
      <trkpt lat="44.98898" lon="5.50145">
        <ele>1336.5999755859</ele>
        <time>2022-05-26T12:14:22.000Z</time>
      </trkpt>
      <trkpt lat="44.98901" lon="5.50133">
        <ele>1337</ele>
        <time>2022-05-26T12:14:30.000Z</time>
      </trkpt>
      <trkpt lat="44.98902" lon="5.50132">
        <ele>1336.8000488281</ele>
        <time>2022-05-26T12:14:32.000Z</time>
      </trkpt>
      <trkpt lat="44.98902" lon="5.5013">
        <ele>1337</ele>
        <time>2022-05-26T12:14:34.000Z</time>
      </trkpt>
      <trkpt lat="44.98903" lon="5.50129">
        <ele>1337</ele>
        <time>2022-05-26T12:14:35.000Z</time>
      </trkpt>
      <trkpt lat="44.98903" lon="5.50126">
        <ele>1337.4000244141</ele>
        <time>2022-05-26T12:14:38.000Z</time>
      </trkpt>
      <trkpt lat="44.98903" lon="5.50124">
        <ele>1337.5999755859</ele>
        <time>2022-05-26T12:14:40.000Z</time>
      </trkpt>
      <trkpt lat="44.98903" lon="5.50123">
        <ele>1337.5999755859</ele>
        <time>2022-05-26T12:14:41.000Z</time>
      </trkpt>
      <trkpt lat="44.98905" lon="5.5012">
        <ele>1337.5999755859</ele>
        <time>2022-05-26T12:14:44.000Z</time>
      </trkpt>
      <trkpt lat="44.98915" lon="5.50105">
        <ele>1338.4000244141</ele>
        <time>2022-05-26T12:14:57.000Z</time>
      </trkpt>
      <trkpt lat="44.98919" lon="5.50101">
        <ele>1338.4000244141</ele>
        <time>2022-05-26T12:15:01.000Z</time>
      </trkpt>
      <trkpt lat="44.98922" lon="5.50099">
        <ele>1338.4000244141</ele>
        <time>2022-05-26T12:15:04.000Z</time>
      </trkpt>
      <trkpt lat="44.98924" lon="5.50098">
        <ele>1338.1999511719</ele>
        <time>2022-05-26T12:15:06.000Z</time>
      </trkpt>
      <trkpt lat="44.98928" lon="5.50094">
        <ele>1338.4000244141</ele>
        <time>2022-05-26T12:15:10.000Z</time>
      </trkpt>
      <trkpt lat="44.98931" lon="5.50093">
        <ele>1338.1999511719</ele>
        <time>2022-05-26T12:15:14.000Z</time>
      </trkpt>
      <trkpt lat="44.98931" lon="5.50093">
        <ele>1338.4000244141</ele>
        <time>2022-05-26T12:15:17.000Z</time>
      </trkpt>
      <trkpt lat="44.98937" lon="5.50075">
        <ele>1341.5999755859</ele>
        <time>2022-05-26T12:15:56.000Z</time>
      </trkpt>
      <trkpt lat="44.98938" lon="5.50065">
        <ele>1343.5999755859</ele>
        <time>2022-05-26T12:16:05.000Z</time>
      </trkpt>
      <trkpt lat="44.9894" lon="5.50062">
        <ele>1344</ele>
        <time>2022-05-26T12:16:11.000Z</time>
      </trkpt>
      <trkpt lat="44.98939" lon="5.5006">
        <ele>1344.4000244141</ele>
        <time>2022-05-26T12:16:15.000Z</time>
      </trkpt>
      <trkpt lat="44.9894" lon="5.50056">
        <ele>1344.8000488281</ele>
        <time>2022-05-26T12:16:18.000Z</time>
      </trkpt>
      <trkpt lat="44.98943" lon="5.50051">
        <ele>1345.5999755859</ele>
        <time>2022-05-26T12:16:23.000Z</time>
      </trkpt>
      <trkpt lat="44.98944" lon="5.5005">
        <ele>1345.8000488281</ele>
        <time>2022-05-26T12:16:25.000Z</time>
      </trkpt>
      <trkpt lat="44.98946" lon="5.50048">
        <ele>1345.8000488281</ele>
        <time>2022-05-26T12:16:29.000Z</time>
      </trkpt>
      <trkpt lat="44.98946" lon="5.50046">
        <ele>1346.4000244141</ele>
        <time>2022-05-26T12:16:32.000Z</time>
      </trkpt>
      <trkpt lat="44.98946" lon="5.50031">
        <ele>1349.5999755859</ele>
        <time>2022-05-26T12:16:56.000Z</time>
      </trkpt>
      <trkpt lat="44.98955" lon="5.50026">
        <ele>1349.5999755859</ele>
        <time>2022-05-26T12:17:36.000Z</time>
      </trkpt>
      <trkpt lat="44.98954" lon="5.50021">
        <ele>1350.8000488281</ele>
        <time>2022-05-26T12:17:43.000Z</time>
      </trkpt>
      <trkpt lat="44.98954" lon="5.5002">
        <ele>1351</ele>
        <time>2022-05-26T12:17:45.000Z</time>
      </trkpt>
      <trkpt lat="44.98952" lon="5.50019">
        <ele>1351.4000244141</ele>
        <time>2022-05-26T12:17:48.000Z</time>
      </trkpt>
      <trkpt lat="44.98951" lon="5.50017">
        <ele>1351.8000488281</ele>
        <time>2022-05-26T12:17:50.000Z</time>
      </trkpt>
      <trkpt lat="44.98948" lon="5.50017">
        <ele>1352.4000244141</ele>
        <time>2022-05-26T12:17:53.000Z</time>
      </trkpt>
      <trkpt lat="44.98948" lon="5.50012">
        <ele>1353.1999511719</ele>
        <time>2022-05-26T12:18:09.000Z</time>
      </trkpt>
      <trkpt lat="44.98954" lon="5.50025">
        <ele>1350</ele>
        <time>2022-05-26T12:18:34.000Z</time>
      </trkpt>
      <trkpt lat="44.98954" lon="5.50027">
        <ele>1349.5999755859</ele>
        <time>2022-05-26T12:18:38.000Z</time>
      </trkpt>
      <trkpt lat="44.98957" lon="5.5003">
        <ele>1348.5999755859</ele>
        <time>2022-05-26T12:19:01.000Z</time>
      </trkpt>
      <trkpt lat="44.98948" lon="5.50038">
        <ele>1348</ele>
        <time>2022-05-26T12:19:30.000Z</time>
      </trkpt>
      <trkpt lat="44.98948" lon="5.50038">
        <ele>1347.8000488281</ele>
        <time>2022-05-26T12:19:31.000Z</time>
      </trkpt>
      <trkpt lat="44.98947" lon="5.50038">
        <ele>1347.8000488281</ele>
        <time>2022-05-26T12:19:32.000Z</time>
      </trkpt>
      <trkpt lat="44.98943" lon="5.50046">
        <ele>1346.5999755859</ele>
        <time>2022-05-26T12:19:35.000Z</time>
      </trkpt>
      <trkpt lat="44.98939" lon="5.50053">
        <ele>1345.5999755859</ele>
        <time>2022-05-26T12:19:38.000Z</time>
      </trkpt>
      <trkpt lat="44.98938" lon="5.50057">
        <ele>1345</ele>
        <time>2022-05-26T12:19:40.000Z</time>
      </trkpt>
      <trkpt lat="44.98936" lon="5.50063">
        <ele>1344.1999511719</ele>
        <time>2022-05-26T12:19:43.000Z</time>
      </trkpt>
      <trkpt lat="44.98936" lon="5.50064">
        <ele>1343.8000488281</ele>
        <time>2022-05-26T12:19:44.000Z</time>
      </trkpt>
      <trkpt lat="44.98937" lon="5.50069">
        <ele>1343</ele>
        <time>2022-05-26T12:19:46.000Z</time>
      </trkpt>
      <trkpt lat="44.98938" lon="5.50073">
        <ele>1342</ele>
        <time>2022-05-26T12:19:48.000Z</time>
      </trkpt>
      <trkpt lat="44.98941" lon="5.5008">
        <ele>1340.4000244141</ele>
        <time>2022-05-26T12:19:52.000Z</time>
      </trkpt>
      <trkpt lat="44.98942" lon="5.50086">
        <ele>1339.1999511719</ele>
        <time>2022-05-26T12:19:55.000Z</time>
      </trkpt>
      <trkpt lat="44.98942" lon="5.50087">
        <ele>1339</ele>
        <time>2022-05-26T12:19:57.000Z</time>
      </trkpt>
      <trkpt lat="44.98938" lon="5.50087">
        <ele>1339.1999511719</ele>
        <time>2022-05-26T12:20:01.000Z</time>
      </trkpt>
      <trkpt lat="44.98938" lon="5.50086">
        <ele>1339.1999511719</ele>
        <time>2022-05-26T12:20:02.000Z</time>
      </trkpt>
      <trkpt lat="44.98924" lon="5.50098">
        <ele>1338.1999511719</ele>
        <time>2022-05-26T12:20:13.000Z</time>
      </trkpt>
      <trkpt lat="44.98914" lon="5.50108">
        <ele>1338</ele>
        <time>2022-05-26T12:20:22.000Z</time>
      </trkpt>
      <trkpt lat="44.98903" lon="5.50095">
        <ele>1341.8000488281</ele>
        <time>2022-05-26T12:20:33.000Z</time>
      </trkpt>
      <trkpt lat="44.989" lon="5.50094">
        <ele>1342.8000488281</ele>
        <time>2022-05-26T12:20:36.000Z</time>
      </trkpt>
      <trkpt lat="44.98897" lon="5.5009">
        <ele>1344.1999511719</ele>
        <time>2022-05-26T12:20:41.000Z</time>
      </trkpt>
      <trkpt lat="44.98896" lon="5.50088">
        <ele>1344.8000488281</ele>
        <time>2022-05-26T12:20:44.000Z</time>
      </trkpt>
      <trkpt lat="44.98895" lon="5.50088">
        <ele>1345</ele>
        <time>2022-05-26T12:20:47.000Z</time>
      </trkpt>
      <trkpt lat="44.98895" lon="5.50087">
        <ele>1345.4000244141</ele>
        <time>2022-05-26T12:20:48.000Z</time>
      </trkpt>
      <trkpt lat="44.98894" lon="5.50085">
        <ele>1345.8000488281</ele>
        <time>2022-05-26T12:20:52.000Z</time>
      </trkpt>
      <trkpt lat="44.98893" lon="5.50083">
        <ele>1346.1999511719</ele>
        <time>2022-05-26T12:20:54.000Z</time>
      </trkpt>
      <trkpt lat="44.98894" lon="5.50083">
        <ele>1346.4000244141</ele>
        <time>2022-05-26T12:20:55.000Z</time>
      </trkpt>
      <trkpt lat="44.98894" lon="5.5008">
        <ele>1346.8000488281</ele>
        <time>2022-05-26T12:20:59.000Z</time>
      </trkpt>
      <trkpt lat="44.98894" lon="5.50077">
        <ele>1347.4000244141</ele>
        <time>2022-05-26T12:21:02.000Z</time>
      </trkpt>
      <trkpt lat="44.98893" lon="5.50072">
        <ele>1348.8000488281</ele>
        <time>2022-05-26T12:21:06.000Z</time>
      </trkpt>
      <trkpt lat="44.98893" lon="5.50068">
        <ele>1349.5999755859</ele>
        <time>2022-05-26T12:21:08.000Z</time>
      </trkpt>
      <trkpt lat="44.98894" lon="5.50066">
        <ele>1350</ele>
        <time>2022-05-26T12:21:10.000Z</time>
      </trkpt>
      <trkpt lat="44.98895" lon="5.50061">
        <ele>1350.5999755859</ele>
        <time>2022-05-26T12:21:14.000Z</time>
      </trkpt>
      <trkpt lat="44.98896" lon="5.50059">
        <ele>1350.8000488281</ele>
        <time>2022-05-26T12:21:18.000Z</time>
      </trkpt>
      <trkpt lat="44.98897" lon="5.50056">
        <ele>1351.1999511719</ele>
        <time>2022-05-26T12:21:22.000Z</time>
      </trkpt>
      <trkpt lat="44.98898" lon="5.50054">
        <ele>1351.1999511719</ele>
        <time>2022-05-26T12:21:25.000Z</time>
      </trkpt>
      <trkpt lat="44.98899" lon="5.50052">
        <ele>1351.4000244141</ele>
        <time>2022-05-26T12:21:28.000Z</time>
      </trkpt>
      <trkpt lat="44.98899" lon="5.50052">
        <ele>1351.1999511719</ele>
        <time>2022-05-26T12:21:31.000Z</time>
      </trkpt>
      <trkpt lat="44.98899" lon="5.50053">
        <ele>1351.1999511719</ele>
        <time>2022-05-26T12:21:32.000Z</time>
      </trkpt>
      <trkpt lat="44.989" lon="5.50056">
        <ele>1350.4000244141</ele>
        <time>2022-05-26T12:21:34.000Z</time>
      </trkpt>
      <trkpt lat="44.98901" lon="5.50058">
        <ele>1349.8000488281</ele>
        <time>2022-05-26T12:21:36.000Z</time>
      </trkpt>
      <trkpt lat="44.98901" lon="5.50059">
        <ele>1349.4000244141</ele>
        <time>2022-05-26T12:21:37.000Z</time>
      </trkpt>
      <trkpt lat="44.98903" lon="5.50063">
        <ele>1348.4000244141</ele>
        <time>2022-05-26T12:21:41.000Z</time>
      </trkpt>
      <trkpt lat="44.98902" lon="5.50064">
        <ele>1348.1999511719</ele>
        <time>2022-05-26T12:21:45.000Z</time>
      </trkpt>
      <trkpt lat="44.98901" lon="5.50067">
        <ele>1348</ele>
        <time>2022-05-26T12:21:48.000Z</time>
      </trkpt>
      <trkpt lat="44.98901" lon="5.50068">
        <ele>1347.8000488281</ele>
        <time>2022-05-26T12:21:49.000Z</time>
      </trkpt>
      <trkpt lat="44.98901" lon="5.50068">
        <ele>1347.5999755859</ele>
        <time>2022-05-26T12:21:50.000Z</time>
      </trkpt>
      <trkpt lat="44.98901" lon="5.50069">
        <ele>1347.5999755859</ele>
        <time>2022-05-26T12:21:51.000Z</time>
      </trkpt>
      <trkpt lat="44.98901" lon="5.50069">
        <ele>1347.4000244141</ele>
        <time>2022-05-26T12:21:52.000Z</time>
      </trkpt>
      <trkpt lat="44.98901" lon="5.50068">
        <ele>1347.5999755859</ele>
        <time>2022-05-26T12:21:54.000Z</time>
      </trkpt>
      <trkpt lat="44.98901" lon="5.50067">
        <ele>1347.8000488281</ele>
        <time>2022-05-26T12:21:55.000Z</time>
      </trkpt>
      <trkpt lat="44.98901" lon="5.50065">
        <ele>1348.4000244141</ele>
        <time>2022-05-26T12:21:58.000Z</time>
      </trkpt>
      <trkpt lat="44.989" lon="5.50064">
        <ele>1348.8000488281</ele>
        <time>2022-05-26T12:22:01.000Z</time>
      </trkpt>
      <trkpt lat="44.989" lon="5.50062">
        <ele>1349.1999511719</ele>
        <time>2022-05-26T12:22:04.000Z</time>
      </trkpt>
      <trkpt lat="44.98901" lon="5.50061">
        <ele>1349.1999511719</ele>
        <time>2022-05-26T12:22:05.000Z</time>
      </trkpt>
      <trkpt lat="44.98901" lon="5.50061">
        <ele>1349.1999511719</ele>
        <time>2022-05-26T12:22:06.000Z</time>
      </trkpt>
      <trkpt lat="44.98901" lon="5.50059">
        <ele>1349.5999755859</ele>
        <time>2022-05-26T12:22:07.000Z</time>
      </trkpt>
      <trkpt lat="44.98901" lon="5.5004">
        <ele>1353.1999511719</ele>
        <time>2022-05-26T12:22:28.000Z</time>
      </trkpt>
      <trkpt lat="44.989" lon="5.50038">
        <ele>1353.5999755859</ele>
        <time>2022-05-26T12:22:29.000Z</time>
      </trkpt>
      <trkpt lat="44.989" lon="5.50035">
        <ele>1354.1999511719</ele>
        <time>2022-05-26T12:22:31.000Z</time>
      </trkpt>
      <trkpt lat="44.98901" lon="5.50031">
        <ele>1354.5999755859</ele>
        <time>2022-05-26T12:22:35.000Z</time>
      </trkpt>
      <trkpt lat="44.98902" lon="5.50031">
        <ele>1354.5999755859</ele>
        <time>2022-05-26T12:22:37.000Z</time>
      </trkpt>
      <trkpt lat="44.98902" lon="5.50033">
        <ele>1354.1999511719</ele>
        <time>2022-05-26T12:22:38.000Z</time>
      </trkpt>
      <trkpt lat="44.98902" lon="5.50041">
        <ele>1352.8000488281</ele>
        <time>2022-05-26T12:22:45.000Z</time>
      </trkpt>
      <trkpt lat="44.98902" lon="5.5004">
        <ele>1352.8000488281</ele>
        <time>2022-05-26T12:22:48.000Z</time>
      </trkpt>
      <trkpt lat="44.98902" lon="5.50035">
        <ele>1353.8000488281</ele>
        <time>2022-05-26T12:22:54.000Z</time>
      </trkpt>
      <trkpt lat="44.98904" lon="5.50031">
        <ele>1354.1999511719</ele>
        <time>2022-05-26T12:22:58.000Z</time>
      </trkpt>
      <trkpt lat="44.98905" lon="5.50027">
        <ele>1354.8000488281</ele>
        <time>2022-05-26T12:23:00.000Z</time>
      </trkpt>
      <trkpt lat="44.98906" lon="5.50026">
        <ele>1355.1999511719</ele>
        <time>2022-05-26T12:23:01.000Z</time>
      </trkpt>
      <trkpt lat="44.98907" lon="5.50023">
        <ele>1355.8000488281</ele>
        <time>2022-05-26T12:23:03.000Z</time>
      </trkpt>
      <trkpt lat="44.98907" lon="5.50022">
        <ele>1356</ele>
        <time>2022-05-26T12:23:04.000Z</time>
      </trkpt>
      <trkpt lat="44.98908" lon="5.5002">
        <ele>1356.4000244141</ele>
        <time>2022-05-26T12:23:07.000Z</time>
      </trkpt>
      <trkpt lat="44.98907" lon="5.50015">
        <ele>1357.8000488281</ele>
        <time>2022-05-26T12:23:15.000Z</time>
      </trkpt>
      <trkpt lat="44.98908" lon="5.50013">
        <ele>1358</ele>
        <time>2022-05-26T12:23:17.000Z</time>
      </trkpt>
      <trkpt lat="44.98908" lon="5.50012">
        <ele>1358.4000244141</ele>
        <time>2022-05-26T12:23:19.000Z</time>
      </trkpt>
      <trkpt lat="44.98908" lon="5.5001">
        <ele>1359</ele>
        <time>2022-05-26T12:23:21.000Z</time>
      </trkpt>
      <trkpt lat="44.98908" lon="5.50007">
        <ele>1359.5999755859</ele>
        <time>2022-05-26T12:23:23.000Z</time>
      </trkpt>
      <trkpt lat="44.98908" lon="5.50004">
        <ele>1360.4000244141</ele>
        <time>2022-05-26T12:23:26.000Z</time>
      </trkpt>
      <trkpt lat="44.98907" lon="5.50003">
        <ele>1360.5999755859</ele>
        <time>2022-05-26T12:23:28.000Z</time>
      </trkpt>
      <trkpt lat="44.9891" lon="5.50004">
        <ele>1360.1999511719</ele>
        <time>2022-05-26T12:23:35.000Z</time>
      </trkpt>
      <trkpt lat="44.98912" lon="5.50003">
        <ele>1360</ele>
        <time>2022-05-26T12:23:38.000Z</time>
      </trkpt>
      <trkpt lat="44.98914" lon="5.50005">
        <ele>1359.1999511719</ele>
        <time>2022-05-26T12:23:42.000Z</time>
      </trkpt>
      <trkpt lat="44.98913" lon="5.50005">
        <ele>1359.4000244141</ele>
        <time>2022-05-26T12:23:46.000Z</time>
      </trkpt>
      <trkpt lat="44.98911" lon="5.50002">
        <ele>1360.4000244141</ele>
        <time>2022-05-26T12:23:51.000Z</time>
      </trkpt>
      <trkpt lat="44.98911" lon="5.50002">
        <ele>1360.4000244141</ele>
        <time>2022-05-26T12:23:52.000Z</time>
      </trkpt>
      <trkpt lat="44.9891" lon="5.49995">
        <ele>1362</ele>
        <time>2022-05-26T12:24:05.000Z</time>
      </trkpt>
      <trkpt lat="44.98912" lon="5.49992">
        <ele>1362.4000244141</ele>
        <time>2022-05-26T12:24:11.000Z</time>
      </trkpt>
      <trkpt lat="44.98911" lon="5.49989">
        <ele>1363.1999511719</ele>
        <time>2022-05-26T12:24:14.000Z</time>
      </trkpt>
      <trkpt lat="44.98912" lon="5.49987">
        <ele>1363.5999755859</ele>
        <time>2022-05-26T12:24:16.000Z</time>
      </trkpt>
      <trkpt lat="44.98912" lon="5.49985">
        <ele>1363.8000488281</ele>
        <time>2022-05-26T12:24:18.000Z</time>
      </trkpt>
      <trkpt lat="44.98913" lon="5.49979">
        <ele>1365</ele>
        <time>2022-05-26T12:24:22.000Z</time>
      </trkpt>
      <trkpt lat="44.98913" lon="5.49977">
        <ele>1365.4000244141</ele>
        <time>2022-05-26T12:24:23.000Z</time>
      </trkpt>
      <trkpt lat="44.98914" lon="5.49973">
        <ele>1366.1999511719</ele>
        <time>2022-05-26T12:24:27.000Z</time>
      </trkpt>
      <trkpt lat="44.98912" lon="5.49968">
        <ele>1368</ele>
        <time>2022-05-26T12:24:32.000Z</time>
      </trkpt>
      <trkpt lat="44.98911" lon="5.49967">
        <ele>1368.5999755859</ele>
        <time>2022-05-26T12:24:36.000Z</time>
      </trkpt>
      <trkpt lat="44.9891" lon="5.49966">
        <ele>1368.8000488281</ele>
        <time>2022-05-26T12:24:37.000Z</time>
      </trkpt>
      <trkpt lat="44.98911" lon="5.49964">
        <ele>1369.4000244141</ele>
        <time>2022-05-26T12:24:39.000Z</time>
      </trkpt>
      <trkpt lat="44.98911" lon="5.4996">
        <ele>1370.5999755859</ele>
        <time>2022-05-26T12:24:45.000Z</time>
      </trkpt>
      <trkpt lat="44.98911" lon="5.49958">
        <ele>1371.1999511719</ele>
        <time>2022-05-26T12:24:47.000Z</time>
      </trkpt>
      <trkpt lat="44.98912" lon="5.49956">
        <ele>1371.8000488281</ele>
        <time>2022-05-26T12:24:50.000Z</time>
      </trkpt>
      <trkpt lat="44.98912" lon="5.49944">
        <ele>1375.1999511719</ele>
        <time>2022-05-26T12:25:32.000Z</time>
      </trkpt>
      <trkpt lat="44.98912" lon="5.49938">
        <ele>1377.4000244141</ele>
        <time>2022-05-26T12:25:47.000Z</time>
      </trkpt>
      <trkpt lat="44.98911" lon="5.49941">
        <ele>1376.4000244141</ele>
        <time>2022-05-26T12:26:31.000Z</time>
      </trkpt>
      <trkpt lat="44.98903" lon="5.49934">
        <ele>1380.4000244141</ele>
        <time>2022-05-26T12:27:02.000Z</time>
      </trkpt>
      <trkpt lat="44.98902" lon="5.49933">
        <ele>1380.8000488281</ele>
        <time>2022-05-26T12:27:07.000Z</time>
      </trkpt>
      <trkpt lat="44.98898" lon="5.49933">
        <ele>1381.4000244141</ele>
        <time>2022-05-26T12:27:17.000Z</time>
      </trkpt>
      <trkpt lat="44.98921" lon="5.49931">
        <ele>1378.1999511719</ele>
        <time>2022-05-26T12:29:06.000Z</time>
      </trkpt>
      <trkpt lat="44.98922" lon="5.49932">
        <ele>1377.5999755859</ele>
        <time>2022-05-26T12:29:08.000Z</time>
      </trkpt>
      <trkpt lat="44.98921" lon="5.49934">
        <ele>1377</ele>
        <time>2022-05-26T12:29:11.000Z</time>
      </trkpt>
      <trkpt lat="44.98923" lon="5.49931">
        <ele>1378</ele>
        <time>2022-05-26T12:29:13.000Z</time>
      </trkpt>
      <trkpt lat="44.98923" lon="5.49922">
        <ele>1381.1999511719</ele>
        <time>2022-05-26T12:29:20.000Z</time>
      </trkpt>
      <trkpt lat="44.98918" lon="5.49928">
        <ele>1379.5999755859</ele>
        <time>2022-05-26T12:29:25.000Z</time>
      </trkpt>
      <trkpt lat="44.98918" lon="5.49929">
        <ele>1379.1999511719</ele>
        <time>2022-05-26T12:29:26.000Z</time>
      </trkpt>
      <trkpt lat="44.98919" lon="5.4993">
        <ele>1378.5999755859</ele>
        <time>2022-05-26T12:29:37.000Z</time>
      </trkpt>
      <trkpt lat="44.9892" lon="5.49929">
        <ele>1379.1999511719</ele>
        <time>2022-05-26T12:29:45.000Z</time>
      </trkpt>
      <trkpt lat="44.98912" lon="5.49935">
        <ele>1378.4000244141</ele>
        <time>2022-05-26T12:30:24.000Z</time>
      </trkpt>
      <trkpt lat="44.98913" lon="5.49938">
        <ele>1377.4000244141</ele>
        <time>2022-05-26T12:30:33.000Z</time>
      </trkpt>
      <trkpt lat="44.98915" lon="5.49938">
        <ele>1376.5999755859</ele>
        <time>2022-05-26T12:30:49.000Z</time>
      </trkpt>
      <trkpt lat="44.9891" lon="5.49963">
        <ele>1369.8000488281</ele>
        <time>2022-05-26T12:31:11.000Z</time>
      </trkpt>
      <trkpt lat="44.98908" lon="5.49966">
        <ele>1369.4000244141</ele>
        <time>2022-05-26T12:31:16.000Z</time>
      </trkpt>
      <trkpt lat="44.98908" lon="5.49966">
        <ele>1369.4000244141</ele>
        <time>2022-05-26T12:31:17.000Z</time>
      </trkpt>
      <trkpt lat="44.98908" lon="5.49966">
        <ele>1369.1999511719</ele>
        <time>2022-05-26T12:31:18.000Z</time>
      </trkpt>
      <trkpt lat="44.98907" lon="5.49972">
        <ele>1367.5999755859</ele>
        <time>2022-05-26T12:31:31.000Z</time>
      </trkpt>
      <trkpt lat="44.98907" lon="5.49972">
        <ele>1367.4000244141</ele>
        <time>2022-05-26T12:31:32.000Z</time>
      </trkpt>
      <trkpt lat="44.98892" lon="5.49949">
        <ele>1377.4000244141</ele>
        <time>2022-05-26T12:36:05.000Z</time>
      </trkpt>
      <trkpt lat="44.98902" lon="5.49948">
        <ele>1376.1999511719</ele>
        <time>2022-05-26T12:36:18.000Z</time>
      </trkpt>
      <trkpt lat="44.98906" lon="5.49956">
        <ele>1372.8000488281</ele>
        <time>2022-05-26T12:36:22.000Z</time>
      </trkpt>
      <trkpt lat="44.98906" lon="5.49959">
        <ele>1371.8000488281</ele>
        <time>2022-05-26T12:36:23.000Z</time>
      </trkpt>
      <trkpt lat="44.98907" lon="5.49957">
        <ele>1372.1999511719</ele>
        <time>2022-05-26T12:36:26.000Z</time>
      </trkpt>
      <trkpt lat="44.98907" lon="5.49957">
        <ele>1372.4000244141</ele>
        <time>2022-05-26T12:36:27.000Z</time>
      </trkpt>
      <trkpt lat="44.98908" lon="5.49957">
        <ele>1372.4000244141</ele>
        <time>2022-05-26T12:36:33.000Z</time>
      </trkpt>
      <trkpt lat="44.98908" lon="5.49953">
        <ele>1373.5999755859</ele>
        <time>2022-05-26T12:36:35.000Z</time>
      </trkpt>
      <trkpt lat="44.9891" lon="5.49949">
        <ele>1374.4000244141</ele>
        <time>2022-05-26T12:36:38.000Z</time>
      </trkpt>
      <trkpt lat="44.98902" lon="5.49937">
        <ele>1379.4000244141</ele>
        <time>2022-05-26T12:37:02.000Z</time>
      </trkpt>
      <trkpt lat="44.98908" lon="5.49943">
        <ele>1376.5999755859</ele>
        <time>2022-05-26T12:37:50.000Z</time>
      </trkpt>
      <trkpt lat="44.9891" lon="5.49946">
        <ele>1375.1999511719</ele>
        <time>2022-05-26T12:37:56.000Z</time>
      </trkpt>
      <trkpt lat="44.9891" lon="5.49952">
        <ele>1373.4000244141</ele>
        <time>2022-05-26T12:37:59.000Z</time>
      </trkpt>
      <trkpt lat="44.98912" lon="5.49954">
        <ele>1372.5999755859</ele>
        <time>2022-05-26T12:38:01.000Z</time>
      </trkpt>
      <trkpt lat="44.98913" lon="5.49954">
        <ele>1372.4000244141</ele>
        <time>2022-05-26T12:38:02.000Z</time>
      </trkpt>
      <trkpt lat="44.98919" lon="5.49947">
        <ele>1373.4000244141</ele>
        <time>2022-05-26T12:38:13.000Z</time>
      </trkpt>
      <trkpt lat="44.98923" lon="5.49954">
        <ele>1370.5999755859</ele>
        <time>2022-05-26T12:38:31.000Z</time>
      </trkpt>
      <trkpt lat="44.9892" lon="5.49952">
        <ele>1371.8000488281</ele>
        <time>2022-05-26T12:38:44.000Z</time>
      </trkpt>
      <trkpt lat="44.98919" lon="5.49951">
        <ele>1372.1999511719</ele>
        <time>2022-05-26T12:38:50.000Z</time>
      </trkpt>
      <trkpt lat="44.98918" lon="5.49951">
        <ele>1372.1999511719</ele>
        <time>2022-05-26T12:38:53.000Z</time>
      </trkpt>
      <trkpt lat="44.98919" lon="5.49951">
        <ele>1372.1999511719</ele>
        <time>2022-05-26T12:38:54.000Z</time>
      </trkpt>
      <trkpt lat="44.98919" lon="5.49951">
        <ele>1372</ele>
        <time>2022-05-26T12:38:55.000Z</time>
      </trkpt>
      <trkpt lat="44.98918" lon="5.49952">
        <ele>1372</ele>
        <time>2022-05-26T12:38:57.000Z</time>
      </trkpt>
      <trkpt lat="44.98918" lon="5.49951">
        <ele>1372.1999511719</ele>
        <time>2022-05-26T12:38:59.000Z</time>
      </trkpt>
      <trkpt lat="44.98918" lon="5.4995">
        <ele>1372.5999755859</ele>
        <time>2022-05-26T12:39:01.000Z</time>
      </trkpt>
      <trkpt lat="44.98918" lon="5.4995">
        <ele>1372.5999755859</ele>
        <time>2022-05-26T12:39:02.000Z</time>
      </trkpt>
      <trkpt lat="44.98918" lon="5.4995">
        <ele>1372.5999755859</ele>
        <time>2022-05-26T12:39:03.000Z</time>
      </trkpt>
      <trkpt lat="44.98918" lon="5.49949">
        <ele>1373</ele>
        <time>2022-05-26T12:39:04.000Z</time>
      </trkpt>
      <trkpt lat="44.98918" lon="5.49949">
        <ele>1372.8000488281</ele>
        <time>2022-05-26T12:39:07.000Z</time>
      </trkpt>
      <trkpt lat="44.98916" lon="5.49947">
        <ele>1373.8000488281</ele>
        <time>2022-05-26T12:39:11.000Z</time>
      </trkpt>
      <trkpt lat="44.98915" lon="5.49945">
        <ele>1374.4000244141</ele>
        <time>2022-05-26T12:39:13.000Z</time>
      </trkpt>
      <trkpt lat="44.98915" lon="5.49945">
        <ele>1374.5999755859</ele>
        <time>2022-05-26T12:39:14.000Z</time>
      </trkpt>
      <trkpt lat="44.98915" lon="5.49943">
        <ele>1375.1999511719</ele>
        <time>2022-05-26T12:39:15.000Z</time>
      </trkpt>
      <trkpt lat="44.98915" lon="5.49942">
        <ele>1375.5999755859</ele>
        <time>2022-05-26T12:39:16.000Z</time>
      </trkpt>
      <trkpt lat="44.98914" lon="5.4994">
        <ele>1376.4000244141</ele>
        <time>2022-05-26T12:39:18.000Z</time>
      </trkpt>
      <trkpt lat="44.98914" lon="5.49939">
        <ele>1376.8000488281</ele>
        <time>2022-05-26T12:39:19.000Z</time>
      </trkpt>
      <trkpt lat="44.98913" lon="5.49939">
        <ele>1376.8000488281</ele>
        <time>2022-05-26T12:39:20.000Z</time>
      </trkpt>
      <trkpt lat="44.98909" lon="5.49938">
        <ele>1377.8000488281</ele>
        <time>2022-05-26T12:39:27.000Z</time>
      </trkpt>
      <trkpt lat="44.98911" lon="5.49936">
        <ele>1378.1999511719</ele>
        <time>2022-05-26T12:39:32.000Z</time>
      </trkpt>
      <trkpt lat="44.98916" lon="5.49931">
        <ele>1379</ele>
        <time>2022-05-26T12:39:41.000Z</time>
      </trkpt>
      <trkpt lat="44.98918" lon="5.49929">
        <ele>1379.1999511719</ele>
        <time>2022-05-26T12:39:46.000Z</time>
      </trkpt>
      <trkpt lat="44.9892" lon="5.4993">
        <ele>1378.8000488281</ele>
        <time>2022-05-26T12:39:50.000Z</time>
      </trkpt>
      <trkpt lat="44.98919" lon="5.49931">
        <ele>1378.4000244141</ele>
        <time>2022-05-26T12:39:53.000Z</time>
      </trkpt>
      <trkpt lat="44.98919" lon="5.49933">
        <ele>1377.8000488281</ele>
        <time>2022-05-26T12:39:57.000Z</time>
      </trkpt>
      <trkpt lat="44.98918" lon="5.49935">
        <ele>1377.1999511719</ele>
        <time>2022-05-26T12:40:02.000Z</time>
      </trkpt>
      <trkpt lat="44.98916" lon="5.49941">
        <ele>1375.8000488281</ele>
        <time>2022-05-26T12:40:10.000Z</time>
      </trkpt>
      <trkpt lat="44.98912" lon="5.49939">
        <ele>1377</ele>
        <time>2022-05-26T12:40:16.000Z</time>
      </trkpt>
      <trkpt lat="44.9891" lon="5.49934">
        <ele>1379</ele>
        <time>2022-05-26T12:40:21.000Z</time>
      </trkpt>
      <trkpt lat="44.98912" lon="5.49934">
        <ele>1378.5999755859</ele>
        <time>2022-05-26T12:40:27.000Z</time>
      </trkpt>
      <trkpt lat="44.98912" lon="5.49935">
        <ele>1378.4000244141</ele>
        <time>2022-05-26T12:40:29.000Z</time>
      </trkpt>
      <trkpt lat="44.98913" lon="5.49926">
        <ele>1381</ele>
        <time>2022-05-26T12:48:29.000Z</time>
      </trkpt>
      <trkpt lat="44.98913" lon="5.49953">
        <ele>1372.5999755859</ele>
        <time>2022-05-26T12:48:47.000Z</time>
      </trkpt>
      <trkpt lat="44.98915" lon="5.49958">
        <ele>1370.5999755859</ele>
        <time>2022-05-26T12:48:52.000Z</time>
      </trkpt>
      <trkpt lat="44.98916" lon="5.49959">
        <ele>1370.4000244141</ele>
        <time>2022-05-26T12:48:54.000Z</time>
      </trkpt>
      <trkpt lat="44.98918" lon="5.49959">
        <ele>1370</ele>
        <time>2022-05-26T12:48:56.000Z</time>
      </trkpt>
      <trkpt lat="44.98921" lon="5.49966">
        <ele>1367.4000244141</ele>
        <time>2022-05-26T12:49:02.000Z</time>
      </trkpt>
      <trkpt lat="44.98923" lon="5.4997">
        <ele>1365.8000488281</ele>
        <time>2022-05-26T12:49:07.000Z</time>
      </trkpt>
      <trkpt lat="44.98924" lon="5.49969">
        <ele>1365.8000488281</ele>
        <time>2022-05-26T12:49:09.000Z</time>
      </trkpt>
      <trkpt lat="44.98923" lon="5.49971">
        <ele>1365.4000244141</ele>
        <time>2022-05-26T12:49:10.000Z</time>
      </trkpt>
      <trkpt lat="44.98923" lon="5.49972">
        <ele>1365.1999511719</ele>
        <time>2022-05-26T12:49:11.000Z</time>
      </trkpt>
      <trkpt lat="44.98922" lon="5.49978">
        <ele>1364</ele>
        <time>2022-05-26T12:49:14.000Z</time>
      </trkpt>
      <trkpt lat="44.98921" lon="5.49979">
        <ele>1363.8000488281</ele>
        <time>2022-05-26T12:49:15.000Z</time>
      </trkpt>
      <trkpt lat="44.98921" lon="5.4998">
        <ele>1363.8000488281</ele>
        <time>2022-05-26T12:49:16.000Z</time>
      </trkpt>
      <trkpt lat="44.9892" lon="5.49979">
        <ele>1363.8000488281</ele>
        <time>2022-05-26T12:49:17.000Z</time>
      </trkpt>
      <trkpt lat="44.98919" lon="5.4998">
        <ele>1363.8000488281</ele>
        <time>2022-05-26T12:49:18.000Z</time>
      </trkpt>
      <trkpt lat="44.9892" lon="5.4998">
        <ele>1363.8000488281</ele>
        <time>2022-05-26T12:49:19.000Z</time>
      </trkpt>
      <trkpt lat="44.9892" lon="5.49981">
        <ele>1363.5999755859</ele>
        <time>2022-05-26T12:49:21.000Z</time>
      </trkpt>
      <trkpt lat="44.98919" lon="5.49984">
        <ele>1363</ele>
        <time>2022-05-26T12:49:24.000Z</time>
      </trkpt>
      <trkpt lat="44.98915" lon="5.49993">
        <ele>1361.5999755859</ele>
        <time>2022-05-26T12:49:38.000Z</time>
      </trkpt>
      <trkpt lat="44.98915" lon="5.49996">
        <ele>1361.1999511719</ele>
        <time>2022-05-26T12:49:41.000Z</time>
      </trkpt>
      <trkpt lat="44.98918" lon="5.49992">
        <ele>1361.4000244141</ele>
        <time>2022-05-26T12:50:18.000Z</time>
      </trkpt>
      <trkpt lat="44.98907" lon="5.49987">
        <ele>1364.1999511719</ele>
        <time>2022-05-26T12:50:54.000Z</time>
      </trkpt>
      <trkpt lat="44.98909" lon="5.49981">
        <ele>1365.1999511719</ele>
        <time>2022-05-26T12:51:17.000Z</time>
      </trkpt>
      <trkpt lat="44.98911" lon="5.49982">
        <ele>1364.8000488281</ele>
        <time>2022-05-26T12:51:23.000Z</time>
      </trkpt>
      <trkpt lat="44.98913" lon="5.49988">
        <ele>1363.1999511719</ele>
        <time>2022-05-26T12:51:34.000Z</time>
      </trkpt>
      <trkpt lat="44.98914" lon="5.49988">
        <ele>1363</ele>
        <time>2022-05-26T12:51:38.000Z</time>
      </trkpt>
      <trkpt lat="44.98919" lon="5.4999">
        <ele>1361.8000488281</ele>
        <time>2022-05-26T12:51:54.000Z</time>
      </trkpt>
      <trkpt lat="44.9892" lon="5.4999">
        <ele>1361.8000488281</ele>
        <time>2022-05-26T12:51:58.000Z</time>
      </trkpt>
      <trkpt lat="44.9892" lon="5.49989">
        <ele>1361.8000488281</ele>
        <time>2022-05-26T12:51:59.000Z</time>
      </trkpt>
      <trkpt lat="44.9892" lon="5.4999">
        <ele>1361.8000488281</ele>
        <time>2022-05-26T12:52:05.000Z</time>
      </trkpt>
      <trkpt lat="44.98919" lon="5.4999">
        <ele>1361.8000488281</ele>
        <time>2022-05-26T12:52:13.000Z</time>
      </trkpt>
      <trkpt lat="44.98911" lon="5.50001">
        <ele>1360.5999755859</ele>
        <time>2022-05-26T12:52:39.000Z</time>
      </trkpt>
      <trkpt lat="44.98909" lon="5.50001">
        <ele>1360.8000488281</ele>
        <time>2022-05-26T12:52:49.000Z</time>
      </trkpt>
      <trkpt lat="44.98909" lon="5.49998">
        <ele>1361.4000244141</ele>
        <time>2022-05-26T12:52:53.000Z</time>
      </trkpt>
      <trkpt lat="44.9891" lon="5.49992">
        <ele>1362.5999755859</ele>
        <time>2022-05-26T12:53:44.000Z</time>
      </trkpt>
      <trkpt lat="44.98914" lon="5.49997">
        <ele>1361</ele>
        <time>2022-05-26T12:54:23.000Z</time>
      </trkpt>
      <trkpt lat="44.98915" lon="5.49998">
        <ele>1360.5999755859</ele>
        <time>2022-05-26T12:54:27.000Z</time>
      </trkpt>
      <trkpt lat="44.98915" lon="5.49998">
        <ele>1360.5999755859</ele>
        <time>2022-05-26T12:54:29.000Z</time>
      </trkpt>
      <trkpt lat="44.98915" lon="5.49998">
        <ele>1360.5999755859</ele>
        <time>2022-05-26T12:54:30.000Z</time>
      </trkpt>
      <trkpt lat="44.98915" lon="5.49999">
        <ele>1360.5999755859</ele>
        <time>2022-05-26T12:54:31.000Z</time>
      </trkpt>
      <trkpt lat="44.98915" lon="5.49999">
        <ele>1360.5999755859</ele>
        <time>2022-05-26T12:54:32.000Z</time>
      </trkpt>
      <trkpt lat="44.98915" lon="5.49999">
        <ele>1360.4000244141</ele>
        <time>2022-05-26T12:54:33.000Z</time>
      </trkpt>
      <trkpt lat="44.98915" lon="5.5">
        <ele>1360.4000244141</ele>
        <time>2022-05-26T12:54:34.000Z</time>
      </trkpt>
      <trkpt lat="44.98914" lon="5.5">
        <ele>1360.4000244141</ele>
        <time>2022-05-26T12:54:36.000Z</time>
      </trkpt>
      <trkpt lat="44.98914" lon="5.5">
        <ele>1360.4000244141</ele>
        <time>2022-05-26T12:54:37.000Z</time>
      </trkpt>
      <trkpt lat="44.98913" lon="5.50002">
        <ele>1360</ele>
        <time>2022-05-26T12:54:38.000Z</time>
      </trkpt>
      <trkpt lat="44.98911" lon="5.50006">
        <ele>1359.4000244141</ele>
        <time>2022-05-26T12:54:40.000Z</time>
      </trkpt>
      <trkpt lat="44.98907" lon="5.5001">
        <ele>1359</ele>
        <time>2022-05-26T12:54:44.000Z</time>
      </trkpt>
      <trkpt lat="44.98906" lon="5.50011">
        <ele>1359</ele>
        <time>2022-05-26T12:54:47.000Z</time>
      </trkpt>
      <trkpt lat="44.98905" lon="5.50012">
        <ele>1358.8000488281</ele>
        <time>2022-05-26T12:54:50.000Z</time>
      </trkpt>
      <trkpt lat="44.98903" lon="5.50015">
        <ele>1358.1999511719</ele>
        <time>2022-05-26T12:54:55.000Z</time>
      </trkpt>
      <trkpt lat="44.98902" lon="5.50016">
        <ele>1358</ele>
        <time>2022-05-26T12:54:56.000Z</time>
      </trkpt>
      <trkpt lat="44.98902" lon="5.50018">
        <ele>1357.5999755859</ele>
        <time>2022-05-26T12:54:57.000Z</time>
      </trkpt>
      <trkpt lat="44.98902" lon="5.5002">
        <ele>1357.1999511719</ele>
        <time>2022-05-26T12:54:59.000Z</time>
      </trkpt>
      <trkpt lat="44.98897" lon="5.50026">
        <ele>1356.1999511719</ele>
        <time>2022-05-26T12:55:07.000Z</time>
      </trkpt>
      <trkpt lat="44.98896" lon="5.50027">
        <ele>1356.4000244141</ele>
        <time>2022-05-26T12:55:09.000Z</time>
      </trkpt>
      <trkpt lat="44.98895" lon="5.50027">
        <ele>1356.5999755859</ele>
        <time>2022-05-26T12:55:11.000Z</time>
      </trkpt>
      <trkpt lat="44.98894" lon="5.50026">
        <ele>1356.8000488281</ele>
        <time>2022-05-26T12:55:12.000Z</time>
      </trkpt>
      <trkpt lat="44.98894" lon="5.50023">
        <ele>1357.8000488281</ele>
        <time>2022-05-26T12:55:18.000Z</time>
      </trkpt>
      <trkpt lat="44.98893" lon="5.50022">
        <ele>1357.8000488281</ele>
        <time>2022-05-26T12:55:21.000Z</time>
      </trkpt>
      <trkpt lat="44.98896" lon="5.50025">
        <ele>1356.8000488281</ele>
        <time>2022-05-26T12:55:25.000Z</time>
      </trkpt>
      <trkpt lat="44.98896" lon="5.50025">
        <ele>1356.8000488281</ele>
        <time>2022-05-26T12:55:27.000Z</time>
      </trkpt>
      <trkpt lat="44.98899" lon="5.50025">
        <ele>1356.4000244141</ele>
        <time>2022-05-26T12:55:36.000Z</time>
      </trkpt>
      <trkpt lat="44.989" lon="5.50025">
        <ele>1356.1999511719</ele>
        <time>2022-05-26T12:55:42.000Z</time>
      </trkpt>
      <trkpt lat="44.98901" lon="5.50026">
        <ele>1355.8000488281</ele>
        <time>2022-05-26T12:55:53.000Z</time>
      </trkpt>
      <trkpt lat="44.98903" lon="5.50025">
        <ele>1355.5999755859</ele>
        <time>2022-05-26T12:56:01.000Z</time>
      </trkpt>
      <trkpt lat="44.98903" lon="5.50025">
        <ele>1355.5999755859</ele>
        <time>2022-05-26T12:56:09.000Z</time>
      </trkpt>
      <trkpt lat="44.98902" lon="5.50026">
        <ele>1355.5999755859</ele>
        <time>2022-05-26T12:56:20.000Z</time>
      </trkpt>
      <trkpt lat="44.98901" lon="5.50028">
        <ele>1355.1999511719</ele>
        <time>2022-05-26T12:56:29.000Z</time>
      </trkpt>
      <trkpt lat="44.98901" lon="5.50031">
        <ele>1354.8000488281</ele>
        <time>2022-05-26T12:56:37.000Z</time>
      </trkpt>
      <trkpt lat="44.98909" lon="5.50037">
        <ele>1352.4000244141</ele>
        <time>2022-05-26T12:57:05.000Z</time>
      </trkpt>
      <trkpt lat="44.9891" lon="5.50035">
        <ele>1352.8000488281</ele>
        <time>2022-05-26T12:57:37.000Z</time>
      </trkpt>
      <trkpt lat="44.9891" lon="5.50035">
        <ele>1352.5999755859</ele>
        <time>2022-05-26T12:57:38.000Z</time>
      </trkpt>
      <trkpt lat="44.9891" lon="5.50035">
        <ele>1352.5999755859</ele>
        <time>2022-05-26T12:57:40.000Z</time>
      </trkpt>
      <trkpt lat="44.9891" lon="5.50036">
        <ele>1352.4000244141</ele>
        <time>2022-05-26T12:57:44.000Z</time>
      </trkpt>
      <trkpt lat="44.9891" lon="5.50037">
        <ele>1352.1999511719</ele>
        <time>2022-05-26T12:57:46.000Z</time>
      </trkpt>
      <trkpt lat="44.98904" lon="5.50031">
        <ele>1354.1999511719</ele>
        <time>2022-05-26T12:58:01.000Z</time>
      </trkpt>
      <trkpt lat="44.98904" lon="5.50029">
        <ele>1354.5999755859</ele>
        <time>2022-05-26T12:58:04.000Z</time>
      </trkpt>
      <trkpt lat="44.98906" lon="5.50028">
        <ele>1354.5999755859</ele>
        <time>2022-05-26T12:58:33.000Z</time>
      </trkpt>
      <trkpt lat="44.98907" lon="5.50025">
        <ele>1355.1999511719</ele>
        <time>2022-05-26T12:58:56.000Z</time>
      </trkpt>
      <trkpt lat="44.98907" lon="5.50024">
        <ele>1355.5999755859</ele>
        <time>2022-05-26T12:59:08.000Z</time>
      </trkpt>
      <trkpt lat="44.98909" lon="5.50021">
        <ele>1356</ele>
        <time>2022-05-26T12:59:17.000Z</time>
      </trkpt>
      <trkpt lat="44.98909" lon="5.50021">
        <ele>1356</ele>
        <time>2022-05-26T12:59:18.000Z</time>
      </trkpt>
      <trkpt lat="44.9891" lon="5.50022">
        <ele>1355.5999755859</ele>
        <time>2022-05-26T12:59:21.000Z</time>
      </trkpt>
      <trkpt lat="44.9891" lon="5.50022">
        <ele>1355.8000488281</ele>
        <time>2022-05-26T12:59:22.000Z</time>
      </trkpt>
      <trkpt lat="44.98911" lon="5.50021">
        <ele>1356</ele>
        <time>2022-05-26T12:59:23.000Z</time>
      </trkpt>
      <trkpt lat="44.98911" lon="5.50022">
        <ele>1355.5999755859</ele>
        <time>2022-05-26T12:59:25.000Z</time>
      </trkpt>
      <trkpt lat="44.98911" lon="5.50022">
        <ele>1355.5999755859</ele>
        <time>2022-05-26T12:59:26.000Z</time>
      </trkpt>
      <trkpt lat="44.98912" lon="5.50022">
        <ele>1355.5999755859</ele>
        <time>2022-05-26T12:59:27.000Z</time>
      </trkpt>
      <trkpt lat="44.98912" lon="5.50023">
        <ele>1355.1999511719</ele>
        <time>2022-05-26T12:59:30.000Z</time>
      </trkpt>
      <trkpt lat="44.98912" lon="5.50023">
        <ele>1355</ele>
        <time>2022-05-26T12:59:31.000Z</time>
      </trkpt>
      <trkpt lat="44.98912" lon="5.50022">
        <ele>1355.5999755859</ele>
        <time>2022-05-26T12:59:36.000Z</time>
      </trkpt>
      <trkpt lat="44.9891" lon="5.50024">
        <ele>1355</ele>
        <time>2022-05-26T12:59:39.000Z</time>
      </trkpt>
      <trkpt lat="44.98909" lon="5.50027">
        <ele>1354.5999755859</ele>
        <time>2022-05-26T12:59:43.000Z</time>
      </trkpt>
      <trkpt lat="44.98909" lon="5.50027">
        <ele>1354.4000244141</ele>
        <time>2022-05-26T12:59:45.000Z</time>
      </trkpt>
      <trkpt lat="44.98905" lon="5.50036">
        <ele>1353.1999511719</ele>
        <time>2022-05-26T12:59:58.000Z</time>
      </trkpt>
      <trkpt lat="44.98905" lon="5.50037">
        <ele>1353</ele>
        <time>2022-05-26T12:59:59.000Z</time>
      </trkpt>
      <trkpt lat="44.98903" lon="5.50039">
        <ele>1353</ele>
        <time>2022-05-26T13:00:00.000Z</time>
      </trkpt>
      <trkpt lat="44.98902" lon="5.50042">
        <ele>1352.5999755859</ele>
        <time>2022-05-26T13:00:02.000Z</time>
      </trkpt>
      <trkpt lat="44.98899" lon="5.50048">
        <ele>1352</ele>
        <time>2022-05-26T13:00:13.000Z</time>
      </trkpt>
      <trkpt lat="44.98899" lon="5.5005">
        <ele>1351.8000488281</ele>
        <time>2022-05-26T13:00:15.000Z</time>
      </trkpt>
      <trkpt lat="44.98898" lon="5.50051">
        <ele>1351.5999755859</ele>
        <time>2022-05-26T13:00:16.000Z</time>
      </trkpt>
      <trkpt lat="44.98898" lon="5.50053">
        <ele>1351.4000244141</ele>
        <time>2022-05-26T13:00:19.000Z</time>
      </trkpt>
      <trkpt lat="44.98899" lon="5.50055">
        <ele>1350.8000488281</ele>
        <time>2022-05-26T13:00:22.000Z</time>
      </trkpt>
      <trkpt lat="44.98901" lon="5.50065">
        <ele>1348.5999755859</ele>
        <time>2022-05-26T13:00:28.000Z</time>
      </trkpt>
      <trkpt lat="44.989" lon="5.50069">
        <ele>1348</ele>
        <time>2022-05-26T13:00:30.000Z</time>
      </trkpt>
      <trkpt lat="44.98899" lon="5.50071">
        <ele>1347.4000244141</ele>
        <time>2022-05-26T13:00:32.000Z</time>
      </trkpt>
      <trkpt lat="44.98899" lon="5.50074">
        <ele>1347</ele>
        <time>2022-05-26T13:00:34.000Z</time>
      </trkpt>
      <trkpt lat="44.98899" lon="5.50076">
        <ele>1346.4000244141</ele>
        <time>2022-05-26T13:00:36.000Z</time>
      </trkpt>
      <trkpt lat="44.989" lon="5.50078">
        <ele>1345.5999755859</ele>
        <time>2022-05-26T13:00:40.000Z</time>
      </trkpt>
      <trkpt lat="44.98903" lon="5.50081">
        <ele>1344.5999755859</ele>
        <time>2022-05-26T13:00:44.000Z</time>
      </trkpt>
      <trkpt lat="44.98905" lon="5.50082">
        <ele>1344</ele>
        <time>2022-05-26T13:00:46.000Z</time>
      </trkpt>
      <trkpt lat="44.98907" lon="5.50085">
        <ele>1343</ele>
        <time>2022-05-26T13:00:50.000Z</time>
      </trkpt>
      <trkpt lat="44.98907" lon="5.50089">
        <ele>1342.4000244141</ele>
        <time>2022-05-26T13:00:53.000Z</time>
      </trkpt>
      <trkpt lat="44.98906" lon="5.50098">
        <ele>1340.8000488281</ele>
        <time>2022-05-26T13:00:58.000Z</time>
      </trkpt>
      <trkpt lat="44.989" lon="5.50125">
        <ele>1338</ele>
        <time>2022-05-26T13:01:13.000Z</time>
      </trkpt>
      <trkpt lat="44.98896" lon="5.50135">
        <ele>1337.5999755859</ele>
        <time>2022-05-26T13:01:23.000Z</time>
      </trkpt>
      <trkpt lat="44.98895" lon="5.50138">
        <ele>1337.8000488281</ele>
        <time>2022-05-26T13:01:27.000Z</time>
      </trkpt>
      <trkpt lat="44.98895" lon="5.50137">
        <ele>1337.8000488281</ele>
        <time>2022-05-26T13:01:37.000Z</time>
      </trkpt>
      <trkpt lat="44.98898" lon="5.50138">
        <ele>1337</ele>
        <time>2022-05-26T13:01:45.000Z</time>
      </trkpt>
      <trkpt lat="44.98896" lon="5.50144">
        <ele>1337</ele>
        <time>2022-05-26T13:01:54.000Z</time>
      </trkpt>
      <trkpt lat="44.98893" lon="5.50148">
        <ele>1337.4000244141</ele>
        <time>2022-05-26T13:01:58.000Z</time>
      </trkpt>
      <trkpt lat="44.98884" lon="5.50171">
        <ele>1337.1999511719</ele>
        <time>2022-05-26T13:02:13.000Z</time>
      </trkpt>
      <trkpt lat="44.98875" lon="5.50184">
        <ele>1337.1999511719</ele>
        <time>2022-05-26T13:02:24.000Z</time>
      </trkpt>
      <trkpt lat="44.98874" lon="5.50186">
        <ele>1337.1999511719</ele>
        <time>2022-05-26T13:02:25.000Z</time>
      </trkpt>
      <trkpt lat="44.98873" lon="5.50188">
        <ele>1337.1999511719</ele>
        <time>2022-05-26T13:02:27.000Z</time>
      </trkpt>
      <trkpt lat="44.98871" lon="5.50191">
        <ele>1337</ele>
        <time>2022-05-26T13:02:29.000Z</time>
      </trkpt>
      <trkpt lat="44.9887" lon="5.50194">
        <ele>1337</ele>
        <time>2022-05-26T13:02:32.000Z</time>
      </trkpt>
      <trkpt lat="44.98858" lon="5.50213">
        <ele>1336</ele>
        <time>2022-05-26T13:02:47.000Z</time>
      </trkpt>
      <trkpt lat="44.98849" lon="5.50222">
        <ele>1335.8000488281</ele>
        <time>2022-05-26T13:02:56.000Z</time>
      </trkpt>
      <trkpt lat="44.98837" lon="5.50238">
        <ele>1336.8000488281</ele>
        <time>2022-05-26T13:03:13.000Z</time>
      </trkpt>
      <trkpt lat="44.98829" lon="5.5025">
        <ele>1337.1999511719</ele>
        <time>2022-05-26T13:03:26.000Z</time>
      </trkpt>
      <trkpt lat="44.98817" lon="5.50249">
        <ele>1341.1999511719</ele>
        <time>2022-05-26T13:03:35.000Z</time>
      </trkpt>
      <trkpt lat="44.98811" lon="5.50251">
        <ele>1342.5999755859</ele>
        <time>2022-05-26T13:03:39.000Z</time>
      </trkpt>
      <trkpt lat="44.98805" lon="5.50255">
        <ele>1344.5999755859</ele>
        <time>2022-05-26T13:03:44.000Z</time>
      </trkpt>
      <trkpt lat="44.98795" lon="5.50256">
        <ele>1348</ele>
        <time>2022-05-26T13:03:54.000Z</time>
      </trkpt>
      <trkpt lat="44.98787" lon="5.5027">
        <ele>1350</ele>
        <time>2022-05-26T13:04:07.000Z</time>
      </trkpt>
      <trkpt lat="44.98781" lon="5.50295">
        <ele>1352.4000244141</ele>
        <time>2022-05-26T13:04:25.000Z</time>
      </trkpt>
      <trkpt lat="44.98778" lon="5.50302">
        <ele>1353.5999755859</ele>
        <time>2022-05-26T13:04:32.000Z</time>
      </trkpt>
      <trkpt lat="44.98778" lon="5.50304">
        <ele>1353.8000488281</ele>
        <time>2022-05-26T13:04:34.000Z</time>
      </trkpt>
      <trkpt lat="44.98778" lon="5.50305">
        <ele>1353.8000488281</ele>
        <time>2022-05-26T13:04:35.000Z</time>
      </trkpt>
      <trkpt lat="44.98778" lon="5.50306">
        <ele>1354</ele>
        <time>2022-05-26T13:04:36.000Z</time>
      </trkpt>
      <trkpt lat="44.98777" lon="5.50307">
        <ele>1354.1999511719</ele>
        <time>2022-05-26T13:04:37.000Z</time>
      </trkpt>
      <trkpt lat="44.98777" lon="5.50308">
        <ele>1354.4000244141</ele>
        <time>2022-05-26T13:04:38.000Z</time>
      </trkpt>
      <trkpt lat="44.98776" lon="5.50309">
        <ele>1354.8000488281</ele>
        <time>2022-05-26T13:04:39.000Z</time>
      </trkpt>
      <trkpt lat="44.98775" lon="5.5031">
        <ele>1355.4000244141</ele>
        <time>2022-05-26T13:04:41.000Z</time>
      </trkpt>
      <trkpt lat="44.98774" lon="5.50314">
        <ele>1356.1999511719</ele>
        <time>2022-05-26T13:04:45.000Z</time>
      </trkpt>
      <trkpt lat="44.98772" lon="5.50318">
        <ele>1357</ele>
        <time>2022-05-26T13:04:50.000Z</time>
      </trkpt>
      <trkpt lat="44.98771" lon="5.5032">
        <ele>1357.4000244141</ele>
        <time>2022-05-26T13:04:53.000Z</time>
      </trkpt>
      <trkpt lat="44.98771" lon="5.50322">
        <ele>1357.4000244141</ele>
        <time>2022-05-26T13:04:55.000Z</time>
      </trkpt>
      <trkpt lat="44.98771" lon="5.50329">
        <ele>1357.8000488281</ele>
        <time>2022-05-26T13:05:01.000Z</time>
      </trkpt>
      <trkpt lat="44.98772" lon="5.50336">
        <ele>1358</ele>
        <time>2022-05-26T13:05:06.000Z</time>
      </trkpt>
      <trkpt lat="44.98772" lon="5.5034">
        <ele>1358.4000244141</ele>
        <time>2022-05-26T13:05:11.000Z</time>
      </trkpt>
      <trkpt lat="44.98773" lon="5.50344">
        <ele>1358.5999755859</ele>
        <time>2022-05-26T13:05:14.000Z</time>
      </trkpt>
      <trkpt lat="44.98771" lon="5.50348">
        <ele>1359.1999511719</ele>
        <time>2022-05-26T13:05:19.000Z</time>
      </trkpt>
      <trkpt lat="44.9877" lon="5.50349">
        <ele>1359.4000244141</ele>
        <time>2022-05-26T13:05:20.000Z</time>
      </trkpt>
      <trkpt lat="44.9876" lon="5.50356">
        <ele>1361.8000488281</ele>
        <time>2022-05-26T13:05:30.000Z</time>
      </trkpt>
      <trkpt lat="44.9876" lon="5.50356">
        <ele>1362</ele>
        <time>2022-05-26T13:05:31.000Z</time>
      </trkpt>
      <trkpt lat="44.98757" lon="5.50358">
        <ele>1362.5999755859</ele>
        <time>2022-05-26T13:05:34.000Z</time>
      </trkpt>
      <trkpt lat="44.98755" lon="5.5036">
        <ele>1363</ele>
        <time>2022-05-26T13:05:37.000Z</time>
      </trkpt>
      <trkpt lat="44.98754" lon="5.50362">
        <ele>1363.5999755859</ele>
        <time>2022-05-26T13:05:40.000Z</time>
      </trkpt>
      <trkpt lat="44.98753" lon="5.50363">
        <ele>1363.8000488281</ele>
        <time>2022-05-26T13:05:42.000Z</time>
      </trkpt>
      <trkpt lat="44.98753" lon="5.50366">
        <ele>1364</ele>
        <time>2022-05-26T13:05:44.000Z</time>
      </trkpt>
      <trkpt lat="44.98749" lon="5.50369">
        <ele>1365.1999511719</ele>
        <time>2022-05-26T13:05:49.000Z</time>
      </trkpt>
      <trkpt lat="44.98737" lon="5.50377">
        <ele>1367.8000488281</ele>
        <time>2022-05-26T13:06:10.000Z</time>
      </trkpt>
      <trkpt lat="44.9873" lon="5.50381">
        <ele>1369.5999755859</ele>
        <time>2022-05-26T13:06:19.000Z</time>
      </trkpt>
      <trkpt lat="44.98728" lon="5.50382">
        <ele>1370.1999511719</ele>
        <time>2022-05-26T13:06:21.000Z</time>
      </trkpt>
      <trkpt lat="44.98728" lon="5.50383">
        <ele>1370.1999511719</ele>
        <time>2022-05-26T13:06:22.000Z</time>
      </trkpt>
      <trkpt lat="44.98727" lon="5.50383">
        <ele>1370.5999755859</ele>
        <time>2022-05-26T13:06:23.000Z</time>
      </trkpt>
      <trkpt lat="44.98726" lon="5.50384">
        <ele>1370.5999755859</ele>
        <time>2022-05-26T13:06:24.000Z</time>
      </trkpt>
      <trkpt lat="44.98726" lon="5.50385">
        <ele>1370.8000488281</ele>
        <time>2022-05-26T13:06:25.000Z</time>
      </trkpt>
      <trkpt lat="44.98725" lon="5.50386">
        <ele>1370.8000488281</ele>
        <time>2022-05-26T13:06:26.000Z</time>
      </trkpt>
      <trkpt lat="44.98725" lon="5.50387">
        <ele>1370.8000488281</ele>
        <time>2022-05-26T13:06:27.000Z</time>
      </trkpt>
      <trkpt lat="44.98723" lon="5.5039">
        <ele>1371.1999511719</ele>
        <time>2022-05-26T13:06:30.000Z</time>
      </trkpt>
      <trkpt lat="44.98723" lon="5.50391">
        <ele>1371.4000244141</ele>
        <time>2022-05-26T13:06:31.000Z</time>
      </trkpt>
      <trkpt lat="44.98722" lon="5.50392">
        <ele>1371.5999755859</ele>
        <time>2022-05-26T13:06:32.000Z</time>
      </trkpt>
      <trkpt lat="44.98722" lon="5.50393">
        <ele>1371.8000488281</ele>
        <time>2022-05-26T13:06:33.000Z</time>
      </trkpt>
      <trkpt lat="44.9872" lon="5.50396">
        <ele>1372.1999511719</ele>
        <time>2022-05-26T13:06:36.000Z</time>
      </trkpt>
      <trkpt lat="44.98718" lon="5.50397">
        <ele>1372.8000488281</ele>
        <time>2022-05-26T13:06:38.000Z</time>
      </trkpt>
      <trkpt lat="44.98715" lon="5.50399">
        <ele>1373.4000244141</ele>
        <time>2022-05-26T13:06:41.000Z</time>
      </trkpt>
      <trkpt lat="44.9871" lon="5.50401">
        <ele>1374.1999511719</ele>
        <time>2022-05-26T13:06:46.000Z</time>
      </trkpt>
      <trkpt lat="44.98703" lon="5.50405">
        <ele>1375.1999511719</ele>
        <time>2022-05-26T13:06:53.000Z</time>
      </trkpt>
      <trkpt lat="44.987" lon="5.50406">
        <ele>1375.8000488281</ele>
        <time>2022-05-26T13:06:56.000Z</time>
      </trkpt>
      <trkpt lat="44.98699" lon="5.50408">
        <ele>1376</ele>
        <time>2022-05-26T13:06:58.000Z</time>
      </trkpt>
      <trkpt lat="44.98696" lon="5.50409">
        <ele>1376.4000244141</ele>
        <time>2022-05-26T13:07:00.000Z</time>
      </trkpt>
      <trkpt lat="44.98688" lon="5.5042">
        <ele>1378</ele>
        <time>2022-05-26T13:07:11.000Z</time>
      </trkpt>
      <trkpt lat="44.98679" lon="5.50431">
        <ele>1379</ele>
        <time>2022-05-26T13:07:27.000Z</time>
      </trkpt>
      <trkpt lat="44.98675" lon="5.50436">
        <ele>1379.4000244141</ele>
        <time>2022-05-26T13:07:33.000Z</time>
      </trkpt>
      <trkpt lat="44.9867" lon="5.50444">
        <ele>1379.4000244141</ele>
        <time>2022-05-26T13:07:41.000Z</time>
      </trkpt>
      <trkpt lat="44.98654" lon="5.50459">
        <ele>1380.5999755859</ele>
        <time>2022-05-26T13:08:00.000Z</time>
      </trkpt>
      <trkpt lat="44.98639" lon="5.50473">
        <ele>1381.5999755859</ele>
        <time>2022-05-26T13:08:13.000Z</time>
      </trkpt>
      <trkpt lat="44.98629" lon="5.50493">
        <ele>1382.1999511719</ele>
        <time>2022-05-26T13:08:30.000Z</time>
      </trkpt>
      <trkpt lat="44.98616" lon="5.50513">
        <ele>1382.1999511719</ele>
        <time>2022-05-26T13:08:47.000Z</time>
      </trkpt>
      <trkpt lat="44.98607" lon="5.50535">
        <ele>1382.5999755859</ele>
        <time>2022-05-26T13:09:03.000Z</time>
      </trkpt>
      <trkpt lat="44.98605" lon="5.50546">
        <ele>1383.1999511719</ele>
        <time>2022-05-26T13:09:11.000Z</time>
      </trkpt>
      <trkpt lat="44.98603" lon="5.50548">
        <ele>1383.1999511719</ele>
        <time>2022-05-26T13:09:12.000Z</time>
      </trkpt>
      <trkpt lat="44.98592" lon="5.50554">
        <ele>1382.5999755859</ele>
        <time>2022-05-26T13:09:21.000Z</time>
      </trkpt>
      <trkpt lat="44.98576" lon="5.50569">
        <ele>1382.8000488281</ele>
        <time>2022-05-26T13:09:37.000Z</time>
      </trkpt>
      <trkpt lat="44.98569" lon="5.50594">
        <ele>1384.4000244141</ele>
        <time>2022-05-26T13:09:54.000Z</time>
      </trkpt>
      <trkpt lat="44.98568" lon="5.50595">
        <ele>1384.5999755859</ele>
        <time>2022-05-26T13:09:58.000Z</time>
      </trkpt>
      <trkpt lat="44.98568" lon="5.506">
        <ele>1385.4000244141</ele>
        <time>2022-05-26T13:10:02.000Z</time>
      </trkpt>
      <trkpt lat="44.98564" lon="5.50598">
        <ele>1385</ele>
        <time>2022-05-26T13:10:28.000Z</time>
      </trkpt>
      <trkpt lat="44.98563" lon="5.50599">
        <ele>1385.1999511719</ele>
        <time>2022-05-26T13:10:38.000Z</time>
      </trkpt>
      <trkpt lat="44.98563" lon="5.50601">
        <ele>1385.4000244141</ele>
        <time>2022-05-26T13:10:51.000Z</time>
      </trkpt>
      <trkpt lat="44.98562" lon="5.506">
        <ele>1385.4000244141</ele>
        <time>2022-05-26T13:10:58.000Z</time>
      </trkpt>
      <trkpt lat="44.98556" lon="5.50597">
        <ele>1385</ele>
        <time>2022-05-26T13:11:05.000Z</time>
      </trkpt>
      <trkpt lat="44.98542" lon="5.50599">
        <ele>1384.5999755859</ele>
        <time>2022-05-26T13:11:18.000Z</time>
      </trkpt>
      <trkpt lat="44.9854" lon="5.50599">
        <ele>1384.5999755859</ele>
        <time>2022-05-26T13:11:19.000Z</time>
      </trkpt>
      <trkpt lat="44.98539" lon="5.506">
        <ele>1384.5999755859</ele>
        <time>2022-05-26T13:11:20.000Z</time>
      </trkpt>
      <trkpt lat="44.98536" lon="5.50601">
        <ele>1384.4000244141</ele>
        <time>2022-05-26T13:11:22.000Z</time>
      </trkpt>
      <trkpt lat="44.98535" lon="5.50601">
        <ele>1384.4000244141</ele>
        <time>2022-05-26T13:11:23.000Z</time>
      </trkpt>
      <trkpt lat="44.98533" lon="5.50601">
        <ele>1384.1999511719</ele>
        <time>2022-05-26T13:11:24.000Z</time>
      </trkpt>
      <trkpt lat="44.98532" lon="5.50601">
        <ele>1384.1999511719</ele>
        <time>2022-05-26T13:11:25.000Z</time>
      </trkpt>
      <trkpt lat="44.98529" lon="5.50602">
        <ele>1384.1999511719</ele>
        <time>2022-05-26T13:11:28.000Z</time>
      </trkpt>
      <trkpt lat="44.98526" lon="5.50602">
        <ele>1384.1999511719</ele>
        <time>2022-05-26T13:11:30.000Z</time>
      </trkpt>
      <trkpt lat="44.98524" lon="5.50602">
        <ele>1384</ele>
        <time>2022-05-26T13:11:31.000Z</time>
      </trkpt>
      <trkpt lat="44.98523" lon="5.50602">
        <ele>1384</ele>
        <time>2022-05-26T13:11:32.000Z</time>
      </trkpt>
      <trkpt lat="44.98522" lon="5.50602">
        <ele>1384</ele>
        <time>2022-05-26T13:11:33.000Z</time>
      </trkpt>
      <trkpt lat="44.98521" lon="5.50602">
        <ele>1384</ele>
        <time>2022-05-26T13:11:34.000Z</time>
      </trkpt>
      <trkpt lat="44.98519" lon="5.50601">
        <ele>1383.8000488281</ele>
        <time>2022-05-26T13:11:35.000Z</time>
      </trkpt>
      <trkpt lat="44.98516" lon="5.50602">
        <ele>1383.8000488281</ele>
        <time>2022-05-26T13:11:38.000Z</time>
      </trkpt>
      <trkpt lat="44.98506" lon="5.50601">
        <ele>1382.4000244141</ele>
        <time>2022-05-26T13:11:48.000Z</time>
      </trkpt>
      <trkpt lat="44.98505" lon="5.506">
        <ele>1382.1999511719</ele>
        <time>2022-05-26T13:11:49.000Z</time>
      </trkpt>
      <trkpt lat="44.98503" lon="5.50599">
        <ele>1381.8000488281</ele>
        <time>2022-05-26T13:11:52.000Z</time>
      </trkpt>
      <trkpt lat="44.98501" lon="5.50599">
        <ele>1381.4000244141</ele>
        <time>2022-05-26T13:11:55.000Z</time>
      </trkpt>
      <trkpt lat="44.98498" lon="5.50599">
        <ele>1381</ele>
        <time>2022-05-26T13:11:57.000Z</time>
      </trkpt>
      <trkpt lat="44.98485" lon="5.50591">
        <ele>1377.5999755859</ele>
        <time>2022-05-26T13:12:10.000Z</time>
      </trkpt>
      <trkpt lat="44.98471" lon="5.50594">
        <ele>1376</ele>
        <time>2022-05-26T13:12:26.000Z</time>
      </trkpt>
      <trkpt lat="44.9846" lon="5.506">
        <ele>1375.5999755859</ele>
        <time>2022-05-26T13:12:41.000Z</time>
      </trkpt>
      <trkpt lat="44.98448" lon="5.50603">
        <ele>1375</ele>
        <time>2022-05-26T13:12:53.000Z</time>
      </trkpt>
      <trkpt lat="44.98445" lon="5.50603">
        <ele>1374.8000488281</ele>
        <time>2022-05-26T13:12:55.000Z</time>
      </trkpt>
      <trkpt lat="44.98442" lon="5.50603">
        <ele>1374.5999755859</ele>
        <time>2022-05-26T13:13:01.000Z</time>
      </trkpt>
      <trkpt lat="44.98441" lon="5.50603">
        <ele>1374.5999755859</ele>
        <time>2022-05-26T13:13:07.000Z</time>
      </trkpt>
      <trkpt lat="44.98439" lon="5.50605">
        <ele>1374.5999755859</ele>
        <time>2022-05-26T13:13:17.000Z</time>
      </trkpt>
      <trkpt lat="44.98438" lon="5.50603">
        <ele>1374.4000244141</ele>
        <time>2022-05-26T13:13:39.000Z</time>
      </trkpt>
      <trkpt lat="44.98431" lon="5.50603">
        <ele>1374</ele>
        <time>2022-05-26T13:14:38.000Z</time>
      </trkpt>
      <trkpt lat="44.98427" lon="5.50608">
        <ele>1375</ele>
        <time>2022-05-26T13:14:44.000Z</time>
      </trkpt>
      <trkpt lat="44.98425" lon="5.50614">
        <ele>1375.8000488281</ele>
        <time>2022-05-26T13:14:49.000Z</time>
      </trkpt>
      <trkpt lat="44.98424" lon="5.50618">
        <ele>1376.4000244141</ele>
        <time>2022-05-26T13:14:53.000Z</time>
      </trkpt>
      <trkpt lat="44.98422" lon="5.50623">
        <ele>1377.4000244141</ele>
        <time>2022-05-26T13:14:57.000Z</time>
      </trkpt>
      <trkpt lat="44.98421" lon="5.50624">
        <ele>1377.5999755859</ele>
        <time>2022-05-26T13:14:58.000Z</time>
      </trkpt>
      <trkpt lat="44.9842" lon="5.50625">
        <ele>1377.5999755859</ele>
        <time>2022-05-26T13:14:59.000Z</time>
      </trkpt>
      <trkpt lat="44.98419" lon="5.50626">
        <ele>1377.8000488281</ele>
        <time>2022-05-26T13:15:00.000Z</time>
      </trkpt>
      <trkpt lat="44.98418" lon="5.50627">
        <ele>1378.1999511719</ele>
        <time>2022-05-26T13:15:01.000Z</time>
      </trkpt>
      <trkpt lat="44.98418" lon="5.50628">
        <ele>1378.1999511719</ele>
        <time>2022-05-26T13:15:02.000Z</time>
      </trkpt>
      <trkpt lat="44.98417" lon="5.50629">
        <ele>1378.1999511719</ele>
        <time>2022-05-26T13:15:03.000Z</time>
      </trkpt>
      <trkpt lat="44.98411" lon="5.50641">
        <ele>1379.4000244141</ele>
        <time>2022-05-26T13:15:14.000Z</time>
      </trkpt>
      <trkpt lat="44.98408" lon="5.50646">
        <ele>1380.1999511719</ele>
        <time>2022-05-26T13:15:18.000Z</time>
      </trkpt>
      <trkpt lat="44.98407" lon="5.50648">
        <ele>1380.4000244141</ele>
        <time>2022-05-26T13:15:20.000Z</time>
      </trkpt>
      <trkpt lat="44.98405" lon="5.50652">
        <ele>1381</ele>
        <time>2022-05-26T13:15:23.000Z</time>
      </trkpt>
      <trkpt lat="44.98404" lon="5.50653">
        <ele>1381</ele>
        <time>2022-05-26T13:15:24.000Z</time>
      </trkpt>
      <trkpt lat="44.98403" lon="5.50655">
        <ele>1381.4000244141</ele>
        <time>2022-05-26T13:15:26.000Z</time>
      </trkpt>
      <trkpt lat="44.98403" lon="5.50656">
        <ele>1381.4000244141</ele>
        <time>2022-05-26T13:15:27.000Z</time>
      </trkpt>
      <trkpt lat="44.98402" lon="5.50657">
        <ele>1381.5999755859</ele>
        <time>2022-05-26T13:15:28.000Z</time>
      </trkpt>
      <trkpt lat="44.984" lon="5.50662">
        <ele>1382.5999755859</ele>
        <time>2022-05-26T13:15:33.000Z</time>
      </trkpt>
      <trkpt lat="44.98398" lon="5.50665">
        <ele>1383.4000244141</ele>
        <time>2022-05-26T13:15:37.000Z</time>
      </trkpt>
      <trkpt lat="44.98394" lon="5.50668">
        <ele>1384.4000244141</ele>
        <time>2022-05-26T13:15:42.000Z</time>
      </trkpt>
      <trkpt lat="44.98393" lon="5.50668">
        <ele>1384.4000244141</ele>
        <time>2022-05-26T13:15:43.000Z</time>
      </trkpt>
      <trkpt lat="44.98391" lon="5.50671">
        <ele>1385.5999755859</ele>
        <time>2022-05-26T13:15:49.000Z</time>
      </trkpt>
      <trkpt lat="44.98386" lon="5.50679">
        <ele>1387.8000488281</ele>
        <time>2022-05-26T13:15:56.000Z</time>
      </trkpt>
      <trkpt lat="44.98384" lon="5.50684">
        <ele>1388.8000488281</ele>
        <time>2022-05-26T13:16:02.000Z</time>
      </trkpt>
      <trkpt lat="44.98383" lon="5.50686">
        <ele>1389.1999511719</ele>
        <time>2022-05-26T13:16:04.000Z</time>
      </trkpt>
      <trkpt lat="44.98381" lon="5.50687">
        <ele>1389.4000244141</ele>
        <time>2022-05-26T13:16:06.000Z</time>
      </trkpt>
      <trkpt lat="44.98377" lon="5.50692">
        <ele>1390.4000244141</ele>
        <time>2022-05-26T13:16:13.000Z</time>
      </trkpt>
      <trkpt lat="44.98376" lon="5.50693">
        <ele>1390.5999755859</ele>
        <time>2022-05-26T13:16:14.000Z</time>
      </trkpt>
      <trkpt lat="44.98375" lon="5.50693">
        <ele>1390.5999755859</ele>
        <time>2022-05-26T13:16:15.000Z</time>
      </trkpt>
      <trkpt lat="44.98373" lon="5.50693">
        <ele>1390.8000488281</ele>
        <time>2022-05-26T13:16:16.000Z</time>
      </trkpt>
      <trkpt lat="44.9837" lon="5.50693">
        <ele>1391</ele>
        <time>2022-05-26T13:16:20.000Z</time>
      </trkpt>
      <trkpt lat="44.98368" lon="5.50694">
        <ele>1391.1999511719</ele>
        <time>2022-05-26T13:16:24.000Z</time>
      </trkpt>
      <trkpt lat="44.98361" lon="5.50695">
        <ele>1391.5999755859</ele>
        <time>2022-05-26T13:16:31.000Z</time>
      </trkpt>
      <trkpt lat="44.98358" lon="5.50698">
        <ele>1392.4000244141</ele>
        <time>2022-05-26T13:16:35.000Z</time>
      </trkpt>
      <trkpt lat="44.9835" lon="5.50706">
        <ele>1394</ele>
        <time>2022-05-26T13:16:50.000Z</time>
      </trkpt>
      <trkpt lat="44.98333" lon="5.50716">
        <ele>1397.1999511719</ele>
        <time>2022-05-26T13:17:11.000Z</time>
      </trkpt>
      <trkpt lat="44.98331" lon="5.50717">
        <ele>1397.5999755859</ele>
        <time>2022-05-26T13:17:13.000Z</time>
      </trkpt>
      <trkpt lat="44.9833" lon="5.50718">
        <ele>1397.8000488281</ele>
        <time>2022-05-26T13:17:15.000Z</time>
      </trkpt>
      <trkpt lat="44.98316" lon="5.50721">
        <ele>1399.1999511719</ele>
        <time>2022-05-26T13:17:33.000Z</time>
      </trkpt>
      <trkpt lat="44.98314" lon="5.50721">
        <ele>1399.5999755859</ele>
        <time>2022-05-26T13:17:35.000Z</time>
      </trkpt>
      <trkpt lat="44.98311" lon="5.50722">
        <ele>1400.1999511719</ele>
        <time>2022-05-26T13:17:37.000Z</time>
      </trkpt>
      <trkpt lat="44.98293" lon="5.50722">
        <ele>1402.5999755859</ele>
        <time>2022-05-26T13:17:56.000Z</time>
      </trkpt>
      <trkpt lat="44.98289" lon="5.50719">
        <ele>1403</ele>
        <time>2022-05-26T13:18:01.000Z</time>
      </trkpt>
      <trkpt lat="44.98288" lon="5.50718">
        <ele>1403.1999511719</ele>
        <time>2022-05-26T13:18:02.000Z</time>
      </trkpt>
      <trkpt lat="44.98285" lon="5.50717">
        <ele>1403.4000244141</ele>
        <time>2022-05-26T13:18:04.000Z</time>
      </trkpt>
      <trkpt lat="44.98285" lon="5.50716">
        <ele>1403.4000244141</ele>
        <time>2022-05-26T13:18:05.000Z</time>
      </trkpt>
      <trkpt lat="44.98284" lon="5.50715">
        <ele>1403.5999755859</ele>
        <time>2022-05-26T13:18:06.000Z</time>
      </trkpt>
      <trkpt lat="44.98283" lon="5.50714">
        <ele>1403.5999755859</ele>
        <time>2022-05-26T13:18:07.000Z</time>
      </trkpt>
      <trkpt lat="44.98279" lon="5.50712">
        <ele>1403.8000488281</ele>
        <time>2022-05-26T13:18:12.000Z</time>
      </trkpt>
      <trkpt lat="44.98276" lon="5.50708">
        <ele>1404</ele>
        <time>2022-05-26T13:18:15.000Z</time>
      </trkpt>
      <trkpt lat="44.98272" lon="5.50704">
        <ele>1404.4000244141</ele>
        <time>2022-05-26T13:18:19.000Z</time>
      </trkpt>
      <trkpt lat="44.98271" lon="5.50704">
        <ele>1404.4000244141</ele>
        <time>2022-05-26T13:18:20.000Z</time>
      </trkpt>
      <trkpt lat="44.98268" lon="5.507">
        <ele>1404.5999755859</ele>
        <time>2022-05-26T13:18:24.000Z</time>
      </trkpt>
      <trkpt lat="44.98267" lon="5.50699">
        <ele>1404.8000488281</ele>
        <time>2022-05-26T13:18:25.000Z</time>
      </trkpt>
      <trkpt lat="44.98254" lon="5.50696">
        <ele>1406.4000244141</ele>
        <time>2022-05-26T13:18:40.000Z</time>
      </trkpt>
      <trkpt lat="44.9825" lon="5.50697">
        <ele>1407</ele>
        <time>2022-05-26T13:18:47.000Z</time>
      </trkpt>
      <trkpt lat="44.98248" lon="5.50697">
        <ele>1407.1999511719</ele>
        <time>2022-05-26T13:18:51.000Z</time>
      </trkpt>
      <trkpt lat="44.98244" lon="5.50696">
        <ele>1407.8000488281</ele>
        <time>2022-05-26T13:18:57.000Z</time>
      </trkpt>
      <trkpt lat="44.98233" lon="5.50697">
        <ele>1409.4000244141</ele>
        <time>2022-05-26T13:19:12.000Z</time>
      </trkpt>
      <trkpt lat="44.98228" lon="5.50699">
        <ele>1410.4000244141</ele>
        <time>2022-05-26T13:19:18.000Z</time>
      </trkpt>
      <trkpt lat="44.9822" lon="5.50699">
        <ele>1411.4000244141</ele>
        <time>2022-05-26T13:19:25.000Z</time>
      </trkpt>
      <trkpt lat="44.98211" lon="5.50697">
        <ele>1412.5999755859</ele>
        <time>2022-05-26T13:19:34.000Z</time>
      </trkpt>
      <trkpt lat="44.98208" lon="5.50697">
        <ele>1413</ele>
        <time>2022-05-26T13:19:39.000Z</time>
      </trkpt>
      <trkpt lat="44.982" lon="5.50697">
        <ele>1413.8000488281</ele>
        <time>2022-05-26T13:19:47.000Z</time>
      </trkpt>
      <trkpt lat="44.98197" lon="5.50695">
        <ele>1414.1999511719</ele>
        <time>2022-05-26T13:19:51.000Z</time>
      </trkpt>
      <trkpt lat="44.98187" lon="5.50694">
        <ele>1415.1999511719</ele>
        <time>2022-05-26T13:20:03.000Z</time>
      </trkpt>
      <trkpt lat="44.9817" lon="5.50701">
        <ele>1417</ele>
        <time>2022-05-26T13:20:28.000Z</time>
      </trkpt>
      <trkpt lat="44.98162" lon="5.50702">
        <ele>1417.5999755859</ele>
        <time>2022-05-26T13:20:35.000Z</time>
      </trkpt>
      <trkpt lat="44.98145" lon="5.50693">
        <ele>1418.8000488281</ele>
        <time>2022-05-26T13:20:53.000Z</time>
      </trkpt>
      <trkpt lat="44.98141" lon="5.50692">
        <ele>1419.1999511719</ele>
        <time>2022-05-26T13:20:57.000Z</time>
      </trkpt>
      <trkpt lat="44.9814" lon="5.50691">
        <ele>1419.1999511719</ele>
        <time>2022-05-26T13:20:58.000Z</time>
      </trkpt>
      <trkpt lat="44.9814" lon="5.5069">
        <ele>1419.4000244141</ele>
        <time>2022-05-26T13:20:59.000Z</time>
      </trkpt>
      <trkpt lat="44.98139" lon="5.50689">
        <ele>1419.4000244141</ele>
        <time>2022-05-26T13:21:00.000Z</time>
      </trkpt>
      <trkpt lat="44.98122" lon="5.50681">
        <ele>1421.1999511719</ele>
        <time>2022-05-26T13:21:19.000Z</time>
      </trkpt>
      <trkpt lat="44.98119" lon="5.50681">
        <ele>1421.5999755859</ele>
        <time>2022-05-26T13:21:22.000Z</time>
      </trkpt>
      <trkpt lat="44.98108" lon="5.50681">
        <ele>1422.8000488281</ele>
        <time>2022-05-26T13:21:33.000Z</time>
      </trkpt>
      <trkpt lat="44.9809" lon="5.50678">
        <ele>1424.8000488281</ele>
        <time>2022-05-26T13:21:51.000Z</time>
      </trkpt>
      <trkpt lat="44.98072" lon="5.50672">
        <ele>1426</ele>
        <time>2022-05-26T13:22:07.000Z</time>
      </trkpt>
      <trkpt lat="44.98054" lon="5.50666">
        <ele>1427</ele>
        <time>2022-05-26T13:22:22.000Z</time>
      </trkpt>
      <trkpt lat="44.98044" lon="5.50645">
        <ele>1427.8000488281</ele>
        <time>2022-05-26T13:22:40.000Z</time>
      </trkpt>
      <trkpt lat="44.98031" lon="5.50626">
        <ele>1428.4000244141</ele>
        <time>2022-05-26T13:22:57.000Z</time>
      </trkpt>
      <trkpt lat="44.9802" lon="5.50604">
        <ele>1428.8000488281</ele>
        <time>2022-05-26T13:23:13.000Z</time>
      </trkpt>
      <trkpt lat="44.98011" lon="5.50581">
        <ele>1429.1999511719</ele>
        <time>2022-05-26T13:23:31.000Z</time>
      </trkpt>
      <trkpt lat="44.97999" lon="5.50562">
        <ele>1430</ele>
        <time>2022-05-26T13:23:46.000Z</time>
      </trkpt>
      <trkpt lat="44.97984" lon="5.50546">
        <ele>1430.8000488281</ele>
        <time>2022-05-26T13:24:02.000Z</time>
      </trkpt>
      <trkpt lat="44.97976" lon="5.5054">
        <ele>1430.8000488281</ele>
        <time>2022-05-26T13:24:10.000Z</time>
      </trkpt>
      <trkpt lat="44.97968" lon="5.50534">
        <ele>1430.8000488281</ele>
        <time>2022-05-26T13:24:18.000Z</time>
      </trkpt>
      <trkpt lat="44.97965" lon="5.50532">
        <ele>1430.8000488281</ele>
        <time>2022-05-26T13:24:21.000Z</time>
      </trkpt>
      <trkpt lat="44.97964" lon="5.50531">
        <ele>1431</ele>
        <time>2022-05-26T13:24:22.000Z</time>
      </trkpt>
      <trkpt lat="44.97962" lon="5.5053">
        <ele>1431</ele>
        <time>2022-05-26T13:24:24.000Z</time>
      </trkpt>
      <trkpt lat="44.97959" lon="5.50528">
        <ele>1431</ele>
        <time>2022-05-26T13:24:28.000Z</time>
      </trkpt>
      <trkpt lat="44.97958" lon="5.50527">
        <ele>1430.8000488281</ele>
        <time>2022-05-26T13:24:29.000Z</time>
      </trkpt>
      <trkpt lat="44.97956" lon="5.50525">
        <ele>1431</ele>
        <time>2022-05-26T13:24:32.000Z</time>
      </trkpt>
      <trkpt lat="44.97955" lon="5.50525">
        <ele>1431</ele>
        <time>2022-05-26T13:24:33.000Z</time>
      </trkpt>
      <trkpt lat="44.97947" lon="5.50519">
        <ele>1431.1999511719</ele>
        <time>2022-05-26T13:24:41.000Z</time>
      </trkpt>
      <trkpt lat="44.9793" lon="5.50511">
        <ele>1432.1999511719</ele>
        <time>2022-05-26T13:24:57.000Z</time>
      </trkpt>
      <trkpt lat="44.97914" lon="5.50497">
        <ele>1434.1999511719</ele>
        <time>2022-05-26T13:25:14.000Z</time>
      </trkpt>
      <trkpt lat="44.9791" lon="5.50492">
        <ele>1434.5999755859</ele>
        <time>2022-05-26T13:25:19.000Z</time>
      </trkpt>
      <trkpt lat="44.97901" lon="5.50476">
        <ele>1434.4000244141</ele>
        <time>2022-05-26T13:25:31.000Z</time>
      </trkpt>
      <trkpt lat="44.9789" lon="5.50455">
        <ele>1432.8000488281</ele>
        <time>2022-05-26T13:25:44.000Z</time>
      </trkpt>
      <trkpt lat="44.97876" lon="5.50438">
        <ele>1432.4000244141</ele>
        <time>2022-05-26T13:25:57.000Z</time>
      </trkpt>
      <trkpt lat="44.97863" lon="5.5042">
        <ele>1431.5999755859</ele>
        <time>2022-05-26T13:26:11.000Z</time>
      </trkpt>
      <trkpt lat="44.9785" lon="5.50401">
        <ele>1431.1999511719</ele>
        <time>2022-05-26T13:26:27.000Z</time>
      </trkpt>
      <trkpt lat="44.97837" lon="5.50381">
        <ele>1431</ele>
        <time>2022-05-26T13:26:45.000Z</time>
      </trkpt>
      <trkpt lat="44.97824" lon="5.50361">
        <ele>1430.8000488281</ele>
        <time>2022-05-26T13:27:01.000Z</time>
      </trkpt>
      <trkpt lat="44.97811" lon="5.50342">
        <ele>1431.1999511719</ele>
        <time>2022-05-26T13:27:17.000Z</time>
      </trkpt>
      <trkpt lat="44.97795" lon="5.5033">
        <ele>1431.4000244141</ele>
        <time>2022-05-26T13:27:30.000Z</time>
      </trkpt>
      <trkpt lat="44.97777" lon="5.50326">
        <ele>1431.5999755859</ele>
        <time>2022-05-26T13:27:44.000Z</time>
      </trkpt>
      <trkpt lat="44.97771" lon="5.50322">
        <ele>1431.4000244141</ele>
        <time>2022-05-26T13:27:50.000Z</time>
      </trkpt>
      <trkpt lat="44.97763" lon="5.5031">
        <ele>1430.5999755859</ele>
        <time>2022-05-26T13:28:01.000Z</time>
      </trkpt>
      <trkpt lat="44.97752" lon="5.50305">
        <ele>1430.4000244141</ele>
        <time>2022-05-26T13:28:12.000Z</time>
      </trkpt>
      <trkpt lat="44.97734" lon="5.50299">
        <ele>1430.4000244141</ele>
        <time>2022-05-26T13:28:30.000Z</time>
      </trkpt>
      <trkpt lat="44.97733" lon="5.50299">
        <ele>1430.1999511719</ele>
        <time>2022-05-26T13:28:31.000Z</time>
      </trkpt>
      <trkpt lat="44.97733" lon="5.50299">
        <ele>1430.1999511719</ele>
        <time>2022-05-26T13:28:32.000Z</time>
      </trkpt>
      <trkpt lat="44.97727" lon="5.50295">
        <ele>1429.8000488281</ele>
        <time>2022-05-26T13:28:39.000Z</time>
      </trkpt>
      <trkpt lat="44.97725" lon="5.50291">
        <ele>1429.4000244141</ele>
        <time>2022-05-26T13:28:43.000Z</time>
      </trkpt>
      <trkpt lat="44.97711" lon="5.50273">
        <ele>1427.5999755859</ele>
        <time>2022-05-26T13:29:01.000Z</time>
      </trkpt>
      <trkpt lat="44.97703" lon="5.50263">
        <ele>1426.8000488281</ele>
        <time>2022-05-26T13:29:10.000Z</time>
      </trkpt>
      <trkpt lat="44.97693" lon="5.50251">
        <ele>1425.5999755859</ele>
        <time>2022-05-26T13:29:19.000Z</time>
      </trkpt>
      <trkpt lat="44.97678" lon="5.50236">
        <ele>1424.5999755859</ele>
        <time>2022-05-26T13:29:33.000Z</time>
      </trkpt>
      <trkpt lat="44.97664" lon="5.5022">
        <ele>1424.5999755859</ele>
        <time>2022-05-26T13:29:49.000Z</time>
      </trkpt>
      <trkpt lat="44.97658" lon="5.50215">
        <ele>1424.8000488281</ele>
        <time>2022-05-26T13:29:56.000Z</time>
      </trkpt>
      <trkpt lat="44.97647" lon="5.5021">
        <ele>1425.4000244141</ele>
        <time>2022-05-26T13:30:06.000Z</time>
      </trkpt>
      <trkpt lat="44.97645" lon="5.5021">
        <ele>1425.4000244141</ele>
        <time>2022-05-26T13:30:07.000Z</time>
      </trkpt>
      <trkpt lat="44.97644" lon="5.50209">
        <ele>1425.5999755859</ele>
        <time>2022-05-26T13:30:08.000Z</time>
      </trkpt>
      <trkpt lat="44.97641" lon="5.50209">
        <ele>1425.8000488281</ele>
        <time>2022-05-26T13:30:10.000Z</time>
      </trkpt>
      <trkpt lat="44.9764" lon="5.50209">
        <ele>1425.8000488281</ele>
        <time>2022-05-26T13:30:11.000Z</time>
      </trkpt>
      <trkpt lat="44.97639" lon="5.50208">
        <ele>1426</ele>
        <time>2022-05-26T13:30:12.000Z</time>
      </trkpt>
      <trkpt lat="44.97631" lon="5.50206">
        <ele>1426.8000488281</ele>
        <time>2022-05-26T13:30:19.000Z</time>
      </trkpt>
      <trkpt lat="44.9763" lon="5.50206">
        <ele>1426.8000488281</ele>
        <time>2022-05-26T13:30:20.000Z</time>
      </trkpt>
      <trkpt lat="44.97628" lon="5.50206">
        <ele>1427</ele>
        <time>2022-05-26T13:30:21.000Z</time>
      </trkpt>
      <trkpt lat="44.97626" lon="5.50205">
        <ele>1427.1999511719</ele>
        <time>2022-05-26T13:30:23.000Z</time>
      </trkpt>
      <trkpt lat="44.97625" lon="5.50205">
        <ele>1427.4000244141</ele>
        <time>2022-05-26T13:30:24.000Z</time>
      </trkpt>
      <trkpt lat="44.97621" lon="5.50205">
        <ele>1427.5999755859</ele>
        <time>2022-05-26T13:30:27.000Z</time>
      </trkpt>
      <trkpt lat="44.9762" lon="5.50204">
        <ele>1427.5999755859</ele>
        <time>2022-05-26T13:30:28.000Z</time>
      </trkpt>
      <trkpt lat="44.97618" lon="5.50204">
        <ele>1427.8000488281</ele>
        <time>2022-05-26T13:30:30.000Z</time>
      </trkpt>
      <trkpt lat="44.97616" lon="5.50205">
        <ele>1428</ele>
        <time>2022-05-26T13:30:32.000Z</time>
      </trkpt>
      <trkpt lat="44.97615" lon="5.50205">
        <ele>1428</ele>
        <time>2022-05-26T13:30:33.000Z</time>
      </trkpt>
      <trkpt lat="44.97613" lon="5.50205">
        <ele>1428.1999511719</ele>
        <time>2022-05-26T13:30:35.000Z</time>
      </trkpt>
      <trkpt lat="44.9761" lon="5.50206">
        <ele>1428.4000244141</ele>
        <time>2022-05-26T13:30:38.000Z</time>
      </trkpt>
      <trkpt lat="44.97601" lon="5.50209">
        <ele>1429.5999755859</ele>
        <time>2022-05-26T13:30:47.000Z</time>
      </trkpt>
      <trkpt lat="44.97598" lon="5.5021">
        <ele>1430</ele>
        <time>2022-05-26T13:30:51.000Z</time>
      </trkpt>
      <trkpt lat="44.97598" lon="5.50211">
        <ele>1430</ele>
        <time>2022-05-26T13:30:52.000Z</time>
      </trkpt>
      <trkpt lat="44.97597" lon="5.50211">
        <ele>1430.1999511719</ele>
        <time>2022-05-26T13:30:53.000Z</time>
      </trkpt>
      <trkpt lat="44.97589" lon="5.50218">
        <ele>1431.4000244141</ele>
        <time>2022-05-26T13:31:01.000Z</time>
      </trkpt>
      <trkpt lat="44.97571" lon="5.50215">
        <ele>1432.5999755859</ele>
        <time>2022-05-26T13:31:14.000Z</time>
      </trkpt>
      <trkpt lat="44.97566" lon="5.5021">
        <ele>1432.5999755859</ele>
        <time>2022-05-26T13:31:20.000Z</time>
      </trkpt>
      <trkpt lat="44.97563" lon="5.50206">
        <ele>1432.4000244141</ele>
        <time>2022-05-26T13:31:24.000Z</time>
      </trkpt>
      <trkpt lat="44.97552" lon="5.50196">
        <ele>1432</ele>
        <time>2022-05-26T13:31:35.000Z</time>
      </trkpt>
      <trkpt lat="44.97549" lon="5.50193">
        <ele>1432</ele>
        <time>2022-05-26T13:31:37.000Z</time>
      </trkpt>
      <trkpt lat="44.97538" lon="5.50179">
        <ele>1430.8000488281</ele>
        <time>2022-05-26T13:31:48.000Z</time>
      </trkpt>
      <trkpt lat="44.97528" lon="5.50166">
        <ele>1429.4000244141</ele>
        <time>2022-05-26T13:31:59.000Z</time>
      </trkpt>
      <trkpt lat="44.97516" lon="5.50147">
        <ele>1426.1999511719</ele>
        <time>2022-05-26T13:32:10.000Z</time>
      </trkpt>
      <trkpt lat="44.97509" lon="5.5014">
        <ele>1425</ele>
        <time>2022-05-26T13:32:16.000Z</time>
      </trkpt>
      <trkpt lat="44.97495" lon="5.50122">
        <ele>1423.1999511719</ele>
        <time>2022-05-26T13:32:30.000Z</time>
      </trkpt>
      <trkpt lat="44.97493" lon="5.50118">
        <ele>1422.8000488281</ele>
        <time>2022-05-26T13:32:33.000Z</time>
      </trkpt>
      <trkpt lat="44.97492" lon="5.50117">
        <ele>1422.5999755859</ele>
        <time>2022-05-26T13:32:34.000Z</time>
      </trkpt>
      <trkpt lat="44.97484" lon="5.50106">
        <ele>1421.8000488281</ele>
        <time>2022-05-26T13:32:44.000Z</time>
      </trkpt>
      <trkpt lat="44.97481" lon="5.50103">
        <ele>1421.8000488281</ele>
        <time>2022-05-26T13:32:47.000Z</time>
      </trkpt>
      <trkpt lat="44.97476" lon="5.501">
        <ele>1422</ele>
        <time>2022-05-26T13:32:52.000Z</time>
      </trkpt>
      <trkpt lat="44.97462" lon="5.50082">
        <ele>1421.8000488281</ele>
        <time>2022-05-26T13:33:06.000Z</time>
      </trkpt>
      <trkpt lat="44.97455" lon="5.50063">
        <ele>1421.1999511719</ele>
        <time>2022-05-26T13:33:17.000Z</time>
      </trkpt>
      <trkpt lat="44.97452" lon="5.50048">
        <ele>1420.5999755859</ele>
        <time>2022-05-26T13:33:28.000Z</time>
      </trkpt>
      <trkpt lat="44.97451" lon="5.50046">
        <ele>1420.4000244141</ele>
        <time>2022-05-26T13:33:30.000Z</time>
      </trkpt>
      <trkpt lat="44.97448" lon="5.50041">
        <ele>1420.4000244141</ele>
        <time>2022-05-26T13:33:35.000Z</time>
      </trkpt>
      <trkpt lat="44.97448" lon="5.50037">
        <ele>1420.1999511719</ele>
        <time>2022-05-26T13:33:37.000Z</time>
      </trkpt>
      <trkpt lat="44.97445" lon="5.50033">
        <ele>1420</ele>
        <time>2022-05-26T13:33:42.000Z</time>
      </trkpt>
      <trkpt lat="44.97444" lon="5.50031">
        <ele>1420</ele>
        <time>2022-05-26T13:33:44.000Z</time>
      </trkpt>
      <trkpt lat="44.97442" lon="5.50027">
        <ele>1419.8000488281</ele>
        <time>2022-05-26T13:33:47.000Z</time>
      </trkpt>
      <trkpt lat="44.9744" lon="5.50022">
        <ele>1419.8000488281</ele>
        <time>2022-05-26T13:33:51.000Z</time>
      </trkpt>
      <trkpt lat="44.97436" lon="5.50015">
        <ele>1419.4000244141</ele>
        <time>2022-05-26T13:33:55.000Z</time>
      </trkpt>
      <trkpt lat="44.97421" lon="5.50001">
        <ele>1418.5999755859</ele>
        <time>2022-05-26T13:34:07.000Z</time>
      </trkpt>
      <trkpt lat="44.9741" lon="5.49988">
        <ele>1417.8000488281</ele>
        <time>2022-05-26T13:34:18.000Z</time>
      </trkpt>
      <trkpt lat="44.97408" lon="5.49983">
        <ele>1417.5999755859</ele>
        <time>2022-05-26T13:34:21.000Z</time>
      </trkpt>
      <trkpt lat="44.97406" lon="5.49979">
        <ele>1417.4000244141</ele>
        <time>2022-05-26T13:34:24.000Z</time>
      </trkpt>
      <trkpt lat="44.97396" lon="5.49955">
        <ele>1415.8000488281</ele>
        <time>2022-05-26T13:34:40.000Z</time>
      </trkpt>
      <trkpt lat="44.9739" lon="5.49941">
        <ele>1414.8000488281</ele>
        <time>2022-05-26T13:34:49.000Z</time>
      </trkpt>
      <trkpt lat="44.97386" lon="5.49936">
        <ele>1414.5999755859</ele>
        <time>2022-05-26T13:34:54.000Z</time>
      </trkpt>
      <trkpt lat="44.97383" lon="5.49928">
        <ele>1414.4000244141</ele>
        <time>2022-05-26T13:34:59.000Z</time>
      </trkpt>
      <trkpt lat="44.97375" lon="5.49905">
        <ele>1413.1999511719</ele>
        <time>2022-05-26T13:35:12.000Z</time>
      </trkpt>
      <trkpt lat="44.97371" lon="5.49883">
        <ele>1411.5999755859</ele>
        <time>2022-05-26T13:35:23.000Z</time>
      </trkpt>
      <trkpt lat="44.97361" lon="5.49867">
        <ele>1410.4000244141</ele>
        <time>2022-05-26T13:35:35.000Z</time>
      </trkpt>
      <trkpt lat="44.97354" lon="5.49843">
        <ele>1407.4000244141</ele>
        <time>2022-05-26T13:35:51.000Z</time>
      </trkpt>
      <trkpt lat="44.97352" lon="5.49838">
        <ele>1406.8000488281</ele>
        <time>2022-05-26T13:35:54.000Z</time>
      </trkpt>
      <trkpt lat="44.97337" lon="5.49823">
        <ele>1406.4000244141</ele>
        <time>2022-05-26T13:36:10.000Z</time>
      </trkpt>
      <trkpt lat="44.97331" lon="5.49813">
        <ele>1406.4000244141</ele>
        <time>2022-05-26T13:36:19.000Z</time>
      </trkpt>
      <trkpt lat="44.97328" lon="5.49788">
        <ele>1405.8000488281</ele>
        <time>2022-05-26T13:36:35.000Z</time>
      </trkpt>
      <trkpt lat="44.97328" lon="5.49766">
        <ele>1404.4000244141</ele>
        <time>2022-05-26T13:36:49.000Z</time>
      </trkpt>
      <trkpt lat="44.97326" lon="5.49756">
        <ele>1403.8000488281</ele>
        <time>2022-05-26T13:36:55.000Z</time>
      </trkpt>
      <trkpt lat="44.97326" lon="5.49754">
        <ele>1403.8000488281</ele>
        <time>2022-05-26T13:36:56.000Z</time>
      </trkpt>
      <trkpt lat="44.97325" lon="5.49749">
        <ele>1403.5999755859</ele>
        <time>2022-05-26T13:36:58.000Z</time>
      </trkpt>
      <trkpt lat="44.97321" lon="5.49728">
        <ele>1402.1999511719</ele>
        <time>2022-05-26T13:37:12.000Z</time>
      </trkpt>
      <trkpt lat="44.97321" lon="5.49722">
        <ele>1401.8000488281</ele>
        <time>2022-05-26T13:37:17.000Z</time>
      </trkpt>
      <trkpt lat="44.97322" lon="5.4972">
        <ele>1401.5999755859</ele>
        <time>2022-05-26T13:37:19.000Z</time>
      </trkpt>
      <trkpt lat="44.97322" lon="5.49717">
        <ele>1401.1999511719</ele>
        <time>2022-05-26T13:37:21.000Z</time>
      </trkpt>
      <trkpt lat="44.9732" lon="5.49707">
        <ele>1400.1999511719</ele>
        <time>2022-05-26T13:37:28.000Z</time>
      </trkpt>
      <trkpt lat="44.97318" lon="5.49704">
        <ele>1400</ele>
        <time>2022-05-26T13:37:30.000Z</time>
      </trkpt>
      <trkpt lat="44.97317" lon="5.497">
        <ele>1399.5999755859</ele>
        <time>2022-05-26T13:37:34.000Z</time>
      </trkpt>
      <trkpt lat="44.97314" lon="5.49696">
        <ele>1399.4000244141</ele>
        <time>2022-05-26T13:37:38.000Z</time>
      </trkpt>
      <trkpt lat="44.97312" lon="5.49691">
        <ele>1399</ele>
        <time>2022-05-26T13:37:43.000Z</time>
      </trkpt>
      <trkpt lat="44.97312" lon="5.49689">
        <ele>1398.8000488281</ele>
        <time>2022-05-26T13:37:45.000Z</time>
      </trkpt>
      <trkpt lat="44.97311" lon="5.49685">
        <ele>1398.4000244141</ele>
        <time>2022-05-26T13:37:48.000Z</time>
      </trkpt>
      <trkpt lat="44.97307" lon="5.49669">
        <ele>1397.1999511719</ele>
        <time>2022-05-26T13:38:00.000Z</time>
      </trkpt>
      <trkpt lat="44.97301" lon="5.49658">
        <ele>1396</ele>
        <time>2022-05-26T13:38:12.000Z</time>
      </trkpt>
      <trkpt lat="44.97297" lon="5.49652">
        <ele>1395.4000244141</ele>
        <time>2022-05-26T13:38:17.000Z</time>
      </trkpt>
      <trkpt lat="44.97297" lon="5.4965">
        <ele>1395.1999511719</ele>
        <time>2022-05-26T13:38:19.000Z</time>
      </trkpt>
      <trkpt lat="44.97297" lon="5.49647">
        <ele>1394.8000488281</ele>
        <time>2022-05-26T13:38:21.000Z</time>
      </trkpt>
      <trkpt lat="44.973" lon="5.49635">
        <ele>1393.1999511719</ele>
        <time>2022-05-26T13:38:29.000Z</time>
      </trkpt>
      <trkpt lat="44.97299" lon="5.49621">
        <ele>1391.1999511719</ele>
        <time>2022-05-26T13:38:37.000Z</time>
      </trkpt>
      <trkpt lat="44.973" lon="5.49611">
        <ele>1389.8000488281</ele>
        <time>2022-05-26T13:38:43.000Z</time>
      </trkpt>
      <trkpt lat="44.97298" lon="5.49604">
        <ele>1389.4000244141</ele>
        <time>2022-05-26T13:38:49.000Z</time>
      </trkpt>
      <trkpt lat="44.97298" lon="5.496">
        <ele>1389.4000244141</ele>
        <time>2022-05-26T13:38:52.000Z</time>
      </trkpt>
      <trkpt lat="44.97298" lon="5.49597">
        <ele>1389.1999511719</ele>
        <time>2022-05-26T13:38:54.000Z</time>
      </trkpt>
      <trkpt lat="44.97293" lon="5.49586">
        <ele>1389</ele>
        <time>2022-05-26T13:39:04.000Z</time>
      </trkpt>
      <trkpt lat="44.97291" lon="5.49573">
        <ele>1388.1999511719</ele>
        <time>2022-05-26T13:39:11.000Z</time>
      </trkpt>
      <trkpt lat="44.97289" lon="5.49566">
        <ele>1387.8000488281</ele>
        <time>2022-05-26T13:39:17.000Z</time>
      </trkpt>
      <trkpt lat="44.97289" lon="5.49559">
        <ele>1387.1999511719</ele>
        <time>2022-05-26T13:39:22.000Z</time>
      </trkpt>
      <trkpt lat="44.97288" lon="5.49549">
        <ele>1386.4000244141</ele>
        <time>2022-05-26T13:39:27.000Z</time>
      </trkpt>
      <trkpt lat="44.97283" lon="5.4954">
        <ele>1385.5999755859</ele>
        <time>2022-05-26T13:39:36.000Z</time>
      </trkpt>
      <trkpt lat="44.97281" lon="5.49535">
        <ele>1385.1999511719</ele>
        <time>2022-05-26T13:39:39.000Z</time>
      </trkpt>
      <trkpt lat="44.97279" lon="5.49528">
        <ele>1384.4000244141</ele>
        <time>2022-05-26T13:39:44.000Z</time>
      </trkpt>
      <trkpt lat="44.97276" lon="5.49523">
        <ele>1384.1999511719</ele>
        <time>2022-05-26T13:39:49.000Z</time>
      </trkpt>
      <trkpt lat="44.97274" lon="5.49508">
        <ele>1383.1999511719</ele>
        <time>2022-05-26T13:40:01.000Z</time>
      </trkpt>
      <trkpt lat="44.97275" lon="5.49497">
        <ele>1381.8000488281</ele>
        <time>2022-05-26T13:40:08.000Z</time>
      </trkpt>
      <trkpt lat="44.97275" lon="5.49495">
        <ele>1381.5999755859</ele>
        <time>2022-05-26T13:40:10.000Z</time>
      </trkpt>
      <trkpt lat="44.97274" lon="5.49493">
        <ele>1381.4000244141</ele>
        <time>2022-05-26T13:40:13.000Z</time>
      </trkpt>
      <trkpt lat="44.97278" lon="5.49479">
        <ele>1380</ele>
        <time>2022-05-26T13:40:29.000Z</time>
      </trkpt>
      <trkpt lat="44.97278" lon="5.49477">
        <ele>1379.8000488281</ele>
        <time>2022-05-26T13:40:31.000Z</time>
      </trkpt>
      <trkpt lat="44.97278" lon="5.49474">
        <ele>1379.5999755859</ele>
        <time>2022-05-26T13:40:34.000Z</time>
      </trkpt>
      <trkpt lat="44.97277" lon="5.49472">
        <ele>1379.4000244141</ele>
        <time>2022-05-26T13:40:35.000Z</time>
      </trkpt>
      <trkpt lat="44.97275" lon="5.49464">
        <ele>1379.1999511719</ele>
        <time>2022-05-26T13:40:40.000Z</time>
      </trkpt>
      <trkpt lat="44.97274" lon="5.49459">
        <ele>1379.1999511719</ele>
        <time>2022-05-26T13:40:44.000Z</time>
      </trkpt>
      <trkpt lat="44.97273" lon="5.49458">
        <ele>1379.1999511719</ele>
        <time>2022-05-26T13:40:45.000Z</time>
      </trkpt>
      <trkpt lat="44.97272" lon="5.49456">
        <ele>1379</ele>
        <time>2022-05-26T13:40:48.000Z</time>
      </trkpt>
      <trkpt lat="44.97271" lon="5.49454">
        <ele>1379</ele>
        <time>2022-05-26T13:40:52.000Z</time>
      </trkpt>
      <trkpt lat="44.97271" lon="5.49453">
        <ele>1379</ele>
        <time>2022-05-26T13:40:55.000Z</time>
      </trkpt>
      <trkpt lat="44.97274" lon="5.49442">
        <ele>1378.5999755859</ele>
        <time>2022-05-26T13:41:06.000Z</time>
      </trkpt>
      <trkpt lat="44.97274" lon="5.49436">
        <ele>1378.1999511719</ele>
        <time>2022-05-26T13:41:13.000Z</time>
      </trkpt>
      <trkpt lat="44.97274" lon="5.49433">
        <ele>1378.1999511719</ele>
        <time>2022-05-26T13:41:15.000Z</time>
      </trkpt>
      <trkpt lat="44.97273" lon="5.49433">
        <ele>1378.1999511719</ele>
        <time>2022-05-26T13:41:16.000Z</time>
      </trkpt>
      <trkpt lat="44.97272" lon="5.49431">
        <ele>1378.1999511719</ele>
        <time>2022-05-26T13:41:17.000Z</time>
      </trkpt>
      <trkpt lat="44.97271" lon="5.4943">
        <ele>1378.1999511719</ele>
        <time>2022-05-26T13:41:18.000Z</time>
      </trkpt>
      <trkpt lat="44.97268" lon="5.49425">
        <ele>1378.1999511719</ele>
        <time>2022-05-26T13:41:22.000Z</time>
      </trkpt>
      <trkpt lat="44.97267" lon="5.49423">
        <ele>1378.1999511719</ele>
        <time>2022-05-26T13:41:24.000Z</time>
      </trkpt>
      <trkpt lat="44.97266" lon="5.49421">
        <ele>1378</ele>
        <time>2022-05-26T13:41:25.000Z</time>
      </trkpt>
      <trkpt lat="44.97266" lon="5.49417">
        <ele>1378</ele>
        <time>2022-05-26T13:41:29.000Z</time>
      </trkpt>
      <trkpt lat="44.97266" lon="5.49413">
        <ele>1377.8000488281</ele>
        <time>2022-05-26T13:41:31.000Z</time>
      </trkpt>
      <trkpt lat="44.97265" lon="5.49408">
        <ele>1377.4000244141</ele>
        <time>2022-05-26T13:41:33.000Z</time>
      </trkpt>
      <trkpt lat="44.97259" lon="5.49382">
        <ele>1375.8000488281</ele>
        <time>2022-05-26T13:41:45.000Z</time>
      </trkpt>
      <trkpt lat="44.97258" lon="5.4937">
        <ele>1375.4000244141</ele>
        <time>2022-05-26T13:41:51.000Z</time>
      </trkpt>
      <trkpt lat="44.97256" lon="5.49364">
        <ele>1375.1999511719</ele>
        <time>2022-05-26T13:41:57.000Z</time>
      </trkpt>
      <trkpt lat="44.97254" lon="5.49354">
        <ele>1374.8000488281</ele>
        <time>2022-05-26T13:42:05.000Z</time>
      </trkpt>
      <trkpt lat="44.97253" lon="5.49349">
        <ele>1374.5999755859</ele>
        <time>2022-05-26T13:42:08.000Z</time>
      </trkpt>
      <trkpt lat="44.97254" lon="5.49328">
        <ele>1373.5999755859</ele>
        <time>2022-05-26T13:42:21.000Z</time>
      </trkpt>
      <trkpt lat="44.97252" lon="5.49323">
        <ele>1373.1999511719</ele>
        <time>2022-05-26T13:42:25.000Z</time>
      </trkpt>
      <trkpt lat="44.9725" lon="5.49319">
        <ele>1373</ele>
        <time>2022-05-26T13:42:27.000Z</time>
      </trkpt>
      <trkpt lat="44.97247" lon="5.49311">
        <ele>1372.5999755859</ele>
        <time>2022-05-26T13:42:32.000Z</time>
      </trkpt>
      <trkpt lat="44.97248" lon="5.49303">
        <ele>1372.4000244141</ele>
        <time>2022-05-26T13:42:37.000Z</time>
      </trkpt>
      <trkpt lat="44.97248" lon="5.49295">
        <ele>1372</ele>
        <time>2022-05-26T13:42:42.000Z</time>
      </trkpt>
      <trkpt lat="44.97251" lon="5.49289">
        <ele>1372</ele>
        <time>2022-05-26T13:42:48.000Z</time>
      </trkpt>
      <trkpt lat="44.97251" lon="5.49286">
        <ele>1371.8000488281</ele>
        <time>2022-05-26T13:42:51.000Z</time>
      </trkpt>
      <trkpt lat="44.97251" lon="5.49281">
        <ele>1371.5999755859</ele>
        <time>2022-05-26T13:42:54.000Z</time>
      </trkpt>
      <trkpt lat="44.9725" lon="5.49268">
        <ele>1371.5999755859</ele>
        <time>2022-05-26T13:43:05.000Z</time>
      </trkpt>
      <trkpt lat="44.9725" lon="5.49267">
        <ele>1371.5999755859</ele>
        <time>2022-05-26T13:43:06.000Z</time>
      </trkpt>
      <trkpt lat="44.9725" lon="5.49266">
        <ele>1371.5999755859</ele>
        <time>2022-05-26T13:43:07.000Z</time>
      </trkpt>
      <trkpt lat="44.9725" lon="5.49265">
        <ele>1371.5999755859</ele>
        <time>2022-05-26T13:43:08.000Z</time>
      </trkpt>
      <trkpt lat="44.97249" lon="5.49262">
        <ele>1371.4000244141</ele>
        <time>2022-05-26T13:43:11.000Z</time>
      </trkpt>
      <trkpt lat="44.97248" lon="5.4926">
        <ele>1371.4000244141</ele>
        <time>2022-05-26T13:43:12.000Z</time>
      </trkpt>
      <trkpt lat="44.97248" lon="5.49258">
        <ele>1371.1999511719</ele>
        <time>2022-05-26T13:43:14.000Z</time>
      </trkpt>
      <trkpt lat="44.97249" lon="5.49255">
        <ele>1371.1999511719</ele>
        <time>2022-05-26T13:43:16.000Z</time>
      </trkpt>
      <trkpt lat="44.9725" lon="5.4925">
        <ele>1371</ele>
        <time>2022-05-26T13:43:19.000Z</time>
      </trkpt>
      <trkpt lat="44.9725" lon="5.49249">
        <ele>1371</ele>
        <time>2022-05-26T13:43:20.000Z</time>
      </trkpt>
      <trkpt lat="44.97253" lon="5.49245">
        <ele>1370.8000488281</ele>
        <time>2022-05-26T13:43:23.000Z</time>
      </trkpt>
      <trkpt lat="44.97253" lon="5.49244">
        <ele>1370.8000488281</ele>
        <time>2022-05-26T13:43:24.000Z</time>
      </trkpt>
      <trkpt lat="44.97255" lon="5.49243">
        <ele>1370.8000488281</ele>
        <time>2022-05-26T13:43:25.000Z</time>
      </trkpt>
      <trkpt lat="44.97256" lon="5.49238">
        <ele>1370.5999755859</ele>
        <time>2022-05-26T13:43:29.000Z</time>
      </trkpt>
      <trkpt lat="44.97257" lon="5.49237">
        <ele>1370.5999755859</ele>
        <time>2022-05-26T13:43:30.000Z</time>
      </trkpt>
      <trkpt lat="44.97257" lon="5.49232">
        <ele>1370.4000244141</ele>
        <time>2022-05-26T13:43:33.000Z</time>
      </trkpt>
      <trkpt lat="44.97259" lon="5.49229">
        <ele>1370.1999511719</ele>
        <time>2022-05-26T13:43:35.000Z</time>
      </trkpt>
      <trkpt lat="44.97259" lon="5.49228">
        <ele>1370.1999511719</ele>
        <time>2022-05-26T13:43:36.000Z</time>
      </trkpt>
      <trkpt lat="44.97259" lon="5.49227">
        <ele>1370.1999511719</ele>
        <time>2022-05-26T13:43:37.000Z</time>
      </trkpt>
      <trkpt lat="44.9726" lon="5.49226">
        <ele>1370.1999511719</ele>
        <time>2022-05-26T13:43:38.000Z</time>
      </trkpt>
      <trkpt lat="44.97261" lon="5.49225">
        <ele>1370</ele>
        <time>2022-05-26T13:43:40.000Z</time>
      </trkpt>
      <trkpt lat="44.97263" lon="5.4922">
        <ele>1369.8000488281</ele>
        <time>2022-05-26T13:43:43.000Z</time>
      </trkpt>
      <trkpt lat="44.97269" lon="5.49211">
        <ele>1369.1999511719</ele>
        <time>2022-05-26T13:43:51.000Z</time>
      </trkpt>
      <trkpt lat="44.97272" lon="5.49206">
        <ele>1368.8000488281</ele>
        <time>2022-05-26T13:43:55.000Z</time>
      </trkpt>
      <trkpt lat="44.97282" lon="5.49194">
        <ele>1368</ele>
        <time>2022-05-26T13:44:07.000Z</time>
      </trkpt>
      <trkpt lat="44.97283" lon="5.49191">
        <ele>1367.8000488281</ele>
        <time>2022-05-26T13:44:09.000Z</time>
      </trkpt>
      <trkpt lat="44.97285" lon="5.49185">
        <ele>1367.4000244141</ele>
        <time>2022-05-26T13:44:13.000Z</time>
      </trkpt>
      <trkpt lat="44.97285" lon="5.49184">
        <ele>1367.1999511719</ele>
        <time>2022-05-26T13:44:14.000Z</time>
      </trkpt>
      <trkpt lat="44.97284" lon="5.4918">
        <ele>1367</ele>
        <time>2022-05-26T13:44:20.000Z</time>
      </trkpt>
      <trkpt lat="44.97283" lon="5.4918">
        <ele>1367</ele>
        <time>2022-05-26T13:44:24.000Z</time>
      </trkpt>
      <trkpt lat="44.97283" lon="5.49178">
        <ele>1366.8000488281</ele>
        <time>2022-05-26T13:44:30.000Z</time>
      </trkpt>
      <trkpt lat="44.97283" lon="5.49176">
        <ele>1366.5999755859</ele>
        <time>2022-05-26T13:44:31.000Z</time>
      </trkpt>
      <trkpt lat="44.97283" lon="5.49171">
        <ele>1366.4000244141</ele>
        <time>2022-05-26T13:44:35.000Z</time>
      </trkpt>
      <trkpt lat="44.97284" lon="5.49166">
        <ele>1366</ele>
        <time>2022-05-26T13:44:40.000Z</time>
      </trkpt>
      <trkpt lat="44.97286" lon="5.49163">
        <ele>1365.4000244141</ele>
        <time>2022-05-26T13:44:43.000Z</time>
      </trkpt>
      <trkpt lat="44.97288" lon="5.49156">
        <ele>1364.8000488281</ele>
        <time>2022-05-26T13:44:48.000Z</time>
      </trkpt>
      <trkpt lat="44.97289" lon="5.49151">
        <ele>1364.1999511719</ele>
        <time>2022-05-26T13:44:51.000Z</time>
      </trkpt>
      <trkpt lat="44.97291" lon="5.49134">
        <ele>1362.4000244141</ele>
        <time>2022-05-26T13:45:02.000Z</time>
      </trkpt>
      <trkpt lat="44.97292" lon="5.49129">
        <ele>1361.5999755859</ele>
        <time>2022-05-26T13:45:06.000Z</time>
      </trkpt>
      <trkpt lat="44.97296" lon="5.49105">
        <ele>1358.4000244141</ele>
        <time>2022-05-26T13:45:20.000Z</time>
      </trkpt>
      <trkpt lat="44.97298" lon="5.49089">
        <ele>1356</ele>
        <time>2022-05-26T13:45:31.000Z</time>
      </trkpt>
      <trkpt lat="44.97297" lon="5.49085">
        <ele>1355.4000244141</ele>
        <time>2022-05-26T13:45:35.000Z</time>
      </trkpt>
      <trkpt lat="44.97298" lon="5.49083">
        <ele>1355.1999511719</ele>
        <time>2022-05-26T13:45:37.000Z</time>
      </trkpt>
      <trkpt lat="44.97299" lon="5.49064">
        <ele>1353.1999511719</ele>
        <time>2022-05-26T13:45:50.000Z</time>
      </trkpt>
      <trkpt lat="44.97299" lon="5.49061">
        <ele>1353</ele>
        <time>2022-05-26T13:45:52.000Z</time>
      </trkpt>
      <trkpt lat="44.973" lon="5.49055">
        <ele>1352.5999755859</ele>
        <time>2022-05-26T13:45:56.000Z</time>
      </trkpt>
      <trkpt lat="44.97297" lon="5.49045">
        <ele>1351.8000488281</ele>
        <time>2022-05-26T13:46:04.000Z</time>
      </trkpt>
      <trkpt lat="44.97297" lon="5.49044">
        <ele>1351.5999755859</ele>
        <time>2022-05-26T13:46:06.000Z</time>
      </trkpt>
      <trkpt lat="44.97296" lon="5.49042">
        <ele>1351.4000244141</ele>
        <time>2022-05-26T13:46:08.000Z</time>
      </trkpt>
      <trkpt lat="44.97295" lon="5.49038">
        <ele>1351</ele>
        <time>2022-05-26T13:46:11.000Z</time>
      </trkpt>
      <trkpt lat="44.9729" lon="5.49014">
        <ele>1349.4000244141</ele>
        <time>2022-05-26T13:46:27.000Z</time>
      </trkpt>
      <trkpt lat="44.9729" lon="5.49005">
        <ele>1349.1999511719</ele>
        <time>2022-05-26T13:46:33.000Z</time>
      </trkpt>
      <trkpt lat="44.9729" lon="5.49004">
        <ele>1349</ele>
        <time>2022-05-26T13:46:36.000Z</time>
      </trkpt>
      <trkpt lat="44.97291" lon="5.49">
        <ele>1349</ele>
        <time>2022-05-26T13:46:39.000Z</time>
      </trkpt>
      <trkpt lat="44.9729" lon="5.4899">
        <ele>1348.5999755859</ele>
        <time>2022-05-26T13:46:44.000Z</time>
      </trkpt>
      <trkpt lat="44.97287" lon="5.48982">
        <ele>1348.1999511719</ele>
        <time>2022-05-26T13:46:49.000Z</time>
      </trkpt>
      <trkpt lat="44.97281" lon="5.48968">
        <ele>1347.8000488281</ele>
        <time>2022-05-26T13:47:01.000Z</time>
      </trkpt>
      <trkpt lat="44.97279" lon="5.48966">
        <ele>1347.8000488281</ele>
        <time>2022-05-26T13:47:04.000Z</time>
      </trkpt>
      <trkpt lat="44.97278" lon="5.4896">
        <ele>1348</ele>
        <time>2022-05-26T13:47:08.000Z</time>
      </trkpt>
      <trkpt lat="44.97279" lon="5.48955">
        <ele>1348.1999511719</ele>
        <time>2022-05-26T13:47:12.000Z</time>
      </trkpt>
      <trkpt lat="44.97277" lon="5.48951">
        <ele>1348.1999511719</ele>
        <time>2022-05-26T13:47:16.000Z</time>
      </trkpt>
      <trkpt lat="44.97276" lon="5.48951">
        <ele>1348.1999511719</ele>
        <time>2022-05-26T13:47:20.000Z</time>
      </trkpt>
      <trkpt lat="44.97275" lon="5.48951">
        <ele>1348.1999511719</ele>
        <time>2022-05-26T13:47:24.000Z</time>
      </trkpt>
      <trkpt lat="44.97276" lon="5.48951">
        <ele>1348.1999511719</ele>
        <time>2022-05-26T13:47:27.000Z</time>
      </trkpt>
      <trkpt lat="44.97275" lon="5.4895">
        <ele>1348.1999511719</ele>
        <time>2022-05-26T13:47:37.000Z</time>
      </trkpt>
      <trkpt lat="44.97274" lon="5.48946">
        <ele>1348.4000244141</ele>
        <time>2022-05-26T13:47:46.000Z</time>
      </trkpt>
      <trkpt lat="44.97274" lon="5.48944">
        <ele>1348.4000244141</ele>
        <time>2022-05-26T13:47:48.000Z</time>
      </trkpt>
      <trkpt lat="44.97274" lon="5.48938">
        <ele>1348.8000488281</ele>
        <time>2022-05-26T13:47:53.000Z</time>
      </trkpt>
      <trkpt lat="44.97275" lon="5.48933">
        <ele>1349.1999511719</ele>
        <time>2022-05-26T13:47:56.000Z</time>
      </trkpt>
      <trkpt lat="44.97272" lon="5.48916">
        <ele>1350</ele>
        <time>2022-05-26T13:48:07.000Z</time>
      </trkpt>
      <trkpt lat="44.97268" lon="5.48908">
        <ele>1350.8000488281</ele>
        <time>2022-05-26T13:48:12.000Z</time>
      </trkpt>
      <trkpt lat="44.97265" lon="5.48903">
        <ele>1351.4000244141</ele>
        <time>2022-05-26T13:48:18.000Z</time>
      </trkpt>
      <trkpt lat="44.97264" lon="5.48902">
        <ele>1351.5999755859</ele>
        <time>2022-05-26T13:48:19.000Z</time>
      </trkpt>
      <trkpt lat="44.97263" lon="5.48901">
        <ele>1351.5999755859</ele>
        <time>2022-05-26T13:48:20.000Z</time>
      </trkpt>
      <trkpt lat="44.9726" lon="5.48896">
        <ele>1352.4000244141</ele>
        <time>2022-05-26T13:48:27.000Z</time>
      </trkpt>
      <trkpt lat="44.97258" lon="5.48893">
        <ele>1352.5999755859</ele>
        <time>2022-05-26T13:48:31.000Z</time>
      </trkpt>
      <trkpt lat="44.97258" lon="5.48889">
        <ele>1353.1999511719</ele>
        <time>2022-05-26T13:48:34.000Z</time>
      </trkpt>
      <trkpt lat="44.97256" lon="5.48873">
        <ele>1354.4000244141</ele>
        <time>2022-05-26T13:48:48.000Z</time>
      </trkpt>
      <trkpt lat="44.97256" lon="5.4887">
        <ele>1354.5999755859</ele>
        <time>2022-05-26T13:48:50.000Z</time>
      </trkpt>
      <trkpt lat="44.97255" lon="5.48865">
        <ele>1355</ele>
        <time>2022-05-26T13:48:52.000Z</time>
      </trkpt>
      <trkpt lat="44.97251" lon="5.48841">
        <ele>1356.4000244141</ele>
        <time>2022-05-26T13:49:05.000Z</time>
      </trkpt>
      <trkpt lat="44.9725" lon="5.48834">
        <ele>1357</ele>
        <time>2022-05-26T13:49:09.000Z</time>
      </trkpt>
      <trkpt lat="44.97251" lon="5.48828">
        <ele>1357.4000244141</ele>
        <time>2022-05-26T13:49:14.000Z</time>
      </trkpt>
      <trkpt lat="44.9725" lon="5.48811">
        <ele>1358.1999511719</ele>
        <time>2022-05-26T13:49:24.000Z</time>
      </trkpt>
      <trkpt lat="44.9725" lon="5.48808">
        <ele>1358.4000244141</ele>
        <time>2022-05-26T13:49:26.000Z</time>
      </trkpt>
      <trkpt lat="44.9725" lon="5.48806">
        <ele>1358.4000244141</ele>
        <time>2022-05-26T13:49:27.000Z</time>
      </trkpt>
      <trkpt lat="44.97252" lon="5.48787">
        <ele>1359</ele>
        <time>2022-05-26T13:49:38.000Z</time>
      </trkpt>
      <trkpt lat="44.97253" lon="5.48774">
        <ele>1359.4000244141</ele>
        <time>2022-05-26T13:49:46.000Z</time>
      </trkpt>
      <trkpt lat="44.97252" lon="5.48766">
        <ele>1359.8000488281</ele>
        <time>2022-05-26T13:49:52.000Z</time>
      </trkpt>
      <trkpt lat="44.97252" lon="5.48765">
        <ele>1359.8000488281</ele>
        <time>2022-05-26T13:49:53.000Z</time>
      </trkpt>
      <trkpt lat="44.97249" lon="5.48759">
        <ele>1360.4000244141</ele>
        <time>2022-05-26T13:49:58.000Z</time>
      </trkpt>
      <trkpt lat="44.97247" lon="5.48756">
        <ele>1360.5999755859</ele>
        <time>2022-05-26T13:50:01.000Z</time>
      </trkpt>
      <trkpt lat="44.97246" lon="5.48752">
        <ele>1360.8000488281</ele>
        <time>2022-05-26T13:50:04.000Z</time>
      </trkpt>
      <trkpt lat="44.97247" lon="5.48746">
        <ele>1361.1999511719</ele>
        <time>2022-05-26T13:50:08.000Z</time>
      </trkpt>
      <trkpt lat="44.97246" lon="5.4874">
        <ele>1361.4000244141</ele>
        <time>2022-05-26T13:50:12.000Z</time>
      </trkpt>
      <trkpt lat="44.97246" lon="5.48735">
        <ele>1361.5999755859</ele>
        <time>2022-05-26T13:50:16.000Z</time>
      </trkpt>
      <trkpt lat="44.97244" lon="5.48725">
        <ele>1362</ele>
        <time>2022-05-26T13:50:23.000Z</time>
      </trkpt>
      <trkpt lat="44.97244" lon="5.48721">
        <ele>1362</ele>
        <time>2022-05-26T13:50:25.000Z</time>
      </trkpt>
      <trkpt lat="44.97243" lon="5.48713">
        <ele>1362.4000244141</ele>
        <time>2022-05-26T13:50:31.000Z</time>
      </trkpt>
      <trkpt lat="44.97242" lon="5.4871">
        <ele>1362.4000244141</ele>
        <time>2022-05-26T13:50:34.000Z</time>
      </trkpt>
      <trkpt lat="44.97238" lon="5.48702">
        <ele>1362.8000488281</ele>
        <time>2022-05-26T13:50:41.000Z</time>
      </trkpt>
      <trkpt lat="44.97238" lon="5.48698">
        <ele>1362.8000488281</ele>
        <time>2022-05-26T13:50:45.000Z</time>
      </trkpt>
      <trkpt lat="44.97239" lon="5.48692">
        <ele>1363</ele>
        <time>2022-05-26T13:50:49.000Z</time>
      </trkpt>
      <trkpt lat="44.97238" lon="5.48678">
        <ele>1362.4000244141</ele>
        <time>2022-05-26T13:50:57.000Z</time>
      </trkpt>
      <trkpt lat="44.97234" lon="5.48664">
        <ele>1362</ele>
        <time>2022-05-26T13:51:07.000Z</time>
      </trkpt>
      <trkpt lat="44.97231" lon="5.48662">
        <ele>1362</ele>
        <time>2022-05-26T13:51:10.000Z</time>
      </trkpt>
      <trkpt lat="44.9723" lon="5.48663">
        <ele>1362</ele>
        <time>2022-05-26T13:51:12.000Z</time>
      </trkpt>
      <trkpt lat="44.97228" lon="5.48662">
        <ele>1362</ele>
        <time>2022-05-26T13:51:14.000Z</time>
      </trkpt>
      <trkpt lat="44.97228" lon="5.4866">
        <ele>1362</ele>
        <time>2022-05-26T13:51:16.000Z</time>
      </trkpt>
      <trkpt lat="44.97228" lon="5.48656">
        <ele>1361.8000488281</ele>
        <time>2022-05-26T13:51:20.000Z</time>
      </trkpt>
      <trkpt lat="44.9723" lon="5.48653">
        <ele>1361.8000488281</ele>
        <time>2022-05-26T13:51:23.000Z</time>
      </trkpt>
      <trkpt lat="44.9723" lon="5.48651">
        <ele>1361.5999755859</ele>
        <time>2022-05-26T13:51:25.000Z</time>
      </trkpt>
      <trkpt lat="44.97233" lon="5.48635">
        <ele>1361</ele>
        <time>2022-05-26T13:51:39.000Z</time>
      </trkpt>
      <trkpt lat="44.97232" lon="5.48632">
        <ele>1360.8000488281</ele>
        <time>2022-05-26T13:51:41.000Z</time>
      </trkpt>
      <trkpt lat="44.97232" lon="5.4863">
        <ele>1360.5999755859</ele>
        <time>2022-05-26T13:51:43.000Z</time>
      </trkpt>
      <trkpt lat="44.97234" lon="5.48626">
        <ele>1360.1999511719</ele>
        <time>2022-05-26T13:51:46.000Z</time>
      </trkpt>
      <trkpt lat="44.97233" lon="5.4861">
        <ele>1359</ele>
        <time>2022-05-26T13:51:58.000Z</time>
      </trkpt>
      <trkpt lat="44.97233" lon="5.48606">
        <ele>1358.8000488281</ele>
        <time>2022-05-26T13:52:01.000Z</time>
      </trkpt>
      <trkpt lat="44.97232" lon="5.48601">
        <ele>1358.5999755859</ele>
        <time>2022-05-26T13:52:04.000Z</time>
      </trkpt>
      <trkpt lat="44.97228" lon="5.48598">
        <ele>1358.5999755859</ele>
        <time>2022-05-26T13:52:10.000Z</time>
      </trkpt>
      <trkpt lat="44.97227" lon="5.48598">
        <ele>1358.8000488281</ele>
        <time>2022-05-26T13:52:12.000Z</time>
      </trkpt>
      <trkpt lat="44.97225" lon="5.48598">
        <ele>1358.8000488281</ele>
        <time>2022-05-26T13:52:14.000Z</time>
      </trkpt>
      <trkpt lat="44.97216" lon="5.48576">
        <ele>1358.1999511719</ele>
        <time>2022-05-26T13:52:33.000Z</time>
      </trkpt>
      <trkpt lat="44.9721" lon="5.48572">
        <ele>1358.4000244141</ele>
        <time>2022-05-26T13:52:39.000Z</time>
      </trkpt>
      <trkpt lat="44.97208" lon="5.48567">
        <ele>1358.4000244141</ele>
        <time>2022-05-26T13:52:44.000Z</time>
      </trkpt>
      <trkpt lat="44.97201" lon="5.48564">
        <ele>1359.1999511719</ele>
        <time>2022-05-26T13:52:49.000Z</time>
      </trkpt>
      <trkpt lat="44.972" lon="5.48558">
        <ele>1359.1999511719</ele>
        <time>2022-05-26T13:52:54.000Z</time>
      </trkpt>
      <trkpt lat="44.97201" lon="5.48552">
        <ele>1358.8000488281</ele>
        <time>2022-05-26T13:53:01.000Z</time>
      </trkpt>
      <trkpt lat="44.97207" lon="5.48536">
        <ele>1357.4000244141</ele>
        <time>2022-05-26T13:53:17.000Z</time>
      </trkpt>
      <trkpt lat="44.97204" lon="5.4851">
        <ele>1358</ele>
        <time>2022-05-26T13:53:34.000Z</time>
      </trkpt>
      <trkpt lat="44.97204" lon="5.48506">
        <ele>1358.1999511719</ele>
        <time>2022-05-26T13:53:38.000Z</time>
      </trkpt>
      <trkpt lat="44.97205" lon="5.48502">
        <ele>1358.1999511719</ele>
        <time>2022-05-26T13:53:40.000Z</time>
      </trkpt>
      <trkpt lat="44.97207" lon="5.48477">
        <ele>1360.5999755859</ele>
        <time>2022-05-26T13:53:55.000Z</time>
      </trkpt>
      <trkpt lat="44.97206" lon="5.48453">
        <ele>1363.1999511719</ele>
        <time>2022-05-26T13:54:10.000Z</time>
      </trkpt>
      <trkpt lat="44.97206" lon="5.48452">
        <ele>1363.1999511719</ele>
        <time>2022-05-26T13:54:11.000Z</time>
      </trkpt>
      <trkpt lat="44.97204" lon="5.4845">
        <ele>1363.4000244141</ele>
        <time>2022-05-26T13:54:14.000Z</time>
      </trkpt>
      <trkpt lat="44.97204" lon="5.48448">
        <ele>1363.8000488281</ele>
        <time>2022-05-26T13:54:17.000Z</time>
      </trkpt>
      <trkpt lat="44.97205" lon="5.48448">
        <ele>1363.8000488281</ele>
        <time>2022-05-26T13:54:23.000Z</time>
      </trkpt>
      <trkpt lat="44.97206" lon="5.48445">
        <ele>1364</ele>
        <time>2022-05-26T13:54:26.000Z</time>
      </trkpt>
      <trkpt lat="44.97206" lon="5.4844">
        <ele>1364.4000244141</ele>
        <time>2022-05-26T13:54:30.000Z</time>
      </trkpt>
      <trkpt lat="44.97208" lon="5.48429">
        <ele>1365</ele>
        <time>2022-05-26T13:54:46.000Z</time>
      </trkpt>
      <trkpt lat="44.97206" lon="5.48424">
        <ele>1365.4000244141</ele>
        <time>2022-05-26T13:54:53.000Z</time>
      </trkpt>
      <trkpt lat="44.97203" lon="5.48419">
        <ele>1365.8000488281</ele>
        <time>2022-05-26T13:54:57.000Z</time>
      </trkpt>
      <trkpt lat="44.97194" lon="5.48409">
        <ele>1366</ele>
        <time>2022-05-26T13:55:06.000Z</time>
      </trkpt>
      <trkpt lat="44.97193" lon="5.48399">
        <ele>1366</ele>
        <time>2022-05-26T13:55:14.000Z</time>
      </trkpt>
      <trkpt lat="44.97192" lon="5.48394">
        <ele>1366</ele>
        <time>2022-05-26T13:55:19.000Z</time>
      </trkpt>
      <trkpt lat="44.97192" lon="5.48392">
        <ele>1366</ele>
        <time>2022-05-26T13:55:20.000Z</time>
      </trkpt>
      <trkpt lat="44.97192" lon="5.48391">
        <ele>1366</ele>
        <time>2022-05-26T13:55:21.000Z</time>
      </trkpt>
      <trkpt lat="44.97192" lon="5.4839">
        <ele>1366</ele>
        <time>2022-05-26T13:55:22.000Z</time>
      </trkpt>
      <trkpt lat="44.97192" lon="5.4838">
        <ele>1366</ele>
        <time>2022-05-26T13:55:28.000Z</time>
      </trkpt>
      <trkpt lat="44.9719" lon="5.48376">
        <ele>1366</ele>
        <time>2022-05-26T13:55:32.000Z</time>
      </trkpt>
      <trkpt lat="44.97193" lon="5.48372">
        <ele>1366</ele>
        <time>2022-05-26T13:55:39.000Z</time>
      </trkpt>
      <trkpt lat="44.97193" lon="5.48371">
        <ele>1365.8000488281</ele>
        <time>2022-05-26T13:55:40.000Z</time>
      </trkpt>
      <trkpt lat="44.97194" lon="5.4837">
        <ele>1365.8000488281</ele>
        <time>2022-05-26T13:55:41.000Z</time>
      </trkpt>
      <trkpt lat="44.97194" lon="5.4837">
        <ele>1365.8000488281</ele>
        <time>2022-05-26T13:55:42.000Z</time>
      </trkpt>
      <trkpt lat="44.97194" lon="5.48369">
        <ele>1365.8000488281</ele>
        <time>2022-05-26T13:55:43.000Z</time>
      </trkpt>
      <trkpt lat="44.97194" lon="5.48368">
        <ele>1365.8000488281</ele>
        <time>2022-05-26T13:55:44.000Z</time>
      </trkpt>
      <trkpt lat="44.97194" lon="5.48366">
        <ele>1365.5999755859</ele>
        <time>2022-05-26T13:55:45.000Z</time>
      </trkpt>
      <trkpt lat="44.97194" lon="5.48365">
        <ele>1365.5999755859</ele>
        <time>2022-05-26T13:55:46.000Z</time>
      </trkpt>
      <trkpt lat="44.97193" lon="5.48361">
        <ele>1365.5999755859</ele>
        <time>2022-05-26T13:55:49.000Z</time>
      </trkpt>
      <trkpt lat="44.97189" lon="5.48337">
        <ele>1365.4000244141</ele>
        <time>2022-05-26T13:56:06.000Z</time>
      </trkpt>
      <trkpt lat="44.97189" lon="5.48333">
        <ele>1365.4000244141</ele>
        <time>2022-05-26T13:56:10.000Z</time>
      </trkpt>
      <trkpt lat="44.97189" lon="5.48331">
        <ele>1365.4000244141</ele>
        <time>2022-05-26T13:56:12.000Z</time>
      </trkpt>
      <trkpt lat="44.97187" lon="5.48323">
        <ele>1365.4000244141</ele>
        <time>2022-05-26T13:56:17.000Z</time>
      </trkpt>
      <trkpt lat="44.97185" lon="5.48318">
        <ele>1365.5999755859</ele>
        <time>2022-05-26T13:56:23.000Z</time>
      </trkpt>
      <trkpt lat="44.97184" lon="5.48314">
        <ele>1365.5999755859</ele>
        <time>2022-05-26T13:56:29.000Z</time>
      </trkpt>
      <trkpt lat="44.97192" lon="5.48308">
        <ele>1365.1999511719</ele>
        <time>2022-05-26T13:56:49.000Z</time>
      </trkpt>
      <trkpt lat="44.97186" lon="5.48306">
        <ele>1365.5999755859</ele>
        <time>2022-05-26T13:57:10.000Z</time>
      </trkpt>
      <trkpt lat="44.97184" lon="5.48293">
        <ele>1364.4000244141</ele>
        <time>2022-05-26T13:57:21.000Z</time>
      </trkpt>
      <trkpt lat="44.97182" lon="5.48287">
        <ele>1363.8000488281</ele>
        <time>2022-05-26T13:57:30.000Z</time>
      </trkpt>
      <trkpt lat="44.97182" lon="5.48281">
        <ele>1363.1999511719</ele>
        <time>2022-05-26T13:57:35.000Z</time>
      </trkpt>
      <trkpt lat="44.97182" lon="5.48279">
        <ele>1363</ele>
        <time>2022-05-26T13:57:37.000Z</time>
      </trkpt>
      <trkpt lat="44.97183" lon="5.48272">
        <ele>1362</ele>
        <time>2022-05-26T13:57:43.000Z</time>
      </trkpt>
      <trkpt lat="44.97182" lon="5.48267">
        <ele>1360.5999755859</ele>
        <time>2022-05-26T13:57:46.000Z</time>
      </trkpt>
      <trkpt lat="44.97179" lon="5.48258">
        <ele>1358.5999755859</ele>
        <time>2022-05-26T13:57:54.000Z</time>
      </trkpt>
      <trkpt lat="44.9718" lon="5.48249">
        <ele>1357</ele>
        <time>2022-05-26T13:58:01.000Z</time>
      </trkpt>
      <trkpt lat="44.97176" lon="5.48224">
        <ele>1351.1999511719</ele>
        <time>2022-05-26T13:58:16.000Z</time>
      </trkpt>
      <trkpt lat="44.97177" lon="5.48207">
        <ele>1348.5999755859</ele>
        <time>2022-05-26T13:58:27.000Z</time>
      </trkpt>
      <trkpt lat="44.97174" lon="5.48189">
        <ele>1345.8000488281</ele>
        <time>2022-05-26T13:58:41.000Z</time>
      </trkpt>
      <trkpt lat="44.97174" lon="5.48188">
        <ele>1345.8000488281</ele>
        <time>2022-05-26T13:58:42.000Z</time>
      </trkpt>
      <trkpt lat="44.97174" lon="5.48187">
        <ele>1345.5999755859</ele>
        <time>2022-05-26T13:58:43.000Z</time>
      </trkpt>
      <trkpt lat="44.97168" lon="5.48182">
        <ele>1344.4000244141</ele>
        <time>2022-05-26T13:58:54.000Z</time>
      </trkpt>
      <trkpt lat="44.97169" lon="5.4817">
        <ele>1342.8000488281</ele>
        <time>2022-05-26T13:59:04.000Z</time>
      </trkpt>
      <trkpt lat="44.9717" lon="5.48144">
        <ele>1339.1999511719</ele>
        <time>2022-05-26T13:59:20.000Z</time>
      </trkpt>
      <trkpt lat="44.97169" lon="5.48128">
        <ele>1336.4000244141</ele>
        <time>2022-05-26T13:59:28.000Z</time>
      </trkpt>
      <trkpt lat="44.97169" lon="5.48102">
        <ele>1333.5999755859</ele>
        <time>2022-05-26T13:59:45.000Z</time>
      </trkpt>
      <trkpt lat="44.97168" lon="5.48097">
        <ele>1332.8000488281</ele>
        <time>2022-05-26T13:59:52.000Z</time>
      </trkpt>
      <trkpt lat="44.97171" lon="5.48092">
        <ele>1332.4000244141</ele>
        <time>2022-05-26T14:00:23.000Z</time>
      </trkpt>
      <trkpt lat="44.97171" lon="5.48093">
        <ele>1332.4000244141</ele>
        <time>2022-05-26T14:00:31.000Z</time>
      </trkpt>
      <trkpt lat="44.97171" lon="5.48091">
        <ele>1332.1999511719</ele>
        <time>2022-05-26T14:00:38.000Z</time>
      </trkpt>
      <trkpt lat="44.9717" lon="5.48094">
        <ele>1332.4000244141</ele>
        <time>2022-05-26T14:00:44.000Z</time>
      </trkpt>
      <trkpt lat="44.97163" lon="5.48089">
        <ele>1331.1999511719</ele>
        <time>2022-05-26T14:00:52.000Z</time>
      </trkpt>
      <trkpt lat="44.97155" lon="5.48087">
        <ele>1329.8000488281</ele>
        <time>2022-05-26T14:00:59.000Z</time>
      </trkpt>
      <trkpt lat="44.97154" lon="5.48087">
        <ele>1329.8000488281</ele>
        <time>2022-05-26T14:01:00.000Z</time>
      </trkpt>
      <trkpt lat="44.97153" lon="5.48087">
        <ele>1329.5999755859</ele>
        <time>2022-05-26T14:01:01.000Z</time>
      </trkpt>
      <trkpt lat="44.97151" lon="5.48088">
        <ele>1329.4000244141</ele>
        <time>2022-05-26T14:01:02.000Z</time>
      </trkpt>
      <trkpt lat="44.9715" lon="5.48088">
        <ele>1329.4000244141</ele>
        <time>2022-05-26T14:01:04.000Z</time>
      </trkpt>
      <trkpt lat="44.97147" lon="5.4809">
        <ele>1329.1999511719</ele>
        <time>2022-05-26T14:01:07.000Z</time>
      </trkpt>
      <trkpt lat="44.97138" lon="5.48096">
        <ele>1329</ele>
        <time>2022-05-26T14:01:16.000Z</time>
      </trkpt>
      <trkpt lat="44.97133" lon="5.48099">
        <ele>1328.5999755859</ele>
        <time>2022-05-26T14:01:21.000Z</time>
      </trkpt>
      <trkpt lat="44.97125" lon="5.481">
        <ele>1328</ele>
        <time>2022-05-26T14:01:28.000Z</time>
      </trkpt>
      <trkpt lat="44.97119" lon="5.48104">
        <ele>1328</ele>
        <time>2022-05-26T14:01:33.000Z</time>
      </trkpt>
      <trkpt lat="44.97111" lon="5.48105">
        <ele>1328.5999755859</ele>
        <time>2022-05-26T14:01:41.000Z</time>
      </trkpt>
      <trkpt lat="44.97094" lon="5.48108">
        <ele>1330.5999755859</ele>
        <time>2022-05-26T14:02:20.000Z</time>
      </trkpt>
      <trkpt lat="44.9709" lon="5.48109">
        <ele>1331</ele>
        <time>2022-05-26T14:02:24.000Z</time>
      </trkpt>
      <trkpt lat="44.97087" lon="5.48108">
        <ele>1331</ele>
        <time>2022-05-26T14:02:26.000Z</time>
      </trkpt>
      <trkpt lat="44.97069" lon="5.4811">
        <ele>1332</ele>
        <time>2022-05-26T14:02:35.000Z</time>
      </trkpt>
      <trkpt lat="44.97067" lon="5.48109">
        <ele>1331.8000488281</ele>
        <time>2022-05-26T14:02:36.000Z</time>
      </trkpt>
      <trkpt lat="44.97062" lon="5.48105">
        <ele>1331.1999511719</ele>
        <time>2022-05-26T14:02:41.000Z</time>
      </trkpt>
      <trkpt lat="44.9706" lon="5.48104">
        <ele>1331</ele>
        <time>2022-05-26T14:02:42.000Z</time>
      </trkpt>
      <trkpt lat="44.97059" lon="5.48103">
        <ele>1330.8000488281</ele>
        <time>2022-05-26T14:02:43.000Z</time>
      </trkpt>
      <trkpt lat="44.97058" lon="5.48102">
        <ele>1330.5999755859</ele>
        <time>2022-05-26T14:02:44.000Z</time>
      </trkpt>
      <trkpt lat="44.97056" lon="5.48101">
        <ele>1330.4000244141</ele>
        <time>2022-05-26T14:02:45.000Z</time>
      </trkpt>
      <trkpt lat="44.97053" lon="5.48097">
        <ele>1329.5999755859</ele>
        <time>2022-05-26T14:02:48.000Z</time>
      </trkpt>
      <trkpt lat="44.9705" lon="5.48095">
        <ele>1329.4000244141</ele>
        <time>2022-05-26T14:02:51.000Z</time>
      </trkpt>
      <trkpt lat="44.97049" lon="5.48094">
        <ele>1329.1999511719</ele>
        <time>2022-05-26T14:02:52.000Z</time>
      </trkpt>
      <trkpt lat="44.97047" lon="5.48093">
        <ele>1329.1999511719</ele>
        <time>2022-05-26T14:02:53.000Z</time>
      </trkpt>
      <trkpt lat="44.97045" lon="5.48093">
        <ele>1329.1999511719</ele>
        <time>2022-05-26T14:02:55.000Z</time>
      </trkpt>
      <trkpt lat="44.97037" lon="5.48091">
        <ele>1329.5999755859</ele>
        <time>2022-05-26T14:03:02.000Z</time>
      </trkpt>
      <trkpt lat="44.97035" lon="5.4809">
        <ele>1329.8000488281</ele>
        <time>2022-05-26T14:03:04.000Z</time>
      </trkpt>
      <trkpt lat="44.97029" lon="5.48089">
        <ele>1330.1999511719</ele>
        <time>2022-05-26T14:03:09.000Z</time>
      </trkpt>
      <trkpt lat="44.97024" lon="5.48088">
        <ele>1330.8000488281</ele>
        <time>2022-05-26T14:03:13.000Z</time>
      </trkpt>
      <trkpt lat="44.97023" lon="5.48088">
        <ele>1331</ele>
        <time>2022-05-26T14:03:14.000Z</time>
      </trkpt>
      <trkpt lat="44.97007" lon="5.48091">
        <ele>1334.1999511719</ele>
        <time>2022-05-26T14:03:27.000Z</time>
      </trkpt>
      <trkpt lat="44.97005" lon="5.48091">
        <ele>1334.5999755859</ele>
        <time>2022-05-26T14:03:28.000Z</time>
      </trkpt>
      <trkpt lat="44.97004" lon="5.48092">
        <ele>1334.8000488281</ele>
        <time>2022-05-26T14:03:29.000Z</time>
      </trkpt>
      <trkpt lat="44.96998" lon="5.48092">
        <ele>1336.1999511719</ele>
        <time>2022-05-26T14:03:33.000Z</time>
      </trkpt>
      <trkpt lat="44.96981" lon="5.48081">
        <ele>1337.4000244141</ele>
        <time>2022-05-26T14:03:49.000Z</time>
      </trkpt>
      <trkpt lat="44.96964" lon="5.48071">
        <ele>1338.4000244141</ele>
        <time>2022-05-26T14:04:03.000Z</time>
      </trkpt>
      <trkpt lat="44.96952" lon="5.48057">
        <ele>1337.5999755859</ele>
        <time>2022-05-26T14:04:14.000Z</time>
      </trkpt>
      <trkpt lat="44.96951" lon="5.48055">
        <ele>1337.4000244141</ele>
        <time>2022-05-26T14:04:15.000Z</time>
      </trkpt>
      <trkpt lat="44.96934" lon="5.48046">
        <ele>1336</ele>
        <time>2022-05-26T14:04:30.000Z</time>
      </trkpt>
      <trkpt lat="44.96922" lon="5.4804">
        <ele>1335</ele>
        <time>2022-05-26T14:04:41.000Z</time>
      </trkpt>
      <trkpt lat="44.96904" lon="5.48033">
        <ele>1333.4000244141</ele>
        <time>2022-05-26T14:04:55.000Z</time>
      </trkpt>
      <trkpt lat="44.96888" lon="5.48029">
        <ele>1333.1999511719</ele>
        <time>2022-05-26T14:05:12.000Z</time>
      </trkpt>
      <trkpt lat="44.96888" lon="5.4803">
        <ele>1333.4000244141</ele>
        <time>2022-05-26T14:05:14.000Z</time>
      </trkpt>
      <trkpt lat="44.96888" lon="5.4803">
        <ele>1333.4000244141</ele>
        <time>2022-05-26T14:05:16.000Z</time>
      </trkpt>
      <trkpt lat="44.96887" lon="5.4803">
        <ele>1333.4000244141</ele>
        <time>2022-05-26T14:05:18.000Z</time>
      </trkpt>
      <trkpt lat="44.96885" lon="5.48029">
        <ele>1333.1999511719</ele>
        <time>2022-05-26T14:05:21.000Z</time>
      </trkpt>
      <trkpt lat="44.9688" lon="5.4803">
        <ele>1333.4000244141</ele>
        <time>2022-05-26T14:05:26.000Z</time>
      </trkpt>
      <trkpt lat="44.96862" lon="5.48032">
        <ele>1334</ele>
        <time>2022-05-26T14:05:40.000Z</time>
      </trkpt>
      <trkpt lat="44.96844" lon="5.48028">
        <ele>1333.4000244141</ele>
        <time>2022-05-26T14:05:55.000Z</time>
      </trkpt>
      <trkpt lat="44.96825" lon="5.48026">
        <ele>1334</ele>
        <time>2022-05-26T14:06:11.000Z</time>
      </trkpt>
      <trkpt lat="44.96811" lon="5.48026">
        <ele>1334.8000488281</ele>
        <time>2022-05-26T14:06:22.000Z</time>
      </trkpt>
      <trkpt lat="44.96793" lon="5.48025">
        <ele>1336.8000488281</ele>
        <time>2022-05-26T14:06:38.000Z</time>
      </trkpt>
      <trkpt lat="44.96775" lon="5.48026">
        <ele>1337.4000244141</ele>
        <time>2022-05-26T14:06:51.000Z</time>
      </trkpt>
      <trkpt lat="44.96756" lon="5.48021">
        <ele>1334.8000488281</ele>
        <time>2022-05-26T14:07:05.000Z</time>
      </trkpt>
      <trkpt lat="44.96737" lon="5.4802">
        <ele>1331.8000488281</ele>
        <time>2022-05-26T14:07:18.000Z</time>
      </trkpt>
      <trkpt lat="44.96719" lon="5.48022">
        <ele>1331.4000244141</ele>
        <time>2022-05-26T14:07:34.000Z</time>
      </trkpt>
      <trkpt lat="44.967" lon="5.48018">
        <ele>1330.5999755859</ele>
        <time>2022-05-26T14:07:50.000Z</time>
      </trkpt>
      <trkpt lat="44.96682" lon="5.48022">
        <ele>1332.4000244141</ele>
        <time>2022-05-26T14:08:06.000Z</time>
      </trkpt>
      <trkpt lat="44.9667" lon="5.48026">
        <ele>1333.5999755859</ele>
        <time>2022-05-26T14:08:16.000Z</time>
      </trkpt>
      <trkpt lat="44.96653" lon="5.48032">
        <ele>1334.8000488281</ele>
        <time>2022-05-26T14:08:30.000Z</time>
      </trkpt>
      <trkpt lat="44.96635" lon="5.48037">
        <ele>1333.1999511719</ele>
        <time>2022-05-26T14:08:45.000Z</time>
      </trkpt>
      <trkpt lat="44.96616" lon="5.48038">
        <ele>1331</ele>
        <time>2022-05-26T14:09:00.000Z</time>
      </trkpt>
      <trkpt lat="44.96609" lon="5.48037">
        <ele>1329.1999511719</ele>
        <time>2022-05-26T14:09:05.000Z</time>
      </trkpt>
      <trkpt lat="44.96605" lon="5.48035">
        <ele>1328</ele>
        <time>2022-05-26T14:09:08.000Z</time>
      </trkpt>
      <trkpt lat="44.96604" lon="5.48035">
        <ele>1327.5999755859</ele>
        <time>2022-05-26T14:09:09.000Z</time>
      </trkpt>
      <trkpt lat="44.96587" lon="5.48031">
        <ele>1325.4000244141</ele>
        <time>2022-05-26T14:09:23.000Z</time>
      </trkpt>
      <trkpt lat="44.96572" lon="5.48019">
        <ele>1323.4000244141</ele>
        <time>2022-05-26T14:09:40.000Z</time>
      </trkpt>
      <trkpt lat="44.96558" lon="5.48003">
        <ele>1324.4000244141</ele>
        <time>2022-05-26T14:09:56.000Z</time>
      </trkpt>
      <trkpt lat="44.96543" lon="5.47987">
        <ele>1326.5999755859</ele>
        <time>2022-05-26T14:10:11.000Z</time>
      </trkpt>
      <trkpt lat="44.96527" lon="5.47975">
        <ele>1325.1999511719</ele>
        <time>2022-05-26T14:10:27.000Z</time>
      </trkpt>
      <trkpt lat="44.96515" lon="5.47962">
        <ele>1322.8000488281</ele>
        <time>2022-05-26T14:10:41.000Z</time>
      </trkpt>
      <trkpt lat="44.96514" lon="5.47961">
        <ele>1322.5999755859</ele>
        <time>2022-05-26T14:10:42.000Z</time>
      </trkpt>
      <trkpt lat="44.96513" lon="5.4796">
        <ele>1322.4000244141</ele>
        <time>2022-05-26T14:10:43.000Z</time>
      </trkpt>
      <trkpt lat="44.96503" lon="5.47947">
        <ele>1319</ele>
        <time>2022-05-26T14:10:56.000Z</time>
      </trkpt>
      <trkpt lat="44.96489" lon="5.47928">
        <ele>1316</ele>
        <time>2022-05-26T14:11:12.000Z</time>
      </trkpt>
      <trkpt lat="44.96484" lon="5.47924">
        <ele>1315.4000244141</ele>
        <time>2022-05-26T14:11:17.000Z</time>
      </trkpt>
      <trkpt lat="44.96479" lon="5.47918">
        <ele>1315.4000244141</ele>
        <time>2022-05-26T14:11:23.000Z</time>
      </trkpt>
      <trkpt lat="44.96474" lon="5.4791">
        <ele>1315.1999511719</ele>
        <time>2022-05-26T14:11:29.000Z</time>
      </trkpt>
      <trkpt lat="44.96469" lon="5.47903">
        <ele>1314.8000488281</ele>
        <time>2022-05-26T14:11:35.000Z</time>
      </trkpt>
      <trkpt lat="44.96456" lon="5.47885">
        <ele>1314</ele>
        <time>2022-05-26T14:11:50.000Z</time>
      </trkpt>
      <trkpt lat="44.96442" lon="5.47868">
        <ele>1315.8000488281</ele>
        <time>2022-05-26T14:12:05.000Z</time>
      </trkpt>
      <trkpt lat="44.96431" lon="5.47855">
        <ele>1317.4000244141</ele>
        <time>2022-05-26T14:12:19.000Z</time>
      </trkpt>
      <trkpt lat="44.96422" lon="5.47846">
        <ele>1318.1999511719</ele>
        <time>2022-05-26T14:12:28.000Z</time>
      </trkpt>
      <trkpt lat="44.96411" lon="5.47833">
        <ele>1319</ele>
        <time>2022-05-26T14:12:41.000Z</time>
      </trkpt>
      <trkpt lat="44.96404" lon="5.47826">
        <ele>1319.8000488281</ele>
        <time>2022-05-26T14:12:48.000Z</time>
      </trkpt>
      <trkpt lat="44.96399" lon="5.4782">
        <ele>1320</ele>
        <time>2022-05-26T14:12:54.000Z</time>
      </trkpt>
      <trkpt lat="44.96391" lon="5.47797">
        <ele>1320.4000244141</ele>
        <time>2022-05-26T14:13:10.000Z</time>
      </trkpt>
      <trkpt lat="44.96384" lon="5.47781">
        <ele>1320.5999755859</ele>
        <time>2022-05-26T14:13:22.000Z</time>
      </trkpt>
      <trkpt lat="44.96381" lon="5.47779">
        <ele>1320.8000488281</ele>
        <time>2022-05-26T14:13:24.000Z</time>
      </trkpt>
      <trkpt lat="44.96377" lon="5.47773">
        <ele>1320.4000244141</ele>
        <time>2022-05-26T14:13:29.000Z</time>
      </trkpt>
      <trkpt lat="44.96374" lon="5.47772">
        <ele>1320.1999511719</ele>
        <time>2022-05-26T14:13:31.000Z</time>
      </trkpt>
      <trkpt lat="44.96359" lon="5.4776">
        <ele>1318</ele>
        <time>2022-05-26T14:13:46.000Z</time>
      </trkpt>
      <trkpt lat="44.9635" lon="5.47755">
        <ele>1316.8000488281</ele>
        <time>2022-05-26T14:13:54.000Z</time>
      </trkpt>
      <trkpt lat="44.9634" lon="5.47735">
        <ele>1315.4000244141</ele>
        <time>2022-05-26T14:14:10.000Z</time>
      </trkpt>
      <trkpt lat="44.96326" lon="5.47719">
        <ele>1316</ele>
        <time>2022-05-26T14:14:26.000Z</time>
      </trkpt>
      <trkpt lat="44.96312" lon="5.47702">
        <ele>1319.4000244141</ele>
        <time>2022-05-26T14:14:43.000Z</time>
      </trkpt>
      <trkpt lat="44.9631" lon="5.47697">
        <ele>1320</ele>
        <time>2022-05-26T14:14:48.000Z</time>
      </trkpt>
      <trkpt lat="44.96307" lon="5.47696">
        <ele>1320.4000244141</ele>
        <time>2022-05-26T14:14:51.000Z</time>
      </trkpt>
      <trkpt lat="44.96305" lon="5.47695">
        <ele>1320.8000488281</ele>
        <time>2022-05-26T14:14:54.000Z</time>
      </trkpt>
      <trkpt lat="44.96302" lon="5.47695">
        <ele>1321.1999511719</ele>
        <time>2022-05-26T14:14:57.000Z</time>
      </trkpt>
      <trkpt lat="44.96299" lon="5.47692">
        <ele>1321.8000488281</ele>
        <time>2022-05-26T14:15:01.000Z</time>
      </trkpt>
      <trkpt lat="44.96298" lon="5.47686">
        <ele>1322.1999511719</ele>
        <time>2022-05-26T14:15:09.000Z</time>
      </trkpt>
      <trkpt lat="44.96316" lon="5.47678">
        <ele>1321</ele>
        <time>2022-05-26T14:15:35.000Z</time>
      </trkpt>
      <trkpt lat="44.96333" lon="5.47666">
        <ele>1320</ele>
        <time>2022-05-26T14:15:52.000Z</time>
      </trkpt>
      <trkpt lat="44.96348" lon="5.47653">
        <ele>1319.4000244141</ele>
        <time>2022-05-26T14:16:07.000Z</time>
      </trkpt>
      <trkpt lat="44.96359" lon="5.47631">
        <ele>1320.8000488281</ele>
        <time>2022-05-26T14:16:24.000Z</time>
      </trkpt>
      <trkpt lat="44.9637" lon="5.47611">
        <ele>1321.4000244141</ele>
        <time>2022-05-26T14:16:38.000Z</time>
      </trkpt>
      <trkpt lat="44.96383" lon="5.47593">
        <ele>1322</ele>
        <time>2022-05-26T14:16:54.000Z</time>
      </trkpt>
      <trkpt lat="44.96399" lon="5.47577">
        <ele>1322.5999755859</ele>
        <time>2022-05-26T14:17:10.000Z</time>
      </trkpt>
      <trkpt lat="44.96406" lon="5.47572">
        <ele>1322.1999511719</ele>
        <time>2022-05-26T14:17:16.000Z</time>
      </trkpt>
      <trkpt lat="44.96422" lon="5.47558">
        <ele>1324.4000244141</ele>
        <time>2022-05-26T14:17:33.000Z</time>
      </trkpt>
      <trkpt lat="44.96438" lon="5.47544">
        <ele>1326</ele>
        <time>2022-05-26T14:17:45.000Z</time>
      </trkpt>
      <trkpt lat="44.96454" lon="5.47531">
        <ele>1327.1999511719</ele>
        <time>2022-05-26T14:18:00.000Z</time>
      </trkpt>
      <trkpt lat="44.96469" lon="5.47517">
        <ele>1327.4000244141</ele>
        <time>2022-05-26T14:18:19.000Z</time>
      </trkpt>
      <trkpt lat="44.96486" lon="5.47507">
        <ele>1325.5999755859</ele>
        <time>2022-05-26T14:18:37.000Z</time>
      </trkpt>
      <trkpt lat="44.96504" lon="5.47504">
        <ele>1319.5999755859</ele>
        <time>2022-05-26T14:18:54.000Z</time>
      </trkpt>
      <trkpt lat="44.96523" lon="5.47501">
        <ele>1314.8000488281</ele>
        <time>2022-05-26T14:19:09.000Z</time>
      </trkpt>
      <trkpt lat="44.96529" lon="5.475">
        <ele>1314.4000244141</ele>
        <time>2022-05-26T14:19:14.000Z</time>
      </trkpt>
      <trkpt lat="44.96546" lon="5.47502">
        <ele>1312.1999511719</ele>
        <time>2022-05-26T14:19:28.000Z</time>
      </trkpt>
      <trkpt lat="44.96552" lon="5.47502">
        <ele>1311.5999755859</ele>
        <time>2022-05-26T14:19:36.000Z</time>
      </trkpt>
      <trkpt lat="44.96558" lon="5.47501">
        <ele>1311</ele>
        <time>2022-05-26T14:20:13.000Z</time>
      </trkpt>
      <trkpt lat="44.96558" lon="5.475">
        <ele>1311</ele>
        <time>2022-05-26T14:20:23.000Z</time>
      </trkpt>
      <trkpt lat="44.96557" lon="5.475">
        <ele>1311.1999511719</ele>
        <time>2022-05-26T14:20:30.000Z</time>
      </trkpt>
      <trkpt lat="44.96556" lon="5.47501">
        <ele>1311.1999511719</ele>
        <time>2022-05-26T14:20:40.000Z</time>
      </trkpt>
      <trkpt lat="44.96558" lon="5.47503">
        <ele>1310.8000488281</ele>
        <time>2022-05-26T14:21:05.000Z</time>
      </trkpt>
      <trkpt lat="44.96558" lon="5.47503">
        <ele>1310.8000488281</ele>
        <time>2022-05-26T14:21:16.000Z</time>
      </trkpt>
      <trkpt lat="44.96558" lon="5.47505">
        <ele>1310.5999755859</ele>
        <time>2022-05-26T14:21:33.000Z</time>
      </trkpt>
      <trkpt lat="44.96556" lon="5.47506">
        <ele>1310.5999755859</ele>
        <time>2022-05-26T14:22:09.000Z</time>
      </trkpt>
      <trkpt lat="44.96556" lon="5.47505">
        <ele>1310.8000488281</ele>
        <time>2022-05-26T14:22:23.000Z</time>
      </trkpt>
      <trkpt lat="44.96557" lon="5.47504">
        <ele>1310.8000488281</ele>
        <time>2022-05-26T14:22:36.000Z</time>
      </trkpt>
      <trkpt lat="44.96557" lon="5.47504">
        <ele>1310.8000488281</ele>
        <time>2022-05-26T14:22:43.000Z</time>
      </trkpt>
      <trkpt lat="44.96562" lon="5.47505">
        <ele>1310.1999511719</ele>
        <time>2022-05-26T14:23:12.000Z</time>
      </trkpt>
      <trkpt lat="44.96562" lon="5.47505">
        <ele>1310.1999511719</ele>
        <time>2022-05-26T14:23:18.000Z</time>
      </trkpt>
      <trkpt lat="44.96562" lon="5.47505">
        <ele>1310.1999511719</ele>
        <time>2022-05-26T14:23:21.000Z</time>
      </trkpt>
      <trkpt lat="44.96567" lon="5.47505">
        <ele>1309.5999755859</ele>
        <time>2022-05-26T14:23:39.000Z</time>
      </trkpt>
      <trkpt lat="44.96568" lon="5.47505">
        <ele>1309.5999755859</ele>
        <time>2022-05-26T14:23:40.000Z</time>
      </trkpt>
      <trkpt lat="44.96573" lon="5.47505">
        <ele>1308.5999755859</ele>
        <time>2022-05-26T14:23:47.000Z</time>
      </trkpt>
      <trkpt lat="44.96575" lon="5.47506">
        <ele>1308.4000244141</ele>
        <time>2022-05-26T14:23:49.000Z</time>
      </trkpt>
      <trkpt lat="44.96578" lon="5.47506">
        <ele>1308</ele>
        <time>2022-05-26T14:23:53.000Z</time>
      </trkpt>
      <trkpt lat="44.96579" lon="5.47506">
        <ele>1308</ele>
        <time>2022-05-26T14:23:54.000Z</time>
      </trkpt>
      <trkpt lat="44.9658" lon="5.47506">
        <ele>1307.8000488281</ele>
        <time>2022-05-26T14:23:55.000Z</time>
      </trkpt>
      <trkpt lat="44.96583" lon="5.47506">
        <ele>1307.8000488281</ele>
        <time>2022-05-26T14:23:57.000Z</time>
      </trkpt>
      <trkpt lat="44.96584" lon="5.47506">
        <ele>1307.5999755859</ele>
        <time>2022-05-26T14:23:58.000Z</time>
      </trkpt>
      <trkpt lat="44.96587" lon="5.47506">
        <ele>1307.4000244141</ele>
        <time>2022-05-26T14:24:00.000Z</time>
      </trkpt>
      <trkpt lat="44.96588" lon="5.47507">
        <ele>1307.1999511719</ele>
        <time>2022-05-26T14:24:01.000Z</time>
      </trkpt>
      <trkpt lat="44.96589" lon="5.47507">
        <ele>1307.1999511719</ele>
        <time>2022-05-26T14:24:02.000Z</time>
      </trkpt>
      <trkpt lat="44.96591" lon="5.47507">
        <ele>1307</ele>
        <time>2022-05-26T14:24:03.000Z</time>
      </trkpt>
      <trkpt lat="44.96606" lon="5.47507">
        <ele>1307.5999755859</ele>
        <time>2022-05-26T14:24:17.000Z</time>
      </trkpt>
      <trkpt lat="44.96607" lon="5.47507">
        <ele>1307.8000488281</ele>
        <time>2022-05-26T14:24:18.000Z</time>
      </trkpt>
      <trkpt lat="44.96608" lon="5.47506">
        <ele>1308</ele>
        <time>2022-05-26T14:24:20.000Z</time>
      </trkpt>
      <trkpt lat="44.96608" lon="5.47506">
        <ele>1308.1999511719</ele>
        <time>2022-05-26T14:24:22.000Z</time>
      </trkpt>
      <trkpt lat="44.96608" lon="5.47506">
        <ele>1308.1999511719</ele>
        <time>2022-05-26T14:24:24.000Z</time>
      </trkpt>
      <trkpt lat="44.96608" lon="5.47505">
        <ele>1308.5999755859</ele>
        <time>2022-05-26T14:24:28.000Z</time>
      </trkpt>
      <trkpt lat="44.96608" lon="5.47505">
        <ele>1308.5999755859</ele>
        <time>2022-05-26T14:24:29.000Z</time>
      </trkpt>
      <trkpt lat="44.96608" lon="5.47505">
        <ele>1308.5999755859</ele>
        <time>2022-05-26T14:24:30.000Z</time>
      </trkpt>
      <trkpt lat="44.96608" lon="5.47504">
        <ele>1308.5999755859</ele>
        <time>2022-05-26T14:24:31.000Z</time>
      </trkpt>
      <trkpt lat="44.96598" lon="5.47497">
        <ele>1309.4000244141</ele>
        <time>2022-05-26T14:25:25.000Z</time>
      </trkpt>
      <trkpt lat="44.96596" lon="5.47495">
        <ele>1309.5999755859</ele>
        <time>2022-05-26T14:25:28.000Z</time>
      </trkpt>
      <trkpt lat="44.9659" lon="5.47492">
        <ele>1311</ele>
        <time>2022-05-26T14:25:35.000Z</time>
      </trkpt>
      <trkpt lat="44.96588" lon="5.47491">
        <ele>1311.8000488281</ele>
        <time>2022-05-26T14:25:37.000Z</time>
      </trkpt>
      <trkpt lat="44.96586" lon="5.47489">
        <ele>1312.4000244141</ele>
        <time>2022-05-26T14:25:40.000Z</time>
      </trkpt>
      <trkpt lat="44.96575" lon="5.47475">
        <ele>1318.1999511719</ele>
        <time>2022-05-26T14:25:55.000Z</time>
      </trkpt>
      <trkpt lat="44.96571" lon="5.4747">
        <ele>1320.4000244141</ele>
        <time>2022-05-26T14:26:00.000Z</time>
      </trkpt>
      <trkpt lat="44.96571" lon="5.47469">
        <ele>1320.8000488281</ele>
        <time>2022-05-26T14:26:01.000Z</time>
      </trkpt>
      <trkpt lat="44.96569" lon="5.47463">
        <ele>1322.8000488281</ele>
        <time>2022-05-26T14:26:06.000Z</time>
      </trkpt>
      <trkpt lat="44.96564" lon="5.47451">
        <ele>1326.4000244141</ele>
        <time>2022-05-26T14:26:18.000Z</time>
      </trkpt>
      <trkpt lat="44.96563" lon="5.47447">
        <ele>1327.4000244141</ele>
        <time>2022-05-26T14:26:23.000Z</time>
      </trkpt>
      <trkpt lat="44.96562" lon="5.47443">
        <ele>1328.5999755859</ele>
        <time>2022-05-26T14:26:28.000Z</time>
      </trkpt>
      <trkpt lat="44.96562" lon="5.47438">
        <ele>1330.1999511719</ele>
        <time>2022-05-26T14:26:32.000Z</time>
      </trkpt>
      <trkpt lat="44.96563" lon="5.47436">
        <ele>1331</ele>
        <time>2022-05-26T14:26:34.000Z</time>
      </trkpt>
      <trkpt lat="44.96564" lon="5.47419">
        <ele>1335.4000244141</ele>
        <time>2022-05-26T14:26:51.000Z</time>
      </trkpt>
      <trkpt lat="44.96564" lon="5.47418">
        <ele>1335.4000244141</ele>
        <time>2022-05-26T14:26:52.000Z</time>
      </trkpt>
      <trkpt lat="44.96563" lon="5.47417">
        <ele>1335.5999755859</ele>
        <time>2022-05-26T14:27:01.000Z</time>
      </trkpt>
      <trkpt lat="44.96563" lon="5.47419">
        <ele>1335.4000244141</ele>
        <time>2022-05-26T14:27:05.000Z</time>
      </trkpt>
      <trkpt lat="44.96563" lon="5.47419">
        <ele>1335.4000244141</ele>
        <time>2022-05-26T14:27:06.000Z</time>
      </trkpt>
      <trkpt lat="44.96563" lon="5.4742">
        <ele>1335</ele>
        <time>2022-05-26T14:27:08.000Z</time>
      </trkpt>
      <trkpt lat="44.96563" lon="5.4742">
        <ele>1335</ele>
        <time>2022-05-26T14:27:11.000Z</time>
      </trkpt>
      <trkpt lat="44.96563" lon="5.4742">
        <ele>1335</ele>
        <time>2022-05-26T14:27:12.000Z</time>
      </trkpt>
      <trkpt lat="44.96563" lon="5.47419">
        <ele>1335.1999511719</ele>
        <time>2022-05-26T14:27:13.000Z</time>
      </trkpt>
      <trkpt lat="44.96564" lon="5.47419">
        <ele>1335.4000244141</ele>
        <time>2022-05-26T14:27:16.000Z</time>
      </trkpt>
      <trkpt lat="44.96564" lon="5.47418">
        <ele>1335.4000244141</ele>
        <time>2022-05-26T14:27:17.000Z</time>
      </trkpt>
      <trkpt lat="44.96564" lon="5.47416">
        <ele>1335.8000488281</ele>
        <time>2022-05-26T14:27:20.000Z</time>
      </trkpt>
      <trkpt lat="44.96564" lon="5.47417">
        <ele>1335.8000488281</ele>
        <time>2022-05-26T14:27:21.000Z</time>
      </trkpt>
      <trkpt lat="44.96565" lon="5.47415">
        <ele>1336.4000244141</ele>
        <time>2022-05-26T14:27:29.000Z</time>
      </trkpt>
      <trkpt lat="44.96565" lon="5.47409">
        <ele>1338</ele>
        <time>2022-05-26T14:27:35.000Z</time>
      </trkpt>
      <trkpt lat="44.96565" lon="5.47403">
        <ele>1339.8000488281</ele>
        <time>2022-05-26T14:27:42.000Z</time>
      </trkpt>
      <trkpt lat="44.96565" lon="5.474">
        <ele>1340.8000488281</ele>
        <time>2022-05-26T14:27:45.000Z</time>
      </trkpt>
      <trkpt lat="44.96566" lon="5.47397">
        <ele>1341.5999755859</ele>
        <time>2022-05-26T14:27:49.000Z</time>
      </trkpt>
      <trkpt lat="44.96566" lon="5.47394">
        <ele>1342.4000244141</ele>
        <time>2022-05-26T14:27:53.000Z</time>
      </trkpt>
      <trkpt lat="44.96565" lon="5.47388">
        <ele>1344</ele>
        <time>2022-05-26T14:27:58.000Z</time>
      </trkpt>
      <trkpt lat="44.96565" lon="5.47387">
        <ele>1344.4000244141</ele>
        <time>2022-05-26T14:27:59.000Z</time>
      </trkpt>
      <trkpt lat="44.96565" lon="5.47385">
        <ele>1345</ele>
        <time>2022-05-26T14:28:01.000Z</time>
      </trkpt>
      <trkpt lat="44.96565" lon="5.47379">
        <ele>1346.1999511719</ele>
        <time>2022-05-26T14:28:06.000Z</time>
      </trkpt>
      <trkpt lat="44.96564" lon="5.47374">
        <ele>1347.4000244141</ele>
        <time>2022-05-26T14:28:11.000Z</time>
      </trkpt>
      <trkpt lat="44.96564" lon="5.47373">
        <ele>1347.5999755859</ele>
        <time>2022-05-26T14:28:12.000Z</time>
      </trkpt>
      <trkpt lat="44.96564" lon="5.47366">
        <ele>1349.1999511719</ele>
        <time>2022-05-26T14:28:20.000Z</time>
      </trkpt>
      <trkpt lat="44.96565" lon="5.47364">
        <ele>1349.5999755859</ele>
        <time>2022-05-26T14:28:22.000Z</time>
      </trkpt>
      <trkpt lat="44.96566" lon="5.47361">
        <ele>1350.1999511719</ele>
        <time>2022-05-26T14:28:25.000Z</time>
      </trkpt>
      <trkpt lat="44.96566" lon="5.4736">
        <ele>1350.1999511719</ele>
        <time>2022-05-26T14:28:26.000Z</time>
      </trkpt>
      <trkpt lat="44.96567" lon="5.47357">
        <ele>1351.1999511719</ele>
        <time>2022-05-26T14:28:32.000Z</time>
      </trkpt>
      <trkpt lat="44.96567" lon="5.47355">
        <ele>1351.8000488281</ele>
        <time>2022-05-26T14:28:34.000Z</time>
      </trkpt>
      <trkpt lat="44.96567" lon="5.47354">
        <ele>1352.1999511719</ele>
        <time>2022-05-26T14:28:35.000Z</time>
      </trkpt>
      <trkpt lat="44.96567" lon="5.47352">
        <ele>1352.8000488281</ele>
        <time>2022-05-26T14:28:37.000Z</time>
      </trkpt>
      <trkpt lat="44.96567" lon="5.47351">
        <ele>1353.1999511719</ele>
        <time>2022-05-26T14:28:38.000Z</time>
      </trkpt>
      <trkpt lat="44.96567" lon="5.4735">
        <ele>1353.4000244141</ele>
        <time>2022-05-26T14:28:39.000Z</time>
      </trkpt>
      <trkpt lat="44.96567" lon="5.47349">
        <ele>1353.5999755859</ele>
        <time>2022-05-26T14:28:40.000Z</time>
      </trkpt>
      <trkpt lat="44.96566" lon="5.47347">
        <ele>1354.4000244141</ele>
        <time>2022-05-26T14:28:42.000Z</time>
      </trkpt>
      <trkpt lat="44.96565" lon="5.47345">
        <ele>1355.1999511719</ele>
        <time>2022-05-26T14:28:44.000Z</time>
      </trkpt>
      <trkpt lat="44.96565" lon="5.47342">
        <ele>1356</ele>
        <time>2022-05-26T14:28:47.000Z</time>
      </trkpt>
      <trkpt lat="44.96565" lon="5.47341">
        <ele>1356.4000244141</ele>
        <time>2022-05-26T14:28:48.000Z</time>
      </trkpt>
      <trkpt lat="44.96566" lon="5.4734">
        <ele>1356.5999755859</ele>
        <time>2022-05-26T14:28:50.000Z</time>
      </trkpt>
      <trkpt lat="44.96566" lon="5.4734">
        <ele>1356.8000488281</ele>
        <time>2022-05-26T14:28:51.000Z</time>
      </trkpt>
      <trkpt lat="44.96566" lon="5.47339">
        <ele>1357</ele>
        <time>2022-05-26T14:28:52.000Z</time>
      </trkpt>
      <trkpt lat="44.96566" lon="5.47337">
        <ele>1357.8000488281</ele>
        <time>2022-05-26T14:28:54.000Z</time>
      </trkpt>
      <trkpt lat="44.96565" lon="5.47334">
        <ele>1358.5999755859</ele>
        <time>2022-05-26T14:28:58.000Z</time>
      </trkpt>
      <trkpt lat="44.96565" lon="5.47334">
        <ele>1358.8000488281</ele>
        <time>2022-05-26T14:29:00.000Z</time>
      </trkpt>
      <trkpt lat="44.96566" lon="5.47332">
        <ele>1359.1999511719</ele>
        <time>2022-05-26T14:29:03.000Z</time>
      </trkpt>
      <trkpt lat="44.96568" lon="5.47329">
        <ele>1360.4000244141</ele>
        <time>2022-05-26T14:29:11.000Z</time>
      </trkpt>
      <trkpt lat="44.96569" lon="5.47328">
        <ele>1360.8000488281</ele>
        <time>2022-05-26T14:29:13.000Z</time>
      </trkpt>
      <trkpt lat="44.9657" lon="5.47327">
        <ele>1361.1999511719</ele>
        <time>2022-05-26T14:29:14.000Z</time>
      </trkpt>
      <trkpt lat="44.96572" lon="5.47321">
        <ele>1363.1999511719</ele>
        <time>2022-05-26T14:29:21.000Z</time>
      </trkpt>
      <trkpt lat="44.96572" lon="5.4732">
        <ele>1363.8000488281</ele>
        <time>2022-05-26T14:29:23.000Z</time>
      </trkpt>
      <trkpt lat="44.96573" lon="5.47319">
        <ele>1364.1999511719</ele>
        <time>2022-05-26T14:29:24.000Z</time>
      </trkpt>
      <trkpt lat="44.96573" lon="5.47318">
        <ele>1364.5999755859</ele>
        <time>2022-05-26T14:29:25.000Z</time>
      </trkpt>
      <trkpt lat="44.96573" lon="5.47317">
        <ele>1364.8000488281</ele>
        <time>2022-05-26T14:29:26.000Z</time>
      </trkpt>
      <trkpt lat="44.96573" lon="5.47316">
        <ele>1365.1999511719</ele>
        <time>2022-05-26T14:29:27.000Z</time>
      </trkpt>
      <trkpt lat="44.96572" lon="5.47312">
        <ele>1366.5999755859</ele>
        <time>2022-05-26T14:29:32.000Z</time>
      </trkpt>
      <trkpt lat="44.96572" lon="5.4731">
        <ele>1367.4000244141</ele>
        <time>2022-05-26T14:29:36.000Z</time>
      </trkpt>
      <trkpt lat="44.96573" lon="5.47309">
        <ele>1368</ele>
        <time>2022-05-26T14:29:39.000Z</time>
      </trkpt>
      <trkpt lat="44.96574" lon="5.47306">
        <ele>1369</ele>
        <time>2022-05-26T14:29:43.000Z</time>
      </trkpt>
      <trkpt lat="44.96578" lon="5.47289">
        <ele>1373.5999755859</ele>
        <time>2022-05-26T14:30:02.000Z</time>
      </trkpt>
      <trkpt lat="44.96578" lon="5.47273">
        <ele>1377.4000244141</ele>
        <time>2022-05-26T14:30:23.000Z</time>
      </trkpt>
      <trkpt lat="44.96583" lon="5.47248">
        <ele>1382.1999511719</ele>
        <time>2022-05-26T14:30:50.000Z</time>
      </trkpt>
      <trkpt lat="44.9659" lon="5.47224">
        <ele>1385.4000244141</ele>
        <time>2022-05-26T14:31:14.000Z</time>
      </trkpt>
      <trkpt lat="44.96591" lon="5.47219">
        <ele>1385.8000488281</ele>
        <time>2022-05-26T14:31:18.000Z</time>
      </trkpt>
      <trkpt lat="44.96592" lon="5.47214">
        <ele>1386.5999755859</ele>
        <time>2022-05-26T14:31:22.000Z</time>
      </trkpt>
      <trkpt lat="44.96593" lon="5.47209">
        <ele>1387.4000244141</ele>
        <time>2022-05-26T14:31:26.000Z</time>
      </trkpt>
      <trkpt lat="44.96594" lon="5.47207">
        <ele>1387.8000488281</ele>
        <time>2022-05-26T14:31:29.000Z</time>
      </trkpt>
      <trkpt lat="44.96595" lon="5.47205">
        <ele>1388</ele>
        <time>2022-05-26T14:31:30.000Z</time>
      </trkpt>
      <trkpt lat="44.96595" lon="5.472">
        <ele>1388.8000488281</ele>
        <time>2022-05-26T14:31:33.000Z</time>
      </trkpt>
      <trkpt lat="44.96595" lon="5.47195">
        <ele>1389.8000488281</ele>
        <time>2022-05-26T14:31:37.000Z</time>
      </trkpt>
      <trkpt lat="44.96591" lon="5.47186">
        <ele>1391.4000244141</ele>
        <time>2022-05-26T14:31:45.000Z</time>
      </trkpt>
      <trkpt lat="44.9659" lon="5.47186">
        <ele>1391.5999755859</ele>
        <time>2022-05-26T14:31:47.000Z</time>
      </trkpt>
      <trkpt lat="44.96585" lon="5.47177">
        <ele>1393.1999511719</ele>
        <time>2022-05-26T14:31:59.000Z</time>
      </trkpt>
      <trkpt lat="44.96579" lon="5.4717">
        <ele>1394.5999755859</ele>
        <time>2022-05-26T14:32:06.000Z</time>
      </trkpt>
      <trkpt lat="44.96573" lon="5.47162">
        <ele>1396.4000244141</ele>
        <time>2022-05-26T14:32:15.000Z</time>
      </trkpt>
      <trkpt lat="44.9657" lon="5.4716">
        <ele>1397.1999511719</ele>
        <time>2022-05-26T14:32:20.000Z</time>
      </trkpt>
      <trkpt lat="44.9657" lon="5.4716">
        <ele>1397.1999511719</ele>
        <time>2022-05-26T14:32:21.000Z</time>
      </trkpt>
      <trkpt lat="44.9657" lon="5.4716">
        <ele>1397.1999511719</ele>
        <time>2022-05-26T14:32:22.000Z</time>
      </trkpt>
      <trkpt lat="44.9657" lon="5.4716">
        <ele>1397.1999511719</ele>
        <time>2022-05-26T14:32:23.000Z</time>
      </trkpt>
      <trkpt lat="44.96566" lon="5.47155">
        <ele>1398.5999755859</ele>
        <time>2022-05-26T14:32:33.000Z</time>
      </trkpt>
      <trkpt lat="44.96565" lon="5.47153">
        <ele>1399.1999511719</ele>
        <time>2022-05-26T14:32:35.000Z</time>
      </trkpt>
      <trkpt lat="44.96563" lon="5.47148">
        <ele>1400.1999511719</ele>
        <time>2022-05-26T14:32:39.000Z</time>
      </trkpt>
      <trkpt lat="44.96562" lon="5.47147">
        <ele>1400.5999755859</ele>
        <time>2022-05-26T14:32:40.000Z</time>
      </trkpt>
      <trkpt lat="44.96562" lon="5.47146">
        <ele>1400.8000488281</ele>
        <time>2022-05-26T14:32:41.000Z</time>
      </trkpt>
      <trkpt lat="44.96561" lon="5.47145">
        <ele>1401</ele>
        <time>2022-05-26T14:32:42.000Z</time>
      </trkpt>
      <trkpt lat="44.9656" lon="5.47144">
        <ele>1401.4000244141</ele>
        <time>2022-05-26T14:32:43.000Z</time>
      </trkpt>
      <trkpt lat="44.96555" lon="5.47138">
        <ele>1403</ele>
        <time>2022-05-26T14:32:49.000Z</time>
      </trkpt>
      <trkpt lat="44.96555" lon="5.47137">
        <ele>1403.1999511719</ele>
        <time>2022-05-26T14:32:50.000Z</time>
      </trkpt>
      <trkpt lat="44.96555" lon="5.47136">
        <ele>1403.1999511719</ele>
        <time>2022-05-26T14:32:51.000Z</time>
      </trkpt>
      <trkpt lat="44.96554" lon="5.47136">
        <ele>1403.5999755859</ele>
        <time>2022-05-26T14:32:52.000Z</time>
      </trkpt>
      <trkpt lat="44.96542" lon="5.47116">
        <ele>1407.8000488281</ele>
        <time>2022-05-26T14:33:09.000Z</time>
      </trkpt>
      <trkpt lat="44.96539" lon="5.47112">
        <ele>1408.8000488281</ele>
        <time>2022-05-26T14:33:14.000Z</time>
      </trkpt>
      <trkpt lat="44.96537" lon="5.47109">
        <ele>1409.5999755859</ele>
        <time>2022-05-26T14:33:19.000Z</time>
      </trkpt>
      <trkpt lat="44.96535" lon="5.47108">
        <ele>1410</ele>
        <time>2022-05-26T14:33:21.000Z</time>
      </trkpt>
      <trkpt lat="44.96534" lon="5.47107">
        <ele>1410.1999511719</ele>
        <time>2022-05-26T14:33:23.000Z</time>
      </trkpt>
      <trkpt lat="44.96531" lon="5.47104">
        <ele>1411</ele>
        <time>2022-05-26T14:33:27.000Z</time>
      </trkpt>
      <trkpt lat="44.96526" lon="5.47097">
        <ele>1413</ele>
        <time>2022-05-26T14:33:37.000Z</time>
      </trkpt>
      <trkpt lat="44.96523" lon="5.47094">
        <ele>1413.8000488281</ele>
        <time>2022-05-26T14:33:44.000Z</time>
      </trkpt>
      <trkpt lat="44.96526" lon="5.47094">
        <ele>1413.4000244141</ele>
        <time>2022-05-26T14:33:53.000Z</time>
      </trkpt>
      <trkpt lat="44.9652" lon="5.47093">
        <ele>1414.1999511719</ele>
        <time>2022-05-26T14:34:04.000Z</time>
      </trkpt>
      <trkpt lat="44.9651" lon="5.4709">
        <ele>1415.5999755859</ele>
        <time>2022-05-26T14:34:16.000Z</time>
      </trkpt>
      <trkpt lat="44.96506" lon="5.47089">
        <ele>1416.4000244141</ele>
        <time>2022-05-26T14:34:21.000Z</time>
      </trkpt>
      <trkpt lat="44.96505" lon="5.47089">
        <ele>1416.4000244141</ele>
        <time>2022-05-26T14:34:22.000Z</time>
      </trkpt>
      <trkpt lat="44.96503" lon="5.47088">
        <ele>1416.8000488281</ele>
        <time>2022-05-26T14:34:25.000Z</time>
      </trkpt>
      <trkpt lat="44.965" lon="5.47088">
        <ele>1417.1999511719</ele>
        <time>2022-05-26T14:34:29.000Z</time>
      </trkpt>
      <trkpt lat="44.96486" lon="5.4709">
        <ele>1418.5999755859</ele>
        <time>2022-05-26T14:34:47.000Z</time>
      </trkpt>
      <trkpt lat="44.96482" lon="5.47088">
        <ele>1419.1999511719</ele>
        <time>2022-05-26T14:34:59.000Z</time>
      </trkpt>
      <trkpt lat="44.96479" lon="5.4708">
        <ele>1420.5999755859</ele>
        <time>2022-05-26T14:35:14.000Z</time>
      </trkpt>
      <trkpt lat="44.96477" lon="5.4707">
        <ele>1421.8000488281</ele>
        <time>2022-05-26T14:35:27.000Z</time>
      </trkpt>
      <trkpt lat="44.96474" lon="5.47066">
        <ele>1422.5999755859</ele>
        <time>2022-05-26T14:35:31.000Z</time>
      </trkpt>
      <trkpt lat="44.9647" lon="5.47068">
        <ele>1422.1999511719</ele>
        <time>2022-05-26T14:35:37.000Z</time>
      </trkpt>
      <trkpt lat="44.96468" lon="5.47069">
        <ele>1422.1999511719</ele>
        <time>2022-05-26T14:35:43.000Z</time>
      </trkpt>
      <trkpt lat="44.96467" lon="5.4707">
        <ele>1422</ele>
        <time>2022-05-26T14:35:49.000Z</time>
      </trkpt>
      <trkpt lat="44.96467" lon="5.4707">
        <ele>1422</ele>
        <time>2022-05-26T14:35:54.000Z</time>
      </trkpt>
      <trkpt lat="44.9647" lon="5.47074">
        <ele>1421.4000244141</ele>
        <time>2022-05-26T14:36:05.000Z</time>
      </trkpt>
      <trkpt lat="44.96471" lon="5.47075">
        <ele>1421.1999511719</ele>
        <time>2022-05-26T14:36:09.000Z</time>
      </trkpt>
      <trkpt lat="44.96477" lon="5.47072">
        <ele>1421.5999755859</ele>
        <time>2022-05-26T14:36:39.000Z</time>
      </trkpt>
      <trkpt lat="44.96478" lon="5.47071">
        <ele>1421.8000488281</ele>
        <time>2022-05-26T14:36:44.000Z</time>
      </trkpt>
      <trkpt lat="44.96479" lon="5.4707">
        <ele>1422</ele>
        <time>2022-05-26T14:36:46.000Z</time>
      </trkpt>
      <trkpt lat="44.96479" lon="5.4707">
        <ele>1422</ele>
        <time>2022-05-26T14:36:47.000Z</time>
      </trkpt>
      <trkpt lat="44.96479" lon="5.4707">
        <ele>1422</ele>
        <time>2022-05-26T14:36:49.000Z</time>
      </trkpt>
      <trkpt lat="44.96475" lon="5.4707">
        <ele>1422</ele>
        <time>2022-05-26T14:36:59.000Z</time>
      </trkpt>
      <trkpt lat="44.9647" lon="5.4707">
        <ele>1422</ele>
        <time>2022-05-26T14:37:04.000Z</time>
      </trkpt>
      <trkpt lat="44.96466" lon="5.47071">
        <ele>1422</ele>
        <time>2022-05-26T14:37:08.000Z</time>
      </trkpt>
      <trkpt lat="44.96462" lon="5.47072">
        <ele>1422</ele>
        <time>2022-05-26T14:37:12.000Z</time>
      </trkpt>
      <trkpt lat="44.96459" lon="5.47073">
        <ele>1422</ele>
        <time>2022-05-26T14:37:14.000Z</time>
      </trkpt>
      <trkpt lat="44.96458" lon="5.47073">
        <ele>1422</ele>
        <time>2022-05-26T14:37:15.000Z</time>
      </trkpt>
      <trkpt lat="44.96455" lon="5.47073">
        <ele>1422</ele>
        <time>2022-05-26T14:37:18.000Z</time>
      </trkpt>
      <trkpt lat="44.96454" lon="5.47073">
        <ele>1421.8000488281</ele>
        <time>2022-05-26T14:37:19.000Z</time>
      </trkpt>
      <trkpt lat="44.96453" lon="5.47073">
        <ele>1421.8000488281</ele>
        <time>2022-05-26T14:37:20.000Z</time>
      </trkpt>
      <trkpt lat="44.96452" lon="5.47073">
        <ele>1421.8000488281</ele>
        <time>2022-05-26T14:37:21.000Z</time>
      </trkpt>
      <trkpt lat="44.9645" lon="5.47073">
        <ele>1421.8000488281</ele>
        <time>2022-05-26T14:37:23.000Z</time>
      </trkpt>
      <trkpt lat="44.96449" lon="5.47072">
        <ele>1421.8000488281</ele>
        <time>2022-05-26T14:37:24.000Z</time>
      </trkpt>
      <trkpt lat="44.96448" lon="5.47072">
        <ele>1421.8000488281</ele>
        <time>2022-05-26T14:37:26.000Z</time>
      </trkpt>
      <trkpt lat="44.96447" lon="5.47072">
        <ele>1421.8000488281</ele>
        <time>2022-05-26T14:37:27.000Z</time>
      </trkpt>
      <trkpt lat="44.96447" lon="5.47073">
        <ele>1421.5999755859</ele>
        <time>2022-05-26T14:37:28.000Z</time>
      </trkpt>
      <trkpt lat="44.96444" lon="5.47074">
        <ele>1421.4000244141</ele>
        <time>2022-05-26T14:37:32.000Z</time>
      </trkpt>
      <trkpt lat="44.96443" lon="5.47074">
        <ele>1421.1999511719</ele>
        <time>2022-05-26T14:37:35.000Z</time>
      </trkpt>
      <trkpt lat="44.96439" lon="5.47069">
        <ele>1421.5999755859</ele>
        <time>2022-05-26T14:37:40.000Z</time>
      </trkpt>
      <trkpt lat="44.96439" lon="5.47069">
        <ele>1421.5999755859</ele>
        <time>2022-05-26T14:37:41.000Z</time>
      </trkpt>
      <trkpt lat="44.96437" lon="5.47068">
        <ele>1421.5999755859</ele>
        <time>2022-05-26T14:37:44.000Z</time>
      </trkpt>
      <trkpt lat="44.96435" lon="5.47066">
        <ele>1421.8000488281</ele>
        <time>2022-05-26T14:37:46.000Z</time>
      </trkpt>
      <trkpt lat="44.96434" lon="5.47065">
        <ele>1421.8000488281</ele>
        <time>2022-05-26T14:37:48.000Z</time>
      </trkpt>
      <trkpt lat="44.9643" lon="5.47058">
        <ele>1422.4000244141</ele>
        <time>2022-05-26T14:37:56.000Z</time>
      </trkpt>
      <trkpt lat="44.96429" lon="5.47057">
        <ele>1422.5999755859</ele>
        <time>2022-05-26T14:37:58.000Z</time>
      </trkpt>
      <trkpt lat="44.96421" lon="5.47053">
        <ele>1423</ele>
        <time>2022-05-26T14:38:07.000Z</time>
      </trkpt>
      <trkpt lat="44.96419" lon="5.47053">
        <ele>1423</ele>
        <time>2022-05-26T14:38:08.000Z</time>
      </trkpt>
      <trkpt lat="44.96414" lon="5.4705">
        <ele>1423.1999511719</ele>
        <time>2022-05-26T14:38:13.000Z</time>
      </trkpt>
      <trkpt lat="44.96408" lon="5.47048">
        <ele>1423.1999511719</ele>
        <time>2022-05-26T14:38:21.000Z</time>
      </trkpt>
      <trkpt lat="44.96407" lon="5.47047">
        <ele>1423.1999511719</ele>
        <time>2022-05-26T14:38:23.000Z</time>
      </trkpt>
      <trkpt lat="44.96406" lon="5.47047">
        <ele>1423.1999511719</ele>
        <time>2022-05-26T14:38:25.000Z</time>
      </trkpt>
      <trkpt lat="44.96405" lon="5.47047">
        <ele>1423.1999511719</ele>
        <time>2022-05-26T14:38:28.000Z</time>
      </trkpt>
      <trkpt lat="44.96402" lon="5.47047">
        <ele>1423.1999511719</ele>
        <time>2022-05-26T14:38:31.000Z</time>
      </trkpt>
      <trkpt lat="44.96401" lon="5.47046">
        <ele>1423.1999511719</ele>
        <time>2022-05-26T14:38:32.000Z</time>
      </trkpt>
      <trkpt lat="44.96401" lon="5.47046">
        <ele>1423.4000244141</ele>
        <time>2022-05-26T14:38:33.000Z</time>
      </trkpt>
      <trkpt lat="44.96401" lon="5.47046">
        <ele>1423.4000244141</ele>
        <time>2022-05-26T14:38:34.000Z</time>
      </trkpt>
      <trkpt lat="44.964" lon="5.47046">
        <ele>1423.4000244141</ele>
        <time>2022-05-26T14:38:35.000Z</time>
      </trkpt>
      <trkpt lat="44.964" lon="5.47046">
        <ele>1423.4000244141</ele>
        <time>2022-05-26T14:38:36.000Z</time>
      </trkpt>
      <trkpt lat="44.96397" lon="5.47046">
        <ele>1423.4000244141</ele>
        <time>2022-05-26T14:38:40.000Z</time>
      </trkpt>
      <trkpt lat="44.96397" lon="5.47046">
        <ele>1423.4000244141</ele>
        <time>2022-05-26T14:38:41.000Z</time>
      </trkpt>
      <trkpt lat="44.96384" lon="5.47046">
        <ele>1424.4000244141</ele>
        <time>2022-05-26T14:38:53.000Z</time>
      </trkpt>
      <trkpt lat="44.96372" lon="5.47047">
        <ele>1425.8000488281</ele>
        <time>2022-05-26T14:39:09.000Z</time>
      </trkpt>
      <trkpt lat="44.9637" lon="5.47046">
        <ele>1426.1999511719</ele>
        <time>2022-05-26T14:39:12.000Z</time>
      </trkpt>
      <trkpt lat="44.96368" lon="5.47045">
        <ele>1426.4000244141</ele>
        <time>2022-05-26T14:39:14.000Z</time>
      </trkpt>
      <trkpt lat="44.96363" lon="5.47045">
        <ele>1427.1999511719</ele>
        <time>2022-05-26T14:39:18.000Z</time>
      </trkpt>
      <trkpt lat="44.96348" lon="5.47047">
        <ele>1429.4000244141</ele>
        <time>2022-05-26T14:39:29.000Z</time>
      </trkpt>
      <trkpt lat="44.96343" lon="5.47048">
        <ele>1430.5999755859</ele>
        <time>2022-05-26T14:39:34.000Z</time>
      </trkpt>
      <trkpt lat="44.96334" lon="5.47058">
        <ele>1432.4000244141</ele>
        <time>2022-05-26T14:39:44.000Z</time>
      </trkpt>
      <trkpt lat="44.96325" lon="5.4706">
        <ele>1434</ele>
        <time>2022-05-26T14:39:53.000Z</time>
      </trkpt>
      <trkpt lat="44.96318" lon="5.47058">
        <ele>1434.8000488281</ele>
        <time>2022-05-26T14:40:00.000Z</time>
      </trkpt>
      <trkpt lat="44.96312" lon="5.47052">
        <ele>1435.8000488281</ele>
        <time>2022-05-26T14:40:07.000Z</time>
      </trkpt>
      <trkpt lat="44.96306" lon="5.47046">
        <ele>1437</ele>
        <time>2022-05-26T14:40:16.000Z</time>
      </trkpt>
      <trkpt lat="44.96305" lon="5.47045">
        <ele>1437</ele>
        <time>2022-05-26T14:40:18.000Z</time>
      </trkpt>
      <trkpt lat="44.963" lon="5.47037">
        <ele>1438.1999511719</ele>
        <time>2022-05-26T14:40:35.000Z</time>
      </trkpt>
      <trkpt lat="44.963" lon="5.47027">
        <ele>1438.5999755859</ele>
        <time>2022-05-26T14:40:55.000Z</time>
      </trkpt>
      <trkpt lat="44.963" lon="5.47026">
        <ele>1438.5999755859</ele>
        <time>2022-05-26T14:40:56.000Z</time>
      </trkpt>
      <trkpt lat="44.96298" lon="5.47018">
        <ele>1439.1999511719</ele>
        <time>2022-05-26T14:41:03.000Z</time>
      </trkpt>
      <trkpt lat="44.96299" lon="5.47014">
        <ele>1439.1999511719</ele>
        <time>2022-05-26T14:41:07.000Z</time>
      </trkpt>
      <trkpt lat="44.96299" lon="5.47013">
        <ele>1439.1999511719</ele>
        <time>2022-05-26T14:41:08.000Z</time>
      </trkpt>
      <trkpt lat="44.96299" lon="5.47012">
        <ele>1439.4000244141</ele>
        <time>2022-05-26T14:41:09.000Z</time>
      </trkpt>
      <trkpt lat="44.96298" lon="5.47006">
        <ele>1439.5999755859</ele>
        <time>2022-05-26T14:41:14.000Z</time>
      </trkpt>
      <trkpt lat="44.96297" lon="5.47004">
        <ele>1439.5999755859</ele>
        <time>2022-05-26T14:41:15.000Z</time>
      </trkpt>
      <trkpt lat="44.96296" lon="5.47003">
        <ele>1439.8000488281</ele>
        <time>2022-05-26T14:41:16.000Z</time>
      </trkpt>
      <trkpt lat="44.96294" lon="5.47">
        <ele>1440.1999511719</ele>
        <time>2022-05-26T14:41:18.000Z</time>
      </trkpt>
      <trkpt lat="44.96289" lon="5.46987">
        <ele>1441.4000244141</ele>
        <time>2022-05-26T14:41:29.000Z</time>
      </trkpt>
      <trkpt lat="44.96286" lon="5.46983">
        <ele>1442</ele>
        <time>2022-05-26T14:41:33.000Z</time>
      </trkpt>
      <trkpt lat="44.96273" lon="5.46964">
        <ele>1444.1999511719</ele>
        <time>2022-05-26T14:41:50.000Z</time>
      </trkpt>
      <trkpt lat="44.96266" lon="5.46954">
        <ele>1445</ele>
        <time>2022-05-26T14:41:58.000Z</time>
      </trkpt>
      <trkpt lat="44.96266" lon="5.46953">
        <ele>1445</ele>
        <time>2022-05-26T14:41:59.000Z</time>
      </trkpt>
      <trkpt lat="44.96265" lon="5.46951">
        <ele>1445</ele>
        <time>2022-05-26T14:42:01.000Z</time>
      </trkpt>
      <trkpt lat="44.96265" lon="5.4695">
        <ele>1445</ele>
        <time>2022-05-26T14:42:02.000Z</time>
      </trkpt>
      <trkpt lat="44.96264" lon="5.46948">
        <ele>1445</ele>
        <time>2022-05-26T14:42:03.000Z</time>
      </trkpt>
      <trkpt lat="44.96264" lon="5.46947">
        <ele>1445</ele>
        <time>2022-05-26T14:42:04.000Z</time>
      </trkpt>
      <trkpt lat="44.96261" lon="5.46942">
        <ele>1444.8000488281</ele>
        <time>2022-05-26T14:42:10.000Z</time>
      </trkpt>
      <trkpt lat="44.9626" lon="5.4694">
        <ele>1444.8000488281</ele>
        <time>2022-05-26T14:42:13.000Z</time>
      </trkpt>
      <trkpt lat="44.9626" lon="5.46939">
        <ele>1444.5999755859</ele>
        <time>2022-05-26T14:42:14.000Z</time>
      </trkpt>
      <trkpt lat="44.96259" lon="5.46935">
        <ele>1444.1999511719</ele>
        <time>2022-05-26T14:42:17.000Z</time>
      </trkpt>
      <trkpt lat="44.96258" lon="5.46934">
        <ele>1444</ele>
        <time>2022-05-26T14:42:19.000Z</time>
      </trkpt>
      <trkpt lat="44.96258" lon="5.46932">
        <ele>1444</ele>
        <time>2022-05-26T14:42:21.000Z</time>
      </trkpt>
      <trkpt lat="44.96256" lon="5.46931">
        <ele>1444</ele>
        <time>2022-05-26T14:42:27.000Z</time>
      </trkpt>
      <trkpt lat="44.96254" lon="5.4693">
        <ele>1443.8000488281</ele>
        <time>2022-05-26T14:42:38.000Z</time>
      </trkpt>
      <trkpt lat="44.96253" lon="5.46928">
        <ele>1443.8000488281</ele>
        <time>2022-05-26T14:42:46.000Z</time>
      </trkpt>
      <trkpt lat="44.96254" lon="5.46926">
        <ele>1443.4000244141</ele>
        <time>2022-05-26T14:42:52.000Z</time>
      </trkpt>
      <trkpt lat="44.96255" lon="5.46922">
        <ele>1443</ele>
        <time>2022-05-26T14:42:57.000Z</time>
      </trkpt>
      <trkpt lat="44.96258" lon="5.4692">
        <ele>1442.5999755859</ele>
        <time>2022-05-26T14:43:03.000Z</time>
      </trkpt>
      <trkpt lat="44.96263" lon="5.46921">
        <ele>1442.5999755859</ele>
        <time>2022-05-26T14:43:08.000Z</time>
      </trkpt>
      <trkpt lat="44.96264" lon="5.46923">
        <ele>1442.5999755859</ele>
        <time>2022-05-26T14:43:12.000Z</time>
      </trkpt>
      <trkpt lat="44.96264" lon="5.46925">
        <ele>1442.8000488281</ele>
        <time>2022-05-26T14:43:16.000Z</time>
      </trkpt>
      <trkpt lat="44.96263" lon="5.46925">
        <ele>1443</ele>
        <time>2022-05-26T14:43:19.000Z</time>
      </trkpt>
      <trkpt lat="44.96262" lon="5.46925">
        <ele>1443</ele>
        <time>2022-05-26T14:43:23.000Z</time>
      </trkpt>
      <trkpt lat="44.96262" lon="5.46925">
        <ele>1443</ele>
        <time>2022-05-26T14:43:27.000Z</time>
      </trkpt>
      <trkpt lat="44.96262" lon="5.46926">
        <ele>1443.1999511719</ele>
        <time>2022-05-26T14:43:31.000Z</time>
      </trkpt>
      <trkpt lat="44.96258" lon="5.46927">
        <ele>1443.4000244141</ele>
        <time>2022-05-26T14:43:36.000Z</time>
      </trkpt>
      <trkpt lat="44.96252" lon="5.46926">
        <ele>1443.5999755859</ele>
        <time>2022-05-26T14:43:43.000Z</time>
      </trkpt>
      <trkpt lat="44.9625" lon="5.46927">
        <ele>1443.5999755859</ele>
        <time>2022-05-26T14:43:47.000Z</time>
      </trkpt>
      <trkpt lat="44.96247" lon="5.46927">
        <ele>1443.8000488281</ele>
        <time>2022-05-26T14:43:51.000Z</time>
      </trkpt>
      <trkpt lat="44.96249" lon="5.46927">
        <ele>1443.5999755859</ele>
        <time>2022-05-26T14:44:19.000Z</time>
      </trkpt>
      <trkpt lat="44.9625" lon="5.46927">
        <ele>1443.5999755859</ele>
        <time>2022-05-26T14:44:21.000Z</time>
      </trkpt>
      <trkpt lat="44.96253" lon="5.46926">
        <ele>1443.4000244141</ele>
        <time>2022-05-26T14:44:23.000Z</time>
      </trkpt>
      <trkpt lat="44.96256" lon="5.46924">
        <ele>1443.1999511719</ele>
        <time>2022-05-26T14:44:26.000Z</time>
      </trkpt>
      <trkpt lat="44.96261" lon="5.4692">
        <ele>1442.5999755859</ele>
        <time>2022-05-26T14:44:32.000Z</time>
      </trkpt>
      <trkpt lat="44.96262" lon="5.46917">
        <ele>1442</ele>
        <time>2022-05-26T14:44:35.000Z</time>
      </trkpt>
      <trkpt lat="44.96263" lon="5.46914">
        <ele>1442</ele>
        <time>2022-05-26T14:44:38.000Z</time>
      </trkpt>
      <trkpt lat="44.96263" lon="5.4691">
        <ele>1441.8000488281</ele>
        <time>2022-05-26T14:44:41.000Z</time>
      </trkpt>
      <trkpt lat="44.96263" lon="5.46908">
        <ele>1441.8000488281</ele>
        <time>2022-05-26T14:44:43.000Z</time>
      </trkpt>
      <trkpt lat="44.96262" lon="5.46902">
        <ele>1441.4000244141</ele>
        <time>2022-05-26T14:44:48.000Z</time>
      </trkpt>
      <trkpt lat="44.96259" lon="5.46896">
        <ele>1441.1999511719</ele>
        <time>2022-05-26T14:44:51.000Z</time>
      </trkpt>
      <trkpt lat="44.96257" lon="5.46892">
        <ele>1441.1999511719</ele>
        <time>2022-05-26T14:44:53.000Z</time>
      </trkpt>
      <trkpt lat="44.96255" lon="5.46886">
        <ele>1441</ele>
        <time>2022-05-26T14:44:56.000Z</time>
      </trkpt>
      <trkpt lat="44.96253" lon="5.46882">
        <ele>1440.8000488281</ele>
        <time>2022-05-26T14:45:00.000Z</time>
      </trkpt>
      <trkpt lat="44.96254" lon="5.46872">
        <ele>1440.4000244141</ele>
        <time>2022-05-26T14:45:07.000Z</time>
      </trkpt>
      <trkpt lat="44.96256" lon="5.46851">
        <ele>1439.8000488281</ele>
        <time>2022-05-26T14:45:21.000Z</time>
      </trkpt>
      <trkpt lat="44.96257" lon="5.46848">
        <ele>1440</ele>
        <time>2022-05-26T14:45:23.000Z</time>
      </trkpt>
      <trkpt lat="44.96259" lon="5.46841">
        <ele>1440.4000244141</ele>
        <time>2022-05-26T14:45:28.000Z</time>
      </trkpt>
      <trkpt lat="44.96259" lon="5.46839">
        <ele>1440.5999755859</ele>
        <time>2022-05-26T14:45:30.000Z</time>
      </trkpt>
      <trkpt lat="44.96259" lon="5.46836">
        <ele>1440.5999755859</ele>
        <time>2022-05-26T14:45:34.000Z</time>
      </trkpt>
      <trkpt lat="44.96257" lon="5.46828">
        <ele>1440</ele>
        <time>2022-05-26T14:45:39.000Z</time>
      </trkpt>
      <trkpt lat="44.96255" lon="5.46822">
        <ele>1439.4000244141</ele>
        <time>2022-05-26T14:45:43.000Z</time>
      </trkpt>
      <trkpt lat="44.96257" lon="5.46814">
        <ele>1439.4000244141</ele>
        <time>2022-05-26T14:45:51.000Z</time>
      </trkpt>
      <trkpt lat="44.96255" lon="5.4681">
        <ele>1439</ele>
        <time>2022-05-26T14:45:55.000Z</time>
      </trkpt>
      <trkpt lat="44.96255" lon="5.46806">
        <ele>1438.8000488281</ele>
        <time>2022-05-26T14:45:59.000Z</time>
      </trkpt>
      <trkpt lat="44.96255" lon="5.46804">
        <ele>1438.8000488281</ele>
        <time>2022-05-26T14:46:01.000Z</time>
      </trkpt>
      <trkpt lat="44.96255" lon="5.46801">
        <ele>1438.5999755859</ele>
        <time>2022-05-26T14:46:04.000Z</time>
      </trkpt>
      <trkpt lat="44.9625" lon="5.46788">
        <ele>1437.1999511719</ele>
        <time>2022-05-26T14:46:14.000Z</time>
      </trkpt>
      <trkpt lat="44.9625" lon="5.46785">
        <ele>1437</ele>
        <time>2022-05-26T14:46:16.000Z</time>
      </trkpt>
      <trkpt lat="44.96249" lon="5.46782">
        <ele>1436.5999755859</ele>
        <time>2022-05-26T14:46:18.000Z</time>
      </trkpt>
      <trkpt lat="44.96248" lon="5.4678">
        <ele>1436.4000244141</ele>
        <time>2022-05-26T14:46:20.000Z</time>
      </trkpt>
      <trkpt lat="44.96242" lon="5.46772">
        <ele>1434.8000488281</ele>
        <time>2022-05-26T14:46:27.000Z</time>
      </trkpt>
      <trkpt lat="44.9624" lon="5.4677">
        <ele>1434.4000244141</ele>
        <time>2022-05-26T14:46:29.000Z</time>
      </trkpt>
      <trkpt lat="44.96235" lon="5.46764">
        <ele>1433</ele>
        <time>2022-05-26T14:46:34.000Z</time>
      </trkpt>
      <trkpt lat="44.96221" lon="5.46748">
        <ele>1428.4000244141</ele>
        <time>2022-05-26T14:46:46.000Z</time>
      </trkpt>
      <trkpt lat="44.96209" lon="5.46728">
        <ele>1427</ele>
        <time>2022-05-26T14:46:58.000Z</time>
      </trkpt>
      <trkpt lat="44.96209" lon="5.46703">
        <ele>1428.8000488281</ele>
        <time>2022-05-26T14:47:13.000Z</time>
      </trkpt>
      <trkpt lat="44.96212" lon="5.46677">
        <ele>1432.1999511719</ele>
        <time>2022-05-26T14:47:28.000Z</time>
      </trkpt>
      <trkpt lat="44.96211" lon="5.4665">
        <ele>1433.5999755859</ele>
        <time>2022-05-26T14:47:45.000Z</time>
      </trkpt>
      <trkpt lat="44.9621" lon="5.46642">
        <ele>1433.5999755859</ele>
        <time>2022-05-26T14:47:52.000Z</time>
      </trkpt>
      <trkpt lat="44.96205" lon="5.46624">
        <ele>1433.4000244141</ele>
        <time>2022-05-26T14:48:03.000Z</time>
      </trkpt>
      <trkpt lat="44.96204" lon="5.46617">
        <ele>1433.5999755859</ele>
        <time>2022-05-26T14:48:08.000Z</time>
      </trkpt>
      <trkpt lat="44.96203" lon="5.46612">
        <ele>1433.8000488281</ele>
        <time>2022-05-26T14:48:12.000Z</time>
      </trkpt>
      <trkpt lat="44.96199" lon="5.46604">
        <ele>1433.4000244141</ele>
        <time>2022-05-26T14:48:19.000Z</time>
      </trkpt>
      <trkpt lat="44.96196" lon="5.46602">
        <ele>1432.5999755859</ele>
        <time>2022-05-26T14:48:22.000Z</time>
      </trkpt>
      <trkpt lat="44.9619" lon="5.46599">
        <ele>1431.5999755859</ele>
        <time>2022-05-26T14:48:26.000Z</time>
      </trkpt>
      <trkpt lat="44.96186" lon="5.46595">
        <ele>1430.8000488281</ele>
        <time>2022-05-26T14:48:29.000Z</time>
      </trkpt>
      <trkpt lat="44.9618" lon="5.46587">
        <ele>1429.8000488281</ele>
        <time>2022-05-26T14:48:36.000Z</time>
      </trkpt>
      <trkpt lat="44.96179" lon="5.46582">
        <ele>1429.8000488281</ele>
        <time>2022-05-26T14:48:39.000Z</time>
      </trkpt>
      <trkpt lat="44.9618" lon="5.46565">
        <ele>1430.8000488281</ele>
        <time>2022-05-26T14:48:55.000Z</time>
      </trkpt>
      <trkpt lat="44.96181" lon="5.46552">
        <ele>1431.1999511719</ele>
        <time>2022-05-26T14:49:03.000Z</time>
      </trkpt>
      <trkpt lat="44.9618" lon="5.46528">
        <ele>1431.1999511719</ele>
        <time>2022-05-26T14:49:18.000Z</time>
      </trkpt>
      <trkpt lat="44.96185" lon="5.46504">
        <ele>1433.4000244141</ele>
        <time>2022-05-26T14:49:32.000Z</time>
      </trkpt>
      <trkpt lat="44.9619" lon="5.46491">
        <ele>1434.4000244141</ele>
        <time>2022-05-26T14:49:39.000Z</time>
      </trkpt>
      <trkpt lat="44.96191" lon="5.4649">
        <ele>1434.4000244141</ele>
        <time>2022-05-26T14:49:40.000Z</time>
      </trkpt>
      <trkpt lat="44.96192" lon="5.46485">
        <ele>1434.5999755859</ele>
        <time>2022-05-26T14:49:43.000Z</time>
      </trkpt>
      <trkpt lat="44.96192" lon="5.46481">
        <ele>1434.4000244141</ele>
        <time>2022-05-26T14:49:45.000Z</time>
      </trkpt>
      <trkpt lat="44.96192" lon="5.46479">
        <ele>1434.4000244141</ele>
        <time>2022-05-26T14:49:46.000Z</time>
      </trkpt>
      <trkpt lat="44.96192" lon="5.46473">
        <ele>1433.8000488281</ele>
        <time>2022-05-26T14:49:50.000Z</time>
      </trkpt>
      <trkpt lat="44.96192" lon="5.46471">
        <ele>1433.5999755859</ele>
        <time>2022-05-26T14:49:52.000Z</time>
      </trkpt>
      <trkpt lat="44.96193" lon="5.46468">
        <ele>1433.1999511719</ele>
        <time>2022-05-26T14:49:54.000Z</time>
      </trkpt>
      <trkpt lat="44.96193" lon="5.46466">
        <ele>1433</ele>
        <time>2022-05-26T14:49:55.000Z</time>
      </trkpt>
      <trkpt lat="44.96194" lon="5.46464">
        <ele>1432.5999755859</ele>
        <time>2022-05-26T14:49:56.000Z</time>
      </trkpt>
      <trkpt lat="44.96194" lon="5.46454">
        <ele>1430.8000488281</ele>
        <time>2022-05-26T14:50:01.000Z</time>
      </trkpt>
      <trkpt lat="44.96195" lon="5.46452">
        <ele>1430.5999755859</ele>
        <time>2022-05-26T14:50:02.000Z</time>
      </trkpt>
      <trkpt lat="44.96202" lon="5.46431">
        <ele>1428.5999755859</ele>
        <time>2022-05-26T14:50:18.000Z</time>
      </trkpt>
      <trkpt lat="44.96202" lon="5.4643">
        <ele>1428.4000244141</ele>
        <time>2022-05-26T14:50:19.000Z</time>
      </trkpt>
      <trkpt lat="44.96203" lon="5.46427">
        <ele>1427.5999755859</ele>
        <time>2022-05-26T14:50:23.000Z</time>
      </trkpt>
      <trkpt lat="44.96204" lon="5.46424">
        <ele>1427.4000244141</ele>
        <time>2022-05-26T14:50:28.000Z</time>
      </trkpt>
      <trkpt lat="44.96206" lon="5.4642">
        <ele>1426.5999755859</ele>
        <time>2022-05-26T14:50:40.000Z</time>
      </trkpt>
      <trkpt lat="44.96193" lon="5.46414">
        <ele>1422</ele>
        <time>2022-05-26T14:50:52.000Z</time>
      </trkpt>
      <trkpt lat="44.96192" lon="5.46409">
        <ele>1419.5999755859</ele>
        <time>2022-05-26T14:51:00.000Z</time>
      </trkpt>
      <trkpt lat="44.96187" lon="5.46404">
        <ele>1416.5999755859</ele>
        <time>2022-05-26T14:51:05.000Z</time>
      </trkpt>
      <trkpt lat="44.96187" lon="5.46396">
        <ele>1413.8000488281</ele>
        <time>2022-05-26T14:51:14.000Z</time>
      </trkpt>
      <trkpt lat="44.96189" lon="5.46393">
        <ele>1413.4000244141</ele>
        <time>2022-05-26T14:51:16.000Z</time>
      </trkpt>
      <trkpt lat="44.9619" lon="5.46391">
        <ele>1413.1999511719</ele>
        <time>2022-05-26T14:51:18.000Z</time>
      </trkpt>
      <trkpt lat="44.96191" lon="5.4639">
        <ele>1413</ele>
        <time>2022-05-26T14:51:20.000Z</time>
      </trkpt>
      <trkpt lat="44.96193" lon="5.46386">
        <ele>1412.4000244141</ele>
        <time>2022-05-26T14:51:24.000Z</time>
      </trkpt>
      <trkpt lat="44.96194" lon="5.46384">
        <ele>1412</ele>
        <time>2022-05-26T14:51:26.000Z</time>
      </trkpt>
      <trkpt lat="44.96196" lon="5.4638">
        <ele>1411.5999755859</ele>
        <time>2022-05-26T14:51:29.000Z</time>
      </trkpt>
      <trkpt lat="44.96199" lon="5.46369">
        <ele>1409.5999755859</ele>
        <time>2022-05-26T14:51:37.000Z</time>
      </trkpt>
      <trkpt lat="44.96201" lon="5.46361">
        <ele>1408.4000244141</ele>
        <time>2022-05-26T14:51:46.000Z</time>
      </trkpt>
      <trkpt lat="44.96193" lon="5.46361">
        <ele>1405.5999755859</ele>
        <time>2022-05-26T14:52:01.000Z</time>
      </trkpt>
      <trkpt lat="44.96191" lon="5.46359">
        <ele>1404.5999755859</ele>
        <time>2022-05-26T14:52:05.000Z</time>
      </trkpt>
      <trkpt lat="44.96191" lon="5.46356">
        <ele>1403.5999755859</ele>
        <time>2022-05-26T14:52:08.000Z</time>
      </trkpt>
      <trkpt lat="44.96191" lon="5.46354">
        <ele>1402.8000488281</ele>
        <time>2022-05-26T14:52:11.000Z</time>
      </trkpt>
      <trkpt lat="44.9619" lon="5.46348">
        <ele>1400.5999755859</ele>
        <time>2022-05-26T14:52:16.000Z</time>
      </trkpt>
      <trkpt lat="44.96189" lon="5.46345">
        <ele>1399.1999511719</ele>
        <time>2022-05-26T14:52:20.000Z</time>
      </trkpt>
      <trkpt lat="44.96189" lon="5.46343">
        <ele>1398.5999755859</ele>
        <time>2022-05-26T14:52:24.000Z</time>
      </trkpt>
      <trkpt lat="44.96189" lon="5.46343">
        <ele>1398.4000244141</ele>
        <time>2022-05-26T14:52:25.000Z</time>
      </trkpt>
      <trkpt lat="44.96189" lon="5.46341">
        <ele>1398</ele>
        <time>2022-05-26T14:52:28.000Z</time>
      </trkpt>
      <trkpt lat="44.96188" lon="5.46332">
        <ele>1394.5999755859</ele>
        <time>2022-05-26T14:52:40.000Z</time>
      </trkpt>
      <trkpt lat="44.9619" lon="5.46329">
        <ele>1394.4000244141</ele>
        <time>2022-05-26T14:52:47.000Z</time>
      </trkpt>
      <trkpt lat="44.96191" lon="5.46327">
        <ele>1394.1999511719</ele>
        <time>2022-05-26T14:52:49.000Z</time>
      </trkpt>
      <trkpt lat="44.9619" lon="5.46326">
        <ele>1393.1999511719</ele>
        <time>2022-05-26T14:52:55.000Z</time>
      </trkpt>
      <trkpt lat="44.9619" lon="5.46326">
        <ele>1393.1999511719</ele>
        <time>2022-05-26T14:52:56.000Z</time>
      </trkpt>
      <trkpt lat="44.9619" lon="5.46326">
        <ele>1393.4000244141</ele>
        <time>2022-05-26T14:52:57.000Z</time>
      </trkpt>
      <trkpt lat="44.96194" lon="5.46326">
        <ele>1394.8000488281</ele>
        <time>2022-05-26T14:53:11.000Z</time>
      </trkpt>
      <trkpt lat="44.96198" lon="5.46324">
        <ele>1395.4000244141</ele>
        <time>2022-05-26T14:53:15.000Z</time>
      </trkpt>
      <trkpt lat="44.962" lon="5.46325">
        <ele>1396.1999511719</ele>
        <time>2022-05-26T14:53:19.000Z</time>
      </trkpt>
      <trkpt lat="44.96201" lon="5.46324">
        <ele>1396</ele>
        <time>2022-05-26T14:53:23.000Z</time>
      </trkpt>
      <trkpt lat="44.96201" lon="5.46325">
        <ele>1396.5999755859</ele>
        <time>2022-05-26T14:53:27.000Z</time>
      </trkpt>
      <trkpt lat="44.96201" lon="5.46328">
        <ele>1397.4000244141</ele>
        <time>2022-05-26T14:53:31.000Z</time>
      </trkpt>
      <trkpt lat="44.96199" lon="5.46328">
        <ele>1397.1999511719</ele>
        <time>2022-05-26T14:53:33.000Z</time>
      </trkpt>
      <trkpt lat="44.96199" lon="5.46328">
        <ele>1396.8000488281</ele>
        <time>2022-05-26T14:53:34.000Z</time>
      </trkpt>
      <trkpt lat="44.96198" lon="5.46328">
        <ele>1396.5999755859</ele>
        <time>2022-05-26T14:53:36.000Z</time>
      </trkpt>
      <trkpt lat="44.96197" lon="5.46329">
        <ele>1396.5999755859</ele>
        <time>2022-05-26T14:53:39.000Z</time>
      </trkpt>
      <trkpt lat="44.96196" lon="5.46329">
        <ele>1396</ele>
        <time>2022-05-26T14:53:43.000Z</time>
      </trkpt>
      <trkpt lat="44.96194" lon="5.46328">
        <ele>1395.4000244141</ele>
        <time>2022-05-26T14:53:46.000Z</time>
      </trkpt>
      <trkpt lat="44.96193" lon="5.46329">
        <ele>1395.4000244141</ele>
        <time>2022-05-26T14:53:49.000Z</time>
      </trkpt>
      <trkpt lat="44.96194" lon="5.46332">
        <ele>1396.4000244141</ele>
        <time>2022-05-26T14:53:54.000Z</time>
      </trkpt>
      <trkpt lat="44.96191" lon="5.46332">
        <ele>1395.5999755859</ele>
        <time>2022-05-26T14:54:01.000Z</time>
      </trkpt>
      <trkpt lat="44.96191" lon="5.46331">
        <ele>1395.4000244141</ele>
        <time>2022-05-26T14:54:05.000Z</time>
      </trkpt>
      <trkpt lat="44.96194" lon="5.46328">
        <ele>1395.1999511719</ele>
        <time>2022-05-26T14:54:13.000Z</time>
      </trkpt>
      <trkpt lat="44.96194" lon="5.46326">
        <ele>1394.8000488281</ele>
        <time>2022-05-26T14:54:14.000Z</time>
      </trkpt>
      <trkpt lat="44.96196" lon="5.46324">
        <ele>1394.4000244141</ele>
        <time>2022-05-26T14:54:18.000Z</time>
      </trkpt>
      <trkpt lat="44.96197" lon="5.46321">
        <ele>1394</ele>
        <time>2022-05-26T14:54:20.000Z</time>
      </trkpt>
      <trkpt lat="44.96198" lon="5.4632">
        <ele>1393.8000488281</ele>
        <time>2022-05-26T14:54:21.000Z</time>
      </trkpt>
      <trkpt lat="44.96198" lon="5.46319">
        <ele>1393.5999755859</ele>
        <time>2022-05-26T14:54:22.000Z</time>
      </trkpt>
      <trkpt lat="44.96199" lon="5.46317">
        <ele>1393</ele>
        <time>2022-05-26T14:54:23.000Z</time>
      </trkpt>
      <trkpt lat="44.96199" lon="5.46316">
        <ele>1392.5999755859</ele>
        <time>2022-05-26T14:54:24.000Z</time>
      </trkpt>
      <trkpt lat="44.962" lon="5.46313">
        <ele>1392</ele>
        <time>2022-05-26T14:54:26.000Z</time>
      </trkpt>
      <trkpt lat="44.96202" lon="5.4631">
        <ele>1391.1999511719</ele>
        <time>2022-05-26T14:54:31.000Z</time>
      </trkpt>
      <trkpt lat="44.96202" lon="5.46309">
        <ele>1391.1999511719</ele>
        <time>2022-05-26T14:54:33.000Z</time>
      </trkpt>
      <trkpt lat="44.96203" lon="5.46306">
        <ele>1390.4000244141</ele>
        <time>2022-05-26T14:54:40.000Z</time>
      </trkpt>
      <trkpt lat="44.96205" lon="5.46299">
        <ele>1388.8000488281</ele>
        <time>2022-05-26T14:54:47.000Z</time>
      </trkpt>
      <trkpt lat="44.96205" lon="5.46298">
        <ele>1388.5999755859</ele>
        <time>2022-05-26T14:54:49.000Z</time>
      </trkpt>
      <trkpt lat="44.96206" lon="5.46296">
        <ele>1388.1999511719</ele>
        <time>2022-05-26T14:54:59.000Z</time>
      </trkpt>
      <trkpt lat="44.96209" lon="5.46295">
        <ele>1388.5999755859</ele>
        <time>2022-05-26T14:55:08.000Z</time>
      </trkpt>
      <trkpt lat="44.96211" lon="5.46297">
        <ele>1389.4000244141</ele>
        <time>2022-05-26T14:55:16.000Z</time>
      </trkpt>
      <trkpt lat="44.96211" lon="5.46298">
        <ele>1389.8000488281</ele>
        <time>2022-05-26T14:55:21.000Z</time>
      </trkpt>
      <trkpt lat="44.96212" lon="5.463">
        <ele>1390.4000244141</ele>
        <time>2022-05-26T14:55:26.000Z</time>
      </trkpt>
      <trkpt lat="44.96212" lon="5.463">
        <ele>1390.5999755859</ele>
        <time>2022-05-26T14:55:29.000Z</time>
      </trkpt>
      <trkpt lat="44.96212" lon="5.463">
        <ele>1390.4000244141</ele>
        <time>2022-05-26T14:55:38.000Z</time>
      </trkpt>
      <trkpt lat="44.96213" lon="5.46299">
        <ele>1390.5999755859</ele>
        <time>2022-05-26T14:55:46.000Z</time>
      </trkpt>
      <trkpt lat="44.96213" lon="5.463">
        <ele>1390.8000488281</ele>
        <time>2022-05-26T14:55:54.000Z</time>
      </trkpt>
      <trkpt lat="44.96213" lon="5.46285">
        <ele>1386.5999755859</ele>
        <time>2022-05-26T14:56:06.000Z</time>
      </trkpt>
      <trkpt lat="44.96213" lon="5.46277">
        <ele>1384</ele>
        <time>2022-05-26T14:56:13.000Z</time>
      </trkpt>
      <trkpt lat="44.96212" lon="5.46275">
        <ele>1383.5999755859</ele>
        <time>2022-05-26T14:56:15.000Z</time>
      </trkpt>
      <trkpt lat="44.96212" lon="5.46272">
        <ele>1383.1999511719</ele>
        <time>2022-05-26T14:56:18.000Z</time>
      </trkpt>
      <trkpt lat="44.96212" lon="5.4627">
        <ele>1383</ele>
        <time>2022-05-26T14:56:19.000Z</time>
      </trkpt>
      <trkpt lat="44.96212" lon="5.46269">
        <ele>1382.8000488281</ele>
        <time>2022-05-26T14:56:20.000Z</time>
      </trkpt>
      <trkpt lat="44.96212" lon="5.46267">
        <ele>1382.5999755859</ele>
        <time>2022-05-26T14:56:21.000Z</time>
      </trkpt>
      <trkpt lat="44.96213" lon="5.46265">
        <ele>1382.1999511719</ele>
        <time>2022-05-26T14:56:23.000Z</time>
      </trkpt>
      <trkpt lat="44.96212" lon="5.46262">
        <ele>1381.8000488281</ele>
        <time>2022-05-26T14:56:26.000Z</time>
      </trkpt>
      <trkpt lat="44.96212" lon="5.46261">
        <ele>1381.5999755859</ele>
        <time>2022-05-26T14:56:27.000Z</time>
      </trkpt>
      <trkpt lat="44.96213" lon="5.4626">
        <ele>1381.5999755859</ele>
        <time>2022-05-26T14:56:29.000Z</time>
      </trkpt>
      <trkpt lat="44.96214" lon="5.46257">
        <ele>1381.4000244141</ele>
        <time>2022-05-26T14:56:31.000Z</time>
      </trkpt>
      <trkpt lat="44.96214" lon="5.46256">
        <ele>1381.1999511719</ele>
        <time>2022-05-26T14:56:33.000Z</time>
      </trkpt>
      <trkpt lat="44.96215" lon="5.46252">
        <ele>1380.8000488281</ele>
        <time>2022-05-26T14:56:37.000Z</time>
      </trkpt>
      <trkpt lat="44.96215" lon="5.46251">
        <ele>1380.8000488281</ele>
        <time>2022-05-26T14:56:38.000Z</time>
      </trkpt>
      <trkpt lat="44.96216" lon="5.46247">
        <ele>1380.1999511719</ele>
        <time>2022-05-26T14:56:41.000Z</time>
      </trkpt>
      <trkpt lat="44.96217" lon="5.46244">
        <ele>1380</ele>
        <time>2022-05-26T14:56:43.000Z</time>
      </trkpt>
      <trkpt lat="44.96217" lon="5.4624">
        <ele>1379.5999755859</ele>
        <time>2022-05-26T14:56:45.000Z</time>
      </trkpt>
      <trkpt lat="44.96218" lon="5.46238">
        <ele>1379.4000244141</ele>
        <time>2022-05-26T14:56:46.000Z</time>
      </trkpt>
      <trkpt lat="44.9622" lon="5.46234">
        <ele>1379</ele>
        <time>2022-05-26T14:56:49.000Z</time>
      </trkpt>
      <trkpt lat="44.9622" lon="5.46232">
        <ele>1378.5999755859</ele>
        <time>2022-05-26T14:56:50.000Z</time>
      </trkpt>
      <trkpt lat="44.96216" lon="5.46221">
        <ele>1376.1999511719</ele>
        <time>2022-05-26T14:56:56.000Z</time>
      </trkpt>
      <trkpt lat="44.96215" lon="5.46219">
        <ele>1375.8000488281</ele>
        <time>2022-05-26T14:56:57.000Z</time>
      </trkpt>
      <trkpt lat="44.96211" lon="5.46209">
        <ele>1373.4000244141</ele>
        <time>2022-05-26T14:57:05.000Z</time>
      </trkpt>
      <trkpt lat="44.96211" lon="5.46208">
        <ele>1373.1999511719</ele>
        <time>2022-05-26T14:57:06.000Z</time>
      </trkpt>
      <trkpt lat="44.96211" lon="5.46205">
        <ele>1372.5999755859</ele>
        <time>2022-05-26T14:57:08.000Z</time>
      </trkpt>
      <trkpt lat="44.96211" lon="5.46204">
        <ele>1372.4000244141</ele>
        <time>2022-05-26T14:57:09.000Z</time>
      </trkpt>
      <trkpt lat="44.96212" lon="5.46202">
        <ele>1372.1999511719</ele>
        <time>2022-05-26T14:57:10.000Z</time>
      </trkpt>
      <trkpt lat="44.96213" lon="5.46199">
        <ele>1371.8000488281</ele>
        <time>2022-05-26T14:57:12.000Z</time>
      </trkpt>
      <trkpt lat="44.96216" lon="5.46191">
        <ele>1370.8000488281</ele>
        <time>2022-05-26T14:57:19.000Z</time>
      </trkpt>
      <trkpt lat="44.96217" lon="5.46189">
        <ele>1370.8000488281</ele>
        <time>2022-05-26T14:57:22.000Z</time>
      </trkpt>
      <trkpt lat="44.96219" lon="5.46187">
        <ele>1370.8000488281</ele>
        <time>2022-05-26T14:57:27.000Z</time>
      </trkpt>
      <trkpt lat="44.96221" lon="5.46185">
        <ele>1370.8000488281</ele>
        <time>2022-05-26T14:57:31.000Z</time>
      </trkpt>
      <trkpt lat="44.96221" lon="5.46184">
        <ele>1370.5999755859</ele>
        <time>2022-05-26T14:57:33.000Z</time>
      </trkpt>
      <trkpt lat="44.96221" lon="5.46183">
        <ele>1370.5999755859</ele>
        <time>2022-05-26T14:57:34.000Z</time>
      </trkpt>
      <trkpt lat="44.96222" lon="5.46183">
        <ele>1370.5999755859</ele>
        <time>2022-05-26T14:57:35.000Z</time>
      </trkpt>
      <trkpt lat="44.96225" lon="5.46182">
        <ele>1370.8000488281</ele>
        <time>2022-05-26T14:57:37.000Z</time>
      </trkpt>
      <trkpt lat="44.96228" lon="5.4618">
        <ele>1371</ele>
        <time>2022-05-26T14:57:40.000Z</time>
      </trkpt>
      <trkpt lat="44.96235" lon="5.46174">
        <ele>1371.1999511719</ele>
        <time>2022-05-26T14:57:50.000Z</time>
      </trkpt>
      <trkpt lat="44.96243" lon="5.46168">
        <ele>1370.1999511719</ele>
        <time>2022-05-26T14:57:58.000Z</time>
      </trkpt>
      <trkpt lat="44.96261" lon="5.4616">
        <ele>1369.1999511719</ele>
        <time>2022-05-26T14:58:14.000Z</time>
      </trkpt>
      <trkpt lat="44.96277" lon="5.46146">
        <ele>1365.4000244141</ele>
        <time>2022-05-26T14:58:33.000Z</time>
      </trkpt>
      <trkpt lat="44.96293" lon="5.46133">
        <ele>1360.4000244141</ele>
        <time>2022-05-26T14:58:49.000Z</time>
      </trkpt>
      <trkpt lat="44.96299" lon="5.46135">
        <ele>1359.5999755859</ele>
        <time>2022-05-26T14:58:55.000Z</time>
      </trkpt>
      <trkpt lat="44.96307" lon="5.46133">
        <ele>1357.1999511719</ele>
        <time>2022-05-26T14:59:03.000Z</time>
      </trkpt>
      <trkpt lat="44.96326" lon="5.46131">
        <ele>1352.8000488281</ele>
        <time>2022-05-26T14:59:22.000Z</time>
      </trkpt>
      <trkpt lat="44.96344" lon="5.46127">
        <ele>1348.8000488281</ele>
        <time>2022-05-26T14:59:40.000Z</time>
      </trkpt>
      <trkpt lat="44.96356" lon="5.46124">
        <ele>1346.5999755859</ele>
        <time>2022-05-26T14:59:52.000Z</time>
      </trkpt>
      <trkpt lat="44.9636" lon="5.46122">
        <ele>1345.8000488281</ele>
        <time>2022-05-26T14:59:55.000Z</time>
      </trkpt>
      <trkpt lat="44.96361" lon="5.46121">
        <ele>1345.5999755859</ele>
        <time>2022-05-26T14:59:56.000Z</time>
      </trkpt>
      <trkpt lat="44.96366" lon="5.4612">
        <ele>1345.1999511719</ele>
        <time>2022-05-26T15:00:03.000Z</time>
      </trkpt>
      <trkpt lat="44.96369" lon="5.4612">
        <ele>1345</ele>
        <time>2022-05-26T15:00:06.000Z</time>
      </trkpt>
      <trkpt lat="44.96371" lon="5.4612">
        <ele>1345</ele>
        <time>2022-05-26T15:00:08.000Z</time>
      </trkpt>
      <trkpt lat="44.96371" lon="5.4612">
        <ele>1345</ele>
        <time>2022-05-26T15:00:09.000Z</time>
      </trkpt>
      <trkpt lat="44.96372" lon="5.4612">
        <ele>1345</ele>
        <time>2022-05-26T15:00:10.000Z</time>
      </trkpt>
      <trkpt lat="44.96379" lon="5.4612">
        <ele>1344.1999511719</ele>
        <time>2022-05-26T15:00:15.000Z</time>
      </trkpt>
      <trkpt lat="44.96383" lon="5.46121">
        <ele>1344</ele>
        <time>2022-05-26T15:00:18.000Z</time>
      </trkpt>
      <trkpt lat="44.96385" lon="5.46122">
        <ele>1343.8000488281</ele>
        <time>2022-05-26T15:00:20.000Z</time>
      </trkpt>
      <trkpt lat="44.96388" lon="5.46124">
        <ele>1344</ele>
        <time>2022-05-26T15:00:23.000Z</time>
      </trkpt>
      <trkpt lat="44.96395" lon="5.46125">
        <ele>1343.1999511719</ele>
        <time>2022-05-26T15:00:29.000Z</time>
      </trkpt>
      <trkpt lat="44.96396" lon="5.46126">
        <ele>1343</ele>
        <time>2022-05-26T15:00:31.000Z</time>
      </trkpt>
      <trkpt lat="44.96397" lon="5.46126">
        <ele>1343.1999511719</ele>
        <time>2022-05-26T15:00:32.000Z</time>
      </trkpt>
      <trkpt lat="44.96398" lon="5.46128">
        <ele>1343.4000244141</ele>
        <time>2022-05-26T15:00:36.000Z</time>
      </trkpt>
      <trkpt lat="44.964" lon="5.46129">
        <ele>1343.4000244141</ele>
        <time>2022-05-26T15:00:39.000Z</time>
      </trkpt>
      <trkpt lat="44.96401" lon="5.46129">
        <ele>1343.1999511719</ele>
        <time>2022-05-26T15:00:41.000Z</time>
      </trkpt>
      <trkpt lat="44.96403" lon="5.46128">
        <ele>1342.8000488281</ele>
        <time>2022-05-26T15:00:46.000Z</time>
      </trkpt>
      <trkpt lat="44.96403" lon="5.46129">
        <ele>1343</ele>
        <time>2022-05-26T15:00:48.000Z</time>
      </trkpt>
      <trkpt lat="44.96404" lon="5.46127">
        <ele>1342.4000244141</ele>
        <time>2022-05-26T15:00:53.000Z</time>
      </trkpt>
      <trkpt lat="44.96414" lon="5.46119">
        <ele>1338.5999755859</ele>
        <time>2022-05-26T15:01:14.000Z</time>
      </trkpt>
      <trkpt lat="44.96416" lon="5.46117">
        <ele>1338</ele>
        <time>2022-05-26T15:01:17.000Z</time>
      </trkpt>
      <trkpt lat="44.96418" lon="5.46117">
        <ele>1337.5999755859</ele>
        <time>2022-05-26T15:01:22.000Z</time>
      </trkpt>
      <trkpt lat="44.9642" lon="5.46116">
        <ele>1337.4000244141</ele>
        <time>2022-05-26T15:01:25.000Z</time>
      </trkpt>
      <trkpt lat="44.96428" lon="5.4611">
        <ele>1335.1999511719</ele>
        <time>2022-05-26T15:01:34.000Z</time>
      </trkpt>
      <trkpt lat="44.96428" lon="5.46109">
        <ele>1334.8000488281</ele>
        <time>2022-05-26T15:01:35.000Z</time>
      </trkpt>
      <trkpt lat="44.9643" lon="5.46108">
        <ele>1334.5999755859</ele>
        <time>2022-05-26T15:01:37.000Z</time>
      </trkpt>
      <trkpt lat="44.96431" lon="5.46108">
        <ele>1334.5999755859</ele>
        <time>2022-05-26T15:01:39.000Z</time>
      </trkpt>
      <trkpt lat="44.96433" lon="5.46108">
        <ele>1334.4000244141</ele>
        <time>2022-05-26T15:01:43.000Z</time>
      </trkpt>
      <trkpt lat="44.96442" lon="5.46105">
        <ele>1333.1999511719</ele>
        <time>2022-05-26T15:01:51.000Z</time>
      </trkpt>
      <trkpt lat="44.96444" lon="5.46103">
        <ele>1332.8000488281</ele>
        <time>2022-05-26T15:01:53.000Z</time>
      </trkpt>
      <trkpt lat="44.96459" lon="5.46098">
        <ele>1330.8000488281</ele>
        <time>2022-05-26T15:02:07.000Z</time>
      </trkpt>
      <trkpt lat="44.96461" lon="5.46098">
        <ele>1330.1999511719</ele>
        <time>2022-05-26T15:02:10.000Z</time>
      </trkpt>
      <trkpt lat="44.96462" lon="5.46098">
        <ele>1330</ele>
        <time>2022-05-26T15:02:11.000Z</time>
      </trkpt>
      <trkpt lat="44.96466" lon="5.46097">
        <ele>1329.1999511719</ele>
        <time>2022-05-26T15:02:14.000Z</time>
      </trkpt>
      <trkpt lat="44.96473" lon="5.46094">
        <ele>1327.4000244141</ele>
        <time>2022-05-26T15:02:18.000Z</time>
      </trkpt>
      <trkpt lat="44.96475" lon="5.46094">
        <ele>1327</ele>
        <time>2022-05-26T15:02:19.000Z</time>
      </trkpt>
      <trkpt lat="44.96478" lon="5.46093">
        <ele>1326.4000244141</ele>
        <time>2022-05-26T15:02:22.000Z</time>
      </trkpt>
      <trkpt lat="44.9648" lon="5.46092">
        <ele>1325.8000488281</ele>
        <time>2022-05-26T15:02:24.000Z</time>
      </trkpt>
      <trkpt lat="44.96481" lon="5.46091">
        <ele>1325.5999755859</ele>
        <time>2022-05-26T15:02:25.000Z</time>
      </trkpt>
      <trkpt lat="44.96482" lon="5.46091">
        <ele>1325.4000244141</ele>
        <time>2022-05-26T15:02:26.000Z</time>
      </trkpt>
      <trkpt lat="44.96486" lon="5.46088">
        <ele>1324.1999511719</ele>
        <time>2022-05-26T15:02:30.000Z</time>
      </trkpt>
      <trkpt lat="44.96491" lon="5.46085">
        <ele>1323.1999511719</ele>
        <time>2022-05-26T15:02:36.000Z</time>
      </trkpt>
      <trkpt lat="44.965" lon="5.46081">
        <ele>1321.8000488281</ele>
        <time>2022-05-26T15:02:54.000Z</time>
      </trkpt>
      <trkpt lat="44.96504" lon="5.46079">
        <ele>1321.4000244141</ele>
        <time>2022-05-26T15:02:59.000Z</time>
      </trkpt>
      <trkpt lat="44.96504" lon="5.46079">
        <ele>1321.4000244141</ele>
        <time>2022-05-26T15:03:00.000Z</time>
      </trkpt>
      <trkpt lat="44.96507" lon="5.46077">
        <ele>1321</ele>
        <time>2022-05-26T15:03:02.000Z</time>
      </trkpt>
      <trkpt lat="44.96511" lon="5.46076">
        <ele>1320.8000488281</ele>
        <time>2022-05-26T15:03:05.000Z</time>
      </trkpt>
      <trkpt lat="44.96512" lon="5.46076">
        <ele>1320.5999755859</ele>
        <time>2022-05-26T15:03:06.000Z</time>
      </trkpt>
      <trkpt lat="44.96513" lon="5.46075">
        <ele>1320.5999755859</ele>
        <time>2022-05-26T15:03:07.000Z</time>
      </trkpt>
      <trkpt lat="44.96515" lon="5.46075">
        <ele>1320.4000244141</ele>
        <time>2022-05-26T15:03:08.000Z</time>
      </trkpt>
      <trkpt lat="44.96532" lon="5.46067">
        <ele>1319.5999755859</ele>
        <time>2022-05-26T15:03:20.000Z</time>
      </trkpt>
      <trkpt lat="44.9655" lon="5.46055">
        <ele>1317.8000488281</ele>
        <time>2022-05-26T15:03:35.000Z</time>
      </trkpt>
      <trkpt lat="44.96566" lon="5.46042">
        <ele>1317</ele>
        <time>2022-05-26T15:03:49.000Z</time>
      </trkpt>
      <trkpt lat="44.96582" lon="5.46028">
        <ele>1316.1999511719</ele>
        <time>2022-05-26T15:04:06.000Z</time>
      </trkpt>
      <trkpt lat="44.96592" lon="5.46016">
        <ele>1315.5999755859</ele>
        <time>2022-05-26T15:04:22.000Z</time>
      </trkpt>
      <trkpt lat="44.96593" lon="5.46016">
        <ele>1315.4000244141</ele>
        <time>2022-05-26T15:04:23.000Z</time>
      </trkpt>
      <trkpt lat="44.96595" lon="5.46016">
        <ele>1315.1999511719</ele>
        <time>2022-05-26T15:04:25.000Z</time>
      </trkpt>
      <trkpt lat="44.96594" lon="5.46014">
        <ele>1315.4000244141</ele>
        <time>2022-05-26T15:04:26.000Z</time>
      </trkpt>
      <trkpt lat="44.96594" lon="5.46014">
        <ele>1315.4000244141</ele>
        <time>2022-05-26T15:04:27.000Z</time>
      </trkpt>
      <trkpt lat="44.96594" lon="5.46016">
        <ele>1315.1999511719</ele>
        <time>2022-05-26T15:04:31.000Z</time>
      </trkpt>
      <trkpt lat="44.96594" lon="5.46016">
        <ele>1315.4000244141</ele>
        <time>2022-05-26T15:04:32.000Z</time>
      </trkpt>
      <trkpt lat="44.96593" lon="5.46016">
        <ele>1315.5999755859</ele>
        <time>2022-05-26T15:04:36.000Z</time>
      </trkpt>
      <trkpt lat="44.96593" lon="5.46019">
        <ele>1315.5999755859</ele>
        <time>2022-05-26T15:04:38.000Z</time>
      </trkpt>
      <trkpt lat="44.96593" lon="5.4602">
        <ele>1315.4000244141</ele>
        <time>2022-05-26T15:04:39.000Z</time>
      </trkpt>
      <trkpt lat="44.96593" lon="5.46021">
        <ele>1315.4000244141</ele>
        <time>2022-05-26T15:04:40.000Z</time>
      </trkpt>
      <trkpt lat="44.96593" lon="5.46022">
        <ele>1315.4000244141</ele>
        <time>2022-05-26T15:04:41.000Z</time>
      </trkpt>
      <trkpt lat="44.96593" lon="5.46023">
        <ele>1315.4000244141</ele>
        <time>2022-05-26T15:04:44.000Z</time>
      </trkpt>
      <trkpt lat="44.96593" lon="5.46024">
        <ele>1315.4000244141</ele>
        <time>2022-05-26T15:04:46.000Z</time>
      </trkpt>
      <trkpt lat="44.96593" lon="5.46027">
        <ele>1315.1999511719</ele>
        <time>2022-05-26T15:04:50.000Z</time>
      </trkpt>
      <trkpt lat="44.96602" lon="5.46023">
        <ele>1315.1999511719</ele>
        <time>2022-05-26T15:05:00.000Z</time>
      </trkpt>
      <trkpt lat="44.96604" lon="5.46021">
        <ele>1315.1999511719</ele>
        <time>2022-05-26T15:05:02.000Z</time>
      </trkpt>
      <trkpt lat="44.96613" lon="5.46015">
        <ele>1315.5999755859</ele>
        <time>2022-05-26T15:05:11.000Z</time>
      </trkpt>
      <trkpt lat="44.96622" lon="5.46009">
        <ele>1314.8000488281</ele>
        <time>2022-05-26T15:05:20.000Z</time>
      </trkpt>
      <trkpt lat="44.96628" lon="5.46006">
        <ele>1314.5999755859</ele>
        <time>2022-05-26T15:05:32.000Z</time>
      </trkpt>
      <trkpt lat="44.96633" lon="5.46003">
        <ele>1314.4000244141</ele>
        <time>2022-05-26T15:05:36.000Z</time>
      </trkpt>
      <trkpt lat="44.96639" lon="5.45997">
        <ele>1314</ele>
        <time>2022-05-26T15:05:44.000Z</time>
      </trkpt>
      <trkpt lat="44.96644" lon="5.45992">
        <ele>1313.8000488281</ele>
        <time>2022-05-26T15:05:51.000Z</time>
      </trkpt>
      <trkpt lat="44.96661" lon="5.45982">
        <ele>1310.1999511719</ele>
        <time>2022-05-26T15:06:02.000Z</time>
      </trkpt>
      <trkpt lat="44.96678" lon="5.45972">
        <ele>1305.4000244141</ele>
        <time>2022-05-26T15:06:13.000Z</time>
      </trkpt>
      <trkpt lat="44.96679" lon="5.45971">
        <ele>1305.1999511719</ele>
        <time>2022-05-26T15:06:16.000Z</time>
      </trkpt>
      <trkpt lat="44.9668" lon="5.4597">
        <ele>1305</ele>
        <time>2022-05-26T15:06:20.000Z</time>
      </trkpt>
      <trkpt lat="44.96682" lon="5.45967">
        <ele>1303.8000488281</ele>
        <time>2022-05-26T15:06:25.000Z</time>
      </trkpt>
      <trkpt lat="44.96683" lon="5.45966">
        <ele>1303.4000244141</ele>
        <time>2022-05-26T15:06:27.000Z</time>
      </trkpt>
      <trkpt lat="44.96683" lon="5.45966">
        <ele>1303.4000244141</ele>
        <time>2022-05-26T15:06:29.000Z</time>
      </trkpt>
      <trkpt lat="44.96683" lon="5.45966">
        <ele>1303.4000244141</ele>
        <time>2022-05-26T15:06:31.000Z</time>
      </trkpt>
      <trkpt lat="44.96683" lon="5.45965">
        <ele>1303.1999511719</ele>
        <time>2022-05-26T15:06:32.000Z</time>
      </trkpt>
      <trkpt lat="44.96684" lon="5.45964">
        <ele>1303</ele>
        <time>2022-05-26T15:06:33.000Z</time>
      </trkpt>
      <trkpt lat="44.96684" lon="5.45963">
        <ele>1302.8000488281</ele>
        <time>2022-05-26T15:06:34.000Z</time>
      </trkpt>
      <trkpt lat="44.96683" lon="5.45961">
        <ele>1302.5999755859</ele>
        <time>2022-05-26T15:06:35.000Z</time>
      </trkpt>
      <trkpt lat="44.96686" lon="5.45958">
        <ele>1301.5999755859</ele>
        <time>2022-05-26T15:06:39.000Z</time>
      </trkpt>
      <trkpt lat="44.967" lon="5.45956">
        <ele>1297.5999755859</ele>
        <time>2022-05-26T15:06:52.000Z</time>
      </trkpt>
      <trkpt lat="44.967" lon="5.45956">
        <ele>1297.1999511719</ele>
        <time>2022-05-26T15:06:53.000Z</time>
      </trkpt>
      <trkpt lat="44.96704" lon="5.45956">
        <ele>1296.1999511719</ele>
        <time>2022-05-26T15:06:56.000Z</time>
      </trkpt>
      <trkpt lat="44.96719" lon="5.45954">
        <ele>1294.1999511719</ele>
        <time>2022-05-26T15:07:07.000Z</time>
      </trkpt>
      <trkpt lat="44.96729" lon="5.45953">
        <ele>1293.5999755859</ele>
        <time>2022-05-26T15:07:16.000Z</time>
      </trkpt>
      <trkpt lat="44.96733" lon="5.45953">
        <ele>1293.4000244141</ele>
        <time>2022-05-26T15:07:21.000Z</time>
      </trkpt>
      <trkpt lat="44.96737" lon="5.45953">
        <ele>1293.1999511719</ele>
        <time>2022-05-26T15:07:24.000Z</time>
      </trkpt>
      <trkpt lat="44.9674" lon="5.45951">
        <ele>1293</ele>
        <time>2022-05-26T15:07:27.000Z</time>
      </trkpt>
      <trkpt lat="44.96744" lon="5.4595">
        <ele>1292.8000488281</ele>
        <time>2022-05-26T15:07:36.000Z</time>
      </trkpt>
      <trkpt lat="44.9675" lon="5.45954">
        <ele>1293</ele>
        <time>2022-05-26T15:07:41.000Z</time>
      </trkpt>
      <trkpt lat="44.96765" lon="5.45962">
        <ele>1293.8000488281</ele>
        <time>2022-05-26T15:07:50.000Z</time>
      </trkpt>
      <trkpt lat="44.96783" lon="5.45967">
        <ele>1295.1999511719</ele>
        <time>2022-05-26T15:08:01.000Z</time>
      </trkpt>
      <trkpt lat="44.96784" lon="5.45968">
        <ele>1295.1999511719</ele>
        <time>2022-05-26T15:08:03.000Z</time>
      </trkpt>
      <trkpt lat="44.96785" lon="5.45967">
        <ele>1295.1999511719</ele>
        <time>2022-05-26T15:08:05.000Z</time>
      </trkpt>
      <trkpt lat="44.9679" lon="5.45967">
        <ele>1295.5999755859</ele>
        <time>2022-05-26T15:08:12.000Z</time>
      </trkpt>
      <trkpt lat="44.96792" lon="5.45963">
        <ele>1295.4000244141</ele>
        <time>2022-05-26T15:08:18.000Z</time>
      </trkpt>
      <trkpt lat="44.96796" lon="5.45963">
        <ele>1295.4000244141</ele>
        <time>2022-05-26T15:08:24.000Z</time>
      </trkpt>
      <trkpt lat="44.96798" lon="5.45963">
        <ele>1295.4000244141</ele>
        <time>2022-05-26T15:08:27.000Z</time>
      </trkpt>
      <trkpt lat="44.96801" lon="5.45961">
        <ele>1295.1999511719</ele>
        <time>2022-05-26T15:08:30.000Z</time>
      </trkpt>
      <trkpt lat="44.96804" lon="5.45961">
        <ele>1295.1999511719</ele>
        <time>2022-05-26T15:08:33.000Z</time>
      </trkpt>
      <trkpt lat="44.96817" lon="5.45955">
        <ele>1295.8000488281</ele>
        <time>2022-05-26T15:08:44.000Z</time>
      </trkpt>
      <trkpt lat="44.9682" lon="5.45956">
        <ele>1296.1999511719</ele>
        <time>2022-05-26T15:08:46.000Z</time>
      </trkpt>
      <trkpt lat="44.96822" lon="5.45957">
        <ele>1296.4000244141</ele>
        <time>2022-05-26T15:08:47.000Z</time>
      </trkpt>
      <trkpt lat="44.96825" lon="5.45958">
        <ele>1296.8000488281</ele>
        <time>2022-05-26T15:08:49.000Z</time>
      </trkpt>
      <trkpt lat="44.96826" lon="5.45959">
        <ele>1296.8000488281</ele>
        <time>2022-05-26T15:08:50.000Z</time>
      </trkpt>
      <trkpt lat="44.96837" lon="5.45962">
        <ele>1298</ele>
        <time>2022-05-26T15:08:56.000Z</time>
      </trkpt>
      <trkpt lat="44.96842" lon="5.45965">
        <ele>1298.5999755859</ele>
        <time>2022-05-26T15:09:01.000Z</time>
      </trkpt>
      <trkpt lat="44.96847" lon="5.45966">
        <ele>1299.1999511719</ele>
        <time>2022-05-26T15:09:04.000Z</time>
      </trkpt>
      <trkpt lat="44.9685" lon="5.45967">
        <ele>1299.8000488281</ele>
        <time>2022-05-26T15:09:07.000Z</time>
      </trkpt>
      <trkpt lat="44.96858" lon="5.45968">
        <ele>1301.1999511719</ele>
        <time>2022-05-26T15:09:15.000Z</time>
      </trkpt>
      <trkpt lat="44.96863" lon="5.45968">
        <ele>1302.1999511719</ele>
        <time>2022-05-26T15:09:22.000Z</time>
      </trkpt>
      <trkpt lat="44.96864" lon="5.45968">
        <ele>1302.1999511719</ele>
        <time>2022-05-26T15:09:23.000Z</time>
      </trkpt>
      <trkpt lat="44.96864" lon="5.45968">
        <ele>1302.1999511719</ele>
        <time>2022-05-26T15:09:25.000Z</time>
      </trkpt>
      <trkpt lat="44.96865" lon="5.45969">
        <ele>1302.4000244141</ele>
        <time>2022-05-26T15:09:26.000Z</time>
      </trkpt>
      <trkpt lat="44.96867" lon="5.45969">
        <ele>1302.8000488281</ele>
        <time>2022-05-26T15:09:29.000Z</time>
      </trkpt>
      <trkpt lat="44.96868" lon="5.45968">
        <ele>1303</ele>
        <time>2022-05-26T15:09:31.000Z</time>
      </trkpt>
      <trkpt lat="44.9687" lon="5.45966">
        <ele>1303.5999755859</ele>
        <time>2022-05-26T15:09:35.000Z</time>
      </trkpt>
      <trkpt lat="44.96871" lon="5.45965">
        <ele>1303.8000488281</ele>
        <time>2022-05-26T15:09:36.000Z</time>
      </trkpt>
      <trkpt lat="44.96873" lon="5.45965">
        <ele>1304.1999511719</ele>
        <time>2022-05-26T15:09:38.000Z</time>
      </trkpt>
      <trkpt lat="44.96873" lon="5.45964">
        <ele>1304.4000244141</ele>
        <time>2022-05-26T15:09:39.000Z</time>
      </trkpt>
      <trkpt lat="44.96874" lon="5.45964">
        <ele>1304.5999755859</ele>
        <time>2022-05-26T15:09:40.000Z</time>
      </trkpt>
      <trkpt lat="44.96877" lon="5.45963">
        <ele>1305.1999511719</ele>
        <time>2022-05-26T15:09:43.000Z</time>
      </trkpt>
      <trkpt lat="44.96878" lon="5.45962">
        <ele>1305.4000244141</ele>
        <time>2022-05-26T15:09:44.000Z</time>
      </trkpt>
      <trkpt lat="44.96879" lon="5.45961">
        <ele>1305.5999755859</ele>
        <time>2022-05-26T15:09:46.000Z</time>
      </trkpt>
      <trkpt lat="44.9688" lon="5.4596">
        <ele>1305.8000488281</ele>
        <time>2022-05-26T15:09:49.000Z</time>
      </trkpt>
      <trkpt lat="44.9688" lon="5.4596">
        <ele>1306</ele>
        <time>2022-05-26T15:09:50.000Z</time>
      </trkpt>
      <trkpt lat="44.96884" lon="5.45967">
        <ele>1306.1999511719</ele>
        <time>2022-05-26T15:09:55.000Z</time>
      </trkpt>
      <trkpt lat="44.96884" lon="5.45967">
        <ele>1306</ele>
        <time>2022-05-26T15:09:56.000Z</time>
      </trkpt>
      <trkpt lat="44.96882" lon="5.45968">
        <ele>1305.5999755859</ele>
        <time>2022-05-26T15:10:00.000Z</time>
      </trkpt>
      <trkpt lat="44.96885" lon="5.45968">
        <ele>1306.1999511719</ele>
        <time>2022-05-26T15:10:03.000Z</time>
      </trkpt>
      <trkpt lat="44.96887" lon="5.45969">
        <ele>1306.5999755859</ele>
        <time>2022-05-26T15:10:04.000Z</time>
      </trkpt>
      <trkpt lat="44.96888" lon="5.45969">
        <ele>1306.5999755859</ele>
        <time>2022-05-26T15:10:05.000Z</time>
      </trkpt>
      <trkpt lat="44.9689" lon="5.4597">
        <ele>1307</ele>
        <time>2022-05-26T15:10:09.000Z</time>
      </trkpt>
      <trkpt lat="44.96891" lon="5.45969">
        <ele>1307.1999511719</ele>
        <time>2022-05-26T15:10:11.000Z</time>
      </trkpt>
      <trkpt lat="44.96891" lon="5.45967">
        <ele>1307.4000244141</ele>
        <time>2022-05-26T15:10:13.000Z</time>
      </trkpt>
      <trkpt lat="44.96892" lon="5.45963">
        <ele>1307.8000488281</ele>
        <time>2022-05-26T15:10:22.000Z</time>
      </trkpt>
      <trkpt lat="44.96893" lon="5.45962">
        <ele>1308</ele>
        <time>2022-05-26T15:10:24.000Z</time>
      </trkpt>
      <trkpt lat="44.96891" lon="5.45958">
        <ele>1308</ele>
        <time>2022-05-26T15:10:30.000Z</time>
      </trkpt>
      <trkpt lat="44.96891" lon="5.45958">
        <ele>1308</ele>
        <time>2022-05-26T15:10:34.000Z</time>
      </trkpt>
      <trkpt lat="44.96893" lon="5.45963">
        <ele>1307.8000488281</ele>
        <time>2022-05-26T15:10:36.000Z</time>
      </trkpt>
      <trkpt lat="44.96899" lon="5.45972">
        <ele>1308.5999755859</ele>
        <time>2022-05-26T15:10:46.000Z</time>
      </trkpt>
      <trkpt lat="44.96905" lon="5.45981">
        <ele>1310</ele>
        <time>2022-05-26T15:10:53.000Z</time>
      </trkpt>
      <trkpt lat="44.96902" lon="5.45977">
        <ele>1309.1999511719</ele>
        <time>2022-05-26T15:10:56.000Z</time>
      </trkpt>
      <trkpt lat="44.96902" lon="5.45969">
        <ele>1309.1999511719</ele>
        <time>2022-05-26T15:10:59.000Z</time>
      </trkpt>
      <trkpt lat="44.96898" lon="5.45969">
        <ele>1308.4000244141</ele>
        <time>2022-05-26T15:11:04.000Z</time>
      </trkpt>
      <trkpt lat="44.96898" lon="5.45969">
        <ele>1308.4000244141</ele>
        <time>2022-05-26T15:11:06.000Z</time>
      </trkpt>
      <trkpt lat="44.96899" lon="5.45968">
        <ele>1308.8000488281</ele>
        <time>2022-05-26T15:11:10.000Z</time>
      </trkpt>
      <trkpt lat="44.96899" lon="5.45967">
        <ele>1309</ele>
        <time>2022-05-26T15:11:14.000Z</time>
      </trkpt>
      <trkpt lat="44.96899" lon="5.45963">
        <ele>1309.1999511719</ele>
        <time>2022-05-26T15:11:18.000Z</time>
      </trkpt>
      <trkpt lat="44.96898" lon="5.45961">
        <ele>1309.1999511719</ele>
        <time>2022-05-26T15:11:23.000Z</time>
      </trkpt>
      <trkpt lat="44.96898" lon="5.45962">
        <ele>1309</ele>
        <time>2022-05-26T15:11:24.000Z</time>
      </trkpt>
      <trkpt lat="44.96888" lon="5.45957">
        <ele>1307.5999755859</ele>
        <time>2022-05-26T15:12:26.000Z</time>
      </trkpt>
      <trkpt lat="44.9689" lon="5.45959">
        <ele>1307.8000488281</ele>
        <time>2022-05-26T15:12:30.000Z</time>
      </trkpt>
      <trkpt lat="44.96887" lon="5.45974">
        <ele>1306.4000244141</ele>
        <time>2022-05-26T15:12:33.000Z</time>
      </trkpt>
      <trkpt lat="44.96887" lon="5.45976">
        <ele>1306.5999755859</ele>
        <time>2022-05-26T15:12:35.000Z</time>
      </trkpt>
      <trkpt lat="44.96887" lon="5.45976">
        <ele>1306.4000244141</ele>
        <time>2022-05-26T15:12:37.000Z</time>
      </trkpt>
      <trkpt lat="44.96814" lon="5.45978">
        <ele>1296.4000244141</ele>
        <time>2022-05-27T05:29:31.000Z</time>
      </trkpt>
      <trkpt lat="44.96814" lon="5.45974">
        <ele>1296.1999511719</ele>
        <time>2022-05-27T05:29:32.000Z</time>
      </trkpt>
      <trkpt lat="44.96815" lon="5.45967">
        <ele>1295.8000488281</ele>
        <time>2022-05-27T05:29:41.000Z</time>
      </trkpt>
      <trkpt lat="44.96811" lon="5.45971">
        <ele>1296</ele>
        <time>2022-05-27T05:29:50.000Z</time>
      </trkpt>
      <trkpt lat="44.96792" lon="5.45997">
        <ele>1299.5999755859</ele>
        <time>2022-05-27T05:30:52.000Z</time>
      </trkpt>
      <trkpt lat="44.96793" lon="5.45998">
        <ele>1299.8000488281</ele>
        <time>2022-05-27T05:31:01.000Z</time>
      </trkpt>
      <trkpt lat="44.96787" lon="5.45999">
        <ele>1300.5999755859</ele>
        <time>2022-05-27T05:31:10.000Z</time>
      </trkpt>
      <trkpt lat="44.96778" lon="5.46">
        <ele>1301.5999755859</ele>
        <time>2022-05-27T05:31:17.000Z</time>
      </trkpt>
      <trkpt lat="44.96776" lon="5.45999">
        <ele>1301.8000488281</ele>
        <time>2022-05-27T05:31:18.000Z</time>
      </trkpt>
      <trkpt lat="44.96764" lon="5.45996">
        <ele>1302</ele>
        <time>2022-05-27T05:31:27.000Z</time>
      </trkpt>
      <trkpt lat="44.96758" lon="5.45994">
        <ele>1301.8000488281</ele>
        <time>2022-05-27T05:31:30.000Z</time>
      </trkpt>
      <trkpt lat="44.96756" lon="5.45994">
        <ele>1301.8000488281</ele>
        <time>2022-05-27T05:31:34.000Z</time>
      </trkpt>
      <trkpt lat="44.96756" lon="5.45995">
        <ele>1302.1999511719</ele>
        <time>2022-05-27T05:31:35.000Z</time>
      </trkpt>
      <trkpt lat="44.96756" lon="5.45997">
        <ele>1302.4000244141</ele>
        <time>2022-05-27T05:31:36.000Z</time>
      </trkpt>
      <trkpt lat="44.96751" lon="5.45991">
        <ele>1301</ele>
        <time>2022-05-27T05:31:47.000Z</time>
      </trkpt>
      <trkpt lat="44.96748" lon="5.45997">
        <ele>1302.4000244141</ele>
        <time>2022-05-27T05:31:59.000Z</time>
      </trkpt>
      <trkpt lat="44.96725" lon="5.45999">
        <ele>1304</ele>
        <time>2022-05-27T05:32:13.000Z</time>
      </trkpt>
      <trkpt lat="44.96711" lon="5.45999">
        <ele>1305.5999755859</ele>
        <time>2022-05-27T05:32:25.000Z</time>
      </trkpt>
      <trkpt lat="44.96708" lon="5.45998">
        <ele>1305.8000488281</ele>
        <time>2022-05-27T05:32:29.000Z</time>
      </trkpt>
      <trkpt lat="44.96704" lon="5.46">
        <ele>1306.8000488281</ele>
        <time>2022-05-27T05:32:33.000Z</time>
      </trkpt>
      <trkpt lat="44.96703" lon="5.46001">
        <ele>1307</ele>
        <time>2022-05-27T05:32:34.000Z</time>
      </trkpt>
      <trkpt lat="44.96703" lon="5.46001">
        <ele>1307.1999511719</ele>
        <time>2022-05-27T05:32:35.000Z</time>
      </trkpt>
      <trkpt lat="44.96703" lon="5.46001">
        <ele>1307.1999511719</ele>
        <time>2022-05-27T05:32:36.000Z</time>
      </trkpt>
      <trkpt lat="44.96702" lon="5.46002">
        <ele>1307.4000244141</ele>
        <time>2022-05-27T05:32:38.000Z</time>
      </trkpt>
      <trkpt lat="44.96703" lon="5.46005">
        <ele>1308.1999511719</ele>
        <time>2022-05-27T05:32:45.000Z</time>
      </trkpt>
      <trkpt lat="44.96701" lon="5.46011">
        <ele>1310</ele>
        <time>2022-05-27T05:32:55.000Z</time>
      </trkpt>
      <trkpt lat="44.96702" lon="5.46015">
        <ele>1311</ele>
        <time>2022-05-27T05:32:59.000Z</time>
      </trkpt>
      <trkpt lat="44.96702" lon="5.46017">
        <ele>1311.1999511719</ele>
        <time>2022-05-27T05:33:00.000Z</time>
      </trkpt>
      <trkpt lat="44.96701" lon="5.46017">
        <ele>1311.5999755859</ele>
        <time>2022-05-27T05:33:01.000Z</time>
      </trkpt>
      <trkpt lat="44.96701" lon="5.4602">
        <ele>1312.1999511719</ele>
        <time>2022-05-27T05:33:03.000Z</time>
      </trkpt>
      <trkpt lat="44.96703" lon="5.46029">
        <ele>1313.8000488281</ele>
        <time>2022-05-27T05:33:09.000Z</time>
      </trkpt>
      <trkpt lat="44.967" lon="5.46036">
        <ele>1315.1999511719</ele>
        <time>2022-05-27T05:33:20.000Z</time>
      </trkpt>
      <trkpt lat="44.96696" lon="5.46037">
        <ele>1315.8000488281</ele>
        <time>2022-05-27T05:33:24.000Z</time>
      </trkpt>
      <trkpt lat="44.96693" lon="5.46044">
        <ele>1317</ele>
        <time>2022-05-27T05:33:29.000Z</time>
      </trkpt>
      <trkpt lat="44.96691" lon="5.46048">
        <ele>1317.8000488281</ele>
        <time>2022-05-27T05:33:35.000Z</time>
      </trkpt>
      <trkpt lat="44.96675" lon="5.46048">
        <ele>1318.4000244141</ele>
        <time>2022-05-27T05:33:40.000Z</time>
      </trkpt>
      <trkpt lat="44.96648" lon="5.46048">
        <ele>1318.4000244141</ele>
        <time>2022-05-27T05:33:46.000Z</time>
      </trkpt>
      <trkpt lat="44.96631" lon="5.4605">
        <ele>1318.5999755859</ele>
        <time>2022-05-27T05:33:55.000Z</time>
      </trkpt>
      <trkpt lat="44.96627" lon="5.46051">
        <ele>1318.5999755859</ele>
        <time>2022-05-27T05:34:02.000Z</time>
      </trkpt>
      <trkpt lat="44.96625" lon="5.46055">
        <ele>1319</ele>
        <time>2022-05-27T05:34:08.000Z</time>
      </trkpt>
      <trkpt lat="44.96618" lon="5.4605">
        <ele>1318.1999511719</ele>
        <time>2022-05-27T05:34:13.000Z</time>
      </trkpt>
      <trkpt lat="44.96615" lon="5.46049">
        <ele>1318</ele>
        <time>2022-05-27T05:34:16.000Z</time>
      </trkpt>
      <trkpt lat="44.96607" lon="5.46049">
        <ele>1317.8000488281</ele>
        <time>2022-05-27T05:34:21.000Z</time>
      </trkpt>
      <trkpt lat="44.966" lon="5.4605">
        <ele>1317.5999755859</ele>
        <time>2022-05-27T05:34:29.000Z</time>
      </trkpt>
      <trkpt lat="44.96581" lon="5.46049">
        <ele>1317.4000244141</ele>
        <time>2022-05-27T05:35:03.000Z</time>
      </trkpt>
      <trkpt lat="44.96571" lon="5.46048">
        <ele>1317</ele>
        <time>2022-05-27T05:35:12.000Z</time>
      </trkpt>
      <trkpt lat="44.96548" lon="5.46045">
        <ele>1317.4000244141</ele>
        <time>2022-05-27T05:35:29.000Z</time>
      </trkpt>
      <trkpt lat="44.96545" lon="5.4604">
        <ele>1317.4000244141</ele>
        <time>2022-05-27T05:35:36.000Z</time>
      </trkpt>
      <trkpt lat="44.96531" lon="5.46046">
        <ele>1318</ele>
        <time>2022-05-27T05:35:52.000Z</time>
      </trkpt>
      <trkpt lat="44.96516" lon="5.46052">
        <ele>1318.8000488281</ele>
        <time>2022-05-27T05:36:06.000Z</time>
      </trkpt>
      <trkpt lat="44.96478" lon="5.46061">
        <ele>1322</ele>
        <time>2022-05-27T05:36:34.000Z</time>
      </trkpt>
      <trkpt lat="44.96459" lon="5.46068">
        <ele>1324.5999755859</ele>
        <time>2022-05-27T05:36:57.000Z</time>
      </trkpt>
      <trkpt lat="44.96453" lon="5.46069">
        <ele>1325.5999755859</ele>
        <time>2022-05-27T05:37:02.000Z</time>
      </trkpt>
      <trkpt lat="44.96464" lon="5.4607">
        <ele>1324.1999511719</ele>
        <time>2022-05-27T05:37:15.000Z</time>
      </trkpt>
      <trkpt lat="44.96462" lon="5.46069">
        <ele>1324.4000244141</ele>
        <time>2022-05-27T05:37:19.000Z</time>
      </trkpt>
      <trkpt lat="44.96416" lon="5.46073">
        <ele>1328.1999511719</ele>
        <time>2022-05-27T05:37:50.000Z</time>
      </trkpt>
      <trkpt lat="44.96413" lon="5.46075">
        <ele>1328.8000488281</ele>
        <time>2022-05-27T05:37:54.000Z</time>
      </trkpt>
      <trkpt lat="44.96402" lon="5.4608">
        <ele>1330.5999755859</ele>
        <time>2022-05-27T05:38:05.000Z</time>
      </trkpt>
      <trkpt lat="44.96364" lon="5.46095">
        <ele>1338</ele>
        <time>2022-05-27T05:38:46.000Z</time>
      </trkpt>
      <trkpt lat="44.96348" lon="5.46068">
        <ele>1333</ele>
        <time>2022-05-27T05:39:16.000Z</time>
      </trkpt>
      <trkpt lat="44.96307" lon="5.46063">
        <ele>1341.1999511719</ele>
        <time>2022-05-27T05:39:51.000Z</time>
      </trkpt>
      <trkpt lat="44.963" lon="5.46066">
        <ele>1343.5999755859</ele>
        <time>2022-05-27T05:40:00.000Z</time>
      </trkpt>
      <trkpt lat="44.96299" lon="5.46067">
        <ele>1344</ele>
        <time>2022-05-27T05:40:01.000Z</time>
      </trkpt>
      <trkpt lat="44.9628" lon="5.46072">
        <ele>1350.1999511719</ele>
        <time>2022-05-27T05:40:25.000Z</time>
      </trkpt>
      <trkpt lat="44.96266" lon="5.46082">
        <ele>1354.4000244141</ele>
        <time>2022-05-27T05:40:47.000Z</time>
      </trkpt>
      <trkpt lat="44.96249" lon="5.46099">
        <ele>1358.8000488281</ele>
        <time>2022-05-27T05:41:10.000Z</time>
      </trkpt>
      <trkpt lat="44.96248" lon="5.461">
        <ele>1359</ele>
        <time>2022-05-27T05:41:14.000Z</time>
      </trkpt>
      <trkpt lat="44.96248" lon="5.461">
        <ele>1359.1999511719</ele>
        <time>2022-05-27T05:41:16.000Z</time>
      </trkpt>
      <trkpt lat="44.96244" lon="5.46103">
        <ele>1360</ele>
        <time>2022-05-27T05:41:20.000Z</time>
      </trkpt>
      <trkpt lat="44.96243" lon="5.46104">
        <ele>1360.1999511719</ele>
        <time>2022-05-27T05:41:21.000Z</time>
      </trkpt>
      <trkpt lat="44.96241" lon="5.46104">
        <ele>1360.4000244141</ele>
        <time>2022-05-27T05:41:22.000Z</time>
      </trkpt>
      <trkpt lat="44.9622" lon="5.46121">
        <ele>1364</ele>
        <time>2022-05-27T05:41:45.000Z</time>
      </trkpt>
      <trkpt lat="44.96216" lon="5.46133">
        <ele>1364.5999755859</ele>
        <time>2022-05-27T05:41:54.000Z</time>
      </trkpt>
      <trkpt lat="44.96215" lon="5.46135">
        <ele>1364.5999755859</ele>
        <time>2022-05-27T05:41:55.000Z</time>
      </trkpt>
      <trkpt lat="44.96214" lon="5.46135">
        <ele>1364.5999755859</ele>
        <time>2022-05-27T05:41:56.000Z</time>
      </trkpt>
      <trkpt lat="44.96214" lon="5.46136">
        <ele>1364.5999755859</ele>
        <time>2022-05-27T05:41:57.000Z</time>
      </trkpt>
      <trkpt lat="44.9621" lon="5.46137">
        <ele>1364.1999511719</ele>
        <time>2022-05-27T05:42:00.000Z</time>
      </trkpt>
      <trkpt lat="44.96209" lon="5.46138">
        <ele>1364.1999511719</ele>
        <time>2022-05-27T05:42:02.000Z</time>
      </trkpt>
      <trkpt lat="44.96207" lon="5.46143">
        <ele>1364.4000244141</ele>
        <time>2022-05-27T05:42:08.000Z</time>
      </trkpt>
      <trkpt lat="44.96205" lon="5.46145">
        <ele>1364.1999511719</ele>
        <time>2022-05-27T05:42:11.000Z</time>
      </trkpt>
      <trkpt lat="44.96205" lon="5.46146">
        <ele>1364.1999511719</ele>
        <time>2022-05-27T05:42:12.000Z</time>
      </trkpt>
      <trkpt lat="44.96203" lon="5.46158">
        <ele>1364.8000488281</ele>
        <time>2022-05-27T05:42:22.000Z</time>
      </trkpt>
      <trkpt lat="44.96195" lon="5.46167">
        <ele>1363.5999755859</ele>
        <time>2022-05-27T05:42:30.000Z</time>
      </trkpt>
      <trkpt lat="44.96157" lon="5.46167">
        <ele>1357.8000488281</ele>
        <time>2022-05-27T05:42:52.000Z</time>
      </trkpt>
      <trkpt lat="44.96159" lon="5.46163">
        <ele>1357.8000488281</ele>
        <time>2022-05-27T05:42:56.000Z</time>
      </trkpt>
      <trkpt lat="44.96162" lon="5.46144">
        <ele>1358.8000488281</ele>
        <time>2022-05-27T05:43:04.000Z</time>
      </trkpt>
      <trkpt lat="44.96162" lon="5.46144">
        <ele>1358.8000488281</ele>
        <time>2022-05-27T05:43:05.000Z</time>
      </trkpt>
      <trkpt lat="44.96164" lon="5.46138">
        <ele>1359</ele>
        <time>2022-05-27T05:43:15.000Z</time>
      </trkpt>
      <trkpt lat="44.96168" lon="5.46142">
        <ele>1359.1999511719</ele>
        <time>2022-05-27T05:43:26.000Z</time>
      </trkpt>
      <trkpt lat="44.96166" lon="5.46137">
        <ele>1359</ele>
        <time>2022-05-27T05:44:11.000Z</time>
      </trkpt>
      <trkpt lat="44.96165" lon="5.46135">
        <ele>1359</ele>
        <time>2022-05-27T05:44:18.000Z</time>
      </trkpt>
      <trkpt lat="44.96165" lon="5.46134">
        <ele>1359</ele>
        <time>2022-05-27T05:44:24.000Z</time>
      </trkpt>
      <trkpt lat="44.96165" lon="5.46136">
        <ele>1359</ele>
        <time>2022-05-27T05:44:29.000Z</time>
      </trkpt>
      <trkpt lat="44.96166" lon="5.46135">
        <ele>1359.1999511719</ele>
        <time>2022-05-27T05:44:38.000Z</time>
      </trkpt>
      <trkpt lat="44.96167" lon="5.46135">
        <ele>1359.1999511719</ele>
        <time>2022-05-27T05:44:48.000Z</time>
      </trkpt>
      <trkpt lat="44.96164" lon="5.46136">
        <ele>1359</ele>
        <time>2022-05-27T05:45:17.000Z</time>
      </trkpt>
      <trkpt lat="44.96161" lon="5.46145">
        <ele>1358.5999755859</ele>
        <time>2022-05-27T05:45:28.000Z</time>
      </trkpt>
      <trkpt lat="44.96161" lon="5.46147">
        <ele>1358.5999755859</ele>
        <time>2022-05-27T05:45:30.000Z</time>
      </trkpt>
      <trkpt lat="44.96158" lon="5.46151">
        <ele>1358.1999511719</ele>
        <time>2022-05-27T05:45:39.000Z</time>
      </trkpt>
      <trkpt lat="44.96158" lon="5.46152">
        <ele>1358.1999511719</ele>
        <time>2022-05-27T05:45:40.000Z</time>
      </trkpt>
      <trkpt lat="44.96154" lon="5.46155">
        <ele>1357.5999755859</ele>
        <time>2022-05-27T05:45:44.000Z</time>
      </trkpt>
      <trkpt lat="44.96152" lon="5.46156">
        <ele>1357.4000244141</ele>
        <time>2022-05-27T05:45:46.000Z</time>
      </trkpt>
      <trkpt lat="44.96151" lon="5.46156">
        <ele>1357.4000244141</ele>
        <time>2022-05-27T05:45:47.000Z</time>
      </trkpt>
      <trkpt lat="44.9615" lon="5.46156">
        <ele>1357.1999511719</ele>
        <time>2022-05-27T05:45:48.000Z</time>
      </trkpt>
      <trkpt lat="44.96149" lon="5.46157">
        <ele>1357.1999511719</ele>
        <time>2022-05-27T05:45:49.000Z</time>
      </trkpt>
      <trkpt lat="44.96147" lon="5.46157">
        <ele>1357.1999511719</ele>
        <time>2022-05-27T05:45:50.000Z</time>
      </trkpt>
      <trkpt lat="44.9614" lon="5.4616">
        <ele>1356.5999755859</ele>
        <time>2022-05-27T05:45:57.000Z</time>
      </trkpt>
      <trkpt lat="44.96137" lon="5.46163">
        <ele>1356.1999511719</ele>
        <time>2022-05-27T05:46:00.000Z</time>
      </trkpt>
      <trkpt lat="44.96132" lon="5.46168">
        <ele>1355.5999755859</ele>
        <time>2022-05-27T05:46:04.000Z</time>
      </trkpt>
      <trkpt lat="44.96131" lon="5.46168">
        <ele>1355.4000244141</ele>
        <time>2022-05-27T05:46:05.000Z</time>
      </trkpt>
      <trkpt lat="44.96121" lon="5.4618">
        <ele>1354.8000488281</ele>
        <time>2022-05-27T05:46:14.000Z</time>
      </trkpt>
      <trkpt lat="44.96107" lon="5.46186">
        <ele>1353.4000244141</ele>
        <time>2022-05-27T05:46:29.000Z</time>
      </trkpt>
      <trkpt lat="44.96095" lon="5.46191">
        <ele>1351.8000488281</ele>
        <time>2022-05-27T05:46:41.000Z</time>
      </trkpt>
      <trkpt lat="44.9609" lon="5.46194">
        <ele>1350.8000488281</ele>
        <time>2022-05-27T05:46:45.000Z</time>
      </trkpt>
      <trkpt lat="44.9606" lon="5.46238">
        <ele>1346.1999511719</ele>
        <time>2022-05-27T05:47:21.000Z</time>
      </trkpt>
      <trkpt lat="44.96046" lon="5.46261">
        <ele>1349</ele>
        <time>2022-05-27T05:47:41.000Z</time>
      </trkpt>
      <trkpt lat="44.96041" lon="5.46267">
        <ele>1350.1999511719</ele>
        <time>2022-05-27T05:47:46.000Z</time>
      </trkpt>
      <trkpt lat="44.96027" lon="5.46274">
        <ele>1352.4000244141</ele>
        <time>2022-05-27T05:47:59.000Z</time>
      </trkpt>
      <trkpt lat="44.96017" lon="5.46276">
        <ele>1352.8000488281</ele>
        <time>2022-05-27T05:48:07.000Z</time>
      </trkpt>
      <trkpt lat="44.96005" lon="5.46276">
        <ele>1353.8000488281</ele>
        <time>2022-05-27T05:48:17.000Z</time>
      </trkpt>
      <trkpt lat="44.96001" lon="5.46274">
        <ele>1353.5999755859</ele>
        <time>2022-05-27T05:48:19.000Z</time>
      </trkpt>
      <trkpt lat="44.95964" lon="5.46254">
        <ele>1352.4000244141</ele>
        <time>2022-05-27T05:48:43.000Z</time>
      </trkpt>
      <trkpt lat="44.95954" lon="5.46244">
        <ele>1351.1999511719</ele>
        <time>2022-05-27T05:48:53.000Z</time>
      </trkpt>
      <trkpt lat="44.95953" lon="5.46244">
        <ele>1351.1999511719</ele>
        <time>2022-05-27T05:48:56.000Z</time>
      </trkpt>
      <trkpt lat="44.95945" lon="5.46237">
        <ele>1350.1999511719</ele>
        <time>2022-05-27T05:49:04.000Z</time>
      </trkpt>
      <trkpt lat="44.95933" lon="5.46232">
        <ele>1350.8000488281</ele>
        <time>2022-05-27T05:49:15.000Z</time>
      </trkpt>
      <trkpt lat="44.95928" lon="5.46232">
        <ele>1351</ele>
        <time>2022-05-27T05:49:30.000Z</time>
      </trkpt>
      <trkpt lat="44.95929" lon="5.46228">
        <ele>1349.8000488281</ele>
        <time>2022-05-27T05:49:34.000Z</time>
      </trkpt>
      <trkpt lat="44.95936" lon="5.462">
        <ele>1345.4000244141</ele>
        <time>2022-05-27T05:50:07.000Z</time>
      </trkpt>
      <trkpt lat="44.95933" lon="5.46198">
        <ele>1345.4000244141</ele>
        <time>2022-05-27T05:50:13.000Z</time>
      </trkpt>
      <trkpt lat="44.95922" lon="5.46201">
        <ele>1345.1999511719</ele>
        <time>2022-05-27T05:50:25.000Z</time>
      </trkpt>
      <trkpt lat="44.95904" lon="5.46214">
        <ele>1346</ele>
        <time>2022-05-27T05:50:43.000Z</time>
      </trkpt>
      <trkpt lat="44.95862" lon="5.4623">
        <ele>1348.5999755859</ele>
        <time>2022-05-27T05:51:30.000Z</time>
      </trkpt>
      <trkpt lat="44.95855" lon="5.46229">
        <ele>1348.5999755859</ele>
        <time>2022-05-27T05:51:36.000Z</time>
      </trkpt>
      <trkpt lat="44.95818" lon="5.46224">
        <ele>1345.1999511719</ele>
        <time>2022-05-27T05:52:37.000Z</time>
      </trkpt>
      <trkpt lat="44.95814" lon="5.46226">
        <ele>1344.5999755859</ele>
        <time>2022-05-27T05:52:42.000Z</time>
      </trkpt>
      <trkpt lat="44.95807" lon="5.46227">
        <ele>1343.5999755859</ele>
        <time>2022-05-27T05:52:50.000Z</time>
      </trkpt>
      <trkpt lat="44.95804" lon="5.46227">
        <ele>1343</ele>
        <time>2022-05-27T05:52:53.000Z</time>
      </trkpt>
      <trkpt lat="44.95799" lon="5.46227">
        <ele>1342.1999511719</ele>
        <time>2022-05-27T05:52:58.000Z</time>
      </trkpt>
      <trkpt lat="44.95797" lon="5.46229">
        <ele>1342</ele>
        <time>2022-05-27T05:53:00.000Z</time>
      </trkpt>
      <trkpt lat="44.95794" lon="5.46231">
        <ele>1342</ele>
        <time>2022-05-27T05:53:04.000Z</time>
      </trkpt>
      <trkpt lat="44.95793" lon="5.46234">
        <ele>1342.1999511719</ele>
        <time>2022-05-27T05:53:08.000Z</time>
      </trkpt>
      <trkpt lat="44.95792" lon="5.46234">
        <ele>1342</ele>
        <time>2022-05-27T05:53:09.000Z</time>
      </trkpt>
      <trkpt lat="44.9579" lon="5.46234">
        <ele>1341.8000488281</ele>
        <time>2022-05-27T05:53:10.000Z</time>
      </trkpt>
      <trkpt lat="44.95789" lon="5.46236">
        <ele>1341.5999755859</ele>
        <time>2022-05-27T05:53:12.000Z</time>
      </trkpt>
      <trkpt lat="44.95775" lon="5.46244">
        <ele>1341.1999511719</ele>
        <time>2022-05-27T05:53:26.000Z</time>
      </trkpt>
      <trkpt lat="44.95757" lon="5.46248">
        <ele>1340</ele>
        <time>2022-05-27T05:53:41.000Z</time>
      </trkpt>
      <trkpt lat="44.95754" lon="5.46251">
        <ele>1340.1999511719</ele>
        <time>2022-05-27T05:53:44.000Z</time>
      </trkpt>
      <trkpt lat="44.95747" lon="5.46254">
        <ele>1340.1999511719</ele>
        <time>2022-05-27T05:53:49.000Z</time>
      </trkpt>
      <trkpt lat="44.95719" lon="5.4627">
        <ele>1343.8000488281</ele>
        <time>2022-05-27T05:54:17.000Z</time>
      </trkpt>
      <trkpt lat="44.95716" lon="5.46271">
        <ele>1343.5999755859</ele>
        <time>2022-05-27T05:54:19.000Z</time>
      </trkpt>
      <trkpt lat="44.95701" lon="5.46277">
        <ele>1344.4000244141</ele>
        <time>2022-05-27T05:54:33.000Z</time>
      </trkpt>
      <trkpt lat="44.95697" lon="5.46281">
        <ele>1344.8000488281</ele>
        <time>2022-05-27T05:54:36.000Z</time>
      </trkpt>
      <trkpt lat="44.95681" lon="5.46287">
        <ele>1344</ele>
        <time>2022-05-27T05:54:47.000Z</time>
      </trkpt>
      <trkpt lat="44.95679" lon="5.46286">
        <ele>1343.8000488281</ele>
        <time>2022-05-27T05:54:48.000Z</time>
      </trkpt>
      <trkpt lat="44.95678" lon="5.46286">
        <ele>1343.4000244141</ele>
        <time>2022-05-27T05:54:49.000Z</time>
      </trkpt>
      <trkpt lat="44.95656" lon="5.46302">
        <ele>1343.8000488281</ele>
        <time>2022-05-27T05:55:12.000Z</time>
      </trkpt>
      <trkpt lat="44.95641" lon="5.46313">
        <ele>1344</ele>
        <time>2022-05-27T05:55:27.000Z</time>
      </trkpt>
      <trkpt lat="44.95632" lon="5.46314">
        <ele>1342</ele>
        <time>2022-05-27T05:55:33.000Z</time>
      </trkpt>
      <trkpt lat="44.95611" lon="5.46316">
        <ele>1334.5999755859</ele>
        <time>2022-05-27T05:55:48.000Z</time>
      </trkpt>
      <trkpt lat="44.95603" lon="5.4632">
        <ele>1333.1999511719</ele>
        <time>2022-05-27T05:55:56.000Z</time>
      </trkpt>
      <trkpt lat="44.95563" lon="5.46358">
        <ele>1341.1999511719</ele>
        <time>2022-05-27T05:56:50.000Z</time>
      </trkpt>
      <trkpt lat="44.95549" lon="5.46383">
        <ele>1349.8000488281</ele>
        <time>2022-05-27T05:57:23.000Z</time>
      </trkpt>
      <trkpt lat="44.95549" lon="5.46384">
        <ele>1350.1999511719</ele>
        <time>2022-05-27T05:57:24.000Z</time>
      </trkpt>
      <trkpt lat="44.95548" lon="5.46385">
        <ele>1350.1999511719</ele>
        <time>2022-05-27T05:57:25.000Z</time>
      </trkpt>
      <trkpt lat="44.95544" lon="5.46391">
        <ele>1352.4000244141</ele>
        <time>2022-05-27T05:57:30.000Z</time>
      </trkpt>
      <trkpt lat="44.9554" lon="5.46395">
        <ele>1352.5999755859</ele>
        <time>2022-05-27T05:57:38.000Z</time>
      </trkpt>
      <trkpt lat="44.95531" lon="5.46404">
        <ele>1353.8000488281</ele>
        <time>2022-05-27T05:57:49.000Z</time>
      </trkpt>
      <trkpt lat="44.95525" lon="5.46407">
        <ele>1354.4000244141</ele>
        <time>2022-05-27T05:57:55.000Z</time>
      </trkpt>
      <trkpt lat="44.95521" lon="5.4641">
        <ele>1355.4000244141</ele>
        <time>2022-05-27T05:58:00.000Z</time>
      </trkpt>
      <trkpt lat="44.95516" lon="5.46412">
        <ele>1355.5999755859</ele>
        <time>2022-05-27T05:58:06.000Z</time>
      </trkpt>
      <trkpt lat="44.95505" lon="5.46428">
        <ele>1360.4000244141</ele>
        <time>2022-05-27T05:58:25.000Z</time>
      </trkpt>
      <trkpt lat="44.95497" lon="5.46429">
        <ele>1359.1999511719</ele>
        <time>2022-05-27T05:58:32.000Z</time>
      </trkpt>
      <trkpt lat="44.95492" lon="5.46432">
        <ele>1358.1999511719</ele>
        <time>2022-05-27T05:58:38.000Z</time>
      </trkpt>
      <trkpt lat="44.9549" lon="5.46444">
        <ele>1361</ele>
        <time>2022-05-27T05:58:46.000Z</time>
      </trkpt>
      <trkpt lat="44.95479" lon="5.46447">
        <ele>1360</ele>
        <time>2022-05-27T05:59:04.000Z</time>
      </trkpt>
      <trkpt lat="44.95473" lon="5.46453">
        <ele>1361.5999755859</ele>
        <time>2022-05-27T05:59:12.000Z</time>
      </trkpt>
      <trkpt lat="44.9547" lon="5.4646">
        <ele>1363.4000244141</ele>
        <time>2022-05-27T05:59:17.000Z</time>
      </trkpt>
      <trkpt lat="44.95466" lon="5.46466">
        <ele>1363.1999511719</ele>
        <time>2022-05-27T05:59:24.000Z</time>
      </trkpt>
      <trkpt lat="44.95465" lon="5.46466">
        <ele>1363</ele>
        <time>2022-05-27T05:59:25.000Z</time>
      </trkpt>
      <trkpt lat="44.95465" lon="5.46466">
        <ele>1362.8000488281</ele>
        <time>2022-05-27T05:59:26.000Z</time>
      </trkpt>
      <trkpt lat="44.95464" lon="5.46467">
        <ele>1363</ele>
        <time>2022-05-27T05:59:27.000Z</time>
      </trkpt>
      <trkpt lat="44.95463" lon="5.46468">
        <ele>1362.8000488281</ele>
        <time>2022-05-27T05:59:29.000Z</time>
      </trkpt>
      <trkpt lat="44.95461" lon="5.4647">
        <ele>1362.5999755859</ele>
        <time>2022-05-27T05:59:31.000Z</time>
      </trkpt>
      <trkpt lat="44.95461" lon="5.4647">
        <ele>1362.5999755859</ele>
        <time>2022-05-27T05:59:32.000Z</time>
      </trkpt>
      <trkpt lat="44.9546" lon="5.46471">
        <ele>1362.5999755859</ele>
        <time>2022-05-27T05:59:33.000Z</time>
      </trkpt>
      <trkpt lat="44.95452" lon="5.46474">
        <ele>1362.5999755859</ele>
        <time>2022-05-27T05:59:42.000Z</time>
      </trkpt>
      <trkpt lat="44.95451" lon="5.46474">
        <ele>1362.4000244141</ele>
        <time>2022-05-27T05:59:43.000Z</time>
      </trkpt>
      <trkpt lat="44.9545" lon="5.46475">
        <ele>1362.5999755859</ele>
        <time>2022-05-27T05:59:44.000Z</time>
      </trkpt>
      <trkpt lat="44.95449" lon="5.46476">
        <ele>1362.8000488281</ele>
        <time>2022-05-27T05:59:46.000Z</time>
      </trkpt>
      <trkpt lat="44.95447" lon="5.46477">
        <ele>1363</ele>
        <time>2022-05-27T05:59:47.000Z</time>
      </trkpt>
      <trkpt lat="44.95445" lon="5.46479">
        <ele>1363.4000244141</ele>
        <time>2022-05-27T05:59:50.000Z</time>
      </trkpt>
      <trkpt lat="44.95443" lon="5.46479">
        <ele>1363.1999511719</ele>
        <time>2022-05-27T05:59:51.000Z</time>
      </trkpt>
      <trkpt lat="44.95442" lon="5.4648">
        <ele>1363.1999511719</ele>
        <time>2022-05-27T05:59:52.000Z</time>
      </trkpt>
      <trkpt lat="44.95434" lon="5.46482">
        <ele>1363.1999511719</ele>
        <time>2022-05-27T06:00:00.000Z</time>
      </trkpt>
      <trkpt lat="44.95432" lon="5.46486">
        <ele>1363.4000244141</ele>
        <time>2022-05-27T06:00:08.000Z</time>
      </trkpt>
      <trkpt lat="44.95424" lon="5.46481">
        <ele>1362.8000488281</ele>
        <time>2022-05-27T06:00:53.000Z</time>
      </trkpt>
      <trkpt lat="44.95426" lon="5.46481">
        <ele>1362.5999755859</ele>
        <time>2022-05-27T06:00:59.000Z</time>
      </trkpt>
      <trkpt lat="44.95424" lon="5.46479">
        <ele>1362.5999755859</ele>
        <time>2022-05-27T06:01:07.000Z</time>
      </trkpt>
      <trkpt lat="44.95424" lon="5.46481">
        <ele>1362.8000488281</ele>
        <time>2022-05-27T06:01:13.000Z</time>
      </trkpt>
      <trkpt lat="44.95426" lon="5.46485">
        <ele>1363.1999511719</ele>
        <time>2022-05-27T06:01:22.000Z</time>
      </trkpt>
      <trkpt lat="44.95427" lon="5.46486">
        <ele>1363.4000244141</ele>
        <time>2022-05-27T06:01:28.000Z</time>
      </trkpt>
      <trkpt lat="44.95427" lon="5.46486">
        <ele>1363.4000244141</ele>
        <time>2022-05-27T06:01:30.000Z</time>
      </trkpt>
      <trkpt lat="44.9543" lon="5.46486">
        <ele>1363.1999511719</ele>
        <time>2022-05-27T06:01:44.000Z</time>
      </trkpt>
      <trkpt lat="44.95425" lon="5.46484">
        <ele>1363.1999511719</ele>
        <time>2022-05-27T06:02:20.000Z</time>
      </trkpt>
      <trkpt lat="44.95416" lon="5.46479">
        <ele>1363.1999511719</ele>
        <time>2022-05-27T06:02:50.000Z</time>
      </trkpt>
      <trkpt lat="44.95423" lon="5.46497">
        <ele>1365</ele>
        <time>2022-05-27T06:03:57.000Z</time>
      </trkpt>
      <trkpt lat="44.95421" lon="5.46502">
        <ele>1366.1999511719</ele>
        <time>2022-05-27T06:04:04.000Z</time>
      </trkpt>
      <trkpt lat="44.95421" lon="5.46503">
        <ele>1366.4000244141</ele>
        <time>2022-05-27T06:04:05.000Z</time>
      </trkpt>
      <trkpt lat="44.9542" lon="5.46503">
        <ele>1366.4000244141</ele>
        <time>2022-05-27T06:04:06.000Z</time>
      </trkpt>
      <trkpt lat="44.9542" lon="5.46504">
        <ele>1366.5999755859</ele>
        <time>2022-05-27T06:04:07.000Z</time>
      </trkpt>
      <trkpt lat="44.95419" lon="5.46505">
        <ele>1367</ele>
        <time>2022-05-27T06:04:08.000Z</time>
      </trkpt>
      <trkpt lat="44.95414" lon="5.46507">
        <ele>1367.5999755859</ele>
        <time>2022-05-27T06:04:19.000Z</time>
      </trkpt>
      <trkpt lat="44.95414" lon="5.46507">
        <ele>1367.5999755859</ele>
        <time>2022-05-27T06:04:20.000Z</time>
      </trkpt>
      <trkpt lat="44.95413" lon="5.46508">
        <ele>1367.8000488281</ele>
        <time>2022-05-27T06:04:21.000Z</time>
      </trkpt>
      <trkpt lat="44.95414" lon="5.46508">
        <ele>1367.8000488281</ele>
        <time>2022-05-27T06:04:22.000Z</time>
      </trkpt>
      <trkpt lat="44.95414" lon="5.46508">
        <ele>1368</ele>
        <time>2022-05-27T06:04:23.000Z</time>
      </trkpt>
      <trkpt lat="44.95414" lon="5.46509">
        <ele>1368</ele>
        <time>2022-05-27T06:04:24.000Z</time>
      </trkpt>
      <trkpt lat="44.95413" lon="5.46513">
        <ele>1369.1999511719</ele>
        <time>2022-05-27T06:04:32.000Z</time>
      </trkpt>
      <trkpt lat="44.95412" lon="5.46514">
        <ele>1369.4000244141</ele>
        <time>2022-05-27T06:04:33.000Z</time>
      </trkpt>
      <trkpt lat="44.95412" lon="5.46514">
        <ele>1369.4000244141</ele>
        <time>2022-05-27T06:04:34.000Z</time>
      </trkpt>
      <trkpt lat="44.95412" lon="5.46515">
        <ele>1369.5999755859</ele>
        <time>2022-05-27T06:04:35.000Z</time>
      </trkpt>
      <trkpt lat="44.95411" lon="5.46515">
        <ele>1369.5999755859</ele>
        <time>2022-05-27T06:04:36.000Z</time>
      </trkpt>
      <trkpt lat="44.95411" lon="5.46515">
        <ele>1369.8000488281</ele>
        <time>2022-05-27T06:04:37.000Z</time>
      </trkpt>
      <trkpt lat="44.95405" lon="5.46517">
        <ele>1370.4000244141</ele>
        <time>2022-05-27T06:04:43.000Z</time>
      </trkpt>
      <trkpt lat="44.95392" lon="5.46529">
        <ele>1376.4000244141</ele>
        <time>2022-05-27T06:05:05.000Z</time>
      </trkpt>
      <trkpt lat="44.95392" lon="5.46529">
        <ele>1376.4000244141</ele>
        <time>2022-05-27T06:05:06.000Z</time>
      </trkpt>
      <trkpt lat="44.95391" lon="5.46529">
        <ele>1376.5999755859</ele>
        <time>2022-05-27T06:05:07.000Z</time>
      </trkpt>
      <trkpt lat="44.95391" lon="5.4653">
        <ele>1376.8000488281</ele>
        <time>2022-05-27T06:05:08.000Z</time>
      </trkpt>
      <trkpt lat="44.95391" lon="5.4653">
        <ele>1377</ele>
        <time>2022-05-27T06:05:09.000Z</time>
      </trkpt>
      <trkpt lat="44.95391" lon="5.46531">
        <ele>1377.1999511719</ele>
        <time>2022-05-27T06:05:10.000Z</time>
      </trkpt>
      <trkpt lat="44.95391" lon="5.46531">
        <ele>1377.4000244141</ele>
        <time>2022-05-27T06:05:11.000Z</time>
      </trkpt>
      <trkpt lat="44.95388" lon="5.46536">
        <ele>1379.4000244141</ele>
        <time>2022-05-27T06:05:20.000Z</time>
      </trkpt>
      <trkpt lat="44.95388" lon="5.46536">
        <ele>1379.4000244141</ele>
        <time>2022-05-27T06:05:21.000Z</time>
      </trkpt>
      <trkpt lat="44.95387" lon="5.46538">
        <ele>1380.4000244141</ele>
        <time>2022-05-27T06:05:27.000Z</time>
      </trkpt>
      <trkpt lat="44.95384" lon="5.46536">
        <ele>1380.8000488281</ele>
        <time>2022-05-27T06:05:31.000Z</time>
      </trkpt>
      <trkpt lat="44.95383" lon="5.46535">
        <ele>1380.8000488281</ele>
        <time>2022-05-27T06:05:32.000Z</time>
      </trkpt>
      <trkpt lat="44.95376" lon="5.4653">
        <ele>1381</ele>
        <time>2022-05-27T06:05:43.000Z</time>
      </trkpt>
      <trkpt lat="44.95359" lon="5.46521">
        <ele>1386.8000488281</ele>
        <time>2022-05-27T06:05:57.000Z</time>
      </trkpt>
      <trkpt lat="44.95358" lon="5.4652">
        <ele>1387.1999511719</ele>
        <time>2022-05-27T06:05:58.000Z</time>
      </trkpt>
      <trkpt lat="44.95357" lon="5.46519">
        <ele>1387.4000244141</ele>
        <time>2022-05-27T06:05:59.000Z</time>
      </trkpt>
      <trkpt lat="44.95349" lon="5.46512">
        <ele>1390</ele>
        <time>2022-05-27T06:06:12.000Z</time>
      </trkpt>
      <trkpt lat="44.95345" lon="5.46503">
        <ele>1389.8000488281</ele>
        <time>2022-05-27T06:06:21.000Z</time>
      </trkpt>
      <trkpt lat="44.95346" lon="5.46502">
        <ele>1389.5999755859</ele>
        <time>2022-05-27T06:06:22.000Z</time>
      </trkpt>
      <trkpt lat="44.95346" lon="5.46501">
        <ele>1389.4000244141</ele>
        <time>2022-05-27T06:06:23.000Z</time>
      </trkpt>
      <trkpt lat="44.95345" lon="5.46497">
        <ele>1388.5999755859</ele>
        <time>2022-05-27T06:06:26.000Z</time>
      </trkpt>
      <trkpt lat="44.95343" lon="5.46492">
        <ele>1387.1999511719</ele>
        <time>2022-05-27T06:06:34.000Z</time>
      </trkpt>
      <trkpt lat="44.95342" lon="5.46489">
        <ele>1386.4000244141</ele>
        <time>2022-05-27T06:06:37.000Z</time>
      </trkpt>
      <trkpt lat="44.95337" lon="5.46486">
        <ele>1385.4000244141</ele>
        <time>2022-05-27T06:06:41.000Z</time>
      </trkpt>
      <trkpt lat="44.95331" lon="5.46484">
        <ele>1385.4000244141</ele>
        <time>2022-05-27T06:06:57.000Z</time>
      </trkpt>
      <trkpt lat="44.9533" lon="5.46484">
        <ele>1385.1999511719</ele>
        <time>2022-05-27T06:06:59.000Z</time>
      </trkpt>
      <trkpt lat="44.9533" lon="5.46484">
        <ele>1385.1999511719</ele>
        <time>2022-05-27T06:07:00.000Z</time>
      </trkpt>
      <trkpt lat="44.95329" lon="5.46483">
        <ele>1385.1999511719</ele>
        <time>2022-05-27T06:07:01.000Z</time>
      </trkpt>
      <trkpt lat="44.95329" lon="5.46483">
        <ele>1385</ele>
        <time>2022-05-27T06:07:02.000Z</time>
      </trkpt>
      <trkpt lat="44.95327" lon="5.46481">
        <ele>1384.5999755859</ele>
        <time>2022-05-27T06:07:05.000Z</time>
      </trkpt>
      <trkpt lat="44.95326" lon="5.4648">
        <ele>1384.4000244141</ele>
        <time>2022-05-27T06:07:06.000Z</time>
      </trkpt>
      <trkpt lat="44.95326" lon="5.4648">
        <ele>1384.1999511719</ele>
        <time>2022-05-27T06:07:07.000Z</time>
      </trkpt>
      <trkpt lat="44.95324" lon="5.46475">
        <ele>1382.8000488281</ele>
        <time>2022-05-27T06:07:14.000Z</time>
      </trkpt>
      <trkpt lat="44.95323" lon="5.46474">
        <ele>1382.5999755859</ele>
        <time>2022-05-27T06:07:18.000Z</time>
      </trkpt>
      <trkpt lat="44.95322" lon="5.46473">
        <ele>1382.4000244141</ele>
        <time>2022-05-27T06:07:20.000Z</time>
      </trkpt>
      <trkpt lat="44.95319" lon="5.46472">
        <ele>1382.1999511719</ele>
        <time>2022-05-27T06:07:24.000Z</time>
      </trkpt>
      <trkpt lat="44.95319" lon="5.46471">
        <ele>1382</ele>
        <time>2022-05-27T06:07:25.000Z</time>
      </trkpt>
      <trkpt lat="44.95318" lon="5.46471">
        <ele>1382</ele>
        <time>2022-05-27T06:07:26.000Z</time>
      </trkpt>
      <trkpt lat="44.95317" lon="5.46469">
        <ele>1381.1999511719</ele>
        <time>2022-05-27T06:07:28.000Z</time>
      </trkpt>
      <trkpt lat="44.95316" lon="5.46468">
        <ele>1380.8000488281</ele>
        <time>2022-05-27T06:07:29.000Z</time>
      </trkpt>
      <trkpt lat="44.95312" lon="5.46459">
        <ele>1377.1999511719</ele>
        <time>2022-05-27T06:07:38.000Z</time>
      </trkpt>
      <trkpt lat="44.95307" lon="5.4646">
        <ele>1377.5999755859</ele>
        <time>2022-05-27T06:07:49.000Z</time>
      </trkpt>
      <trkpt lat="44.95302" lon="5.46461">
        <ele>1378</ele>
        <time>2022-05-27T06:07:56.000Z</time>
      </trkpt>
      <trkpt lat="44.95301" lon="5.46462">
        <ele>1378.1999511719</ele>
        <time>2022-05-27T06:07:59.000Z</time>
      </trkpt>
      <trkpt lat="44.95299" lon="5.46462">
        <ele>1378.4000244141</ele>
        <time>2022-05-27T06:08:03.000Z</time>
      </trkpt>
      <trkpt lat="44.95298" lon="5.4646">
        <ele>1377.5999755859</ele>
        <time>2022-05-27T06:08:08.000Z</time>
      </trkpt>
      <trkpt lat="44.95297" lon="5.46459">
        <ele>1377</ele>
        <time>2022-05-27T06:08:14.000Z</time>
      </trkpt>
      <trkpt lat="44.95298" lon="5.46459">
        <ele>1377.1999511719</ele>
        <time>2022-05-27T06:08:15.000Z</time>
      </trkpt>
      <trkpt lat="44.95298" lon="5.46459">
        <ele>1377</ele>
        <time>2022-05-27T06:08:18.000Z</time>
      </trkpt>
      <trkpt lat="44.95298" lon="5.46458">
        <ele>1377</ele>
        <time>2022-05-27T06:08:19.000Z</time>
      </trkpt>
      <trkpt lat="44.95298" lon="5.46458">
        <ele>1377</ele>
        <time>2022-05-27T06:08:20.000Z</time>
      </trkpt>
      <trkpt lat="44.95298" lon="5.46459">
        <ele>1377</ele>
        <time>2022-05-27T06:08:22.000Z</time>
      </trkpt>
      <trkpt lat="44.95298" lon="5.46459">
        <ele>1377</ele>
        <time>2022-05-27T06:08:23.000Z</time>
      </trkpt>
      <trkpt lat="44.95298" lon="5.46459">
        <ele>1377.1999511719</ele>
        <time>2022-05-27T06:08:27.000Z</time>
      </trkpt>
      <trkpt lat="44.95298" lon="5.4646">
        <ele>1377.4000244141</ele>
        <time>2022-05-27T06:08:30.000Z</time>
      </trkpt>
      <trkpt lat="44.95297" lon="5.4646">
        <ele>1377.5999755859</ele>
        <time>2022-05-27T06:08:35.000Z</time>
      </trkpt>
      <trkpt lat="44.95296" lon="5.46464">
        <ele>1379</ele>
        <time>2022-05-27T06:08:50.000Z</time>
      </trkpt>
      <trkpt lat="44.95288" lon="5.46458">
        <ele>1376.4000244141</ele>
        <time>2022-05-27T06:09:20.000Z</time>
      </trkpt>
      <trkpt lat="44.95285" lon="5.46457">
        <ele>1375.5999755859</ele>
        <time>2022-05-27T06:10:20.000Z</time>
      </trkpt>
      <trkpt lat="44.95284" lon="5.46457">
        <ele>1375.8000488281</ele>
        <time>2022-05-27T06:10:28.000Z</time>
      </trkpt>
      <trkpt lat="44.95284" lon="5.46457">
        <ele>1375.5999755859</ele>
        <time>2022-05-27T06:10:29.000Z</time>
      </trkpt>
      <trkpt lat="44.95284" lon="5.46456">
        <ele>1375.1999511719</ele>
        <time>2022-05-27T06:10:30.000Z</time>
      </trkpt>
      <trkpt lat="44.95283" lon="5.46456">
        <ele>1375.1999511719</ele>
        <time>2022-05-27T06:10:31.000Z</time>
      </trkpt>
      <trkpt lat="44.95283" lon="5.46454">
        <ele>1374.1999511719</ele>
        <time>2022-05-27T06:10:34.000Z</time>
      </trkpt>
      <trkpt lat="44.95285" lon="5.46454">
        <ele>1374.4000244141</ele>
        <time>2022-05-27T06:10:45.000Z</time>
      </trkpt>
      <trkpt lat="44.95285" lon="5.46453">
        <ele>1374.4000244141</ele>
        <time>2022-05-27T06:10:48.000Z</time>
      </trkpt>
      <trkpt lat="44.95285" lon="5.46453">
        <ele>1374.1999511719</ele>
        <time>2022-05-27T06:10:51.000Z</time>
      </trkpt>
      <trkpt lat="44.95285" lon="5.46453">
        <ele>1374.1999511719</ele>
        <time>2022-05-27T06:10:55.000Z</time>
      </trkpt>
      <trkpt lat="44.95285" lon="5.46452">
        <ele>1373.8000488281</ele>
        <time>2022-05-27T06:10:59.000Z</time>
      </trkpt>
      <trkpt lat="44.95285" lon="5.46452">
        <ele>1373.8000488281</ele>
        <time>2022-05-27T06:11:03.000Z</time>
      </trkpt>
      <trkpt lat="44.95285" lon="5.46452">
        <ele>1373.8000488281</ele>
        <time>2022-05-27T06:11:08.000Z</time>
      </trkpt>
      <trkpt lat="44.95285" lon="5.46452">
        <ele>1374</ele>
        <time>2022-05-27T06:11:13.000Z</time>
      </trkpt>
      <trkpt lat="44.95285" lon="5.46453">
        <ele>1374</ele>
        <time>2022-05-27T06:11:18.000Z</time>
      </trkpt>
      <trkpt lat="44.95285" lon="5.46453">
        <ele>1374</ele>
        <time>2022-05-27T06:11:23.000Z</time>
      </trkpt>
      <trkpt lat="44.95284" lon="5.46453">
        <ele>1374.1999511719</ele>
        <time>2022-05-27T06:11:28.000Z</time>
      </trkpt>
      <trkpt lat="44.95283" lon="5.46455">
        <ele>1375</ele>
        <time>2022-05-27T06:11:47.000Z</time>
      </trkpt>
      <trkpt lat="44.95284" lon="5.46455">
        <ele>1375</ele>
        <time>2022-05-27T06:11:55.000Z</time>
      </trkpt>
      <trkpt lat="44.95285" lon="5.46454">
        <ele>1374.5999755859</ele>
        <time>2022-05-27T06:12:12.000Z</time>
      </trkpt>
      <trkpt lat="44.95285" lon="5.46454">
        <ele>1374.4000244141</ele>
        <time>2022-05-27T06:12:13.000Z</time>
      </trkpt>
      <trkpt lat="44.95285" lon="5.46454">
        <ele>1374.4000244141</ele>
        <time>2022-05-27T06:12:14.000Z</time>
      </trkpt>
      <trkpt lat="44.95284" lon="5.46455">
        <ele>1374.8000488281</ele>
        <time>2022-05-27T06:12:18.000Z</time>
      </trkpt>
      <trkpt lat="44.95285" lon="5.46456">
        <ele>1375.4000244141</ele>
        <time>2022-05-27T06:12:47.000Z</time>
      </trkpt>
      <trkpt lat="44.95285" lon="5.46456">
        <ele>1375.4000244141</ele>
        <time>2022-05-27T06:12:54.000Z</time>
      </trkpt>
      <trkpt lat="44.95285" lon="5.46455">
        <ele>1375.1999511719</ele>
        <time>2022-05-27T06:12:59.000Z</time>
      </trkpt>
      <trkpt lat="44.95286" lon="5.46455">
        <ele>1375.1999511719</ele>
        <time>2022-05-27T06:13:08.000Z</time>
      </trkpt>
      <trkpt lat="44.95288" lon="5.46458">
        <ele>1376.4000244141</ele>
        <time>2022-05-27T06:13:13.000Z</time>
      </trkpt>
      <trkpt lat="44.95289" lon="5.46459">
        <ele>1377</ele>
        <time>2022-05-27T06:13:18.000Z</time>
      </trkpt>
      <trkpt lat="44.95289" lon="5.46459">
        <ele>1377</ele>
        <time>2022-05-27T06:13:19.000Z</time>
      </trkpt>
      <trkpt lat="44.95289" lon="5.46459">
        <ele>1377.1999511719</ele>
        <time>2022-05-27T06:13:20.000Z</time>
      </trkpt>
      <trkpt lat="44.9529" lon="5.4646">
        <ele>1377.5999755859</ele>
        <time>2022-05-27T06:13:25.000Z</time>
      </trkpt>
      <trkpt lat="44.9529" lon="5.46461">
        <ele>1377.8000488281</ele>
        <time>2022-05-27T06:13:26.000Z</time>
      </trkpt>
      <trkpt lat="44.95289" lon="5.46462">
        <ele>1378.1999511719</ele>
        <time>2022-05-27T06:13:30.000Z</time>
      </trkpt>
      <trkpt lat="44.95289" lon="5.46459">
        <ele>1377</ele>
        <time>2022-05-27T06:13:40.000Z</time>
      </trkpt>
      <trkpt lat="44.95288" lon="5.46458">
        <ele>1376.1999511719</ele>
        <time>2022-05-27T06:14:02.000Z</time>
      </trkpt>
      <trkpt lat="44.95288" lon="5.46456">
        <ele>1375.5999755859</ele>
        <time>2022-05-27T06:14:08.000Z</time>
      </trkpt>
      <trkpt lat="44.95287" lon="5.46455">
        <ele>1375.1999511719</ele>
        <time>2022-05-27T06:14:25.000Z</time>
      </trkpt>
      <trkpt lat="44.95287" lon="5.46454">
        <ele>1374.8000488281</ele>
        <time>2022-05-27T06:14:28.000Z</time>
      </trkpt>
      <trkpt lat="44.95287" lon="5.46456">
        <ele>1375.8000488281</ele>
        <time>2022-05-27T06:14:37.000Z</time>
      </trkpt>
      <trkpt lat="44.95286" lon="5.46459">
        <ele>1376.5999755859</ele>
        <time>2022-05-27T06:14:44.000Z</time>
      </trkpt>
      <trkpt lat="44.95288" lon="5.46458">
        <ele>1376.4000244141</ele>
        <time>2022-05-27T06:14:53.000Z</time>
      </trkpt>
      <trkpt lat="44.95287" lon="5.4646">
        <ele>1377</ele>
        <time>2022-05-27T06:14:59.000Z</time>
      </trkpt>
      <trkpt lat="44.95287" lon="5.4646">
        <ele>1377</ele>
        <time>2022-05-27T06:15:03.000Z</time>
      </trkpt>
      <trkpt lat="44.95286" lon="5.46457">
        <ele>1376</ele>
        <time>2022-05-27T06:15:49.000Z</time>
      </trkpt>
      <trkpt lat="44.95287" lon="5.46455">
        <ele>1375.1999511719</ele>
        <time>2022-05-27T06:16:41.000Z</time>
      </trkpt>
      <trkpt lat="44.95284" lon="5.46457">
        <ele>1375.8000488281</ele>
        <time>2022-05-27T06:17:08.000Z</time>
      </trkpt>
      <trkpt lat="44.95283" lon="5.46456">
        <ele>1375.1999511719</ele>
        <time>2022-05-27T06:17:13.000Z</time>
      </trkpt>
      <trkpt lat="44.95285" lon="5.46455">
        <ele>1374.8000488281</ele>
        <time>2022-05-27T06:17:18.000Z</time>
      </trkpt>
      <trkpt lat="44.95278" lon="5.46461">
        <ele>1376.5999755859</ele>
        <time>2022-05-27T06:17:35.000Z</time>
      </trkpt>
      <trkpt lat="44.95256" lon="5.46476">
        <ele>1376</ele>
        <time>2022-05-27T06:18:02.000Z</time>
      </trkpt>
      <trkpt lat="44.95255" lon="5.4648">
        <ele>1376.4000244141</ele>
        <time>2022-05-27T06:18:06.000Z</time>
      </trkpt>
      <trkpt lat="44.95255" lon="5.4648">
        <ele>1376.4000244141</ele>
        <time>2022-05-27T06:18:07.000Z</time>
      </trkpt>
      <trkpt lat="44.95254" lon="5.46482">
        <ele>1376.4000244141</ele>
        <time>2022-05-27T06:18:08.000Z</time>
      </trkpt>
      <trkpt lat="44.95253" lon="5.46483">
        <ele>1376.5999755859</ele>
        <time>2022-05-27T06:18:09.000Z</time>
      </trkpt>
      <trkpt lat="44.95253" lon="5.46484">
        <ele>1376.5999755859</ele>
        <time>2022-05-27T06:18:10.000Z</time>
      </trkpt>
      <trkpt lat="44.95253" lon="5.46485">
        <ele>1376.8000488281</ele>
        <time>2022-05-27T06:18:11.000Z</time>
      </trkpt>
      <trkpt lat="44.95252" lon="5.46485">
        <ele>1376.5999755859</ele>
        <time>2022-05-27T06:18:12.000Z</time>
      </trkpt>
      <trkpt lat="44.95251" lon="5.46489">
        <ele>1377.1999511719</ele>
        <time>2022-05-27T06:18:15.000Z</time>
      </trkpt>
      <trkpt lat="44.95249" lon="5.46492">
        <ele>1377.1999511719</ele>
        <time>2022-05-27T06:18:19.000Z</time>
      </trkpt>
      <trkpt lat="44.9525" lon="5.46501">
        <ele>1380</ele>
        <time>2022-05-27T06:18:26.000Z</time>
      </trkpt>
      <trkpt lat="44.95243" lon="5.4651">
        <ele>1379.4000244141</ele>
        <time>2022-05-27T06:18:40.000Z</time>
      </trkpt>
      <trkpt lat="44.95238" lon="5.46514">
        <ele>1377.8000488281</ele>
        <time>2022-05-27T06:18:56.000Z</time>
      </trkpt>
      <trkpt lat="44.95234" lon="5.46511">
        <ele>1375.8000488281</ele>
        <time>2022-05-27T06:19:12.000Z</time>
      </trkpt>
      <trkpt lat="44.95229" lon="5.46508">
        <ele>1373.8000488281</ele>
        <time>2022-05-27T06:19:19.000Z</time>
      </trkpt>
      <trkpt lat="44.95225" lon="5.46508">
        <ele>1372.4000244141</ele>
        <time>2022-05-27T06:19:25.000Z</time>
      </trkpt>
      <trkpt lat="44.95222" lon="5.46509">
        <ele>1371.8000488281</ele>
        <time>2022-05-27T06:19:32.000Z</time>
      </trkpt>
      <trkpt lat="44.95224" lon="5.46529">
        <ele>1376.1999511719</ele>
        <time>2022-05-27T06:20:04.000Z</time>
      </trkpt>
      <trkpt lat="44.95226" lon="5.46536">
        <ele>1377.8000488281</ele>
        <time>2022-05-27T06:20:13.000Z</time>
      </trkpt>
      <trkpt lat="44.95227" lon="5.46544">
        <ele>1379.4000244141</ele>
        <time>2022-05-27T06:20:22.000Z</time>
      </trkpt>
      <trkpt lat="44.95224" lon="5.46556">
        <ele>1380.1999511719</ele>
        <time>2022-05-27T06:20:34.000Z</time>
      </trkpt>
      <trkpt lat="44.9522" lon="5.46569">
        <ele>1380.4000244141</ele>
        <time>2022-05-27T06:20:46.000Z</time>
      </trkpt>
      <trkpt lat="44.95218" lon="5.46575">
        <ele>1381</ele>
        <time>2022-05-27T06:20:58.000Z</time>
      </trkpt>
      <trkpt lat="44.95213" lon="5.46636">
        <ele>1390</ele>
        <time>2022-05-27T06:22:35.000Z</time>
      </trkpt>
      <trkpt lat="44.95208" lon="5.46647">
        <ele>1391.1999511719</ele>
        <time>2022-05-27T06:23:06.000Z</time>
      </trkpt>
      <trkpt lat="44.95207" lon="5.46643">
        <ele>1390</ele>
        <time>2022-05-27T06:23:24.000Z</time>
      </trkpt>
      <trkpt lat="44.95206" lon="5.46641">
        <ele>1389.5999755859</ele>
        <time>2022-05-27T06:23:32.000Z</time>
      </trkpt>
      <trkpt lat="44.95206" lon="5.46652">
        <ele>1391.8000488281</ele>
        <time>2022-05-27T06:23:42.000Z</time>
      </trkpt>
      <trkpt lat="44.95207" lon="5.46657">
        <ele>1393.1999511719</ele>
        <time>2022-05-27T06:23:50.000Z</time>
      </trkpt>
      <trkpt lat="44.95208" lon="5.4666">
        <ele>1394</ele>
        <time>2022-05-27T06:23:58.000Z</time>
      </trkpt>
      <trkpt lat="44.95208" lon="5.46661">
        <ele>1394.1999511719</ele>
        <time>2022-05-27T06:23:59.000Z</time>
      </trkpt>
      <trkpt lat="44.95207" lon="5.46665">
        <ele>1394.8000488281</ele>
        <time>2022-05-27T06:24:06.000Z</time>
      </trkpt>
      <trkpt lat="44.95206" lon="5.46666">
        <ele>1395</ele>
        <time>2022-05-27T06:24:07.000Z</time>
      </trkpt>
      <trkpt lat="44.95206" lon="5.46667">
        <ele>1395</ele>
        <time>2022-05-27T06:24:08.000Z</time>
      </trkpt>
      <trkpt lat="44.95203" lon="5.46674">
        <ele>1395.5999755859</ele>
        <time>2022-05-27T06:24:16.000Z</time>
      </trkpt>
      <trkpt lat="44.95202" lon="5.46678">
        <ele>1396</ele>
        <time>2022-05-27T06:24:20.000Z</time>
      </trkpt>
      <trkpt lat="44.952" lon="5.46728">
        <ele>1406.4000244141</ele>
        <time>2022-05-27T06:25:47.000Z</time>
      </trkpt>
      <trkpt lat="44.95193" lon="5.46737">
        <ele>1407.8000488281</ele>
        <time>2022-05-27T06:26:22.000Z</time>
      </trkpt>
      <trkpt lat="44.95194" lon="5.46741">
        <ele>1409.1999511719</ele>
        <time>2022-05-27T06:26:31.000Z</time>
      </trkpt>
      <trkpt lat="44.95192" lon="5.46744">
        <ele>1409.5999755859</ele>
        <time>2022-05-27T06:26:38.000Z</time>
      </trkpt>
      <trkpt lat="44.95187" lon="5.46745">
        <ele>1408.5999755859</ele>
        <time>2022-05-27T06:26:45.000Z</time>
      </trkpt>
      <trkpt lat="44.95186" lon="5.46746">
        <ele>1408.5999755859</ele>
        <time>2022-05-27T06:26:46.000Z</time>
      </trkpt>
      <trkpt lat="44.95182" lon="5.4675">
        <ele>1409</ele>
        <time>2022-05-27T06:26:50.000Z</time>
      </trkpt>
      <trkpt lat="44.95175" lon="5.46752">
        <ele>1408</ele>
        <time>2022-05-27T06:26:58.000Z</time>
      </trkpt>
      <trkpt lat="44.95174" lon="5.46753">
        <ele>1408</ele>
        <time>2022-05-27T06:26:59.000Z</time>
      </trkpt>
      <trkpt lat="44.95173" lon="5.46753">
        <ele>1408</ele>
        <time>2022-05-27T06:27:00.000Z</time>
      </trkpt>
      <trkpt lat="44.95172" lon="5.46754">
        <ele>1408</ele>
        <time>2022-05-27T06:27:01.000Z</time>
      </trkpt>
      <trkpt lat="44.95168" lon="5.46755">
        <ele>1407.4000244141</ele>
        <time>2022-05-27T06:27:04.000Z</time>
      </trkpt>
      <trkpt lat="44.95165" lon="5.46756">
        <ele>1407.1999511719</ele>
        <time>2022-05-27T06:27:07.000Z</time>
      </trkpt>
      <trkpt lat="44.95161" lon="5.46755">
        <ele>1406.1999511719</ele>
        <time>2022-05-27T06:27:10.000Z</time>
      </trkpt>
      <trkpt lat="44.95159" lon="5.46756">
        <ele>1405.8000488281</ele>
        <time>2022-05-27T06:27:13.000Z</time>
      </trkpt>
      <trkpt lat="44.95152" lon="5.46756">
        <ele>1404.1999511719</ele>
        <time>2022-05-27T06:27:20.000Z</time>
      </trkpt>
      <trkpt lat="44.95151" lon="5.46756">
        <ele>1404</ele>
        <time>2022-05-27T06:27:21.000Z</time>
      </trkpt>
      <trkpt lat="44.9515" lon="5.46757">
        <ele>1404.5999755859</ele>
        <time>2022-05-27T06:27:23.000Z</time>
      </trkpt>
      <trkpt lat="44.95149" lon="5.46757">
        <ele>1404.8000488281</ele>
        <time>2022-05-27T06:27:24.000Z</time>
      </trkpt>
      <trkpt lat="44.95148" lon="5.46758">
        <ele>1405.1999511719</ele>
        <time>2022-05-27T06:27:25.000Z</time>
      </trkpt>
      <trkpt lat="44.95147" lon="5.46759">
        <ele>1405.5999755859</ele>
        <time>2022-05-27T06:27:26.000Z</time>
      </trkpt>
      <trkpt lat="44.95143" lon="5.46761">
        <ele>1407</ele>
        <time>2022-05-27T06:27:29.000Z</time>
      </trkpt>
      <trkpt lat="44.9514" lon="5.46761">
        <ele>1407.5999755859</ele>
        <time>2022-05-27T06:27:31.000Z</time>
      </trkpt>
      <trkpt lat="44.95133" lon="5.46765">
        <ele>1408.1999511719</ele>
        <time>2022-05-27T06:27:37.000Z</time>
      </trkpt>
      <trkpt lat="44.95131" lon="5.46766">
        <ele>1408.1999511719</ele>
        <time>2022-05-27T06:27:39.000Z</time>
      </trkpt>
      <trkpt lat="44.95129" lon="5.46767">
        <ele>1408</ele>
        <time>2022-05-27T06:27:40.000Z</time>
      </trkpt>
      <trkpt lat="44.95128" lon="5.46768">
        <ele>1408</ele>
        <time>2022-05-27T06:27:42.000Z</time>
      </trkpt>
      <trkpt lat="44.95127" lon="5.46769">
        <ele>1408</ele>
        <time>2022-05-27T06:27:43.000Z</time>
      </trkpt>
      <trkpt lat="44.95127" lon="5.46769">
        <ele>1408</ele>
        <time>2022-05-27T06:27:44.000Z</time>
      </trkpt>
      <trkpt lat="44.95119" lon="5.46778">
        <ele>1408.8000488281</ele>
        <time>2022-05-27T06:27:55.000Z</time>
      </trkpt>
      <trkpt lat="44.95112" lon="5.46793">
        <ele>1411.4000244141</ele>
        <time>2022-05-27T06:28:06.000Z</time>
      </trkpt>
      <trkpt lat="44.95112" lon="5.46794">
        <ele>1411.4000244141</ele>
        <time>2022-05-27T06:28:07.000Z</time>
      </trkpt>
      <trkpt lat="44.95098" lon="5.46825">
        <ele>1411.5999755859</ele>
        <time>2022-05-27T06:28:32.000Z</time>
      </trkpt>
      <trkpt lat="44.95096" lon="5.46839">
        <ele>1411.8000488281</ele>
        <time>2022-05-27T06:28:44.000Z</time>
      </trkpt>
      <trkpt lat="44.95094" lon="5.46846">
        <ele>1412.8000488281</ele>
        <time>2022-05-27T06:28:48.000Z</time>
      </trkpt>
      <trkpt lat="44.95093" lon="5.46848">
        <ele>1413.4000244141</ele>
        <time>2022-05-27T06:28:50.000Z</time>
      </trkpt>
      <trkpt lat="44.95092" lon="5.46849">
        <ele>1413.5999755859</ele>
        <time>2022-05-27T06:28:51.000Z</time>
      </trkpt>
      <trkpt lat="44.95091" lon="5.4685">
        <ele>1414</ele>
        <time>2022-05-27T06:28:52.000Z</time>
      </trkpt>
      <trkpt lat="44.9509" lon="5.46851">
        <ele>1414.4000244141</ele>
        <time>2022-05-27T06:28:54.000Z</time>
      </trkpt>
      <trkpt lat="44.9509" lon="5.46852">
        <ele>1414.5999755859</ele>
        <time>2022-05-27T06:28:55.000Z</time>
      </trkpt>
      <trkpt lat="44.95089" lon="5.46852">
        <ele>1415</ele>
        <time>2022-05-27T06:28:56.000Z</time>
      </trkpt>
      <trkpt lat="44.95083" lon="5.46853">
        <ele>1415.4000244141</ele>
        <time>2022-05-27T06:29:03.000Z</time>
      </trkpt>
      <trkpt lat="44.95076" lon="5.46859">
        <ele>1415.5999755859</ele>
        <time>2022-05-27T06:29:11.000Z</time>
      </trkpt>
      <trkpt lat="44.95071" lon="5.46877">
        <ele>1416.5999755859</ele>
        <time>2022-05-27T06:29:30.000Z</time>
      </trkpt>
      <trkpt lat="44.95072" lon="5.46882">
        <ele>1416.8000488281</ele>
        <time>2022-05-27T06:29:33.000Z</time>
      </trkpt>
      <trkpt lat="44.95077" lon="5.46948">
        <ele>1420.5999755859</ele>
        <time>2022-05-27T06:30:10.000Z</time>
      </trkpt>
      <trkpt lat="44.95071" lon="5.46972">
        <ele>1419.5999755859</ele>
        <time>2022-05-27T06:30:27.000Z</time>
      </trkpt>
      <trkpt lat="44.95066" lon="5.46991">
        <ele>1419.1999511719</ele>
        <time>2022-05-27T06:30:45.000Z</time>
      </trkpt>
      <trkpt lat="44.95063" lon="5.47035">
        <ele>1418.1999511719</ele>
        <time>2022-05-27T06:31:20.000Z</time>
      </trkpt>
      <trkpt lat="44.95042" lon="5.47091">
        <ele>1420</ele>
        <time>2022-05-27T06:31:58.000Z</time>
      </trkpt>
      <trkpt lat="44.95035" lon="5.4712">
        <ele>1420.1999511719</ele>
        <time>2022-05-27T06:32:22.000Z</time>
      </trkpt>
      <trkpt lat="44.95032" lon="5.47169">
        <ele>1419.1999511719</ele>
        <time>2022-05-27T06:32:59.000Z</time>
      </trkpt>
      <trkpt lat="44.95032" lon="5.47182">
        <ele>1419.1999511719</ele>
        <time>2022-05-27T06:33:06.000Z</time>
      </trkpt>
      <trkpt lat="44.95043" lon="5.47204">
        <ele>1417</ele>
        <time>2022-05-27T06:33:23.000Z</time>
      </trkpt>
      <trkpt lat="44.95053" lon="5.4727">
        <ele>1411.8000488281</ele>
        <time>2022-05-27T06:34:13.000Z</time>
      </trkpt>
      <trkpt lat="44.95053" lon="5.47281">
        <ele>1411.4000244141</ele>
        <time>2022-05-27T06:34:21.000Z</time>
      </trkpt>
      <trkpt lat="44.95051" lon="5.47297">
        <ele>1410.5999755859</ele>
        <time>2022-05-27T06:34:34.000Z</time>
      </trkpt>
      <trkpt lat="44.95047" lon="5.47303">
        <ele>1409.4000244141</ele>
        <time>2022-05-27T06:34:41.000Z</time>
      </trkpt>
      <trkpt lat="44.9504" lon="5.47313">
        <ele>1407.4000244141</ele>
        <time>2022-05-27T06:34:50.000Z</time>
      </trkpt>
      <trkpt lat="44.9503" lon="5.47354">
        <ele>1404.8000488281</ele>
        <time>2022-05-27T06:35:19.000Z</time>
      </trkpt>
      <trkpt lat="44.95047" lon="5.47412">
        <ele>1400.8000488281</ele>
        <time>2022-05-27T06:35:54.000Z</time>
      </trkpt>
      <trkpt lat="44.95048" lon="5.47433">
        <ele>1399</ele>
        <time>2022-05-27T06:36:06.000Z</time>
      </trkpt>
      <trkpt lat="44.95048" lon="5.47435">
        <ele>1399</ele>
        <time>2022-05-27T06:36:07.000Z</time>
      </trkpt>
      <trkpt lat="44.95048" lon="5.47436">
        <ele>1398.8000488281</ele>
        <time>2022-05-27T06:36:08.000Z</time>
      </trkpt>
      <trkpt lat="44.95048" lon="5.47438">
        <ele>1398.8000488281</ele>
        <time>2022-05-27T06:36:09.000Z</time>
      </trkpt>
      <trkpt lat="44.95048" lon="5.47439">
        <ele>1398.5999755859</ele>
        <time>2022-05-27T06:36:10.000Z</time>
      </trkpt>
      <trkpt lat="44.95047" lon="5.47441">
        <ele>1398.4000244141</ele>
        <time>2022-05-27T06:36:11.000Z</time>
      </trkpt>
      <trkpt lat="44.95047" lon="5.47443">
        <ele>1398.1999511719</ele>
        <time>2022-05-27T06:36:13.000Z</time>
      </trkpt>
      <trkpt lat="44.95038" lon="5.4746">
        <ele>1397</ele>
        <time>2022-05-27T06:36:27.000Z</time>
      </trkpt>
      <trkpt lat="44.95026" lon="5.47488">
        <ele>1395.4000244141</ele>
        <time>2022-05-27T06:36:42.000Z</time>
      </trkpt>
      <trkpt lat="44.95022" lon="5.47503">
        <ele>1394.8000488281</ele>
        <time>2022-05-27T06:36:50.000Z</time>
      </trkpt>
      <trkpt lat="44.95021" lon="5.47504">
        <ele>1394.8000488281</ele>
        <time>2022-05-27T06:36:51.000Z</time>
      </trkpt>
      <trkpt lat="44.9502" lon="5.47506">
        <ele>1394.8000488281</ele>
        <time>2022-05-27T06:36:52.000Z</time>
      </trkpt>
      <trkpt lat="44.9502" lon="5.47507">
        <ele>1394.8000488281</ele>
        <time>2022-05-27T06:36:53.000Z</time>
      </trkpt>
      <trkpt lat="44.95018" lon="5.47508">
        <ele>1394.8000488281</ele>
        <time>2022-05-27T06:36:56.000Z</time>
      </trkpt>
      <trkpt lat="44.95015" lon="5.47511">
        <ele>1394.8000488281</ele>
        <time>2022-05-27T06:36:59.000Z</time>
      </trkpt>
      <trkpt lat="44.95015" lon="5.47513">
        <ele>1395</ele>
        <time>2022-05-27T06:37:03.000Z</time>
      </trkpt>
      <trkpt lat="44.95015" lon="5.47515">
        <ele>1395</ele>
        <time>2022-05-27T06:37:04.000Z</time>
      </trkpt>
      <trkpt lat="44.95015" lon="5.47516">
        <ele>1395</ele>
        <time>2022-05-27T06:37:05.000Z</time>
      </trkpt>
      <trkpt lat="44.95017" lon="5.4752">
        <ele>1394.8000488281</ele>
        <time>2022-05-27T06:37:09.000Z</time>
      </trkpt>
      <trkpt lat="44.95027" lon="5.47534">
        <ele>1393.5999755859</ele>
        <time>2022-05-27T06:37:20.000Z</time>
      </trkpt>
      <trkpt lat="44.95041" lon="5.47542">
        <ele>1391.8000488281</ele>
        <time>2022-05-27T06:37:26.000Z</time>
      </trkpt>
      <trkpt lat="44.95054" lon="5.47554">
        <ele>1389.5999755859</ele>
        <time>2022-05-27T06:37:33.000Z</time>
      </trkpt>
      <trkpt lat="44.95055" lon="5.47555">
        <ele>1389.4000244141</ele>
        <time>2022-05-27T06:37:34.000Z</time>
      </trkpt>
      <trkpt lat="44.95057" lon="5.47556">
        <ele>1389.1999511719</ele>
        <time>2022-05-27T06:37:35.000Z</time>
      </trkpt>
      <trkpt lat="44.9506" lon="5.47558">
        <ele>1388.8000488281</ele>
        <time>2022-05-27T06:37:37.000Z</time>
      </trkpt>
      <trkpt lat="44.9506" lon="5.47556">
        <ele>1389</ele>
        <time>2022-05-27T06:37:40.000Z</time>
      </trkpt>
      <trkpt lat="44.9506" lon="5.47555">
        <ele>1389.1999511719</ele>
        <time>2022-05-27T06:37:41.000Z</time>
      </trkpt>
      <trkpt lat="44.9505" lon="5.47543">
        <ele>1391.4000244141</ele>
        <time>2022-05-27T06:37:49.000Z</time>
      </trkpt>
      <trkpt lat="44.95034" lon="5.47531">
        <ele>1393.8000488281</ele>
        <time>2022-05-27T06:38:01.000Z</time>
      </trkpt>
      <trkpt lat="44.95022" lon="5.47525">
        <ele>1394.5999755859</ele>
        <time>2022-05-27T06:38:11.000Z</time>
      </trkpt>
      <trkpt lat="44.95017" lon="5.4752">
        <ele>1394.8000488281</ele>
        <time>2022-05-27T06:38:19.000Z</time>
      </trkpt>
      <trkpt lat="44.95016" lon="5.47519">
        <ele>1394.8000488281</ele>
        <time>2022-05-27T06:38:20.000Z</time>
      </trkpt>
      <trkpt lat="44.95008" lon="5.47511">
        <ele>1395.4000244141</ele>
        <time>2022-05-27T06:38:27.000Z</time>
      </trkpt>
      <trkpt lat="44.95006" lon="5.4751">
        <ele>1395.4000244141</ele>
        <time>2022-05-27T06:38:35.000Z</time>
      </trkpt>
      <trkpt lat="44.95006" lon="5.47509">
        <ele>1395.4000244141</ele>
        <time>2022-05-27T06:38:38.000Z</time>
      </trkpt>
      <trkpt lat="44.95004" lon="5.4751">
        <ele>1395.5999755859</ele>
        <time>2022-05-27T06:39:07.000Z</time>
      </trkpt>
      <trkpt lat="44.95004" lon="5.47509">
        <ele>1395.5999755859</ele>
        <time>2022-05-27T06:39:13.000Z</time>
      </trkpt>
      <trkpt lat="44.95005" lon="5.47508">
        <ele>1395.5999755859</ele>
        <time>2022-05-27T06:39:19.000Z</time>
      </trkpt>
      <trkpt lat="44.95005" lon="5.47509">
        <ele>1395.5999755859</ele>
        <time>2022-05-27T06:39:26.000Z</time>
      </trkpt>
      <trkpt lat="44.95005" lon="5.47508">
        <ele>1395.5999755859</ele>
        <time>2022-05-27T06:39:37.000Z</time>
      </trkpt>
      <trkpt lat="44.95005" lon="5.47508">
        <ele>1395.5999755859</ele>
        <time>2022-05-27T06:39:38.000Z</time>
      </trkpt>
      <trkpt lat="44.95005" lon="5.47508">
        <ele>1395.5999755859</ele>
        <time>2022-05-27T06:39:39.000Z</time>
      </trkpt>
      <trkpt lat="44.95005" lon="5.47508">
        <ele>1395.5999755859</ele>
        <time>2022-05-27T06:39:44.000Z</time>
      </trkpt>
      <trkpt lat="44.95005" lon="5.47508">
        <ele>1395.5999755859</ele>
        <time>2022-05-27T06:39:58.000Z</time>
      </trkpt>
      <trkpt lat="44.95005" lon="5.4751">
        <ele>1395.5999755859</ele>
        <time>2022-05-27T06:40:07.000Z</time>
      </trkpt>
      <trkpt lat="44.95006" lon="5.47511">
        <ele>1395.4000244141</ele>
        <time>2022-05-27T06:40:17.000Z</time>
      </trkpt>
      <trkpt lat="44.95005" lon="5.47511">
        <ele>1395.5999755859</ele>
        <time>2022-05-27T06:40:27.000Z</time>
      </trkpt>
      <trkpt lat="44.95005" lon="5.47511">
        <ele>1395.5999755859</ele>
        <time>2022-05-27T06:40:41.000Z</time>
      </trkpt>
      <trkpt lat="44.95005" lon="5.47511">
        <ele>1395.5999755859</ele>
        <time>2022-05-27T06:40:42.000Z</time>
      </trkpt>
      <trkpt lat="44.95005" lon="5.4751">
        <ele>1395.5999755859</ele>
        <time>2022-05-27T06:40:43.000Z</time>
      </trkpt>
      <trkpt lat="44.95006" lon="5.47512">
        <ele>1395.4000244141</ele>
        <time>2022-05-27T06:41:27.000Z</time>
      </trkpt>
      <trkpt lat="44.95003" lon="5.47514">
        <ele>1395.5999755859</ele>
        <time>2022-05-27T06:41:59.000Z</time>
      </trkpt>
      <trkpt lat="44.95004" lon="5.47514">
        <ele>1395.5999755859</ele>
        <time>2022-05-27T06:42:04.000Z</time>
      </trkpt>
      <trkpt lat="44.95004" lon="5.47514">
        <ele>1395.5999755859</ele>
        <time>2022-05-27T06:42:05.000Z</time>
      </trkpt>
      <trkpt lat="44.95004" lon="5.47514">
        <ele>1395.5999755859</ele>
        <time>2022-05-27T06:42:06.000Z</time>
      </trkpt>
      <trkpt lat="44.95002" lon="5.47509">
        <ele>1395.8000488281</ele>
        <time>2022-05-27T06:42:24.000Z</time>
      </trkpt>
      <trkpt lat="44.95002" lon="5.47508">
        <ele>1395.8000488281</ele>
        <time>2022-05-27T06:42:44.000Z</time>
      </trkpt>
      <trkpt lat="44.95002" lon="5.47508">
        <ele>1395.8000488281</ele>
        <time>2022-05-27T06:42:46.000Z</time>
      </trkpt>
      <trkpt lat="44.95002" lon="5.47508">
        <ele>1395.8000488281</ele>
        <time>2022-05-27T06:42:55.000Z</time>
      </trkpt>
      <trkpt lat="44.95002" lon="5.47508">
        <ele>1395.8000488281</ele>
        <time>2022-05-27T06:42:56.000Z</time>
      </trkpt>
      <trkpt lat="44.95002" lon="5.47508">
        <ele>1395.8000488281</ele>
        <time>2022-05-27T06:42:57.000Z</time>
      </trkpt>
      <trkpt lat="44.95002" lon="5.47508">
        <ele>1395.8000488281</ele>
        <time>2022-05-27T06:42:58.000Z</time>
      </trkpt>
      <trkpt lat="44.95002" lon="5.47508">
        <ele>1395.8000488281</ele>
        <time>2022-05-27T06:43:00.000Z</time>
      </trkpt>
      <trkpt lat="44.95002" lon="5.47508">
        <ele>1395.8000488281</ele>
        <time>2022-05-27T06:43:01.000Z</time>
      </trkpt>
      <trkpt lat="44.95002" lon="5.47508">
        <ele>1395.8000488281</ele>
        <time>2022-05-27T06:43:02.000Z</time>
      </trkpt>
      <trkpt lat="44.95002" lon="5.47508">
        <ele>1395.8000488281</ele>
        <time>2022-05-27T06:43:07.000Z</time>
      </trkpt>
      <trkpt lat="44.95002" lon="5.47508">
        <ele>1395.8000488281</ele>
        <time>2022-05-27T06:43:08.000Z</time>
      </trkpt>
      <trkpt lat="44.95002" lon="5.47508">
        <ele>1395.8000488281</ele>
        <time>2022-05-27T06:43:10.000Z</time>
      </trkpt>
      <trkpt lat="44.95002" lon="5.47508">
        <ele>1395.8000488281</ele>
        <time>2022-05-27T06:43:11.000Z</time>
      </trkpt>
      <trkpt lat="44.95002" lon="5.47507">
        <ele>1395.8000488281</ele>
        <time>2022-05-27T06:43:12.000Z</time>
      </trkpt>
      <trkpt lat="44.95002" lon="5.47507">
        <ele>1395.8000488281</ele>
        <time>2022-05-27T06:43:13.000Z</time>
      </trkpt>
      <trkpt lat="44.95002" lon="5.47507">
        <ele>1395.8000488281</ele>
        <time>2022-05-27T06:43:14.000Z</time>
      </trkpt>
      <trkpt lat="44.95002" lon="5.47507">
        <ele>1395.8000488281</ele>
        <time>2022-05-27T06:43:15.000Z</time>
      </trkpt>
      <trkpt lat="44.95002" lon="5.47507">
        <ele>1395.8000488281</ele>
        <time>2022-05-27T06:43:16.000Z</time>
      </trkpt>
      <trkpt lat="44.95001" lon="5.47507">
        <ele>1395.8000488281</ele>
        <time>2022-05-27T06:43:17.000Z</time>
      </trkpt>
      <trkpt lat="44.95001" lon="5.47507">
        <ele>1395.8000488281</ele>
        <time>2022-05-27T06:43:18.000Z</time>
      </trkpt>
      <trkpt lat="44.95" lon="5.47508">
        <ele>1396</ele>
        <time>2022-05-27T06:43:24.000Z</time>
      </trkpt>
      <trkpt lat="44.94999" lon="5.47507">
        <ele>1396</ele>
        <time>2022-05-27T06:43:28.000Z</time>
      </trkpt>
      <trkpt lat="44.94999" lon="5.47507">
        <ele>1396</ele>
        <time>2022-05-27T06:43:33.000Z</time>
      </trkpt>
      <trkpt lat="44.95" lon="5.47507">
        <ele>1396</ele>
        <time>2022-05-27T06:43:34.000Z</time>
      </trkpt>
      <trkpt lat="44.95" lon="5.47507">
        <ele>1396</ele>
        <time>2022-05-27T06:43:36.000Z</time>
      </trkpt>
      <trkpt lat="44.95" lon="5.47507">
        <ele>1396</ele>
        <time>2022-05-27T06:43:39.000Z</time>
      </trkpt>
      <trkpt lat="44.95" lon="5.47507">
        <ele>1395.8000488281</ele>
        <time>2022-05-27T06:43:42.000Z</time>
      </trkpt>
      <trkpt lat="44.95001" lon="5.47506">
        <ele>1395.8000488281</ele>
        <time>2022-05-27T06:43:51.000Z</time>
      </trkpt>
      <trkpt lat="44.95" lon="5.47506">
        <ele>1395.8000488281</ele>
        <time>2022-05-27T06:43:54.000Z</time>
      </trkpt>
      <trkpt lat="44.95001" lon="5.47506">
        <ele>1395.8000488281</ele>
        <time>2022-05-27T06:43:58.000Z</time>
      </trkpt>
      <trkpt lat="44.95001" lon="5.47505">
        <ele>1395.8000488281</ele>
        <time>2022-05-27T06:44:01.000Z</time>
      </trkpt>
      <trkpt lat="44.95" lon="5.47505">
        <ele>1396</ele>
        <time>2022-05-27T06:44:03.000Z</time>
      </trkpt>
      <trkpt lat="44.94998" lon="5.47504">
        <ele>1396</ele>
        <time>2022-05-27T06:44:11.000Z</time>
      </trkpt>
      <trkpt lat="44.94998" lon="5.47504">
        <ele>1396</ele>
        <time>2022-05-27T06:44:14.000Z</time>
      </trkpt>
      <trkpt lat="44.94998" lon="5.47504">
        <ele>1396</ele>
        <time>2022-05-27T06:44:17.000Z</time>
      </trkpt>
      <trkpt lat="44.94999" lon="5.47505">
        <ele>1396</ele>
        <time>2022-05-27T06:44:23.000Z</time>
      </trkpt>
      <trkpt lat="44.95002" lon="5.47508">
        <ele>1395.8000488281</ele>
        <time>2022-05-27T06:45:58.000Z</time>
      </trkpt>
      <trkpt lat="44.95002" lon="5.47506">
        <ele>1395.8000488281</ele>
        <time>2022-05-27T06:46:05.000Z</time>
      </trkpt>
      <trkpt lat="44.95001" lon="5.47507">
        <ele>1395.8000488281</ele>
        <time>2022-05-27T06:46:13.000Z</time>
      </trkpt>
      <trkpt lat="44.95001" lon="5.47508">
        <ele>1395.8000488281</ele>
        <time>2022-05-27T06:46:19.000Z</time>
      </trkpt>
      <trkpt lat="44.94999" lon="5.47507">
        <ele>1396</ele>
        <time>2022-05-27T06:46:36.000Z</time>
      </trkpt>
      <trkpt lat="44.95001" lon="5.47506">
        <ele>1395.8000488281</ele>
        <time>2022-05-27T06:46:56.000Z</time>
      </trkpt>
      <trkpt lat="44.95001" lon="5.47506">
        <ele>1395.8000488281</ele>
        <time>2022-05-27T06:47:03.000Z</time>
      </trkpt>
      <trkpt lat="44.95001" lon="5.47506">
        <ele>1395.8000488281</ele>
        <time>2022-05-27T06:47:06.000Z</time>
      </trkpt>
      <trkpt lat="44.95001" lon="5.47506">
        <ele>1395.8000488281</ele>
        <time>2022-05-27T06:47:07.000Z</time>
      </trkpt>
      <trkpt lat="44.95001" lon="5.47506">
        <ele>1395.8000488281</ele>
        <time>2022-05-27T06:47:08.000Z</time>
      </trkpt>
      <trkpt lat="44.95001" lon="5.47506">
        <ele>1395.8000488281</ele>
        <time>2022-05-27T06:47:09.000Z</time>
      </trkpt>
      <trkpt lat="44.95001" lon="5.47506">
        <ele>1395.8000488281</ele>
        <time>2022-05-27T06:47:12.000Z</time>
      </trkpt>
      <trkpt lat="44.95001" lon="5.47506">
        <ele>1395.8000488281</ele>
        <time>2022-05-27T06:47:13.000Z</time>
      </trkpt>
      <trkpt lat="44.95002" lon="5.47506">
        <ele>1395.8000488281</ele>
        <time>2022-05-27T06:47:14.000Z</time>
      </trkpt>
      <trkpt lat="44.95001" lon="5.47506">
        <ele>1395.8000488281</ele>
        <time>2022-05-27T06:47:16.000Z</time>
      </trkpt>
      <trkpt lat="44.95001" lon="5.47506">
        <ele>1395.8000488281</ele>
        <time>2022-05-27T06:47:17.000Z</time>
      </trkpt>
      <trkpt lat="44.95001" lon="5.47506">
        <ele>1395.8000488281</ele>
        <time>2022-05-27T06:47:18.000Z</time>
      </trkpt>
      <trkpt lat="44.94998" lon="5.47506">
        <ele>1396</ele>
        <time>2022-05-27T06:47:22.000Z</time>
      </trkpt>
      <trkpt lat="44.94992" lon="5.47506">
        <ele>1396.4000244141</ele>
        <time>2022-05-27T06:47:27.000Z</time>
      </trkpt>
      <trkpt lat="44.94979" lon="5.47503">
        <ele>1397.5999755859</ele>
        <time>2022-05-27T06:47:37.000Z</time>
      </trkpt>
      <trkpt lat="44.94976" lon="5.47504">
        <ele>1397.8000488281</ele>
        <time>2022-05-27T06:47:39.000Z</time>
      </trkpt>
      <trkpt lat="44.94932" lon="5.47511">
        <ele>1401.5999755859</ele>
        <time>2022-05-27T06:48:24.000Z</time>
      </trkpt>
      <trkpt lat="44.9491" lon="5.47538">
        <ele>1401.4000244141</ele>
        <time>2022-05-27T06:48:48.000Z</time>
      </trkpt>
      <trkpt lat="44.949" lon="5.47553">
        <ele>1400.4000244141</ele>
        <time>2022-05-27T06:49:03.000Z</time>
      </trkpt>
      <trkpt lat="44.94889" lon="5.47564">
        <ele>1400.4000244141</ele>
        <time>2022-05-27T06:49:13.000Z</time>
      </trkpt>
      <trkpt lat="44.94888" lon="5.47565">
        <ele>1400.4000244141</ele>
        <time>2022-05-27T06:49:14.000Z</time>
      </trkpt>
      <trkpt lat="44.94886" lon="5.47567">
        <ele>1400.4000244141</ele>
        <time>2022-05-27T06:49:15.000Z</time>
      </trkpt>
      <trkpt lat="44.94885" lon="5.47568">
        <ele>1400.4000244141</ele>
        <time>2022-05-27T06:49:16.000Z</time>
      </trkpt>
      <trkpt lat="44.94881" lon="5.47572">
        <ele>1400</ele>
        <time>2022-05-27T06:49:21.000Z</time>
      </trkpt>
      <trkpt lat="44.94855" lon="5.47602">
        <ele>1398</ele>
        <time>2022-05-27T06:49:47.000Z</time>
      </trkpt>
      <trkpt lat="44.94836" lon="5.47614">
        <ele>1398.5999755859</ele>
        <time>2022-05-27T06:50:02.000Z</time>
      </trkpt>
      <trkpt lat="44.94816" lon="5.47625">
        <ele>1399.1999511719</ele>
        <time>2022-05-27T06:50:19.000Z</time>
      </trkpt>
      <trkpt lat="44.94815" lon="5.47625">
        <ele>1399.1999511719</ele>
        <time>2022-05-27T06:50:20.000Z</time>
      </trkpt>
      <trkpt lat="44.94814" lon="5.47626">
        <ele>1399.4000244141</ele>
        <time>2022-05-27T06:50:21.000Z</time>
      </trkpt>
      <trkpt lat="44.94813" lon="5.47626">
        <ele>1399.4000244141</ele>
        <time>2022-05-27T06:50:22.000Z</time>
      </trkpt>
      <trkpt lat="44.94813" lon="5.47626">
        <ele>1399.4000244141</ele>
        <time>2022-05-27T06:50:23.000Z</time>
      </trkpt>
      <trkpt lat="44.9481" lon="5.47628">
        <ele>1399.5999755859</ele>
        <time>2022-05-27T06:50:27.000Z</time>
      </trkpt>
      <trkpt lat="44.94805" lon="5.47629">
        <ele>1400</ele>
        <time>2022-05-27T06:50:33.000Z</time>
      </trkpt>
      <trkpt lat="44.948" lon="5.4763">
        <ele>1400.1999511719</ele>
        <time>2022-05-27T06:50:38.000Z</time>
      </trkpt>
      <trkpt lat="44.94797" lon="5.47631">
        <ele>1400.4000244141</ele>
        <time>2022-05-27T06:50:42.000Z</time>
      </trkpt>
      <trkpt lat="44.94796" lon="5.47629">
        <ele>1400.5999755859</ele>
        <time>2022-05-27T06:50:51.000Z</time>
      </trkpt>
      <trkpt lat="44.94796" lon="5.47629">
        <ele>1400.5999755859</ele>
        <time>2022-05-27T06:50:55.000Z</time>
      </trkpt>
      <trkpt lat="44.94796" lon="5.47629">
        <ele>1400.5999755859</ele>
        <time>2022-05-27T06:50:56.000Z</time>
      </trkpt>
      <trkpt lat="44.94793" lon="5.47628">
        <ele>1401</ele>
        <time>2022-05-27T06:50:59.000Z</time>
      </trkpt>
      <trkpt lat="44.94774" lon="5.47616">
        <ele>1404.1999511719</ele>
        <time>2022-05-27T06:51:16.000Z</time>
      </trkpt>
      <trkpt lat="44.94749" lon="5.47635">
        <ele>1404.8000488281</ele>
        <time>2022-05-27T06:51:50.000Z</time>
      </trkpt>
      <trkpt lat="44.9471" lon="5.47667">
        <ele>1406.5999755859</ele>
        <time>2022-05-27T06:52:35.000Z</time>
      </trkpt>
      <trkpt lat="44.94708" lon="5.47668">
        <ele>1406.8000488281</ele>
        <time>2022-05-27T06:52:39.000Z</time>
      </trkpt>
      <trkpt lat="44.94703" lon="5.47671">
        <ele>1407.1999511719</ele>
        <time>2022-05-27T06:52:49.000Z</time>
      </trkpt>
      <trkpt lat="44.94668" lon="5.4771">
        <ele>1411.4000244141</ele>
        <time>2022-05-27T06:53:30.000Z</time>
      </trkpt>
      <trkpt lat="44.94664" lon="5.47712">
        <ele>1411.8000488281</ele>
        <time>2022-05-27T06:53:35.000Z</time>
      </trkpt>
      <trkpt lat="44.94658" lon="5.47716">
        <ele>1412.4000244141</ele>
        <time>2022-05-27T06:53:41.000Z</time>
      </trkpt>
      <trkpt lat="44.94656" lon="5.47718">
        <ele>1412.5999755859</ele>
        <time>2022-05-27T06:53:43.000Z</time>
      </trkpt>
      <trkpt lat="44.94652" lon="5.4772">
        <ele>1413</ele>
        <time>2022-05-27T06:53:46.000Z</time>
      </trkpt>
      <trkpt lat="44.94646" lon="5.47724">
        <ele>1413.5999755859</ele>
        <time>2022-05-27T06:53:51.000Z</time>
      </trkpt>
      <trkpt lat="44.9463" lon="5.47742">
        <ele>1414.5999755859</ele>
        <time>2022-05-27T06:54:11.000Z</time>
      </trkpt>
      <trkpt lat="44.94613" lon="5.47759">
        <ele>1416.1999511719</ele>
        <time>2022-05-27T06:54:31.000Z</time>
      </trkpt>
      <trkpt lat="44.94611" lon="5.47765">
        <ele>1416.1999511719</ele>
        <time>2022-05-27T06:54:35.000Z</time>
      </trkpt>
      <trkpt lat="44.94607" lon="5.47779">
        <ele>1416.4000244141</ele>
        <time>2022-05-27T06:54:42.000Z</time>
      </trkpt>
      <trkpt lat="44.94593" lon="5.47819">
        <ele>1417.4000244141</ele>
        <time>2022-05-27T06:55:16.000Z</time>
      </trkpt>
      <trkpt lat="44.9458" lon="5.47837">
        <ele>1418</ele>
        <time>2022-05-27T06:55:38.000Z</time>
      </trkpt>
      <trkpt lat="44.9458" lon="5.47839">
        <ele>1418</ele>
        <time>2022-05-27T06:55:39.000Z</time>
      </trkpt>
      <trkpt lat="44.94579" lon="5.47841">
        <ele>1417.8000488281</ele>
        <time>2022-05-27T06:55:40.000Z</time>
      </trkpt>
      <trkpt lat="44.94579" lon="5.47843">
        <ele>1417.8000488281</ele>
        <time>2022-05-27T06:55:41.000Z</time>
      </trkpt>
      <trkpt lat="44.94579" lon="5.47844">
        <ele>1417.8000488281</ele>
        <time>2022-05-27T06:55:42.000Z</time>
      </trkpt>
      <trkpt lat="44.94578" lon="5.47852">
        <ele>1417.5999755859</ele>
        <time>2022-05-27T06:55:46.000Z</time>
      </trkpt>
      <trkpt lat="44.94577" lon="5.47855">
        <ele>1417.5999755859</ele>
        <time>2022-05-27T06:55:48.000Z</time>
      </trkpt>
      <trkpt lat="44.94577" lon="5.47857">
        <ele>1417.4000244141</ele>
        <time>2022-05-27T06:55:49.000Z</time>
      </trkpt>
      <trkpt lat="44.94576" lon="5.47859">
        <ele>1417.4000244141</ele>
        <time>2022-05-27T06:55:50.000Z</time>
      </trkpt>
      <trkpt lat="44.94574" lon="5.47866">
        <ele>1417.4000244141</ele>
        <time>2022-05-27T06:55:54.000Z</time>
      </trkpt>
      <trkpt lat="44.94574" lon="5.47868">
        <ele>1417.4000244141</ele>
        <time>2022-05-27T06:55:55.000Z</time>
      </trkpt>
      <trkpt lat="44.94569" lon="5.47877">
        <ele>1417.4000244141</ele>
        <time>2022-05-27T06:56:03.000Z</time>
      </trkpt>
      <trkpt lat="44.94566" lon="5.47879">
        <ele>1417.4000244141</ele>
        <time>2022-05-27T06:56:06.000Z</time>
      </trkpt>
      <trkpt lat="44.9456" lon="5.4788">
        <ele>1417.5999755859</ele>
        <time>2022-05-27T06:56:24.000Z</time>
      </trkpt>
      <trkpt lat="44.94556" lon="5.4788">
        <ele>1417.8000488281</ele>
        <time>2022-05-27T06:56:29.000Z</time>
      </trkpt>
      <trkpt lat="44.94552" lon="5.4788">
        <ele>1417.8000488281</ele>
        <time>2022-05-27T06:56:34.000Z</time>
      </trkpt>
      <trkpt lat="44.9455" lon="5.47881">
        <ele>1418</ele>
        <time>2022-05-27T06:56:38.000Z</time>
      </trkpt>
      <trkpt lat="44.94549" lon="5.47879">
        <ele>1418</ele>
        <time>2022-05-27T06:56:42.000Z</time>
      </trkpt>
      <trkpt lat="44.94547" lon="5.47878">
        <ele>1418.1999511719</ele>
        <time>2022-05-27T06:56:45.000Z</time>
      </trkpt>
      <trkpt lat="44.94546" lon="5.47877">
        <ele>1418.1999511719</ele>
        <time>2022-05-27T06:56:46.000Z</time>
      </trkpt>
      <trkpt lat="44.94541" lon="5.47872">
        <ele>1418.5999755859</ele>
        <time>2022-05-27T06:56:51.000Z</time>
      </trkpt>
      <trkpt lat="44.94531" lon="5.47868">
        <ele>1419.4000244141</ele>
        <time>2022-05-27T06:56:59.000Z</time>
      </trkpt>
      <trkpt lat="44.94513" lon="5.47869">
        <ele>1421</ele>
        <time>2022-05-27T06:57:16.000Z</time>
      </trkpt>
      <trkpt lat="44.94491" lon="5.47893">
        <ele>1424.1999511719</ele>
        <time>2022-05-27T06:57:48.000Z</time>
      </trkpt>
      <trkpt lat="44.94472" lon="5.47937">
        <ele>1428.1999511719</ele>
        <time>2022-05-27T06:59:30.000Z</time>
      </trkpt>
      <trkpt lat="44.94471" lon="5.47937">
        <ele>1428.4000244141</ele>
        <time>2022-05-27T06:59:44.000Z</time>
      </trkpt>
      <trkpt lat="44.94471" lon="5.47935">
        <ele>1428.5999755859</ele>
        <time>2022-05-27T06:59:54.000Z</time>
      </trkpt>
      <trkpt lat="44.94471" lon="5.47935">
        <ele>1428.4000244141</ele>
        <time>2022-05-27T07:00:16.000Z</time>
      </trkpt>
      <trkpt lat="44.94472" lon="5.47936">
        <ele>1428.1999511719</ele>
        <time>2022-05-27T07:00:19.000Z</time>
      </trkpt>
      <trkpt lat="44.94472" lon="5.47936">
        <ele>1428.1999511719</ele>
        <time>2022-05-27T07:00:22.000Z</time>
      </trkpt>
      <trkpt lat="44.94474" lon="5.47945">
        <ele>1428</ele>
        <time>2022-05-27T07:00:56.000Z</time>
      </trkpt>
      <trkpt lat="44.94475" lon="5.47945">
        <ele>1427.8000488281</ele>
        <time>2022-05-27T07:01:05.000Z</time>
      </trkpt>
      <trkpt lat="44.94472" lon="5.47944">
        <ele>1428.1999511719</ele>
        <time>2022-05-27T07:01:11.000Z</time>
      </trkpt>
      <trkpt lat="44.94472" lon="5.47941">
        <ele>1428.1999511719</ele>
        <time>2022-05-27T07:01:21.000Z</time>
      </trkpt>
      <trkpt lat="44.94471" lon="5.47941">
        <ele>1428.4000244141</ele>
        <time>2022-05-27T07:01:22.000Z</time>
      </trkpt>
      <trkpt lat="44.94471" lon="5.47941">
        <ele>1428.5999755859</ele>
        <time>2022-05-27T07:01:23.000Z</time>
      </trkpt>
      <trkpt lat="44.94468" lon="5.4794">
        <ele>1429</ele>
        <time>2022-05-27T07:01:27.000Z</time>
      </trkpt>
      <trkpt lat="44.94466" lon="5.47939">
        <ele>1429.4000244141</ele>
        <time>2022-05-27T07:01:31.000Z</time>
      </trkpt>
      <trkpt lat="44.94466" lon="5.47939">
        <ele>1429.4000244141</ele>
        <time>2022-05-27T07:01:32.000Z</time>
      </trkpt>
      <trkpt lat="44.94465" lon="5.47939">
        <ele>1429.4000244141</ele>
        <time>2022-05-27T07:01:33.000Z</time>
      </trkpt>
      <trkpt lat="44.94465" lon="5.4794">
        <ele>1429.5999755859</ele>
        <time>2022-05-27T07:01:34.000Z</time>
      </trkpt>
      <trkpt lat="44.94463" lon="5.47941">
        <ele>1429.8000488281</ele>
        <time>2022-05-27T07:01:38.000Z</time>
      </trkpt>
      <trkpt lat="44.94455" lon="5.47943">
        <ele>1431.1999511719</ele>
        <time>2022-05-27T07:01:48.000Z</time>
      </trkpt>
      <trkpt lat="44.94454" lon="5.47944">
        <ele>1431.4000244141</ele>
        <time>2022-05-27T07:01:50.000Z</time>
      </trkpt>
      <trkpt lat="44.94449" lon="5.47945">
        <ele>1432.1999511719</ele>
        <time>2022-05-27T07:01:56.000Z</time>
      </trkpt>
      <trkpt lat="44.94443" lon="5.47947">
        <ele>1433.1999511719</ele>
        <time>2022-05-27T07:02:02.000Z</time>
      </trkpt>
      <trkpt lat="44.94414" lon="5.47955">
        <ele>1436</ele>
        <time>2022-05-27T07:02:32.000Z</time>
      </trkpt>
      <trkpt lat="44.94411" lon="5.47957">
        <ele>1436.1999511719</ele>
        <time>2022-05-27T07:02:36.000Z</time>
      </trkpt>
      <trkpt lat="44.9441" lon="5.47958">
        <ele>1436.4000244141</ele>
        <time>2022-05-27T07:02:38.000Z</time>
      </trkpt>
      <trkpt lat="44.94409" lon="5.4796">
        <ele>1436.5999755859</ele>
        <time>2022-05-27T07:02:41.000Z</time>
      </trkpt>
      <trkpt lat="44.94404" lon="5.47964">
        <ele>1437.1999511719</ele>
        <time>2022-05-27T07:02:49.000Z</time>
      </trkpt>
      <trkpt lat="44.94391" lon="5.47973">
        <ele>1438.5999755859</ele>
        <time>2022-05-27T07:03:06.000Z</time>
      </trkpt>
      <trkpt lat="44.94387" lon="5.47977">
        <ele>1439.1999511719</ele>
        <time>2022-05-27T07:03:11.000Z</time>
      </trkpt>
      <trkpt lat="44.94378" lon="5.47988">
        <ele>1440.5999755859</ele>
        <time>2022-05-27T07:03:23.000Z</time>
      </trkpt>
      <trkpt lat="44.94371" lon="5.48">
        <ele>1442.1999511719</ele>
        <time>2022-05-27T07:03:34.000Z</time>
      </trkpt>
      <trkpt lat="44.94365" lon="5.48017">
        <ele>1445.1999511719</ele>
        <time>2022-05-27T07:03:52.000Z</time>
      </trkpt>
      <trkpt lat="44.94365" lon="5.4802">
        <ele>1445.4000244141</ele>
        <time>2022-05-27T07:03:55.000Z</time>
      </trkpt>
      <trkpt lat="44.94365" lon="5.48032">
        <ele>1446.5999755859</ele>
        <time>2022-05-27T07:04:08.000Z</time>
      </trkpt>
      <trkpt lat="44.94365" lon="5.48036">
        <ele>1447</ele>
        <time>2022-05-27T07:04:11.000Z</time>
      </trkpt>
      <trkpt lat="44.94365" lon="5.48038">
        <ele>1447.1999511719</ele>
        <time>2022-05-27T07:04:12.000Z</time>
      </trkpt>
      <trkpt lat="44.94366" lon="5.48043">
        <ele>1447.8000488281</ele>
        <time>2022-05-27T07:04:16.000Z</time>
      </trkpt>
      <trkpt lat="44.94364" lon="5.48062">
        <ele>1449.1999511719</ele>
        <time>2022-05-27T07:04:29.000Z</time>
      </trkpt>
      <trkpt lat="44.94361" lon="5.48091">
        <ele>1450.8000488281</ele>
        <time>2022-05-27T07:04:46.000Z</time>
      </trkpt>
      <trkpt lat="44.94357" lon="5.48107">
        <ele>1451.1999511719</ele>
        <time>2022-05-27T07:04:58.000Z</time>
      </trkpt>
      <trkpt lat="44.94345" lon="5.4813">
        <ele>1451.5999755859</ele>
        <time>2022-05-27T07:05:15.000Z</time>
      </trkpt>
      <trkpt lat="44.94345" lon="5.48135">
        <ele>1451.8000488281</ele>
        <time>2022-05-27T07:05:19.000Z</time>
      </trkpt>
      <trkpt lat="44.94346" lon="5.48142">
        <ele>1452.4000244141</ele>
        <time>2022-05-27T07:05:27.000Z</time>
      </trkpt>
      <trkpt lat="44.94346" lon="5.48144">
        <ele>1452.5999755859</ele>
        <time>2022-05-27T07:05:30.000Z</time>
      </trkpt>
      <trkpt lat="44.94337" lon="5.48167">
        <ele>1455.4000244141</ele>
        <time>2022-05-27T07:05:48.000Z</time>
      </trkpt>
      <trkpt lat="44.94336" lon="5.48172">
        <ele>1456</ele>
        <time>2022-05-27T07:05:54.000Z</time>
      </trkpt>
      <trkpt lat="44.94336" lon="5.48175">
        <ele>1456.1999511719</ele>
        <time>2022-05-27T07:05:56.000Z</time>
      </trkpt>
      <trkpt lat="44.94325" lon="5.48196">
        <ele>1459.5999755859</ele>
        <time>2022-05-27T07:06:14.000Z</time>
      </trkpt>
      <trkpt lat="44.94304" lon="5.48244">
        <ele>1463.4000244141</ele>
        <time>2022-05-27T07:06:50.000Z</time>
      </trkpt>
      <trkpt lat="44.94303" lon="5.48266">
        <ele>1463.5999755859</ele>
        <time>2022-05-27T07:07:04.000Z</time>
      </trkpt>
      <trkpt lat="44.94296" lon="5.48293">
        <ele>1464.4000244141</ele>
        <time>2022-05-27T07:07:24.000Z</time>
      </trkpt>
      <trkpt lat="44.94296" lon="5.48316">
        <ele>1465.1999511719</ele>
        <time>2022-05-27T07:07:41.000Z</time>
      </trkpt>
      <trkpt lat="44.94296" lon="5.48318">
        <ele>1465.1999511719</ele>
        <time>2022-05-27T07:07:42.000Z</time>
      </trkpt>
      <trkpt lat="44.94296" lon="5.4832">
        <ele>1465.4000244141</ele>
        <time>2022-05-27T07:07:43.000Z</time>
      </trkpt>
      <trkpt lat="44.94296" lon="5.48324">
        <ele>1465.4000244141</ele>
        <time>2022-05-27T07:07:45.000Z</time>
      </trkpt>
      <trkpt lat="44.94296" lon="5.48326">
        <ele>1465.5999755859</ele>
        <time>2022-05-27T07:07:46.000Z</time>
      </trkpt>
      <trkpt lat="44.94296" lon="5.48327">
        <ele>1465.5999755859</ele>
        <time>2022-05-27T07:07:47.000Z</time>
      </trkpt>
      <trkpt lat="44.94295" lon="5.48338">
        <ele>1466.1999511719</ele>
        <time>2022-05-27T07:07:54.000Z</time>
      </trkpt>
      <trkpt lat="44.94294" lon="5.48339">
        <ele>1466.1999511719</ele>
        <time>2022-05-27T07:07:55.000Z</time>
      </trkpt>
      <trkpt lat="44.94294" lon="5.4834">
        <ele>1466.4000244141</ele>
        <time>2022-05-27T07:07:56.000Z</time>
      </trkpt>
      <trkpt lat="44.94295" lon="5.48344">
        <ele>1466.5999755859</ele>
        <time>2022-05-27T07:07:59.000Z</time>
      </trkpt>
      <trkpt lat="44.94294" lon="5.48345">
        <ele>1466.5999755859</ele>
        <time>2022-05-27T07:08:00.000Z</time>
      </trkpt>
      <trkpt lat="44.94294" lon="5.48347">
        <ele>1466.8000488281</ele>
        <time>2022-05-27T07:08:02.000Z</time>
      </trkpt>
      <trkpt lat="44.94293" lon="5.48351">
        <ele>1467.1999511719</ele>
        <time>2022-05-27T07:08:05.000Z</time>
      </trkpt>
      <trkpt lat="44.94293" lon="5.48353">
        <ele>1467.4000244141</ele>
        <time>2022-05-27T07:08:06.000Z</time>
      </trkpt>
      <trkpt lat="44.94292" lon="5.48357">
        <ele>1467.5999755859</ele>
        <time>2022-05-27T07:08:09.000Z</time>
      </trkpt>
      <trkpt lat="44.94293" lon="5.48361">
        <ele>1468</ele>
        <time>2022-05-27T07:08:12.000Z</time>
      </trkpt>
      <trkpt lat="44.94291" lon="5.48367">
        <ele>1468.1999511719</ele>
        <time>2022-05-27T07:08:17.000Z</time>
      </trkpt>
      <trkpt lat="44.94291" lon="5.4837">
        <ele>1468.1999511719</ele>
        <time>2022-05-27T07:08:19.000Z</time>
      </trkpt>
      <trkpt lat="44.94291" lon="5.48371">
        <ele>1468.4000244141</ele>
        <time>2022-05-27T07:08:20.000Z</time>
      </trkpt>
      <trkpt lat="44.94292" lon="5.48372">
        <ele>1468.1999511719</ele>
        <time>2022-05-27T07:08:21.000Z</time>
      </trkpt>
      <trkpt lat="44.94299" lon="5.48391">
        <ele>1468.4000244141</ele>
        <time>2022-05-27T07:08:39.000Z</time>
      </trkpt>
      <trkpt lat="44.94301" lon="5.48413">
        <ele>1468.1999511719</ele>
        <time>2022-05-27T07:08:52.000Z</time>
      </trkpt>
      <trkpt lat="44.94296" lon="5.48436">
        <ele>1468</ele>
        <time>2022-05-27T07:09:07.000Z</time>
      </trkpt>
      <trkpt lat="44.94283" lon="5.48455">
        <ele>1469.1999511719</ele>
        <time>2022-05-27T07:09:27.000Z</time>
      </trkpt>
      <trkpt lat="44.94272" lon="5.48481">
        <ele>1470.5999755859</ele>
        <time>2022-05-27T07:09:50.000Z</time>
      </trkpt>
      <trkpt lat="44.94272" lon="5.48482">
        <ele>1470.5999755859</ele>
        <time>2022-05-27T07:09:51.000Z</time>
      </trkpt>
      <trkpt lat="44.9427" lon="5.48484">
        <ele>1470.8000488281</ele>
        <time>2022-05-27T07:09:55.000Z</time>
      </trkpt>
      <trkpt lat="44.9427" lon="5.48485">
        <ele>1471</ele>
        <time>2022-05-27T07:09:56.000Z</time>
      </trkpt>
      <trkpt lat="44.94269" lon="5.48486">
        <ele>1471</ele>
        <time>2022-05-27T07:09:57.000Z</time>
      </trkpt>
      <trkpt lat="44.9427" lon="5.48486">
        <ele>1471</ele>
        <time>2022-05-27T07:09:58.000Z</time>
      </trkpt>
      <trkpt lat="44.9427" lon="5.48487">
        <ele>1471</ele>
        <time>2022-05-27T07:09:59.000Z</time>
      </trkpt>
      <trkpt lat="44.9427" lon="5.48488">
        <ele>1471</ele>
        <time>2022-05-27T07:10:00.000Z</time>
      </trkpt>
      <trkpt lat="44.94269" lon="5.4849">
        <ele>1471.1999511719</ele>
        <time>2022-05-27T07:10:01.000Z</time>
      </trkpt>
      <trkpt lat="44.94269" lon="5.48495">
        <ele>1471.4000244141</ele>
        <time>2022-05-27T07:10:06.000Z</time>
      </trkpt>
      <trkpt lat="44.94266" lon="5.48498">
        <ele>1471.5999755859</ele>
        <time>2022-05-27T07:10:11.000Z</time>
      </trkpt>
      <trkpt lat="44.94266" lon="5.48499">
        <ele>1471.8000488281</ele>
        <time>2022-05-27T07:10:12.000Z</time>
      </trkpt>
      <trkpt lat="44.94266" lon="5.485">
        <ele>1471.8000488281</ele>
        <time>2022-05-27T07:10:13.000Z</time>
      </trkpt>
      <trkpt lat="44.94262" lon="5.48507">
        <ele>1472.4000244141</ele>
        <time>2022-05-27T07:10:20.000Z</time>
      </trkpt>
      <trkpt lat="44.94262" lon="5.48511">
        <ele>1472.5999755859</ele>
        <time>2022-05-27T07:10:24.000Z</time>
      </trkpt>
      <trkpt lat="44.9426" lon="5.48514">
        <ele>1472.8000488281</ele>
        <time>2022-05-27T07:10:26.000Z</time>
      </trkpt>
      <trkpt lat="44.94259" lon="5.48516">
        <ele>1473</ele>
        <time>2022-05-27T07:10:27.000Z</time>
      </trkpt>
      <trkpt lat="44.94259" lon="5.48517">
        <ele>1473.1999511719</ele>
        <time>2022-05-27T07:10:28.000Z</time>
      </trkpt>
      <trkpt lat="44.94258" lon="5.48518">
        <ele>1473.4000244141</ele>
        <time>2022-05-27T07:10:29.000Z</time>
      </trkpt>
      <trkpt lat="44.94258" lon="5.48521">
        <ele>1473.5999755859</ele>
        <time>2022-05-27T07:10:30.000Z</time>
      </trkpt>
      <trkpt lat="44.94257" lon="5.48526">
        <ele>1473.8000488281</ele>
        <time>2022-05-27T07:10:33.000Z</time>
      </trkpt>
      <trkpt lat="44.94252" lon="5.48542">
        <ele>1476</ele>
        <time>2022-05-27T07:10:45.000Z</time>
      </trkpt>
      <trkpt lat="44.94253" lon="5.48543">
        <ele>1476</ele>
        <time>2022-05-27T07:10:46.000Z</time>
      </trkpt>
      <trkpt lat="44.94248" lon="5.48554">
        <ele>1477</ele>
        <time>2022-05-27T07:10:57.000Z</time>
      </trkpt>
      <trkpt lat="44.94248" lon="5.48556">
        <ele>1477.1999511719</ele>
        <time>2022-05-27T07:11:00.000Z</time>
      </trkpt>
      <trkpt lat="44.94247" lon="5.48557">
        <ele>1477.4000244141</ele>
        <time>2022-05-27T07:11:01.000Z</time>
      </trkpt>
      <trkpt lat="44.94247" lon="5.48557">
        <ele>1477.4000244141</ele>
        <time>2022-05-27T07:11:02.000Z</time>
      </trkpt>
      <trkpt lat="44.94245" lon="5.48559">
        <ele>1477.8000488281</ele>
        <time>2022-05-27T07:11:05.000Z</time>
      </trkpt>
      <trkpt lat="44.94238" lon="5.48571">
        <ele>1479.5999755859</ele>
        <time>2022-05-27T07:11:17.000Z</time>
      </trkpt>
      <trkpt lat="44.9423" lon="5.48591">
        <ele>1482</ele>
        <time>2022-05-27T07:11:33.000Z</time>
      </trkpt>
      <trkpt lat="44.94228" lon="5.486">
        <ele>1483</ele>
        <time>2022-05-27T07:11:41.000Z</time>
      </trkpt>
      <trkpt lat="44.94227" lon="5.48602">
        <ele>1483.1999511719</ele>
        <time>2022-05-27T07:11:42.000Z</time>
      </trkpt>
      <trkpt lat="44.94226" lon="5.48603">
        <ele>1483.4000244141</ele>
        <time>2022-05-27T07:11:43.000Z</time>
      </trkpt>
      <trkpt lat="44.94219" lon="5.48634">
        <ele>1486</ele>
        <time>2022-05-27T07:12:11.000Z</time>
      </trkpt>
      <trkpt lat="44.94216" lon="5.48639">
        <ele>1486.4000244141</ele>
        <time>2022-05-27T07:12:15.000Z</time>
      </trkpt>
      <trkpt lat="44.94212" lon="5.48644">
        <ele>1487.1999511719</ele>
        <time>2022-05-27T07:12:41.000Z</time>
      </trkpt>
      <trkpt lat="44.94211" lon="5.48643">
        <ele>1487.1999511719</ele>
        <time>2022-05-27T07:12:50.000Z</time>
      </trkpt>
      <trkpt lat="44.94211" lon="5.48644">
        <ele>1487.1999511719</ele>
        <time>2022-05-27T07:12:56.000Z</time>
      </trkpt>
      <trkpt lat="44.94211" lon="5.48643">
        <ele>1487.1999511719</ele>
        <time>2022-05-27T07:13:06.000Z</time>
      </trkpt>
      <trkpt lat="44.94212" lon="5.48644">
        <ele>1487.1999511719</ele>
        <time>2022-05-27T07:13:22.000Z</time>
      </trkpt>
      <trkpt lat="44.94206" lon="5.48653">
        <ele>1487</ele>
        <time>2022-05-27T07:14:16.000Z</time>
      </trkpt>
      <trkpt lat="44.94177" lon="5.487">
        <ele>1491.4000244141</ele>
        <time>2022-05-27T07:14:51.000Z</time>
      </trkpt>
      <trkpt lat="44.94155" lon="5.48741">
        <ele>1494.8000488281</ele>
        <time>2022-05-27T07:15:10.000Z</time>
      </trkpt>
      <trkpt lat="44.94152" lon="5.48746">
        <ele>1495</ele>
        <time>2022-05-27T07:15:13.000Z</time>
      </trkpt>
      <trkpt lat="44.94151" lon="5.48747">
        <ele>1495</ele>
        <time>2022-05-27T07:15:14.000Z</time>
      </trkpt>
      <trkpt lat="44.9415" lon="5.48748">
        <ele>1495.1999511719</ele>
        <time>2022-05-27T07:15:15.000Z</time>
      </trkpt>
      <trkpt lat="44.94149" lon="5.4875">
        <ele>1495.4000244141</ele>
        <time>2022-05-27T07:15:16.000Z</time>
      </trkpt>
      <trkpt lat="44.94148" lon="5.48755">
        <ele>1496</ele>
        <time>2022-05-27T07:15:19.000Z</time>
      </trkpt>
      <trkpt lat="44.94146" lon="5.48762">
        <ele>1496.5999755859</ele>
        <time>2022-05-27T07:15:24.000Z</time>
      </trkpt>
      <trkpt lat="44.94145" lon="5.48764">
        <ele>1496.8000488281</ele>
        <time>2022-05-27T07:15:26.000Z</time>
      </trkpt>
      <trkpt lat="44.94144" lon="5.48766">
        <ele>1497</ele>
        <time>2022-05-27T07:15:27.000Z</time>
      </trkpt>
      <trkpt lat="44.94142" lon="5.48769">
        <ele>1497.5999755859</ele>
        <time>2022-05-27T07:15:29.000Z</time>
      </trkpt>
      <trkpt lat="44.94141" lon="5.4877">
        <ele>1497.8000488281</ele>
        <time>2022-05-27T07:15:30.000Z</time>
      </trkpt>
      <trkpt lat="44.94139" lon="5.48773">
        <ele>1498.1999511719</ele>
        <time>2022-05-27T07:15:32.000Z</time>
      </trkpt>
      <trkpt lat="44.94137" lon="5.48775">
        <ele>1498.5999755859</ele>
        <time>2022-05-27T07:15:35.000Z</time>
      </trkpt>
      <trkpt lat="44.94134" lon="5.48778">
        <ele>1499</ele>
        <time>2022-05-27T07:15:39.000Z</time>
      </trkpt>
      <trkpt lat="44.94133" lon="5.4878">
        <ele>1499.4000244141</ele>
        <time>2022-05-27T07:15:44.000Z</time>
      </trkpt>
      <trkpt lat="44.94133" lon="5.4878">
        <ele>1499.5999755859</ele>
        <time>2022-05-27T07:15:50.000Z</time>
      </trkpt>
      <trkpt lat="44.9413" lon="5.48787">
        <ele>1500.5999755859</ele>
        <time>2022-05-27T07:15:58.000Z</time>
      </trkpt>
      <trkpt lat="44.94127" lon="5.48795">
        <ele>1500.8000488281</ele>
        <time>2022-05-27T07:16:03.000Z</time>
      </trkpt>
      <trkpt lat="44.94126" lon="5.48799">
        <ele>1500.8000488281</ele>
        <time>2022-05-27T07:16:06.000Z</time>
      </trkpt>
      <trkpt lat="44.94125" lon="5.48804">
        <ele>1500.8000488281</ele>
        <time>2022-05-27T07:16:11.000Z</time>
      </trkpt>
      <trkpt lat="44.94124" lon="5.48805">
        <ele>1501</ele>
        <time>2022-05-27T07:16:12.000Z</time>
      </trkpt>
      <trkpt lat="44.94122" lon="5.48811">
        <ele>1502.1999511719</ele>
        <time>2022-05-27T07:16:17.000Z</time>
      </trkpt>
      <trkpt lat="44.94122" lon="5.48819">
        <ele>1503</ele>
        <time>2022-05-27T07:16:22.000Z</time>
      </trkpt>
      <trkpt lat="44.9412" lon="5.48825">
        <ele>1504.4000244141</ele>
        <time>2022-05-27T07:16:28.000Z</time>
      </trkpt>
      <trkpt lat="44.94121" lon="5.48827">
        <ele>1504</ele>
        <time>2022-05-27T07:16:33.000Z</time>
      </trkpt>
      <trkpt lat="44.9412" lon="5.48829">
        <ele>1504.5999755859</ele>
        <time>2022-05-27T07:16:37.000Z</time>
      </trkpt>
      <trkpt lat="44.9412" lon="5.48834">
        <ele>1504.8000488281</ele>
        <time>2022-05-27T07:16:42.000Z</time>
      </trkpt>
      <trkpt lat="44.94121" lon="5.48838">
        <ele>1505</ele>
        <time>2022-05-27T07:16:46.000Z</time>
      </trkpt>
      <trkpt lat="44.94121" lon="5.48839">
        <ele>1505.1999511719</ele>
        <time>2022-05-27T07:16:47.000Z</time>
      </trkpt>
      <trkpt lat="44.94116" lon="5.48846">
        <ele>1507</ele>
        <time>2022-05-27T07:16:54.000Z</time>
      </trkpt>
      <trkpt lat="44.94116" lon="5.48855">
        <ele>1507.8000488281</ele>
        <time>2022-05-27T07:17:03.000Z</time>
      </trkpt>
      <trkpt lat="44.94115" lon="5.48869">
        <ele>1509.4000244141</ele>
        <time>2022-05-27T07:17:20.000Z</time>
      </trkpt>
      <trkpt lat="44.94104" lon="5.48871">
        <ele>1511</ele>
        <time>2022-05-27T07:17:30.000Z</time>
      </trkpt>
      <trkpt lat="44.94099" lon="5.48882">
        <ele>1511.5999755859</ele>
        <time>2022-05-27T07:17:42.000Z</time>
      </trkpt>
      <trkpt lat="44.94093" lon="5.48898">
        <ele>1513.1999511719</ele>
        <time>2022-05-27T07:17:56.000Z</time>
      </trkpt>
      <trkpt lat="44.94086" lon="5.48916">
        <ele>1515</ele>
        <time>2022-05-27T07:18:12.000Z</time>
      </trkpt>
      <trkpt lat="44.94065" lon="5.48958">
        <ele>1520.5999755859</ele>
        <time>2022-05-27T07:18:49.000Z</time>
      </trkpt>
      <trkpt lat="44.94049" lon="5.48986">
        <ele>1524.5999755859</ele>
        <time>2022-05-27T07:19:20.000Z</time>
      </trkpt>
      <trkpt lat="44.94046" lon="5.49012">
        <ele>1526.5999755859</ele>
        <time>2022-05-27T07:19:39.000Z</time>
      </trkpt>
      <trkpt lat="44.94043" lon="5.49019">
        <ele>1527.1999511719</ele>
        <time>2022-05-27T07:19:47.000Z</time>
      </trkpt>
      <trkpt lat="44.94035" lon="5.49033">
        <ele>1529.5999755859</ele>
        <time>2022-05-27T07:20:02.000Z</time>
      </trkpt>
      <trkpt lat="44.94034" lon="5.49034">
        <ele>1529.8000488281</ele>
        <time>2022-05-27T07:20:03.000Z</time>
      </trkpt>
      <trkpt lat="44.94033" lon="5.49035">
        <ele>1530.1999511719</ele>
        <time>2022-05-27T07:20:04.000Z</time>
      </trkpt>
      <trkpt lat="44.94032" lon="5.49036">
        <ele>1530.4000244141</ele>
        <time>2022-05-27T07:20:05.000Z</time>
      </trkpt>
      <trkpt lat="44.94029" lon="5.49038">
        <ele>1531</ele>
        <time>2022-05-27T07:20:11.000Z</time>
      </trkpt>
      <trkpt lat="44.94014" lon="5.49054">
        <ele>1533.8000488281</ele>
        <time>2022-05-27T07:20:27.000Z</time>
      </trkpt>
      <trkpt lat="44.94008" lon="5.49059">
        <ele>1535.4000244141</ele>
        <time>2022-05-27T07:20:33.000Z</time>
      </trkpt>
      <trkpt lat="44.94005" lon="5.4906">
        <ele>1536</ele>
        <time>2022-05-27T07:20:36.000Z</time>
      </trkpt>
      <trkpt lat="44.94002" lon="5.49061">
        <ele>1536.5999755859</ele>
        <time>2022-05-27T07:20:39.000Z</time>
      </trkpt>
      <trkpt lat="44.94001" lon="5.49062">
        <ele>1537.1999511719</ele>
        <time>2022-05-27T07:20:42.000Z</time>
      </trkpt>
      <trkpt lat="44.94" lon="5.49065">
        <ele>1537.8000488281</ele>
        <time>2022-05-27T07:20:45.000Z</time>
      </trkpt>
      <trkpt lat="44.93998" lon="5.49066">
        <ele>1538.4000244141</ele>
        <time>2022-05-27T07:20:48.000Z</time>
      </trkpt>
      <trkpt lat="44.93994" lon="5.49069">
        <ele>1539</ele>
        <time>2022-05-27T07:20:56.000Z</time>
      </trkpt>
      <trkpt lat="44.93992" lon="5.49085">
        <ele>1540.1999511719</ele>
        <time>2022-05-27T07:21:14.000Z</time>
      </trkpt>
      <trkpt lat="44.93991" lon="5.49087">
        <ele>1540.4000244141</ele>
        <time>2022-05-27T07:21:16.000Z</time>
      </trkpt>
      <trkpt lat="44.9399" lon="5.49094">
        <ele>1541</ele>
        <time>2022-05-27T07:21:21.000Z</time>
      </trkpt>
      <trkpt lat="44.93988" lon="5.49102">
        <ele>1541.4000244141</ele>
        <time>2022-05-27T07:21:28.000Z</time>
      </trkpt>
      <trkpt lat="44.93985" lon="5.49111">
        <ele>1542</ele>
        <time>2022-05-27T07:21:35.000Z</time>
      </trkpt>
      <trkpt lat="44.93978" lon="5.49121">
        <ele>1544.4000244141</ele>
        <time>2022-05-27T07:21:45.000Z</time>
      </trkpt>
      <trkpt lat="44.93975" lon="5.49132">
        <ele>1546</ele>
        <time>2022-05-27T07:21:56.000Z</time>
      </trkpt>
      <trkpt lat="44.93974" lon="5.49134">
        <ele>1546.4000244141</ele>
        <time>2022-05-27T07:21:58.000Z</time>
      </trkpt>
      <trkpt lat="44.93967" lon="5.49147">
        <ele>1548.4000244141</ele>
        <time>2022-05-27T07:22:07.000Z</time>
      </trkpt>
      <trkpt lat="44.93961" lon="5.49157">
        <ele>1549.8000488281</ele>
        <time>2022-05-27T07:22:16.000Z</time>
      </trkpt>
      <trkpt lat="44.93959" lon="5.49172">
        <ele>1551.5999755859</ele>
        <time>2022-05-27T07:22:33.000Z</time>
      </trkpt>
      <trkpt lat="44.93957" lon="5.49178">
        <ele>1552.5999755859</ele>
        <time>2022-05-27T07:22:39.000Z</time>
      </trkpt>
      <trkpt lat="44.93957" lon="5.49179">
        <ele>1552.8000488281</ele>
        <time>2022-05-27T07:22:40.000Z</time>
      </trkpt>
      <trkpt lat="44.93955" lon="5.49182">
        <ele>1553.5999755859</ele>
        <time>2022-05-27T07:22:43.000Z</time>
      </trkpt>
      <trkpt lat="44.93954" lon="5.49184">
        <ele>1554.1999511719</ele>
        <time>2022-05-27T07:22:46.000Z</time>
      </trkpt>
      <trkpt lat="44.93954" lon="5.49188">
        <ele>1554.8000488281</ele>
        <time>2022-05-27T07:22:52.000Z</time>
      </trkpt>
      <trkpt lat="44.93949" lon="5.49199">
        <ele>1557.4000244141</ele>
        <time>2022-05-27T07:23:05.000Z</time>
      </trkpt>
      <trkpt lat="44.93943" lon="5.49206">
        <ele>1560</ele>
        <time>2022-05-27T07:23:16.000Z</time>
      </trkpt>
      <trkpt lat="44.9394" lon="5.49211">
        <ele>1561.4000244141</ele>
        <time>2022-05-27T07:23:22.000Z</time>
      </trkpt>
      <trkpt lat="44.93939" lon="5.49214">
        <ele>1562</ele>
        <time>2022-05-27T07:23:27.000Z</time>
      </trkpt>
      <trkpt lat="44.93939" lon="5.49215">
        <ele>1562</ele>
        <time>2022-05-27T07:23:28.000Z</time>
      </trkpt>
      <trkpt lat="44.93937" lon="5.49224">
        <ele>1564</ele>
        <time>2022-05-27T07:23:37.000Z</time>
      </trkpt>
      <trkpt lat="44.9393" lon="5.49243">
        <ele>1567.1999511719</ele>
        <time>2022-05-27T07:23:56.000Z</time>
      </trkpt>
      <trkpt lat="44.9393" lon="5.49251">
        <ele>1568</ele>
        <time>2022-05-27T07:24:02.000Z</time>
      </trkpt>
      <trkpt lat="44.9393" lon="5.49252">
        <ele>1568.1999511719</ele>
        <time>2022-05-27T07:24:03.000Z</time>
      </trkpt>
      <trkpt lat="44.9393" lon="5.49255">
        <ele>1568.4000244141</ele>
        <time>2022-05-27T07:24:05.000Z</time>
      </trkpt>
      <trkpt lat="44.93931" lon="5.49258">
        <ele>1568.5999755859</ele>
        <time>2022-05-27T07:24:08.000Z</time>
      </trkpt>
      <trkpt lat="44.9393" lon="5.49262">
        <ele>1568.8000488281</ele>
        <time>2022-05-27T07:24:13.000Z</time>
      </trkpt>
      <trkpt lat="44.9393" lon="5.49264">
        <ele>1569</ele>
        <time>2022-05-27T07:24:16.000Z</time>
      </trkpt>
      <trkpt lat="44.93929" lon="5.4927">
        <ele>1569.4000244141</ele>
        <time>2022-05-27T07:24:22.000Z</time>
      </trkpt>
      <trkpt lat="44.93929" lon="5.49271">
        <ele>1569.5999755859</ele>
        <time>2022-05-27T07:24:23.000Z</time>
      </trkpt>
      <trkpt lat="44.93928" lon="5.49272">
        <ele>1569.5999755859</ele>
        <time>2022-05-27T07:24:24.000Z</time>
      </trkpt>
      <trkpt lat="44.93928" lon="5.49275">
        <ele>1570</ele>
        <time>2022-05-27T07:24:27.000Z</time>
      </trkpt>
      <trkpt lat="44.93926" lon="5.49279">
        <ele>1570.4000244141</ele>
        <time>2022-05-27T07:24:31.000Z</time>
      </trkpt>
      <trkpt lat="44.93924" lon="5.49281">
        <ele>1571.1999511719</ele>
        <time>2022-05-27T07:24:35.000Z</time>
      </trkpt>
      <trkpt lat="44.93922" lon="5.49285">
        <ele>1571.8000488281</ele>
        <time>2022-05-27T07:24:39.000Z</time>
      </trkpt>
      <trkpt lat="44.93921" lon="5.49285">
        <ele>1572</ele>
        <time>2022-05-27T07:24:40.000Z</time>
      </trkpt>
      <trkpt lat="44.93921" lon="5.49288">
        <ele>1572.4000244141</ele>
        <time>2022-05-27T07:24:43.000Z</time>
      </trkpt>
      <trkpt lat="44.93919" lon="5.49294">
        <ele>1573.5999755859</ele>
        <time>2022-05-27T07:24:46.000Z</time>
      </trkpt>
      <trkpt lat="44.93917" lon="5.49297">
        <ele>1574</ele>
        <time>2022-05-27T07:24:47.000Z</time>
      </trkpt>
      <trkpt lat="44.93917" lon="5.49299">
        <ele>1574.1999511719</ele>
        <time>2022-05-27T07:24:48.000Z</time>
      </trkpt>
      <trkpt lat="44.93916" lon="5.49305">
        <ele>1574.8000488281</ele>
        <time>2022-05-27T07:24:51.000Z</time>
      </trkpt>
      <trkpt lat="44.93915" lon="5.49308">
        <ele>1575.1999511719</ele>
        <time>2022-05-27T07:24:53.000Z</time>
      </trkpt>
      <trkpt lat="44.93913" lon="5.49313">
        <ele>1576</ele>
        <time>2022-05-27T07:24:58.000Z</time>
      </trkpt>
      <trkpt lat="44.93912" lon="5.49317">
        <ele>1576.4000244141</ele>
        <time>2022-05-27T07:25:02.000Z</time>
      </trkpt>
      <trkpt lat="44.93914" lon="5.49319">
        <ele>1576.5999755859</ele>
        <time>2022-05-27T07:25:06.000Z</time>
      </trkpt>
      <trkpt lat="44.93913" lon="5.49325">
        <ele>1577.1999511719</ele>
        <time>2022-05-27T07:25:12.000Z</time>
      </trkpt>
      <trkpt lat="44.93911" lon="5.49332">
        <ele>1578.1999511719</ele>
        <time>2022-05-27T07:25:18.000Z</time>
      </trkpt>
      <trkpt lat="44.93911" lon="5.49334">
        <ele>1578.4000244141</ele>
        <time>2022-05-27T07:25:20.000Z</time>
      </trkpt>
      <trkpt lat="44.93909" lon="5.49339">
        <ele>1579.1999511719</ele>
        <time>2022-05-27T07:25:24.000Z</time>
      </trkpt>
      <trkpt lat="44.93905" lon="5.49348">
        <ele>1580.4000244141</ele>
        <time>2022-05-27T07:25:31.000Z</time>
      </trkpt>
      <trkpt lat="44.93901" lon="5.49358">
        <ele>1581.5999755859</ele>
        <time>2022-05-27T07:25:39.000Z</time>
      </trkpt>
      <trkpt lat="44.939" lon="5.49363">
        <ele>1582.1999511719</ele>
        <time>2022-05-27T07:25:42.000Z</time>
      </trkpt>
      <trkpt lat="44.93893" lon="5.49372">
        <ele>1582.5999755859</ele>
        <time>2022-05-27T07:25:49.000Z</time>
      </trkpt>
      <trkpt lat="44.93898" lon="5.4938">
        <ele>1582.8000488281</ele>
        <time>2022-05-27T07:26:04.000Z</time>
      </trkpt>
      <trkpt lat="44.93894" lon="5.49379">
        <ele>1582.8000488281</ele>
        <time>2022-05-27T07:26:18.000Z</time>
      </trkpt>
      <trkpt lat="44.93896" lon="5.49379">
        <ele>1582.8000488281</ele>
        <time>2022-05-27T07:26:23.000Z</time>
      </trkpt>
      <trkpt lat="44.93897" lon="5.49378">
        <ele>1582.8000488281</ele>
        <time>2022-05-27T07:26:32.000Z</time>
      </trkpt>
      <trkpt lat="44.93897" lon="5.4938">
        <ele>1582.8000488281</ele>
        <time>2022-05-27T07:26:39.000Z</time>
      </trkpt>
      <trkpt lat="44.93899" lon="5.49381">
        <ele>1582.8000488281</ele>
        <time>2022-05-27T07:26:48.000Z</time>
      </trkpt>
      <trkpt lat="44.939" lon="5.49381">
        <ele>1582.8000488281</ele>
        <time>2022-05-27T07:26:53.000Z</time>
      </trkpt>
      <trkpt lat="44.939" lon="5.4938">
        <ele>1582.5999755859</ele>
        <time>2022-05-27T07:26:57.000Z</time>
      </trkpt>
      <trkpt lat="44.93899" lon="5.4938">
        <ele>1582.8000488281</ele>
        <time>2022-05-27T07:27:08.000Z</time>
      </trkpt>
      <trkpt lat="44.93897" lon="5.49378">
        <ele>1582.8000488281</ele>
        <time>2022-05-27T07:27:20.000Z</time>
      </trkpt>
      <trkpt lat="44.93897" lon="5.49377">
        <ele>1582.8000488281</ele>
        <time>2022-05-27T07:27:42.000Z</time>
      </trkpt>
      <trkpt lat="44.93899" lon="5.49379">
        <ele>1582.8000488281</ele>
        <time>2022-05-27T07:27:52.000Z</time>
      </trkpt>
      <trkpt lat="44.93898" lon="5.49378">
        <ele>1582.8000488281</ele>
        <time>2022-05-27T07:28:07.000Z</time>
      </trkpt>
      <trkpt lat="44.93898" lon="5.49378">
        <ele>1582.8000488281</ele>
        <time>2022-05-27T07:28:08.000Z</time>
      </trkpt>
      <trkpt lat="44.93898" lon="5.49378">
        <ele>1582.8000488281</ele>
        <time>2022-05-27T07:28:09.000Z</time>
      </trkpt>
      <trkpt lat="44.93898" lon="5.49378">
        <ele>1582.8000488281</ele>
        <time>2022-05-27T07:28:10.000Z</time>
      </trkpt>
      <trkpt lat="44.93899" lon="5.4938">
        <ele>1582.8000488281</ele>
        <time>2022-05-27T07:28:16.000Z</time>
      </trkpt>
      <trkpt lat="44.93902" lon="5.49381">
        <ele>1582.8000488281</ele>
        <time>2022-05-27T07:28:22.000Z</time>
      </trkpt>
      <trkpt lat="44.93891" lon="5.49379">
        <ele>1583</ele>
        <time>2022-05-27T07:29:54.000Z</time>
      </trkpt>
      <trkpt lat="44.93894" lon="5.4938">
        <ele>1583</ele>
        <time>2022-05-27T07:29:57.000Z</time>
      </trkpt>
      <trkpt lat="44.93894" lon="5.49379">
        <ele>1583</ele>
        <time>2022-05-27T07:29:58.000Z</time>
      </trkpt>
      <trkpt lat="44.93901" lon="5.49385">
        <ele>1582.8000488281</ele>
        <time>2022-05-27T07:30:55.000Z</time>
      </trkpt>
      <trkpt lat="44.93897" lon="5.49393">
        <ele>1583.1999511719</ele>
        <time>2022-05-27T07:31:10.000Z</time>
      </trkpt>
      <trkpt lat="44.93897" lon="5.49394">
        <ele>1583.4000244141</ele>
        <time>2022-05-27T07:31:11.000Z</time>
      </trkpt>
      <trkpt lat="44.93896" lon="5.49395">
        <ele>1583.4000244141</ele>
        <time>2022-05-27T07:31:12.000Z</time>
      </trkpt>
      <trkpt lat="44.93894" lon="5.49396">
        <ele>1583.5999755859</ele>
        <time>2022-05-27T07:31:15.000Z</time>
      </trkpt>
      <trkpt lat="44.93893" lon="5.49396">
        <ele>1583.5999755859</ele>
        <time>2022-05-27T07:31:16.000Z</time>
      </trkpt>
      <trkpt lat="44.93892" lon="5.49397">
        <ele>1583.5999755859</ele>
        <time>2022-05-27T07:31:17.000Z</time>
      </trkpt>
      <trkpt lat="44.93892" lon="5.49398">
        <ele>1583.5999755859</ele>
        <time>2022-05-27T07:31:18.000Z</time>
      </trkpt>
      <trkpt lat="44.93892" lon="5.49398">
        <ele>1583.5999755859</ele>
        <time>2022-05-27T07:31:19.000Z</time>
      </trkpt>
      <trkpt lat="44.93891" lon="5.49399">
        <ele>1583.8000488281</ele>
        <time>2022-05-27T07:31:20.000Z</time>
      </trkpt>
      <trkpt lat="44.93889" lon="5.494">
        <ele>1583.8000488281</ele>
        <time>2022-05-27T07:31:23.000Z</time>
      </trkpt>
      <trkpt lat="44.93886" lon="5.49401">
        <ele>1583.8000488281</ele>
        <time>2022-05-27T07:31:25.000Z</time>
      </trkpt>
      <trkpt lat="44.93886" lon="5.49402">
        <ele>1584</ele>
        <time>2022-05-27T07:31:26.000Z</time>
      </trkpt>
      <trkpt lat="44.93885" lon="5.49402">
        <ele>1584</ele>
        <time>2022-05-27T07:31:27.000Z</time>
      </trkpt>
      <trkpt lat="44.93884" lon="5.49405">
        <ele>1584</ele>
        <time>2022-05-27T07:31:32.000Z</time>
      </trkpt>
      <trkpt lat="44.93883" lon="5.49405">
        <ele>1584</ele>
        <time>2022-05-27T07:31:33.000Z</time>
      </trkpt>
      <trkpt lat="44.93878" lon="5.49408">
        <ele>1583.8000488281</ele>
        <time>2022-05-27T07:31:39.000Z</time>
      </trkpt>
      <trkpt lat="44.93877" lon="5.49409">
        <ele>1583.8000488281</ele>
        <time>2022-05-27T07:31:40.000Z</time>
      </trkpt>
      <trkpt lat="44.93864" lon="5.49436">
        <ele>1588</ele>
        <time>2022-05-27T07:32:04.000Z</time>
      </trkpt>
      <trkpt lat="44.93864" lon="5.49437">
        <ele>1588.4000244141</ele>
        <time>2022-05-27T07:32:05.000Z</time>
      </trkpt>
      <trkpt lat="44.93859" lon="5.49443">
        <ele>1590.4000244141</ele>
        <time>2022-05-27T07:32:11.000Z</time>
      </trkpt>
      <trkpt lat="44.93852" lon="5.49457">
        <ele>1594</ele>
        <time>2022-05-27T07:32:24.000Z</time>
      </trkpt>
      <trkpt lat="44.93851" lon="5.49462">
        <ele>1594.8000488281</ele>
        <time>2022-05-27T07:32:28.000Z</time>
      </trkpt>
      <trkpt lat="44.93851" lon="5.49471">
        <ele>1595.8000488281</ele>
        <time>2022-05-27T07:32:35.000Z</time>
      </trkpt>
      <trkpt lat="44.93849" lon="5.49483">
        <ele>1597.5999755859</ele>
        <time>2022-05-27T07:32:47.000Z</time>
      </trkpt>
      <trkpt lat="44.93848" lon="5.49486">
        <ele>1597.8000488281</ele>
        <time>2022-05-27T07:32:53.000Z</time>
      </trkpt>
      <trkpt lat="44.93846" lon="5.495">
        <ele>1599</ele>
        <time>2022-05-27T07:33:16.000Z</time>
      </trkpt>
      <trkpt lat="44.93844" lon="5.49506">
        <ele>1600</ele>
        <time>2022-05-27T07:33:22.000Z</time>
      </trkpt>
      <trkpt lat="44.93822" lon="5.49549">
        <ele>1606.5999755859</ele>
        <time>2022-05-27T07:34:15.000Z</time>
      </trkpt>
      <trkpt lat="44.93815" lon="5.49577">
        <ele>1608.1999511719</ele>
        <time>2022-05-27T07:34:40.000Z</time>
      </trkpt>
      <trkpt lat="44.93813" lon="5.49589">
        <ele>1609</ele>
        <time>2022-05-27T07:34:51.000Z</time>
      </trkpt>
      <trkpt lat="44.93809" lon="5.49594">
        <ele>1609.8000488281</ele>
        <time>2022-05-27T07:34:56.000Z</time>
      </trkpt>
      <trkpt lat="44.93808" lon="5.49597">
        <ele>1610.1999511719</ele>
        <time>2022-05-27T07:35:01.000Z</time>
      </trkpt>
      <trkpt lat="44.93803" lon="5.49613">
        <ele>1610.1999511719</ele>
        <time>2022-05-27T07:35:29.000Z</time>
      </trkpt>
      <trkpt lat="44.93792" lon="5.49631">
        <ele>1609.1999511719</ele>
        <time>2022-05-27T07:36:08.000Z</time>
      </trkpt>
      <trkpt lat="44.93792" lon="5.49632">
        <ele>1609.4000244141</ele>
        <time>2022-05-27T07:36:13.000Z</time>
      </trkpt>
      <trkpt lat="44.93794" lon="5.49632">
        <ele>1609.5999755859</ele>
        <time>2022-05-27T07:36:23.000Z</time>
      </trkpt>
      <trkpt lat="44.93788" lon="5.49647">
        <ele>1609</ele>
        <time>2022-05-27T07:36:34.000Z</time>
      </trkpt>
      <trkpt lat="44.93788" lon="5.4965">
        <ele>1609</ele>
        <time>2022-05-27T07:36:40.000Z</time>
      </trkpt>
      <trkpt lat="44.93783" lon="5.49667">
        <ele>1609</ele>
        <time>2022-05-27T07:37:06.000Z</time>
      </trkpt>
      <trkpt lat="44.93777" lon="5.49677">
        <ele>1608.5999755859</ele>
        <time>2022-05-27T07:37:14.000Z</time>
      </trkpt>
      <trkpt lat="44.93777" lon="5.49683">
        <ele>1608.1999511719</ele>
        <time>2022-05-27T07:37:18.000Z</time>
      </trkpt>
      <trkpt lat="44.93777" lon="5.49689">
        <ele>1607.4000244141</ele>
        <time>2022-05-27T07:37:25.000Z</time>
      </trkpt>
      <trkpt lat="44.93775" lon="5.49692">
        <ele>1606.5999755859</ele>
        <time>2022-05-27T07:37:28.000Z</time>
      </trkpt>
      <trkpt lat="44.93773" lon="5.49697">
        <ele>1606</ele>
        <time>2022-05-27T07:37:32.000Z</time>
      </trkpt>
      <trkpt lat="44.93767" lon="5.49714">
        <ele>1604</ele>
        <time>2022-05-27T07:37:50.000Z</time>
      </trkpt>
      <trkpt lat="44.93763" lon="5.49721">
        <ele>1603.1999511719</ele>
        <time>2022-05-27T07:37:54.000Z</time>
      </trkpt>
      <trkpt lat="44.93762" lon="5.49723">
        <ele>1603</ele>
        <time>2022-05-27T07:37:55.000Z</time>
      </trkpt>
      <trkpt lat="44.93741" lon="5.4977">
        <ele>1600</ele>
        <time>2022-05-27T07:38:31.000Z</time>
      </trkpt>
      <trkpt lat="44.93733" lon="5.49785">
        <ele>1598.5999755859</ele>
        <time>2022-05-27T07:38:47.000Z</time>
      </trkpt>
      <trkpt lat="44.9373" lon="5.49796">
        <ele>1598</ele>
        <time>2022-05-27T07:38:54.000Z</time>
      </trkpt>
      <trkpt lat="44.93728" lon="5.49798">
        <ele>1597.8000488281</ele>
        <time>2022-05-27T07:38:56.000Z</time>
      </trkpt>
      <trkpt lat="44.93706" lon="5.49852">
        <ele>1599.4000244141</ele>
        <time>2022-05-27T07:39:36.000Z</time>
      </trkpt>
      <trkpt lat="44.93705" lon="5.49857">
        <ele>1599.8000488281</ele>
        <time>2022-05-27T07:39:40.000Z</time>
      </trkpt>
      <trkpt lat="44.93697" lon="5.49887">
        <ele>1601.4000244141</ele>
        <time>2022-05-27T07:39:59.000Z</time>
      </trkpt>
      <trkpt lat="44.9368" lon="5.4992">
        <ele>1603</ele>
        <time>2022-05-27T07:40:24.000Z</time>
      </trkpt>
      <trkpt lat="44.93666" lon="5.49958">
        <ele>1603.4000244141</ele>
        <time>2022-05-27T07:40:55.000Z</time>
      </trkpt>
      <trkpt lat="44.93655" lon="5.49995">
        <ele>1601.4000244141</ele>
        <time>2022-05-27T07:41:19.000Z</time>
      </trkpt>
      <trkpt lat="44.93643" lon="5.50021">
        <ele>1603.5999755859</ele>
        <time>2022-05-27T07:41:41.000Z</time>
      </trkpt>
      <trkpt lat="44.93619" lon="5.50063">
        <ele>1612.4000244141</ele>
        <time>2022-05-27T07:42:41.000Z</time>
      </trkpt>
      <trkpt lat="44.93617" lon="5.50065">
        <ele>1612.8000488281</ele>
        <time>2022-05-27T07:42:44.000Z</time>
      </trkpt>
      <trkpt lat="44.93617" lon="5.50066">
        <ele>1613</ele>
        <time>2022-05-27T07:42:45.000Z</time>
      </trkpt>
      <trkpt lat="44.93617" lon="5.50066">
        <ele>1613.1999511719</ele>
        <time>2022-05-27T07:42:46.000Z</time>
      </trkpt>
      <trkpt lat="44.93616" lon="5.50067">
        <ele>1613.4000244141</ele>
        <time>2022-05-27T07:42:47.000Z</time>
      </trkpt>
      <trkpt lat="44.93616" lon="5.50068">
        <ele>1613.5999755859</ele>
        <time>2022-05-27T07:42:48.000Z</time>
      </trkpt>
      <trkpt lat="44.93612" lon="5.50073">
        <ele>1615.5999755859</ele>
        <time>2022-05-27T07:42:55.000Z</time>
      </trkpt>
      <trkpt lat="44.9361" lon="5.50077">
        <ele>1616.1999511719</ele>
        <time>2022-05-27T07:42:59.000Z</time>
      </trkpt>
      <trkpt lat="44.9361" lon="5.50079">
        <ele>1616.1999511719</ele>
        <time>2022-05-27T07:43:00.000Z</time>
      </trkpt>
      <trkpt lat="44.93608" lon="5.50088">
        <ele>1617.4000244141</ele>
        <time>2022-05-27T07:43:05.000Z</time>
      </trkpt>
      <trkpt lat="44.93606" lon="5.50093">
        <ele>1618.8000488281</ele>
        <time>2022-05-27T07:43:09.000Z</time>
      </trkpt>
      <trkpt lat="44.93603" lon="5.50099">
        <ele>1619.1999511719</ele>
        <time>2022-05-27T07:43:14.000Z</time>
      </trkpt>
      <trkpt lat="44.936" lon="5.50104">
        <ele>1619.5999755859</ele>
        <time>2022-05-27T07:43:19.000Z</time>
      </trkpt>
      <trkpt lat="44.93589" lon="5.50124">
        <ele>1621</ele>
        <time>2022-05-27T07:43:34.000Z</time>
      </trkpt>
      <trkpt lat="44.93586" lon="5.5014">
        <ele>1621</ele>
        <time>2022-05-27T07:43:51.000Z</time>
      </trkpt>
      <trkpt lat="44.93585" lon="5.50141">
        <ele>1621</ele>
        <time>2022-05-27T07:43:52.000Z</time>
      </trkpt>
      <trkpt lat="44.93583" lon="5.5015">
        <ele>1621.4000244141</ele>
        <time>2022-05-27T07:44:01.000Z</time>
      </trkpt>
      <trkpt lat="44.93567" lon="5.5018">
        <ele>1620.4000244141</ele>
        <time>2022-05-27T07:45:23.000Z</time>
      </trkpt>
      <trkpt lat="44.93563" lon="5.5018">
        <ele>1620.1999511719</ele>
        <time>2022-05-27T07:45:38.000Z</time>
      </trkpt>
      <trkpt lat="44.93563" lon="5.5018">
        <ele>1620.1999511719</ele>
        <time>2022-05-27T07:45:56.000Z</time>
      </trkpt>
      <trkpt lat="44.93564" lon="5.5018">
        <ele>1620.1999511719</ele>
        <time>2022-05-27T07:46:01.000Z</time>
      </trkpt>
      <trkpt lat="44.93564" lon="5.5018">
        <ele>1620.1999511719</ele>
        <time>2022-05-27T07:46:06.000Z</time>
      </trkpt>
      <trkpt lat="44.93565" lon="5.50181">
        <ele>1620.4000244141</ele>
        <time>2022-05-27T07:46:12.000Z</time>
      </trkpt>
      <trkpt lat="44.93564" lon="5.50181">
        <ele>1620.1999511719</ele>
        <time>2022-05-27T07:46:22.000Z</time>
      </trkpt>
      <trkpt lat="44.93565" lon="5.50181">
        <ele>1620.1999511719</ele>
        <time>2022-05-27T07:46:52.000Z</time>
      </trkpt>
      <trkpt lat="44.93562" lon="5.50181">
        <ele>1620.1999511719</ele>
        <time>2022-05-27T07:47:34.000Z</time>
      </trkpt>
      <trkpt lat="44.93569" lon="5.50179">
        <ele>1620.5999755859</ele>
        <time>2022-05-27T07:47:55.000Z</time>
      </trkpt>
      <trkpt lat="44.93569" lon="5.50179">
        <ele>1620.5999755859</ele>
        <time>2022-05-27T07:47:59.000Z</time>
      </trkpt>
      <trkpt lat="44.93569" lon="5.50179">
        <ele>1620.5999755859</ele>
        <time>2022-05-27T07:48:02.000Z</time>
      </trkpt>
      <trkpt lat="44.93569" lon="5.50179">
        <ele>1620.5999755859</ele>
        <time>2022-05-27T07:48:06.000Z</time>
      </trkpt>
      <trkpt lat="44.93569" lon="5.50179">
        <ele>1620.5999755859</ele>
        <time>2022-05-27T07:48:08.000Z</time>
      </trkpt>
      <trkpt lat="44.93569" lon="5.50179">
        <ele>1620.5999755859</ele>
        <time>2022-05-27T07:48:12.000Z</time>
      </trkpt>
      <trkpt lat="44.9357" lon="5.5018">
        <ele>1620.5999755859</ele>
        <time>2022-05-27T07:48:15.000Z</time>
      </trkpt>
      <trkpt lat="44.93569" lon="5.5018">
        <ele>1620.5999755859</ele>
        <time>2022-05-27T07:48:31.000Z</time>
      </trkpt>
      <trkpt lat="44.93565" lon="5.50172">
        <ele>1620</ele>
        <time>2022-05-27T07:48:42.000Z</time>
      </trkpt>
      <trkpt lat="44.93564" lon="5.50169">
        <ele>1619.8000488281</ele>
        <time>2022-05-27T07:48:44.000Z</time>
      </trkpt>
      <trkpt lat="44.9356" lon="5.50161">
        <ele>1619.8000488281</ele>
        <time>2022-05-27T07:48:53.000Z</time>
      </trkpt>
      <trkpt lat="44.93559" lon="5.5016">
        <ele>1619.8000488281</ele>
        <time>2022-05-27T07:48:54.000Z</time>
      </trkpt>
      <trkpt lat="44.93559" lon="5.5016">
        <ele>1619.8000488281</ele>
        <time>2022-05-27T07:48:55.000Z</time>
      </trkpt>
      <trkpt lat="44.93553" lon="5.5016">
        <ele>1619.4000244141</ele>
        <time>2022-05-27T07:49:00.000Z</time>
      </trkpt>
      <trkpt lat="44.93552" lon="5.5016">
        <ele>1619.4000244141</ele>
        <time>2022-05-27T07:49:01.000Z</time>
      </trkpt>
      <trkpt lat="44.93549" lon="5.50162">
        <ele>1619</ele>
        <time>2022-05-27T07:49:04.000Z</time>
      </trkpt>
      <trkpt lat="44.93539" lon="5.50167">
        <ele>1617.8000488281</ele>
        <time>2022-05-27T07:49:15.000Z</time>
      </trkpt>
      <trkpt lat="44.9353" lon="5.50159">
        <ele>1617.1999511719</ele>
        <time>2022-05-27T07:49:30.000Z</time>
      </trkpt>
      <trkpt lat="44.93522" lon="5.50159">
        <ele>1616</ele>
        <time>2022-05-27T07:50:41.000Z</time>
      </trkpt>
      <trkpt lat="44.93523" lon="5.50155">
        <ele>1616.4000244141</ele>
        <time>2022-05-27T07:50:58.000Z</time>
      </trkpt>
      <trkpt lat="44.93518" lon="5.50149">
        <ele>1616.1999511719</ele>
        <time>2022-05-27T07:51:08.000Z</time>
      </trkpt>
      <trkpt lat="44.93505" lon="5.50133">
        <ele>1615.4000244141</ele>
        <time>2022-05-27T07:51:25.000Z</time>
      </trkpt>
      <trkpt lat="44.93485" lon="5.50113">
        <ele>1614</ele>
        <time>2022-05-27T07:51:45.000Z</time>
      </trkpt>
      <trkpt lat="44.93482" lon="5.50111">
        <ele>1613.8000488281</ele>
        <time>2022-05-27T07:52:14.000Z</time>
      </trkpt>
      <trkpt lat="44.9348" lon="5.50112">
        <ele>1613.5999755859</ele>
        <time>2022-05-27T07:52:17.000Z</time>
      </trkpt>
      <trkpt lat="44.93479" lon="5.50113">
        <ele>1613.1999511719</ele>
        <time>2022-05-27T07:52:22.000Z</time>
      </trkpt>
      <trkpt lat="44.93479" lon="5.50112">
        <ele>1613.4000244141</ele>
        <time>2022-05-27T07:52:34.000Z</time>
      </trkpt>
      <trkpt lat="44.93479" lon="5.50112">
        <ele>1613.4000244141</ele>
        <time>2022-05-27T07:52:40.000Z</time>
      </trkpt>
      <trkpt lat="44.93478" lon="5.50113">
        <ele>1613.1999511719</ele>
        <time>2022-05-27T07:52:53.000Z</time>
      </trkpt>
      <trkpt lat="44.9348" lon="5.50105">
        <ele>1614</ele>
        <time>2022-05-27T07:53:01.000Z</time>
      </trkpt>
      <trkpt lat="44.9348" lon="5.50101">
        <ele>1614.1999511719</ele>
        <time>2022-05-27T07:53:04.000Z</time>
      </trkpt>
      <trkpt lat="44.93471" lon="5.50087">
        <ele>1614.4000244141</ele>
        <time>2022-05-27T07:53:18.000Z</time>
      </trkpt>
      <trkpt lat="44.93469" lon="5.50084">
        <ele>1614.4000244141</ele>
        <time>2022-05-27T07:53:21.000Z</time>
      </trkpt>
      <trkpt lat="44.93465" lon="5.50079">
        <ele>1614.1999511719</ele>
        <time>2022-05-27T07:53:26.000Z</time>
      </trkpt>
      <trkpt lat="44.93463" lon="5.50075">
        <ele>1614</ele>
        <time>2022-05-27T07:53:29.000Z</time>
      </trkpt>
      <trkpt lat="44.93461" lon="5.50072">
        <ele>1613.8000488281</ele>
        <time>2022-05-27T07:53:32.000Z</time>
      </trkpt>
      <trkpt lat="44.9346" lon="5.5007">
        <ele>1613.8000488281</ele>
        <time>2022-05-27T07:53:33.000Z</time>
      </trkpt>
      <trkpt lat="44.9346" lon="5.50069">
        <ele>1613.8000488281</ele>
        <time>2022-05-27T07:53:34.000Z</time>
      </trkpt>
      <trkpt lat="44.93459" lon="5.50064">
        <ele>1614</ele>
        <time>2022-05-27T07:53:37.000Z</time>
      </trkpt>
      <trkpt lat="44.93458" lon="5.50062">
        <ele>1614</ele>
        <time>2022-05-27T07:53:39.000Z</time>
      </trkpt>
      <trkpt lat="44.93456" lon="5.50058">
        <ele>1613.8000488281</ele>
        <time>2022-05-27T07:53:42.000Z</time>
      </trkpt>
      <trkpt lat="44.93455" lon="5.50054">
        <ele>1613.8000488281</ele>
        <time>2022-05-27T07:53:45.000Z</time>
      </trkpt>
      <trkpt lat="44.93454" lon="5.5005">
        <ele>1614</ele>
        <time>2022-05-27T07:53:48.000Z</time>
      </trkpt>
      <trkpt lat="44.9344" lon="5.50038">
        <ele>1612.4000244141</ele>
        <time>2022-05-27T07:54:03.000Z</time>
      </trkpt>
      <trkpt lat="44.93439" lon="5.50037">
        <ele>1612.1999511719</ele>
        <time>2022-05-27T07:54:04.000Z</time>
      </trkpt>
      <trkpt lat="44.93437" lon="5.50036">
        <ele>1612</ele>
        <time>2022-05-27T07:54:06.000Z</time>
      </trkpt>
      <trkpt lat="44.93436" lon="5.50035">
        <ele>1611.8000488281</ele>
        <time>2022-05-27T07:54:07.000Z</time>
      </trkpt>
      <trkpt lat="44.93427" lon="5.50029">
        <ele>1610.8000488281</ele>
        <time>2022-05-27T07:54:16.000Z</time>
      </trkpt>
      <trkpt lat="44.93423" lon="5.50027">
        <ele>1610.8000488281</ele>
        <time>2022-05-27T07:54:20.000Z</time>
      </trkpt>
      <trkpt lat="44.93408" lon="5.50022">
        <ele>1610.4000244141</ele>
        <time>2022-05-27T07:54:33.000Z</time>
      </trkpt>
      <trkpt lat="44.93407" lon="5.50021">
        <ele>1610.4000244141</ele>
        <time>2022-05-27T07:54:34.000Z</time>
      </trkpt>
      <trkpt lat="44.93406" lon="5.50021">
        <ele>1610.4000244141</ele>
        <time>2022-05-27T07:54:35.000Z</time>
      </trkpt>
      <trkpt lat="44.93381" lon="5.50008">
        <ele>1612.5999755859</ele>
        <time>2022-05-27T07:55:00.000Z</time>
      </trkpt>
      <trkpt lat="44.93371" lon="5.50018">
        <ele>1610.8000488281</ele>
        <time>2022-05-27T07:55:13.000Z</time>
      </trkpt>
      <trkpt lat="44.93358" lon="5.50026">
        <ele>1609.8000488281</ele>
        <time>2022-05-27T07:55:26.000Z</time>
      </trkpt>
      <trkpt lat="44.93334" lon="5.50014">
        <ele>1613.4000244141</ele>
        <time>2022-05-27T07:55:54.000Z</time>
      </trkpt>
      <trkpt lat="44.93327" lon="5.50014">
        <ele>1614.1999511719</ele>
        <time>2022-05-27T07:56:00.000Z</time>
      </trkpt>
      <trkpt lat="44.93324" lon="5.5001">
        <ele>1615</ele>
        <time>2022-05-27T07:56:04.000Z</time>
      </trkpt>
      <trkpt lat="44.93307" lon="5.50005">
        <ele>1617.1999511719</ele>
        <time>2022-05-27T07:56:22.000Z</time>
      </trkpt>
      <trkpt lat="44.93293" lon="5.50011">
        <ele>1618.4000244141</ele>
        <time>2022-05-27T07:56:33.000Z</time>
      </trkpt>
      <trkpt lat="44.93286" lon="5.50014">
        <ele>1619.1999511719</ele>
        <time>2022-05-27T07:56:38.000Z</time>
      </trkpt>
      <trkpt lat="44.93283" lon="5.50015">
        <ele>1619.1999511719</ele>
        <time>2022-05-27T07:56:40.000Z</time>
      </trkpt>
      <trkpt lat="44.93267" lon="5.50007">
        <ele>1620</ele>
        <time>2022-05-27T07:56:54.000Z</time>
      </trkpt>
      <trkpt lat="44.9325" lon="5.5">
        <ele>1620.4000244141</ele>
        <time>2022-05-27T07:57:10.000Z</time>
      </trkpt>
      <trkpt lat="44.93249" lon="5.49995">
        <ele>1620.1999511719</ele>
        <time>2022-05-27T07:57:15.000Z</time>
      </trkpt>
      <trkpt lat="44.93244" lon="5.49993">
        <ele>1620.4000244141</ele>
        <time>2022-05-27T07:57:25.000Z</time>
      </trkpt>
      <trkpt lat="44.93243" lon="5.49988">
        <ele>1620.1999511719</ele>
        <time>2022-05-27T07:57:29.000Z</time>
      </trkpt>
      <trkpt lat="44.93239" lon="5.49983">
        <ele>1620.1999511719</ele>
        <time>2022-05-27T07:57:36.000Z</time>
      </trkpt>
      <trkpt lat="44.93228" lon="5.49975">
        <ele>1619.8000488281</ele>
        <time>2022-05-27T07:57:49.000Z</time>
      </trkpt>
      <trkpt lat="44.93222" lon="5.49971">
        <ele>1619.5999755859</ele>
        <time>2022-05-27T07:57:54.000Z</time>
      </trkpt>
      <trkpt lat="44.93217" lon="5.49963">
        <ele>1619</ele>
        <time>2022-05-27T07:58:01.000Z</time>
      </trkpt>
      <trkpt lat="44.93197" lon="5.49931">
        <ele>1617</ele>
        <time>2022-05-27T07:58:27.000Z</time>
      </trkpt>
      <trkpt lat="44.93184" lon="5.49918">
        <ele>1615.5999755859</ele>
        <time>2022-05-27T07:58:43.000Z</time>
      </trkpt>
      <trkpt lat="44.9318" lon="5.49912">
        <ele>1615.1999511719</ele>
        <time>2022-05-27T07:58:48.000Z</time>
      </trkpt>
      <trkpt lat="44.93169" lon="5.49908">
        <ele>1614</ele>
        <time>2022-05-27T07:59:00.000Z</time>
      </trkpt>
      <trkpt lat="44.93167" lon="5.49897">
        <ele>1614</ele>
        <time>2022-05-27T07:59:10.000Z</time>
      </trkpt>
      <trkpt lat="44.93163" lon="5.49889">
        <ele>1613.8000488281</ele>
        <time>2022-05-27T07:59:16.000Z</time>
      </trkpt>
      <trkpt lat="44.93161" lon="5.49885">
        <ele>1613.4000244141</ele>
        <time>2022-05-27T07:59:20.000Z</time>
      </trkpt>
      <trkpt lat="44.93159" lon="5.49882">
        <ele>1613.1999511719</ele>
        <time>2022-05-27T07:59:23.000Z</time>
      </trkpt>
      <trkpt lat="44.9316" lon="5.49877">
        <ele>1613.1999511719</ele>
        <time>2022-05-27T07:59:26.000Z</time>
      </trkpt>
      <trkpt lat="44.93146" lon="5.49842">
        <ele>1611.4000244141</ele>
        <time>2022-05-27T08:00:03.000Z</time>
      </trkpt>
      <trkpt lat="44.93114" lon="5.49828">
        <ele>1607.5999755859</ele>
        <time>2022-05-27T08:00:41.000Z</time>
      </trkpt>
      <trkpt lat="44.9308" lon="5.49788">
        <ele>1608.5999755859</ele>
        <time>2022-05-27T08:01:23.000Z</time>
      </trkpt>
      <trkpt lat="44.9306" lon="5.49767">
        <ele>1608.4000244141</ele>
        <time>2022-05-27T08:02:00.000Z</time>
      </trkpt>
      <trkpt lat="44.93022" lon="5.4973">
        <ele>1605.1999511719</ele>
        <time>2022-05-27T08:02:36.000Z</time>
      </trkpt>
      <trkpt lat="44.9301" lon="5.49712">
        <ele>1604</ele>
        <time>2022-05-27T08:03:00.000Z</time>
      </trkpt>
      <trkpt lat="44.93009" lon="5.49709">
        <ele>1604</ele>
        <time>2022-05-27T08:03:42.000Z</time>
      </trkpt>
      <trkpt lat="44.93008" lon="5.49711">
        <ele>1603.8000488281</ele>
        <time>2022-05-27T08:03:49.000Z</time>
      </trkpt>
      <trkpt lat="44.93008" lon="5.4971">
        <ele>1604</ele>
        <time>2022-05-27T08:03:55.000Z</time>
      </trkpt>
      <trkpt lat="44.9301" lon="5.49709">
        <ele>1604.1999511719</ele>
        <time>2022-05-27T08:04:08.000Z</time>
      </trkpt>
      <trkpt lat="44.9301" lon="5.49708">
        <ele>1604.1999511719</ele>
        <time>2022-05-27T08:04:18.000Z</time>
      </trkpt>
      <trkpt lat="44.93011" lon="5.49708">
        <ele>1604.4000244141</ele>
        <time>2022-05-27T08:04:26.000Z</time>
      </trkpt>
      <trkpt lat="44.93011" lon="5.49708">
        <ele>1604.4000244141</ele>
        <time>2022-05-27T08:04:27.000Z</time>
      </trkpt>
      <trkpt lat="44.9301" lon="5.49708">
        <ele>1604.1999511719</ele>
        <time>2022-05-27T08:04:57.000Z</time>
      </trkpt>
      <trkpt lat="44.93011" lon="5.49707">
        <ele>1604.4000244141</ele>
        <time>2022-05-27T08:05:01.000Z</time>
      </trkpt>
      <trkpt lat="44.93009" lon="5.49708">
        <ele>1604.1999511719</ele>
        <time>2022-05-27T08:05:09.000Z</time>
      </trkpt>
      <trkpt lat="44.9301" lon="5.49708">
        <ele>1604.1999511719</ele>
        <time>2022-05-27T08:05:10.000Z</time>
      </trkpt>
      <trkpt lat="44.93011" lon="5.49708">
        <ele>1604.4000244141</ele>
        <time>2022-05-27T08:05:13.000Z</time>
      </trkpt>
      <trkpt lat="44.93012" lon="5.49708">
        <ele>1604.4000244141</ele>
        <time>2022-05-27T08:05:15.000Z</time>
      </trkpt>
      <trkpt lat="44.93012" lon="5.49708">
        <ele>1604.5999755859</ele>
        <time>2022-05-27T08:05:16.000Z</time>
      </trkpt>
      <trkpt lat="44.93012" lon="5.49707">
        <ele>1604.5999755859</ele>
        <time>2022-05-27T08:05:17.000Z</time>
      </trkpt>
      <trkpt lat="44.93013" lon="5.49706">
        <ele>1604.5999755859</ele>
        <time>2022-05-27T08:05:21.000Z</time>
      </trkpt>
      <trkpt lat="44.93014" lon="5.49706">
        <ele>1604.8000488281</ele>
        <time>2022-05-27T08:05:23.000Z</time>
      </trkpt>
      <trkpt lat="44.9301" lon="5.497">
        <ele>1604.4000244141</ele>
        <time>2022-05-27T08:05:31.000Z</time>
      </trkpt>
      <trkpt lat="44.93006" lon="5.49692">
        <ele>1604</ele>
        <time>2022-05-27T08:05:37.000Z</time>
      </trkpt>
      <trkpt lat="44.92998" lon="5.49688">
        <ele>1602.8000488281</ele>
        <time>2022-05-27T08:05:43.000Z</time>
      </trkpt>
      <trkpt lat="44.92993" lon="5.49687">
        <ele>1602</ele>
        <time>2022-05-27T08:05:47.000Z</time>
      </trkpt>
      <trkpt lat="44.92989" lon="5.49684">
        <ele>1601.4000244141</ele>
        <time>2022-05-27T08:05:51.000Z</time>
      </trkpt>
      <trkpt lat="44.92988" lon="5.49684">
        <ele>1601.1999511719</ele>
        <time>2022-05-27T08:05:52.000Z</time>
      </trkpt>
      <trkpt lat="44.92987" lon="5.49683">
        <ele>1601</ele>
        <time>2022-05-27T08:05:53.000Z</time>
      </trkpt>
      <trkpt lat="44.92983" lon="5.4968">
        <ele>1600.4000244141</ele>
        <time>2022-05-27T08:05:56.000Z</time>
      </trkpt>
      <trkpt lat="44.92978" lon="5.49677">
        <ele>1599.5999755859</ele>
        <time>2022-05-27T08:06:00.000Z</time>
      </trkpt>
      <trkpt lat="44.92977" lon="5.49677">
        <ele>1599.5999755859</ele>
        <time>2022-05-27T08:06:01.000Z</time>
      </trkpt>
      <trkpt lat="44.92975" lon="5.49676">
        <ele>1599.4000244141</ele>
        <time>2022-05-27T08:06:02.000Z</time>
      </trkpt>
      <trkpt lat="44.9297" lon="5.49672">
        <ele>1598.5999755859</ele>
        <time>2022-05-27T08:06:07.000Z</time>
      </trkpt>
      <trkpt lat="44.92967" lon="5.4967">
        <ele>1598.4000244141</ele>
        <time>2022-05-27T08:06:09.000Z</time>
      </trkpt>
      <trkpt lat="44.92966" lon="5.49669">
        <ele>1598.1999511719</ele>
        <time>2022-05-27T08:06:10.000Z</time>
      </trkpt>
      <trkpt lat="44.92966" lon="5.49668">
        <ele>1598</ele>
        <time>2022-05-27T08:06:11.000Z</time>
      </trkpt>
      <trkpt lat="44.92962" lon="5.49666">
        <ele>1597.5999755859</ele>
        <time>2022-05-27T08:06:14.000Z</time>
      </trkpt>
      <trkpt lat="44.92959" lon="5.49662">
        <ele>1597</ele>
        <time>2022-05-27T08:06:18.000Z</time>
      </trkpt>
      <trkpt lat="44.92957" lon="5.49662">
        <ele>1596.8000488281</ele>
        <time>2022-05-27T08:06:19.000Z</time>
      </trkpt>
      <trkpt lat="44.9294" lon="5.49646">
        <ele>1595.5999755859</ele>
        <time>2022-05-27T08:06:36.000Z</time>
      </trkpt>
      <trkpt lat="44.92936" lon="5.49641">
        <ele>1595.1999511719</ele>
        <time>2022-05-27T08:06:41.000Z</time>
      </trkpt>
      <trkpt lat="44.92934" lon="5.49638">
        <ele>1595</ele>
        <time>2022-05-27T08:06:44.000Z</time>
      </trkpt>
      <trkpt lat="44.92931" lon="5.49632">
        <ele>1594.5999755859</ele>
        <time>2022-05-27T08:06:49.000Z</time>
      </trkpt>
      <trkpt lat="44.92929" lon="5.49631">
        <ele>1594.4000244141</ele>
        <time>2022-05-27T08:06:51.000Z</time>
      </trkpt>
      <trkpt lat="44.92929" lon="5.49631">
        <ele>1594.4000244141</ele>
        <time>2022-05-27T08:06:52.000Z</time>
      </trkpt>
      <trkpt lat="44.92928" lon="5.49629">
        <ele>1594.4000244141</ele>
        <time>2022-05-27T08:06:53.000Z</time>
      </trkpt>
      <trkpt lat="44.92927" lon="5.49628">
        <ele>1594.4000244141</ele>
        <time>2022-05-27T08:06:54.000Z</time>
      </trkpt>
      <trkpt lat="44.92927" lon="5.49627">
        <ele>1594.1999511719</ele>
        <time>2022-05-27T08:06:55.000Z</time>
      </trkpt>
      <trkpt lat="44.92928" lon="5.49619">
        <ele>1593.5999755859</ele>
        <time>2022-05-27T08:06:59.000Z</time>
      </trkpt>
      <trkpt lat="44.92927" lon="5.49615">
        <ele>1593.4000244141</ele>
        <time>2022-05-27T08:07:02.000Z</time>
      </trkpt>
      <trkpt lat="44.92926" lon="5.49614">
        <ele>1593.4000244141</ele>
        <time>2022-05-27T08:07:03.000Z</time>
      </trkpt>
      <trkpt lat="44.92924" lon="5.49611">
        <ele>1593.4000244141</ele>
        <time>2022-05-27T08:07:06.000Z</time>
      </trkpt>
      <trkpt lat="44.92915" lon="5.49604">
        <ele>1592.4000244141</ele>
        <time>2022-05-27T08:07:16.000Z</time>
      </trkpt>
      <trkpt lat="44.92912" lon="5.49603">
        <ele>1592.5999755859</ele>
        <time>2022-05-27T08:07:20.000Z</time>
      </trkpt>
      <trkpt lat="44.9291" lon="5.49603">
        <ele>1592.5999755859</ele>
        <time>2022-05-27T08:07:23.000Z</time>
      </trkpt>
      <trkpt lat="44.92908" lon="5.496">
        <ele>1592</ele>
        <time>2022-05-27T08:07:27.000Z</time>
      </trkpt>
      <trkpt lat="44.92904" lon="5.49592">
        <ele>1590.5999755859</ele>
        <time>2022-05-27T08:07:34.000Z</time>
      </trkpt>
      <trkpt lat="44.92899" lon="5.49587">
        <ele>1590</ele>
        <time>2022-05-27T08:07:40.000Z</time>
      </trkpt>
      <trkpt lat="44.92896" lon="5.49585">
        <ele>1589.8000488281</ele>
        <time>2022-05-27T08:07:43.000Z</time>
      </trkpt>
      <trkpt lat="44.92889" lon="5.49581">
        <ele>1589.1999511719</ele>
        <time>2022-05-27T08:07:49.000Z</time>
      </trkpt>
      <trkpt lat="44.9287" lon="5.4956">
        <ele>1585.1999511719</ele>
        <time>2022-05-27T08:08:14.000Z</time>
      </trkpt>
      <trkpt lat="44.92864" lon="5.49562">
        <ele>1585.5999755859</ele>
        <time>2022-05-27T08:08:22.000Z</time>
      </trkpt>
      <trkpt lat="44.92835" lon="5.49557">
        <ele>1584</ele>
        <time>2022-05-27T08:09:02.000Z</time>
      </trkpt>
      <trkpt lat="44.92797" lon="5.49577">
        <ele>1588.8000488281</ele>
        <time>2022-05-27T08:09:52.000Z</time>
      </trkpt>
      <trkpt lat="44.92781" lon="5.49577">
        <ele>1590.5999755859</ele>
        <time>2022-05-27T08:10:15.000Z</time>
      </trkpt>
      <trkpt lat="44.92774" lon="5.49576">
        <ele>1591.4000244141</ele>
        <time>2022-05-27T08:10:22.000Z</time>
      </trkpt>
      <trkpt lat="44.92761" lon="5.49564">
        <ele>1590</ele>
        <time>2022-05-27T08:10:46.000Z</time>
      </trkpt>
      <trkpt lat="44.92759" lon="5.49564">
        <ele>1590</ele>
        <time>2022-05-27T08:10:49.000Z</time>
      </trkpt>
      <trkpt lat="44.92756" lon="5.49564">
        <ele>1590.1999511719</ele>
        <time>2022-05-27T08:10:51.000Z</time>
      </trkpt>
      <trkpt lat="44.92755" lon="5.49563">
        <ele>1589.8000488281</ele>
        <time>2022-05-27T08:10:54.000Z</time>
      </trkpt>
      <trkpt lat="44.92746" lon="5.4956">
        <ele>1589</ele>
        <time>2022-05-27T08:11:09.000Z</time>
      </trkpt>
      <trkpt lat="44.92746" lon="5.49559">
        <ele>1589</ele>
        <time>2022-05-27T08:11:10.000Z</time>
      </trkpt>
      <trkpt lat="44.92746" lon="5.49559">
        <ele>1588.8000488281</ele>
        <time>2022-05-27T08:11:11.000Z</time>
      </trkpt>
      <trkpt lat="44.92745" lon="5.49558">
        <ele>1588.5999755859</ele>
        <time>2022-05-27T08:11:12.000Z</time>
      </trkpt>
      <trkpt lat="44.92743" lon="5.49558">
        <ele>1588.5999755859</ele>
        <time>2022-05-27T08:11:15.000Z</time>
      </trkpt>
      <trkpt lat="44.9274" lon="5.49558">
        <ele>1588.8000488281</ele>
        <time>2022-05-27T08:11:17.000Z</time>
      </trkpt>
      <trkpt lat="44.92737" lon="5.49558">
        <ele>1588.5999755859</ele>
        <time>2022-05-27T08:11:20.000Z</time>
      </trkpt>
      <trkpt lat="44.92719" lon="5.49561">
        <ele>1588.8000488281</ele>
        <time>2022-05-27T08:11:41.000Z</time>
      </trkpt>
      <trkpt lat="44.92698" lon="5.4958">
        <ele>1591</ele>
        <time>2022-05-27T08:12:11.000Z</time>
      </trkpt>
      <trkpt lat="44.92682" lon="5.49585">
        <ele>1590.5999755859</ele>
        <time>2022-05-27T08:12:39.000Z</time>
      </trkpt>
      <trkpt lat="44.92683" lon="5.49586">
        <ele>1590.8000488281</ele>
        <time>2022-05-27T08:12:45.000Z</time>
      </trkpt>
      <trkpt lat="44.92675" lon="5.49583">
        <ele>1589.5999755859</ele>
        <time>2022-05-27T08:12:52.000Z</time>
      </trkpt>
      <trkpt lat="44.92674" lon="5.49583">
        <ele>1589.4000244141</ele>
        <time>2022-05-27T08:12:53.000Z</time>
      </trkpt>
      <trkpt lat="44.92672" lon="5.49582">
        <ele>1589</ele>
        <time>2022-05-27T08:12:55.000Z</time>
      </trkpt>
      <trkpt lat="44.92657" lon="5.49581">
        <ele>1586.5999755859</ele>
        <time>2022-05-27T08:13:10.000Z</time>
      </trkpt>
      <trkpt lat="44.92643" lon="5.49578">
        <ele>1585.5999755859</ele>
        <time>2022-05-27T08:13:25.000Z</time>
      </trkpt>
      <trkpt lat="44.926" lon="5.4957">
        <ele>1587.5999755859</ele>
        <time>2022-05-27T08:14:08.000Z</time>
      </trkpt>
      <trkpt lat="44.926" lon="5.49567">
        <ele>1587.5999755859</ele>
        <time>2022-05-27T08:14:11.000Z</time>
      </trkpt>
      <trkpt lat="44.92598" lon="5.49563">
        <ele>1587.8000488281</ele>
        <time>2022-05-27T08:14:14.000Z</time>
      </trkpt>
      <trkpt lat="44.92582" lon="5.49565">
        <ele>1589.8000488281</ele>
        <time>2022-05-27T08:14:31.000Z</time>
      </trkpt>
      <trkpt lat="44.92574" lon="5.49563">
        <ele>1591</ele>
        <time>2022-05-27T08:14:37.000Z</time>
      </trkpt>
      <trkpt lat="44.92566" lon="5.49563">
        <ele>1591.5999755859</ele>
        <time>2022-05-27T08:14:44.000Z</time>
      </trkpt>
      <trkpt lat="44.92559" lon="5.49566">
        <ele>1592.1999511719</ele>
        <time>2022-05-27T08:14:51.000Z</time>
      </trkpt>
      <trkpt lat="44.92555" lon="5.49569">
        <ele>1592.4000244141</ele>
        <time>2022-05-27T08:14:55.000Z</time>
      </trkpt>
      <trkpt lat="44.92554" lon="5.49569">
        <ele>1592.4000244141</ele>
        <time>2022-05-27T08:14:56.000Z</time>
      </trkpt>
      <trkpt lat="44.92553" lon="5.4957">
        <ele>1592.5999755859</ele>
        <time>2022-05-27T08:14:57.000Z</time>
      </trkpt>
      <trkpt lat="44.9255" lon="5.49572">
        <ele>1592.8000488281</ele>
        <time>2022-05-27T08:15:00.000Z</time>
      </trkpt>
      <trkpt lat="44.9252" lon="5.49607">
        <ele>1593.1999511719</ele>
        <time>2022-05-27T08:15:48.000Z</time>
      </trkpt>
      <trkpt lat="44.92497" lon="5.49627">
        <ele>1594.1999511719</ele>
        <time>2022-05-27T08:16:17.000Z</time>
      </trkpt>
      <trkpt lat="44.92499" lon="5.49638">
        <ele>1594.4000244141</ele>
        <time>2022-05-27T08:16:28.000Z</time>
      </trkpt>
      <trkpt lat="44.92483" lon="5.49666">
        <ele>1598</ele>
        <time>2022-05-27T08:17:07.000Z</time>
      </trkpt>
      <trkpt lat="44.92483" lon="5.49667">
        <ele>1598.1999511719</ele>
        <time>2022-05-27T08:17:09.000Z</time>
      </trkpt>
      <trkpt lat="44.92483" lon="5.49667">
        <ele>1598.1999511719</ele>
        <time>2022-05-27T08:17:10.000Z</time>
      </trkpt>
      <trkpt lat="44.92483" lon="5.49668">
        <ele>1598.1999511719</ele>
        <time>2022-05-27T08:17:11.000Z</time>
      </trkpt>
      <trkpt lat="44.92482" lon="5.49669">
        <ele>1598.4000244141</ele>
        <time>2022-05-27T08:17:13.000Z</time>
      </trkpt>
      <trkpt lat="44.9248" lon="5.49671">
        <ele>1598.8000488281</ele>
        <time>2022-05-27T08:17:17.000Z</time>
      </trkpt>
      <trkpt lat="44.92478" lon="5.49673">
        <ele>1599.4000244141</ele>
        <time>2022-05-27T08:17:25.000Z</time>
      </trkpt>
      <trkpt lat="44.92473" lon="5.4967">
        <ele>1599.5999755859</ele>
        <time>2022-05-27T08:17:31.000Z</time>
      </trkpt>
      <trkpt lat="44.92469" lon="5.49669">
        <ele>1599.8000488281</ele>
        <time>2022-05-27T08:17:37.000Z</time>
      </trkpt>
      <trkpt lat="44.92465" lon="5.49676">
        <ele>1601</ele>
        <time>2022-05-27T08:17:48.000Z</time>
      </trkpt>
      <trkpt lat="44.92455" lon="5.49678">
        <ele>1602.8000488281</ele>
        <time>2022-05-27T08:18:04.000Z</time>
      </trkpt>
      <trkpt lat="44.92453" lon="5.49686">
        <ele>1604.1999511719</ele>
        <time>2022-05-27T08:18:37.000Z</time>
      </trkpt>
      <trkpt lat="44.9245" lon="5.49689">
        <ele>1605</ele>
        <time>2022-05-27T08:18:46.000Z</time>
      </trkpt>
      <trkpt lat="44.9245" lon="5.49687">
        <ele>1604.5999755859</ele>
        <time>2022-05-27T08:18:53.000Z</time>
      </trkpt>
      <trkpt lat="44.92447" lon="5.49693">
        <ele>1605.8000488281</ele>
        <time>2022-05-27T08:19:17.000Z</time>
      </trkpt>
      <trkpt lat="44.92446" lon="5.49693">
        <ele>1606</ele>
        <time>2022-05-27T08:19:18.000Z</time>
      </trkpt>
      <trkpt lat="44.92437" lon="5.49708">
        <ele>1608.8000488281</ele>
        <time>2022-05-27T08:19:31.000Z</time>
      </trkpt>
      <trkpt lat="44.92436" lon="5.49711">
        <ele>1609.1999511719</ele>
        <time>2022-05-27T08:19:35.000Z</time>
      </trkpt>
      <trkpt lat="44.92424" lon="5.4977">
        <ele>1619</ele>
        <time>2022-05-27T08:20:36.000Z</time>
      </trkpt>
      <trkpt lat="44.92423" lon="5.49772">
        <ele>1619.4000244141</ele>
        <time>2022-05-27T08:20:37.000Z</time>
      </trkpt>
      <trkpt lat="44.92423" lon="5.49772">
        <ele>1619.4000244141</ele>
        <time>2022-05-27T08:20:38.000Z</time>
      </trkpt>
      <trkpt lat="44.92423" lon="5.49772">
        <ele>1619.4000244141</ele>
        <time>2022-05-27T08:20:39.000Z</time>
      </trkpt>
      <trkpt lat="44.92421" lon="5.4979">
        <ele>1623</ele>
        <time>2022-05-27T08:20:57.000Z</time>
      </trkpt>
      <trkpt lat="44.92419" lon="5.498">
        <ele>1624.8000488281</ele>
        <time>2022-05-27T08:21:10.000Z</time>
      </trkpt>
      <trkpt lat="44.92416" lon="5.49811">
        <ele>1626</ele>
        <time>2022-05-27T08:21:25.000Z</time>
      </trkpt>
      <trkpt lat="44.92414" lon="5.4982">
        <ele>1627</ele>
        <time>2022-05-27T08:21:34.000Z</time>
      </trkpt>
      <trkpt lat="44.92421" lon="5.49839">
        <ele>1628.5999755859</ele>
        <time>2022-05-27T08:21:56.000Z</time>
      </trkpt>
      <trkpt lat="44.92413" lon="5.49899">
        <ele>1636</ele>
        <time>2022-05-27T08:23:02.000Z</time>
      </trkpt>
      <trkpt lat="44.92396" lon="5.4994">
        <ele>1642.5999755859</ele>
        <time>2022-05-27T08:23:44.000Z</time>
      </trkpt>
      <trkpt lat="44.92393" lon="5.4995">
        <ele>1644</ele>
        <time>2022-05-27T08:23:54.000Z</time>
      </trkpt>
      <trkpt lat="44.92371" lon="5.49973">
        <ele>1649.1999511719</ele>
        <time>2022-05-27T08:24:41.000Z</time>
      </trkpt>
      <trkpt lat="44.92356" lon="5.50001">
        <ele>1652.8000488281</ele>
        <time>2022-05-27T08:25:19.000Z</time>
      </trkpt>
      <trkpt lat="44.92357" lon="5.50002">
        <ele>1652.8000488281</ele>
        <time>2022-05-27T08:25:20.000Z</time>
      </trkpt>
      <trkpt lat="44.92357" lon="5.50003">
        <ele>1653</ele>
        <time>2022-05-27T08:25:21.000Z</time>
      </trkpt>
      <trkpt lat="44.92357" lon="5.50004">
        <ele>1653</ele>
        <time>2022-05-27T08:25:22.000Z</time>
      </trkpt>
      <trkpt lat="44.92357" lon="5.50006">
        <ele>1653.1999511719</ele>
        <time>2022-05-27T08:25:23.000Z</time>
      </trkpt>
      <trkpt lat="44.92357" lon="5.50007">
        <ele>1653.1999511719</ele>
        <time>2022-05-27T08:25:24.000Z</time>
      </trkpt>
      <trkpt lat="44.92356" lon="5.5001">
        <ele>1653.8000488281</ele>
        <time>2022-05-27T08:25:27.000Z</time>
      </trkpt>
      <trkpt lat="44.92355" lon="5.50011">
        <ele>1653.8000488281</ele>
        <time>2022-05-27T08:25:28.000Z</time>
      </trkpt>
      <trkpt lat="44.92353" lon="5.50019">
        <ele>1654.8000488281</ele>
        <time>2022-05-27T08:25:34.000Z</time>
      </trkpt>
      <trkpt lat="44.92353" lon="5.50023">
        <ele>1655.1999511719</ele>
        <time>2022-05-27T08:25:37.000Z</time>
      </trkpt>
      <trkpt lat="44.92351" lon="5.50039">
        <ele>1657</ele>
        <time>2022-05-27T08:25:48.000Z</time>
      </trkpt>
      <trkpt lat="44.92352" lon="5.50048">
        <ele>1658</ele>
        <time>2022-05-27T08:25:57.000Z</time>
      </trkpt>
      <trkpt lat="44.92351" lon="5.50053">
        <ele>1658.4000244141</ele>
        <time>2022-05-27T08:26:00.000Z</time>
      </trkpt>
      <trkpt lat="44.92343" lon="5.50064">
        <ele>1659.1999511719</ele>
        <time>2022-05-27T08:26:10.000Z</time>
      </trkpt>
      <trkpt lat="44.92331" lon="5.5007">
        <ele>1659.5999755859</ele>
        <time>2022-05-27T08:26:26.000Z</time>
      </trkpt>
      <trkpt lat="44.92323" lon="5.50095">
        <ele>1662</ele>
        <time>2022-05-27T08:26:48.000Z</time>
      </trkpt>
      <trkpt lat="44.92314" lon="5.50119">
        <ele>1662.4000244141</ele>
        <time>2022-05-27T08:27:09.000Z</time>
      </trkpt>
      <trkpt lat="44.9231" lon="5.50132">
        <ele>1663</ele>
        <time>2022-05-27T08:27:17.000Z</time>
      </trkpt>
      <trkpt lat="44.92296" lon="5.50173">
        <ele>1661.8000488281</ele>
        <time>2022-05-27T08:27:58.000Z</time>
      </trkpt>
      <trkpt lat="44.92287" lon="5.50181">
        <ele>1662.1999511719</ele>
        <time>2022-05-27T08:28:10.000Z</time>
      </trkpt>
      <trkpt lat="44.92285" lon="5.50182">
        <ele>1662.4000244141</ele>
        <time>2022-05-27T08:28:12.000Z</time>
      </trkpt>
      <trkpt lat="44.92278" lon="5.50187">
        <ele>1662.5999755859</ele>
        <time>2022-05-27T08:28:18.000Z</time>
      </trkpt>
      <trkpt lat="44.92271" lon="5.50192">
        <ele>1662.8000488281</ele>
        <time>2022-05-27T08:28:24.000Z</time>
      </trkpt>
      <trkpt lat="44.9227" lon="5.50193">
        <ele>1662.8000488281</ele>
        <time>2022-05-27T08:28:25.000Z</time>
      </trkpt>
      <trkpt lat="44.92268" lon="5.50193">
        <ele>1662.8000488281</ele>
        <time>2022-05-27T08:28:26.000Z</time>
      </trkpt>
      <trkpt lat="44.9226" lon="5.50195">
        <ele>1663</ele>
        <time>2022-05-27T08:28:33.000Z</time>
      </trkpt>
      <trkpt lat="44.92226" lon="5.50195">
        <ele>1662.5999755859</ele>
        <time>2022-05-27T08:29:05.000Z</time>
      </trkpt>
      <trkpt lat="44.92221" lon="5.50197">
        <ele>1662.4000244141</ele>
        <time>2022-05-27T08:29:09.000Z</time>
      </trkpt>
      <trkpt lat="44.9222" lon="5.50197">
        <ele>1662.4000244141</ele>
        <time>2022-05-27T08:29:10.000Z</time>
      </trkpt>
      <trkpt lat="44.92196" lon="5.50195">
        <ele>1662</ele>
        <time>2022-05-27T08:29:32.000Z</time>
      </trkpt>
      <trkpt lat="44.92187" lon="5.5019">
        <ele>1662.1999511719</ele>
        <time>2022-05-27T08:29:42.000Z</time>
      </trkpt>
      <trkpt lat="44.92177" lon="5.50195">
        <ele>1662</ele>
        <time>2022-05-27T08:29:53.000Z</time>
      </trkpt>
      <trkpt lat="44.92174" lon="5.50195">
        <ele>1662</ele>
        <time>2022-05-27T08:29:57.000Z</time>
      </trkpt>
      <trkpt lat="44.9217" lon="5.50195">
        <ele>1662</ele>
        <time>2022-05-27T08:30:01.000Z</time>
      </trkpt>
      <trkpt lat="44.92169" lon="5.50196">
        <ele>1662</ele>
        <time>2022-05-27T08:30:03.000Z</time>
      </trkpt>
      <trkpt lat="44.92168" lon="5.50195">
        <ele>1662</ele>
        <time>2022-05-27T08:30:04.000Z</time>
      </trkpt>
      <trkpt lat="44.92167" lon="5.50196">
        <ele>1661.8000488281</ele>
        <time>2022-05-27T08:30:05.000Z</time>
      </trkpt>
      <trkpt lat="44.92165" lon="5.50194">
        <ele>1662</ele>
        <time>2022-05-27T08:30:09.000Z</time>
      </trkpt>
      <trkpt lat="44.92163" lon="5.50191">
        <ele>1662.1999511719</ele>
        <time>2022-05-27T08:30:20.000Z</time>
      </trkpt>
      <trkpt lat="44.92161" lon="5.50192">
        <ele>1662</ele>
        <time>2022-05-27T08:30:36.000Z</time>
      </trkpt>
      <trkpt lat="44.92161" lon="5.50192">
        <ele>1662</ele>
        <time>2022-05-27T08:30:42.000Z</time>
      </trkpt>
      <trkpt lat="44.92161" lon="5.50192">
        <ele>1662</ele>
        <time>2022-05-27T08:30:44.000Z</time>
      </trkpt>
      <trkpt lat="44.92161" lon="5.50192">
        <ele>1662</ele>
        <time>2022-05-27T08:30:45.000Z</time>
      </trkpt>
      <trkpt lat="44.92161" lon="5.50192">
        <ele>1662</ele>
        <time>2022-05-27T08:30:49.000Z</time>
      </trkpt>
      <trkpt lat="44.92161" lon="5.50192">
        <ele>1662</ele>
        <time>2022-05-27T08:30:53.000Z</time>
      </trkpt>
      <trkpt lat="44.92162" lon="5.50193">
        <ele>1662</ele>
        <time>2022-05-27T08:30:56.000Z</time>
      </trkpt>
      <trkpt lat="44.92162" lon="5.50193">
        <ele>1662</ele>
        <time>2022-05-27T08:31:01.000Z</time>
      </trkpt>
      <trkpt lat="44.92159" lon="5.50193">
        <ele>1662</ele>
        <time>2022-05-27T08:31:10.000Z</time>
      </trkpt>
      <trkpt lat="44.92161" lon="5.50192">
        <ele>1662</ele>
        <time>2022-05-27T08:31:38.000Z</time>
      </trkpt>
      <trkpt lat="44.92161" lon="5.50193">
        <ele>1662</ele>
        <time>2022-05-27T08:31:44.000Z</time>
      </trkpt>
      <trkpt lat="44.92162" lon="5.50193">
        <ele>1662</ele>
        <time>2022-05-27T08:31:49.000Z</time>
      </trkpt>
      <trkpt lat="44.92162" lon="5.50193">
        <ele>1662</ele>
        <time>2022-05-27T08:31:50.000Z</time>
      </trkpt>
      <trkpt lat="44.92162" lon="5.50193">
        <ele>1662</ele>
        <time>2022-05-27T08:31:51.000Z</time>
      </trkpt>
      <trkpt lat="44.92163" lon="5.50193">
        <ele>1662</ele>
        <time>2022-05-27T08:32:05.000Z</time>
      </trkpt>
      <trkpt lat="44.9216" lon="5.50196">
        <ele>1662</ele>
        <time>2022-05-27T08:33:15.000Z</time>
      </trkpt>
      <trkpt lat="44.9216" lon="5.50195">
        <ele>1662</ele>
        <time>2022-05-27T08:33:19.000Z</time>
      </trkpt>
      <trkpt lat="44.9216" lon="5.50195">
        <ele>1662</ele>
        <time>2022-05-27T08:33:21.000Z</time>
      </trkpt>
      <trkpt lat="44.9216" lon="5.50195">
        <ele>1662</ele>
        <time>2022-05-27T08:33:22.000Z</time>
      </trkpt>
      <trkpt lat="44.92159" lon="5.50195">
        <ele>1662</ele>
        <time>2022-05-27T08:33:25.000Z</time>
      </trkpt>
      <trkpt lat="44.9216" lon="5.50196">
        <ele>1661.8000488281</ele>
        <time>2022-05-27T08:33:31.000Z</time>
      </trkpt>
      <trkpt lat="44.92161" lon="5.50195">
        <ele>1662</ele>
        <time>2022-05-27T08:33:42.000Z</time>
      </trkpt>
      <trkpt lat="44.92161" lon="5.50195">
        <ele>1662</ele>
        <time>2022-05-27T08:33:46.000Z</time>
      </trkpt>
      <trkpt lat="44.92161" lon="5.50195">
        <ele>1662</ele>
        <time>2022-05-27T08:33:47.000Z</time>
      </trkpt>
      <trkpt lat="44.92161" lon="5.50196">
        <ele>1662</ele>
        <time>2022-05-27T08:33:48.000Z</time>
      </trkpt>
      <trkpt lat="44.92161" lon="5.50196">
        <ele>1662</ele>
        <time>2022-05-27T08:33:49.000Z</time>
      </trkpt>
      <trkpt lat="44.92161" lon="5.50197">
        <ele>1661.8000488281</ele>
        <time>2022-05-27T08:34:18.000Z</time>
      </trkpt>
      <trkpt lat="44.92161" lon="5.50198">
        <ele>1661.8000488281</ele>
        <time>2022-05-27T08:34:26.000Z</time>
      </trkpt>
      <trkpt lat="44.9216" lon="5.502">
        <ele>1661.5999755859</ele>
        <time>2022-05-27T08:34:37.000Z</time>
      </trkpt>
      <trkpt lat="44.92159" lon="5.50199">
        <ele>1661.5999755859</ele>
        <time>2022-05-27T08:34:52.000Z</time>
      </trkpt>
      <trkpt lat="44.92159" lon="5.50199">
        <ele>1661.5999755859</ele>
        <time>2022-05-27T08:35:09.000Z</time>
      </trkpt>
      <trkpt lat="44.92158" lon="5.50201">
        <ele>1661.5999755859</ele>
        <time>2022-05-27T08:35:27.000Z</time>
      </trkpt>
      <trkpt lat="44.92158" lon="5.502">
        <ele>1661.5999755859</ele>
        <time>2022-05-27T08:35:34.000Z</time>
      </trkpt>
      <trkpt lat="44.92156" lon="5.502">
        <ele>1661.5999755859</ele>
        <time>2022-05-27T08:35:41.000Z</time>
      </trkpt>
      <trkpt lat="44.92153" lon="5.50199">
        <ele>1661.8000488281</ele>
        <time>2022-05-27T08:36:13.000Z</time>
      </trkpt>
      <trkpt lat="44.92154" lon="5.50199">
        <ele>1661.8000488281</ele>
        <time>2022-05-27T08:36:16.000Z</time>
      </trkpt>
      <trkpt lat="44.92154" lon="5.50199">
        <ele>1661.8000488281</ele>
        <time>2022-05-27T08:36:18.000Z</time>
      </trkpt>
      <trkpt lat="44.92155" lon="5.502">
        <ele>1661.5999755859</ele>
        <time>2022-05-27T08:36:21.000Z</time>
      </trkpt>
      <trkpt lat="44.92155" lon="5.502">
        <ele>1661.5999755859</ele>
        <time>2022-05-27T08:36:23.000Z</time>
      </trkpt>
      <trkpt lat="44.92156" lon="5.502">
        <ele>1661.5999755859</ele>
        <time>2022-05-27T08:36:27.000Z</time>
      </trkpt>
      <trkpt lat="44.92159" lon="5.50199">
        <ele>1661.5999755859</ele>
        <time>2022-05-27T08:36:35.000Z</time>
      </trkpt>
      <trkpt lat="44.92159" lon="5.502">
        <ele>1661.5999755859</ele>
        <time>2022-05-27T08:36:39.000Z</time>
      </trkpt>
      <trkpt lat="44.92157" lon="5.50201">
        <ele>1661.5999755859</ele>
        <time>2022-05-27T08:36:56.000Z</time>
      </trkpt>
      <trkpt lat="44.92158" lon="5.50201">
        <ele>1661.5999755859</ele>
        <time>2022-05-27T08:37:04.000Z</time>
      </trkpt>
      <trkpt lat="44.92158" lon="5.50202">
        <ele>1661.4000244141</ele>
        <time>2022-05-27T08:37:08.000Z</time>
      </trkpt>
      <trkpt lat="44.92158" lon="5.50202">
        <ele>1661.4000244141</ele>
        <time>2022-05-27T08:37:14.000Z</time>
      </trkpt>
      <trkpt lat="44.92157" lon="5.50202">
        <ele>1661.4000244141</ele>
        <time>2022-05-27T08:37:24.000Z</time>
      </trkpt>
      <trkpt lat="44.92156" lon="5.50201">
        <ele>1661.5999755859</ele>
        <time>2022-05-27T08:37:27.000Z</time>
      </trkpt>
      <trkpt lat="44.92155" lon="5.502">
        <ele>1661.5999755859</ele>
        <time>2022-05-27T08:37:31.000Z</time>
      </trkpt>
      <trkpt lat="44.92155" lon="5.50199">
        <ele>1661.5999755859</ele>
        <time>2022-05-27T08:37:33.000Z</time>
      </trkpt>
      <trkpt lat="44.92155" lon="5.50196">
        <ele>1661.8000488281</ele>
        <time>2022-05-27T08:37:55.000Z</time>
      </trkpt>
      <trkpt lat="44.92153" lon="5.50196">
        <ele>1662</ele>
        <time>2022-05-27T08:38:06.000Z</time>
      </trkpt>
      <trkpt lat="44.92153" lon="5.50195">
        <ele>1662</ele>
        <time>2022-05-27T08:38:16.000Z</time>
      </trkpt>
      <trkpt lat="44.92154" lon="5.50195">
        <ele>1662</ele>
        <time>2022-05-27T08:38:27.000Z</time>
      </trkpt>
      <trkpt lat="44.92157" lon="5.50193">
        <ele>1662</ele>
        <time>2022-05-27T08:38:57.000Z</time>
      </trkpt>
      <trkpt lat="44.92157" lon="5.50192">
        <ele>1662</ele>
        <time>2022-05-27T08:39:13.000Z</time>
      </trkpt>
      <trkpt lat="44.92157" lon="5.50195">
        <ele>1662</ele>
        <time>2022-05-27T08:39:24.000Z</time>
      </trkpt>
      <trkpt lat="44.92158" lon="5.50197">
        <ele>1661.8000488281</ele>
        <time>2022-05-27T08:40:00.000Z</time>
      </trkpt>
      <trkpt lat="44.92154" lon="5.502">
        <ele>1661.5999755859</ele>
        <time>2022-05-27T08:40:21.000Z</time>
      </trkpt>
      <trkpt lat="44.92154" lon="5.50199">
        <ele>1661.8000488281</ele>
        <time>2022-05-27T08:40:22.000Z</time>
      </trkpt>
      <trkpt lat="44.92154" lon="5.50199">
        <ele>1661.8000488281</ele>
        <time>2022-05-27T08:40:24.000Z</time>
      </trkpt>
      <trkpt lat="44.92154" lon="5.502">
        <ele>1661.5999755859</ele>
        <time>2022-05-27T08:40:28.000Z</time>
      </trkpt>
      <trkpt lat="44.92154" lon="5.502">
        <ele>1661.5999755859</ele>
        <time>2022-05-27T08:40:30.000Z</time>
      </trkpt>
      <trkpt lat="44.92157" lon="5.50198">
        <ele>1661.8000488281</ele>
        <time>2022-05-27T08:40:44.000Z</time>
      </trkpt>
      <trkpt lat="44.9216" lon="5.50199">
        <ele>1661.5999755859</ele>
        <time>2022-05-27T08:41:12.000Z</time>
      </trkpt>
      <trkpt lat="44.9216" lon="5.50199">
        <ele>1661.5999755859</ele>
        <time>2022-05-27T08:41:14.000Z</time>
      </trkpt>
      <trkpt lat="44.9216" lon="5.50199">
        <ele>1661.5999755859</ele>
        <time>2022-05-27T08:41:16.000Z</time>
      </trkpt>
      <trkpt lat="44.92161" lon="5.50198">
        <ele>1661.8000488281</ele>
        <time>2022-05-27T08:41:28.000Z</time>
      </trkpt>
      <trkpt lat="44.92162" lon="5.50197">
        <ele>1661.8000488281</ele>
        <time>2022-05-27T08:41:44.000Z</time>
      </trkpt>
      <trkpt lat="44.92161" lon="5.50197">
        <ele>1661.8000488281</ele>
        <time>2022-05-27T08:41:45.000Z</time>
      </trkpt>
      <trkpt lat="44.92161" lon="5.50197">
        <ele>1661.8000488281</ele>
        <time>2022-05-27T08:41:46.000Z</time>
      </trkpt>
      <trkpt lat="44.9216" lon="5.50197">
        <ele>1661.8000488281</ele>
        <time>2022-05-27T08:41:54.000Z</time>
      </trkpt>
      <trkpt lat="44.92161" lon="5.50197">
        <ele>1661.8000488281</ele>
        <time>2022-05-27T08:42:03.000Z</time>
      </trkpt>
      <trkpt lat="44.92161" lon="5.50197">
        <ele>1661.8000488281</ele>
        <time>2022-05-27T08:42:45.000Z</time>
      </trkpt>
      <trkpt lat="44.9216" lon="5.50197">
        <ele>1661.8000488281</ele>
        <time>2022-05-27T08:43:02.000Z</time>
      </trkpt>
      <trkpt lat="44.9216" lon="5.50197">
        <ele>1661.8000488281</ele>
        <time>2022-05-27T08:43:04.000Z</time>
      </trkpt>
      <trkpt lat="44.92159" lon="5.50198">
        <ele>1661.8000488281</ele>
        <time>2022-05-27T08:43:06.000Z</time>
      </trkpt>
      <trkpt lat="44.92158" lon="5.502">
        <ele>1661.5999755859</ele>
        <time>2022-05-27T08:43:13.000Z</time>
      </trkpt>
      <trkpt lat="44.92158" lon="5.502">
        <ele>1661.5999755859</ele>
        <time>2022-05-27T08:43:14.000Z</time>
      </trkpt>
      <trkpt lat="44.92158" lon="5.502">
        <ele>1661.5999755859</ele>
        <time>2022-05-27T08:43:16.000Z</time>
      </trkpt>
      <trkpt lat="44.92161" lon="5.50202">
        <ele>1661.4000244141</ele>
        <time>2022-05-27T08:43:30.000Z</time>
      </trkpt>
      <trkpt lat="44.9216" lon="5.50203">
        <ele>1661.4000244141</ele>
        <time>2022-05-27T08:43:58.000Z</time>
      </trkpt>
      <trkpt lat="44.92162" lon="5.50202">
        <ele>1661.4000244141</ele>
        <time>2022-05-27T08:44:11.000Z</time>
      </trkpt>
      <trkpt lat="44.92155" lon="5.50207">
        <ele>1661.4000244141</ele>
        <time>2022-05-27T08:44:31.000Z</time>
      </trkpt>
      <trkpt lat="44.92152" lon="5.50209">
        <ele>1661.4000244141</ele>
        <time>2022-05-27T08:44:34.000Z</time>
      </trkpt>
      <trkpt lat="44.92146" lon="5.5021">
        <ele>1661</ele>
        <time>2022-05-27T08:44:40.000Z</time>
      </trkpt>
      <trkpt lat="44.92139" lon="5.50207">
        <ele>1660.1999511719</ele>
        <time>2022-05-27T08:44:48.000Z</time>
      </trkpt>
      <trkpt lat="44.92137" lon="5.50207">
        <ele>1660</ele>
        <time>2022-05-27T08:44:50.000Z</time>
      </trkpt>
      <trkpt lat="44.9213" lon="5.50202">
        <ele>1659.4000244141</ele>
        <time>2022-05-27T08:44:57.000Z</time>
      </trkpt>
      <trkpt lat="44.92126" lon="5.502">
        <ele>1659.1999511719</ele>
        <time>2022-05-27T08:45:01.000Z</time>
      </trkpt>
      <trkpt lat="44.92105" lon="5.50194">
        <ele>1657.1999511719</ele>
        <time>2022-05-27T08:45:25.000Z</time>
      </trkpt>
      <trkpt lat="44.9207" lon="5.5019">
        <ele>1655.4000244141</ele>
        <time>2022-05-27T08:45:57.000Z</time>
      </trkpt>
      <trkpt lat="44.92069" lon="5.5019">
        <ele>1655.4000244141</ele>
        <time>2022-05-27T08:45:58.000Z</time>
      </trkpt>
      <trkpt lat="44.92064" lon="5.50189">
        <ele>1655.4000244141</ele>
        <time>2022-05-27T08:46:02.000Z</time>
      </trkpt>
      <trkpt lat="44.92059" lon="5.5019">
        <ele>1655.4000244141</ele>
        <time>2022-05-27T08:46:06.000Z</time>
      </trkpt>
      <trkpt lat="44.92039" lon="5.50193">
        <ele>1656</ele>
        <time>2022-05-27T08:46:25.000Z</time>
      </trkpt>
      <trkpt lat="44.92036" lon="5.50192">
        <ele>1656</ele>
        <time>2022-05-27T08:46:28.000Z</time>
      </trkpt>
      <trkpt lat="44.9199" lon="5.50184">
        <ele>1656.4000244141</ele>
        <time>2022-05-27T08:47:08.000Z</time>
      </trkpt>
      <trkpt lat="44.91969" lon="5.50183">
        <ele>1655.8000488281</ele>
        <time>2022-05-27T08:47:26.000Z</time>
      </trkpt>
      <trkpt lat="44.9193" lon="5.50162">
        <ele>1655.4000244141</ele>
        <time>2022-05-27T08:47:58.000Z</time>
      </trkpt>
      <trkpt lat="44.91889" lon="5.50143">
        <ele>1654.1999511719</ele>
        <time>2022-05-27T08:48:32.000Z</time>
      </trkpt>
      <trkpt lat="44.91868" lon="5.50116">
        <ele>1651.4000244141</ele>
        <time>2022-05-27T08:48:57.000Z</time>
      </trkpt>
      <trkpt lat="44.9184" lon="5.50067">
        <ele>1648.4000244141</ele>
        <time>2022-05-27T08:49:34.000Z</time>
      </trkpt>
      <trkpt lat="44.91833" lon="5.50064">
        <ele>1647.8000488281</ele>
        <time>2022-05-27T08:49:40.000Z</time>
      </trkpt>
      <trkpt lat="44.91792" lon="5.5004">
        <ele>1642</ele>
        <time>2022-05-27T08:50:16.000Z</time>
      </trkpt>
      <trkpt lat="44.91753" lon="5.50026">
        <ele>1635.8000488281</ele>
        <time>2022-05-27T08:50:55.000Z</time>
      </trkpt>
      <trkpt lat="44.91749" lon="5.50041">
        <ele>1634.8000488281</ele>
        <time>2022-05-27T08:51:16.000Z</time>
      </trkpt>
      <trkpt lat="44.91732" lon="5.50029">
        <ele>1632.8000488281</ele>
        <time>2022-05-27T08:51:39.000Z</time>
      </trkpt>
      <trkpt lat="44.91712" lon="5.50003">
        <ele>1630.8000488281</ele>
        <time>2022-05-27T08:52:00.000Z</time>
      </trkpt>
      <trkpt lat="44.91708" lon="5.5">
        <ele>1630.4000244141</ele>
        <time>2022-05-27T08:52:03.000Z</time>
      </trkpt>
      <trkpt lat="44.91707" lon="5.5">
        <ele>1630.1999511719</ele>
        <time>2022-05-27T08:52:04.000Z</time>
      </trkpt>
      <trkpt lat="44.91707" lon="5.49999">
        <ele>1630.1999511719</ele>
        <time>2022-05-27T08:52:05.000Z</time>
      </trkpt>
      <trkpt lat="44.91702" lon="5.49992">
        <ele>1629</ele>
        <time>2022-05-27T08:52:17.000Z</time>
      </trkpt>
      <trkpt lat="44.91701" lon="5.49997">
        <ele>1629</ele>
        <time>2022-05-27T08:52:30.000Z</time>
      </trkpt>
      <trkpt lat="44.91701" lon="5.49996">
        <ele>1629</ele>
        <time>2022-05-27T08:52:36.000Z</time>
      </trkpt>
      <trkpt lat="44.917" lon="5.4999">
        <ele>1628.5999755859</ele>
        <time>2022-05-27T08:52:43.000Z</time>
      </trkpt>
      <trkpt lat="44.91669" lon="5.49946">
        <ele>1619</ele>
        <time>2022-05-27T08:53:27.000Z</time>
      </trkpt>
      <trkpt lat="44.91667" lon="5.49945">
        <ele>1618.5999755859</ele>
        <time>2022-05-27T08:53:29.000Z</time>
      </trkpt>
      <trkpt lat="44.91655" lon="5.49957">
        <ele>1616.4000244141</ele>
        <time>2022-05-27T08:54:32.000Z</time>
      </trkpt>
      <trkpt lat="44.91648" lon="5.49943">
        <ele>1614.4000244141</ele>
        <time>2022-05-27T08:54:45.000Z</time>
      </trkpt>
      <trkpt lat="44.91646" lon="5.49938">
        <ele>1613.5999755859</ele>
        <time>2022-05-27T08:54:51.000Z</time>
      </trkpt>
      <trkpt lat="44.91641" lon="5.49938">
        <ele>1612.4000244141</ele>
        <time>2022-05-27T08:55:00.000Z</time>
      </trkpt>
      <trkpt lat="44.91636" lon="5.49934">
        <ele>1611</ele>
        <time>2022-05-27T08:55:06.000Z</time>
      </trkpt>
      <trkpt lat="44.91632" lon="5.49923">
        <ele>1609.4000244141</ele>
        <time>2022-05-27T08:55:33.000Z</time>
      </trkpt>
      <trkpt lat="44.91597" lon="5.49927">
        <ele>1602.5999755859</ele>
        <time>2022-05-27T08:56:40.000Z</time>
      </trkpt>
      <trkpt lat="44.91589" lon="5.49934">
        <ele>1603.4000244141</ele>
        <time>2022-05-27T08:56:55.000Z</time>
      </trkpt>
      <trkpt lat="44.91587" lon="5.49934">
        <ele>1603.4000244141</ele>
        <time>2022-05-27T08:56:59.000Z</time>
      </trkpt>
      <trkpt lat="44.91586" lon="5.49933">
        <ele>1603</ele>
        <time>2022-05-27T08:57:01.000Z</time>
      </trkpt>
      <trkpt lat="44.91584" lon="5.49933">
        <ele>1602.8000488281</ele>
        <time>2022-05-27T08:57:04.000Z</time>
      </trkpt>
      <trkpt lat="44.91581" lon="5.49933">
        <ele>1602.5999755859</ele>
        <time>2022-05-27T08:57:11.000Z</time>
      </trkpt>
      <trkpt lat="44.91578" lon="5.49942">
        <ele>1603.4000244141</ele>
        <time>2022-05-27T08:57:28.000Z</time>
      </trkpt>
      <trkpt lat="44.91572" lon="5.49951">
        <ele>1603.8000488281</ele>
        <time>2022-05-27T08:57:35.000Z</time>
      </trkpt>
      <trkpt lat="44.91561" lon="5.49981">
        <ele>1605</ele>
        <time>2022-05-27T08:57:54.000Z</time>
      </trkpt>
      <trkpt lat="44.91554" lon="5.50008">
        <ele>1605.1999511719</ele>
        <time>2022-05-27T08:58:08.000Z</time>
      </trkpt>
      <trkpt lat="44.91549" lon="5.50023">
        <ele>1605.4000244141</ele>
        <time>2022-05-27T08:58:17.000Z</time>
      </trkpt>
      <trkpt lat="44.91548" lon="5.50025">
        <ele>1605.4000244141</ele>
        <time>2022-05-27T08:58:18.000Z</time>
      </trkpt>
      <trkpt lat="44.91547" lon="5.50026">
        <ele>1605.4000244141</ele>
        <time>2022-05-27T08:58:19.000Z</time>
      </trkpt>
      <trkpt lat="44.91545" lon="5.50044">
        <ele>1606.4000244141</ele>
        <time>2022-05-27T08:58:31.000Z</time>
      </trkpt>
      <trkpt lat="44.91543" lon="5.50046">
        <ele>1606.5999755859</ele>
        <time>2022-05-27T08:58:33.000Z</time>
      </trkpt>
      <trkpt lat="44.91539" lon="5.50052">
        <ele>1607</ele>
        <time>2022-05-27T08:58:40.000Z</time>
      </trkpt>
      <trkpt lat="44.91531" lon="5.5007">
        <ele>1609</ele>
        <time>2022-05-27T08:59:05.000Z</time>
      </trkpt>
      <trkpt lat="44.91527" lon="5.50083">
        <ele>1609.4000244141</ele>
        <time>2022-05-27T08:59:19.000Z</time>
      </trkpt>
      <trkpt lat="44.91525" lon="5.50106">
        <ele>1610.4000244141</ele>
        <time>2022-05-27T08:59:31.000Z</time>
      </trkpt>
      <trkpt lat="44.91525" lon="5.50106">
        <ele>1610.4000244141</ele>
        <time>2022-05-27T08:59:33.000Z</time>
      </trkpt>
      <trkpt lat="44.91525" lon="5.50108">
        <ele>1610.4000244141</ele>
        <time>2022-05-27T08:59:35.000Z</time>
      </trkpt>
      <trkpt lat="44.91525" lon="5.50112">
        <ele>1610.5999755859</ele>
        <time>2022-05-27T08:59:40.000Z</time>
      </trkpt>
      <trkpt lat="44.91522" lon="5.5012">
        <ele>1610.8000488281</ele>
        <time>2022-05-27T08:59:48.000Z</time>
      </trkpt>
      <trkpt lat="44.91521" lon="5.50124">
        <ele>1610.8000488281</ele>
        <time>2022-05-27T08:59:50.000Z</time>
      </trkpt>
      <trkpt lat="44.91519" lon="5.50127">
        <ele>1610.8000488281</ele>
        <time>2022-05-27T08:59:52.000Z</time>
      </trkpt>
      <trkpt lat="44.91512" lon="5.50131">
        <ele>1610.8000488281</ele>
        <time>2022-05-27T09:00:01.000Z</time>
      </trkpt>
      <trkpt lat="44.91512" lon="5.50135">
        <ele>1610.8000488281</ele>
        <time>2022-05-27T09:00:04.000Z</time>
      </trkpt>
      <trkpt lat="44.9151" lon="5.50147">
        <ele>1611.4000244141</ele>
        <time>2022-05-27T09:00:13.000Z</time>
      </trkpt>
      <trkpt lat="44.91507" lon="5.50159">
        <ele>1611.8000488281</ele>
        <time>2022-05-27T09:00:19.000Z</time>
      </trkpt>
      <trkpt lat="44.91501" lon="5.50172">
        <ele>1612.5999755859</ele>
        <time>2022-05-27T09:00:27.000Z</time>
      </trkpt>
      <trkpt lat="44.91502" lon="5.50179">
        <ele>1612.8000488281</ele>
        <time>2022-05-27T09:00:31.000Z</time>
      </trkpt>
      <trkpt lat="44.91502" lon="5.5018">
        <ele>1612.8000488281</ele>
        <time>2022-05-27T09:00:32.000Z</time>
      </trkpt>
      <trkpt lat="44.91502" lon="5.50182">
        <ele>1612.8000488281</ele>
        <time>2022-05-27T09:00:33.000Z</time>
      </trkpt>
      <trkpt lat="44.915" lon="5.50189">
        <ele>1613.1999511719</ele>
        <time>2022-05-27T09:00:39.000Z</time>
      </trkpt>
      <trkpt lat="44.91499" lon="5.50192">
        <ele>1613.4000244141</ele>
        <time>2022-05-27T09:00:41.000Z</time>
      </trkpt>
      <trkpt lat="44.91498" lon="5.50193">
        <ele>1613.4000244141</ele>
        <time>2022-05-27T09:00:42.000Z</time>
      </trkpt>
      <trkpt lat="44.91496" lon="5.50203">
        <ele>1614.1999511719</ele>
        <time>2022-05-27T09:00:53.000Z</time>
      </trkpt>
      <trkpt lat="44.91496" lon="5.50208">
        <ele>1614.4000244141</ele>
        <time>2022-05-27T09:00:56.000Z</time>
      </trkpt>
      <trkpt lat="44.91493" lon="5.50224">
        <ele>1615.1999511719</ele>
        <time>2022-05-27T09:01:09.000Z</time>
      </trkpt>
      <trkpt lat="44.91485" lon="5.50235">
        <ele>1615.4000244141</ele>
        <time>2022-05-27T09:01:18.000Z</time>
      </trkpt>
      <trkpt lat="44.91485" lon="5.5024">
        <ele>1615.5999755859</ele>
        <time>2022-05-27T09:01:21.000Z</time>
      </trkpt>
      <trkpt lat="44.91484" lon="5.50252">
        <ele>1616.1999511719</ele>
        <time>2022-05-27T09:01:36.000Z</time>
      </trkpt>
      <trkpt lat="44.91484" lon="5.50256">
        <ele>1616.4000244141</ele>
        <time>2022-05-27T09:01:40.000Z</time>
      </trkpt>
      <trkpt lat="44.91484" lon="5.50266">
        <ele>1617.1999511719</ele>
        <time>2022-05-27T09:01:51.000Z</time>
      </trkpt>
      <trkpt lat="44.9148" lon="5.50273">
        <ele>1618</ele>
        <time>2022-05-27T09:01:58.000Z</time>
      </trkpt>
      <trkpt lat="44.91484" lon="5.50309">
        <ele>1620</ele>
        <time>2022-05-27T09:02:27.000Z</time>
      </trkpt>
      <trkpt lat="44.91483" lon="5.5031">
        <ele>1620</ele>
        <time>2022-05-27T09:02:28.000Z</time>
      </trkpt>
      <trkpt lat="44.91483" lon="5.50311">
        <ele>1620</ele>
        <time>2022-05-27T09:02:29.000Z</time>
      </trkpt>
      <trkpt lat="44.91482" lon="5.50313">
        <ele>1620.1999511719</ele>
        <time>2022-05-27T09:02:31.000Z</time>
      </trkpt>
      <trkpt lat="44.9148" lon="5.50318">
        <ele>1620.4000244141</ele>
        <time>2022-05-27T09:02:35.000Z</time>
      </trkpt>
      <trkpt lat="44.9148" lon="5.5032">
        <ele>1620.4000244141</ele>
        <time>2022-05-27T09:02:37.000Z</time>
      </trkpt>
      <trkpt lat="44.91478" lon="5.50321">
        <ele>1620.5999755859</ele>
        <time>2022-05-27T09:02:39.000Z</time>
      </trkpt>
      <trkpt lat="44.91475" lon="5.50327">
        <ele>1621</ele>
        <time>2022-05-27T09:02:47.000Z</time>
      </trkpt>
      <trkpt lat="44.91475" lon="5.50329">
        <ele>1621.1999511719</ele>
        <time>2022-05-27T09:02:50.000Z</time>
      </trkpt>
      <trkpt lat="44.91475" lon="5.50334">
        <ele>1621.4000244141</ele>
        <time>2022-05-27T09:02:53.000Z</time>
      </trkpt>
      <trkpt lat="44.91478" lon="5.50343">
        <ele>1621.5999755859</ele>
        <time>2022-05-27T09:03:01.000Z</time>
      </trkpt>
      <trkpt lat="44.91459" lon="5.50343">
        <ele>1624.4000244141</ele>
        <time>2022-05-27T09:03:20.000Z</time>
      </trkpt>
      <trkpt lat="44.91453" lon="5.50339">
        <ele>1625.1999511719</ele>
        <time>2022-05-27T09:03:23.000Z</time>
      </trkpt>
      <trkpt lat="44.91449" lon="5.50332">
        <ele>1625.5999755859</ele>
        <time>2022-05-27T09:03:30.000Z</time>
      </trkpt>
      <trkpt lat="44.91447" lon="5.50328">
        <ele>1625.8000488281</ele>
        <time>2022-05-27T09:03:33.000Z</time>
      </trkpt>
      <trkpt lat="44.91439" lon="5.50311">
        <ele>1627</ele>
        <time>2022-05-27T09:03:52.000Z</time>
      </trkpt>
      <trkpt lat="44.91439" lon="5.50306">
        <ele>1626.5999755859</ele>
        <time>2022-05-27T09:04:05.000Z</time>
      </trkpt>
      <trkpt lat="44.91439" lon="5.50302">
        <ele>1626.1999511719</ele>
        <time>2022-05-27T09:04:07.000Z</time>
      </trkpt>
      <trkpt lat="44.91436" lon="5.50296">
        <ele>1625.8000488281</ele>
        <time>2022-05-27T09:04:11.000Z</time>
      </trkpt>
      <trkpt lat="44.91435" lon="5.50276">
        <ele>1623.8000488281</ele>
        <time>2022-05-27T09:04:39.000Z</time>
      </trkpt>
      <trkpt lat="44.91422" lon="5.50267">
        <ele>1624.8000488281</ele>
        <time>2022-05-27T09:04:58.000Z</time>
      </trkpt>
      <trkpt lat="44.91422" lon="5.50265">
        <ele>1624.8000488281</ele>
        <time>2022-05-27T09:05:00.000Z</time>
      </trkpt>
      <trkpt lat="44.91422" lon="5.50264">
        <ele>1624.5999755859</ele>
        <time>2022-05-27T09:05:02.000Z</time>
      </trkpt>
      <trkpt lat="44.91422" lon="5.50264">
        <ele>1624.5999755859</ele>
        <time>2022-05-27T09:05:03.000Z</time>
      </trkpt>
      <trkpt lat="44.91423" lon="5.50263">
        <ele>1624.5999755859</ele>
        <time>2022-05-27T09:05:05.000Z</time>
      </trkpt>
      <trkpt lat="44.91424" lon="5.50261">
        <ele>1624.1999511719</ele>
        <time>2022-05-27T09:05:09.000Z</time>
      </trkpt>
      <trkpt lat="44.91423" lon="5.50259">
        <ele>1624.1999511719</ele>
        <time>2022-05-27T09:05:14.000Z</time>
      </trkpt>
      <trkpt lat="44.91416" lon="5.50252">
        <ele>1624.4000244141</ele>
        <time>2022-05-27T09:05:22.000Z</time>
      </trkpt>
      <trkpt lat="44.91416" lon="5.50249">
        <ele>1624.1999511719</ele>
        <time>2022-05-27T09:05:26.000Z</time>
      </trkpt>
      <trkpt lat="44.91416" lon="5.50247">
        <ele>1623.8000488281</ele>
        <time>2022-05-27T09:05:29.000Z</time>
      </trkpt>
      <trkpt lat="44.91416" lon="5.50246">
        <ele>1623.8000488281</ele>
        <time>2022-05-27T09:05:30.000Z</time>
      </trkpt>
      <trkpt lat="44.91416" lon="5.50246">
        <ele>1623.8000488281</ele>
        <time>2022-05-27T09:05:31.000Z</time>
      </trkpt>
      <trkpt lat="44.91417" lon="5.50244">
        <ele>1623.4000244141</ele>
        <time>2022-05-27T09:05:35.000Z</time>
      </trkpt>
      <trkpt lat="44.91413" lon="5.50242">
        <ele>1623.4000244141</ele>
        <time>2022-05-27T09:05:47.000Z</time>
      </trkpt>
      <trkpt lat="44.91412" lon="5.5024">
        <ele>1623.4000244141</ele>
        <time>2022-05-27T09:05:49.000Z</time>
      </trkpt>
      <trkpt lat="44.91411" lon="5.50237">
        <ele>1623</ele>
        <time>2022-05-27T09:05:51.000Z</time>
      </trkpt>
      <trkpt lat="44.91411" lon="5.50237">
        <ele>1623</ele>
        <time>2022-05-27T09:06:01.000Z</time>
      </trkpt>
      <trkpt lat="44.91411" lon="5.50237">
        <ele>1623</ele>
        <time>2022-05-27T09:06:04.000Z</time>
      </trkpt>
      <trkpt lat="44.91411" lon="5.50238">
        <ele>1623</ele>
        <time>2022-05-27T09:06:06.000Z</time>
      </trkpt>
      <trkpt lat="44.91413" lon="5.5024">
        <ele>1623.1999511719</ele>
        <time>2022-05-27T09:06:10.000Z</time>
      </trkpt>
      <trkpt lat="44.91414" lon="5.50241">
        <ele>1623.1999511719</ele>
        <time>2022-05-27T09:06:12.000Z</time>
      </trkpt>
      <trkpt lat="44.91415" lon="5.50241">
        <ele>1623</ele>
        <time>2022-05-27T09:06:14.000Z</time>
      </trkpt>
      <trkpt lat="44.91415" lon="5.5024">
        <ele>1623</ele>
        <time>2022-05-27T09:06:17.000Z</time>
      </trkpt>
      <trkpt lat="44.91416" lon="5.50239">
        <ele>1622.8000488281</ele>
        <time>2022-05-27T09:06:19.000Z</time>
      </trkpt>
      <trkpt lat="44.91416" lon="5.50239">
        <ele>1622.5999755859</ele>
        <time>2022-05-27T09:06:22.000Z</time>
      </trkpt>
      <trkpt lat="44.91417" lon="5.50239">
        <ele>1622.5999755859</ele>
        <time>2022-05-27T09:06:25.000Z</time>
      </trkpt>
      <trkpt lat="44.91416" lon="5.50237">
        <ele>1622.4000244141</ele>
        <time>2022-05-27T09:06:28.000Z</time>
      </trkpt>
      <trkpt lat="44.91416" lon="5.50236">
        <ele>1622.1999511719</ele>
        <time>2022-05-27T09:06:32.000Z</time>
      </trkpt>
      <trkpt lat="44.91417" lon="5.50235">
        <ele>1622.1999511719</ele>
        <time>2022-05-27T09:06:36.000Z</time>
      </trkpt>
      <trkpt lat="44.91417" lon="5.50231">
        <ele>1621.8000488281</ele>
        <time>2022-05-27T09:06:41.000Z</time>
      </trkpt>
      <trkpt lat="44.91419" lon="5.50232">
        <ele>1621.5999755859</ele>
        <time>2022-05-27T09:06:46.000Z</time>
      </trkpt>
      <trkpt lat="44.91418" lon="5.50235">
        <ele>1622</ele>
        <time>2022-05-27T09:06:51.000Z</time>
      </trkpt>
      <trkpt lat="44.91418" lon="5.50235">
        <ele>1622</ele>
        <time>2022-05-27T09:06:56.000Z</time>
      </trkpt>
      <trkpt lat="44.91417" lon="5.50237">
        <ele>1622.4000244141</ele>
        <time>2022-05-27T09:07:01.000Z</time>
      </trkpt>
      <trkpt lat="44.91417" lon="5.5024">
        <ele>1622.8000488281</ele>
        <time>2022-05-27T09:07:06.000Z</time>
      </trkpt>
      <trkpt lat="44.91412" lon="5.50234">
        <ele>1622.4000244141</ele>
        <time>2022-05-27T09:07:24.000Z</time>
      </trkpt>
      <trkpt lat="44.91414" lon="5.50235">
        <ele>1622.4000244141</ele>
        <time>2022-05-27T09:07:34.000Z</time>
      </trkpt>
      <trkpt lat="44.91427" lon="5.50247">
        <ele>1622.8000488281</ele>
        <time>2022-05-27T09:08:02.000Z</time>
      </trkpt>
      <trkpt lat="44.91424" lon="5.50247">
        <ele>1623.1999511719</ele>
        <time>2022-05-27T09:08:07.000Z</time>
      </trkpt>
      <trkpt lat="44.91423" lon="5.50249">
        <ele>1623.5999755859</ele>
        <time>2022-05-27T09:08:11.000Z</time>
      </trkpt>
      <trkpt lat="44.91421" lon="5.50256">
        <ele>1624.1999511719</ele>
        <time>2022-05-27T09:08:17.000Z</time>
      </trkpt>
      <trkpt lat="44.91422" lon="5.50265">
        <ele>1624.8000488281</ele>
        <time>2022-05-27T09:08:23.000Z</time>
      </trkpt>
      <trkpt lat="44.91423" lon="5.5027">
        <ele>1625</ele>
        <time>2022-05-27T09:08:29.000Z</time>
      </trkpt>
      <trkpt lat="44.91423" lon="5.5027">
        <ele>1625</ele>
        <time>2022-05-27T09:08:30.000Z</time>
      </trkpt>
      <trkpt lat="44.91428" lon="5.50268">
        <ele>1624.1999511719</ele>
        <time>2022-05-27T09:08:37.000Z</time>
      </trkpt>
      <trkpt lat="44.91429" lon="5.50267">
        <ele>1624.1999511719</ele>
        <time>2022-05-27T09:08:38.000Z</time>
      </trkpt>
      <trkpt lat="44.91431" lon="5.50272">
        <ele>1624.1999511719</ele>
        <time>2022-05-27T09:08:50.000Z</time>
      </trkpt>
      <trkpt lat="44.91429" lon="5.50286">
        <ele>1626.1999511719</ele>
        <time>2022-05-27T09:09:01.000Z</time>
      </trkpt>
      <trkpt lat="44.91433" lon="5.50299">
        <ele>1627.1999511719</ele>
        <time>2022-05-27T09:09:12.000Z</time>
      </trkpt>
      <trkpt lat="44.91438" lon="5.50318">
        <ele>1627.1999511719</ele>
        <time>2022-05-27T09:09:22.000Z</time>
      </trkpt>
      <trkpt lat="44.91449" lon="5.50339">
        <ele>1626.1999511719</ele>
        <time>2022-05-27T09:09:47.000Z</time>
      </trkpt>
      <trkpt lat="44.91469" lon="5.50326">
        <ele>1621.8000488281</ele>
        <time>2022-05-27T09:10:11.000Z</time>
      </trkpt>
      <trkpt lat="44.9147" lon="5.50323">
        <ele>1621.5999755859</ele>
        <time>2022-05-27T09:10:13.000Z</time>
      </trkpt>
      <trkpt lat="44.91471" lon="5.50321">
        <ele>1621.4000244141</ele>
        <time>2022-05-27T09:10:14.000Z</time>
      </trkpt>
      <trkpt lat="44.91472" lon="5.50319">
        <ele>1621.1999511719</ele>
        <time>2022-05-27T09:10:15.000Z</time>
      </trkpt>
      <trkpt lat="44.91476" lon="5.50316">
        <ele>1620.8000488281</ele>
        <time>2022-05-27T09:10:19.000Z</time>
      </trkpt>
      <trkpt lat="44.91479" lon="5.50303">
        <ele>1620.4000244141</ele>
        <time>2022-05-27T09:10:27.000Z</time>
      </trkpt>
      <trkpt lat="44.91476" lon="5.50297">
        <ele>1620.1999511719</ele>
        <time>2022-05-27T09:10:33.000Z</time>
      </trkpt>
      <trkpt lat="44.91476" lon="5.50296">
        <ele>1620</ele>
        <time>2022-05-27T09:10:34.000Z</time>
      </trkpt>
      <trkpt lat="44.91476" lon="5.50284">
        <ele>1619.1999511719</ele>
        <time>2022-05-27T09:10:40.000Z</time>
      </trkpt>
      <trkpt lat="44.91477" lon="5.50281">
        <ele>1619</ele>
        <time>2022-05-27T09:10:42.000Z</time>
      </trkpt>
      <trkpt lat="44.91479" lon="5.50275">
        <ele>1618.4000244141</ele>
        <time>2022-05-27T09:10:49.000Z</time>
      </trkpt>
      <trkpt lat="44.91478" lon="5.50263">
        <ele>1617.5999755859</ele>
        <time>2022-05-27T09:11:01.000Z</time>
      </trkpt>
      <trkpt lat="44.91482" lon="5.50253">
        <ele>1616.4000244141</ele>
        <time>2022-05-27T09:11:07.000Z</time>
      </trkpt>
      <trkpt lat="44.91482" lon="5.50252">
        <ele>1616.1999511719</ele>
        <time>2022-05-27T09:11:08.000Z</time>
      </trkpt>
      <trkpt lat="44.91482" lon="5.5025">
        <ele>1616.1999511719</ele>
        <time>2022-05-27T09:11:09.000Z</time>
      </trkpt>
      <trkpt lat="44.91482" lon="5.50246">
        <ele>1616</ele>
        <time>2022-05-27T09:11:11.000Z</time>
      </trkpt>
      <trkpt lat="44.91486" lon="5.50224">
        <ele>1615</ele>
        <time>2022-05-27T09:11:25.000Z</time>
      </trkpt>
      <trkpt lat="44.91487" lon="5.50211">
        <ele>1614.5999755859</ele>
        <time>2022-05-27T09:11:36.000Z</time>
      </trkpt>
      <trkpt lat="44.91492" lon="5.50196">
        <ele>1613.8000488281</ele>
        <time>2022-05-27T09:11:51.000Z</time>
      </trkpt>
      <trkpt lat="44.91495" lon="5.50188">
        <ele>1613.4000244141</ele>
        <time>2022-05-27T09:11:57.000Z</time>
      </trkpt>
      <trkpt lat="44.91496" lon="5.50187">
        <ele>1613.1999511719</ele>
        <time>2022-05-27T09:11:58.000Z</time>
      </trkpt>
      <trkpt lat="44.91497" lon="5.50183">
        <ele>1613.1999511719</ele>
        <time>2022-05-27T09:12:23.000Z</time>
      </trkpt>
      <trkpt lat="44.91497" lon="5.50183">
        <ele>1613.1999511719</ele>
        <time>2022-05-27T09:12:24.000Z</time>
      </trkpt>
      <trkpt lat="44.91497" lon="5.50183">
        <ele>1613.1999511719</ele>
        <time>2022-05-27T09:12:25.000Z</time>
      </trkpt>
      <trkpt lat="44.91499" lon="5.50185">
        <ele>1613.1999511719</ele>
        <time>2022-05-27T09:12:39.000Z</time>
      </trkpt>
      <trkpt lat="44.915" lon="5.50184">
        <ele>1613</ele>
        <time>2022-05-27T09:12:45.000Z</time>
      </trkpt>
      <trkpt lat="44.91498" lon="5.50177">
        <ele>1612.8000488281</ele>
        <time>2022-05-27T09:13:01.000Z</time>
      </trkpt>
      <trkpt lat="44.91502" lon="5.50148">
        <ele>1611.5999755859</ele>
        <time>2022-05-27T09:13:29.000Z</time>
      </trkpt>
      <trkpt lat="44.91504" lon="5.50146">
        <ele>1611.5999755859</ele>
        <time>2022-05-27T09:13:31.000Z</time>
      </trkpt>
      <trkpt lat="44.91505" lon="5.50137">
        <ele>1611.1999511719</ele>
        <time>2022-05-27T09:13:36.000Z</time>
      </trkpt>
      <trkpt lat="44.91505" lon="5.50135">
        <ele>1611</ele>
        <time>2022-05-27T09:13:39.000Z</time>
      </trkpt>
      <trkpt lat="44.91509" lon="5.50128">
        <ele>1610.5999755859</ele>
        <time>2022-05-27T09:13:45.000Z</time>
      </trkpt>
      <trkpt lat="44.9151" lon="5.50124">
        <ele>1610.5999755859</ele>
        <time>2022-05-27T09:13:47.000Z</time>
      </trkpt>
      <trkpt lat="44.91511" lon="5.50122">
        <ele>1610.4000244141</ele>
        <time>2022-05-27T09:13:48.000Z</time>
      </trkpt>
      <trkpt lat="44.91514" lon="5.50115">
        <ele>1610.1999511719</ele>
        <time>2022-05-27T09:13:53.000Z</time>
      </trkpt>
      <trkpt lat="44.91512" lon="5.50113">
        <ele>1610</ele>
        <time>2022-05-27T09:14:15.000Z</time>
      </trkpt>
      <trkpt lat="44.91504" lon="5.50111">
        <ele>1610.1999511719</ele>
        <time>2022-05-27T09:14:34.000Z</time>
      </trkpt>
      <trkpt lat="44.91503" lon="5.50111">
        <ele>1610.1999511719</ele>
        <time>2022-05-27T09:14:35.000Z</time>
      </trkpt>
      <trkpt lat="44.91503" lon="5.50112">
        <ele>1610.4000244141</ele>
        <time>2022-05-27T09:14:36.000Z</time>
      </trkpt>
      <trkpt lat="44.91504" lon="5.50112">
        <ele>1610.4000244141</ele>
        <time>2022-05-27T09:14:37.000Z</time>
      </trkpt>
      <trkpt lat="44.91504" lon="5.50114">
        <ele>1610.4000244141</ele>
        <time>2022-05-27T09:14:39.000Z</time>
      </trkpt>
      <trkpt lat="44.91504" lon="5.50115">
        <ele>1610.4000244141</ele>
        <time>2022-05-27T09:14:40.000Z</time>
      </trkpt>
      <trkpt lat="44.91505" lon="5.50115">
        <ele>1610.4000244141</ele>
        <time>2022-05-27T09:14:41.000Z</time>
      </trkpt>
      <trkpt lat="44.91504" lon="5.50116">
        <ele>1610.4000244141</ele>
        <time>2022-05-27T09:14:42.000Z</time>
      </trkpt>
      <trkpt lat="44.91504" lon="5.50115">
        <ele>1610.4000244141</ele>
        <time>2022-05-27T09:14:43.000Z</time>
      </trkpt>
      <trkpt lat="44.91504" lon="5.50115">
        <ele>1610.4000244141</ele>
        <time>2022-05-27T09:14:44.000Z</time>
      </trkpt>
      <trkpt lat="44.91503" lon="5.50114">
        <ele>1610.4000244141</ele>
        <time>2022-05-27T09:14:46.000Z</time>
      </trkpt>
      <trkpt lat="44.91496" lon="5.50117">
        <ele>1610.8000488281</ele>
        <time>2022-05-27T09:14:56.000Z</time>
      </trkpt>
      <trkpt lat="44.91494" lon="5.50117">
        <ele>1610.8000488281</ele>
        <time>2022-05-27T09:14:59.000Z</time>
      </trkpt>
      <trkpt lat="44.91494" lon="5.50117">
        <ele>1610.8000488281</ele>
        <time>2022-05-27T09:15:00.000Z</time>
      </trkpt>
      <trkpt lat="44.9149" lon="5.50119">
        <ele>1611</ele>
        <time>2022-05-27T09:15:04.000Z</time>
      </trkpt>
      <trkpt lat="44.91488" lon="5.50118">
        <ele>1611.1999511719</ele>
        <time>2022-05-27T09:15:05.000Z</time>
      </trkpt>
      <trkpt lat="44.91471" lon="5.50107">
        <ele>1612</ele>
        <time>2022-05-27T09:15:20.000Z</time>
      </trkpt>
      <trkpt lat="44.91467" lon="5.50102">
        <ele>1612.1999511719</ele>
        <time>2022-05-27T09:15:24.000Z</time>
      </trkpt>
      <trkpt lat="44.91457" lon="5.5009">
        <ele>1612.8000488281</ele>
        <time>2022-05-27T09:15:37.000Z</time>
      </trkpt>
      <trkpt lat="44.91448" lon="5.50086">
        <ele>1613.1999511719</ele>
        <time>2022-05-27T09:15:43.000Z</time>
      </trkpt>
      <trkpt lat="44.91441" lon="5.50082">
        <ele>1613.5999755859</ele>
        <time>2022-05-27T09:15:50.000Z</time>
      </trkpt>
      <trkpt lat="44.91433" lon="5.5008">
        <ele>1614</ele>
        <time>2022-05-27T09:15:57.000Z</time>
      </trkpt>
      <trkpt lat="44.91426" lon="5.50079">
        <ele>1614.1999511719</ele>
        <time>2022-05-27T09:16:04.000Z</time>
      </trkpt>
      <trkpt lat="44.91425" lon="5.50078">
        <ele>1614.1999511719</ele>
        <time>2022-05-27T09:16:05.000Z</time>
      </trkpt>
      <trkpt lat="44.91421" lon="5.50079">
        <ele>1614.1999511719</ele>
        <time>2022-05-27T09:16:08.000Z</time>
      </trkpt>
      <trkpt lat="44.91406" lon="5.50075">
        <ele>1614.8000488281</ele>
        <time>2022-05-27T09:16:19.000Z</time>
      </trkpt>
      <trkpt lat="44.91405" lon="5.50075">
        <ele>1614.8000488281</ele>
        <time>2022-05-27T09:16:21.000Z</time>
      </trkpt>
      <trkpt lat="44.91401" lon="5.50079">
        <ele>1615</ele>
        <time>2022-05-27T09:16:23.000Z</time>
      </trkpt>
      <trkpt lat="44.91399" lon="5.50082">
        <ele>1615</ele>
        <time>2022-05-27T09:16:27.000Z</time>
      </trkpt>
      <trkpt lat="44.91397" lon="5.50087">
        <ele>1615.1999511719</ele>
        <time>2022-05-27T09:16:32.000Z</time>
      </trkpt>
      <trkpt lat="44.91395" lon="5.50093">
        <ele>1615.4000244141</ele>
        <time>2022-05-27T09:16:38.000Z</time>
      </trkpt>
      <trkpt lat="44.91393" lon="5.50097">
        <ele>1615.4000244141</ele>
        <time>2022-05-27T09:16:42.000Z</time>
      </trkpt>
      <trkpt lat="44.91391" lon="5.501">
        <ele>1615.5999755859</ele>
        <time>2022-05-27T09:16:46.000Z</time>
      </trkpt>
      <trkpt lat="44.9139" lon="5.50105">
        <ele>1615.8000488281</ele>
        <time>2022-05-27T09:16:51.000Z</time>
      </trkpt>
      <trkpt lat="44.91388" lon="5.50111">
        <ele>1615.8000488281</ele>
        <time>2022-05-27T09:16:55.000Z</time>
      </trkpt>
      <trkpt lat="44.91383" lon="5.50113">
        <ele>1616.1999511719</ele>
        <time>2022-05-27T09:16:59.000Z</time>
      </trkpt>
      <trkpt lat="44.91373" lon="5.50114">
        <ele>1616.8000488281</ele>
        <time>2022-05-27T09:17:04.000Z</time>
      </trkpt>
      <trkpt lat="44.91359" lon="5.50128">
        <ele>1616.4000244141</ele>
        <time>2022-05-27T09:17:16.000Z</time>
      </trkpt>
      <trkpt lat="44.91349" lon="5.50131">
        <ele>1616.4000244141</ele>
        <time>2022-05-27T09:17:23.000Z</time>
      </trkpt>
      <trkpt lat="44.91348" lon="5.50131">
        <ele>1616.1999511719</ele>
        <time>2022-05-27T09:17:24.000Z</time>
      </trkpt>
      <trkpt lat="44.91346" lon="5.50131">
        <ele>1616.1999511719</ele>
        <time>2022-05-27T09:17:25.000Z</time>
      </trkpt>
      <trkpt lat="44.91344" lon="5.50131">
        <ele>1616.4000244141</ele>
        <time>2022-05-27T09:17:26.000Z</time>
      </trkpt>
      <trkpt lat="44.91343" lon="5.50131">
        <ele>1616.4000244141</ele>
        <time>2022-05-27T09:17:27.000Z</time>
      </trkpt>
      <trkpt lat="44.91342" lon="5.50132">
        <ele>1616.4000244141</ele>
        <time>2022-05-27T09:17:28.000Z</time>
      </trkpt>
      <trkpt lat="44.91338" lon="5.50132">
        <ele>1616.4000244141</ele>
        <time>2022-05-27T09:17:31.000Z</time>
      </trkpt>
      <trkpt lat="44.91329" lon="5.50139">
        <ele>1616</ele>
        <time>2022-05-27T09:17:40.000Z</time>
      </trkpt>
      <trkpt lat="44.91327" lon="5.50145">
        <ele>1616</ele>
        <time>2022-05-27T09:17:44.000Z</time>
      </trkpt>
      <trkpt lat="44.91323" lon="5.50149">
        <ele>1615.8000488281</ele>
        <time>2022-05-27T09:17:49.000Z</time>
      </trkpt>
      <trkpt lat="44.9132" lon="5.50151">
        <ele>1615.4000244141</ele>
        <time>2022-05-27T09:17:52.000Z</time>
      </trkpt>
      <trkpt lat="44.9132" lon="5.50152">
        <ele>1615.1999511719</ele>
        <time>2022-05-27T09:17:53.000Z</time>
      </trkpt>
      <trkpt lat="44.91317" lon="5.50156">
        <ele>1614.8000488281</ele>
        <time>2022-05-27T09:18:02.000Z</time>
      </trkpt>
      <trkpt lat="44.91316" lon="5.50162">
        <ele>1614.4000244141</ele>
        <time>2022-05-27T09:18:08.000Z</time>
      </trkpt>
      <trkpt lat="44.91311" lon="5.50163">
        <ele>1614.5999755859</ele>
        <time>2022-05-27T09:18:18.000Z</time>
      </trkpt>
      <trkpt lat="44.91307" lon="5.50162">
        <ele>1614.8000488281</ele>
        <time>2022-05-27T09:18:22.000Z</time>
      </trkpt>
      <trkpt lat="44.91297" lon="5.50158">
        <ele>1615.5999755859</ele>
        <time>2022-05-27T09:18:34.000Z</time>
      </trkpt>
      <trkpt lat="44.91292" lon="5.50159">
        <ele>1615.8000488281</ele>
        <time>2022-05-27T09:18:40.000Z</time>
      </trkpt>
      <trkpt lat="44.91281" lon="5.50154">
        <ele>1617</ele>
        <time>2022-05-27T09:18:54.000Z</time>
      </trkpt>
      <trkpt lat="44.91277" lon="5.50158">
        <ele>1616.5999755859</ele>
        <time>2022-05-27T09:19:03.000Z</time>
      </trkpt>
      <trkpt lat="44.91267" lon="5.50167">
        <ele>1615.8000488281</ele>
        <time>2022-05-27T09:19:12.000Z</time>
      </trkpt>
      <trkpt lat="44.91266" lon="5.50168">
        <ele>1615.8000488281</ele>
        <time>2022-05-27T09:19:13.000Z</time>
      </trkpt>
      <trkpt lat="44.91265" lon="5.50169">
        <ele>1615.8000488281</ele>
        <time>2022-05-27T09:19:14.000Z</time>
      </trkpt>
      <trkpt lat="44.9126" lon="5.50175">
        <ele>1615.4000244141</ele>
        <time>2022-05-27T09:19:18.000Z</time>
      </trkpt>
      <trkpt lat="44.91249" lon="5.50189">
        <ele>1615.8000488281</ele>
        <time>2022-05-27T09:19:30.000Z</time>
      </trkpt>
      <trkpt lat="44.91241" lon="5.50194">
        <ele>1617</ele>
        <time>2022-05-27T09:19:36.000Z</time>
      </trkpt>
      <trkpt lat="44.91229" lon="5.50198">
        <ele>1618.1999511719</ele>
        <time>2022-05-27T09:19:43.000Z</time>
      </trkpt>
      <trkpt lat="44.91223" lon="5.502">
        <ele>1618.5999755859</ele>
        <time>2022-05-27T09:19:47.000Z</time>
      </trkpt>
      <trkpt lat="44.91222" lon="5.502">
        <ele>1618.5999755859</ele>
        <time>2022-05-27T09:19:48.000Z</time>
      </trkpt>
      <trkpt lat="44.91221" lon="5.50201">
        <ele>1618.5999755859</ele>
        <time>2022-05-27T09:19:49.000Z</time>
      </trkpt>
      <trkpt lat="44.9122" lon="5.50203">
        <ele>1618.8000488281</ele>
        <time>2022-05-27T09:19:51.000Z</time>
      </trkpt>
      <trkpt lat="44.91218" lon="5.50205">
        <ele>1619</ele>
        <time>2022-05-27T09:19:54.000Z</time>
      </trkpt>
      <trkpt lat="44.91215" lon="5.50206">
        <ele>1619</ele>
        <time>2022-05-27T09:19:57.000Z</time>
      </trkpt>
      <trkpt lat="44.91212" lon="5.50207">
        <ele>1618.8000488281</ele>
        <time>2022-05-27T09:20:02.000Z</time>
      </trkpt>
      <trkpt lat="44.91202" lon="5.50205">
        <ele>1618</ele>
        <time>2022-05-27T09:20:18.000Z</time>
      </trkpt>
      <trkpt lat="44.91198" lon="5.50205">
        <ele>1617.1999511719</ele>
        <time>2022-05-27T09:20:22.000Z</time>
      </trkpt>
      <trkpt lat="44.91194" lon="5.50204">
        <ele>1616.5999755859</ele>
        <time>2022-05-27T09:20:26.000Z</time>
      </trkpt>
      <trkpt lat="44.91184" lon="5.50201">
        <ele>1615</ele>
        <time>2022-05-27T09:20:37.000Z</time>
      </trkpt>
      <trkpt lat="44.91182" lon="5.50198">
        <ele>1614.5999755859</ele>
        <time>2022-05-27T09:20:41.000Z</time>
      </trkpt>
      <trkpt lat="44.9116" lon="5.50194">
        <ele>1611.4000244141</ele>
        <time>2022-05-27T09:21:09.000Z</time>
      </trkpt>
      <trkpt lat="44.91154" lon="5.50188">
        <ele>1611.5999755859</ele>
        <time>2022-05-27T09:21:18.000Z</time>
      </trkpt>
      <trkpt lat="44.91153" lon="5.50188">
        <ele>1611.4000244141</ele>
        <time>2022-05-27T09:21:19.000Z</time>
      </trkpt>
      <trkpt lat="44.9115" lon="5.50188">
        <ele>1611</ele>
        <time>2022-05-27T09:21:23.000Z</time>
      </trkpt>
      <trkpt lat="44.91149" lon="5.50188">
        <ele>1611</ele>
        <time>2022-05-27T09:21:26.000Z</time>
      </trkpt>
      <trkpt lat="44.91147" lon="5.5019">
        <ele>1610.5999755859</ele>
        <time>2022-05-27T09:21:32.000Z</time>
      </trkpt>
      <trkpt lat="44.91134" lon="5.50189">
        <ele>1610.5999755859</ele>
        <time>2022-05-27T09:21:41.000Z</time>
      </trkpt>
      <trkpt lat="44.91119" lon="5.50193">
        <ele>1610.5999755859</ele>
        <time>2022-05-27T09:21:56.000Z</time>
      </trkpt>
      <trkpt lat="44.91113" lon="5.50193">
        <ele>1611.5999755859</ele>
        <time>2022-05-27T09:22:03.000Z</time>
      </trkpt>
      <trkpt lat="44.91111" lon="5.50193">
        <ele>1611.8000488281</ele>
        <time>2022-05-27T09:22:05.000Z</time>
      </trkpt>
      <trkpt lat="44.91111" lon="5.50194">
        <ele>1611.8000488281</ele>
        <time>2022-05-27T09:22:06.000Z</time>
      </trkpt>
      <trkpt lat="44.91108" lon="5.50196">
        <ele>1612</ele>
        <time>2022-05-27T09:22:08.000Z</time>
      </trkpt>
      <trkpt lat="44.91105" lon="5.50197">
        <ele>1612.1999511719</ele>
        <time>2022-05-27T09:22:11.000Z</time>
      </trkpt>
      <trkpt lat="44.911" lon="5.50201">
        <ele>1612.8000488281</ele>
        <time>2022-05-27T09:22:18.000Z</time>
      </trkpt>
      <trkpt lat="44.91089" lon="5.50202">
        <ele>1614.4000244141</ele>
        <time>2022-05-27T09:22:27.000Z</time>
      </trkpt>
      <trkpt lat="44.91081" lon="5.50212">
        <ele>1615.1999511719</ele>
        <time>2022-05-27T09:22:35.000Z</time>
      </trkpt>
      <trkpt lat="44.91075" lon="5.50217">
        <ele>1616</ele>
        <time>2022-05-27T09:22:40.000Z</time>
      </trkpt>
      <trkpt lat="44.91065" lon="5.50228">
        <ele>1617</ele>
        <time>2022-05-27T09:22:53.000Z</time>
      </trkpt>
      <trkpt lat="44.91066" lon="5.50228">
        <ele>1617</ele>
        <time>2022-05-27T09:22:54.000Z</time>
      </trkpt>
      <trkpt lat="44.91066" lon="5.50228">
        <ele>1617</ele>
        <time>2022-05-27T09:22:55.000Z</time>
      </trkpt>
      <trkpt lat="44.91067" lon="5.50225">
        <ele>1617</ele>
        <time>2022-05-27T09:22:59.000Z</time>
      </trkpt>
      <trkpt lat="44.91068" lon="5.50232">
        <ele>1616.5999755859</ele>
        <time>2022-05-27T09:23:16.000Z</time>
      </trkpt>
      <trkpt lat="44.91066" lon="5.50234">
        <ele>1616.8000488281</ele>
        <time>2022-05-27T09:23:18.000Z</time>
      </trkpt>
      <trkpt lat="44.91053" lon="5.50234">
        <ele>1618.5999755859</ele>
        <time>2022-05-27T09:23:27.000Z</time>
      </trkpt>
      <trkpt lat="44.91046" lon="5.50243">
        <ele>1619.1999511719</ele>
        <time>2022-05-27T09:23:35.000Z</time>
      </trkpt>
      <trkpt lat="44.91046" lon="5.50245">
        <ele>1619.1999511719</ele>
        <time>2022-05-27T09:23:36.000Z</time>
      </trkpt>
      <trkpt lat="44.91044" lon="5.50269">
        <ele>1619.4000244141</ele>
        <time>2022-05-27T09:23:50.000Z</time>
      </trkpt>
      <trkpt lat="44.91041" lon="5.50291">
        <ele>1619.4000244141</ele>
        <time>2022-05-27T09:24:05.000Z</time>
      </trkpt>
      <trkpt lat="44.9104" lon="5.50309">
        <ele>1618.8000488281</ele>
        <time>2022-05-27T09:24:19.000Z</time>
      </trkpt>
      <trkpt lat="44.91039" lon="5.50339">
        <ele>1617.8000488281</ele>
        <time>2022-05-27T09:24:40.000Z</time>
      </trkpt>
      <trkpt lat="44.91031" lon="5.50357">
        <ele>1618.4000244141</ele>
        <time>2022-05-27T09:24:53.000Z</time>
      </trkpt>
      <trkpt lat="44.91028" lon="5.50361">
        <ele>1618.5999755859</ele>
        <time>2022-05-27T09:24:57.000Z</time>
      </trkpt>
      <trkpt lat="44.91027" lon="5.50364">
        <ele>1619</ele>
        <time>2022-05-27T09:25:00.000Z</time>
      </trkpt>
      <trkpt lat="44.91026" lon="5.50368">
        <ele>1619.4000244141</ele>
        <time>2022-05-27T09:25:03.000Z</time>
      </trkpt>
      <trkpt lat="44.91025" lon="5.50369">
        <ele>1619.5999755859</ele>
        <time>2022-05-27T09:25:04.000Z</time>
      </trkpt>
      <trkpt lat="44.91024" lon="5.5037">
        <ele>1619.8000488281</ele>
        <time>2022-05-27T09:25:05.000Z</time>
      </trkpt>
      <trkpt lat="44.91021" lon="5.50373">
        <ele>1620.4000244141</ele>
        <time>2022-05-27T09:25:09.000Z</time>
      </trkpt>
      <trkpt lat="44.9102" lon="5.50375">
        <ele>1620.5999755859</ele>
        <time>2022-05-27T09:25:11.000Z</time>
      </trkpt>
      <trkpt lat="44.91017" lon="5.50378">
        <ele>1621</ele>
        <time>2022-05-27T09:25:14.000Z</time>
      </trkpt>
      <trkpt lat="44.91015" lon="5.50381">
        <ele>1621.1999511719</ele>
        <time>2022-05-27T09:25:18.000Z</time>
      </trkpt>
      <trkpt lat="44.91015" lon="5.50382">
        <ele>1621.4000244141</ele>
        <time>2022-05-27T09:25:19.000Z</time>
      </trkpt>
      <trkpt lat="44.91006" lon="5.50396">
        <ele>1623</ele>
        <time>2022-05-27T09:25:33.000Z</time>
      </trkpt>
      <trkpt lat="44.91006" lon="5.50397">
        <ele>1623</ele>
        <time>2022-05-27T09:25:34.000Z</time>
      </trkpt>
      <trkpt lat="44.91006" lon="5.50397">
        <ele>1623</ele>
        <time>2022-05-27T09:25:35.000Z</time>
      </trkpt>
      <trkpt lat="44.91001" lon="5.50408">
        <ele>1624.1999511719</ele>
        <time>2022-05-27T09:25:52.000Z</time>
      </trkpt>
      <trkpt lat="44.90998" lon="5.50421">
        <ele>1624.5999755859</ele>
        <time>2022-05-27T09:26:03.000Z</time>
      </trkpt>
      <trkpt lat="44.90994" lon="5.50452">
        <ele>1625.4000244141</ele>
        <time>2022-05-27T09:26:25.000Z</time>
      </trkpt>
      <trkpt lat="44.90988" lon="5.5047">
        <ele>1626</ele>
        <time>2022-05-27T09:26:37.000Z</time>
      </trkpt>
      <trkpt lat="44.90985" lon="5.50476">
        <ele>1626.4000244141</ele>
        <time>2022-05-27T09:26:42.000Z</time>
      </trkpt>
      <trkpt lat="44.90983" lon="5.5048">
        <ele>1626.5999755859</ele>
        <time>2022-05-27T09:26:45.000Z</time>
      </trkpt>
      <trkpt lat="44.90981" lon="5.50482">
        <ele>1626.4000244141</ele>
        <time>2022-05-27T09:26:47.000Z</time>
      </trkpt>
      <trkpt lat="44.90974" lon="5.50495">
        <ele>1626.8000488281</ele>
        <time>2022-05-27T09:26:58.000Z</time>
      </trkpt>
      <trkpt lat="44.90964" lon="5.50505">
        <ele>1626.4000244141</ele>
        <time>2022-05-27T09:27:08.000Z</time>
      </trkpt>
      <trkpt lat="44.90959" lon="5.5051">
        <ele>1626.1999511719</ele>
        <time>2022-05-27T09:27:16.000Z</time>
      </trkpt>
      <trkpt lat="44.90951" lon="5.50517">
        <ele>1626</ele>
        <time>2022-05-27T09:27:26.000Z</time>
      </trkpt>
      <trkpt lat="44.90942" lon="5.50529">
        <ele>1624.5999755859</ele>
        <time>2022-05-27T09:27:41.000Z</time>
      </trkpt>
      <trkpt lat="44.90933" lon="5.5056">
        <ele>1627.4000244141</ele>
        <time>2022-05-27T09:28:09.000Z</time>
      </trkpt>
      <trkpt lat="44.90933" lon="5.50562">
        <ele>1627.5999755859</ele>
        <time>2022-05-27T09:28:12.000Z</time>
      </trkpt>
      <trkpt lat="44.90933" lon="5.50562">
        <ele>1627.5999755859</ele>
        <time>2022-05-27T09:28:13.000Z</time>
      </trkpt>
      <trkpt lat="44.90933" lon="5.50561">
        <ele>1627.5999755859</ele>
        <time>2022-05-27T09:28:14.000Z</time>
      </trkpt>
      <trkpt lat="44.90934" lon="5.50561">
        <ele>1627.5999755859</ele>
        <time>2022-05-27T09:28:15.000Z</time>
      </trkpt>
      <trkpt lat="44.90934" lon="5.50562">
        <ele>1627.8000488281</ele>
        <time>2022-05-27T09:28:19.000Z</time>
      </trkpt>
      <trkpt lat="44.90934" lon="5.50562">
        <ele>1627.8000488281</ele>
        <time>2022-05-27T09:28:20.000Z</time>
      </trkpt>
      <trkpt lat="44.90934" lon="5.50562">
        <ele>1627.8000488281</ele>
        <time>2022-05-27T09:28:21.000Z</time>
      </trkpt>
      <trkpt lat="44.90934" lon="5.50562">
        <ele>1627.5999755859</ele>
        <time>2022-05-27T09:28:22.000Z</time>
      </trkpt>
      <trkpt lat="44.90933" lon="5.50562">
        <ele>1627.8000488281</ele>
        <time>2022-05-27T09:28:25.000Z</time>
      </trkpt>
      <trkpt lat="44.90933" lon="5.50563">
        <ele>1627.8000488281</ele>
        <time>2022-05-27T09:28:26.000Z</time>
      </trkpt>
      <trkpt lat="44.90924" lon="5.50574">
        <ele>1628</ele>
        <time>2022-05-27T09:28:40.000Z</time>
      </trkpt>
      <trkpt lat="44.90922" lon="5.50578">
        <ele>1628.4000244141</ele>
        <time>2022-05-27T09:28:45.000Z</time>
      </trkpt>
      <trkpt lat="44.9092" lon="5.50586">
        <ele>1628</ele>
        <time>2022-05-27T09:28:52.000Z</time>
      </trkpt>
      <trkpt lat="44.90919" lon="5.50592">
        <ele>1628.1999511719</ele>
        <time>2022-05-27T09:28:56.000Z</time>
      </trkpt>
      <trkpt lat="44.90917" lon="5.506">
        <ele>1628.5999755859</ele>
        <time>2022-05-27T09:29:02.000Z</time>
      </trkpt>
      <trkpt lat="44.90916" lon="5.50601">
        <ele>1628.4000244141</ele>
        <time>2022-05-27T09:29:03.000Z</time>
      </trkpt>
      <trkpt lat="44.90911" lon="5.50613">
        <ele>1627.8000488281</ele>
        <time>2022-05-27T09:29:12.000Z</time>
      </trkpt>
      <trkpt lat="44.909" lon="5.50628">
        <ele>1626.5999755859</ele>
        <time>2022-05-27T09:29:24.000Z</time>
      </trkpt>
      <trkpt lat="44.90898" lon="5.50632">
        <ele>1626.4000244141</ele>
        <time>2022-05-27T09:29:27.000Z</time>
      </trkpt>
      <trkpt lat="44.90882" lon="5.50647">
        <ele>1623.5999755859</ele>
        <time>2022-05-27T09:29:44.000Z</time>
      </trkpt>
      <trkpt lat="44.90868" lon="5.50661">
        <ele>1623.1999511719</ele>
        <time>2022-05-27T09:29:58.000Z</time>
      </trkpt>
      <trkpt lat="44.90854" lon="5.5068">
        <ele>1624.8000488281</ele>
        <time>2022-05-27T09:30:14.000Z</time>
      </trkpt>
      <trkpt lat="44.90819" lon="5.50719">
        <ele>1626.5999755859</ele>
        <time>2022-05-27T09:30:54.000Z</time>
      </trkpt>
      <trkpt lat="44.90813" lon="5.50725">
        <ele>1627.1999511719</ele>
        <time>2022-05-27T09:31:00.000Z</time>
      </trkpt>
      <trkpt lat="44.9081" lon="5.50728">
        <ele>1627.8000488281</ele>
        <time>2022-05-27T09:31:04.000Z</time>
      </trkpt>
      <trkpt lat="44.90803" lon="5.50737">
        <ele>1629</ele>
        <time>2022-05-27T09:31:15.000Z</time>
      </trkpt>
      <trkpt lat="44.90801" lon="5.50739">
        <ele>1629.1999511719</ele>
        <time>2022-05-27T09:31:17.000Z</time>
      </trkpt>
      <trkpt lat="44.90799" lon="5.50741">
        <ele>1629.4000244141</ele>
        <time>2022-05-27T09:31:20.000Z</time>
      </trkpt>
      <trkpt lat="44.90798" lon="5.50742">
        <ele>1629.4000244141</ele>
        <time>2022-05-27T09:31:23.000Z</time>
      </trkpt>
      <trkpt lat="44.90793" lon="5.50749">
        <ele>1630</ele>
        <time>2022-05-27T09:31:43.000Z</time>
      </trkpt>
      <trkpt lat="44.9079" lon="5.5075">
        <ele>1630</ele>
        <time>2022-05-27T09:31:45.000Z</time>
      </trkpt>
      <trkpt lat="44.90785" lon="5.50751">
        <ele>1630.1999511719</ele>
        <time>2022-05-27T09:31:50.000Z</time>
      </trkpt>
      <trkpt lat="44.90781" lon="5.50752">
        <ele>1630.4000244141</ele>
        <time>2022-05-27T09:31:53.000Z</time>
      </trkpt>
      <trkpt lat="44.90742" lon="5.50783">
        <ele>1638.4000244141</ele>
        <time>2022-05-27T09:32:36.000Z</time>
      </trkpt>
      <trkpt lat="44.90735" lon="5.50781">
        <ele>1638.5999755859</ele>
        <time>2022-05-27T09:32:42.000Z</time>
      </trkpt>
      <trkpt lat="44.9073" lon="5.5078">
        <ele>1638.1999511719</ele>
        <time>2022-05-27T09:32:47.000Z</time>
      </trkpt>
      <trkpt lat="44.90729" lon="5.5078">
        <ele>1638.1999511719</ele>
        <time>2022-05-27T09:32:48.000Z</time>
      </trkpt>
      <trkpt lat="44.90729" lon="5.50781">
        <ele>1638.4000244141</ele>
        <time>2022-05-27T09:32:49.000Z</time>
      </trkpt>
      <trkpt lat="44.90726" lon="5.50781">
        <ele>1638.1999511719</ele>
        <time>2022-05-27T09:32:52.000Z</time>
      </trkpt>
      <trkpt lat="44.90723" lon="5.50781">
        <ele>1638.1999511719</ele>
        <time>2022-05-27T09:32:55.000Z</time>
      </trkpt>
      <trkpt lat="44.90698" lon="5.50803">
        <ele>1640.4000244141</ele>
        <time>2022-05-27T09:33:26.000Z</time>
      </trkpt>
      <trkpt lat="44.90696" lon="5.50807">
        <ele>1640.5999755859</ele>
        <time>2022-05-27T09:33:29.000Z</time>
      </trkpt>
      <trkpt lat="44.90696" lon="5.50808">
        <ele>1640.8000488281</ele>
        <time>2022-05-27T09:33:30.000Z</time>
      </trkpt>
      <trkpt lat="44.90695" lon="5.50811">
        <ele>1641</ele>
        <time>2022-05-27T09:33:33.000Z</time>
      </trkpt>
      <trkpt lat="44.90694" lon="5.50812">
        <ele>1641</ele>
        <time>2022-05-27T09:33:34.000Z</time>
      </trkpt>
      <trkpt lat="44.90693" lon="5.50813">
        <ele>1641</ele>
        <time>2022-05-27T09:33:35.000Z</time>
      </trkpt>
      <trkpt lat="44.90692" lon="5.50814">
        <ele>1641</ele>
        <time>2022-05-27T09:33:36.000Z</time>
      </trkpt>
      <trkpt lat="44.90687" lon="5.50819">
        <ele>1640.5999755859</ele>
        <time>2022-05-27T09:33:43.000Z</time>
      </trkpt>
      <trkpt lat="44.90672" lon="5.50826">
        <ele>1639</ele>
        <time>2022-05-27T09:33:55.000Z</time>
      </trkpt>
      <trkpt lat="44.90664" lon="5.5083">
        <ele>1639.1999511719</ele>
        <time>2022-05-27T09:34:02.000Z</time>
      </trkpt>
      <trkpt lat="44.90656" lon="5.50839">
        <ele>1640.1999511719</ele>
        <time>2022-05-27T09:34:14.000Z</time>
      </trkpt>
      <trkpt lat="44.90651" lon="5.50846">
        <ele>1641.5999755859</ele>
        <time>2022-05-27T09:34:22.000Z</time>
      </trkpt>
      <trkpt lat="44.90649" lon="5.50852">
        <ele>1642.8000488281</ele>
        <time>2022-05-27T09:34:27.000Z</time>
      </trkpt>
      <trkpt lat="44.90646" lon="5.50859">
        <ele>1644.1999511719</ele>
        <time>2022-05-27T09:34:32.000Z</time>
      </trkpt>
      <trkpt lat="44.9064" lon="5.50878">
        <ele>1648</ele>
        <time>2022-05-27T09:34:48.000Z</time>
      </trkpt>
      <trkpt lat="44.90637" lon="5.50881">
        <ele>1648.8000488281</ele>
        <time>2022-05-27T09:34:53.000Z</time>
      </trkpt>
      <trkpt lat="44.90631" lon="5.50895">
        <ele>1651.8000488281</ele>
        <time>2022-05-27T09:35:07.000Z</time>
      </trkpt>
      <trkpt lat="44.90625" lon="5.50902">
        <ele>1652.8000488281</ele>
        <time>2022-05-27T09:35:15.000Z</time>
      </trkpt>
      <trkpt lat="44.90608" lon="5.50931">
        <ele>1656</ele>
        <time>2022-05-27T09:35:45.000Z</time>
      </trkpt>
      <trkpt lat="44.90603" lon="5.50934">
        <ele>1656.1999511719</ele>
        <time>2022-05-27T09:36:11.000Z</time>
      </trkpt>
      <trkpt lat="44.90603" lon="5.50934">
        <ele>1656.1999511719</ele>
        <time>2022-05-27T09:36:12.000Z</time>
      </trkpt>
      <trkpt lat="44.90604" lon="5.50934">
        <ele>1656.1999511719</ele>
        <time>2022-05-27T09:36:13.000Z</time>
      </trkpt>
      <trkpt lat="44.90604" lon="5.50934">
        <ele>1656.1999511719</ele>
        <time>2022-05-27T09:36:14.000Z</time>
      </trkpt>
      <trkpt lat="44.90604" lon="5.50934">
        <ele>1656.1999511719</ele>
        <time>2022-05-27T09:36:15.000Z</time>
      </trkpt>
      <trkpt lat="44.90601" lon="5.50934">
        <ele>1656</ele>
        <time>2022-05-27T09:36:22.000Z</time>
      </trkpt>
      <trkpt lat="44.906" lon="5.50932">
        <ele>1655.8000488281</ele>
        <time>2022-05-27T09:36:27.000Z</time>
      </trkpt>
      <trkpt lat="44.90597" lon="5.50934">
        <ele>1656</ele>
        <time>2022-05-27T09:36:31.000Z</time>
      </trkpt>
      <trkpt lat="44.90595" lon="5.50936">
        <ele>1656</ele>
        <time>2022-05-27T09:36:34.000Z</time>
      </trkpt>
      <trkpt lat="44.90594" lon="5.50939">
        <ele>1656.4000244141</ele>
        <time>2022-05-27T09:36:38.000Z</time>
      </trkpt>
      <trkpt lat="44.90593" lon="5.50941">
        <ele>1656.5999755859</ele>
        <time>2022-05-27T09:36:42.000Z</time>
      </trkpt>
      <trkpt lat="44.90593" lon="5.50943">
        <ele>1656.8000488281</ele>
        <time>2022-05-27T09:36:43.000Z</time>
      </trkpt>
      <trkpt lat="44.90592" lon="5.50944">
        <ele>1656.8000488281</ele>
        <time>2022-05-27T09:36:44.000Z</time>
      </trkpt>
      <trkpt lat="44.90592" lon="5.50946">
        <ele>1657</ele>
        <time>2022-05-27T09:36:45.000Z</time>
      </trkpt>
      <trkpt lat="44.90592" lon="5.50947">
        <ele>1657</ele>
        <time>2022-05-27T09:36:46.000Z</time>
      </trkpt>
      <trkpt lat="44.90591" lon="5.5095">
        <ele>1657.4000244141</ele>
        <time>2022-05-27T09:36:49.000Z</time>
      </trkpt>
      <trkpt lat="44.90585" lon="5.50957">
        <ele>1657.5999755859</ele>
        <time>2022-05-27T09:36:56.000Z</time>
      </trkpt>
      <trkpt lat="44.90584" lon="5.50959">
        <ele>1657.8000488281</ele>
        <time>2022-05-27T09:36:58.000Z</time>
      </trkpt>
      <trkpt lat="44.90582" lon="5.50961">
        <ele>1657.8000488281</ele>
        <time>2022-05-27T09:37:01.000Z</time>
      </trkpt>
      <trkpt lat="44.90581" lon="5.50965">
        <ele>1658.4000244141</ele>
        <time>2022-05-27T09:37:06.000Z</time>
      </trkpt>
      <trkpt lat="44.9058" lon="5.50965">
        <ele>1658.4000244141</ele>
        <time>2022-05-27T09:37:07.000Z</time>
      </trkpt>
      <trkpt lat="44.9058" lon="5.50966">
        <ele>1658.5999755859</ele>
        <time>2022-05-27T09:37:08.000Z</time>
      </trkpt>
      <trkpt lat="44.90577" lon="5.5097">
        <ele>1659</ele>
        <time>2022-05-27T09:37:13.000Z</time>
      </trkpt>
      <trkpt lat="44.90577" lon="5.50972">
        <ele>1659.4000244141</ele>
        <time>2022-05-27T09:37:15.000Z</time>
      </trkpt>
      <trkpt lat="44.90577" lon="5.50973">
        <ele>1659.5999755859</ele>
        <time>2022-05-27T09:37:16.000Z</time>
      </trkpt>
      <trkpt lat="44.90577" lon="5.50974">
        <ele>1659.5999755859</ele>
        <time>2022-05-27T09:37:17.000Z</time>
      </trkpt>
      <trkpt lat="44.90577" lon="5.50977">
        <ele>1660.1999511719</ele>
        <time>2022-05-27T09:37:20.000Z</time>
      </trkpt>
      <trkpt lat="44.90577" lon="5.50978">
        <ele>1660.4000244141</ele>
        <time>2022-05-27T09:37:21.000Z</time>
      </trkpt>
      <trkpt lat="44.90577" lon="5.5098">
        <ele>1660.5999755859</ele>
        <time>2022-05-27T09:37:23.000Z</time>
      </trkpt>
      <trkpt lat="44.90576" lon="5.50984">
        <ele>1661.4000244141</ele>
        <time>2022-05-27T09:37:27.000Z</time>
      </trkpt>
      <trkpt lat="44.90576" lon="5.50986">
        <ele>1661.5999755859</ele>
        <time>2022-05-27T09:37:29.000Z</time>
      </trkpt>
      <trkpt lat="44.90576" lon="5.5099">
        <ele>1662</ele>
        <time>2022-05-27T09:37:33.000Z</time>
      </trkpt>
      <trkpt lat="44.90571" lon="5.50996">
        <ele>1662</ele>
        <time>2022-05-27T09:37:42.000Z</time>
      </trkpt>
      <trkpt lat="44.90571" lon="5.51008">
        <ele>1664.4000244141</ele>
        <time>2022-05-27T09:37:54.000Z</time>
      </trkpt>
      <trkpt lat="44.90567" lon="5.51014">
        <ele>1666.1999511719</ele>
        <time>2022-05-27T09:38:03.000Z</time>
      </trkpt>
      <trkpt lat="44.90566" lon="5.51018">
        <ele>1667.1999511719</ele>
        <time>2022-05-27T09:38:08.000Z</time>
      </trkpt>
      <trkpt lat="44.90565" lon="5.51023">
        <ele>1668.5999755859</ele>
        <time>2022-05-27T09:38:12.000Z</time>
      </trkpt>
      <trkpt lat="44.90564" lon="5.51023">
        <ele>1668.8000488281</ele>
        <time>2022-05-27T09:38:13.000Z</time>
      </trkpt>
      <trkpt lat="44.90563" lon="5.51026">
        <ele>1669.5999755859</ele>
        <time>2022-05-27T09:38:15.000Z</time>
      </trkpt>
      <trkpt lat="44.9056" lon="5.5103">
        <ele>1671.4000244141</ele>
        <time>2022-05-27T09:38:24.000Z</time>
      </trkpt>
      <trkpt lat="44.90554" lon="5.5103">
        <ele>1672</ele>
        <time>2022-05-27T09:38:30.000Z</time>
      </trkpt>
      <trkpt lat="44.90553" lon="5.51031">
        <ele>1672.4000244141</ele>
        <time>2022-05-27T09:38:31.000Z</time>
      </trkpt>
      <trkpt lat="44.90546" lon="5.51032">
        <ele>1673.4000244141</ele>
        <time>2022-05-27T09:38:39.000Z</time>
      </trkpt>
      <trkpt lat="44.90539" lon="5.51025">
        <ele>1672</ele>
        <time>2022-05-27T09:38:50.000Z</time>
      </trkpt>
      <trkpt lat="44.90533" lon="5.51027">
        <ele>1674.4000244141</ele>
        <time>2022-05-27T09:39:04.000Z</time>
      </trkpt>
      <trkpt lat="44.90532" lon="5.51022">
        <ele>1672.4000244141</ele>
        <time>2022-05-27T09:39:19.000Z</time>
      </trkpt>
      <trkpt lat="44.90532" lon="5.51021">
        <ele>1671.8000488281</ele>
        <time>2022-05-27T09:39:27.000Z</time>
      </trkpt>
      <trkpt lat="44.90532" lon="5.51021">
        <ele>1672</ele>
        <time>2022-05-27T09:39:34.000Z</time>
      </trkpt>
      <trkpt lat="44.9053" lon="5.51022">
        <ele>1672.5999755859</ele>
        <time>2022-05-27T09:39:41.000Z</time>
      </trkpt>
      <trkpt lat="44.90526" lon="5.51017">
        <ele>1672.1999511719</ele>
        <time>2022-05-27T09:39:50.000Z</time>
      </trkpt>
      <trkpt lat="44.90528" lon="5.51015">
        <ele>1670.8000488281</ele>
        <time>2022-05-27T09:39:57.000Z</time>
      </trkpt>
      <trkpt lat="44.90531" lon="5.51012">
        <ele>1669.4000244141</ele>
        <time>2022-05-27T09:40:05.000Z</time>
      </trkpt>
      <trkpt lat="44.9053" lon="5.51008">
        <ele>1668.4000244141</ele>
        <time>2022-05-27T09:40:08.000Z</time>
      </trkpt>
      <trkpt lat="44.90527" lon="5.51001">
        <ele>1667</ele>
        <time>2022-05-27T09:40:14.000Z</time>
      </trkpt>
      <trkpt lat="44.90526" lon="5.50999">
        <ele>1666.5999755859</ele>
        <time>2022-05-27T09:40:15.000Z</time>
      </trkpt>
      <trkpt lat="44.90524" lon="5.50989">
        <ele>1664</ele>
        <time>2022-05-27T09:40:22.000Z</time>
      </trkpt>
      <trkpt lat="44.90522" lon="5.50982">
        <ele>1662.4000244141</ele>
        <time>2022-05-27T09:40:28.000Z</time>
      </trkpt>
      <trkpt lat="44.9052" lon="5.50979">
        <ele>1661.5999755859</ele>
        <time>2022-05-27T09:40:31.000Z</time>
      </trkpt>
      <trkpt lat="44.9052" lon="5.5097">
        <ele>1659.8000488281</ele>
        <time>2022-05-27T09:40:36.000Z</time>
      </trkpt>
      <trkpt lat="44.9052" lon="5.50969">
        <ele>1659.5999755859</ele>
        <time>2022-05-27T09:40:37.000Z</time>
      </trkpt>
      <trkpt lat="44.90513" lon="5.50959">
        <ele>1658.8000488281</ele>
        <time>2022-05-27T09:40:49.000Z</time>
      </trkpt>
      <trkpt lat="44.90511" lon="5.50945">
        <ele>1657</ele>
        <time>2022-05-27T09:41:03.000Z</time>
      </trkpt>
      <trkpt lat="44.90508" lon="5.50942">
        <ele>1656.5999755859</ele>
        <time>2022-05-27T09:41:06.000Z</time>
      </trkpt>
      <trkpt lat="44.905" lon="5.50935">
        <ele>1655.5999755859</ele>
        <time>2022-05-27T09:41:15.000Z</time>
      </trkpt>
      <trkpt lat="44.905" lon="5.50933">
        <ele>1655.4000244141</ele>
        <time>2022-05-27T09:41:16.000Z</time>
      </trkpt>
      <trkpt lat="44.90497" lon="5.50929">
        <ele>1654.8000488281</ele>
        <time>2022-05-27T09:41:19.000Z</time>
      </trkpt>
      <trkpt lat="44.90495" lon="5.50924">
        <ele>1654.4000244141</ele>
        <time>2022-05-27T09:41:22.000Z</time>
      </trkpt>
      <trkpt lat="44.90493" lon="5.50922">
        <ele>1654</ele>
        <time>2022-05-27T09:41:24.000Z</time>
      </trkpt>
      <trkpt lat="44.9049" lon="5.50917">
        <ele>1653.4000244141</ele>
        <time>2022-05-27T09:41:27.000Z</time>
      </trkpt>
      <trkpt lat="44.90489" lon="5.50916">
        <ele>1653.4000244141</ele>
        <time>2022-05-27T09:41:28.000Z</time>
      </trkpt>
      <trkpt lat="44.90488" lon="5.50914">
        <ele>1653</ele>
        <time>2022-05-27T09:41:29.000Z</time>
      </trkpt>
      <trkpt lat="44.90488" lon="5.50913">
        <ele>1652.8000488281</ele>
        <time>2022-05-27T09:41:30.000Z</time>
      </trkpt>
      <trkpt lat="44.90487" lon="5.50911">
        <ele>1652.5999755859</ele>
        <time>2022-05-27T09:41:31.000Z</time>
      </trkpt>
      <trkpt lat="44.90486" lon="5.50909">
        <ele>1652.4000244141</ele>
        <time>2022-05-27T09:41:32.000Z</time>
      </trkpt>
      <trkpt lat="44.90485" lon="5.50907">
        <ele>1652</ele>
        <time>2022-05-27T09:41:34.000Z</time>
      </trkpt>
      <trkpt lat="44.90481" lon="5.50901">
        <ele>1651.1999511719</ele>
        <time>2022-05-27T09:41:37.000Z</time>
      </trkpt>
      <trkpt lat="44.9048" lon="5.50899">
        <ele>1650.8000488281</ele>
        <time>2022-05-27T09:41:39.000Z</time>
      </trkpt>
      <trkpt lat="44.90477" lon="5.50894">
        <ele>1650</ele>
        <time>2022-05-27T09:41:43.000Z</time>
      </trkpt>
      <trkpt lat="44.90474" lon="5.50889">
        <ele>1649.4000244141</ele>
        <time>2022-05-27T09:41:48.000Z</time>
      </trkpt>
      <trkpt lat="44.90469" lon="5.50885">
        <ele>1648.4000244141</ele>
        <time>2022-05-27T09:41:54.000Z</time>
      </trkpt>
      <trkpt lat="44.90468" lon="5.50884">
        <ele>1648.4000244141</ele>
        <time>2022-05-27T09:41:55.000Z</time>
      </trkpt>
      <trkpt lat="44.90467" lon="5.50884">
        <ele>1648.1999511719</ele>
        <time>2022-05-27T09:41:56.000Z</time>
      </trkpt>
      <trkpt lat="44.90459" lon="5.50879">
        <ele>1647.1999511719</ele>
        <time>2022-05-27T09:42:08.000Z</time>
      </trkpt>
      <trkpt lat="44.90458" lon="5.50878">
        <ele>1647</ele>
        <time>2022-05-27T09:42:09.000Z</time>
      </trkpt>
      <trkpt lat="44.90456" lon="5.50878">
        <ele>1646.8000488281</ele>
        <time>2022-05-27T09:42:10.000Z</time>
      </trkpt>
      <trkpt lat="44.90437" lon="5.5087">
        <ele>1645.8000488281</ele>
        <time>2022-05-27T09:42:27.000Z</time>
      </trkpt>
      <trkpt lat="44.90426" lon="5.50871">
        <ele>1646</ele>
        <time>2022-05-27T09:42:35.000Z</time>
      </trkpt>
      <trkpt lat="44.90414" lon="5.50867">
        <ele>1646.8000488281</ele>
        <time>2022-05-27T09:42:49.000Z</time>
      </trkpt>
      <trkpt lat="44.90411" lon="5.50868">
        <ele>1647.1999511719</ele>
        <time>2022-05-27T09:42:55.000Z</time>
      </trkpt>
      <trkpt lat="44.90403" lon="5.50861">
        <ele>1647.5999755859</ele>
        <time>2022-05-27T09:43:05.000Z</time>
      </trkpt>
      <trkpt lat="44.90387" lon="5.50853">
        <ele>1648.8000488281</ele>
        <time>2022-05-27T09:43:22.000Z</time>
      </trkpt>
      <trkpt lat="44.90381" lon="5.50849">
        <ele>1649</ele>
        <time>2022-05-27T09:43:27.000Z</time>
      </trkpt>
      <trkpt lat="44.9038" lon="5.50847">
        <ele>1649</ele>
        <time>2022-05-27T09:43:29.000Z</time>
      </trkpt>
      <trkpt lat="44.90378" lon="5.50842">
        <ele>1648.5999755859</ele>
        <time>2022-05-27T09:43:33.000Z</time>
      </trkpt>
      <trkpt lat="44.90375" lon="5.50837">
        <ele>1648.1999511719</ele>
        <time>2022-05-27T09:43:36.000Z</time>
      </trkpt>
      <trkpt lat="44.9037" lon="5.50828">
        <ele>1647.5999755859</ele>
        <time>2022-05-27T09:43:42.000Z</time>
      </trkpt>
      <trkpt lat="44.90364" lon="5.50819">
        <ele>1647</ele>
        <time>2022-05-27T09:43:49.000Z</time>
      </trkpt>
      <trkpt lat="44.90333" lon="5.50775">
        <ele>1645.8000488281</ele>
        <time>2022-05-27T09:44:29.000Z</time>
      </trkpt>
      <trkpt lat="44.90326" lon="5.50768">
        <ele>1646.1999511719</ele>
        <time>2022-05-27T09:44:39.000Z</time>
      </trkpt>
      <trkpt lat="44.90319" lon="5.50758">
        <ele>1646.5999755859</ele>
        <time>2022-05-27T09:44:48.000Z</time>
      </trkpt>
      <trkpt lat="44.90318" lon="5.50757">
        <ele>1646.4000244141</ele>
        <time>2022-05-27T09:44:49.000Z</time>
      </trkpt>
      <trkpt lat="44.90318" lon="5.50753">
        <ele>1646</ele>
        <time>2022-05-27T09:44:52.000Z</time>
      </trkpt>
      <trkpt lat="44.90317" lon="5.50747">
        <ele>1645.5999755859</ele>
        <time>2022-05-27T09:44:55.000Z</time>
      </trkpt>
      <trkpt lat="44.90315" lon="5.50743">
        <ele>1645</ele>
        <time>2022-05-27T09:44:58.000Z</time>
      </trkpt>
      <trkpt lat="44.90313" lon="5.5074">
        <ele>1645</ele>
        <time>2022-05-27T09:45:01.000Z</time>
      </trkpt>
      <trkpt lat="44.90279" lon="5.50698">
        <ele>1644.8000488281</ele>
        <time>2022-05-27T09:45:52.000Z</time>
      </trkpt>
      <trkpt lat="44.90275" lon="5.50693">
        <ele>1644.8000488281</ele>
        <time>2022-05-27T09:45:56.000Z</time>
      </trkpt>
      <trkpt lat="44.90272" lon="5.50689">
        <ele>1644.5999755859</ele>
        <time>2022-05-27T09:46:00.000Z</time>
      </trkpt>
      <trkpt lat="44.9027" lon="5.50684">
        <ele>1644.1999511719</ele>
        <time>2022-05-27T09:46:05.000Z</time>
      </trkpt>
      <trkpt lat="44.90253" lon="5.50672">
        <ele>1644</ele>
        <time>2022-05-27T09:46:22.000Z</time>
      </trkpt>
      <trkpt lat="44.90228" lon="5.50648">
        <ele>1641.4000244141</ele>
        <time>2022-05-27T09:46:53.000Z</time>
      </trkpt>
      <trkpt lat="44.90228" lon="5.5065">
        <ele>1641.5999755859</ele>
        <time>2022-05-27T09:47:32.000Z</time>
      </trkpt>
      <trkpt lat="44.90228" lon="5.5065">
        <ele>1641.5999755859</ele>
        <time>2022-05-27T09:47:36.000Z</time>
      </trkpt>
      <trkpt lat="44.90227" lon="5.50649">
        <ele>1641.4000244141</ele>
        <time>2022-05-27T09:47:39.000Z</time>
      </trkpt>
      <trkpt lat="44.90228" lon="5.50646">
        <ele>1641</ele>
        <time>2022-05-27T09:47:45.000Z</time>
      </trkpt>
      <trkpt lat="44.90229" lon="5.50644">
        <ele>1640.5999755859</ele>
        <time>2022-05-27T09:47:53.000Z</time>
      </trkpt>
      <trkpt lat="44.90228" lon="5.50648">
        <ele>1641.4000244141</ele>
        <time>2022-05-27T09:48:06.000Z</time>
      </trkpt>
      <trkpt lat="44.90232" lon="5.50646">
        <ele>1641</ele>
        <time>2022-05-27T09:48:24.000Z</time>
      </trkpt>
      <trkpt lat="44.90229" lon="5.50632">
        <ele>1639.1999511719</ele>
        <time>2022-05-27T09:48:42.000Z</time>
      </trkpt>
      <trkpt lat="44.90222" lon="5.5063">
        <ele>1639</ele>
        <time>2022-05-27T09:48:48.000Z</time>
      </trkpt>
      <trkpt lat="44.9022" lon="5.50629">
        <ele>1639</ele>
        <time>2022-05-27T09:48:50.000Z</time>
      </trkpt>
      <trkpt lat="44.90215" lon="5.50632">
        <ele>1639.1999511719</ele>
        <time>2022-05-27T09:48:54.000Z</time>
      </trkpt>
      <trkpt lat="44.90214" lon="5.50632">
        <ele>1639.1999511719</ele>
        <time>2022-05-27T09:48:55.000Z</time>
      </trkpt>
      <trkpt lat="44.90211" lon="5.50631">
        <ele>1639</ele>
        <time>2022-05-27T09:48:57.000Z</time>
      </trkpt>
      <trkpt lat="44.90208" lon="5.50628">
        <ele>1638.8000488281</ele>
        <time>2022-05-27T09:48:59.000Z</time>
      </trkpt>
      <trkpt lat="44.90206" lon="5.50627">
        <ele>1638.8000488281</ele>
        <time>2022-05-27T09:49:01.000Z</time>
      </trkpt>
      <trkpt lat="44.90206" lon="5.50627">
        <ele>1638.5999755859</ele>
        <time>2022-05-27T09:49:02.000Z</time>
      </trkpt>
      <trkpt lat="44.90205" lon="5.50626">
        <ele>1638.5999755859</ele>
        <time>2022-05-27T09:49:03.000Z</time>
      </trkpt>
      <trkpt lat="44.90201" lon="5.50623">
        <ele>1638.1999511719</ele>
        <time>2022-05-27T09:49:08.000Z</time>
      </trkpt>
      <trkpt lat="44.902" lon="5.50623">
        <ele>1638.1999511719</ele>
        <time>2022-05-27T09:49:09.000Z</time>
      </trkpt>
      <trkpt lat="44.90197" lon="5.50622">
        <ele>1638.1999511719</ele>
        <time>2022-05-27T09:49:11.000Z</time>
      </trkpt>
      <trkpt lat="44.90194" lon="5.5062">
        <ele>1638</ele>
        <time>2022-05-27T09:49:13.000Z</time>
      </trkpt>
      <trkpt lat="44.90169" lon="5.50603">
        <ele>1637</ele>
        <time>2022-05-27T09:49:34.000Z</time>
      </trkpt>
      <trkpt lat="44.90168" lon="5.50602">
        <ele>1637</ele>
        <time>2022-05-27T09:49:35.000Z</time>
      </trkpt>
      <trkpt lat="44.90148" lon="5.50592">
        <ele>1637.4000244141</ele>
        <time>2022-05-27T09:49:53.000Z</time>
      </trkpt>
      <trkpt lat="44.90136" lon="5.50586">
        <ele>1637</ele>
        <time>2022-05-27T09:50:04.000Z</time>
      </trkpt>
      <trkpt lat="44.90122" lon="5.50572">
        <ele>1636.5999755859</ele>
        <time>2022-05-27T09:50:19.000Z</time>
      </trkpt>
      <trkpt lat="44.90113" lon="5.50571">
        <ele>1636.1999511719</ele>
        <time>2022-05-27T09:50:28.000Z</time>
      </trkpt>
      <trkpt lat="44.90106" lon="5.50582">
        <ele>1635.1999511719</ele>
        <time>2022-05-27T09:50:53.000Z</time>
      </trkpt>
      <trkpt lat="44.90106" lon="5.50582">
        <ele>1635.1999511719</ele>
        <time>2022-05-27T09:50:54.000Z</time>
      </trkpt>
      <trkpt lat="44.90104" lon="5.50586">
        <ele>1635</ele>
        <time>2022-05-27T09:51:15.000Z</time>
      </trkpt>
      <trkpt lat="44.90104" lon="5.50581">
        <ele>1635</ele>
        <time>2022-05-27T09:51:21.000Z</time>
      </trkpt>
      <trkpt lat="44.90104" lon="5.50579">
        <ele>1635.1999511719</ele>
        <time>2022-05-27T09:51:23.000Z</time>
      </trkpt>
      <trkpt lat="44.90105" lon="5.50574">
        <ele>1635.4000244141</ele>
        <time>2022-05-27T09:51:26.000Z</time>
      </trkpt>
      <trkpt lat="44.90105" lon="5.50568">
        <ele>1635.5999755859</ele>
        <time>2022-05-27T09:51:30.000Z</time>
      </trkpt>
      <trkpt lat="44.90111" lon="5.5056">
        <ele>1635.8000488281</ele>
        <time>2022-05-27T09:51:38.000Z</time>
      </trkpt>
      <trkpt lat="44.90117" lon="5.50566">
        <ele>1636.1999511719</ele>
        <time>2022-05-27T09:51:45.000Z</time>
      </trkpt>
      <trkpt lat="44.90117" lon="5.50569">
        <ele>1636.1999511719</ele>
        <time>2022-05-27T09:51:50.000Z</time>
      </trkpt>
      <trkpt lat="44.90118" lon="5.50568">
        <ele>1636.4000244141</ele>
        <time>2022-05-27T09:51:52.000Z</time>
      </trkpt>
      <trkpt lat="44.90117" lon="5.50569">
        <ele>1636.4000244141</ele>
        <time>2022-05-27T09:52:03.000Z</time>
      </trkpt>
      <trkpt lat="44.90118" lon="5.50569">
        <ele>1636.4000244141</ele>
        <time>2022-05-27T09:52:07.000Z</time>
      </trkpt>
      <trkpt lat="44.90118" lon="5.50569">
        <ele>1636.1999511719</ele>
        <time>2022-05-27T09:52:08.000Z</time>
      </trkpt>
      <trkpt lat="44.90118" lon="5.50568">
        <ele>1636.1999511719</ele>
        <time>2022-05-27T09:52:18.000Z</time>
      </trkpt>
      <trkpt lat="44.90118" lon="5.50568">
        <ele>1636.1999511719</ele>
        <time>2022-05-27T09:52:19.000Z</time>
      </trkpt>
      <trkpt lat="44.90118" lon="5.50568">
        <ele>1636.1999511719</ele>
        <time>2022-05-27T09:52:20.000Z</time>
      </trkpt>
      <trkpt lat="44.90118" lon="5.50568">
        <ele>1636.1999511719</ele>
        <time>2022-05-27T09:52:21.000Z</time>
      </trkpt>
      <trkpt lat="44.90118" lon="5.50568">
        <ele>1636.1999511719</ele>
        <time>2022-05-27T09:52:28.000Z</time>
      </trkpt>
      <trkpt lat="44.90118" lon="5.50566">
        <ele>1636.1999511719</ele>
        <time>2022-05-27T09:52:48.000Z</time>
      </trkpt>
      <trkpt lat="44.90118" lon="5.50567">
        <ele>1636.1999511719</ele>
        <time>2022-05-27T09:53:00.000Z</time>
      </trkpt>
      <trkpt lat="44.90117" lon="5.50568">
        <ele>1636.1999511719</ele>
        <time>2022-05-27T09:53:25.000Z</time>
      </trkpt>
      <trkpt lat="44.90117" lon="5.50567">
        <ele>1636.1999511719</ele>
        <time>2022-05-27T09:53:33.000Z</time>
      </trkpt>
      <trkpt lat="44.90118" lon="5.50567">
        <ele>1636.1999511719</ele>
        <time>2022-05-27T09:53:36.000Z</time>
      </trkpt>
      <trkpt lat="44.90118" lon="5.50567">
        <ele>1636.1999511719</ele>
        <time>2022-05-27T09:53:37.000Z</time>
      </trkpt>
      <trkpt lat="44.90118" lon="5.50567">
        <ele>1636.1999511719</ele>
        <time>2022-05-27T09:53:38.000Z</time>
      </trkpt>
      <trkpt lat="44.90119" lon="5.50569">
        <ele>1636.4000244141</ele>
        <time>2022-05-27T09:53:54.000Z</time>
      </trkpt>
      <trkpt lat="44.9012" lon="5.50568">
        <ele>1636.4000244141</ele>
        <time>2022-05-27T09:54:00.000Z</time>
      </trkpt>
      <trkpt lat="44.90119" lon="5.50568">
        <ele>1636.4000244141</ele>
        <time>2022-05-27T09:54:02.000Z</time>
      </trkpt>
      <trkpt lat="44.90118" lon="5.5057">
        <ele>1636.4000244141</ele>
        <time>2022-05-27T09:55:08.000Z</time>
      </trkpt>
      <trkpt lat="44.90114" lon="5.50568">
        <ele>1636.1999511719</ele>
        <time>2022-05-27T09:55:35.000Z</time>
      </trkpt>
      <trkpt lat="44.90113" lon="5.50568">
        <ele>1636.1999511719</ele>
        <time>2022-05-27T09:55:55.000Z</time>
      </trkpt>
      <trkpt lat="44.90113" lon="5.50565">
        <ele>1636</ele>
        <time>2022-05-27T09:56:03.000Z</time>
      </trkpt>
      <trkpt lat="44.90114" lon="5.50565">
        <ele>1636</ele>
        <time>2022-05-27T09:56:11.000Z</time>
      </trkpt>
      <trkpt lat="44.90114" lon="5.50564">
        <ele>1636</ele>
        <time>2022-05-27T09:56:12.000Z</time>
      </trkpt>
      <trkpt lat="44.90114" lon="5.50564">
        <ele>1636</ele>
        <time>2022-05-27T09:56:14.000Z</time>
      </trkpt>
      <trkpt lat="44.90114" lon="5.50564">
        <ele>1636</ele>
        <time>2022-05-27T09:56:20.000Z</time>
      </trkpt>
      <trkpt lat="44.90114" lon="5.50563">
        <ele>1636</ele>
        <time>2022-05-27T09:56:31.000Z</time>
      </trkpt>
      <trkpt lat="44.90114" lon="5.50563">
        <ele>1636</ele>
        <time>2022-05-27T09:56:32.000Z</time>
      </trkpt>
      <trkpt lat="44.90112" lon="5.50563">
        <ele>1635.8000488281</ele>
        <time>2022-05-27T09:56:34.000Z</time>
      </trkpt>
      <trkpt lat="44.90112" lon="5.50563">
        <ele>1635.8000488281</ele>
        <time>2022-05-27T09:56:39.000Z</time>
      </trkpt>
      <trkpt lat="44.9011" lon="5.50563">
        <ele>1635.8000488281</ele>
        <time>2022-05-27T09:56:44.000Z</time>
      </trkpt>
      <trkpt lat="44.9011" lon="5.50563">
        <ele>1635.8000488281</ele>
        <time>2022-05-27T09:56:45.000Z</time>
      </trkpt>
      <trkpt lat="44.9011" lon="5.50563">
        <ele>1635.8000488281</ele>
        <time>2022-05-27T09:56:46.000Z</time>
      </trkpt>
      <trkpt lat="44.90109" lon="5.50562">
        <ele>1635.8000488281</ele>
        <time>2022-05-27T09:56:48.000Z</time>
      </trkpt>
      <trkpt lat="44.9011" lon="5.50562">
        <ele>1635.8000488281</ele>
        <time>2022-05-27T09:56:56.000Z</time>
      </trkpt>
      <trkpt lat="44.90109" lon="5.50561">
        <ele>1635.8000488281</ele>
        <time>2022-05-27T09:57:12.000Z</time>
      </trkpt>
      <trkpt lat="44.90109" lon="5.50564">
        <ele>1635.8000488281</ele>
        <time>2022-05-27T09:57:18.000Z</time>
      </trkpt>
      <trkpt lat="44.90108" lon="5.50563">
        <ele>1635.8000488281</ele>
        <time>2022-05-27T09:57:26.000Z</time>
      </trkpt>
      <trkpt lat="44.90105" lon="5.50556">
        <ele>1635.4000244141</ele>
        <time>2022-05-27T09:57:52.000Z</time>
      </trkpt>
      <trkpt lat="44.90104" lon="5.50545">
        <ele>1634.5999755859</ele>
        <time>2022-05-27T09:58:00.000Z</time>
      </trkpt>
      <trkpt lat="44.90103" lon="5.50538">
        <ele>1634</ele>
        <time>2022-05-27T09:58:04.000Z</time>
      </trkpt>
      <trkpt lat="44.90102" lon="5.50536">
        <ele>1633.8000488281</ele>
        <time>2022-05-27T09:58:05.000Z</time>
      </trkpt>
      <trkpt lat="44.90104" lon="5.50531">
        <ele>1633.5999755859</ele>
        <time>2022-05-27T09:58:08.000Z</time>
      </trkpt>
      <trkpt lat="44.90104" lon="5.50526">
        <ele>1633.1999511719</ele>
        <time>2022-05-27T09:58:12.000Z</time>
      </trkpt>
      <trkpt lat="44.90101" lon="5.50513">
        <ele>1632.1999511719</ele>
        <time>2022-05-27T09:58:21.000Z</time>
      </trkpt>
      <trkpt lat="44.90092" lon="5.505">
        <ele>1630.8000488281</ele>
        <time>2022-05-27T09:58:33.000Z</time>
      </trkpt>
      <trkpt lat="44.90085" lon="5.50494">
        <ele>1630.4000244141</ele>
        <time>2022-05-27T09:58:39.000Z</time>
      </trkpt>
      <trkpt lat="44.90082" lon="5.50491">
        <ele>1630.1999511719</ele>
        <time>2022-05-27T09:58:42.000Z</time>
      </trkpt>
      <trkpt lat="44.90079" lon="5.50491">
        <ele>1630</ele>
        <time>2022-05-27T09:58:44.000Z</time>
      </trkpt>
      <trkpt lat="44.90077" lon="5.5049">
        <ele>1629.8000488281</ele>
        <time>2022-05-27T09:58:46.000Z</time>
      </trkpt>
      <trkpt lat="44.90064" lon="5.50485">
        <ele>1628.8000488281</ele>
        <time>2022-05-27T09:58:58.000Z</time>
      </trkpt>
      <trkpt lat="44.90022" lon="5.50499">
        <ele>1623.8000488281</ele>
        <time>2022-05-27T09:59:37.000Z</time>
      </trkpt>
      <trkpt lat="44.89977" lon="5.50495">
        <ele>1618.5999755859</ele>
        <time>2022-05-27T10:00:16.000Z</time>
      </trkpt>
      <trkpt lat="44.89933" lon="5.50508">
        <ele>1615.1999511719</ele>
        <time>2022-05-27T10:00:50.000Z</time>
      </trkpt>
      <trkpt lat="44.89921" lon="5.50517">
        <ele>1615.8000488281</ele>
        <time>2022-05-27T10:01:02.000Z</time>
      </trkpt>
      <trkpt lat="44.89879" lon="5.50539">
        <ele>1618.1999511719</ele>
        <time>2022-05-27T10:01:40.000Z</time>
      </trkpt>
      <trkpt lat="44.89872" lon="5.50541">
        <ele>1618.5999755859</ele>
        <time>2022-05-27T10:01:46.000Z</time>
      </trkpt>
      <trkpt lat="44.89863" lon="5.50547">
        <ele>1618.1999511719</ele>
        <time>2022-05-27T10:01:54.000Z</time>
      </trkpt>
      <trkpt lat="44.89861" lon="5.5055">
        <ele>1618.1999511719</ele>
        <time>2022-05-27T10:01:56.000Z</time>
      </trkpt>
      <trkpt lat="44.89858" lon="5.50553">
        <ele>1618</ele>
        <time>2022-05-27T10:01:59.000Z</time>
      </trkpt>
      <trkpt lat="44.89839" lon="5.50564">
        <ele>1617.4000244141</ele>
        <time>2022-05-27T10:02:14.000Z</time>
      </trkpt>
      <trkpt lat="44.89825" lon="5.50562">
        <ele>1617.5999755859</ele>
        <time>2022-05-27T10:02:25.000Z</time>
      </trkpt>
      <trkpt lat="44.89821" lon="5.50562">
        <ele>1617.4000244141</ele>
        <time>2022-05-27T10:02:29.000Z</time>
      </trkpt>
      <trkpt lat="44.89816" lon="5.50562">
        <ele>1617.1999511719</ele>
        <time>2022-05-27T10:02:34.000Z</time>
      </trkpt>
      <trkpt lat="44.89812" lon="5.50562">
        <ele>1617.1999511719</ele>
        <time>2022-05-27T10:02:38.000Z</time>
      </trkpt>
      <trkpt lat="44.89809" lon="5.50562">
        <ele>1617.4000244141</ele>
        <time>2022-05-27T10:02:41.000Z</time>
      </trkpt>
      <trkpt lat="44.89786" lon="5.50563">
        <ele>1617.5999755859</ele>
        <time>2022-05-27T10:03:01.000Z</time>
      </trkpt>
      <trkpt lat="44.89784" lon="5.50563">
        <ele>1617.8000488281</ele>
        <time>2022-05-27T10:03:02.000Z</time>
      </trkpt>
      <trkpt lat="44.89783" lon="5.50563">
        <ele>1617.8000488281</ele>
        <time>2022-05-27T10:03:03.000Z</time>
      </trkpt>
      <trkpt lat="44.89781" lon="5.50564">
        <ele>1618</ele>
        <time>2022-05-27T10:03:05.000Z</time>
      </trkpt>
      <trkpt lat="44.89778" lon="5.50565">
        <ele>1618.1999511719</ele>
        <time>2022-05-27T10:03:08.000Z</time>
      </trkpt>
      <trkpt lat="44.89774" lon="5.50567">
        <ele>1618.4000244141</ele>
        <time>2022-05-27T10:03:13.000Z</time>
      </trkpt>
      <trkpt lat="44.89764" lon="5.50575">
        <ele>1618.5999755859</ele>
        <time>2022-05-27T10:03:21.000Z</time>
      </trkpt>
      <trkpt lat="44.89751" lon="5.50581">
        <ele>1619.1999511719</ele>
        <time>2022-05-27T10:03:33.000Z</time>
      </trkpt>
      <trkpt lat="44.89749" lon="5.50582">
        <ele>1619.4000244141</ele>
        <time>2022-05-27T10:03:34.000Z</time>
      </trkpt>
      <trkpt lat="44.89744" lon="5.50589">
        <ele>1619.4000244141</ele>
        <time>2022-05-27T10:03:38.000Z</time>
      </trkpt>
      <trkpt lat="44.89707" lon="5.50607">
        <ele>1619.1999511719</ele>
        <time>2022-05-27T10:04:14.000Z</time>
      </trkpt>
      <trkpt lat="44.89671" lon="5.50598">
        <ele>1617.4000244141</ele>
        <time>2022-05-27T10:04:44.000Z</time>
      </trkpt>
      <trkpt lat="44.89668" lon="5.50598">
        <ele>1616.5999755859</ele>
        <time>2022-05-27T10:04:47.000Z</time>
      </trkpt>
      <trkpt lat="44.89663" lon="5.50587">
        <ele>1616.1999511719</ele>
        <time>2022-05-27T10:04:55.000Z</time>
      </trkpt>
      <trkpt lat="44.89653" lon="5.50578">
        <ele>1614.4000244141</ele>
        <time>2022-05-27T10:05:08.000Z</time>
      </trkpt>
      <trkpt lat="44.89641" lon="5.5055">
        <ele>1612.8000488281</ele>
        <time>2022-05-27T10:05:30.000Z</time>
      </trkpt>
      <trkpt lat="44.89599" lon="5.50528">
        <ele>1606.5999755859</ele>
        <time>2022-05-27T10:06:10.000Z</time>
      </trkpt>
      <trkpt lat="44.89595" lon="5.50526">
        <ele>1606.1999511719</ele>
        <time>2022-05-27T10:06:14.000Z</time>
      </trkpt>
      <trkpt lat="44.89583" lon="5.50512">
        <ele>1605.4000244141</ele>
        <time>2022-05-27T10:06:31.000Z</time>
      </trkpt>
      <trkpt lat="44.89573" lon="5.50508">
        <ele>1604.4000244141</ele>
        <time>2022-05-27T10:06:41.000Z</time>
      </trkpt>
      <trkpt lat="44.89533" lon="5.50533">
        <ele>1601.4000244141</ele>
        <time>2022-05-27T10:07:17.000Z</time>
      </trkpt>
      <trkpt lat="44.8953" lon="5.50536">
        <ele>1601.1999511719</ele>
        <time>2022-05-27T10:07:20.000Z</time>
      </trkpt>
      <trkpt lat="44.89524" lon="5.50537">
        <ele>1601</ele>
        <time>2022-05-27T10:07:24.000Z</time>
      </trkpt>
      <trkpt lat="44.89498" lon="5.50548">
        <ele>1600.5999755859</ele>
        <time>2022-05-27T10:07:50.000Z</time>
      </trkpt>
      <trkpt lat="44.89494" lon="5.50549">
        <ele>1600.8000488281</ele>
        <time>2022-05-27T10:07:53.000Z</time>
      </trkpt>
      <trkpt lat="44.8949" lon="5.50549">
        <ele>1601</ele>
        <time>2022-05-27T10:07:57.000Z</time>
      </trkpt>
      <trkpt lat="44.8946" lon="5.50565">
        <ele>1603.4000244141</ele>
        <time>2022-05-27T10:08:21.000Z</time>
      </trkpt>
      <trkpt lat="44.89456" lon="5.50564">
        <ele>1604</ele>
        <time>2022-05-27T10:08:24.000Z</time>
      </trkpt>
      <trkpt lat="44.8945" lon="5.50564">
        <ele>1604.5999755859</ele>
        <time>2022-05-27T10:08:32.000Z</time>
      </trkpt>
      <trkpt lat="44.8944" lon="5.5058">
        <ele>1605.1999511719</ele>
        <time>2022-05-27T10:08:43.000Z</time>
      </trkpt>
      <trkpt lat="44.89433" lon="5.50585">
        <ele>1605.5999755859</ele>
        <time>2022-05-27T10:08:50.000Z</time>
      </trkpt>
      <trkpt lat="44.89418" lon="5.50588">
        <ele>1606.4000244141</ele>
        <time>2022-05-27T10:09:05.000Z</time>
      </trkpt>
      <trkpt lat="44.89417" lon="5.50587">
        <ele>1606.4000244141</ele>
        <time>2022-05-27T10:09:06.000Z</time>
      </trkpt>
      <trkpt lat="44.89415" lon="5.50586">
        <ele>1606.5999755859</ele>
        <time>2022-05-27T10:09:08.000Z</time>
      </trkpt>
      <trkpt lat="44.89411" lon="5.50584">
        <ele>1606.5999755859</ele>
        <time>2022-05-27T10:09:11.000Z</time>
      </trkpt>
      <trkpt lat="44.89406" lon="5.50581">
        <ele>1606.8000488281</ele>
        <time>2022-05-27T10:09:16.000Z</time>
      </trkpt>
      <trkpt lat="44.89398" lon="5.50585">
        <ele>1607</ele>
        <time>2022-05-27T10:09:25.000Z</time>
      </trkpt>
      <trkpt lat="44.89394" lon="5.50586">
        <ele>1607</ele>
        <time>2022-05-27T10:09:29.000Z</time>
      </trkpt>
      <trkpt lat="44.89388" lon="5.50585">
        <ele>1607</ele>
        <time>2022-05-27T10:09:34.000Z</time>
      </trkpt>
      <trkpt lat="44.89378" lon="5.50583">
        <ele>1607</ele>
        <time>2022-05-27T10:09:44.000Z</time>
      </trkpt>
      <trkpt lat="44.89361" lon="5.5058">
        <ele>1606</ele>
        <time>2022-05-27T10:09:57.000Z</time>
      </trkpt>
      <trkpt lat="44.89358" lon="5.50579">
        <ele>1605.8000488281</ele>
        <time>2022-05-27T10:10:00.000Z</time>
      </trkpt>
      <trkpt lat="44.8935" lon="5.50574">
        <ele>1605</ele>
        <time>2022-05-27T10:10:11.000Z</time>
      </trkpt>
      <trkpt lat="44.89339" lon="5.50568">
        <ele>1604.1999511719</ele>
        <time>2022-05-27T10:10:34.000Z</time>
      </trkpt>
      <trkpt lat="44.89335" lon="5.50563">
        <ele>1604</ele>
        <time>2022-05-27T10:10:39.000Z</time>
      </trkpt>
      <trkpt lat="44.89313" lon="5.50548">
        <ele>1603.1999511719</ele>
        <time>2022-05-27T10:11:03.000Z</time>
      </trkpt>
      <trkpt lat="44.89289" lon="5.50533">
        <ele>1603.8000488281</ele>
        <time>2022-05-27T10:11:37.000Z</time>
      </trkpt>
      <trkpt lat="44.89274" lon="5.50532">
        <ele>1602.8000488281</ele>
        <time>2022-05-27T10:11:51.000Z</time>
      </trkpt>
      <trkpt lat="44.89254" lon="5.50539">
        <ele>1602.1999511719</ele>
        <time>2022-05-27T10:12:10.000Z</time>
      </trkpt>
      <trkpt lat="44.89212" lon="5.50516">
        <ele>1600.5999755859</ele>
        <time>2022-05-27T10:12:49.000Z</time>
      </trkpt>
      <trkpt lat="44.89168" lon="5.50498">
        <ele>1601.8000488281</ele>
        <time>2022-05-27T10:13:32.000Z</time>
      </trkpt>
      <trkpt lat="44.89167" lon="5.50497">
        <ele>1601.8000488281</ele>
        <time>2022-05-27T10:13:33.000Z</time>
      </trkpt>
      <trkpt lat="44.89165" lon="5.50497">
        <ele>1601.8000488281</ele>
        <time>2022-05-27T10:13:34.000Z</time>
      </trkpt>
      <trkpt lat="44.89147" lon="5.50493">
        <ele>1601.1999511719</ele>
        <time>2022-05-27T10:13:49.000Z</time>
      </trkpt>
      <trkpt lat="44.89143" lon="5.50494">
        <ele>1601</ele>
        <time>2022-05-27T10:13:53.000Z</time>
      </trkpt>
      <trkpt lat="44.89127" lon="5.50505">
        <ele>1600</ele>
        <time>2022-05-27T10:14:08.000Z</time>
      </trkpt>
      <trkpt lat="44.89118" lon="5.50524">
        <ele>1600.1999511719</ele>
        <time>2022-05-27T10:14:22.000Z</time>
      </trkpt>
      <trkpt lat="44.89083" lon="5.50566">
        <ele>1603.4000244141</ele>
        <time>2022-05-27T10:15:01.000Z</time>
      </trkpt>
      <trkpt lat="44.89069" lon="5.50594">
        <ele>1604</ele>
        <time>2022-05-27T10:15:46.000Z</time>
      </trkpt>
      <trkpt lat="44.89036" lon="5.50638">
        <ele>1602.1999511719</ele>
        <time>2022-05-27T10:16:28.000Z</time>
      </trkpt>
      <trkpt lat="44.89034" lon="5.50643">
        <ele>1602.4000244141</ele>
        <time>2022-05-27T10:16:32.000Z</time>
      </trkpt>
      <trkpt lat="44.89033" lon="5.50645">
        <ele>1602.4000244141</ele>
        <time>2022-05-27T10:16:34.000Z</time>
      </trkpt>
      <trkpt lat="44.89031" lon="5.50652">
        <ele>1602.5999755859</ele>
        <time>2022-05-27T10:16:39.000Z</time>
      </trkpt>
      <trkpt lat="44.89031" lon="5.50655">
        <ele>1602.5999755859</ele>
        <time>2022-05-27T10:16:50.000Z</time>
      </trkpt>
      <trkpt lat="44.89029" lon="5.50657">
        <ele>1602.5999755859</ele>
        <time>2022-05-27T10:17:22.000Z</time>
      </trkpt>
      <trkpt lat="44.89028" lon="5.50661">
        <ele>1602.5999755859</ele>
        <time>2022-05-27T10:17:29.000Z</time>
      </trkpt>
      <trkpt lat="44.89026" lon="5.50664">
        <ele>1602.5999755859</ele>
        <time>2022-05-27T10:17:32.000Z</time>
      </trkpt>
      <trkpt lat="44.89019" lon="5.50688">
        <ele>1603.1999511719</ele>
        <time>2022-05-27T10:17:48.000Z</time>
      </trkpt>
      <trkpt lat="44.89017" lon="5.50693">
        <ele>1603.5999755859</ele>
        <time>2022-05-27T10:17:52.000Z</time>
      </trkpt>
      <trkpt lat="44.89014" lon="5.50697">
        <ele>1603.8000488281</ele>
        <time>2022-05-27T10:17:55.000Z</time>
      </trkpt>
      <trkpt lat="44.89009" lon="5.50705">
        <ele>1605</ele>
        <time>2022-05-27T10:18:02.000Z</time>
      </trkpt>
      <trkpt lat="44.89009" lon="5.50707">
        <ele>1605</ele>
        <time>2022-05-27T10:18:03.000Z</time>
      </trkpt>
      <trkpt lat="44.89008" lon="5.50708">
        <ele>1605.1999511719</ele>
        <time>2022-05-27T10:18:04.000Z</time>
      </trkpt>
      <trkpt lat="44.89006" lon="5.50713">
        <ele>1605.8000488281</ele>
        <time>2022-05-27T10:18:08.000Z</time>
      </trkpt>
      <trkpt lat="44.89002" lon="5.50722">
        <ele>1607</ele>
        <time>2022-05-27T10:18:14.000Z</time>
      </trkpt>
      <trkpt lat="44.88968" lon="5.50766">
        <ele>1608</ele>
        <time>2022-05-27T10:18:59.000Z</time>
      </trkpt>
      <trkpt lat="44.88943" lon="5.50818">
        <ele>1607.5999755859</ele>
        <time>2022-05-27T10:19:42.000Z</time>
      </trkpt>
      <trkpt lat="44.88937" lon="5.50834">
        <ele>1608</ele>
        <time>2022-05-27T10:19:53.000Z</time>
      </trkpt>
      <trkpt lat="44.88921" lon="5.50862">
        <ele>1608.8000488281</ele>
        <time>2022-05-27T10:20:17.000Z</time>
      </trkpt>
      <trkpt lat="44.88915" lon="5.50871">
        <ele>1608.5999755859</ele>
        <time>2022-05-27T10:20:26.000Z</time>
      </trkpt>
      <trkpt lat="44.88902" lon="5.50882">
        <ele>1608.8000488281</ele>
        <time>2022-05-27T10:21:00.000Z</time>
      </trkpt>
      <trkpt lat="44.88875" lon="5.5092">
        <ele>1611.1999511719</ele>
        <time>2022-05-27T10:21:32.000Z</time>
      </trkpt>
      <trkpt lat="44.8885" lon="5.50948">
        <ele>1616.5999755859</ele>
        <time>2022-05-27T10:22:06.000Z</time>
      </trkpt>
      <trkpt lat="44.8885" lon="5.50948">
        <ele>1616.5999755859</ele>
        <time>2022-05-27T10:22:09.000Z</time>
      </trkpt>
      <trkpt lat="44.88851" lon="5.50948">
        <ele>1616.4000244141</ele>
        <time>2022-05-27T10:22:11.000Z</time>
      </trkpt>
      <trkpt lat="44.88851" lon="5.50947">
        <ele>1616.4000244141</ele>
        <time>2022-05-27T10:22:12.000Z</time>
      </trkpt>
      <trkpt lat="44.88851" lon="5.50948">
        <ele>1616.4000244141</ele>
        <time>2022-05-27T10:22:17.000Z</time>
      </trkpt>
      <trkpt lat="44.88851" lon="5.50948">
        <ele>1616.4000244141</ele>
        <time>2022-05-27T10:22:18.000Z</time>
      </trkpt>
      <trkpt lat="44.8885" lon="5.50949">
        <ele>1616.8000488281</ele>
        <time>2022-05-27T10:22:27.000Z</time>
      </trkpt>
      <trkpt lat="44.8885" lon="5.50948">
        <ele>1616.5999755859</ele>
        <time>2022-05-27T10:22:33.000Z</time>
      </trkpt>
      <trkpt lat="44.8885" lon="5.50948">
        <ele>1616.8000488281</ele>
        <time>2022-05-27T10:22:37.000Z</time>
      </trkpt>
      <trkpt lat="44.88851" lon="5.50948">
        <ele>1616.4000244141</ele>
        <time>2022-05-27T10:22:44.000Z</time>
      </trkpt>
      <trkpt lat="44.88852" lon="5.50946">
        <ele>1616</ele>
        <time>2022-05-27T10:22:49.000Z</time>
      </trkpt>
      <trkpt lat="44.88851" lon="5.50945">
        <ele>1616</ele>
        <time>2022-05-27T10:22:54.000Z</time>
      </trkpt>
      <trkpt lat="44.88852" lon="5.50946">
        <ele>1616</ele>
        <time>2022-05-27T10:23:04.000Z</time>
      </trkpt>
      <trkpt lat="44.88852" lon="5.50946">
        <ele>1616</ele>
        <time>2022-05-27T10:23:11.000Z</time>
      </trkpt>
      <trkpt lat="44.88852" lon="5.50946">
        <ele>1616</ele>
        <time>2022-05-27T10:23:14.000Z</time>
      </trkpt>
      <trkpt lat="44.88853" lon="5.50945">
        <ele>1615.8000488281</ele>
        <time>2022-05-27T10:23:19.000Z</time>
      </trkpt>
      <trkpt lat="44.88853" lon="5.50945">
        <ele>1615.8000488281</ele>
        <time>2022-05-27T10:23:22.000Z</time>
      </trkpt>
      <trkpt lat="44.88853" lon="5.50945">
        <ele>1615.8000488281</ele>
        <time>2022-05-27T10:23:30.000Z</time>
      </trkpt>
      <trkpt lat="44.88853" lon="5.50947">
        <ele>1616</ele>
        <time>2022-05-27T10:24:28.000Z</time>
      </trkpt>
      <trkpt lat="44.88853" lon="5.50947">
        <ele>1616</ele>
        <time>2022-05-27T10:24:29.000Z</time>
      </trkpt>
      <trkpt lat="44.88853" lon="5.50947">
        <ele>1616</ele>
        <time>2022-05-27T10:24:30.000Z</time>
      </trkpt>
      <trkpt lat="44.88853" lon="5.50947">
        <ele>1616.1999511719</ele>
        <time>2022-05-27T10:24:31.000Z</time>
      </trkpt>
      <trkpt lat="44.88853" lon="5.50948">
        <ele>1616.1999511719</ele>
        <time>2022-05-27T10:24:37.000Z</time>
      </trkpt>
      <trkpt lat="44.88853" lon="5.50949">
        <ele>1616.4000244141</ele>
        <time>2022-05-27T10:24:39.000Z</time>
      </trkpt>
      <trkpt lat="44.88849" lon="5.50952">
        <ele>1617.1999511719</ele>
        <time>2022-05-27T10:24:59.000Z</time>
      </trkpt>
      <trkpt lat="44.8885" lon="5.50951">
        <ele>1617</ele>
        <time>2022-05-27T10:25:08.000Z</time>
      </trkpt>
      <trkpt lat="44.8885" lon="5.5095">
        <ele>1617</ele>
        <time>2022-05-27T10:25:25.000Z</time>
      </trkpt>
      <trkpt lat="44.8885" lon="5.5095">
        <ele>1617</ele>
        <time>2022-05-27T10:25:35.000Z</time>
      </trkpt>
      <trkpt lat="44.8885" lon="5.5095">
        <ele>1616.8000488281</ele>
        <time>2022-05-27T10:25:37.000Z</time>
      </trkpt>
      <trkpt lat="44.8885" lon="5.5095">
        <ele>1617</ele>
        <time>2022-05-27T10:25:38.000Z</time>
      </trkpt>
      <trkpt lat="44.8885" lon="5.5095">
        <ele>1617</ele>
        <time>2022-05-27T10:25:42.000Z</time>
      </trkpt>
      <trkpt lat="44.88849" lon="5.50951">
        <ele>1617.1999511719</ele>
        <time>2022-05-27T10:26:01.000Z</time>
      </trkpt>
      <trkpt lat="44.88849" lon="5.50951">
        <ele>1617.1999511719</ele>
        <time>2022-05-27T10:26:05.000Z</time>
      </trkpt>
      <trkpt lat="44.88849" lon="5.5095">
        <ele>1617.1999511719</ele>
        <time>2022-05-27T10:26:09.000Z</time>
      </trkpt>
      <trkpt lat="44.88848" lon="5.5095">
        <ele>1617.1999511719</ele>
        <time>2022-05-27T10:26:21.000Z</time>
      </trkpt>
      <trkpt lat="44.88472" lon="5.50751">
        <ele>1630.1999511719</ele>
        <time>2022-05-27T11:18:16.000Z</time>
      </trkpt>
      <trkpt lat="44.88472" lon="5.50751">
        <ele>1630.1999511719</ele>
        <time>2022-05-27T11:18:17.000Z</time>
      </trkpt>
      <trkpt lat="44.88472" lon="5.50752">
        <ele>1630.1999511719</ele>
        <time>2022-05-27T11:18:20.000Z</time>
      </trkpt>
      <trkpt lat="44.88471" lon="5.50761">
        <ele>1630.5999755859</ele>
        <time>2022-05-27T11:18:28.000Z</time>
      </trkpt>
      <trkpt lat="44.88472" lon="5.50763">
        <ele>1630.8000488281</ele>
        <time>2022-05-27T11:18:30.000Z</time>
      </trkpt>
      <trkpt lat="44.88469" lon="5.50777">
        <ele>1631.8000488281</ele>
        <time>2022-05-27T11:18:42.000Z</time>
      </trkpt>
      <trkpt lat="44.8847" lon="5.50787">
        <ele>1632.5999755859</ele>
        <time>2022-05-27T11:18:48.000Z</time>
      </trkpt>
      <trkpt lat="44.88464" lon="5.50848">
        <ele>1638.1999511719</ele>
        <time>2022-05-27T11:19:35.000Z</time>
      </trkpt>
      <trkpt lat="44.88465" lon="5.50858">
        <ele>1638.8000488281</ele>
        <time>2022-05-27T11:19:43.000Z</time>
      </trkpt>
      <trkpt lat="44.88465" lon="5.50859">
        <ele>1638.8000488281</ele>
        <time>2022-05-27T11:19:44.000Z</time>
      </trkpt>
      <trkpt lat="44.88466" lon="5.50861">
        <ele>1638.8000488281</ele>
        <time>2022-05-27T11:19:45.000Z</time>
      </trkpt>
      <trkpt lat="44.88465" lon="5.50867">
        <ele>1639.1999511719</ele>
        <time>2022-05-27T11:19:51.000Z</time>
      </trkpt>
      <trkpt lat="44.88465" lon="5.50874">
        <ele>1639.4000244141</ele>
        <time>2022-05-27T11:19:55.000Z</time>
      </trkpt>
      <trkpt lat="44.88459" lon="5.50886">
        <ele>1641.1999511719</ele>
        <time>2022-05-27T11:20:05.000Z</time>
      </trkpt>
      <trkpt lat="44.88458" lon="5.50893">
        <ele>1641.8000488281</ele>
        <time>2022-05-27T11:20:11.000Z</time>
      </trkpt>
      <trkpt lat="44.88454" lon="5.50905">
        <ele>1643.8000488281</ele>
        <time>2022-05-27T11:20:22.000Z</time>
      </trkpt>
      <trkpt lat="44.88446" lon="5.50937">
        <ele>1647.5999755859</ele>
        <time>2022-05-27T11:20:51.000Z</time>
      </trkpt>
      <trkpt lat="44.88441" lon="5.50957">
        <ele>1651.1999511719</ele>
        <time>2022-05-27T11:21:09.000Z</time>
      </trkpt>
      <trkpt lat="44.8844" lon="5.5096">
        <ele>1651.8000488281</ele>
        <time>2022-05-27T11:21:12.000Z</time>
      </trkpt>
      <trkpt lat="44.88424" lon="5.50965">
        <ele>1653.8000488281</ele>
        <time>2022-05-27T11:21:35.000Z</time>
      </trkpt>
      <trkpt lat="44.88412" lon="5.50995">
        <ele>1658.1999511719</ele>
        <time>2022-05-27T11:22:02.000Z</time>
      </trkpt>
      <trkpt lat="44.88405" lon="5.51005">
        <ele>1660.5999755859</ele>
        <time>2022-05-27T11:22:17.000Z</time>
      </trkpt>
      <trkpt lat="44.88404" lon="5.51006">
        <ele>1660.5999755859</ele>
        <time>2022-05-27T11:22:18.000Z</time>
      </trkpt>
      <trkpt lat="44.884" lon="5.5101">
        <ele>1661.8000488281</ele>
        <time>2022-05-27T11:22:24.000Z</time>
      </trkpt>
      <trkpt lat="44.88399" lon="5.51011">
        <ele>1662</ele>
        <time>2022-05-27T11:22:25.000Z</time>
      </trkpt>
      <trkpt lat="44.88399" lon="5.51013">
        <ele>1662.1999511719</ele>
        <time>2022-05-27T11:22:26.000Z</time>
      </trkpt>
      <trkpt lat="44.88398" lon="5.51014">
        <ele>1662.5999755859</ele>
        <time>2022-05-27T11:22:27.000Z</time>
      </trkpt>
      <trkpt lat="44.88398" lon="5.51015">
        <ele>1662.8000488281</ele>
        <time>2022-05-27T11:22:28.000Z</time>
      </trkpt>
      <trkpt lat="44.88397" lon="5.51017">
        <ele>1663</ele>
        <time>2022-05-27T11:22:29.000Z</time>
      </trkpt>
      <trkpt lat="44.88395" lon="5.51018">
        <ele>1663.4000244141</ele>
        <time>2022-05-27T11:22:32.000Z</time>
      </trkpt>
      <trkpt lat="44.88393" lon="5.51024">
        <ele>1664.5999755859</ele>
        <time>2022-05-27T11:22:39.000Z</time>
      </trkpt>
      <trkpt lat="44.88393" lon="5.51038">
        <ele>1667</ele>
        <time>2022-05-27T11:22:49.000Z</time>
      </trkpt>
      <trkpt lat="44.88393" lon="5.51045">
        <ele>1668.1999511719</ele>
        <time>2022-05-27T11:22:54.000Z</time>
      </trkpt>
      <trkpt lat="44.88393" lon="5.51054">
        <ele>1669.8000488281</ele>
        <time>2022-05-27T11:23:03.000Z</time>
      </trkpt>
      <trkpt lat="44.88392" lon="5.51057">
        <ele>1670.4000244141</ele>
        <time>2022-05-27T11:23:07.000Z</time>
      </trkpt>
      <trkpt lat="44.88391" lon="5.51061">
        <ele>1671</ele>
        <time>2022-05-27T11:23:11.000Z</time>
      </trkpt>
      <trkpt lat="44.8839" lon="5.51062">
        <ele>1671.1999511719</ele>
        <time>2022-05-27T11:23:12.000Z</time>
      </trkpt>
      <trkpt lat="44.88389" lon="5.51063">
        <ele>1671.4000244141</ele>
        <time>2022-05-27T11:23:13.000Z</time>
      </trkpt>
      <trkpt lat="44.88384" lon="5.51075">
        <ele>1673.5999755859</ele>
        <time>2022-05-27T11:23:26.000Z</time>
      </trkpt>
      <trkpt lat="44.88384" lon="5.51079">
        <ele>1674.1999511719</ele>
        <time>2022-05-27T11:23:29.000Z</time>
      </trkpt>
      <trkpt lat="44.88384" lon="5.51082">
        <ele>1674.8000488281</ele>
        <time>2022-05-27T11:23:31.000Z</time>
      </trkpt>
      <trkpt lat="44.88384" lon="5.51085">
        <ele>1675.4000244141</ele>
        <time>2022-05-27T11:23:34.000Z</time>
      </trkpt>
      <trkpt lat="44.88384" lon="5.51086">
        <ele>1675.4000244141</ele>
        <time>2022-05-27T11:23:35.000Z</time>
      </trkpt>
      <trkpt lat="44.88384" lon="5.51087">
        <ele>1675.5999755859</ele>
        <time>2022-05-27T11:23:36.000Z</time>
      </trkpt>
      <trkpt lat="44.88383" lon="5.5109">
        <ele>1676.1999511719</ele>
        <time>2022-05-27T11:23:38.000Z</time>
      </trkpt>
      <trkpt lat="44.88373" lon="5.51127">
        <ele>1682.5999755859</ele>
        <time>2022-05-27T11:24:10.000Z</time>
      </trkpt>
      <trkpt lat="44.88369" lon="5.51134">
        <ele>1684.1999511719</ele>
        <time>2022-05-27T11:24:16.000Z</time>
      </trkpt>
      <trkpt lat="44.88365" lon="5.51141">
        <ele>1685.5999755859</ele>
        <time>2022-05-27T11:24:24.000Z</time>
      </trkpt>
      <trkpt lat="44.88363" lon="5.5116">
        <ele>1687.1999511719</ele>
        <time>2022-05-27T11:24:49.000Z</time>
      </trkpt>
      <trkpt lat="44.8837" lon="5.51166">
        <ele>1687</ele>
        <time>2022-05-27T11:25:03.000Z</time>
      </trkpt>
      <trkpt lat="44.88367" lon="5.51163">
        <ele>1687.1999511719</ele>
        <time>2022-05-27T11:25:16.000Z</time>
      </trkpt>
      <trkpt lat="44.88366" lon="5.51163">
        <ele>1687.1999511719</ele>
        <time>2022-05-27T11:25:23.000Z</time>
      </trkpt>
      <trkpt lat="44.88366" lon="5.51162">
        <ele>1687.1999511719</ele>
        <time>2022-05-27T11:25:27.000Z</time>
      </trkpt>
      <trkpt lat="44.88365" lon="5.51161">
        <ele>1687.1999511719</ele>
        <time>2022-05-27T11:25:34.000Z</time>
      </trkpt>
      <trkpt lat="44.88364" lon="5.51162">
        <ele>1687.4000244141</ele>
        <time>2022-05-27T11:25:38.000Z</time>
      </trkpt>
      <trkpt lat="44.88357" lon="5.51172">
        <ele>1689.8000488281</ele>
        <time>2022-05-27T11:25:55.000Z</time>
      </trkpt>
      <trkpt lat="44.88358" lon="5.5118">
        <ele>1690.8000488281</ele>
        <time>2022-05-27T11:26:02.000Z</time>
      </trkpt>
      <trkpt lat="44.88359" lon="5.51183">
        <ele>1691</ele>
        <time>2022-05-27T11:26:05.000Z</time>
      </trkpt>
      <trkpt lat="44.88359" lon="5.5119">
        <ele>1691.5999755859</ele>
        <time>2022-05-27T11:26:11.000Z</time>
      </trkpt>
      <trkpt lat="44.88359" lon="5.51191">
        <ele>1691.5999755859</ele>
        <time>2022-05-27T11:26:12.000Z</time>
      </trkpt>
      <trkpt lat="44.88359" lon="5.51192">
        <ele>1691.8000488281</ele>
        <time>2022-05-27T11:26:13.000Z</time>
      </trkpt>
      <trkpt lat="44.88359" lon="5.51193">
        <ele>1691.8000488281</ele>
        <time>2022-05-27T11:26:14.000Z</time>
      </trkpt>
      <trkpt lat="44.88356" lon="5.51202">
        <ele>1693</ele>
        <time>2022-05-27T11:26:23.000Z</time>
      </trkpt>
      <trkpt lat="44.88354" lon="5.51206">
        <ele>1693.5999755859</ele>
        <time>2022-05-27T11:26:28.000Z</time>
      </trkpt>
      <trkpt lat="44.88352" lon="5.51212">
        <ele>1694.5999755859</ele>
        <time>2022-05-27T11:26:34.000Z</time>
      </trkpt>
      <trkpt lat="44.88349" lon="5.51218">
        <ele>1695.8000488281</ele>
        <time>2022-05-27T11:26:40.000Z</time>
      </trkpt>
      <trkpt lat="44.88343" lon="5.51237">
        <ele>1698.5999755859</ele>
        <time>2022-05-27T11:26:59.000Z</time>
      </trkpt>
      <trkpt lat="44.88332" lon="5.51268">
        <ele>1703</ele>
        <time>2022-05-27T11:27:30.000Z</time>
      </trkpt>
      <trkpt lat="44.88322" lon="5.51284">
        <ele>1705.5999755859</ele>
        <time>2022-05-27T11:27:50.000Z</time>
      </trkpt>
      <trkpt lat="44.88319" lon="5.51327">
        <ele>1710</ele>
        <time>2022-05-27T11:28:26.000Z</time>
      </trkpt>
      <trkpt lat="44.8829" lon="5.51364">
        <ele>1714.1999511719</ele>
        <time>2022-05-27T11:29:10.000Z</time>
      </trkpt>
      <trkpt lat="44.88286" lon="5.51372">
        <ele>1714.8000488281</ele>
        <time>2022-05-27T11:29:17.000Z</time>
      </trkpt>
      <trkpt lat="44.88286" lon="5.51373">
        <ele>1715</ele>
        <time>2022-05-27T11:29:18.000Z</time>
      </trkpt>
      <trkpt lat="44.88286" lon="5.51374">
        <ele>1715</ele>
        <time>2022-05-27T11:29:19.000Z</time>
      </trkpt>
      <trkpt lat="44.88285" lon="5.51375">
        <ele>1715</ele>
        <time>2022-05-27T11:29:20.000Z</time>
      </trkpt>
      <trkpt lat="44.88285" lon="5.51377">
        <ele>1715.1999511719</ele>
        <time>2022-05-27T11:29:22.000Z</time>
      </trkpt>
      <trkpt lat="44.88283" lon="5.51382">
        <ele>1715.4000244141</ele>
        <time>2022-05-27T11:29:25.000Z</time>
      </trkpt>
      <trkpt lat="44.88282" lon="5.51385">
        <ele>1715.5999755859</ele>
        <time>2022-05-27T11:29:30.000Z</time>
      </trkpt>
      <trkpt lat="44.88279" lon="5.51392">
        <ele>1716.5999755859</ele>
        <time>2022-05-27T11:29:39.000Z</time>
      </trkpt>
      <trkpt lat="44.88265" lon="5.51422">
        <ele>1721.1999511719</ele>
        <time>2022-05-27T11:30:05.000Z</time>
      </trkpt>
      <trkpt lat="44.88265" lon="5.51441">
        <ele>1726.8000488281</ele>
        <time>2022-05-27T11:30:22.000Z</time>
      </trkpt>
      <trkpt lat="44.88265" lon="5.51451">
        <ele>1728.8000488281</ele>
        <time>2022-05-27T11:30:32.000Z</time>
      </trkpt>
      <trkpt lat="44.88257" lon="5.51465">
        <ele>1731</ele>
        <time>2022-05-27T11:30:49.000Z</time>
      </trkpt>
      <trkpt lat="44.8825" lon="5.5149">
        <ele>1735</ele>
        <time>2022-05-27T11:31:17.000Z</time>
      </trkpt>
      <trkpt lat="44.88253" lon="5.51501">
        <ele>1737.4000244141</ele>
        <time>2022-05-27T11:31:38.000Z</time>
      </trkpt>
      <trkpt lat="44.88259" lon="5.51503">
        <ele>1738.5999755859</ele>
        <time>2022-05-27T11:31:45.000Z</time>
      </trkpt>
      <trkpt lat="44.88262" lon="5.51504">
        <ele>1739</ele>
        <time>2022-05-27T11:31:48.000Z</time>
      </trkpt>
      <trkpt lat="44.88283" lon="5.51523">
        <ele>1742.8000488281</ele>
        <time>2022-05-27T11:32:28.000Z</time>
      </trkpt>
      <trkpt lat="44.88278" lon="5.5153">
        <ele>1744.8000488281</ele>
        <time>2022-05-27T11:32:36.000Z</time>
      </trkpt>
      <trkpt lat="44.88272" lon="5.51534">
        <ele>1746</ele>
        <time>2022-05-27T11:32:43.000Z</time>
      </trkpt>
      <trkpt lat="44.88272" lon="5.51534">
        <ele>1746.1999511719</ele>
        <time>2022-05-27T11:32:44.000Z</time>
      </trkpt>
      <trkpt lat="44.88271" lon="5.51534">
        <ele>1746.1999511719</ele>
        <time>2022-05-27T11:32:45.000Z</time>
      </trkpt>
      <trkpt lat="44.88268" lon="5.51537">
        <ele>1747</ele>
        <time>2022-05-27T11:32:49.000Z</time>
      </trkpt>
      <trkpt lat="44.88264" lon="5.51539">
        <ele>1747.5999755859</ele>
        <time>2022-05-27T11:32:52.000Z</time>
      </trkpt>
      <trkpt lat="44.88261" lon="5.51542">
        <ele>1748.4000244141</ele>
        <time>2022-05-27T11:32:57.000Z</time>
      </trkpt>
      <trkpt lat="44.88259" lon="5.51543">
        <ele>1748.5999755859</ele>
        <time>2022-05-27T11:33:00.000Z</time>
      </trkpt>
      <trkpt lat="44.88256" lon="5.51547">
        <ele>1749.1999511719</ele>
        <time>2022-05-27T11:33:05.000Z</time>
      </trkpt>
      <trkpt lat="44.88252" lon="5.51553">
        <ele>1750.4000244141</ele>
        <time>2022-05-27T11:33:11.000Z</time>
      </trkpt>
      <trkpt lat="44.88246" lon="5.51567">
        <ele>1754</ele>
        <time>2022-05-27T11:33:30.000Z</time>
      </trkpt>
      <trkpt lat="44.88238" lon="5.51576">
        <ele>1756</ele>
        <time>2022-05-27T11:33:42.000Z</time>
      </trkpt>
      <trkpt lat="44.88232" lon="5.5158">
        <ele>1756.8000488281</ele>
        <time>2022-05-27T11:33:52.000Z</time>
      </trkpt>
      <trkpt lat="44.88229" lon="5.51584">
        <ele>1757.4000244141</ele>
        <time>2022-05-27T11:34:00.000Z</time>
      </trkpt>
      <trkpt lat="44.8822" lon="5.51586">
        <ele>1756.5999755859</ele>
        <time>2022-05-27T11:34:13.000Z</time>
      </trkpt>
      <trkpt lat="44.88216" lon="5.51587">
        <ele>1756.4000244141</ele>
        <time>2022-05-27T11:34:16.000Z</time>
      </trkpt>
      <trkpt lat="44.88214" lon="5.51588">
        <ele>1756.4000244141</ele>
        <time>2022-05-27T11:34:19.000Z</time>
      </trkpt>
      <trkpt lat="44.88207" lon="5.51592">
        <ele>1756.4000244141</ele>
        <time>2022-05-27T11:34:27.000Z</time>
      </trkpt>
      <trkpt lat="44.88189" lon="5.51598">
        <ele>1758.8000488281</ele>
        <time>2022-05-27T11:34:45.000Z</time>
      </trkpt>
      <trkpt lat="44.88176" lon="5.51608">
        <ele>1763.4000244141</ele>
        <time>2022-05-27T11:35:13.000Z</time>
      </trkpt>
      <trkpt lat="44.88173" lon="5.51611">
        <ele>1765.1999511719</ele>
        <time>2022-05-27T11:35:17.000Z</time>
      </trkpt>
      <trkpt lat="44.88171" lon="5.51614">
        <ele>1766</ele>
        <time>2022-05-27T11:35:20.000Z</time>
      </trkpt>
      <trkpt lat="44.88161" lon="5.51631">
        <ele>1771</ele>
        <time>2022-05-27T11:35:39.000Z</time>
      </trkpt>
      <trkpt lat="44.88162" lon="5.51632">
        <ele>1771.1999511719</ele>
        <time>2022-05-27T11:35:40.000Z</time>
      </trkpt>
      <trkpt lat="44.88162" lon="5.51633">
        <ele>1771.1999511719</ele>
        <time>2022-05-27T11:35:41.000Z</time>
      </trkpt>
      <trkpt lat="44.88162" lon="5.51634">
        <ele>1771.4000244141</ele>
        <time>2022-05-27T11:35:42.000Z</time>
      </trkpt>
      <trkpt lat="44.88162" lon="5.51635">
        <ele>1771.4000244141</ele>
        <time>2022-05-27T11:35:43.000Z</time>
      </trkpt>
      <trkpt lat="44.88162" lon="5.51635">
        <ele>1771.4000244141</ele>
        <time>2022-05-27T11:35:44.000Z</time>
      </trkpt>
      <trkpt lat="44.88162" lon="5.51636">
        <ele>1771.4000244141</ele>
        <time>2022-05-27T11:35:45.000Z</time>
      </trkpt>
      <trkpt lat="44.88162" lon="5.51637">
        <ele>1771.5999755859</ele>
        <time>2022-05-27T11:35:46.000Z</time>
      </trkpt>
      <trkpt lat="44.88161" lon="5.51643">
        <ele>1772.5999755859</ele>
        <time>2022-05-27T11:35:53.000Z</time>
      </trkpt>
      <trkpt lat="44.88161" lon="5.51648">
        <ele>1773.5999755859</ele>
        <time>2022-05-27T11:35:55.000Z</time>
      </trkpt>
      <trkpt lat="44.88158" lon="5.51657">
        <ele>1775.1999511719</ele>
        <time>2022-05-27T11:36:03.000Z</time>
      </trkpt>
      <trkpt lat="44.88157" lon="5.51663">
        <ele>1775.5999755859</ele>
        <time>2022-05-27T11:36:07.000Z</time>
      </trkpt>
      <trkpt lat="44.88157" lon="5.51666">
        <ele>1775.8000488281</ele>
        <time>2022-05-27T11:36:10.000Z</time>
      </trkpt>
      <trkpt lat="44.88157" lon="5.51673">
        <ele>1776.5999755859</ele>
        <time>2022-05-27T11:36:17.000Z</time>
      </trkpt>
      <trkpt lat="44.88157" lon="5.51674">
        <ele>1776.5999755859</ele>
        <time>2022-05-27T11:36:18.000Z</time>
      </trkpt>
      <trkpt lat="44.88157" lon="5.5168">
        <ele>1777.4000244141</ele>
        <time>2022-05-27T11:36:24.000Z</time>
      </trkpt>
      <trkpt lat="44.88159" lon="5.51686">
        <ele>1777.5999755859</ele>
        <time>2022-05-27T11:36:29.000Z</time>
      </trkpt>
      <trkpt lat="44.88159" lon="5.51687">
        <ele>1777.8000488281</ele>
        <time>2022-05-27T11:36:30.000Z</time>
      </trkpt>
      <trkpt lat="44.8816" lon="5.51688">
        <ele>1777.8000488281</ele>
        <time>2022-05-27T11:36:31.000Z</time>
      </trkpt>
      <trkpt lat="44.88162" lon="5.51693">
        <ele>1778</ele>
        <time>2022-05-27T11:36:35.000Z</time>
      </trkpt>
      <trkpt lat="44.88162" lon="5.51693">
        <ele>1778.1999511719</ele>
        <time>2022-05-27T11:36:36.000Z</time>
      </trkpt>
      <trkpt lat="44.88163" lon="5.51701">
        <ele>1779.1999511719</ele>
        <time>2022-05-27T11:36:43.000Z</time>
      </trkpt>
      <trkpt lat="44.88166" lon="5.51703">
        <ele>1779.4000244141</ele>
        <time>2022-05-27T11:36:50.000Z</time>
      </trkpt>
      <trkpt lat="44.88169" lon="5.51706">
        <ele>1779.5999755859</ele>
        <time>2022-05-27T11:36:54.000Z</time>
      </trkpt>
      <trkpt lat="44.88172" lon="5.51708">
        <ele>1779.4000244141</ele>
        <time>2022-05-27T11:36:58.000Z</time>
      </trkpt>
      <trkpt lat="44.88175" lon="5.51709">
        <ele>1779.4000244141</ele>
        <time>2022-05-27T11:37:01.000Z</time>
      </trkpt>
      <trkpt lat="44.88183" lon="5.51715">
        <ele>1780.5999755859</ele>
        <time>2022-05-27T11:37:07.000Z</time>
      </trkpt>
      <trkpt lat="44.88187" lon="5.51718">
        <ele>1781.1999511719</ele>
        <time>2022-05-27T11:37:11.000Z</time>
      </trkpt>
      <trkpt lat="44.88191" lon="5.51723">
        <ele>1782.5999755859</ele>
        <time>2022-05-27T11:37:16.000Z</time>
      </trkpt>
      <trkpt lat="44.88194" lon="5.51726">
        <ele>1783.5999755859</ele>
        <time>2022-05-27T11:37:20.000Z</time>
      </trkpt>
      <trkpt lat="44.882" lon="5.51736">
        <ele>1786.1999511719</ele>
        <time>2022-05-27T11:37:30.000Z</time>
      </trkpt>
      <trkpt lat="44.88204" lon="5.51748">
        <ele>1789.4000244141</ele>
        <time>2022-05-27T11:37:42.000Z</time>
      </trkpt>
      <trkpt lat="44.88209" lon="5.51757">
        <ele>1791.5999755859</ele>
        <time>2022-05-27T11:37:51.000Z</time>
      </trkpt>
      <trkpt lat="44.8821" lon="5.5176">
        <ele>1792.4000244141</ele>
        <time>2022-05-27T11:37:55.000Z</time>
      </trkpt>
      <trkpt lat="44.8821" lon="5.51764">
        <ele>1793.4000244141</ele>
        <time>2022-05-27T11:37:59.000Z</time>
      </trkpt>
      <trkpt lat="44.88202" lon="5.51791">
        <ele>1798.5999755859</ele>
        <time>2022-05-27T11:38:27.000Z</time>
      </trkpt>
      <trkpt lat="44.88198" lon="5.51803">
        <ele>1800.1999511719</ele>
        <time>2022-05-27T11:38:42.000Z</time>
      </trkpt>
      <trkpt lat="44.88196" lon="5.51812">
        <ele>1802.5999755859</ele>
        <time>2022-05-27T11:38:51.000Z</time>
      </trkpt>
      <trkpt lat="44.88195" lon="5.51814">
        <ele>1803.1999511719</ele>
        <time>2022-05-27T11:38:53.000Z</time>
      </trkpt>
      <trkpt lat="44.88193" lon="5.51823">
        <ele>1805.8000488281</ele>
        <time>2022-05-27T11:39:08.000Z</time>
      </trkpt>
      <trkpt lat="44.88191" lon="5.51822">
        <ele>1805.4000244141</ele>
        <time>2022-05-27T11:39:18.000Z</time>
      </trkpt>
      <trkpt lat="44.88193" lon="5.51821">
        <ele>1805.4000244141</ele>
        <time>2022-05-27T11:39:31.000Z</time>
      </trkpt>
      <trkpt lat="44.88193" lon="5.51822">
        <ele>1805.8000488281</ele>
        <time>2022-05-27T11:39:34.000Z</time>
      </trkpt>
      <trkpt lat="44.88192" lon="5.51825">
        <ele>1806</ele>
        <time>2022-05-27T11:39:39.000Z</time>
      </trkpt>
      <trkpt lat="44.88191" lon="5.5183">
        <ele>1806.8000488281</ele>
        <time>2022-05-27T11:39:45.000Z</time>
      </trkpt>
      <trkpt lat="44.88188" lon="5.51837">
        <ele>1807.8000488281</ele>
        <time>2022-05-27T11:39:56.000Z</time>
      </trkpt>
      <trkpt lat="44.88184" lon="5.51845">
        <ele>1809.1999511719</ele>
        <time>2022-05-27T11:40:06.000Z</time>
      </trkpt>
      <trkpt lat="44.88181" lon="5.51847">
        <ele>1808.8000488281</ele>
        <time>2022-05-27T11:40:12.000Z</time>
      </trkpt>
      <trkpt lat="44.88181" lon="5.51847">
        <ele>1809</ele>
        <time>2022-05-27T11:40:13.000Z</time>
      </trkpt>
      <trkpt lat="44.88181" lon="5.51847">
        <ele>1809</ele>
        <time>2022-05-27T11:40:14.000Z</time>
      </trkpt>
      <trkpt lat="44.8818" lon="5.51848">
        <ele>1809.1999511719</ele>
        <time>2022-05-27T11:40:15.000Z</time>
      </trkpt>
      <trkpt lat="44.8818" lon="5.5185">
        <ele>1809.5999755859</ele>
        <time>2022-05-27T11:40:16.000Z</time>
      </trkpt>
      <trkpt lat="44.8818" lon="5.5185">
        <ele>1809.5999755859</ele>
        <time>2022-05-27T11:40:17.000Z</time>
      </trkpt>
      <trkpt lat="44.88186" lon="5.51856">
        <ele>1812.1999511719</ele>
        <time>2022-05-27T11:40:31.000Z</time>
      </trkpt>
      <trkpt lat="44.88189" lon="5.51857">
        <ele>1813</ele>
        <time>2022-05-27T11:40:38.000Z</time>
      </trkpt>
      <trkpt lat="44.88189" lon="5.51857">
        <ele>1812.8000488281</ele>
        <time>2022-05-27T11:40:44.000Z</time>
      </trkpt>
      <trkpt lat="44.8819" lon="5.51858">
        <ele>1813.1999511719</ele>
        <time>2022-05-27T11:40:53.000Z</time>
      </trkpt>
      <trkpt lat="44.8819" lon="5.51858">
        <ele>1813.4000244141</ele>
        <time>2022-05-27T11:40:58.000Z</time>
      </trkpt>
      <trkpt lat="44.88191" lon="5.51856">
        <ele>1813</ele>
        <time>2022-05-27T11:41:02.000Z</time>
      </trkpt>
      <trkpt lat="44.88195" lon="5.51853">
        <ele>1812.8000488281</ele>
        <time>2022-05-27T11:41:09.000Z</time>
      </trkpt>
      <trkpt lat="44.88198" lon="5.5186">
        <ele>1815.4000244141</ele>
        <time>2022-05-27T11:41:16.000Z</time>
      </trkpt>
      <trkpt lat="44.88198" lon="5.51861">
        <ele>1815.5999755859</ele>
        <time>2022-05-27T11:41:17.000Z</time>
      </trkpt>
      <trkpt lat="44.88198" lon="5.51864">
        <ele>1816</ele>
        <time>2022-05-27T11:41:19.000Z</time>
      </trkpt>
      <trkpt lat="44.88197" lon="5.51865">
        <ele>1816.1999511719</ele>
        <time>2022-05-27T11:41:20.000Z</time>
      </trkpt>
      <trkpt lat="44.88197" lon="5.51866">
        <ele>1816.4000244141</ele>
        <time>2022-05-27T11:41:21.000Z</time>
      </trkpt>
      <trkpt lat="44.88197" lon="5.51867">
        <ele>1816.4000244141</ele>
        <time>2022-05-27T11:41:22.000Z</time>
      </trkpt>
      <trkpt lat="44.88197" lon="5.51868">
        <ele>1816.5999755859</ele>
        <time>2022-05-27T11:41:23.000Z</time>
      </trkpt>
      <trkpt lat="44.88197" lon="5.51869">
        <ele>1816.8000488281</ele>
        <time>2022-05-27T11:41:24.000Z</time>
      </trkpt>
      <trkpt lat="44.88196" lon="5.5187">
        <ele>1816.8000488281</ele>
        <time>2022-05-27T11:41:25.000Z</time>
      </trkpt>
      <trkpt lat="44.88196" lon="5.51873">
        <ele>1817.4000244141</ele>
        <time>2022-05-27T11:41:28.000Z</time>
      </trkpt>
      <trkpt lat="44.88195" lon="5.51875">
        <ele>1817.8000488281</ele>
        <time>2022-05-27T11:41:30.000Z</time>
      </trkpt>
      <trkpt lat="44.88195" lon="5.51876">
        <ele>1817.8000488281</ele>
        <time>2022-05-27T11:41:31.000Z</time>
      </trkpt>
      <trkpt lat="44.88195" lon="5.51877">
        <ele>1818</ele>
        <time>2022-05-27T11:41:32.000Z</time>
      </trkpt>
      <trkpt lat="44.88195" lon="5.51879">
        <ele>1818.4000244141</ele>
        <time>2022-05-27T11:41:34.000Z</time>
      </trkpt>
      <trkpt lat="44.88195" lon="5.5188">
        <ele>1818.4000244141</ele>
        <time>2022-05-27T11:41:35.000Z</time>
      </trkpt>
      <trkpt lat="44.88195" lon="5.51882">
        <ele>1818.8000488281</ele>
        <time>2022-05-27T11:41:37.000Z</time>
      </trkpt>
      <trkpt lat="44.88195" lon="5.51883">
        <ele>1819.1999511719</ele>
        <time>2022-05-27T11:41:40.000Z</time>
      </trkpt>
      <trkpt lat="44.88194" lon="5.51884">
        <ele>1819.1999511719</ele>
        <time>2022-05-27T11:41:41.000Z</time>
      </trkpt>
      <trkpt lat="44.8819" lon="5.51895">
        <ele>1820.8000488281</ele>
        <time>2022-05-27T11:42:03.000Z</time>
      </trkpt>
      <trkpt lat="44.88189" lon="5.51898">
        <ele>1820.8000488281</ele>
        <time>2022-05-27T11:42:09.000Z</time>
      </trkpt>
      <trkpt lat="44.88185" lon="5.51905">
        <ele>1821.4000244141</ele>
        <time>2022-05-27T11:42:17.000Z</time>
      </trkpt>
      <trkpt lat="44.88184" lon="5.51911">
        <ele>1822.1999511719</ele>
        <time>2022-05-27T11:42:21.000Z</time>
      </trkpt>
      <trkpt lat="44.88182" lon="5.51926">
        <ele>1825</ele>
        <time>2022-05-27T11:42:39.000Z</time>
      </trkpt>
      <trkpt lat="44.88179" lon="5.51922">
        <ele>1823.5999755859</ele>
        <time>2022-05-27T11:42:47.000Z</time>
      </trkpt>
      <trkpt lat="44.8818" lon="5.51925">
        <ele>1824.5999755859</ele>
        <time>2022-05-27T11:42:59.000Z</time>
      </trkpt>
      <trkpt lat="44.88179" lon="5.51942">
        <ele>1828.4000244141</ele>
        <time>2022-05-27T11:43:41.000Z</time>
      </trkpt>
      <trkpt lat="44.88178" lon="5.51942">
        <ele>1828.4000244141</ele>
        <time>2022-05-27T11:43:44.000Z</time>
      </trkpt>
      <trkpt lat="44.88179" lon="5.51942">
        <ele>1828.5999755859</ele>
        <time>2022-05-27T11:43:46.000Z</time>
      </trkpt>
      <trkpt lat="44.88179" lon="5.51942">
        <ele>1828.5999755859</ele>
        <time>2022-05-27T11:43:47.000Z</time>
      </trkpt>
      <trkpt lat="44.88179" lon="5.51942">
        <ele>1828.5999755859</ele>
        <time>2022-05-27T11:43:48.000Z</time>
      </trkpt>
      <trkpt lat="44.88175" lon="5.51938">
        <ele>1827.5999755859</ele>
        <time>2022-05-27T11:44:23.000Z</time>
      </trkpt>
      <trkpt lat="44.88175" lon="5.51949">
        <ele>1830.4000244141</ele>
        <time>2022-05-27T11:44:42.000Z</time>
      </trkpt>
      <trkpt lat="44.88174" lon="5.51949">
        <ele>1830.5999755859</ele>
        <time>2022-05-27T11:44:43.000Z</time>
      </trkpt>
      <trkpt lat="44.88174" lon="5.51949">
        <ele>1830.5999755859</ele>
        <time>2022-05-27T11:44:44.000Z</time>
      </trkpt>
      <trkpt lat="44.88173" lon="5.51949">
        <ele>1830.8000488281</ele>
        <time>2022-05-27T11:44:45.000Z</time>
      </trkpt>
      <trkpt lat="44.8817" lon="5.51952">
        <ele>1832</ele>
        <time>2022-05-27T11:44:51.000Z</time>
      </trkpt>
      <trkpt lat="44.88169" lon="5.51953">
        <ele>1832.1999511719</ele>
        <time>2022-05-27T11:44:52.000Z</time>
      </trkpt>
      <trkpt lat="44.88169" lon="5.51954">
        <ele>1832.4000244141</ele>
        <time>2022-05-27T11:44:53.000Z</time>
      </trkpt>
      <trkpt lat="44.88168" lon="5.51954">
        <ele>1832.5999755859</ele>
        <time>2022-05-27T11:44:54.000Z</time>
      </trkpt>
      <trkpt lat="44.88167" lon="5.51955">
        <ele>1832.8000488281</ele>
        <time>2022-05-27T11:44:56.000Z</time>
      </trkpt>
      <trkpt lat="44.88165" lon="5.51962">
        <ele>1835.1999511719</ele>
        <time>2022-05-27T11:45:04.000Z</time>
      </trkpt>
      <trkpt lat="44.88165" lon="5.51965">
        <ele>1835.5999755859</ele>
        <time>2022-05-27T11:45:08.000Z</time>
      </trkpt>
      <trkpt lat="44.88167" lon="5.5197">
        <ele>1836.8000488281</ele>
        <time>2022-05-27T11:45:15.000Z</time>
      </trkpt>
      <trkpt lat="44.88166" lon="5.51994">
        <ele>1843</ele>
        <time>2022-05-27T11:45:43.000Z</time>
      </trkpt>
      <trkpt lat="44.88163" lon="5.52014">
        <ele>1848.8000488281</ele>
        <time>2022-05-27T11:46:18.000Z</time>
      </trkpt>
      <trkpt lat="44.88177" lon="5.52022">
        <ele>1850.1999511719</ele>
        <time>2022-05-27T11:47:19.000Z</time>
      </trkpt>
      <trkpt lat="44.88177" lon="5.52023">
        <ele>1850.5999755859</ele>
        <time>2022-05-27T11:47:32.000Z</time>
      </trkpt>
      <trkpt lat="44.88175" lon="5.52023">
        <ele>1850.5999755859</ele>
        <time>2022-05-27T11:47:40.000Z</time>
      </trkpt>
      <trkpt lat="44.88177" lon="5.52025">
        <ele>1851.1999511719</ele>
        <time>2022-05-27T11:47:54.000Z</time>
      </trkpt>
      <trkpt lat="44.88177" lon="5.52025">
        <ele>1851</ele>
        <time>2022-05-27T11:48:00.000Z</time>
      </trkpt>
      <trkpt lat="44.88179" lon="5.52024">
        <ele>1851.5999755859</ele>
        <time>2022-05-27T11:48:08.000Z</time>
      </trkpt>
      <trkpt lat="44.88175" lon="5.52021">
        <ele>1850.1999511719</ele>
        <time>2022-05-27T11:48:15.000Z</time>
      </trkpt>
      <trkpt lat="44.88178" lon="5.52022">
        <ele>1850.5999755859</ele>
        <time>2022-05-27T11:48:36.000Z</time>
      </trkpt>
      <trkpt lat="44.88177" lon="5.52021">
        <ele>1850</ele>
        <time>2022-05-27T11:48:53.000Z</time>
      </trkpt>
      <trkpt lat="44.88179" lon="5.52025">
        <ele>1851.5999755859</ele>
        <time>2022-05-27T11:49:29.000Z</time>
      </trkpt>
      <trkpt lat="44.88176" lon="5.52041">
        <ele>1854.8000488281</ele>
        <time>2022-05-27T11:50:01.000Z</time>
      </trkpt>
      <trkpt lat="44.88176" lon="5.52045">
        <ele>1855.5999755859</ele>
        <time>2022-05-27T11:50:04.000Z</time>
      </trkpt>
      <trkpt lat="44.88175" lon="5.52048">
        <ele>1856.4000244141</ele>
        <time>2022-05-27T11:50:07.000Z</time>
      </trkpt>
      <trkpt lat="44.88175" lon="5.52049">
        <ele>1856.5999755859</ele>
        <time>2022-05-27T11:50:08.000Z</time>
      </trkpt>
      <trkpt lat="44.88177" lon="5.52054">
        <ele>1857.5999755859</ele>
        <time>2022-05-27T11:50:14.000Z</time>
      </trkpt>
      <trkpt lat="44.88177" lon="5.52055">
        <ele>1857.8000488281</ele>
        <time>2022-05-27T11:50:15.000Z</time>
      </trkpt>
      <trkpt lat="44.88177" lon="5.52056">
        <ele>1858.1999511719</ele>
        <time>2022-05-27T11:50:16.000Z</time>
      </trkpt>
      <trkpt lat="44.88177" lon="5.52057">
        <ele>1858.8000488281</ele>
        <time>2022-05-27T11:50:17.000Z</time>
      </trkpt>
      <trkpt lat="44.88178" lon="5.52063">
        <ele>1862.5999755859</ele>
        <time>2022-05-27T11:50:23.000Z</time>
      </trkpt>
      <trkpt lat="44.88178" lon="5.52066">
        <ele>1864.1999511719</ele>
        <time>2022-05-27T11:50:26.000Z</time>
      </trkpt>
      <trkpt lat="44.88177" lon="5.52073">
        <ele>1867.5999755859</ele>
        <time>2022-05-27T11:50:31.000Z</time>
      </trkpt>
      <trkpt lat="44.88176" lon="5.52074">
        <ele>1868</ele>
        <time>2022-05-27T11:50:32.000Z</time>
      </trkpt>
      <trkpt lat="44.88171" lon="5.52088">
        <ele>1874.1999511719</ele>
        <time>2022-05-27T11:50:47.000Z</time>
      </trkpt>
      <trkpt lat="44.88171" lon="5.52089">
        <ele>1874.8000488281</ele>
        <time>2022-05-27T11:50:48.000Z</time>
      </trkpt>
      <trkpt lat="44.88169" lon="5.5209">
        <ele>1874.4000244141</ele>
        <time>2022-05-27T11:50:52.000Z</time>
      </trkpt>
      <trkpt lat="44.88168" lon="5.52089">
        <ele>1873.4000244141</ele>
        <time>2022-05-27T11:50:57.000Z</time>
      </trkpt>
      <trkpt lat="44.88164" lon="5.52097">
        <ele>1876.8000488281</ele>
        <time>2022-05-27T11:51:07.000Z</time>
      </trkpt>
      <trkpt lat="44.88166" lon="5.52105">
        <ele>1881.5999755859</ele>
        <time>2022-05-27T11:51:22.000Z</time>
      </trkpt>
      <trkpt lat="44.88188" lon="5.52106">
        <ele>1890.5999755859</ele>
        <time>2022-05-27T11:51:52.000Z</time>
      </trkpt>
      <trkpt lat="44.8819" lon="5.52107">
        <ele>1892.1999511719</ele>
        <time>2022-05-27T11:51:55.000Z</time>
      </trkpt>
      <trkpt lat="44.88191" lon="5.52108">
        <ele>1893.1999511719</ele>
        <time>2022-05-27T11:51:56.000Z</time>
      </trkpt>
      <trkpt lat="44.88193" lon="5.52108">
        <ele>1894.1999511719</ele>
        <time>2022-05-27T11:51:57.000Z</time>
      </trkpt>
      <trkpt lat="44.88195" lon="5.52109">
        <ele>1895.1999511719</ele>
        <time>2022-05-27T11:51:58.000Z</time>
      </trkpt>
      <trkpt lat="44.88206" lon="5.5211">
        <ele>1900.4000244141</ele>
        <time>2022-05-27T11:52:07.000Z</time>
      </trkpt>
      <trkpt lat="44.88207" lon="5.5211">
        <ele>1901</ele>
        <time>2022-05-27T11:52:12.000Z</time>
      </trkpt>
      <trkpt lat="44.88205" lon="5.5211">
        <ele>1900.4000244141</ele>
        <time>2022-05-27T11:52:16.000Z</time>
      </trkpt>
      <trkpt lat="44.88207" lon="5.52112">
        <ele>1901.5999755859</ele>
        <time>2022-05-27T11:52:21.000Z</time>
      </trkpt>
      <trkpt lat="44.88207" lon="5.52112">
        <ele>1901.5999755859</ele>
        <time>2022-05-27T11:52:23.000Z</time>
      </trkpt>
      <trkpt lat="44.88207" lon="5.52112">
        <ele>1901.4000244141</ele>
        <time>2022-05-27T11:52:24.000Z</time>
      </trkpt>
      <trkpt lat="44.88207" lon="5.52112">
        <ele>1901.5999755859</ele>
        <time>2022-05-27T11:52:25.000Z</time>
      </trkpt>
      <trkpt lat="44.88209" lon="5.5211">
        <ele>1901.1999511719</ele>
        <time>2022-05-27T11:52:29.000Z</time>
      </trkpt>
      <trkpt lat="44.88209" lon="5.5211">
        <ele>1901.1999511719</ele>
        <time>2022-05-27T11:52:30.000Z</time>
      </trkpt>
      <trkpt lat="44.88209" lon="5.5211">
        <ele>1901.1999511719</ele>
        <time>2022-05-27T11:52:31.000Z</time>
      </trkpt>
      <trkpt lat="44.88211" lon="5.52117">
        <ele>1904</ele>
        <time>2022-05-27T11:52:42.000Z</time>
      </trkpt>
      <trkpt lat="44.88211" lon="5.52118">
        <ele>1904</ele>
        <time>2022-05-27T11:52:43.000Z</time>
      </trkpt>
      <trkpt lat="44.88211" lon="5.52119">
        <ele>1904.4000244141</ele>
        <time>2022-05-27T11:52:44.000Z</time>
      </trkpt>
      <trkpt lat="44.88211" lon="5.52121">
        <ele>1905</ele>
        <time>2022-05-27T11:52:46.000Z</time>
      </trkpt>
      <trkpt lat="44.8821" lon="5.52125">
        <ele>1906.5999755859</ele>
        <time>2022-05-27T11:52:51.000Z</time>
      </trkpt>
      <trkpt lat="44.8821" lon="5.52125">
        <ele>1906.5999755859</ele>
        <time>2022-05-27T11:52:52.000Z</time>
      </trkpt>
      <trkpt lat="44.8821" lon="5.52125">
        <ele>1906.5999755859</ele>
        <time>2022-05-27T11:52:53.000Z</time>
      </trkpt>
      <trkpt lat="44.88209" lon="5.52127">
        <ele>1907</ele>
        <time>2022-05-27T11:52:55.000Z</time>
      </trkpt>
      <trkpt lat="44.88209" lon="5.52127">
        <ele>1907.1999511719</ele>
        <time>2022-05-27T11:52:56.000Z</time>
      </trkpt>
      <trkpt lat="44.88208" lon="5.52128">
        <ele>1907.1999511719</ele>
        <time>2022-05-27T11:52:57.000Z</time>
      </trkpt>
      <trkpt lat="44.88207" lon="5.5213">
        <ele>1908</ele>
        <time>2022-05-27T11:53:00.000Z</time>
      </trkpt>
      <trkpt lat="44.88207" lon="5.52131">
        <ele>1908.1999511719</ele>
        <time>2022-05-27T11:53:01.000Z</time>
      </trkpt>
      <trkpt lat="44.88206" lon="5.52131">
        <ele>1908.1999511719</ele>
        <time>2022-05-27T11:53:02.000Z</time>
      </trkpt>
      <trkpt lat="44.88205" lon="5.52132">
        <ele>1908.1999511719</ele>
        <time>2022-05-27T11:53:03.000Z</time>
      </trkpt>
      <trkpt lat="44.88204" lon="5.52131">
        <ele>1907.8000488281</ele>
        <time>2022-05-27T11:53:04.000Z</time>
      </trkpt>
      <trkpt lat="44.88203" lon="5.52132">
        <ele>1907.4000244141</ele>
        <time>2022-05-27T11:53:06.000Z</time>
      </trkpt>
      <trkpt lat="44.88202" lon="5.52133">
        <ele>1907.5999755859</ele>
        <time>2022-05-27T11:53:07.000Z</time>
      </trkpt>
      <trkpt lat="44.88202" lon="5.52135">
        <ele>1908</ele>
        <time>2022-05-27T11:53:09.000Z</time>
      </trkpt>
      <trkpt lat="44.8819" lon="5.52156">
        <ele>1910.1999511719</ele>
        <time>2022-05-27T11:53:39.000Z</time>
      </trkpt>
      <trkpt lat="44.88186" lon="5.52157">
        <ele>1910</ele>
        <time>2022-05-27T11:53:43.000Z</time>
      </trkpt>
      <trkpt lat="44.88186" lon="5.52156">
        <ele>1909.8000488281</ele>
        <time>2022-05-27T11:53:47.000Z</time>
      </trkpt>
      <trkpt lat="44.88187" lon="5.52156">
        <ele>1910.1999511719</ele>
        <time>2022-05-27T11:53:54.000Z</time>
      </trkpt>
      <trkpt lat="44.88189" lon="5.52158">
        <ele>1911.1999511719</ele>
        <time>2022-05-27T11:54:02.000Z</time>
      </trkpt>
      <trkpt lat="44.8819" lon="5.52166">
        <ele>1914.5999755859</ele>
        <time>2022-05-27T11:54:10.000Z</time>
      </trkpt>
      <trkpt lat="44.88187" lon="5.52173">
        <ele>1915.4000244141</ele>
        <time>2022-05-27T11:54:19.000Z</time>
      </trkpt>
      <trkpt lat="44.88167" lon="5.52191">
        <ele>1915.1999511719</ele>
        <time>2022-05-27T11:54:55.000Z</time>
      </trkpt>
      <trkpt lat="44.88162" lon="5.52194">
        <ele>1915.1999511719</ele>
        <time>2022-05-27T11:55:04.000Z</time>
      </trkpt>
      <trkpt lat="44.88154" lon="5.52206">
        <ele>1917.1999511719</ele>
        <time>2022-05-27T11:55:27.000Z</time>
      </trkpt>
      <trkpt lat="44.88148" lon="5.52215">
        <ele>1919.8000488281</ele>
        <time>2022-05-27T11:55:39.000Z</time>
      </trkpt>
      <trkpt lat="44.8812" lon="5.52229">
        <ele>1929.1999511719</ele>
        <time>2022-05-27T11:56:27.000Z</time>
      </trkpt>
      <trkpt lat="44.88125" lon="5.52239">
        <ele>1928.5999755859</ele>
        <time>2022-05-27T11:56:46.000Z</time>
      </trkpt>
      <trkpt lat="44.88129" lon="5.52252">
        <ele>1928.8000488281</ele>
        <time>2022-05-27T11:57:02.000Z</time>
      </trkpt>
      <trkpt lat="44.88129" lon="5.52255">
        <ele>1928.1999511719</ele>
        <time>2022-05-27T11:58:08.000Z</time>
      </trkpt>
      <trkpt lat="44.88129" lon="5.52254">
        <ele>1928.4000244141</ele>
        <time>2022-05-27T11:58:14.000Z</time>
      </trkpt>
      <trkpt lat="44.8813" lon="5.52254">
        <ele>1928.4000244141</ele>
        <time>2022-05-27T11:58:21.000Z</time>
      </trkpt>
      <trkpt lat="44.8813" lon="5.52255">
        <ele>1928.1999511719</ele>
        <time>2022-05-27T11:58:32.000Z</time>
      </trkpt>
      <trkpt lat="44.88129" lon="5.52255">
        <ele>1928.1999511719</ele>
        <time>2022-05-27T11:58:36.000Z</time>
      </trkpt>
      <trkpt lat="44.8813" lon="5.52255">
        <ele>1928</ele>
        <time>2022-05-27T11:58:44.000Z</time>
      </trkpt>
      <trkpt lat="44.88132" lon="5.52256">
        <ele>1927.8000488281</ele>
        <time>2022-05-27T11:58:53.000Z</time>
      </trkpt>
      <trkpt lat="44.8813" lon="5.52255">
        <ele>1928.1999511719</ele>
        <time>2022-05-27T11:59:03.000Z</time>
      </trkpt>
      <trkpt lat="44.8813" lon="5.52255">
        <ele>1928.1999511719</ele>
        <time>2022-05-27T11:59:05.000Z</time>
      </trkpt>
      <trkpt lat="44.8813" lon="5.52256">
        <ele>1928.1999511719</ele>
        <time>2022-05-27T11:59:09.000Z</time>
      </trkpt>
      <trkpt lat="44.8813" lon="5.52256">
        <ele>1928</ele>
        <time>2022-05-27T11:59:11.000Z</time>
      </trkpt>
      <trkpt lat="44.8813" lon="5.52256">
        <ele>1928</ele>
        <time>2022-05-27T11:59:17.000Z</time>
      </trkpt>
      <trkpt lat="44.8813" lon="5.52256">
        <ele>1928</ele>
        <time>2022-05-27T11:59:18.000Z</time>
      </trkpt>
      <trkpt lat="44.8813" lon="5.52256">
        <ele>1928</ele>
        <time>2022-05-27T11:59:19.000Z</time>
      </trkpt>
      <trkpt lat="44.8813" lon="5.52256">
        <ele>1928</ele>
        <time>2022-05-27T11:59:21.000Z</time>
      </trkpt>
      <trkpt lat="44.8813" lon="5.52256">
        <ele>1928</ele>
        <time>2022-05-27T11:59:24.000Z</time>
      </trkpt>
      <trkpt lat="44.88131" lon="5.52256">
        <ele>1928</ele>
        <time>2022-05-27T11:59:31.000Z</time>
      </trkpt>
      <trkpt lat="44.88129" lon="5.52256">
        <ele>1928.1999511719</ele>
        <time>2022-05-27T11:59:50.000Z</time>
      </trkpt>
      <trkpt lat="44.88128" lon="5.52255">
        <ele>1928.4000244141</ele>
        <time>2022-05-27T11:59:59.000Z</time>
      </trkpt>
      <trkpt lat="44.88127" lon="5.52255">
        <ele>1928.5999755859</ele>
        <time>2022-05-27T12:00:13.000Z</time>
      </trkpt>
      <trkpt lat="44.88129" lon="5.52256">
        <ele>1928.1999511719</ele>
        <time>2022-05-27T12:00:22.000Z</time>
      </trkpt>
      <trkpt lat="44.88129" lon="5.52256">
        <ele>1928.1999511719</ele>
        <time>2022-05-27T12:00:23.000Z</time>
      </trkpt>
      <trkpt lat="44.88129" lon="5.52256">
        <ele>1928.1999511719</ele>
        <time>2022-05-27T12:00:25.000Z</time>
      </trkpt>
      <trkpt lat="44.88129" lon="5.52256">
        <ele>1928.1999511719</ele>
        <time>2022-05-27T12:00:26.000Z</time>
      </trkpt>
      <trkpt lat="44.88128" lon="5.52256">
        <ele>1928.1999511719</ele>
        <time>2022-05-27T12:00:30.000Z</time>
      </trkpt>
      <trkpt lat="44.88128" lon="5.52257">
        <ele>1928.1999511719</ele>
        <time>2022-05-27T12:00:32.000Z</time>
      </trkpt>
      <trkpt lat="44.88129" lon="5.52257">
        <ele>1928</ele>
        <time>2022-05-27T12:00:38.000Z</time>
      </trkpt>
      <trkpt lat="44.8813" lon="5.52256">
        <ele>1928</ele>
        <time>2022-05-27T12:00:45.000Z</time>
      </trkpt>
      <trkpt lat="44.8813" lon="5.52256">
        <ele>1928</ele>
        <time>2022-05-27T12:00:48.000Z</time>
      </trkpt>
      <trkpt lat="44.88129" lon="5.52255">
        <ele>1928.1999511719</ele>
        <time>2022-05-27T12:00:59.000Z</time>
      </trkpt>
      <trkpt lat="44.8813" lon="5.52256">
        <ele>1928</ele>
        <time>2022-05-27T12:01:03.000Z</time>
      </trkpt>
      <trkpt lat="44.88131" lon="5.52257">
        <ele>1927.8000488281</ele>
        <time>2022-05-27T12:01:18.000Z</time>
      </trkpt>
      <trkpt lat="44.88129" lon="5.52255">
        <ele>1928.4000244141</ele>
        <time>2022-05-27T12:01:34.000Z</time>
      </trkpt>
      <trkpt lat="44.88128" lon="5.52257">
        <ele>1928.1999511719</ele>
        <time>2022-05-27T12:01:51.000Z</time>
      </trkpt>
      <trkpt lat="44.88131" lon="5.52255">
        <ele>1928</ele>
        <time>2022-05-27T12:02:31.000Z</time>
      </trkpt>
      <trkpt lat="44.88131" lon="5.52255">
        <ele>1928</ele>
        <time>2022-05-27T12:02:32.000Z</time>
      </trkpt>
      <trkpt lat="44.88131" lon="5.52255">
        <ele>1928</ele>
        <time>2022-05-27T12:02:33.000Z</time>
      </trkpt>
      <trkpt lat="44.8813" lon="5.52255">
        <ele>1928.1999511719</ele>
        <time>2022-05-27T12:02:37.000Z</time>
      </trkpt>
      <trkpt lat="44.8813" lon="5.52254">
        <ele>1928.4000244141</ele>
        <time>2022-05-27T12:02:41.000Z</time>
      </trkpt>
      <trkpt lat="44.8813" lon="5.52255">
        <ele>1928.1999511719</ele>
        <time>2022-05-27T12:02:42.000Z</time>
      </trkpt>
      <trkpt lat="44.8813" lon="5.52255">
        <ele>1928.1999511719</ele>
        <time>2022-05-27T12:02:43.000Z</time>
      </trkpt>
      <trkpt lat="44.8813" lon="5.52255">
        <ele>1928.1999511719</ele>
        <time>2022-05-27T12:02:44.000Z</time>
      </trkpt>
      <trkpt lat="44.88124" lon="5.5225">
        <ele>1929.5999755859</ele>
        <time>2022-05-27T12:03:02.000Z</time>
      </trkpt>
      <trkpt lat="44.88114" lon="5.52241">
        <ele>1932.8000488281</ele>
        <time>2022-05-27T12:03:19.000Z</time>
      </trkpt>
      <trkpt lat="44.88107" lon="5.52232">
        <ele>1935.4000244141</ele>
        <time>2022-05-27T12:03:31.000Z</time>
      </trkpt>
      <trkpt lat="44.88106" lon="5.52231">
        <ele>1935.8000488281</ele>
        <time>2022-05-27T12:03:32.000Z</time>
      </trkpt>
      <trkpt lat="44.88105" lon="5.5223">
        <ele>1936.1999511719</ele>
        <time>2022-05-27T12:03:33.000Z</time>
      </trkpt>
      <trkpt lat="44.88104" lon="5.52227">
        <ele>1936.8000488281</ele>
        <time>2022-05-27T12:03:36.000Z</time>
      </trkpt>
      <trkpt lat="44.88103" lon="5.52226">
        <ele>1937</ele>
        <time>2022-05-27T12:03:37.000Z</time>
      </trkpt>
      <trkpt lat="44.88103" lon="5.52225">
        <ele>1937</ele>
        <time>2022-05-27T12:03:39.000Z</time>
      </trkpt>
      <trkpt lat="44.88102" lon="5.52224">
        <ele>1937.1999511719</ele>
        <time>2022-05-27T12:03:40.000Z</time>
      </trkpt>
      <trkpt lat="44.88102" lon="5.52223">
        <ele>1937.1999511719</ele>
        <time>2022-05-27T12:03:41.000Z</time>
      </trkpt>
      <trkpt lat="44.88101" lon="5.52222">
        <ele>1937.4000244141</ele>
        <time>2022-05-27T12:03:43.000Z</time>
      </trkpt>
      <trkpt lat="44.88098" lon="5.52219">
        <ele>1938.4000244141</ele>
        <time>2022-05-27T12:03:49.000Z</time>
      </trkpt>
      <trkpt lat="44.88096" lon="5.52218">
        <ele>1938.8000488281</ele>
        <time>2022-05-27T12:03:52.000Z</time>
      </trkpt>
      <trkpt lat="44.88095" lon="5.52217">
        <ele>1939.1999511719</ele>
        <time>2022-05-27T12:03:53.000Z</time>
      </trkpt>
      <trkpt lat="44.88091" lon="5.52214">
        <ele>1940.8000488281</ele>
        <time>2022-05-27T12:04:00.000Z</time>
      </trkpt>
      <trkpt lat="44.8809" lon="5.52214">
        <ele>1941.5999755859</ele>
        <time>2022-05-27T12:04:04.000Z</time>
      </trkpt>
      <trkpt lat="44.88087" lon="5.52211">
        <ele>1942.4000244141</ele>
        <time>2022-05-27T12:04:08.000Z</time>
      </trkpt>
      <trkpt lat="44.88083" lon="5.52208">
        <ele>1944.1999511719</ele>
        <time>2022-05-27T12:04:14.000Z</time>
      </trkpt>
      <trkpt lat="44.8808" lon="5.52206">
        <ele>1945.5999755859</ele>
        <time>2022-05-27T12:04:17.000Z</time>
      </trkpt>
      <trkpt lat="44.88075" lon="5.52205">
        <ele>1947.8000488281</ele>
        <time>2022-05-27T12:04:24.000Z</time>
      </trkpt>
      <trkpt lat="44.88074" lon="5.52203">
        <ele>1948.4000244141</ele>
        <time>2022-05-27T12:04:28.000Z</time>
      </trkpt>
      <trkpt lat="44.88073" lon="5.52208">
        <ele>1949.1999511719</ele>
        <time>2022-05-27T12:04:40.000Z</time>
      </trkpt>
      <trkpt lat="44.88074" lon="5.52212">
        <ele>1948.8000488281</ele>
        <time>2022-05-27T12:04:45.000Z</time>
      </trkpt>
      <trkpt lat="44.88076" lon="5.52219">
        <ele>1948.1999511719</ele>
        <time>2022-05-27T12:04:52.000Z</time>
      </trkpt>
      <trkpt lat="44.88078" lon="5.52225">
        <ele>1948.4000244141</ele>
        <time>2022-05-27T12:05:02.000Z</time>
      </trkpt>
      <trkpt lat="44.88082" lon="5.5224">
        <ele>1948.5999755859</ele>
        <time>2022-05-27T12:05:18.000Z</time>
      </trkpt>
      <trkpt lat="44.88085" lon="5.52251">
        <ele>1950.5999755859</ele>
        <time>2022-05-27T12:05:28.000Z</time>
      </trkpt>
      <trkpt lat="44.88089" lon="5.52259">
        <ele>1949.4000244141</ele>
        <time>2022-05-27T12:05:35.000Z</time>
      </trkpt>
      <trkpt lat="44.88095" lon="5.52289">
        <ele>1948.8000488281</ele>
        <time>2022-05-27T12:06:09.000Z</time>
      </trkpt>
      <trkpt lat="44.88101" lon="5.52311">
        <ele>1941.5999755859</ele>
        <time>2022-05-27T12:06:40.000Z</time>
      </trkpt>
      <trkpt lat="44.88096" lon="5.52315">
        <ele>1945.5999755859</ele>
        <time>2022-05-27T12:06:51.000Z</time>
      </trkpt>
      <trkpt lat="44.88093" lon="5.52318">
        <ele>1949</ele>
        <time>2022-05-27T12:07:23.000Z</time>
      </trkpt>
      <trkpt lat="44.88092" lon="5.52319">
        <ele>1949.5999755859</ele>
        <time>2022-05-27T12:07:27.000Z</time>
      </trkpt>
      <trkpt lat="44.88088" lon="5.52323">
        <ele>1952.5999755859</ele>
        <time>2022-05-27T12:07:34.000Z</time>
      </trkpt>
      <trkpt lat="44.88084" lon="5.52326">
        <ele>1956.1999511719</ele>
        <time>2022-05-27T12:07:43.000Z</time>
      </trkpt>
      <trkpt lat="44.88082" lon="5.52327">
        <ele>1957.1999511719</ele>
        <time>2022-05-27T12:07:46.000Z</time>
      </trkpt>
      <trkpt lat="44.88081" lon="5.52329">
        <ele>1958</ele>
        <time>2022-05-27T12:07:48.000Z</time>
      </trkpt>
      <trkpt lat="44.8808" lon="5.52329">
        <ele>1958.8000488281</ele>
        <time>2022-05-27T12:07:49.000Z</time>
      </trkpt>
      <trkpt lat="44.88077" lon="5.52331">
        <ele>1961.4000244141</ele>
        <time>2022-05-27T12:07:55.000Z</time>
      </trkpt>
      <trkpt lat="44.88073" lon="5.52335">
        <ele>1964</ele>
        <time>2022-05-27T12:08:02.000Z</time>
      </trkpt>
      <trkpt lat="44.88066" lon="5.52338">
        <ele>1968.5999755859</ele>
        <time>2022-05-27T12:08:14.000Z</time>
      </trkpt>
      <trkpt lat="44.88049" lon="5.52327">
        <ele>1983</ele>
        <time>2022-05-27T12:09:24.000Z</time>
      </trkpt>
      <trkpt lat="44.88045" lon="5.52328">
        <ele>1985</ele>
        <time>2022-05-27T12:09:32.000Z</time>
      </trkpt>
      <trkpt lat="44.88046" lon="5.5231">
        <ele>1988.8000488281</ele>
        <time>2022-05-27T12:10:09.000Z</time>
      </trkpt>
      <trkpt lat="44.88046" lon="5.5231">
        <ele>1989</ele>
        <time>2022-05-27T12:10:10.000Z</time>
      </trkpt>
      <trkpt lat="44.88046" lon="5.52309">
        <ele>1989.1999511719</ele>
        <time>2022-05-27T12:10:12.000Z</time>
      </trkpt>
      <trkpt lat="44.88043" lon="5.52306">
        <ele>1991.4000244141</ele>
        <time>2022-05-27T12:10:40.000Z</time>
      </trkpt>
      <trkpt lat="44.88043" lon="5.52306">
        <ele>1991.5999755859</ele>
        <time>2022-05-27T12:10:45.000Z</time>
      </trkpt>
      <trkpt lat="44.88043" lon="5.52305">
        <ele>1991.8000488281</ele>
        <time>2022-05-27T12:10:51.000Z</time>
      </trkpt>
      <trkpt lat="44.88042" lon="5.52305">
        <ele>1991.8000488281</ele>
        <time>2022-05-27T12:10:55.000Z</time>
      </trkpt>
      <trkpt lat="44.88042" lon="5.52305">
        <ele>1991.8000488281</ele>
        <time>2022-05-27T12:11:01.000Z</time>
      </trkpt>
      <trkpt lat="44.88041" lon="5.52305">
        <ele>1992.8000488281</ele>
        <time>2022-05-27T12:11:07.000Z</time>
      </trkpt>
      <trkpt lat="44.88041" lon="5.52305">
        <ele>1992.5999755859</ele>
        <time>2022-05-27T12:11:18.000Z</time>
      </trkpt>
      <trkpt lat="44.88039" lon="5.52305">
        <ele>1994</ele>
        <time>2022-05-27T12:11:23.000Z</time>
      </trkpt>
      <trkpt lat="44.88035" lon="5.52301">
        <ele>1996.1999511719</ele>
        <time>2022-05-27T12:11:34.000Z</time>
      </trkpt>
      <trkpt lat="44.88032" lon="5.523">
        <ele>1997.5999755859</ele>
        <time>2022-05-27T12:11:38.000Z</time>
      </trkpt>
      <trkpt lat="44.88031" lon="5.52299">
        <ele>1998.5999755859</ele>
        <time>2022-05-27T12:11:41.000Z</time>
      </trkpt>
      <trkpt lat="44.88028" lon="5.52295">
        <ele>1999</ele>
        <time>2022-05-27T12:11:46.000Z</time>
      </trkpt>
      <trkpt lat="44.88026" lon="5.52292">
        <ele>1999.8000488281</ele>
        <time>2022-05-27T12:11:51.000Z</time>
      </trkpt>
      <trkpt lat="44.88025" lon="5.52292">
        <ele>2000.1999511719</ele>
        <time>2022-05-27T12:11:53.000Z</time>
      </trkpt>
      <trkpt lat="44.88024" lon="5.52291">
        <ele>2000.5999755859</ele>
        <time>2022-05-27T12:11:54.000Z</time>
      </trkpt>
      <trkpt lat="44.88024" lon="5.52291">
        <ele>2000.5999755859</ele>
        <time>2022-05-27T12:11:55.000Z</time>
      </trkpt>
      <trkpt lat="44.88023" lon="5.5229">
        <ele>2001.1999511719</ele>
        <time>2022-05-27T12:11:57.000Z</time>
      </trkpt>
      <trkpt lat="44.88022" lon="5.52288">
        <ele>2001.5999755859</ele>
        <time>2022-05-27T12:12:00.000Z</time>
      </trkpt>
      <trkpt lat="44.88021" lon="5.52287">
        <ele>2001.8000488281</ele>
        <time>2022-05-27T12:12:02.000Z</time>
      </trkpt>
      <trkpt lat="44.88021" lon="5.52287">
        <ele>2001.8000488281</ele>
        <time>2022-05-27T12:12:03.000Z</time>
      </trkpt>
      <trkpt lat="44.88021" lon="5.52287">
        <ele>2002</ele>
        <time>2022-05-27T12:12:04.000Z</time>
      </trkpt>
      <trkpt lat="44.88021" lon="5.52286">
        <ele>2002.1999511719</ele>
        <time>2022-05-27T12:12:05.000Z</time>
      </trkpt>
      <trkpt lat="44.8802" lon="5.52286">
        <ele>2002.4000244141</ele>
        <time>2022-05-27T12:12:06.000Z</time>
      </trkpt>
      <trkpt lat="44.8802" lon="5.52286">
        <ele>2002.4000244141</ele>
        <time>2022-05-27T12:12:07.000Z</time>
      </trkpt>
      <trkpt lat="44.88019" lon="5.52286">
        <ele>2002.8000488281</ele>
        <time>2022-05-27T12:12:08.000Z</time>
      </trkpt>
      <trkpt lat="44.88018" lon="5.52286">
        <ele>2003.4000244141</ele>
        <time>2022-05-27T12:12:11.000Z</time>
      </trkpt>
      <trkpt lat="44.88019" lon="5.52287">
        <ele>2003.5999755859</ele>
        <time>2022-05-27T12:12:13.000Z</time>
      </trkpt>
      <trkpt lat="44.88019" lon="5.52293">
        <ele>2004.4000244141</ele>
        <time>2022-05-27T12:12:20.000Z</time>
      </trkpt>
      <trkpt lat="44.88017" lon="5.52297">
        <ele>2006.4000244141</ele>
        <time>2022-05-27T12:12:27.000Z</time>
      </trkpt>
      <trkpt lat="44.88017" lon="5.523">
        <ele>2007.1999511719</ele>
        <time>2022-05-27T12:12:30.000Z</time>
      </trkpt>
      <trkpt lat="44.88017" lon="5.52307">
        <ele>2007.5999755859</ele>
        <time>2022-05-27T12:12:37.000Z</time>
      </trkpt>
      <trkpt lat="44.88017" lon="5.52309">
        <ele>2007</ele>
        <time>2022-05-27T12:12:41.000Z</time>
      </trkpt>
      <trkpt lat="44.88016" lon="5.52309">
        <ele>2007.8000488281</ele>
        <time>2022-05-27T12:12:51.000Z</time>
      </trkpt>
      <trkpt lat="44.88015" lon="5.52308">
        <ele>2008.5999755859</ele>
        <time>2022-05-27T12:12:54.000Z</time>
      </trkpt>
      <trkpt lat="44.88014" lon="5.52307">
        <ele>2009.5999755859</ele>
        <time>2022-05-27T12:12:57.000Z</time>
      </trkpt>
      <trkpt lat="44.88012" lon="5.52304">
        <ele>2011</ele>
        <time>2022-05-27T12:13:01.000Z</time>
      </trkpt>
      <trkpt lat="44.88011" lon="5.52304">
        <ele>2011.4000244141</ele>
        <time>2022-05-27T12:13:02.000Z</time>
      </trkpt>
      <trkpt lat="44.8801" lon="5.52304">
        <ele>2012</ele>
        <time>2022-05-27T12:13:04.000Z</time>
      </trkpt>
      <trkpt lat="44.88007" lon="5.523">
        <ele>2012.1999511719</ele>
        <time>2022-05-27T12:13:17.000Z</time>
      </trkpt>
      <trkpt lat="44.88007" lon="5.52299">
        <ele>2012</ele>
        <time>2022-05-27T12:13:18.000Z</time>
      </trkpt>
      <trkpt lat="44.88007" lon="5.52298">
        <ele>2011.8000488281</ele>
        <time>2022-05-27T12:13:19.000Z</time>
      </trkpt>
      <trkpt lat="44.88006" lon="5.52296">
        <ele>2012.1999511719</ele>
        <time>2022-05-27T12:13:21.000Z</time>
      </trkpt>
      <trkpt lat="44.88006" lon="5.52295">
        <ele>2012.1999511719</ele>
        <time>2022-05-27T12:13:22.000Z</time>
      </trkpt>
      <trkpt lat="44.88005" lon="5.52295">
        <ele>2012.1999511719</ele>
        <time>2022-05-27T12:13:23.000Z</time>
      </trkpt>
      <trkpt lat="44.88005" lon="5.52295">
        <ele>2012.4000244141</ele>
        <time>2022-05-27T12:13:24.000Z</time>
      </trkpt>
      <trkpt lat="44.88003" lon="5.52292">
        <ele>2012.8000488281</ele>
        <time>2022-05-27T12:13:28.000Z</time>
      </trkpt>
      <trkpt lat="44.88" lon="5.52288">
        <ele>2013.1999511719</ele>
        <time>2022-05-27T12:13:34.000Z</time>
      </trkpt>
      <trkpt lat="44.87997" lon="5.52284">
        <ele>2013.8000488281</ele>
        <time>2022-05-27T12:13:46.000Z</time>
      </trkpt>
      <trkpt lat="44.87997" lon="5.52284">
        <ele>2014</ele>
        <time>2022-05-27T12:13:50.000Z</time>
      </trkpt>
      <trkpt lat="44.87996" lon="5.52285">
        <ele>2014.4000244141</ele>
        <time>2022-05-27T12:13:55.000Z</time>
      </trkpt>
      <trkpt lat="44.87995" lon="5.52285">
        <ele>2014.8000488281</ele>
        <time>2022-05-27T12:14:11.000Z</time>
      </trkpt>
      <trkpt lat="44.87995" lon="5.52286">
        <ele>2015</ele>
        <time>2022-05-27T12:14:13.000Z</time>
      </trkpt>
      <trkpt lat="44.87993" lon="5.52283">
        <ele>2015.1999511719</ele>
        <time>2022-05-27T12:14:18.000Z</time>
      </trkpt>
      <trkpt lat="44.87992" lon="5.52281">
        <ele>2015.4000244141</ele>
        <time>2022-05-27T12:14:22.000Z</time>
      </trkpt>
      <trkpt lat="44.87992" lon="5.52281">
        <ele>2015.5999755859</ele>
        <time>2022-05-27T12:14:26.000Z</time>
      </trkpt>
      <trkpt lat="44.87989" lon="5.52279">
        <ele>2016.4000244141</ele>
        <time>2022-05-27T12:14:31.000Z</time>
      </trkpt>
      <trkpt lat="44.87987" lon="5.52277">
        <ele>2017.5999755859</ele>
        <time>2022-05-27T12:14:38.000Z</time>
      </trkpt>
      <trkpt lat="44.87978" lon="5.52271">
        <ele>2023.8000488281</ele>
        <time>2022-05-27T12:14:56.000Z</time>
      </trkpt>
      <trkpt lat="44.87977" lon="5.5227">
        <ele>2025</ele>
        <time>2022-05-27T12:15:01.000Z</time>
      </trkpt>
      <trkpt lat="44.8797" lon="5.5227">
        <ele>2029.8000488281</ele>
        <time>2022-05-27T12:15:24.000Z</time>
      </trkpt>
      <trkpt lat="44.8797" lon="5.52273">
        <ele>2029.5999755859</ele>
        <time>2022-05-27T12:15:39.000Z</time>
      </trkpt>
      <trkpt lat="44.8796" lon="5.52307">
        <ele>2037.8000488281</ele>
        <time>2022-05-27T12:17:27.000Z</time>
      </trkpt>
      <trkpt lat="44.8796" lon="5.52304">
        <ele>2038.4000244141</ele>
        <time>2022-05-27T12:17:31.000Z</time>
      </trkpt>
      <trkpt lat="44.8796" lon="5.52303">
        <ele>2038.4000244141</ele>
        <time>2022-05-27T12:17:32.000Z</time>
      </trkpt>
      <trkpt lat="44.87959" lon="5.52299">
        <ele>2038.4000244141</ele>
        <time>2022-05-27T12:17:37.000Z</time>
      </trkpt>
      <trkpt lat="44.87959" lon="5.52298">
        <ele>2038.5999755859</ele>
        <time>2022-05-27T12:17:38.000Z</time>
      </trkpt>
      <trkpt lat="44.87959" lon="5.52297">
        <ele>2038.5999755859</ele>
        <time>2022-05-27T12:17:39.000Z</time>
      </trkpt>
      <trkpt lat="44.87957" lon="5.52293">
        <ele>2039.4000244141</ele>
        <time>2022-05-27T12:17:55.000Z</time>
      </trkpt>
      <trkpt lat="44.87957" lon="5.52293">
        <ele>2039.1999511719</ele>
        <time>2022-05-27T12:18:08.000Z</time>
      </trkpt>
      <trkpt lat="44.87957" lon="5.52293">
        <ele>2039.1999511719</ele>
        <time>2022-05-27T12:18:11.000Z</time>
      </trkpt>
      <trkpt lat="44.87951" lon="5.52287">
        <ele>2043.5999755859</ele>
        <time>2022-05-27T12:18:28.000Z</time>
      </trkpt>
      <trkpt lat="44.87945" lon="5.52281">
        <ele>2048.6000976562</ele>
        <time>2022-05-27T12:18:37.000Z</time>
      </trkpt>
      <trkpt lat="44.87944" lon="5.52277">
        <ele>2049.6000976562</ele>
        <time>2022-05-27T12:18:41.000Z</time>
      </trkpt>
      <trkpt lat="44.87943" lon="5.52276">
        <ele>2050.1999511719</ele>
        <time>2022-05-27T12:18:43.000Z</time>
      </trkpt>
      <trkpt lat="44.87942" lon="5.5227">
        <ele>2051.1999511719</ele>
        <time>2022-05-27T12:18:49.000Z</time>
      </trkpt>
      <trkpt lat="44.87941" lon="5.52268">
        <ele>2052</ele>
        <time>2022-05-27T12:18:51.000Z</time>
      </trkpt>
      <trkpt lat="44.87939" lon="5.52265">
        <ele>2053.6000976562</ele>
        <time>2022-05-27T12:18:56.000Z</time>
      </trkpt>
      <trkpt lat="44.87939" lon="5.52264">
        <ele>2053.8000488281</ele>
        <time>2022-05-27T12:19:03.000Z</time>
      </trkpt>
      <trkpt lat="44.87939" lon="5.52264">
        <ele>2053.6000976562</ele>
        <time>2022-05-27T12:19:04.000Z</time>
      </trkpt>
      <trkpt lat="44.87939" lon="5.52261">
        <ele>2054.1999511719</ele>
        <time>2022-05-27T12:19:08.000Z</time>
      </trkpt>
      <trkpt lat="44.87937" lon="5.5226">
        <ele>2055.6000976562</ele>
        <time>2022-05-27T12:19:09.000Z</time>
      </trkpt>
      <trkpt lat="44.87937" lon="5.5226">
        <ele>2055.8000488281</ele>
        <time>2022-05-27T12:19:10.000Z</time>
      </trkpt>
      <trkpt lat="44.87936" lon="5.52259">
        <ele>2056.6000976562</ele>
        <time>2022-05-27T12:19:11.000Z</time>
      </trkpt>
      <trkpt lat="44.8793" lon="5.52257">
        <ele>2061.3999023438</ele>
        <time>2022-05-27T12:19:20.000Z</time>
      </trkpt>
      <trkpt lat="44.87927" lon="5.52256">
        <ele>2064.3999023438</ele>
        <time>2022-05-27T12:19:29.000Z</time>
      </trkpt>
      <trkpt lat="44.87919" lon="5.52252">
        <ele>2070.3999023438</ele>
        <time>2022-05-27T12:19:43.000Z</time>
      </trkpt>
      <trkpt lat="44.87913" lon="5.52244">
        <ele>2075.6000976562</ele>
        <time>2022-05-27T12:19:58.000Z</time>
      </trkpt>
      <trkpt lat="44.87886" lon="5.52243">
        <ele>2090</ele>
        <time>2022-05-27T12:21:23.000Z</time>
      </trkpt>
      <trkpt lat="44.87878" lon="5.52246">
        <ele>2092.6000976562</ele>
        <time>2022-05-27T12:21:58.000Z</time>
      </trkpt>
      <trkpt lat="44.8787" lon="5.52243">
        <ele>2095</ele>
        <time>2022-05-27T12:22:14.000Z</time>
      </trkpt>
      <trkpt lat="44.87859" lon="5.52243">
        <ele>2095.6000976562</ele>
        <time>2022-05-27T12:22:48.000Z</time>
      </trkpt>
      <trkpt lat="44.87848" lon="5.52249">
        <ele>2095</ele>
        <time>2022-05-27T12:23:26.000Z</time>
      </trkpt>
      <trkpt lat="44.87846" lon="5.5225">
        <ele>2095</ele>
        <time>2022-05-27T12:23:29.000Z</time>
      </trkpt>
      <trkpt lat="44.87845" lon="5.52249">
        <ele>2095.1999511719</ele>
        <time>2022-05-27T12:23:31.000Z</time>
      </trkpt>
      <trkpt lat="44.87844" lon="5.52248">
        <ele>2095.3999023438</ele>
        <time>2022-05-27T12:23:32.000Z</time>
      </trkpt>
      <trkpt lat="44.87843" lon="5.52247">
        <ele>2095.3999023438</ele>
        <time>2022-05-27T12:23:33.000Z</time>
      </trkpt>
      <trkpt lat="44.87843" lon="5.52247">
        <ele>2095.3999023438</ele>
        <time>2022-05-27T12:23:34.000Z</time>
      </trkpt>
      <trkpt lat="44.87842" lon="5.52247">
        <ele>2095.3999023438</ele>
        <time>2022-05-27T12:23:35.000Z</time>
      </trkpt>
      <trkpt lat="44.87841" lon="5.52247">
        <ele>2095.6000976562</ele>
        <time>2022-05-27T12:23:36.000Z</time>
      </trkpt>
      <trkpt lat="44.87839" lon="5.52248">
        <ele>2095.1999511719</ele>
        <time>2022-05-27T12:23:38.000Z</time>
      </trkpt>
      <trkpt lat="44.87837" lon="5.52249">
        <ele>2094.8000488281</ele>
        <time>2022-05-27T12:23:43.000Z</time>
      </trkpt>
      <trkpt lat="44.87837" lon="5.52249">
        <ele>2094.6000976562</ele>
        <time>2022-05-27T12:23:46.000Z</time>
      </trkpt>
      <trkpt lat="44.87836" lon="5.52251">
        <ele>2094</ele>
        <time>2022-05-27T12:23:53.000Z</time>
      </trkpt>
      <trkpt lat="44.87834" lon="5.52251">
        <ele>2093.8000488281</ele>
        <time>2022-05-27T12:24:05.000Z</time>
      </trkpt>
      <trkpt lat="44.87834" lon="5.52251">
        <ele>2093.8000488281</ele>
        <time>2022-05-27T12:24:09.000Z</time>
      </trkpt>
      <trkpt lat="44.87834" lon="5.52252">
        <ele>2093.6000976562</ele>
        <time>2022-05-27T12:24:13.000Z</time>
      </trkpt>
      <trkpt lat="44.87834" lon="5.52252">
        <ele>2093.6000976562</ele>
        <time>2022-05-27T12:24:16.000Z</time>
      </trkpt>
      <trkpt lat="44.87835" lon="5.52252">
        <ele>2093.8000488281</ele>
        <time>2022-05-27T12:24:19.000Z</time>
      </trkpt>
      <trkpt lat="44.87837" lon="5.52253">
        <ele>2093.6000976562</ele>
        <time>2022-05-27T12:24:23.000Z</time>
      </trkpt>
      <trkpt lat="44.87837" lon="5.52251">
        <ele>2094</ele>
        <time>2022-05-27T12:24:28.000Z</time>
      </trkpt>
      <trkpt lat="44.87836" lon="5.52251">
        <ele>2094</ele>
        <time>2022-05-27T12:24:35.000Z</time>
      </trkpt>
      <trkpt lat="44.87836" lon="5.52251">
        <ele>2094</ele>
        <time>2022-05-27T12:24:39.000Z</time>
      </trkpt>
      <trkpt lat="44.87834" lon="5.52251">
        <ele>2093.6000976562</ele>
        <time>2022-05-27T12:24:44.000Z</time>
      </trkpt>
      <trkpt lat="44.8783" lon="5.5225">
        <ele>2093.6000976562</ele>
        <time>2022-05-27T12:24:50.000Z</time>
      </trkpt>
      <trkpt lat="44.87828" lon="5.5225">
        <ele>2093.6000976562</ele>
        <time>2022-05-27T12:24:52.000Z</time>
      </trkpt>
      <trkpt lat="44.87823" lon="5.52251">
        <ele>2092.6000976562</ele>
        <time>2022-05-27T12:24:58.000Z</time>
      </trkpt>
      <trkpt lat="44.87819" lon="5.52255">
        <ele>2090.8000488281</ele>
        <time>2022-05-27T12:25:03.000Z</time>
      </trkpt>
      <trkpt lat="44.87817" lon="5.52259">
        <ele>2089.3999023438</ele>
        <time>2022-05-27T12:25:06.000Z</time>
      </trkpt>
      <trkpt lat="44.87817" lon="5.52261">
        <ele>2088.3999023438</ele>
        <time>2022-05-27T12:25:08.000Z</time>
      </trkpt>
      <trkpt lat="44.87817" lon="5.52262">
        <ele>2088.1999511719</ele>
        <time>2022-05-27T12:25:09.000Z</time>
      </trkpt>
      <trkpt lat="44.87816" lon="5.52263">
        <ele>2087.8000488281</ele>
        <time>2022-05-27T12:25:10.000Z</time>
      </trkpt>
      <trkpt lat="44.87816" lon="5.52272">
        <ele>2084.3999023438</ele>
        <time>2022-05-27T12:25:43.000Z</time>
      </trkpt>
      <trkpt lat="44.87816" lon="5.52271">
        <ele>2084.6000976562</ele>
        <time>2022-05-27T12:25:56.000Z</time>
      </trkpt>
      <trkpt lat="44.87816" lon="5.5227">
        <ele>2084.8000488281</ele>
        <time>2022-05-27T12:26:00.000Z</time>
      </trkpt>
      <trkpt lat="44.87816" lon="5.5227">
        <ele>2084.8000488281</ele>
        <time>2022-05-27T12:26:03.000Z</time>
      </trkpt>
      <trkpt lat="44.87816" lon="5.5227">
        <ele>2084.8000488281</ele>
        <time>2022-05-27T12:26:07.000Z</time>
      </trkpt>
      <trkpt lat="44.87816" lon="5.5227">
        <ele>2084.8000488281</ele>
        <time>2022-05-27T12:26:08.000Z</time>
      </trkpt>
      <trkpt lat="44.87816" lon="5.52271">
        <ele>2084.6000976562</ele>
        <time>2022-05-27T12:26:25.000Z</time>
      </trkpt>
      <trkpt lat="44.87814" lon="5.5227">
        <ele>2085.3999023438</ele>
        <time>2022-05-27T12:26:46.000Z</time>
      </trkpt>
      <trkpt lat="44.87814" lon="5.52269">
        <ele>2085.6000976562</ele>
        <time>2022-05-27T12:26:51.000Z</time>
      </trkpt>
      <trkpt lat="44.87817" lon="5.52259">
        <ele>2089</ele>
        <time>2022-05-27T12:27:05.000Z</time>
      </trkpt>
      <trkpt lat="44.8781" lon="5.52259">
        <ele>2089.8000488281</ele>
        <time>2022-05-27T12:27:13.000Z</time>
      </trkpt>
      <trkpt lat="44.87807" lon="5.52258">
        <ele>2090.8000488281</ele>
        <time>2022-05-27T12:27:23.000Z</time>
      </trkpt>
      <trkpt lat="44.87806" lon="5.52258">
        <ele>2090.6000976562</ele>
        <time>2022-05-27T12:27:24.000Z</time>
      </trkpt>
      <trkpt lat="44.87805" lon="5.52257">
        <ele>2091.3999023438</ele>
        <time>2022-05-27T12:27:30.000Z</time>
      </trkpt>
      <trkpt lat="44.87805" lon="5.52257">
        <ele>2091.3999023438</ele>
        <time>2022-05-27T12:27:31.000Z</time>
      </trkpt>
      <trkpt lat="44.87805" lon="5.52257">
        <ele>2091.3999023438</ele>
        <time>2022-05-27T12:27:32.000Z</time>
      </trkpt>
      <trkpt lat="44.87802" lon="5.5225">
        <ele>2094.1999511719</ele>
        <time>2022-05-27T12:27:46.000Z</time>
      </trkpt>
      <trkpt lat="44.87799" lon="5.52246">
        <ele>2095.1999511719</ele>
        <time>2022-05-27T12:27:51.000Z</time>
      </trkpt>
      <trkpt lat="44.87798" lon="5.52245">
        <ele>2095.6000976562</ele>
        <time>2022-05-27T12:27:52.000Z</time>
      </trkpt>
      <trkpt lat="44.87795" lon="5.52241">
        <ele>2096.8000488281</ele>
        <time>2022-05-27T12:27:55.000Z</time>
      </trkpt>
      <trkpt lat="44.87788" lon="5.52237">
        <ele>2098.6000976562</ele>
        <time>2022-05-27T12:28:02.000Z</time>
      </trkpt>
      <trkpt lat="44.87787" lon="5.52236">
        <ele>2098.8000488281</ele>
        <time>2022-05-27T12:28:03.000Z</time>
      </trkpt>
      <trkpt lat="44.87783" lon="5.52236">
        <ele>2099.3999023438</ele>
        <time>2022-05-27T12:28:08.000Z</time>
      </trkpt>
      <trkpt lat="44.87777" lon="5.5223">
        <ele>2101.3999023438</ele>
        <time>2022-05-27T12:28:21.000Z</time>
      </trkpt>
      <trkpt lat="44.87774" lon="5.52227">
        <ele>2102.1999511719</ele>
        <time>2022-05-27T12:28:25.000Z</time>
      </trkpt>
      <trkpt lat="44.87758" lon="5.52218">
        <ele>2104.1999511719</ele>
        <time>2022-05-27T12:28:46.000Z</time>
      </trkpt>
      <trkpt lat="44.8775" lon="5.5221">
        <ele>2103.8000488281</ele>
        <time>2022-05-27T12:29:00.000Z</time>
      </trkpt>
      <trkpt lat="44.87748" lon="5.52209">
        <ele>2103.8000488281</ele>
        <time>2022-05-27T12:29:02.000Z</time>
      </trkpt>
      <trkpt lat="44.87747" lon="5.52209">
        <ele>2103.8000488281</ele>
        <time>2022-05-27T12:29:03.000Z</time>
      </trkpt>
      <trkpt lat="44.87742" lon="5.5221">
        <ele>2105</ele>
        <time>2022-05-27T12:29:10.000Z</time>
      </trkpt>
      <trkpt lat="44.87741" lon="5.52211">
        <ele>2105.1999511719</ele>
        <time>2022-05-27T12:29:12.000Z</time>
      </trkpt>
      <trkpt lat="44.87741" lon="5.52211">
        <ele>2105.1999511719</ele>
        <time>2022-05-27T12:29:13.000Z</time>
      </trkpt>
      <trkpt lat="44.8774" lon="5.52211">
        <ele>2105.6000976562</ele>
        <time>2022-05-27T12:29:15.000Z</time>
      </trkpt>
      <trkpt lat="44.8774" lon="5.52212">
        <ele>2105.6000976562</ele>
        <time>2022-05-27T12:29:16.000Z</time>
      </trkpt>
      <trkpt lat="44.8774" lon="5.52213">
        <ele>2105.8000488281</ele>
        <time>2022-05-27T12:29:23.000Z</time>
      </trkpt>
      <trkpt lat="44.8774" lon="5.52214">
        <ele>2106</ele>
        <time>2022-05-27T12:29:29.000Z</time>
      </trkpt>
      <trkpt lat="44.87736" lon="5.52218">
        <ele>2107.3999023438</ele>
        <time>2022-05-27T12:29:46.000Z</time>
      </trkpt>
      <trkpt lat="44.87736" lon="5.52223">
        <ele>2108.6000976562</ele>
        <time>2022-05-27T12:29:52.000Z</time>
      </trkpt>
      <trkpt lat="44.87734" lon="5.52224">
        <ele>2108.8000488281</ele>
        <time>2022-05-27T12:29:56.000Z</time>
      </trkpt>
      <trkpt lat="44.87732" lon="5.52224">
        <ele>2109.3999023438</ele>
        <time>2022-05-27T12:30:02.000Z</time>
      </trkpt>
      <trkpt lat="44.87725" lon="5.52228">
        <ele>2111.3999023438</ele>
        <time>2022-05-27T12:30:11.000Z</time>
      </trkpt>
      <trkpt lat="44.87717" lon="5.52232">
        <ele>2113.8000488281</ele>
        <time>2022-05-27T12:30:22.000Z</time>
      </trkpt>
      <trkpt lat="44.87715" lon="5.52234">
        <ele>2114.6000976562</ele>
        <time>2022-05-27T12:30:24.000Z</time>
      </trkpt>
      <trkpt lat="44.87715" lon="5.52235">
        <ele>2114.8000488281</ele>
        <time>2022-05-27T12:30:25.000Z</time>
      </trkpt>
      <trkpt lat="44.87715" lon="5.52236">
        <ele>2115.3999023438</ele>
        <time>2022-05-27T12:30:26.000Z</time>
      </trkpt>
      <trkpt lat="44.87714" lon="5.52237">
        <ele>2116.1999511719</ele>
        <time>2022-05-27T12:30:28.000Z</time>
      </trkpt>
      <trkpt lat="44.87713" lon="5.52238">
        <ele>2116.6000976562</ele>
        <time>2022-05-27T12:30:29.000Z</time>
      </trkpt>
      <trkpt lat="44.87712" lon="5.52239">
        <ele>2117.3999023438</ele>
        <time>2022-05-27T12:30:31.000Z</time>
      </trkpt>
      <trkpt lat="44.87711" lon="5.52241">
        <ele>2118.3999023438</ele>
        <time>2022-05-27T12:30:33.000Z</time>
      </trkpt>
      <trkpt lat="44.87711" lon="5.52242">
        <ele>2118.8000488281</ele>
        <time>2022-05-27T12:30:34.000Z</time>
      </trkpt>
      <trkpt lat="44.87711" lon="5.52243">
        <ele>2119.1999511719</ele>
        <time>2022-05-27T12:30:35.000Z</time>
      </trkpt>
      <trkpt lat="44.87709" lon="5.52245">
        <ele>2120.3999023438</ele>
        <time>2022-05-27T12:30:37.000Z</time>
      </trkpt>
      <trkpt lat="44.87708" lon="5.52245">
        <ele>2121</ele>
        <time>2022-05-27T12:30:38.000Z</time>
      </trkpt>
      <trkpt lat="44.87708" lon="5.52246">
        <ele>2121.3999023438</ele>
        <time>2022-05-27T12:30:39.000Z</time>
      </trkpt>
      <trkpt lat="44.87706" lon="5.52247">
        <ele>2122.1999511719</ele>
        <time>2022-05-27T12:30:41.000Z</time>
      </trkpt>
      <trkpt lat="44.87702" lon="5.52251">
        <ele>2124.6000976562</ele>
        <time>2022-05-27T12:30:47.000Z</time>
      </trkpt>
      <trkpt lat="44.877" lon="5.52253">
        <ele>2125.3999023438</ele>
        <time>2022-05-27T12:30:49.000Z</time>
      </trkpt>
      <trkpt lat="44.87697" lon="5.52258">
        <ele>2127</ele>
        <time>2022-05-27T12:30:56.000Z</time>
      </trkpt>
      <trkpt lat="44.87695" lon="5.52259">
        <ele>2127.6000976562</ele>
        <time>2022-05-27T12:30:59.000Z</time>
      </trkpt>
      <trkpt lat="44.87691" lon="5.52261">
        <ele>2128.8000488281</ele>
        <time>2022-05-27T12:31:05.000Z</time>
      </trkpt>
      <trkpt lat="44.87685" lon="5.52261">
        <ele>2130</ele>
        <time>2022-05-27T12:31:16.000Z</time>
      </trkpt>
      <trkpt lat="44.87681" lon="5.52259">
        <ele>2130.3999023438</ele>
        <time>2022-05-27T12:31:22.000Z</time>
      </trkpt>
      <trkpt lat="44.87679" lon="5.52257">
        <ele>2130.3999023438</ele>
        <time>2022-05-27T12:31:26.000Z</time>
      </trkpt>
      <trkpt lat="44.87677" lon="5.52255">
        <ele>2130.1999511719</ele>
        <time>2022-05-27T12:31:30.000Z</time>
      </trkpt>
      <trkpt lat="44.87669" lon="5.52253">
        <ele>2131</ele>
        <time>2022-05-27T12:31:43.000Z</time>
      </trkpt>
      <trkpt lat="44.87667" lon="5.52254">
        <ele>2131.6000976562</ele>
        <time>2022-05-27T12:31:46.000Z</time>
      </trkpt>
      <trkpt lat="44.87665" lon="5.52259">
        <ele>2133.6000976562</ele>
        <time>2022-05-27T12:31:56.000Z</time>
      </trkpt>
      <trkpt lat="44.87666" lon="5.52263">
        <ele>2134.8000488281</ele>
        <time>2022-05-27T12:32:01.000Z</time>
      </trkpt>
      <trkpt lat="44.87667" lon="5.52267">
        <ele>2135.6000976562</ele>
        <time>2022-05-27T12:32:06.000Z</time>
      </trkpt>
      <trkpt lat="44.87668" lon="5.52269">
        <ele>2136</ele>
        <time>2022-05-27T12:32:16.000Z</time>
      </trkpt>
      <trkpt lat="44.87669" lon="5.5227">
        <ele>2136</ele>
        <time>2022-05-27T12:32:20.000Z</time>
      </trkpt>
      <trkpt lat="44.87669" lon="5.5227">
        <ele>2136</ele>
        <time>2022-05-27T12:32:26.000Z</time>
      </trkpt>
      <trkpt lat="44.87668" lon="5.52268">
        <ele>2135.6000976562</ele>
        <time>2022-05-27T12:32:33.000Z</time>
      </trkpt>
      <trkpt lat="44.87667" lon="5.52267">
        <ele>2135.6000976562</ele>
        <time>2022-05-27T12:32:37.000Z</time>
      </trkpt>
      <trkpt lat="44.87667" lon="5.52267">
        <ele>2135.6000976562</ele>
        <time>2022-05-27T12:32:40.000Z</time>
      </trkpt>
      <trkpt lat="44.87667" lon="5.52267">
        <ele>2135.6000976562</ele>
        <time>2022-05-27T12:32:45.000Z</time>
      </trkpt>
      <trkpt lat="44.87667" lon="5.52267">
        <ele>2135.6000976562</ele>
        <time>2022-05-27T12:32:49.000Z</time>
      </trkpt>
      <trkpt lat="44.87666" lon="5.52267">
        <ele>2135.6000976562</ele>
        <time>2022-05-27T12:32:53.000Z</time>
      </trkpt>
      <trkpt lat="44.87666" lon="5.52266">
        <ele>2135.6000976562</ele>
        <time>2022-05-27T12:32:59.000Z</time>
      </trkpt>
      <trkpt lat="44.87665" lon="5.52267">
        <ele>2135.8000488281</ele>
        <time>2022-05-27T12:33:07.000Z</time>
      </trkpt>
      <trkpt lat="44.87666" lon="5.52267">
        <ele>2135.6000976562</ele>
        <time>2022-05-27T12:33:12.000Z</time>
      </trkpt>
      <trkpt lat="44.87663" lon="5.52268">
        <ele>2136.1999511719</ele>
        <time>2022-05-27T12:33:18.000Z</time>
      </trkpt>
      <trkpt lat="44.87654" lon="5.52271">
        <ele>2137.8000488281</ele>
        <time>2022-05-27T12:33:33.000Z</time>
      </trkpt>
      <trkpt lat="44.87653" lon="5.52271">
        <ele>2138</ele>
        <time>2022-05-27T12:33:34.000Z</time>
      </trkpt>
      <trkpt lat="44.87652" lon="5.52271">
        <ele>2138.1999511719</ele>
        <time>2022-05-27T12:33:35.000Z</time>
      </trkpt>
      <trkpt lat="44.87652" lon="5.52274">
        <ele>2138.8000488281</ele>
        <time>2022-05-27T12:33:38.000Z</time>
      </trkpt>
      <trkpt lat="44.87652" lon="5.52275">
        <ele>2139.1999511719</ele>
        <time>2022-05-27T12:33:39.000Z</time>
      </trkpt>
      <trkpt lat="44.87652" lon="5.52277">
        <ele>2139.3999023438</ele>
        <time>2022-05-27T12:33:40.000Z</time>
      </trkpt>
      <trkpt lat="44.87651" lon="5.5228">
        <ele>2140</ele>
        <time>2022-05-27T12:33:43.000Z</time>
      </trkpt>
      <trkpt lat="44.87651" lon="5.52282">
        <ele>2140.3999023438</ele>
        <time>2022-05-27T12:33:46.000Z</time>
      </trkpt>
      <trkpt lat="44.8765" lon="5.52282">
        <ele>2140.3999023438</ele>
        <time>2022-05-27T12:33:47.000Z</time>
      </trkpt>
      <trkpt lat="44.8765" lon="5.52282">
        <ele>2140.6000976562</ele>
        <time>2022-05-27T12:33:48.000Z</time>
      </trkpt>
      <trkpt lat="44.87649" lon="5.52282">
        <ele>2140.8000488281</ele>
        <time>2022-05-27T12:33:49.000Z</time>
      </trkpt>
      <trkpt lat="44.87648" lon="5.52282">
        <ele>2141.3999023438</ele>
        <time>2022-05-27T12:33:52.000Z</time>
      </trkpt>
      <trkpt lat="44.87643" lon="5.52282">
        <ele>2142.8000488281</ele>
        <time>2022-05-27T12:34:00.000Z</time>
      </trkpt>
      <trkpt lat="44.87642" lon="5.52282">
        <ele>2143.1999511719</ele>
        <time>2022-05-27T12:34:03.000Z</time>
      </trkpt>
      <trkpt lat="44.87642" lon="5.52282">
        <ele>2143.1999511719</ele>
        <time>2022-05-27T12:34:04.000Z</time>
      </trkpt>
      <trkpt lat="44.87641" lon="5.52283">
        <ele>2143.3999023438</ele>
        <time>2022-05-27T12:34:05.000Z</time>
      </trkpt>
      <trkpt lat="44.87641" lon="5.52283">
        <ele>2143.6000976562</ele>
        <time>2022-05-27T12:34:06.000Z</time>
      </trkpt>
      <trkpt lat="44.87641" lon="5.52283">
        <ele>2143.6000976562</ele>
        <time>2022-05-27T12:34:07.000Z</time>
      </trkpt>
      <trkpt lat="44.87642" lon="5.52285">
        <ele>2144</ele>
        <time>2022-05-27T12:34:09.000Z</time>
      </trkpt>
      <trkpt lat="44.87642" lon="5.52286">
        <ele>2144</ele>
        <time>2022-05-27T12:34:10.000Z</time>
      </trkpt>
      <trkpt lat="44.87643" lon="5.52288">
        <ele>2144.1999511719</ele>
        <time>2022-05-27T12:34:13.000Z</time>
      </trkpt>
      <trkpt lat="44.87643" lon="5.52289">
        <ele>2144.3999023438</ele>
        <time>2022-05-27T12:34:14.000Z</time>
      </trkpt>
      <trkpt lat="44.87644" lon="5.5229">
        <ele>2144.3999023438</ele>
        <time>2022-05-27T12:34:15.000Z</time>
      </trkpt>
      <trkpt lat="44.87633" lon="5.52294">
        <ele>2149</ele>
        <time>2022-05-27T12:34:35.000Z</time>
      </trkpt>
      <trkpt lat="44.8763" lon="5.52295">
        <ele>2150</ele>
        <time>2022-05-27T12:34:39.000Z</time>
      </trkpt>
      <trkpt lat="44.87625" lon="5.52296">
        <ele>2152.3999023438</ele>
        <time>2022-05-27T12:34:49.000Z</time>
      </trkpt>
      <trkpt lat="44.87622" lon="5.52298">
        <ele>2153.8000488281</ele>
        <time>2022-05-27T12:34:55.000Z</time>
      </trkpt>
      <trkpt lat="44.87618" lon="5.52301">
        <ele>2155.3999023438</ele>
        <time>2022-05-27T12:35:08.000Z</time>
      </trkpt>
      <trkpt lat="44.87617" lon="5.52302">
        <ele>2156.1999511719</ele>
        <time>2022-05-27T12:35:12.000Z</time>
      </trkpt>
      <trkpt lat="44.87616" lon="5.52313">
        <ele>2159.8000488281</ele>
        <time>2022-05-27T12:35:27.000Z</time>
      </trkpt>
      <trkpt lat="44.87604" lon="5.52342">
        <ele>2172.6000976562</ele>
        <time>2022-05-27T12:36:31.000Z</time>
      </trkpt>
      <trkpt lat="44.87588" lon="5.52361">
        <ele>2184.1999511719</ele>
        <time>2022-05-27T12:37:24.000Z</time>
      </trkpt>
      <trkpt lat="44.87555" lon="5.52376">
        <ele>2195.3999023438</ele>
        <time>2022-05-27T12:38:28.000Z</time>
      </trkpt>
      <trkpt lat="44.87555" lon="5.52377">
        <ele>2195.6000976562</ele>
        <time>2022-05-27T12:38:29.000Z</time>
      </trkpt>
      <trkpt lat="44.87546" lon="5.52382">
        <ele>2198</ele>
        <time>2022-05-27T12:38:43.000Z</time>
      </trkpt>
      <trkpt lat="44.87542" lon="5.52386">
        <ele>2199.6000976562</ele>
        <time>2022-05-27T12:38:54.000Z</time>
      </trkpt>
      <trkpt lat="44.87524" lon="5.52395">
        <ele>2203</ele>
        <time>2022-05-27T12:39:23.000Z</time>
      </trkpt>
      <trkpt lat="44.87523" lon="5.52395">
        <ele>2203.1999511719</ele>
        <time>2022-05-27T12:39:25.000Z</time>
      </trkpt>
      <trkpt lat="44.87522" lon="5.52395">
        <ele>2203.1999511719</ele>
        <time>2022-05-27T12:39:26.000Z</time>
      </trkpt>
      <trkpt lat="44.87521" lon="5.52395">
        <ele>2203.1999511719</ele>
        <time>2022-05-27T12:39:27.000Z</time>
      </trkpt>
      <trkpt lat="44.87519" lon="5.52395">
        <ele>2203.1999511719</ele>
        <time>2022-05-27T12:39:29.000Z</time>
      </trkpt>
      <trkpt lat="44.87516" lon="5.52396">
        <ele>2204</ele>
        <time>2022-05-27T12:39:35.000Z</time>
      </trkpt>
      <trkpt lat="44.87512" lon="5.52399">
        <ele>2205.6000976562</ele>
        <time>2022-05-27T12:39:50.000Z</time>
      </trkpt>
      <trkpt lat="44.87511" lon="5.52399">
        <ele>2205.8000488281</ele>
        <time>2022-05-27T12:39:51.000Z</time>
      </trkpt>
      <trkpt lat="44.87511" lon="5.524">
        <ele>2206</ele>
        <time>2022-05-27T12:39:52.000Z</time>
      </trkpt>
      <trkpt lat="44.87512" lon="5.52401">
        <ele>2206.6000976562</ele>
        <time>2022-05-27T12:39:55.000Z</time>
      </trkpt>
      <trkpt lat="44.87511" lon="5.52402">
        <ele>2206.8000488281</ele>
        <time>2022-05-27T12:39:56.000Z</time>
      </trkpt>
      <trkpt lat="44.87511" lon="5.52402">
        <ele>2207</ele>
        <time>2022-05-27T12:39:57.000Z</time>
      </trkpt>
      <trkpt lat="44.87508" lon="5.52406">
        <ele>2208.1999511719</ele>
        <time>2022-05-27T12:40:04.000Z</time>
      </trkpt>
      <trkpt lat="44.87508" lon="5.52406">
        <ele>2208.3999023438</ele>
        <time>2022-05-27T12:40:05.000Z</time>
      </trkpt>
      <trkpt lat="44.87507" lon="5.52407">
        <ele>2208.6000976562</ele>
        <time>2022-05-27T12:40:06.000Z</time>
      </trkpt>
      <trkpt lat="44.87506" lon="5.52408">
        <ele>2208.8000488281</ele>
        <time>2022-05-27T12:40:08.000Z</time>
      </trkpt>
      <trkpt lat="44.87503" lon="5.52408">
        <ele>2208.8000488281</ele>
        <time>2022-05-27T12:40:13.000Z</time>
      </trkpt>
      <trkpt lat="44.87502" lon="5.52408">
        <ele>2208.8000488281</ele>
        <time>2022-05-27T12:40:14.000Z</time>
      </trkpt>
      <trkpt lat="44.87502" lon="5.52409">
        <ele>2208.8000488281</ele>
        <time>2022-05-27T12:40:15.000Z</time>
      </trkpt>
      <trkpt lat="44.87501" lon="5.52409">
        <ele>2209</ele>
        <time>2022-05-27T12:40:16.000Z</time>
      </trkpt>
      <trkpt lat="44.87497" lon="5.52413">
        <ele>2209.8000488281</ele>
        <time>2022-05-27T12:40:24.000Z</time>
      </trkpt>
      <trkpt lat="44.87496" lon="5.52414">
        <ele>2210</ele>
        <time>2022-05-27T12:40:27.000Z</time>
      </trkpt>
      <trkpt lat="44.87494" lon="5.52417">
        <ele>2210.6000976562</ele>
        <time>2022-05-27T12:40:31.000Z</time>
      </trkpt>
      <trkpt lat="44.87493" lon="5.52418">
        <ele>2210.8000488281</ele>
        <time>2022-05-27T12:40:32.000Z</time>
      </trkpt>
      <trkpt lat="44.87493" lon="5.52418">
        <ele>2211</ele>
        <time>2022-05-27T12:40:33.000Z</time>
      </trkpt>
      <trkpt lat="44.87492" lon="5.52419">
        <ele>2211</ele>
        <time>2022-05-27T12:40:34.000Z</time>
      </trkpt>
      <trkpt lat="44.8749" lon="5.52422">
        <ele>2211.8000488281</ele>
        <time>2022-05-27T12:40:59.000Z</time>
      </trkpt>
      <trkpt lat="44.87486" lon="5.52426">
        <ele>2212.6000976562</ele>
        <time>2022-05-27T12:41:05.000Z</time>
      </trkpt>
      <trkpt lat="44.8748" lon="5.52432">
        <ele>2214.3999023438</ele>
        <time>2022-05-27T12:41:12.000Z</time>
      </trkpt>
      <trkpt lat="44.87456" lon="5.52452">
        <ele>2215.1999511719</ele>
        <time>2022-05-27T12:41:43.000Z</time>
      </trkpt>
      <trkpt lat="44.87456" lon="5.52454">
        <ele>2215.8000488281</ele>
        <time>2022-05-27T12:41:45.000Z</time>
      </trkpt>
      <trkpt lat="44.87453" lon="5.52459">
        <ele>2216.8000488281</ele>
        <time>2022-05-27T12:41:50.000Z</time>
      </trkpt>
      <trkpt lat="44.87442" lon="5.5247">
        <ele>2218.3999023438</ele>
        <time>2022-05-27T12:42:09.000Z</time>
      </trkpt>
      <trkpt lat="44.87441" lon="5.52472">
        <ele>2218.8000488281</ele>
        <time>2022-05-27T12:42:12.000Z</time>
      </trkpt>
      <trkpt lat="44.8744" lon="5.52474">
        <ele>2219</ele>
        <time>2022-05-27T12:42:14.000Z</time>
      </trkpt>
      <trkpt lat="44.87439" lon="5.52476">
        <ele>2219</ele>
        <time>2022-05-27T12:42:17.000Z</time>
      </trkpt>
      <trkpt lat="44.87432" lon="5.52481">
        <ele>2219.1999511719</ele>
        <time>2022-05-27T12:42:30.000Z</time>
      </trkpt>
      <trkpt lat="44.87425" lon="5.52494">
        <ele>2223.1999511719</ele>
        <time>2022-05-27T12:42:57.000Z</time>
      </trkpt>
      <trkpt lat="44.8741" lon="5.52508">
        <ele>2227.8000488281</ele>
        <time>2022-05-27T12:43:13.000Z</time>
      </trkpt>
      <trkpt lat="44.87409" lon="5.52508">
        <ele>2228</ele>
        <time>2022-05-27T12:43:14.000Z</time>
      </trkpt>
      <trkpt lat="44.87406" lon="5.52511">
        <ele>2229.1999511719</ele>
        <time>2022-05-27T12:43:17.000Z</time>
      </trkpt>
      <trkpt lat="44.87405" lon="5.52512">
        <ele>2229.6000976562</ele>
        <time>2022-05-27T12:43:18.000Z</time>
      </trkpt>
      <trkpt lat="44.87403" lon="5.52512">
        <ele>2230.3999023438</ele>
        <time>2022-05-27T12:43:20.000Z</time>
      </trkpt>
      <trkpt lat="44.8738" lon="5.52522">
        <ele>2237</ele>
        <time>2022-05-27T12:43:41.000Z</time>
      </trkpt>
      <trkpt lat="44.87373" lon="5.52525">
        <ele>2239.8000488281</ele>
        <time>2022-05-27T12:43:49.000Z</time>
      </trkpt>
      <trkpt lat="44.87372" lon="5.52526">
        <ele>2240.1999511719</ele>
        <time>2022-05-27T12:43:50.000Z</time>
      </trkpt>
      <trkpt lat="44.87371" lon="5.52527">
        <ele>2240.6000976562</ele>
        <time>2022-05-27T12:43:51.000Z</time>
      </trkpt>
      <trkpt lat="44.8737" lon="5.52528">
        <ele>2240.6000976562</ele>
        <time>2022-05-27T12:43:52.000Z</time>
      </trkpt>
      <trkpt lat="44.87366" lon="5.5253">
        <ele>2241.1999511719</ele>
        <time>2022-05-27T12:43:57.000Z</time>
      </trkpt>
      <trkpt lat="44.87364" lon="5.5253">
        <ele>2241.1999511719</ele>
        <time>2022-05-27T12:44:00.000Z</time>
      </trkpt>
      <trkpt lat="44.87359" lon="5.52532">
        <ele>2241.6000976562</ele>
        <time>2022-05-27T12:44:07.000Z</time>
      </trkpt>
      <trkpt lat="44.87358" lon="5.52532">
        <ele>2241.6000976562</ele>
        <time>2022-05-27T12:44:08.000Z</time>
      </trkpt>
      <trkpt lat="44.87357" lon="5.52532">
        <ele>2241.6000976562</ele>
        <time>2022-05-27T12:44:09.000Z</time>
      </trkpt>
      <trkpt lat="44.87351" lon="5.52535">
        <ele>2242</ele>
        <time>2022-05-27T12:44:16.000Z</time>
      </trkpt>
      <trkpt lat="44.87341" lon="5.5254">
        <ele>2244.6000976562</ele>
        <time>2022-05-27T12:44:27.000Z</time>
      </trkpt>
      <trkpt lat="44.87335" lon="5.52543">
        <ele>2244.8000488281</ele>
        <time>2022-05-27T12:44:34.000Z</time>
      </trkpt>
      <trkpt lat="44.87325" lon="5.52547">
        <ele>2245.3999023438</ele>
        <time>2022-05-27T12:44:44.000Z</time>
      </trkpt>
      <trkpt lat="44.87312" lon="5.52555">
        <ele>2247.8000488281</ele>
        <time>2022-05-27T12:45:00.000Z</time>
      </trkpt>
      <trkpt lat="44.87307" lon="5.52556">
        <ele>2248.6000976562</ele>
        <time>2022-05-27T12:45:07.000Z</time>
      </trkpt>
      <trkpt lat="44.87307" lon="5.52557">
        <ele>2248.8000488281</ele>
        <time>2022-05-27T12:45:08.000Z</time>
      </trkpt>
      <trkpt lat="44.87306" lon="5.52557">
        <ele>2248.8000488281</ele>
        <time>2022-05-27T12:45:09.000Z</time>
      </trkpt>
      <trkpt lat="44.87305" lon="5.52557">
        <ele>2249</ele>
        <time>2022-05-27T12:45:10.000Z</time>
      </trkpt>
      <trkpt lat="44.87304" lon="5.52557">
        <ele>2249.1999511719</ele>
        <time>2022-05-27T12:45:11.000Z</time>
      </trkpt>
      <trkpt lat="44.87304" lon="5.52558">
        <ele>2249.3999023438</ele>
        <time>2022-05-27T12:45:12.000Z</time>
      </trkpt>
      <trkpt lat="44.87303" lon="5.52558">
        <ele>2249.6000976562</ele>
        <time>2022-05-27T12:45:13.000Z</time>
      </trkpt>
      <trkpt lat="44.87303" lon="5.52559">
        <ele>2249.8000488281</ele>
        <time>2022-05-27T12:45:16.000Z</time>
      </trkpt>
      <trkpt lat="44.87302" lon="5.52562">
        <ele>2250.8000488281</ele>
        <time>2022-05-27T12:45:24.000Z</time>
      </trkpt>
      <trkpt lat="44.87302" lon="5.52562">
        <ele>2250.8000488281</ele>
        <time>2022-05-27T12:45:27.000Z</time>
      </trkpt>
      <trkpt lat="44.87298" lon="5.52562">
        <ele>2251.1999511719</ele>
        <time>2022-05-27T12:45:36.000Z</time>
      </trkpt>
      <trkpt lat="44.87293" lon="5.52564">
        <ele>2252.1999511719</ele>
        <time>2022-05-27T12:45:43.000Z</time>
      </trkpt>
      <trkpt lat="44.87291" lon="5.52565">
        <ele>2253.1999511719</ele>
        <time>2022-05-27T12:45:47.000Z</time>
      </trkpt>
      <trkpt lat="44.8729" lon="5.52566">
        <ele>2253.6000976562</ele>
        <time>2022-05-27T12:45:49.000Z</time>
      </trkpt>
      <trkpt lat="44.87289" lon="5.52566">
        <ele>2253.8000488281</ele>
        <time>2022-05-27T12:45:50.000Z</time>
      </trkpt>
      <trkpt lat="44.87288" lon="5.52567">
        <ele>2254.3999023438</ele>
        <time>2022-05-27T12:45:52.000Z</time>
      </trkpt>
      <trkpt lat="44.87274" lon="5.52575">
        <ele>2261</ele>
        <time>2022-05-27T12:46:17.000Z</time>
      </trkpt>
      <trkpt lat="44.87271" lon="5.52579">
        <ele>2263.1999511719</ele>
        <time>2022-05-27T12:46:25.000Z</time>
      </trkpt>
      <trkpt lat="44.87264" lon="5.52584">
        <ele>2266.1999511719</ele>
        <time>2022-05-27T12:46:38.000Z</time>
      </trkpt>
      <trkpt lat="44.87261" lon="5.52585">
        <ele>2267.1999511719</ele>
        <time>2022-05-27T12:46:44.000Z</time>
      </trkpt>
      <trkpt lat="44.8726" lon="5.52586">
        <ele>2267.6000976562</ele>
        <time>2022-05-27T12:46:45.000Z</time>
      </trkpt>
      <trkpt lat="44.8726" lon="5.52587">
        <ele>2267.8000488281</ele>
        <time>2022-05-27T12:46:46.000Z</time>
      </trkpt>
      <trkpt lat="44.87259" lon="5.52588">
        <ele>2268.6000976562</ele>
        <time>2022-05-27T12:46:48.000Z</time>
      </trkpt>
      <trkpt lat="44.87259" lon="5.52589">
        <ele>2268.6000976562</ele>
        <time>2022-05-27T12:46:49.000Z</time>
      </trkpt>
      <trkpt lat="44.87259" lon="5.52589">
        <ele>2269</ele>
        <time>2022-05-27T12:46:50.000Z</time>
      </trkpt>
      <trkpt lat="44.87258" lon="5.5259">
        <ele>2269.3999023438</ele>
        <time>2022-05-27T12:46:52.000Z</time>
      </trkpt>
      <trkpt lat="44.87257" lon="5.52591">
        <ele>2269.8000488281</ele>
        <time>2022-05-27T12:46:53.000Z</time>
      </trkpt>
      <trkpt lat="44.87255" lon="5.5259">
        <ele>2270</ele>
        <time>2022-05-27T12:46:56.000Z</time>
      </trkpt>
      <trkpt lat="44.87255" lon="5.5259">
        <ele>2270</ele>
        <time>2022-05-27T12:46:57.000Z</time>
      </trkpt>
      <trkpt lat="44.87247" lon="5.52583">
        <ele>2269.1999511719</ele>
        <time>2022-05-27T12:47:09.000Z</time>
      </trkpt>
      <trkpt lat="44.87246" lon="5.52582">
        <ele>2269</ele>
        <time>2022-05-27T12:47:10.000Z</time>
      </trkpt>
      <trkpt lat="44.87245" lon="5.52581">
        <ele>2268.8000488281</ele>
        <time>2022-05-27T12:47:11.000Z</time>
      </trkpt>
      <trkpt lat="44.87243" lon="5.5258">
        <ele>2268.8000488281</ele>
        <time>2022-05-27T12:47:14.000Z</time>
      </trkpt>
      <trkpt lat="44.8724" lon="5.5258">
        <ele>2269</ele>
        <time>2022-05-27T12:47:18.000Z</time>
      </trkpt>
      <trkpt lat="44.87236" lon="5.52581">
        <ele>2270.1999511719</ele>
        <time>2022-05-27T12:47:24.000Z</time>
      </trkpt>
      <trkpt lat="44.87235" lon="5.52582">
        <ele>2270.8000488281</ele>
        <time>2022-05-27T12:47:27.000Z</time>
      </trkpt>
      <trkpt lat="44.87234" lon="5.52582">
        <ele>2271.1999511719</ele>
        <time>2022-05-27T12:47:29.000Z</time>
      </trkpt>
      <trkpt lat="44.87233" lon="5.52583">
        <ele>2271.3999023438</ele>
        <time>2022-05-27T12:47:30.000Z</time>
      </trkpt>
      <trkpt lat="44.87232" lon="5.52583">
        <ele>2271.8000488281</ele>
        <time>2022-05-27T12:47:32.000Z</time>
      </trkpt>
      <trkpt lat="44.87229" lon="5.52584">
        <ele>2272.8000488281</ele>
        <time>2022-05-27T12:47:36.000Z</time>
      </trkpt>
      <trkpt lat="44.87226" lon="5.52585">
        <ele>2274.3999023438</ele>
        <time>2022-05-27T12:47:42.000Z</time>
      </trkpt>
      <trkpt lat="44.87212" lon="5.52591">
        <ele>2280.6000976562</ele>
        <time>2022-05-27T12:48:03.000Z</time>
      </trkpt>
      <trkpt lat="44.87208" lon="5.52593">
        <ele>2282.1999511719</ele>
        <time>2022-05-27T12:48:11.000Z</time>
      </trkpt>
      <trkpt lat="44.87195" lon="5.52596">
        <ele>2286.1999511719</ele>
        <time>2022-05-27T12:48:29.000Z</time>
      </trkpt>
      <trkpt lat="44.87191" lon="5.52596">
        <ele>2287.3999023438</ele>
        <time>2022-05-27T12:48:35.000Z</time>
      </trkpt>
      <trkpt lat="44.87183" lon="5.52601">
        <ele>2289.8000488281</ele>
        <time>2022-05-27T12:48:48.000Z</time>
      </trkpt>
      <trkpt lat="44.87178" lon="5.52604">
        <ele>2291.1999511719</ele>
        <time>2022-05-27T12:48:58.000Z</time>
      </trkpt>
      <trkpt lat="44.87176" lon="5.52604">
        <ele>2291.3999023438</ele>
        <time>2022-05-27T12:49:01.000Z</time>
      </trkpt>
      <trkpt lat="44.87171" lon="5.52607">
        <ele>2292.6000976562</ele>
        <time>2022-05-27T12:49:09.000Z</time>
      </trkpt>
      <trkpt lat="44.87166" lon="5.5261">
        <ele>2293.3999023438</ele>
        <time>2022-05-27T12:49:16.000Z</time>
      </trkpt>
      <trkpt lat="44.87164" lon="5.52611">
        <ele>2293.8000488281</ele>
        <time>2022-05-27T12:49:19.000Z</time>
      </trkpt>
      <trkpt lat="44.87163" lon="5.52611">
        <ele>2293.8000488281</ele>
        <time>2022-05-27T12:49:21.000Z</time>
      </trkpt>
      <trkpt lat="44.87157" lon="5.52614">
        <ele>2294.3999023438</ele>
        <time>2022-05-27T12:49:31.000Z</time>
      </trkpt>
      <trkpt lat="44.87156" lon="5.52614">
        <ele>2294.6000976562</ele>
        <time>2022-05-27T12:49:32.000Z</time>
      </trkpt>
      <trkpt lat="44.87151" lon="5.52614">
        <ele>2295</ele>
        <time>2022-05-27T12:49:38.000Z</time>
      </trkpt>
      <trkpt lat="44.87143" lon="5.52615">
        <ele>2296</ele>
        <time>2022-05-27T12:49:46.000Z</time>
      </trkpt>
      <trkpt lat="44.87137" lon="5.52626">
        <ele>2297.3999023438</ele>
        <time>2022-05-27T12:50:04.000Z</time>
      </trkpt>
      <trkpt lat="44.87136" lon="5.52626">
        <ele>2297.3999023438</ele>
        <time>2022-05-27T12:50:07.000Z</time>
      </trkpt>
      <trkpt lat="44.87132" lon="5.52624">
        <ele>2298</ele>
        <time>2022-05-27T12:50:12.000Z</time>
      </trkpt>
      <trkpt lat="44.87131" lon="5.52624">
        <ele>2298.1999511719</ele>
        <time>2022-05-27T12:50:13.000Z</time>
      </trkpt>
      <trkpt lat="44.87125" lon="5.52622">
        <ele>2299.1999511719</ele>
        <time>2022-05-27T12:50:20.000Z</time>
      </trkpt>
      <trkpt lat="44.8712" lon="5.52622">
        <ele>2300.3999023438</ele>
        <time>2022-05-27T12:50:27.000Z</time>
      </trkpt>
      <trkpt lat="44.87119" lon="5.52624">
        <ele>2301.1999511719</ele>
        <time>2022-05-27T12:50:32.000Z</time>
      </trkpt>
      <trkpt lat="44.87114" lon="5.52628">
        <ele>2303.3999023438</ele>
        <time>2022-05-27T12:50:41.000Z</time>
      </trkpt>
      <trkpt lat="44.87105" lon="5.52631">
        <ele>2306.6000976562</ele>
        <time>2022-05-27T12:50:56.000Z</time>
      </trkpt>
      <trkpt lat="44.87096" lon="5.5263">
        <ele>2309</ele>
        <time>2022-05-27T12:51:05.000Z</time>
      </trkpt>
      <trkpt lat="44.87089" lon="5.5263">
        <ele>2310.1999511719</ele>
        <time>2022-05-27T12:51:13.000Z</time>
      </trkpt>
      <trkpt lat="44.87081" lon="5.52627">
        <ele>2310.6000976562</ele>
        <time>2022-05-27T12:51:25.000Z</time>
      </trkpt>
      <trkpt lat="44.87081" lon="5.52627">
        <ele>2310.6000976562</ele>
        <time>2022-05-27T12:51:26.000Z</time>
      </trkpt>
      <trkpt lat="44.87081" lon="5.52628">
        <ele>2311</ele>
        <time>2022-05-27T12:51:28.000Z</time>
      </trkpt>
      <trkpt lat="44.8708" lon="5.52628">
        <ele>2311.3999023438</ele>
        <time>2022-05-27T12:51:29.000Z</time>
      </trkpt>
      <trkpt lat="44.8708" lon="5.52629">
        <ele>2311.8000488281</ele>
        <time>2022-05-27T12:51:30.000Z</time>
      </trkpt>
      <trkpt lat="44.8708" lon="5.5263">
        <ele>2312</ele>
        <time>2022-05-27T12:51:31.000Z</time>
      </trkpt>
      <trkpt lat="44.87078" lon="5.52631">
        <ele>2312.8000488281</ele>
        <time>2022-05-27T12:51:34.000Z</time>
      </trkpt>
      <trkpt lat="44.87078" lon="5.52631">
        <ele>2313.3999023438</ele>
        <time>2022-05-27T12:51:36.000Z</time>
      </trkpt>
      <trkpt lat="44.87075" lon="5.52636">
        <ele>2316</ele>
        <time>2022-05-27T12:51:43.000Z</time>
      </trkpt>
      <trkpt lat="44.87069" lon="5.52647">
        <ele>2320.3999023438</ele>
        <time>2022-05-27T12:52:09.000Z</time>
      </trkpt>
      <trkpt lat="44.87067" lon="5.52649">
        <ele>2321.1999511719</ele>
        <time>2022-05-27T12:52:16.000Z</time>
      </trkpt>
      <trkpt lat="44.87062" lon="5.52654">
        <ele>2322.8000488281</ele>
        <time>2022-05-27T12:52:29.000Z</time>
      </trkpt>
      <trkpt lat="44.87062" lon="5.52655">
        <ele>2322.8000488281</ele>
        <time>2022-05-27T12:52:30.000Z</time>
      </trkpt>
      <trkpt lat="44.87061" lon="5.52657">
        <ele>2323.1999511719</ele>
        <time>2022-05-27T12:52:32.000Z</time>
      </trkpt>
      <trkpt lat="44.87062" lon="5.52658">
        <ele>2323.1999511719</ele>
        <time>2022-05-27T12:52:35.000Z</time>
      </trkpt>
      <trkpt lat="44.87062" lon="5.52658">
        <ele>2323.1999511719</ele>
        <time>2022-05-27T12:52:37.000Z</time>
      </trkpt>
      <trkpt lat="44.87062" lon="5.52658">
        <ele>2323.1999511719</ele>
        <time>2022-05-27T12:52:38.000Z</time>
      </trkpt>
      <trkpt lat="44.87062" lon="5.52658">
        <ele>2323.1999511719</ele>
        <time>2022-05-27T12:52:39.000Z</time>
      </trkpt>
      <trkpt lat="44.87062" lon="5.52658">
        <ele>2323.1999511719</ele>
        <time>2022-05-27T12:52:40.000Z</time>
      </trkpt>
      <trkpt lat="44.87062" lon="5.52662">
        <ele>2323.8000488281</ele>
        <time>2022-05-27T12:52:46.000Z</time>
      </trkpt>
      <trkpt lat="44.87062" lon="5.52663">
        <ele>2324</ele>
        <time>2022-05-27T12:52:47.000Z</time>
      </trkpt>
      <trkpt lat="44.87062" lon="5.52664">
        <ele>2324</ele>
        <time>2022-05-27T12:52:48.000Z</time>
      </trkpt>
      <trkpt lat="44.87062" lon="5.52666">
        <ele>2324.1999511719</ele>
        <time>2022-05-27T12:52:50.000Z</time>
      </trkpt>
      <trkpt lat="44.87062" lon="5.52666">
        <ele>2324.1999511719</ele>
        <time>2022-05-27T12:52:51.000Z</time>
      </trkpt>
      <trkpt lat="44.87062" lon="5.52668">
        <ele>2324.1999511719</ele>
        <time>2022-05-27T12:52:53.000Z</time>
      </trkpt>
      <trkpt lat="44.87062" lon="5.5267">
        <ele>2324</ele>
        <time>2022-05-27T12:52:56.000Z</time>
      </trkpt>
      <trkpt lat="44.87062" lon="5.52672">
        <ele>2324</ele>
        <time>2022-05-27T12:52:59.000Z</time>
      </trkpt>
      <trkpt lat="44.87062" lon="5.52677">
        <ele>2323.6000976562</ele>
        <time>2022-05-27T12:53:07.000Z</time>
      </trkpt>
      <trkpt lat="44.87066" lon="5.5268">
        <ele>2323</ele>
        <time>2022-05-27T12:53:13.000Z</time>
      </trkpt>
      <trkpt lat="44.87068" lon="5.52684">
        <ele>2322.1999511719</ele>
        <time>2022-05-27T12:53:19.000Z</time>
      </trkpt>
      <trkpt lat="44.87071" lon="5.52689">
        <ele>2321.3999023438</ele>
        <time>2022-05-27T12:53:25.000Z</time>
      </trkpt>
      <trkpt lat="44.87069" lon="5.5269">
        <ele>2321.6000976562</ele>
        <time>2022-05-27T12:53:32.000Z</time>
      </trkpt>
      <trkpt lat="44.87068" lon="5.52691">
        <ele>2321.8000488281</ele>
        <time>2022-05-27T12:53:40.000Z</time>
      </trkpt>
      <trkpt lat="44.87068" lon="5.52691">
        <ele>2321.8000488281</ele>
        <time>2022-05-27T12:53:46.000Z</time>
      </trkpt>
      <trkpt lat="44.87069" lon="5.5269">
        <ele>2321.8000488281</ele>
        <time>2022-05-27T12:54:10.000Z</time>
      </trkpt>
      <trkpt lat="44.87069" lon="5.52689">
        <ele>2321.8000488281</ele>
        <time>2022-05-27T12:54:20.000Z</time>
      </trkpt>
      <trkpt lat="44.8707" lon="5.52691">
        <ele>2321.3999023438</ele>
        <time>2022-05-27T12:54:47.000Z</time>
      </trkpt>
      <trkpt lat="44.8707" lon="5.52692">
        <ele>2321.1999511719</ele>
        <time>2022-05-27T12:55:30.000Z</time>
      </trkpt>
      <trkpt lat="44.8707" lon="5.52692">
        <ele>2321.1999511719</ele>
        <time>2022-05-27T12:55:46.000Z</time>
      </trkpt>
      <trkpt lat="44.8707" lon="5.52692">
        <ele>2321.1999511719</ele>
        <time>2022-05-27T12:55:58.000Z</time>
      </trkpt>
      <trkpt lat="44.8707" lon="5.52692">
        <ele>2321.1999511719</ele>
        <time>2022-05-27T12:56:01.000Z</time>
      </trkpt>
      <trkpt lat="44.8707" lon="5.52692">
        <ele>2321.1999511719</ele>
        <time>2022-05-27T12:56:08.000Z</time>
      </trkpt>
      <trkpt lat="44.87071" lon="5.52691">
        <ele>2321.1999511719</ele>
        <time>2022-05-27T12:56:16.000Z</time>
      </trkpt>
      <trkpt lat="44.87071" lon="5.52691">
        <ele>2321.1999511719</ele>
        <time>2022-05-27T12:56:33.000Z</time>
      </trkpt>
      <trkpt lat="44.87071" lon="5.5269">
        <ele>2321.3999023438</ele>
        <time>2022-05-27T12:56:41.000Z</time>
      </trkpt>
      <trkpt lat="44.87071" lon="5.5269">
        <ele>2321.1999511719</ele>
        <time>2022-05-27T12:56:55.000Z</time>
      </trkpt>
      <trkpt lat="44.87072" lon="5.52692">
        <ele>2321</ele>
        <time>2022-05-27T12:57:08.000Z</time>
      </trkpt>
      <trkpt lat="44.87072" lon="5.52692">
        <ele>2321</ele>
        <time>2022-05-27T12:57:09.000Z</time>
      </trkpt>
      <trkpt lat="44.87072" lon="5.52693">
        <ele>2320.8000488281</ele>
        <time>2022-05-27T12:57:24.000Z</time>
      </trkpt>
      <trkpt lat="44.87072" lon="5.52693">
        <ele>2320.8000488281</ele>
        <time>2022-05-27T12:57:27.000Z</time>
      </trkpt>
      <trkpt lat="44.87071" lon="5.52693">
        <ele>2321</ele>
        <time>2022-05-27T12:57:40.000Z</time>
      </trkpt>
      <trkpt lat="44.87071" lon="5.52692">
        <ele>2321.1999511719</ele>
        <time>2022-05-27T12:57:56.000Z</time>
      </trkpt>
      <trkpt lat="44.87069" lon="5.52692">
        <ele>2321.6000976562</ele>
        <time>2022-05-27T12:58:55.000Z</time>
      </trkpt>
      <trkpt lat="44.8707" lon="5.52692">
        <ele>2321.3999023438</ele>
        <time>2022-05-27T12:59:25.000Z</time>
      </trkpt>
      <trkpt lat="44.8707" lon="5.52692">
        <ele>2321.3999023438</ele>
        <time>2022-05-27T12:59:27.000Z</time>
      </trkpt>
      <trkpt lat="44.8707" lon="5.52692">
        <ele>2321.3999023438</ele>
        <time>2022-05-27T12:59:31.000Z</time>
      </trkpt>
      <trkpt lat="44.8707" lon="5.52691">
        <ele>2321.3999023438</ele>
        <time>2022-05-27T12:59:34.000Z</time>
      </trkpt>
      <trkpt lat="44.8707" lon="5.52691">
        <ele>2321.3999023438</ele>
        <time>2022-05-27T12:59:35.000Z</time>
      </trkpt>
      <trkpt lat="44.8707" lon="5.52691">
        <ele>2321.3999023438</ele>
        <time>2022-05-27T12:59:36.000Z</time>
      </trkpt>
      <trkpt lat="44.8707" lon="5.52692">
        <ele>2321.3999023438</ele>
        <time>2022-05-27T12:59:44.000Z</time>
      </trkpt>
      <trkpt lat="44.8707" lon="5.52692">
        <ele>2321.3999023438</ele>
        <time>2022-05-27T12:59:48.000Z</time>
      </trkpt>
      <trkpt lat="44.8707" lon="5.52692">
        <ele>2321.1999511719</ele>
        <time>2022-05-27T12:59:53.000Z</time>
      </trkpt>
      <trkpt lat="44.8707" lon="5.52694">
        <ele>2321.1999511719</ele>
        <time>2022-05-27T13:00:04.000Z</time>
      </trkpt>
      <trkpt lat="44.87069" lon="5.52692">
        <ele>2321.6000976562</ele>
        <time>2022-05-27T13:00:14.000Z</time>
      </trkpt>
      <trkpt lat="44.87069" lon="5.52693">
        <ele>2321.6000976562</ele>
        <time>2022-05-27T13:00:20.000Z</time>
      </trkpt>
      <trkpt lat="44.87071" lon="5.52694">
        <ele>2321</ele>
        <time>2022-05-27T13:00:35.000Z</time>
      </trkpt>
      <trkpt lat="44.87069" lon="5.52691">
        <ele>2321.6000976562</ele>
        <time>2022-05-27T13:01:03.000Z</time>
      </trkpt>
      <trkpt lat="44.87069" lon="5.52691">
        <ele>2321.6000976562</ele>
        <time>2022-05-27T13:01:19.000Z</time>
      </trkpt>
      <trkpt lat="44.87069" lon="5.5269">
        <ele>2321.8000488281</ele>
        <time>2022-05-27T13:01:29.000Z</time>
      </trkpt>
      <trkpt lat="44.87069" lon="5.5269">
        <ele>2321.6000976562</ele>
        <time>2022-05-27T13:01:34.000Z</time>
      </trkpt>
      <trkpt lat="44.87069" lon="5.5269">
        <ele>2321.6000976562</ele>
        <time>2022-05-27T13:01:37.000Z</time>
      </trkpt>
      <trkpt lat="44.87069" lon="5.52691">
        <ele>2321.6000976562</ele>
        <time>2022-05-27T13:01:45.000Z</time>
      </trkpt>
      <trkpt lat="44.87069" lon="5.52691">
        <ele>2321.6000976562</ele>
        <time>2022-05-27T13:01:46.000Z</time>
      </trkpt>
      <trkpt lat="44.87069" lon="5.52691">
        <ele>2321.6000976562</ele>
        <time>2022-05-27T13:01:47.000Z</time>
      </trkpt>
      <trkpt lat="44.87069" lon="5.52691">
        <ele>2321.6000976562</ele>
        <time>2022-05-27T13:01:59.000Z</time>
      </trkpt>
      <trkpt lat="44.87069" lon="5.52692">
        <ele>2321.6000976562</ele>
        <time>2022-05-27T13:02:21.000Z</time>
      </trkpt>
      <trkpt lat="44.8707" lon="5.52692">
        <ele>2321.1999511719</ele>
        <time>2022-05-27T13:02:36.000Z</time>
      </trkpt>
      <trkpt lat="44.87071" lon="5.52694">
        <ele>2320.8000488281</ele>
        <time>2022-05-27T13:02:52.000Z</time>
      </trkpt>
      <trkpt lat="44.87072" lon="5.52694">
        <ele>2320.8000488281</ele>
        <time>2022-05-27T13:02:54.000Z</time>
      </trkpt>
      <trkpt lat="44.87072" lon="5.52693">
        <ele>2320.8000488281</ele>
        <time>2022-05-27T13:02:58.000Z</time>
      </trkpt>
      <trkpt lat="44.87074" lon="5.52692">
        <ele>2320.6000976562</ele>
        <time>2022-05-27T13:03:04.000Z</time>
      </trkpt>
      <trkpt lat="44.87074" lon="5.52692">
        <ele>2320.6000976562</ele>
        <time>2022-05-27T13:03:16.000Z</time>
      </trkpt>
      <trkpt lat="44.87073" lon="5.52692">
        <ele>2320.6000976562</ele>
        <time>2022-05-27T13:03:17.000Z</time>
      </trkpt>
      <trkpt lat="44.87073" lon="5.52692">
        <ele>2320.6000976562</ele>
        <time>2022-05-27T13:03:18.000Z</time>
      </trkpt>
      <trkpt lat="44.87073" lon="5.52692">
        <ele>2320.6000976562</ele>
        <time>2022-05-27T13:03:19.000Z</time>
      </trkpt>
      <trkpt lat="44.87071" lon="5.5269">
        <ele>2321.1999511719</ele>
        <time>2022-05-27T13:03:27.000Z</time>
      </trkpt>
      <trkpt lat="44.87071" lon="5.5269">
        <ele>2321.1999511719</ele>
        <time>2022-05-27T13:03:30.000Z</time>
      </trkpt>
      <trkpt lat="44.87071" lon="5.5269">
        <ele>2321.3999023438</ele>
        <time>2022-05-27T13:03:32.000Z</time>
      </trkpt>
      <trkpt lat="44.87071" lon="5.5269">
        <ele>2321.3999023438</ele>
        <time>2022-05-27T13:03:35.000Z</time>
      </trkpt>
      <trkpt lat="44.87071" lon="5.5269">
        <ele>2321.3999023438</ele>
        <time>2022-05-27T13:03:37.000Z</time>
      </trkpt>
      <trkpt lat="44.87071" lon="5.5269">
        <ele>2321.1999511719</ele>
        <time>2022-05-27T13:03:41.000Z</time>
      </trkpt>
      <trkpt lat="44.87071" lon="5.5269">
        <ele>2321.1999511719</ele>
        <time>2022-05-27T13:03:44.000Z</time>
      </trkpt>
      <trkpt lat="44.87072" lon="5.5269">
        <ele>2321.1999511719</ele>
        <time>2022-05-27T13:03:47.000Z</time>
      </trkpt>
      <trkpt lat="44.87072" lon="5.5269">
        <ele>2321.1999511719</ele>
        <time>2022-05-27T13:03:48.000Z</time>
      </trkpt>
      <trkpt lat="44.87071" lon="5.5269">
        <ele>2321.1999511719</ele>
        <time>2022-05-27T13:03:54.000Z</time>
      </trkpt>
      <trkpt lat="44.87071" lon="5.5269">
        <ele>2321.1999511719</ele>
        <time>2022-05-27T13:04:02.000Z</time>
      </trkpt>
      <trkpt lat="44.87071" lon="5.5269">
        <ele>2321.1999511719</ele>
        <time>2022-05-27T13:04:15.000Z</time>
      </trkpt>
      <trkpt lat="44.87072" lon="5.52689">
        <ele>2321.1999511719</ele>
        <time>2022-05-27T13:04:24.000Z</time>
      </trkpt>
      <trkpt lat="44.8707" lon="5.52691">
        <ele>2321.3999023438</ele>
        <time>2022-05-27T13:04:45.000Z</time>
      </trkpt>
      <trkpt lat="44.8707" lon="5.52691">
        <ele>2321.3999023438</ele>
        <time>2022-05-27T13:04:46.000Z</time>
      </trkpt>
      <trkpt lat="44.8707" lon="5.52691">
        <ele>2321.3999023438</ele>
        <time>2022-05-27T13:04:47.000Z</time>
      </trkpt>
      <trkpt lat="44.8707" lon="5.5269">
        <ele>2321.3999023438</ele>
        <time>2022-05-27T13:04:51.000Z</time>
      </trkpt>
      <trkpt lat="44.8707" lon="5.52689">
        <ele>2321.6000976562</ele>
        <time>2022-05-27T13:04:58.000Z</time>
      </trkpt>
      <trkpt lat="44.8707" lon="5.5269">
        <ele>2321.3999023438</ele>
        <time>2022-05-27T13:05:07.000Z</time>
      </trkpt>
      <trkpt lat="44.87071" lon="5.52692">
        <ele>2321.1999511719</ele>
        <time>2022-05-27T13:05:14.000Z</time>
      </trkpt>
      <trkpt lat="44.87071" lon="5.52691">
        <ele>2321.1999511719</ele>
        <time>2022-05-27T13:05:15.000Z</time>
      </trkpt>
      <trkpt lat="44.87071" lon="5.52691">
        <ele>2321.1999511719</ele>
        <time>2022-05-27T13:05:18.000Z</time>
      </trkpt>
      <trkpt lat="44.8707" lon="5.5269">
        <ele>2321.6000976562</ele>
        <time>2022-05-27T13:05:27.000Z</time>
      </trkpt>
      <trkpt lat="44.8707" lon="5.5269">
        <ele>2321.6000976562</ele>
        <time>2022-05-27T13:05:34.000Z</time>
      </trkpt>
      <trkpt lat="44.8707" lon="5.5269">
        <ele>2321.6000976562</ele>
        <time>2022-05-27T13:05:37.000Z</time>
      </trkpt>
      <trkpt lat="44.8707" lon="5.5269">
        <ele>2321.6000976562</ele>
        <time>2022-05-27T13:05:40.000Z</time>
      </trkpt>
      <trkpt lat="44.8707" lon="5.52691">
        <ele>2321.3999023438</ele>
        <time>2022-05-27T13:05:45.000Z</time>
      </trkpt>
      <trkpt lat="44.87059" lon="5.52682">
        <ele>2323.3999023438</ele>
        <time>2022-05-27T13:06:11.000Z</time>
      </trkpt>
      <trkpt lat="44.87057" lon="5.52681">
        <ele>2323.6000976562</ele>
        <time>2022-05-27T13:06:13.000Z</time>
      </trkpt>
      <trkpt lat="44.87054" lon="5.5268">
        <ele>2324</ele>
        <time>2022-05-27T13:06:16.000Z</time>
      </trkpt>
      <trkpt lat="44.87053" lon="5.52679">
        <ele>2324</ele>
        <time>2022-05-27T13:06:17.000Z</time>
      </trkpt>
      <trkpt lat="44.87051" lon="5.52678">
        <ele>2324.1999511719</ele>
        <time>2022-05-27T13:06:20.000Z</time>
      </trkpt>
      <trkpt lat="44.87049" lon="5.52681">
        <ele>2323.8000488281</ele>
        <time>2022-05-27T13:06:23.000Z</time>
      </trkpt>
      <trkpt lat="44.87049" lon="5.52683">
        <ele>2323.6000976562</ele>
        <time>2022-05-27T13:06:24.000Z</time>
      </trkpt>
      <trkpt lat="44.87049" lon="5.52684">
        <ele>2323.1999511719</ele>
        <time>2022-05-27T13:06:25.000Z</time>
      </trkpt>
      <trkpt lat="44.87048" lon="5.52688">
        <ele>2322.3999023438</ele>
        <time>2022-05-27T13:06:30.000Z</time>
      </trkpt>
      <trkpt lat="44.87047" lon="5.52687">
        <ele>2322.3999023438</ele>
        <time>2022-05-27T13:06:33.000Z</time>
      </trkpt>
      <trkpt lat="44.87045" lon="5.52687">
        <ele>2322.1999511719</ele>
        <time>2022-05-27T13:06:35.000Z</time>
      </trkpt>
      <trkpt lat="44.87044" lon="5.52686">
        <ele>2322.3999023438</ele>
        <time>2022-05-27T13:06:36.000Z</time>
      </trkpt>
      <trkpt lat="44.8704" lon="5.52681">
        <ele>2323.1999511719</ele>
        <time>2022-05-27T13:06:42.000Z</time>
      </trkpt>
      <trkpt lat="44.87037" lon="5.52675">
        <ele>2324.3999023438</ele>
        <time>2022-05-27T13:06:48.000Z</time>
      </trkpt>
      <trkpt lat="44.87036" lon="5.52674">
        <ele>2324.6000976562</ele>
        <time>2022-05-27T13:06:49.000Z</time>
      </trkpt>
      <trkpt lat="44.87035" lon="5.52673">
        <ele>2324.8000488281</ele>
        <time>2022-05-27T13:06:50.000Z</time>
      </trkpt>
      <trkpt lat="44.87033" lon="5.5267">
        <ele>2325.6000976562</ele>
        <time>2022-05-27T13:06:53.000Z</time>
      </trkpt>
      <trkpt lat="44.87032" lon="5.52669">
        <ele>2326</ele>
        <time>2022-05-27T13:06:55.000Z</time>
      </trkpt>
      <trkpt lat="44.87029" lon="5.52666">
        <ele>2326.3999023438</ele>
        <time>2022-05-27T13:07:00.000Z</time>
      </trkpt>
      <trkpt lat="44.87029" lon="5.52666">
        <ele>2326.1999511719</ele>
        <time>2022-05-27T13:07:06.000Z</time>
      </trkpt>
      <trkpt lat="44.87022" lon="5.52661">
        <ele>2326.3999023438</ele>
        <time>2022-05-27T13:07:20.000Z</time>
      </trkpt>
      <trkpt lat="44.87008" lon="5.52655">
        <ele>2326.6000976562</ele>
        <time>2022-05-27T13:07:35.000Z</time>
      </trkpt>
      <trkpt lat="44.86995" lon="5.5266">
        <ele>2326.1999511719</ele>
        <time>2022-05-27T13:07:48.000Z</time>
      </trkpt>
      <trkpt lat="44.86988" lon="5.52667">
        <ele>2324.6000976562</ele>
        <time>2022-05-27T13:08:21.000Z</time>
      </trkpt>
      <trkpt lat="44.86988" lon="5.52667">
        <ele>2324.6000976562</ele>
        <time>2022-05-27T13:08:23.000Z</time>
      </trkpt>
      <trkpt lat="44.86988" lon="5.52667">
        <ele>2324.6000976562</ele>
        <time>2022-05-27T13:08:24.000Z</time>
      </trkpt>
      <trkpt lat="44.86988" lon="5.52667">
        <ele>2324.6000976562</ele>
        <time>2022-05-27T13:08:25.000Z</time>
      </trkpt>
      <trkpt lat="44.86982" lon="5.52661">
        <ele>2324.6000976562</ele>
        <time>2022-05-27T13:08:38.000Z</time>
      </trkpt>
      <trkpt lat="44.86974" lon="5.52659">
        <ele>2324.3999023438</ele>
        <time>2022-05-27T13:08:47.000Z</time>
      </trkpt>
      <trkpt lat="44.86973" lon="5.52659">
        <ele>2324.1999511719</ele>
        <time>2022-05-27T13:08:48.000Z</time>
      </trkpt>
      <trkpt lat="44.86969" lon="5.52658">
        <ele>2324</ele>
        <time>2022-05-27T13:08:54.000Z</time>
      </trkpt>
      <trkpt lat="44.86967" lon="5.5266">
        <ele>2323.3999023438</ele>
        <time>2022-05-27T13:08:59.000Z</time>
      </trkpt>
      <trkpt lat="44.86966" lon="5.52662">
        <ele>2323</ele>
        <time>2022-05-27T13:09:02.000Z</time>
      </trkpt>
      <trkpt lat="44.86966" lon="5.52662">
        <ele>2323</ele>
        <time>2022-05-27T13:09:03.000Z</time>
      </trkpt>
      <trkpt lat="44.86966" lon="5.52662">
        <ele>2323</ele>
        <time>2022-05-27T13:09:04.000Z</time>
      </trkpt>
      <trkpt lat="44.86965" lon="5.52662">
        <ele>2323</ele>
        <time>2022-05-27T13:09:09.000Z</time>
      </trkpt>
      <trkpt lat="44.86966" lon="5.52661">
        <ele>2323.1999511719</ele>
        <time>2022-05-27T13:09:13.000Z</time>
      </trkpt>
      <trkpt lat="44.86966" lon="5.52661">
        <ele>2323.1999511719</ele>
        <time>2022-05-27T13:09:14.000Z</time>
      </trkpt>
      <trkpt lat="44.86966" lon="5.52661">
        <ele>2323.1999511719</ele>
        <time>2022-05-27T13:09:15.000Z</time>
      </trkpt>
      <trkpt lat="44.86966" lon="5.52661">
        <ele>2323.1999511719</ele>
        <time>2022-05-27T13:09:16.000Z</time>
      </trkpt>
      <trkpt lat="44.86966" lon="5.5266">
        <ele>2323.1999511719</ele>
        <time>2022-05-27T13:09:32.000Z</time>
      </trkpt>
      <trkpt lat="44.86967" lon="5.5266">
        <ele>2323.3999023438</ele>
        <time>2022-05-27T13:09:44.000Z</time>
      </trkpt>
      <trkpt lat="44.86967" lon="5.5266">
        <ele>2323.3999023438</ele>
        <time>2022-05-27T13:10:01.000Z</time>
      </trkpt>
      <trkpt lat="44.86968" lon="5.52661">
        <ele>2323.3999023438</ele>
        <time>2022-05-27T13:10:15.000Z</time>
      </trkpt>
      <trkpt lat="44.86968" lon="5.52659">
        <ele>2323.6000976562</ele>
        <time>2022-05-27T13:10:26.000Z</time>
      </trkpt>
      <trkpt lat="44.86969" lon="5.52656">
        <ele>2324.1999511719</ele>
        <time>2022-05-27T13:11:41.000Z</time>
      </trkpt>
      <trkpt lat="44.86969" lon="5.52657">
        <ele>2324</ele>
        <time>2022-05-27T13:12:04.000Z</time>
      </trkpt>
      <trkpt lat="44.86969" lon="5.52657">
        <ele>2324</ele>
        <time>2022-05-27T13:12:22.000Z</time>
      </trkpt>
      <trkpt lat="44.86967" lon="5.52657">
        <ele>2323.8000488281</ele>
        <time>2022-05-27T13:12:59.000Z</time>
      </trkpt>
      <trkpt lat="44.86966" lon="5.52656">
        <ele>2323.8000488281</ele>
        <time>2022-05-27T13:13:16.000Z</time>
      </trkpt>
      <trkpt lat="44.86971" lon="5.5266">
        <ele>2323.8000488281</ele>
        <time>2022-05-27T13:13:24.000Z</time>
      </trkpt>
      <trkpt lat="44.86976" lon="5.52664">
        <ele>2323.8000488281</ele>
        <time>2022-05-27T13:13:34.000Z</time>
      </trkpt>
      <trkpt lat="44.86976" lon="5.52664">
        <ele>2323.8000488281</ele>
        <time>2022-05-27T13:13:36.000Z</time>
      </trkpt>
      <trkpt lat="44.86976" lon="5.52664">
        <ele>2323.8000488281</ele>
        <time>2022-05-27T13:13:37.000Z</time>
      </trkpt>
      <trkpt lat="44.86976" lon="5.52664">
        <ele>2323.8000488281</ele>
        <time>2022-05-27T13:13:40.000Z</time>
      </trkpt>
      <trkpt lat="44.86976" lon="5.52664">
        <ele>2324</ele>
        <time>2022-05-27T13:13:49.000Z</time>
      </trkpt>
      <trkpt lat="44.86976" lon="5.52663">
        <ele>2324</ele>
        <time>2022-05-27T13:13:50.000Z</time>
      </trkpt>
      <trkpt lat="44.86976" lon="5.52663">
        <ele>2324</ele>
        <time>2022-05-27T13:13:51.000Z</time>
      </trkpt>
      <trkpt lat="44.86975" lon="5.52662">
        <ele>2324</ele>
        <time>2022-05-27T13:13:52.000Z</time>
      </trkpt>
      <trkpt lat="44.86974" lon="5.52661">
        <ele>2324</ele>
        <time>2022-05-27T13:13:53.000Z</time>
      </trkpt>
      <trkpt lat="44.86973" lon="5.5266">
        <ele>2324</ele>
        <time>2022-05-27T13:13:54.000Z</time>
      </trkpt>
      <trkpt lat="44.8697" lon="5.52657">
        <ele>2324</ele>
        <time>2022-05-27T13:13:58.000Z</time>
      </trkpt>
      <trkpt lat="44.86969" lon="5.52656">
        <ele>2324.1999511719</ele>
        <time>2022-05-27T13:14:02.000Z</time>
      </trkpt>
      <trkpt lat="44.86969" lon="5.52657">
        <ele>2324</ele>
        <time>2022-05-27T13:14:09.000Z</time>
      </trkpt>
      <trkpt lat="44.86969" lon="5.52658">
        <ele>2323.8000488281</ele>
        <time>2022-05-27T13:14:14.000Z</time>
      </trkpt>
      <trkpt lat="44.86969" lon="5.52658">
        <ele>2324</ele>
        <time>2022-05-27T13:14:24.000Z</time>
      </trkpt>
      <trkpt lat="44.86969" lon="5.52658">
        <ele>2323.8000488281</ele>
        <time>2022-05-27T13:15:35.000Z</time>
      </trkpt>
      <trkpt lat="44.86969" lon="5.52659">
        <ele>2323.8000488281</ele>
        <time>2022-05-27T13:15:49.000Z</time>
      </trkpt>
      <trkpt lat="44.86968" lon="5.52657">
        <ele>2324</ele>
        <time>2022-05-27T13:16:29.000Z</time>
      </trkpt>
      <trkpt lat="44.86968" lon="5.52657">
        <ele>2324</ele>
        <time>2022-05-27T13:16:33.000Z</time>
      </trkpt>
      <trkpt lat="44.86968" lon="5.52656">
        <ele>2324</ele>
        <time>2022-05-27T13:16:45.000Z</time>
      </trkpt>
      <trkpt lat="44.86969" lon="5.52656">
        <ele>2324.1999511719</ele>
        <time>2022-05-27T13:17:18.000Z</time>
      </trkpt>
      <trkpt lat="44.86969" lon="5.52656">
        <ele>2324.1999511719</ele>
        <time>2022-05-27T13:17:30.000Z</time>
      </trkpt>
      <trkpt lat="44.86969" lon="5.52656">
        <ele>2324.1999511719</ele>
        <time>2022-05-27T13:17:39.000Z</time>
      </trkpt>
      <trkpt lat="44.86973" lon="5.52659">
        <ele>2324</ele>
        <time>2022-05-27T13:17:56.000Z</time>
      </trkpt>
      <trkpt lat="44.86974" lon="5.52661">
        <ele>2324</ele>
        <time>2022-05-27T13:17:59.000Z</time>
      </trkpt>
      <trkpt lat="44.86973" lon="5.52662">
        <ele>2323.8000488281</ele>
        <time>2022-05-27T13:18:00.000Z</time>
      </trkpt>
      <trkpt lat="44.86971" lon="5.52659">
        <ele>2324</ele>
        <time>2022-05-27T13:18:05.000Z</time>
      </trkpt>
      <trkpt lat="44.86969" lon="5.52657">
        <ele>2324</ele>
        <time>2022-05-27T13:18:14.000Z</time>
      </trkpt>
      <trkpt lat="44.86969" lon="5.52657">
        <ele>2324</ele>
        <time>2022-05-27T13:18:17.000Z</time>
      </trkpt>
      <trkpt lat="44.86969" lon="5.52657">
        <ele>2324</ele>
        <time>2022-05-27T13:18:20.000Z</time>
      </trkpt>
      <trkpt lat="44.86969" lon="5.52657">
        <ele>2324</ele>
        <time>2022-05-27T13:18:22.000Z</time>
      </trkpt>
      <trkpt lat="44.86969" lon="5.52657">
        <ele>2324</ele>
        <time>2022-05-27T13:18:23.000Z</time>
      </trkpt>
      <trkpt lat="44.86969" lon="5.52658">
        <ele>2324</ele>
        <time>2022-05-27T13:18:25.000Z</time>
      </trkpt>
      <trkpt lat="44.8697" lon="5.52662">
        <ele>2323.3999023438</ele>
        <time>2022-05-27T13:18:42.000Z</time>
      </trkpt>
      <trkpt lat="44.8697" lon="5.52662">
        <ele>2323.6000976562</ele>
        <time>2022-05-27T13:19:18.000Z</time>
      </trkpt>
      <trkpt lat="44.8697" lon="5.52661">
        <ele>2323.6000976562</ele>
        <time>2022-05-27T13:19:24.000Z</time>
      </trkpt>
      <trkpt lat="44.8697" lon="5.5266">
        <ele>2323.6000976562</ele>
        <time>2022-05-27T13:19:32.000Z</time>
      </trkpt>
      <trkpt lat="44.8697" lon="5.5266">
        <ele>2323.8000488281</ele>
        <time>2022-05-27T13:19:40.000Z</time>
      </trkpt>
      <trkpt lat="44.86972" lon="5.52661">
        <ele>2323.8000488281</ele>
        <time>2022-05-27T13:19:58.000Z</time>
      </trkpt>
      <trkpt lat="44.86972" lon="5.5266">
        <ele>2323.8000488281</ele>
        <time>2022-05-27T13:20:01.000Z</time>
      </trkpt>
      <trkpt lat="44.86972" lon="5.5266">
        <ele>2323.8000488281</ele>
        <time>2022-05-27T13:20:03.000Z</time>
      </trkpt>
      <trkpt lat="44.86972" lon="5.5266">
        <ele>2323.8000488281</ele>
        <time>2022-05-27T13:20:06.000Z</time>
      </trkpt>
      <trkpt lat="44.86972" lon="5.5266">
        <ele>2323.8000488281</ele>
        <time>2022-05-27T13:20:07.000Z</time>
      </trkpt>
      <trkpt lat="44.86972" lon="5.5266">
        <ele>2323.8000488281</ele>
        <time>2022-05-27T13:20:08.000Z</time>
      </trkpt>
      <trkpt lat="44.86972" lon="5.52661">
        <ele>2323.8000488281</ele>
        <time>2022-05-27T13:20:19.000Z</time>
      </trkpt>
      <trkpt lat="44.86972" lon="5.52661">
        <ele>2323.8000488281</ele>
        <time>2022-05-27T13:20:20.000Z</time>
      </trkpt>
      <trkpt lat="44.86972" lon="5.52662">
        <ele>2323.6000976562</ele>
        <time>2022-05-27T13:20:34.000Z</time>
      </trkpt>
      <trkpt lat="44.86971" lon="5.52661">
        <ele>2323.6000976562</ele>
        <time>2022-05-27T13:20:53.000Z</time>
      </trkpt>
      <trkpt lat="44.86971" lon="5.52661">
        <ele>2323.6000976562</ele>
        <time>2022-05-27T13:20:59.000Z</time>
      </trkpt>
      <trkpt lat="44.86973" lon="5.52663">
        <ele>2323.6000976562</ele>
        <time>2022-05-27T13:21:21.000Z</time>
      </trkpt>
      <trkpt lat="44.86973" lon="5.52663">
        <ele>2323.6000976562</ele>
        <time>2022-05-27T13:21:30.000Z</time>
      </trkpt>
      <trkpt lat="44.86973" lon="5.52663">
        <ele>2323.6000976562</ele>
        <time>2022-05-27T13:21:32.000Z</time>
      </trkpt>
      <trkpt lat="44.86973" lon="5.52663">
        <ele>2323.6000976562</ele>
        <time>2022-05-27T13:21:37.000Z</time>
      </trkpt>
      <trkpt lat="44.86972" lon="5.52661">
        <ele>2323.8000488281</ele>
        <time>2022-05-27T13:22:09.000Z</time>
      </trkpt>
      <trkpt lat="44.8697" lon="5.52658">
        <ele>2324</ele>
        <time>2022-05-27T13:22:30.000Z</time>
      </trkpt>
      <trkpt lat="44.8697" lon="5.52658">
        <ele>2324</ele>
        <time>2022-05-27T13:22:31.000Z</time>
      </trkpt>
      <trkpt lat="44.8697" lon="5.52657">
        <ele>2324.1999511719</ele>
        <time>2022-05-27T13:22:38.000Z</time>
      </trkpt>
      <trkpt lat="44.8697" lon="5.52657">
        <ele>2324.1999511719</ele>
        <time>2022-05-27T13:22:40.000Z</time>
      </trkpt>
      <trkpt lat="44.8697" lon="5.52657">
        <ele>2324</ele>
        <time>2022-05-27T13:22:53.000Z</time>
      </trkpt>
      <trkpt lat="44.8697" lon="5.52657">
        <ele>2324.1999511719</ele>
        <time>2022-05-27T13:22:56.000Z</time>
      </trkpt>
      <trkpt lat="44.8697" lon="5.52657">
        <ele>2324.1999511719</ele>
        <time>2022-05-27T13:22:59.000Z</time>
      </trkpt>
      <trkpt lat="44.86972" lon="5.52653">
        <ele>2324.8000488281</ele>
        <time>2022-05-27T13:23:07.000Z</time>
      </trkpt>
      <trkpt lat="44.86972" lon="5.52651">
        <ele>2325</ele>
        <time>2022-05-27T13:23:08.000Z</time>
      </trkpt>
      <trkpt lat="44.86969" lon="5.52647">
        <ele>2325.1999511719</ele>
        <time>2022-05-27T13:23:13.000Z</time>
      </trkpt>
      <trkpt lat="44.86968" lon="5.52645">
        <ele>2325.3999023438</ele>
        <time>2022-05-27T13:23:15.000Z</time>
      </trkpt>
      <trkpt lat="44.86966" lon="5.52643">
        <ele>2325.3999023438</ele>
        <time>2022-05-27T13:23:17.000Z</time>
      </trkpt>
      <trkpt lat="44.86965" lon="5.52642">
        <ele>2325.6000976562</ele>
        <time>2022-05-27T13:23:18.000Z</time>
      </trkpt>
      <trkpt lat="44.86964" lon="5.52641">
        <ele>2325.6000976562</ele>
        <time>2022-05-27T13:23:19.000Z</time>
      </trkpt>
      <trkpt lat="44.86963" lon="5.52639">
        <ele>2325.6000976562</ele>
        <time>2022-05-27T13:23:20.000Z</time>
      </trkpt>
      <trkpt lat="44.8696" lon="5.52635">
        <ele>2325</ele>
        <time>2022-05-27T13:23:25.000Z</time>
      </trkpt>
      <trkpt lat="44.86959" lon="5.52635">
        <ele>2325</ele>
        <time>2022-05-27T13:23:26.000Z</time>
      </trkpt>
      <trkpt lat="44.86955" lon="5.52631">
        <ele>2324.3999023438</ele>
        <time>2022-05-27T13:23:31.000Z</time>
      </trkpt>
      <trkpt lat="44.86931" lon="5.52604">
        <ele>2317</ele>
        <time>2022-05-27T13:24:04.000Z</time>
      </trkpt>
      <trkpt lat="44.86929" lon="5.52602">
        <ele>2316.1999511719</ele>
        <time>2022-05-27T13:24:06.000Z</time>
      </trkpt>
      <trkpt lat="44.86929" lon="5.52601">
        <ele>2316</ele>
        <time>2022-05-27T13:24:07.000Z</time>
      </trkpt>
      <trkpt lat="44.86928" lon="5.526">
        <ele>2315.8000488281</ele>
        <time>2022-05-27T13:24:08.000Z</time>
      </trkpt>
      <trkpt lat="44.86928" lon="5.526">
        <ele>2315.6000976562</ele>
        <time>2022-05-27T13:24:09.000Z</time>
      </trkpt>
      <trkpt lat="44.86927" lon="5.52598">
        <ele>2315.1999511719</ele>
        <time>2022-05-27T13:24:12.000Z</time>
      </trkpt>
      <trkpt lat="44.86927" lon="5.52598">
        <ele>2315</ele>
        <time>2022-05-27T13:24:14.000Z</time>
      </trkpt>
      <trkpt lat="44.86927" lon="5.52597">
        <ele>2315</ele>
        <time>2022-05-27T13:24:15.000Z</time>
      </trkpt>
      <trkpt lat="44.86927" lon="5.52597">
        <ele>2314.8000488281</ele>
        <time>2022-05-27T13:24:18.000Z</time>
      </trkpt>
      <trkpt lat="44.86927" lon="5.52597">
        <ele>2314.8000488281</ele>
        <time>2022-05-27T13:24:19.000Z</time>
      </trkpt>
      <trkpt lat="44.86926" lon="5.52598">
        <ele>2315</ele>
        <time>2022-05-27T13:24:20.000Z</time>
      </trkpt>
      <trkpt lat="44.86923" lon="5.52601">
        <ele>2315</ele>
        <time>2022-05-27T13:24:25.000Z</time>
      </trkpt>
      <trkpt lat="44.86922" lon="5.52603">
        <ele>2315.1999511719</ele>
        <time>2022-05-27T13:24:29.000Z</time>
      </trkpt>
      <trkpt lat="44.86921" lon="5.52606">
        <ele>2315.8000488281</ele>
        <time>2022-05-27T13:24:32.000Z</time>
      </trkpt>
      <trkpt lat="44.8692" lon="5.5261">
        <ele>2315.1999511719</ele>
        <time>2022-05-27T13:24:36.000Z</time>
      </trkpt>
      <trkpt lat="44.86919" lon="5.52611">
        <ele>2315</ele>
        <time>2022-05-27T13:24:46.000Z</time>
      </trkpt>
      <trkpt lat="44.8692" lon="5.52611">
        <ele>2315.1999511719</ele>
        <time>2022-05-27T13:24:50.000Z</time>
      </trkpt>
      <trkpt lat="44.8692" lon="5.52611">
        <ele>2315.1999511719</ele>
        <time>2022-05-27T13:24:54.000Z</time>
      </trkpt>
      <trkpt lat="44.8692" lon="5.52611">
        <ele>2315.1999511719</ele>
        <time>2022-05-27T13:24:59.000Z</time>
      </trkpt>
      <trkpt lat="44.8692" lon="5.5261">
        <ele>2315.1999511719</ele>
        <time>2022-05-27T13:25:03.000Z</time>
      </trkpt>
      <trkpt lat="44.86921" lon="5.52608">
        <ele>2315.6000976562</ele>
        <time>2022-05-27T13:25:06.000Z</time>
      </trkpt>
      <trkpt lat="44.86921" lon="5.52604">
        <ele>2315.1999511719</ele>
        <time>2022-05-27T13:25:10.000Z</time>
      </trkpt>
      <trkpt lat="44.86921" lon="5.52602">
        <ele>2314.6000976562</ele>
        <time>2022-05-27T13:25:14.000Z</time>
      </trkpt>
      <trkpt lat="44.86919" lon="5.52597">
        <ele>2313.3999023438</ele>
        <time>2022-05-27T13:25:18.000Z</time>
      </trkpt>
      <trkpt lat="44.8692" lon="5.52592">
        <ele>2312.3999023438</ele>
        <time>2022-05-27T13:25:21.000Z</time>
      </trkpt>
      <trkpt lat="44.86919" lon="5.52586">
        <ele>2311</ele>
        <time>2022-05-27T13:25:25.000Z</time>
      </trkpt>
      <trkpt lat="44.86917" lon="5.52579">
        <ele>2309.3999023438</ele>
        <time>2022-05-27T13:25:31.000Z</time>
      </trkpt>
      <trkpt lat="44.86911" lon="5.52559">
        <ele>2303.8000488281</ele>
        <time>2022-05-27T13:25:55.000Z</time>
      </trkpt>
      <trkpt lat="44.86912" lon="5.52557">
        <ele>2303.3999023438</ele>
        <time>2022-05-27T13:25:57.000Z</time>
      </trkpt>
      <trkpt lat="44.86918" lon="5.52551">
        <ele>2302.6000976562</ele>
        <time>2022-05-27T13:26:03.000Z</time>
      </trkpt>
      <trkpt lat="44.8693" lon="5.52542">
        <ele>2301</ele>
        <time>2022-05-27T13:26:16.000Z</time>
      </trkpt>
      <trkpt lat="44.86927" lon="5.52536">
        <ele>2298.6000976562</ele>
        <time>2022-05-27T13:26:23.000Z</time>
      </trkpt>
      <trkpt lat="44.86916" lon="5.52526">
        <ele>2294.8000488281</ele>
        <time>2022-05-27T13:26:34.000Z</time>
      </trkpt>
      <trkpt lat="44.86916" lon="5.52526">
        <ele>2294.6000976562</ele>
        <time>2022-05-27T13:26:35.000Z</time>
      </trkpt>
      <trkpt lat="44.86913" lon="5.52524">
        <ele>2294</ele>
        <time>2022-05-27T13:26:38.000Z</time>
      </trkpt>
      <trkpt lat="44.86912" lon="5.52524">
        <ele>2293.8000488281</ele>
        <time>2022-05-27T13:26:39.000Z</time>
      </trkpt>
      <trkpt lat="44.86911" lon="5.52523">
        <ele>2293.6000976562</ele>
        <time>2022-05-27T13:26:40.000Z</time>
      </trkpt>
      <trkpt lat="44.86909" lon="5.52521">
        <ele>2293</ele>
        <time>2022-05-27T13:26:42.000Z</time>
      </trkpt>
      <trkpt lat="44.86897" lon="5.52513">
        <ele>2289.6000976562</ele>
        <time>2022-05-27T13:26:55.000Z</time>
      </trkpt>
      <trkpt lat="44.8689" lon="5.52508">
        <ele>2287</ele>
        <time>2022-05-27T13:27:02.000Z</time>
      </trkpt>
      <trkpt lat="44.86882" lon="5.52502">
        <ele>2284</ele>
        <time>2022-05-27T13:27:10.000Z</time>
      </trkpt>
      <trkpt lat="44.86837" lon="5.52496">
        <ele>2281</ele>
        <time>2022-05-27T13:27:45.000Z</time>
      </trkpt>
      <trkpt lat="44.86809" lon="5.52492">
        <ele>2279</ele>
        <time>2022-05-27T13:28:08.000Z</time>
      </trkpt>
      <trkpt lat="44.86795" lon="5.52491">
        <ele>2277.1999511719</ele>
        <time>2022-05-27T13:28:23.000Z</time>
      </trkpt>
      <trkpt lat="44.86795" lon="5.52492">
        <ele>2277.3999023438</ele>
        <time>2022-05-27T13:28:28.000Z</time>
      </trkpt>
      <trkpt lat="44.86793" lon="5.52493">
        <ele>2277.6000976562</ele>
        <time>2022-05-27T13:28:33.000Z</time>
      </trkpt>
      <trkpt lat="44.86792" lon="5.52495">
        <ele>2277.8000488281</ele>
        <time>2022-05-27T13:28:37.000Z</time>
      </trkpt>
      <trkpt lat="44.86792" lon="5.52495">
        <ele>2277.8000488281</ele>
        <time>2022-05-27T13:28:38.000Z</time>
      </trkpt>
      <trkpt lat="44.86792" lon="5.52495">
        <ele>2277.8000488281</ele>
        <time>2022-05-27T13:28:39.000Z</time>
      </trkpt>
      <trkpt lat="44.86792" lon="5.52495">
        <ele>2277.8000488281</ele>
        <time>2022-05-27T13:28:40.000Z</time>
      </trkpt>
      <trkpt lat="44.86792" lon="5.52495">
        <ele>2277.8000488281</ele>
        <time>2022-05-27T13:28:44.000Z</time>
      </trkpt>
      <trkpt lat="44.86791" lon="5.52496">
        <ele>2278.1999511719</ele>
        <time>2022-05-27T13:28:53.000Z</time>
      </trkpt>
      <trkpt lat="44.86791" lon="5.52497">
        <ele>2278.3999023438</ele>
        <time>2022-05-27T13:28:59.000Z</time>
      </trkpt>
      <trkpt lat="44.86791" lon="5.52497">
        <ele>2278.3999023438</ele>
        <time>2022-05-27T13:29:04.000Z</time>
      </trkpt>
      <trkpt lat="44.86791" lon="5.52497">
        <ele>2278.3999023438</ele>
        <time>2022-05-27T13:29:09.000Z</time>
      </trkpt>
      <trkpt lat="44.86791" lon="5.52497">
        <ele>2278.1999511719</ele>
        <time>2022-05-27T13:29:13.000Z</time>
      </trkpt>
      <trkpt lat="44.86792" lon="5.52497">
        <ele>2278.6000976562</ele>
        <time>2022-05-27T13:29:18.000Z</time>
      </trkpt>
      <trkpt lat="44.86793" lon="5.52496">
        <ele>2278.3999023438</ele>
        <time>2022-05-27T13:29:23.000Z</time>
      </trkpt>
      <trkpt lat="44.86793" lon="5.52495">
        <ele>2278.1999511719</ele>
        <time>2022-05-27T13:29:34.000Z</time>
      </trkpt>
      <trkpt lat="44.86793" lon="5.52495">
        <ele>2278.1999511719</ele>
        <time>2022-05-27T13:29:38.000Z</time>
      </trkpt>
      <trkpt lat="44.86793" lon="5.52495">
        <ele>2278.1999511719</ele>
        <time>2022-05-27T13:29:41.000Z</time>
      </trkpt>
      <trkpt lat="44.86793" lon="5.52495">
        <ele>2278</ele>
        <time>2022-05-27T13:29:46.000Z</time>
      </trkpt>
      <trkpt lat="44.86789" lon="5.52498">
        <ele>2278.3999023438</ele>
        <time>2022-05-27T13:29:54.000Z</time>
      </trkpt>
      <trkpt lat="44.86785" lon="5.52496">
        <ele>2277.3999023438</ele>
        <time>2022-05-27T13:29:59.000Z</time>
      </trkpt>
      <trkpt lat="44.86784" lon="5.52496">
        <ele>2277</ele>
        <time>2022-05-27T13:30:00.000Z</time>
      </trkpt>
      <trkpt lat="44.86781" lon="5.52494">
        <ele>2276.3999023438</ele>
        <time>2022-05-27T13:30:04.000Z</time>
      </trkpt>
      <trkpt lat="44.86775" lon="5.52493">
        <ele>2274.6000976562</ele>
        <time>2022-05-27T13:30:10.000Z</time>
      </trkpt>
      <trkpt lat="44.86772" lon="5.52492">
        <ele>2273.8000488281</ele>
        <time>2022-05-27T13:30:13.000Z</time>
      </trkpt>
      <trkpt lat="44.86771" lon="5.52492">
        <ele>2273.6000976562</ele>
        <time>2022-05-27T13:30:14.000Z</time>
      </trkpt>
      <trkpt lat="44.8677" lon="5.52493">
        <ele>2273.1999511719</ele>
        <time>2022-05-27T13:30:16.000Z</time>
      </trkpt>
      <trkpt lat="44.86769" lon="5.52492">
        <ele>2273</ele>
        <time>2022-05-27T13:30:17.000Z</time>
      </trkpt>
      <trkpt lat="44.86768" lon="5.52492">
        <ele>2272.8000488281</ele>
        <time>2022-05-27T13:30:18.000Z</time>
      </trkpt>
      <trkpt lat="44.86767" lon="5.52491">
        <ele>2272.3999023438</ele>
        <time>2022-05-27T13:30:19.000Z</time>
      </trkpt>
      <trkpt lat="44.86767" lon="5.52491">
        <ele>2272.1999511719</ele>
        <time>2022-05-27T13:30:20.000Z</time>
      </trkpt>
      <trkpt lat="44.86766" lon="5.52491">
        <ele>2272</ele>
        <time>2022-05-27T13:30:21.000Z</time>
      </trkpt>
      <trkpt lat="44.86761" lon="5.52487">
        <ele>2270.1999511719</ele>
        <time>2022-05-27T13:30:26.000Z</time>
      </trkpt>
      <trkpt lat="44.86758" lon="5.52484">
        <ele>2269.1999511719</ele>
        <time>2022-05-27T13:30:30.000Z</time>
      </trkpt>
      <trkpt lat="44.86756" lon="5.52483">
        <ele>2268.8000488281</ele>
        <time>2022-05-27T13:30:32.000Z</time>
      </trkpt>
      <trkpt lat="44.86749" lon="5.52477">
        <ele>2266.3999023438</ele>
        <time>2022-05-27T13:30:41.000Z</time>
      </trkpt>
      <trkpt lat="44.86729" lon="5.52471">
        <ele>2262.8000488281</ele>
        <time>2022-05-27T13:31:02.000Z</time>
      </trkpt>
      <trkpt lat="44.8671" lon="5.52455">
        <ele>2261.8000488281</ele>
        <time>2022-05-27T13:31:46.000Z</time>
      </trkpt>
      <trkpt lat="44.86706" lon="5.52448">
        <ele>2261.1999511719</ele>
        <time>2022-05-27T13:32:15.000Z</time>
      </trkpt>
      <trkpt lat="44.86701" lon="5.52445">
        <ele>2261.3999023438</ele>
        <time>2022-05-27T13:32:33.000Z</time>
      </trkpt>
      <trkpt lat="44.86698" lon="5.52444">
        <ele>2261.6000976562</ele>
        <time>2022-05-27T13:32:38.000Z</time>
      </trkpt>
      <trkpt lat="44.86694" lon="5.52442">
        <ele>2261.6000976562</ele>
        <time>2022-05-27T13:32:42.000Z</time>
      </trkpt>
      <trkpt lat="44.86686" lon="5.52439">
        <ele>2262</ele>
        <time>2022-05-27T13:32:49.000Z</time>
      </trkpt>
      <trkpt lat="44.86685" lon="5.52439">
        <ele>2262</ele>
        <time>2022-05-27T13:32:50.000Z</time>
      </trkpt>
      <trkpt lat="44.86678" lon="5.52437">
        <ele>2262.6000976562</ele>
        <time>2022-05-27T13:32:57.000Z</time>
      </trkpt>
      <trkpt lat="44.86676" lon="5.52437">
        <ele>2262.6000976562</ele>
        <time>2022-05-27T13:32:58.000Z</time>
      </trkpt>
      <trkpt lat="44.86675" lon="5.52437">
        <ele>2262.6000976562</ele>
        <time>2022-05-27T13:32:59.000Z</time>
      </trkpt>
      <trkpt lat="44.86668" lon="5.52433">
        <ele>2261.3999023438</ele>
        <time>2022-05-27T13:33:06.000Z</time>
      </trkpt>
      <trkpt lat="44.86666" lon="5.52432">
        <ele>2261.1999511719</ele>
        <time>2022-05-27T13:33:07.000Z</time>
      </trkpt>
      <trkpt lat="44.86666" lon="5.52432">
        <ele>2261.1999511719</ele>
        <time>2022-05-27T13:33:08.000Z</time>
      </trkpt>
      <trkpt lat="44.86663" lon="5.52432">
        <ele>2261.1999511719</ele>
        <time>2022-05-27T13:33:11.000Z</time>
      </trkpt>
      <trkpt lat="44.86661" lon="5.52432">
        <ele>2261</ele>
        <time>2022-05-27T13:33:12.000Z</time>
      </trkpt>
      <trkpt lat="44.8666" lon="5.52432">
        <ele>2261</ele>
        <time>2022-05-27T13:33:13.000Z</time>
      </trkpt>
      <trkpt lat="44.86638" lon="5.52423">
        <ele>2256.1999511719</ele>
        <time>2022-05-27T13:33:50.000Z</time>
      </trkpt>
      <trkpt lat="44.86631" lon="5.52422">
        <ele>2254.8000488281</ele>
        <time>2022-05-27T13:33:59.000Z</time>
      </trkpt>
      <trkpt lat="44.86626" lon="5.52419">
        <ele>2253.1999511719</ele>
        <time>2022-05-27T13:34:38.000Z</time>
      </trkpt>
      <trkpt lat="44.86623" lon="5.52418">
        <ele>2252.3999023438</ele>
        <time>2022-05-27T13:34:42.000Z</time>
      </trkpt>
      <trkpt lat="44.86618" lon="5.52416">
        <ele>2251</ele>
        <time>2022-05-27T13:34:46.000Z</time>
      </trkpt>
      <trkpt lat="44.86616" lon="5.52415">
        <ele>2250.1999511719</ele>
        <time>2022-05-27T13:34:48.000Z</time>
      </trkpt>
      <trkpt lat="44.86599" lon="5.52408">
        <ele>2244.1999511719</ele>
        <time>2022-05-27T13:35:05.000Z</time>
      </trkpt>
      <trkpt lat="44.86588" lon="5.52405">
        <ele>2240.3999023438</ele>
        <time>2022-05-27T13:35:19.000Z</time>
      </trkpt>
      <trkpt lat="44.86564" lon="5.52388">
        <ele>2230</ele>
        <time>2022-05-27T13:36:08.000Z</time>
      </trkpt>
      <trkpt lat="44.86564" lon="5.52388">
        <ele>2230</ele>
        <time>2022-05-27T13:36:19.000Z</time>
      </trkpt>
      <trkpt lat="44.8656" lon="5.52386">
        <ele>2228.6000976562</ele>
        <time>2022-05-27T13:36:29.000Z</time>
      </trkpt>
      <trkpt lat="44.86557" lon="5.52385">
        <ele>2227.1999511719</ele>
        <time>2022-05-27T13:36:34.000Z</time>
      </trkpt>
      <trkpt lat="44.86551" lon="5.52383">
        <ele>2225.1999511719</ele>
        <time>2022-05-27T13:36:41.000Z</time>
      </trkpt>
      <trkpt lat="44.86549" lon="5.52383">
        <ele>2224.6000976562</ele>
        <time>2022-05-27T13:36:43.000Z</time>
      </trkpt>
      <trkpt lat="44.86548" lon="5.52382">
        <ele>2224.1999511719</ele>
        <time>2022-05-27T13:36:44.000Z</time>
      </trkpt>
      <trkpt lat="44.86547" lon="5.52382">
        <ele>2223.8000488281</ele>
        <time>2022-05-27T13:36:45.000Z</time>
      </trkpt>
      <trkpt lat="44.86545" lon="5.52381">
        <ele>2223</ele>
        <time>2022-05-27T13:36:48.000Z</time>
      </trkpt>
      <trkpt lat="44.86543" lon="5.52379">
        <ele>2221.8000488281</ele>
        <time>2022-05-27T13:36:51.000Z</time>
      </trkpt>
      <trkpt lat="44.86542" lon="5.52379">
        <ele>2221.6000976562</ele>
        <time>2022-05-27T13:36:52.000Z</time>
      </trkpt>
      <trkpt lat="44.86542" lon="5.52378">
        <ele>2221.1999511719</ele>
        <time>2022-05-27T13:36:53.000Z</time>
      </trkpt>
      <trkpt lat="44.86539" lon="5.52375">
        <ele>2219.3999023438</ele>
        <time>2022-05-27T13:36:59.000Z</time>
      </trkpt>
      <trkpt lat="44.86536" lon="5.52372">
        <ele>2218</ele>
        <time>2022-05-27T13:37:03.000Z</time>
      </trkpt>
      <trkpt lat="44.86534" lon="5.52371">
        <ele>2217.1999511719</ele>
        <time>2022-05-27T13:37:06.000Z</time>
      </trkpt>
      <trkpt lat="44.86521" lon="5.5236">
        <ele>2211.6000976562</ele>
        <time>2022-05-27T13:37:41.000Z</time>
      </trkpt>
      <trkpt lat="44.86515" lon="5.52363">
        <ele>2211.1999511719</ele>
        <time>2022-05-27T13:37:47.000Z</time>
      </trkpt>
      <trkpt lat="44.86511" lon="5.5236">
        <ele>2209.3999023438</ele>
        <time>2022-05-27T13:38:10.000Z</time>
      </trkpt>
      <trkpt lat="44.865" lon="5.52355">
        <ele>2205.3999023438</ele>
        <time>2022-05-27T13:38:25.000Z</time>
      </trkpt>
      <trkpt lat="44.86486" lon="5.52347">
        <ele>2199.3999023438</ele>
        <time>2022-05-27T13:38:56.000Z</time>
      </trkpt>
      <trkpt lat="44.86481" lon="5.52346">
        <ele>2198.1999511719</ele>
        <time>2022-05-27T13:39:04.000Z</time>
      </trkpt>
      <trkpt lat="44.86473" lon="5.52339">
        <ele>2194</ele>
        <time>2022-05-27T13:39:32.000Z</time>
      </trkpt>
      <trkpt lat="44.86447" lon="5.52319">
        <ele>2180.1999511719</ele>
        <time>2022-05-27T13:41:14.000Z</time>
      </trkpt>
      <trkpt lat="44.86444" lon="5.52319">
        <ele>2179.3999023438</ele>
        <time>2022-05-27T13:41:24.000Z</time>
      </trkpt>
      <trkpt lat="44.86445" lon="5.5232">
        <ele>2180</ele>
        <time>2022-05-27T13:41:42.000Z</time>
      </trkpt>
      <trkpt lat="44.86445" lon="5.5232">
        <ele>2180</ele>
        <time>2022-05-27T13:41:51.000Z</time>
      </trkpt>
      <trkpt lat="44.86443" lon="5.5232">
        <ele>2179.1999511719</ele>
        <time>2022-05-27T13:41:59.000Z</time>
      </trkpt>
      <trkpt lat="44.86439" lon="5.52322">
        <ele>2178.8000488281</ele>
        <time>2022-05-27T13:42:07.000Z</time>
      </trkpt>
      <trkpt lat="44.86432" lon="5.52325">
        <ele>2178.8000488281</ele>
        <time>2022-05-27T13:42:20.000Z</time>
      </trkpt>
      <trkpt lat="44.86427" lon="5.52325">
        <ele>2177.6000976562</ele>
        <time>2022-05-27T13:42:24.000Z</time>
      </trkpt>
      <trkpt lat="44.86426" lon="5.52324">
        <ele>2177.3999023438</ele>
        <time>2022-05-27T13:42:25.000Z</time>
      </trkpt>
      <trkpt lat="44.86425" lon="5.52324">
        <ele>2177.3999023438</ele>
        <time>2022-05-27T13:42:26.000Z</time>
      </trkpt>
      <trkpt lat="44.86422" lon="5.52324">
        <ele>2177.3999023438</ele>
        <time>2022-05-27T13:42:29.000Z</time>
      </trkpt>
      <trkpt lat="44.86422" lon="5.52325">
        <ele>2177.6000976562</ele>
        <time>2022-05-27T13:42:30.000Z</time>
      </trkpt>
      <trkpt lat="44.8642" lon="5.52325">
        <ele>2177.6000976562</ele>
        <time>2022-05-27T13:42:31.000Z</time>
      </trkpt>
      <trkpt lat="44.86419" lon="5.52325">
        <ele>2177.8000488281</ele>
        <time>2022-05-27T13:42:33.000Z</time>
      </trkpt>
      <trkpt lat="44.86419" lon="5.52326">
        <ele>2178.1999511719</ele>
        <time>2022-05-27T13:42:34.000Z</time>
      </trkpt>
      <trkpt lat="44.86418" lon="5.52326">
        <ele>2178.1999511719</ele>
        <time>2022-05-27T13:42:35.000Z</time>
      </trkpt>
      <trkpt lat="44.86419" lon="5.52328">
        <ele>2178.6000976562</ele>
        <time>2022-05-27T13:42:38.000Z</time>
      </trkpt>
      <trkpt lat="44.86419" lon="5.52329">
        <ele>2179.1999511719</ele>
        <time>2022-05-27T13:42:42.000Z</time>
      </trkpt>
      <trkpt lat="44.8642" lon="5.52329">
        <ele>2179.1999511719</ele>
        <time>2022-05-27T13:42:46.000Z</time>
      </trkpt>
      <trkpt lat="44.8642" lon="5.52329">
        <ele>2179.1999511719</ele>
        <time>2022-05-27T13:42:47.000Z</time>
      </trkpt>
      <trkpt lat="44.8642" lon="5.52329">
        <ele>2179.1999511719</ele>
        <time>2022-05-27T13:42:48.000Z</time>
      </trkpt>
      <trkpt lat="44.8642" lon="5.52329">
        <ele>2179.1999511719</ele>
        <time>2022-05-27T13:42:49.000Z</time>
      </trkpt>
      <trkpt lat="44.8642" lon="5.52329">
        <ele>2179.3999023438</ele>
        <time>2022-05-27T13:42:52.000Z</time>
      </trkpt>
      <trkpt lat="44.86421" lon="5.5233">
        <ele>2179.6000976562</ele>
        <time>2022-05-27T13:42:53.000Z</time>
      </trkpt>
      <trkpt lat="44.86405" lon="5.52316">
        <ele>2172.8000488281</ele>
        <time>2022-05-27T13:43:31.000Z</time>
      </trkpt>
      <trkpt lat="44.86404" lon="5.52316">
        <ele>2172.3999023438</ele>
        <time>2022-05-27T13:43:32.000Z</time>
      </trkpt>
      <trkpt lat="44.86404" lon="5.52316">
        <ele>2172.1999511719</ele>
        <time>2022-05-27T13:43:33.000Z</time>
      </trkpt>
      <trkpt lat="44.86401" lon="5.52316">
        <ele>2171.6000976562</ele>
        <time>2022-05-27T13:43:36.000Z</time>
      </trkpt>
      <trkpt lat="44.86398" lon="5.52316">
        <ele>2171</ele>
        <time>2022-05-27T13:43:39.000Z</time>
      </trkpt>
      <trkpt lat="44.86396" lon="5.52315">
        <ele>2170.1999511719</ele>
        <time>2022-05-27T13:43:42.000Z</time>
      </trkpt>
      <trkpt lat="44.86394" lon="5.52313">
        <ele>2169.3999023438</ele>
        <time>2022-05-27T13:43:44.000Z</time>
      </trkpt>
      <trkpt lat="44.86391" lon="5.5231">
        <ele>2168.1999511719</ele>
        <time>2022-05-27T13:43:47.000Z</time>
      </trkpt>
      <trkpt lat="44.86387" lon="5.52307">
        <ele>2166.6000976562</ele>
        <time>2022-05-27T13:43:53.000Z</time>
      </trkpt>
      <trkpt lat="44.86382" lon="5.52306">
        <ele>2165.3999023438</ele>
        <time>2022-05-27T13:43:58.000Z</time>
      </trkpt>
      <trkpt lat="44.86374" lon="5.52308">
        <ele>2164</ele>
        <time>2022-05-27T13:44:53.000Z</time>
      </trkpt>
      <trkpt lat="44.86373" lon="5.52308">
        <ele>2163.8000488281</ele>
        <time>2022-05-27T13:45:01.000Z</time>
      </trkpt>
      <trkpt lat="44.86373" lon="5.52307">
        <ele>2163.6000976562</ele>
        <time>2022-05-27T13:45:10.000Z</time>
      </trkpt>
      <trkpt lat="44.86373" lon="5.52308">
        <ele>2163.8000488281</ele>
        <time>2022-05-27T13:45:18.000Z</time>
      </trkpt>
      <trkpt lat="44.86373" lon="5.52307">
        <ele>2163.6000976562</ele>
        <time>2022-05-27T13:45:26.000Z</time>
      </trkpt>
      <trkpt lat="44.86364" lon="5.52294">
        <ele>2155.8000488281</ele>
        <time>2022-05-27T13:45:49.000Z</time>
      </trkpt>
      <trkpt lat="44.86364" lon="5.52293">
        <ele>2155.1999511719</ele>
        <time>2022-05-27T13:45:50.000Z</time>
      </trkpt>
      <trkpt lat="44.86362" lon="5.52292">
        <ele>2154.6000976562</ele>
        <time>2022-05-27T13:45:53.000Z</time>
      </trkpt>
      <trkpt lat="44.86359" lon="5.5229">
        <ele>2153.1999511719</ele>
        <time>2022-05-27T13:45:56.000Z</time>
      </trkpt>
      <trkpt lat="44.86352" lon="5.52286">
        <ele>2149.8000488281</ele>
        <time>2022-05-27T13:46:05.000Z</time>
      </trkpt>
      <trkpt lat="44.86351" lon="5.52285">
        <ele>2149.3999023438</ele>
        <time>2022-05-27T13:46:06.000Z</time>
      </trkpt>
      <trkpt lat="44.86349" lon="5.52284">
        <ele>2148.3999023438</ele>
        <time>2022-05-27T13:46:09.000Z</time>
      </trkpt>
      <trkpt lat="44.86348" lon="5.52283">
        <ele>2148</ele>
        <time>2022-05-27T13:46:10.000Z</time>
      </trkpt>
      <trkpt lat="44.86347" lon="5.52283">
        <ele>2147.6000976562</ele>
        <time>2022-05-27T13:46:11.000Z</time>
      </trkpt>
      <trkpt lat="44.86347" lon="5.52282">
        <ele>2147.3999023438</ele>
        <time>2022-05-27T13:46:12.000Z</time>
      </trkpt>
      <trkpt lat="44.86346" lon="5.52282">
        <ele>2147</ele>
        <time>2022-05-27T13:46:13.000Z</time>
      </trkpt>
      <trkpt lat="44.86346" lon="5.52282">
        <ele>2146.8000488281</ele>
        <time>2022-05-27T13:46:14.000Z</time>
      </trkpt>
      <trkpt lat="44.86344" lon="5.52281">
        <ele>2145.8000488281</ele>
        <time>2022-05-27T13:46:18.000Z</time>
      </trkpt>
      <trkpt lat="44.8634" lon="5.52278">
        <ele>2144.6000976562</ele>
        <time>2022-05-27T13:46:22.000Z</time>
      </trkpt>
      <trkpt lat="44.86339" lon="5.52278">
        <ele>2144.3999023438</ele>
        <time>2022-05-27T13:46:23.000Z</time>
      </trkpt>
      <trkpt lat="44.86338" lon="5.52278">
        <ele>2144.1999511719</ele>
        <time>2022-05-27T13:46:24.000Z</time>
      </trkpt>
      <trkpt lat="44.86337" lon="5.52277">
        <ele>2144</ele>
        <time>2022-05-27T13:46:25.000Z</time>
      </trkpt>
      <trkpt lat="44.86328" lon="5.52271">
        <ele>2141.3999023438</ele>
        <time>2022-05-27T13:46:39.000Z</time>
      </trkpt>
      <trkpt lat="44.86314" lon="5.52266">
        <ele>2138.6000976562</ele>
        <time>2022-05-27T13:46:59.000Z</time>
      </trkpt>
      <trkpt lat="44.86312" lon="5.52267">
        <ele>2139</ele>
        <time>2022-05-27T13:47:07.000Z</time>
      </trkpt>
      <trkpt lat="44.86313" lon="5.52268">
        <ele>2139.1999511719</ele>
        <time>2022-05-27T13:47:23.000Z</time>
      </trkpt>
      <trkpt lat="44.86313" lon="5.52269">
        <ele>2139.3999023438</ele>
        <time>2022-05-27T13:47:28.000Z</time>
      </trkpt>
      <trkpt lat="44.86313" lon="5.52269">
        <ele>2139.3999023438</ele>
        <time>2022-05-27T13:47:31.000Z</time>
      </trkpt>
      <trkpt lat="44.86313" lon="5.52269">
        <ele>2139.3999023438</ele>
        <time>2022-05-27T13:47:35.000Z</time>
      </trkpt>
      <trkpt lat="44.86313" lon="5.52269">
        <ele>2139.3999023438</ele>
        <time>2022-05-27T13:47:41.000Z</time>
      </trkpt>
      <trkpt lat="44.86314" lon="5.52269">
        <ele>2139.3999023438</ele>
        <time>2022-05-27T13:47:47.000Z</time>
      </trkpt>
      <trkpt lat="44.86313" lon="5.52269">
        <ele>2139.6000976562</ele>
        <time>2022-05-27T13:47:56.000Z</time>
      </trkpt>
      <trkpt lat="44.86313" lon="5.52269">
        <ele>2139.6000976562</ele>
        <time>2022-05-27T13:48:03.000Z</time>
      </trkpt>
      <trkpt lat="44.86313" lon="5.5227">
        <ele>2139.6000976562</ele>
        <time>2022-05-27T13:48:11.000Z</time>
      </trkpt>
      <trkpt lat="44.86313" lon="5.5227">
        <ele>2139.6000976562</ele>
        <time>2022-05-27T13:48:22.000Z</time>
      </trkpt>
      <trkpt lat="44.86313" lon="5.5227">
        <ele>2139.6000976562</ele>
        <time>2022-05-27T13:48:27.000Z</time>
      </trkpt>
      <trkpt lat="44.86313" lon="5.5227">
        <ele>2139.6000976562</ele>
        <time>2022-05-27T13:48:32.000Z</time>
      </trkpt>
      <trkpt lat="44.86314" lon="5.5227">
        <ele>2139.6000976562</ele>
        <time>2022-05-27T13:48:42.000Z</time>
      </trkpt>
      <trkpt lat="44.86314" lon="5.52269">
        <ele>2139.6000976562</ele>
        <time>2022-05-27T13:48:48.000Z</time>
      </trkpt>
      <trkpt lat="44.86314" lon="5.52269">
        <ele>2139.3999023438</ele>
        <time>2022-05-27T13:48:55.000Z</time>
      </trkpt>
      <trkpt lat="44.86314" lon="5.52269">
        <ele>2139.6000976562</ele>
        <time>2022-05-27T13:49:07.000Z</time>
      </trkpt>
      <trkpt lat="44.86315" lon="5.5227">
        <ele>2139.8000488281</ele>
        <time>2022-05-27T13:49:16.000Z</time>
      </trkpt>
      <trkpt lat="44.86315" lon="5.5227">
        <ele>2139.8000488281</ele>
        <time>2022-05-27T13:49:33.000Z</time>
      </trkpt>
      <trkpt lat="44.86315" lon="5.5227">
        <ele>2139.8000488281</ele>
        <time>2022-05-27T13:49:46.000Z</time>
      </trkpt>
      <trkpt lat="44.86315" lon="5.5227">
        <ele>2139.8000488281</ele>
        <time>2022-05-27T13:49:53.000Z</time>
      </trkpt>
      <trkpt lat="44.86315" lon="5.5227">
        <ele>2139.8000488281</ele>
        <time>2022-05-27T13:49:56.000Z</time>
      </trkpt>
      <trkpt lat="44.86315" lon="5.52271">
        <ele>2140</ele>
        <time>2022-05-27T13:50:06.000Z</time>
      </trkpt>
      <trkpt lat="44.86315" lon="5.5227">
        <ele>2139.8000488281</ele>
        <time>2022-05-27T13:50:14.000Z</time>
      </trkpt>
      <trkpt lat="44.86314" lon="5.5227">
        <ele>2139.6000976562</ele>
        <time>2022-05-27T13:50:32.000Z</time>
      </trkpt>
      <trkpt lat="44.86314" lon="5.52271">
        <ele>2139.8000488281</ele>
        <time>2022-05-27T13:50:48.000Z</time>
      </trkpt>
      <trkpt lat="44.86314" lon="5.52271">
        <ele>2140</ele>
        <time>2022-05-27T13:50:58.000Z</time>
      </trkpt>
      <trkpt lat="44.86313" lon="5.52271">
        <ele>2140</ele>
        <time>2022-05-27T13:51:02.000Z</time>
      </trkpt>
      <trkpt lat="44.86313" lon="5.52271">
        <ele>2140</ele>
        <time>2022-05-27T13:51:06.000Z</time>
      </trkpt>
      <trkpt lat="44.86315" lon="5.52262">
        <ele>2137.8000488281</ele>
        <time>2022-05-27T13:51:38.000Z</time>
      </trkpt>
      <trkpt lat="44.86312" lon="5.5226">
        <ele>2137</ele>
        <time>2022-05-27T13:51:41.000Z</time>
      </trkpt>
      <trkpt lat="44.86311" lon="5.52259">
        <ele>2136.8000488281</ele>
        <time>2022-05-27T13:51:43.000Z</time>
      </trkpt>
      <trkpt lat="44.8631" lon="5.52258">
        <ele>2136.6000976562</ele>
        <time>2022-05-27T13:51:44.000Z</time>
      </trkpt>
      <trkpt lat="44.8631" lon="5.52258">
        <ele>2136.6000976562</ele>
        <time>2022-05-27T13:51:45.000Z</time>
      </trkpt>
      <trkpt lat="44.86308" lon="5.52257">
        <ele>2136</ele>
        <time>2022-05-27T13:51:48.000Z</time>
      </trkpt>
      <trkpt lat="44.86305" lon="5.52256">
        <ele>2135.6000976562</ele>
        <time>2022-05-27T13:52:00.000Z</time>
      </trkpt>
      <trkpt lat="44.86305" lon="5.52256">
        <ele>2135.6000976562</ele>
        <time>2022-05-27T13:52:14.000Z</time>
      </trkpt>
      <trkpt lat="44.86305" lon="5.52256">
        <ele>2135.6000976562</ele>
        <time>2022-05-27T13:52:15.000Z</time>
      </trkpt>
      <trkpt lat="44.86305" lon="5.52256">
        <ele>2135.6000976562</ele>
        <time>2022-05-27T13:52:16.000Z</time>
      </trkpt>
      <trkpt lat="44.86305" lon="5.52256">
        <ele>2135.6000976562</ele>
        <time>2022-05-27T13:52:17.000Z</time>
      </trkpt>
      <trkpt lat="44.86306" lon="5.52256">
        <ele>2135.6000976562</ele>
        <time>2022-05-27T13:52:21.000Z</time>
      </trkpt>
      <trkpt lat="44.86302" lon="5.52248">
        <ele>2133</ele>
        <time>2022-05-27T13:52:40.000Z</time>
      </trkpt>
      <trkpt lat="44.863" lon="5.52249">
        <ele>2133.3999023438</ele>
        <time>2022-05-27T13:52:46.000Z</time>
      </trkpt>
      <trkpt lat="44.86296" lon="5.52247">
        <ele>2132.3999023438</ele>
        <time>2022-05-27T13:52:58.000Z</time>
      </trkpt>
      <trkpt lat="44.86295" lon="5.52247">
        <ele>2132.1999511719</ele>
        <time>2022-05-27T13:53:01.000Z</time>
      </trkpt>
      <trkpt lat="44.86295" lon="5.52246">
        <ele>2132</ele>
        <time>2022-05-27T13:53:04.000Z</time>
      </trkpt>
      <trkpt lat="44.86294" lon="5.52246">
        <ele>2131.8000488281</ele>
        <time>2022-05-27T13:53:06.000Z</time>
      </trkpt>
      <trkpt lat="44.86292" lon="5.52247">
        <ele>2132</ele>
        <time>2022-05-27T13:53:10.000Z</time>
      </trkpt>
      <trkpt lat="44.8629" lon="5.52249">
        <ele>2132.8000488281</ele>
        <time>2022-05-27T13:53:16.000Z</time>
      </trkpt>
      <trkpt lat="44.8629" lon="5.52249">
        <ele>2132.6000976562</ele>
        <time>2022-05-27T13:53:18.000Z</time>
      </trkpt>
      <trkpt lat="44.86284" lon="5.5225">
        <ele>2131.8000488281</ele>
        <time>2022-05-27T13:53:30.000Z</time>
      </trkpt>
      <trkpt lat="44.86274" lon="5.52251">
        <ele>2130.1999511719</ele>
        <time>2022-05-27T13:53:51.000Z</time>
      </trkpt>
      <trkpt lat="44.86255" lon="5.5224">
        <ele>2120.1999511719</ele>
        <time>2022-05-27T13:54:29.000Z</time>
      </trkpt>
      <trkpt lat="44.86247" lon="5.5223">
        <ele>2112.8000488281</ele>
        <time>2022-05-27T13:54:52.000Z</time>
      </trkpt>
      <trkpt lat="44.86244" lon="5.52223">
        <ele>2108.1999511719</ele>
        <time>2022-05-27T13:55:01.000Z</time>
      </trkpt>
      <trkpt lat="44.86241" lon="5.52228">
        <ele>2109.3999023438</ele>
        <time>2022-05-27T13:55:11.000Z</time>
      </trkpt>
      <trkpt lat="44.86241" lon="5.52231">
        <ele>2110.8000488281</ele>
        <time>2022-05-27T13:55:14.000Z</time>
      </trkpt>
      <trkpt lat="44.86241" lon="5.52232">
        <ele>2111.1999511719</ele>
        <time>2022-05-27T13:55:15.000Z</time>
      </trkpt>
      <trkpt lat="44.86241" lon="5.52233">
        <ele>2111.8000488281</ele>
        <time>2022-05-27T13:55:16.000Z</time>
      </trkpt>
      <trkpt lat="44.86241" lon="5.52235">
        <ele>2112.6000976562</ele>
        <time>2022-05-27T13:55:18.000Z</time>
      </trkpt>
      <trkpt lat="44.86241" lon="5.52237">
        <ele>2113</ele>
        <time>2022-05-27T13:55:19.000Z</time>
      </trkpt>
      <trkpt lat="44.8624" lon="5.5224">
        <ele>2114.1999511719</ele>
        <time>2022-05-27T13:55:22.000Z</time>
      </trkpt>
      <trkpt lat="44.86237" lon="5.5224">
        <ele>2113</ele>
        <time>2022-05-27T13:55:29.000Z</time>
      </trkpt>
      <trkpt lat="44.86235" lon="5.52234">
        <ele>2109.6000976562</ele>
        <time>2022-05-27T13:55:35.000Z</time>
      </trkpt>
      <trkpt lat="44.86234" lon="5.5223">
        <ele>2107.3999023438</ele>
        <time>2022-05-27T13:55:38.000Z</time>
      </trkpt>
      <trkpt lat="44.86232" lon="5.52228">
        <ele>2105.8000488281</ele>
        <time>2022-05-27T13:55:40.000Z</time>
      </trkpt>
      <trkpt lat="44.86227" lon="5.52218">
        <ele>2101.1999511719</ele>
        <time>2022-05-27T13:55:52.000Z</time>
      </trkpt>
      <trkpt lat="44.8622" lon="5.52222">
        <ele>2101.1999511719</ele>
        <time>2022-05-27T13:56:11.000Z</time>
      </trkpt>
      <trkpt lat="44.86214" lon="5.52227">
        <ele>2101.6000976562</ele>
        <time>2022-05-27T13:56:37.000Z</time>
      </trkpt>
      <trkpt lat="44.86215" lon="5.52227">
        <ele>2102</ele>
        <time>2022-05-27T13:56:53.000Z</time>
      </trkpt>
      <trkpt lat="44.86215" lon="5.52228">
        <ele>2102</ele>
        <time>2022-05-27T13:57:01.000Z</time>
      </trkpt>
      <trkpt lat="44.86215" lon="5.52228">
        <ele>2102.1999511719</ele>
        <time>2022-05-27T13:57:09.000Z</time>
      </trkpt>
      <trkpt lat="44.86215" lon="5.52227">
        <ele>2102</ele>
        <time>2022-05-27T13:57:21.000Z</time>
      </trkpt>
      <trkpt lat="44.86214" lon="5.52224">
        <ele>2100.6000976562</ele>
        <time>2022-05-27T13:57:34.000Z</time>
      </trkpt>
      <trkpt lat="44.86208" lon="5.52215">
        <ele>2096.1999511719</ele>
        <time>2022-05-27T13:57:44.000Z</time>
      </trkpt>
      <trkpt lat="44.86206" lon="5.52212">
        <ele>2095</ele>
        <time>2022-05-27T13:57:47.000Z</time>
      </trkpt>
      <trkpt lat="44.86206" lon="5.52211">
        <ele>2094.3999023438</ele>
        <time>2022-05-27T13:57:48.000Z</time>
      </trkpt>
      <trkpt lat="44.86205" lon="5.5221">
        <ele>2094</ele>
        <time>2022-05-27T13:57:49.000Z</time>
      </trkpt>
      <trkpt lat="44.86204" lon="5.52207">
        <ele>2092.6000976562</ele>
        <time>2022-05-27T13:57:52.000Z</time>
      </trkpt>
      <trkpt lat="44.86204" lon="5.52206">
        <ele>2092.1999511719</ele>
        <time>2022-05-27T13:57:53.000Z</time>
      </trkpt>
      <trkpt lat="44.86203" lon="5.52205">
        <ele>2091.8000488281</ele>
        <time>2022-05-27T13:57:54.000Z</time>
      </trkpt>
      <trkpt lat="44.862" lon="5.52199">
        <ele>2089.3999023438</ele>
        <time>2022-05-27T13:58:00.000Z</time>
      </trkpt>
      <trkpt lat="44.862" lon="5.52201">
        <ele>2090</ele>
        <time>2022-05-27T13:58:03.000Z</time>
      </trkpt>
      <trkpt lat="44.862" lon="5.52202">
        <ele>2090.1999511719</ele>
        <time>2022-05-27T13:58:04.000Z</time>
      </trkpt>
      <trkpt lat="44.862" lon="5.52203">
        <ele>2090.3999023438</ele>
        <time>2022-05-27T13:58:05.000Z</time>
      </trkpt>
      <trkpt lat="44.86199" lon="5.52208">
        <ele>2091.8000488281</ele>
        <time>2022-05-27T13:58:09.000Z</time>
      </trkpt>
      <trkpt lat="44.86198" lon="5.5221">
        <ele>2092.1999511719</ele>
        <time>2022-05-27T13:58:10.000Z</time>
      </trkpt>
      <trkpt lat="44.86197" lon="5.52211">
        <ele>2092.1999511719</ele>
        <time>2022-05-27T13:58:11.000Z</time>
      </trkpt>
      <trkpt lat="44.86195" lon="5.5222">
        <ele>2093.6000976562</ele>
        <time>2022-05-27T13:58:19.000Z</time>
      </trkpt>
      <trkpt lat="44.86192" lon="5.52222">
        <ele>2092.8000488281</ele>
        <time>2022-05-27T13:58:26.000Z</time>
      </trkpt>
      <trkpt lat="44.86192" lon="5.52217">
        <ele>2091.8000488281</ele>
        <time>2022-05-27T13:58:42.000Z</time>
      </trkpt>
      <trkpt lat="44.86192" lon="5.52216">
        <ele>2092</ele>
        <time>2022-05-27T13:58:51.000Z</time>
      </trkpt>
      <trkpt lat="44.8619" lon="5.52211">
        <ele>2090.3999023438</ele>
        <time>2022-05-27T13:59:48.000Z</time>
      </trkpt>
      <trkpt lat="44.86188" lon="5.52205">
        <ele>2088</ele>
        <time>2022-05-27T13:59:53.000Z</time>
      </trkpt>
      <trkpt lat="44.86181" lon="5.52191">
        <ele>2082.1999511719</ele>
        <time>2022-05-27T14:00:25.000Z</time>
      </trkpt>
      <trkpt lat="44.86176" lon="5.52203">
        <ele>2083</ele>
        <time>2022-05-27T14:00:37.000Z</time>
      </trkpt>
      <trkpt lat="44.86162" lon="5.52191">
        <ele>2074.3999023438</ele>
        <time>2022-05-27T14:01:23.000Z</time>
      </trkpt>
      <trkpt lat="44.86154" lon="5.52183">
        <ele>2069.8000488281</ele>
        <time>2022-05-27T14:01:51.000Z</time>
      </trkpt>
      <trkpt lat="44.86129" lon="5.52207">
        <ele>2055.8000488281</ele>
        <time>2022-05-27T14:03:13.000Z</time>
      </trkpt>
      <trkpt lat="44.86101" lon="5.52192">
        <ele>2034</ele>
        <time>2022-05-27T14:04:46.000Z</time>
      </trkpt>
      <trkpt lat="44.86071" lon="5.52175">
        <ele>2013.4000244141</ele>
        <time>2022-05-27T14:06:26.000Z</time>
      </trkpt>
      <trkpt lat="44.86054" lon="5.52169">
        <ele>2001.8000488281</ele>
        <time>2022-05-27T14:08:13.000Z</time>
      </trkpt>
      <trkpt lat="44.86037" lon="5.52144">
        <ele>1985.1999511719</ele>
        <time>2022-05-27T14:09:47.000Z</time>
      </trkpt>
      <trkpt lat="44.86036" lon="5.52121">
        <ele>1980.4000244141</ele>
        <time>2022-05-27T14:10:10.000Z</time>
      </trkpt>
      <trkpt lat="44.86032" lon="5.52099">
        <ele>1974.1999511719</ele>
        <time>2022-05-27T14:10:39.000Z</time>
      </trkpt>
      <trkpt lat="44.86003" lon="5.52129">
        <ele>1960.8000488281</ele>
        <time>2022-05-27T14:11:59.000Z</time>
      </trkpt>
      <trkpt lat="44.85976" lon="5.5216">
        <ele>1944.1999511719</ele>
        <time>2022-05-27T14:13:32.000Z</time>
      </trkpt>
      <trkpt lat="44.85951" lon="5.52134">
        <ele>1931.8000488281</ele>
        <time>2022-05-27T14:14:46.000Z</time>
      </trkpt>
      <trkpt lat="44.85945" lon="5.52158">
        <ele>1927.4000244141</ele>
        <time>2022-05-27T14:15:19.000Z</time>
      </trkpt>
      <trkpt lat="44.85927" lon="5.52185">
        <ele>1918.5999755859</ele>
        <time>2022-05-27T14:16:29.000Z</time>
      </trkpt>
      <trkpt lat="44.85925" lon="5.52187">
        <ele>1917.4000244141</ele>
        <time>2022-05-27T14:16:32.000Z</time>
      </trkpt>
      <trkpt lat="44.85918" lon="5.5221">
        <ele>1912.4000244141</ele>
        <time>2022-05-27T14:16:58.000Z</time>
      </trkpt>
      <trkpt lat="44.85896" lon="5.52235">
        <ele>1900</ele>
        <time>2022-05-27T14:18:05.000Z</time>
      </trkpt>
      <trkpt lat="44.85887" lon="5.52245">
        <ele>1895</ele>
        <time>2022-05-27T14:18:17.000Z</time>
      </trkpt>
      <trkpt lat="44.8586" lon="5.52255">
        <ele>1887</ele>
        <time>2022-05-27T14:18:48.000Z</time>
      </trkpt>
      <trkpt lat="44.85852" lon="5.5226">
        <ele>1885.5999755859</ele>
        <time>2022-05-27T14:19:00.000Z</time>
      </trkpt>
      <trkpt lat="44.85813" lon="5.52289">
        <ele>1889.1999511719</ele>
        <time>2022-05-27T14:19:41.000Z</time>
      </trkpt>
      <trkpt lat="44.85796" lon="5.52297">
        <ele>1888</ele>
        <time>2022-05-27T14:20:09.000Z</time>
      </trkpt>
      <trkpt lat="44.8577" lon="5.52292">
        <ele>1887.4000244141</ele>
        <time>2022-05-27T14:20:31.000Z</time>
      </trkpt>
      <trkpt lat="44.85748" lon="5.52272">
        <ele>1886</ele>
        <time>2022-05-27T14:21:06.000Z</time>
      </trkpt>
      <trkpt lat="44.85705" lon="5.52253">
        <ele>1876.4000244141</ele>
        <time>2022-05-27T14:21:44.000Z</time>
      </trkpt>
      <trkpt lat="44.85662" lon="5.5223">
        <ele>1871</ele>
        <time>2022-05-27T14:22:21.000Z</time>
      </trkpt>
      <trkpt lat="44.85619" lon="5.5221">
        <ele>1869.5999755859</ele>
        <time>2022-05-27T14:22:59.000Z</time>
      </trkpt>
      <trkpt lat="44.85599" lon="5.52204">
        <ele>1867.8000488281</ele>
        <time>2022-05-27T14:23:20.000Z</time>
      </trkpt>
      <trkpt lat="44.85594" lon="5.52201">
        <ele>1867.1999511719</ele>
        <time>2022-05-27T14:23:29.000Z</time>
      </trkpt>
      <trkpt lat="44.85576" lon="5.5218">
        <ele>1864.1999511719</ele>
        <time>2022-05-27T14:23:50.000Z</time>
      </trkpt>
      <trkpt lat="44.85566" lon="5.52168">
        <ele>1863</ele>
        <time>2022-05-27T14:24:22.000Z</time>
      </trkpt>
      <trkpt lat="44.85555" lon="5.52164">
        <ele>1862.4000244141</ele>
        <time>2022-05-27T14:24:44.000Z</time>
      </trkpt>
      <trkpt lat="44.85542" lon="5.52158">
        <ele>1861.5999755859</ele>
        <time>2022-05-27T14:25:01.000Z</time>
      </trkpt>
      <trkpt lat="44.8552" lon="5.52158">
        <ele>1860.8000488281</ele>
        <time>2022-05-27T14:25:24.000Z</time>
      </trkpt>
      <trkpt lat="44.85509" lon="5.5217">
        <ele>1860.4000244141</ele>
        <time>2022-05-27T14:25:36.000Z</time>
      </trkpt>
      <trkpt lat="44.85504" lon="5.5217">
        <ele>1861</ele>
        <time>2022-05-27T14:25:41.000Z</time>
      </trkpt>
      <trkpt lat="44.85488" lon="5.52165">
        <ele>1862.4000244141</ele>
        <time>2022-05-27T14:27:04.000Z</time>
      </trkpt>
      <trkpt lat="44.85456" lon="5.52131">
        <ele>1866.5999755859</ele>
        <time>2022-05-27T14:27:47.000Z</time>
      </trkpt>
      <trkpt lat="44.85418" lon="5.52116">
        <ele>1869.4000244141</ele>
        <time>2022-05-27T14:28:33.000Z</time>
      </trkpt>
      <trkpt lat="44.85374" lon="5.52103">
        <ele>1877.4000244141</ele>
        <time>2022-05-27T14:29:19.000Z</time>
      </trkpt>
      <trkpt lat="44.85329" lon="5.52101">
        <ele>1885.4000244141</ele>
        <time>2022-05-27T14:30:03.000Z</time>
      </trkpt>
      <trkpt lat="44.85298" lon="5.521">
        <ele>1888.4000244141</ele>
        <time>2022-05-27T14:31:46.000Z</time>
      </trkpt>
      <trkpt lat="44.85265" lon="5.5209">
        <ele>1887</ele>
        <time>2022-05-27T14:32:45.000Z</time>
      </trkpt>
      <trkpt lat="44.85221" lon="5.52082">
        <ele>1889.4000244141</ele>
        <time>2022-05-27T14:34:01.000Z</time>
      </trkpt>
      <trkpt lat="44.85201" lon="5.52075">
        <ele>1891.1999511719</ele>
        <time>2022-05-27T14:34:27.000Z</time>
      </trkpt>
      <trkpt lat="44.85187" lon="5.5207">
        <ele>1893</ele>
        <time>2022-05-27T14:34:47.000Z</time>
      </trkpt>
      <trkpt lat="44.85176" lon="5.52066">
        <ele>1894.8000488281</ele>
        <time>2022-05-27T14:35:07.000Z</time>
      </trkpt>
      <trkpt lat="44.85134" lon="5.52048">
        <ele>1900.8000488281</ele>
        <time>2022-05-27T14:35:51.000Z</time>
      </trkpt>
      <trkpt lat="44.85089" lon="5.52036">
        <ele>1910</ele>
        <time>2022-05-27T14:36:42.000Z</time>
      </trkpt>
      <trkpt lat="44.85045" lon="5.52022">
        <ele>1914.8000488281</ele>
        <time>2022-05-27T14:37:31.000Z</time>
      </trkpt>
      <trkpt lat="44.85001" lon="5.52001">
        <ele>1921</ele>
        <time>2022-05-27T14:38:19.000Z</time>
      </trkpt>
      <trkpt lat="44.84989" lon="5.51994">
        <ele>1922.1999511719</ele>
        <time>2022-05-27T14:38:36.000Z</time>
      </trkpt>
      <trkpt lat="44.84947" lon="5.51973">
        <ele>1925</ele>
        <time>2022-05-27T14:39:16.000Z</time>
      </trkpt>
      <trkpt lat="44.84902" lon="5.51961">
        <ele>1928.4000244141</ele>
        <time>2022-05-27T14:39:57.000Z</time>
      </trkpt>
      <trkpt lat="44.84859" lon="5.51944">
        <ele>1928.1999511719</ele>
        <time>2022-05-27T14:40:40.000Z</time>
      </trkpt>
      <trkpt lat="44.84835" lon="5.51937">
        <ele>1926.4000244141</ele>
        <time>2022-05-27T14:41:13.000Z</time>
      </trkpt>
      <trkpt lat="44.84823" lon="5.51923">
        <ele>1925.5999755859</ele>
        <time>2022-05-27T14:41:42.000Z</time>
      </trkpt>
      <trkpt lat="44.84786" lon="5.51887">
        <ele>1921.8000488281</ele>
        <time>2022-05-27T14:42:30.000Z</time>
      </trkpt>
      <trkpt lat="44.84748" lon="5.51854">
        <ele>1918</ele>
        <time>2022-05-27T14:43:15.000Z</time>
      </trkpt>
      <trkpt lat="44.84707" lon="5.51833">
        <ele>1916.1999511719</ele>
        <time>2022-05-27T14:43:54.000Z</time>
      </trkpt>
      <trkpt lat="44.84699" lon="5.51835">
        <ele>1915.5999755859</ele>
        <time>2022-05-27T14:44:00.000Z</time>
      </trkpt>
      <trkpt lat="44.84675" lon="5.5182">
        <ele>1915</ele>
        <time>2022-05-27T14:44:24.000Z</time>
      </trkpt>
      <trkpt lat="44.8464" lon="5.51778">
        <ele>1914.8000488281</ele>
        <time>2022-05-27T14:45:11.000Z</time>
      </trkpt>
      <trkpt lat="44.84624" lon="5.51757">
        <ele>1915.5999755859</ele>
        <time>2022-05-27T14:45:31.000Z</time>
      </trkpt>
      <trkpt lat="44.84616" lon="5.51747">
        <ele>1916.4000244141</ele>
        <time>2022-05-27T14:45:41.000Z</time>
      </trkpt>
      <trkpt lat="44.84612" lon="5.51742">
        <ele>1917</ele>
        <time>2022-05-27T14:45:47.000Z</time>
      </trkpt>
      <trkpt lat="44.84588" lon="5.51688">
        <ele>1922</ele>
        <time>2022-05-27T14:46:30.000Z</time>
      </trkpt>
      <trkpt lat="44.84556" lon="5.51644">
        <ele>1920.1999511719</ele>
        <time>2022-05-27T14:47:08.000Z</time>
      </trkpt>
      <trkpt lat="44.84526" lon="5.51599">
        <ele>1915.5999755859</ele>
        <time>2022-05-27T14:47:45.000Z</time>
      </trkpt>
      <trkpt lat="44.84514" lon="5.51563">
        <ele>1912.5999755859</ele>
        <time>2022-05-27T14:48:10.000Z</time>
      </trkpt>
      <trkpt lat="44.84511" lon="5.51559">
        <ele>1912.1999511719</ele>
        <time>2022-05-27T14:48:14.000Z</time>
      </trkpt>
      <trkpt lat="44.84508" lon="5.51548">
        <ele>1911</ele>
        <time>2022-05-27T14:48:21.000Z</time>
      </trkpt>
      <trkpt lat="44.84506" lon="5.51545">
        <ele>1910.5999755859</ele>
        <time>2022-05-27T14:48:24.000Z</time>
      </trkpt>
      <trkpt lat="44.845" lon="5.51541">
        <ele>1910.5999755859</ele>
        <time>2022-05-27T14:48:30.000Z</time>
      </trkpt>
      <trkpt lat="44.84499" lon="5.51538">
        <ele>1910.1999511719</ele>
        <time>2022-05-27T14:48:32.000Z</time>
      </trkpt>
      <trkpt lat="44.84471" lon="5.5149">
        <ele>1905</ele>
        <time>2022-05-27T14:49:11.000Z</time>
      </trkpt>
      <trkpt lat="44.8447" lon="5.51486">
        <ele>1904.5999755859</ele>
        <time>2022-05-27T14:49:13.000Z</time>
      </trkpt>
      <trkpt lat="44.84462" lon="5.51456">
        <ele>1900.4000244141</ele>
        <time>2022-05-27T14:51:00.000Z</time>
      </trkpt>
      <trkpt lat="44.84454" lon="5.51449">
        <ele>1899.4000244141</ele>
        <time>2022-05-27T14:51:14.000Z</time>
      </trkpt>
      <trkpt lat="44.84453" lon="5.51448">
        <ele>1899.1999511719</ele>
        <time>2022-05-27T14:51:16.000Z</time>
      </trkpt>
      <trkpt lat="44.84449" lon="5.51447">
        <ele>1898.8000488281</ele>
        <time>2022-05-27T14:51:19.000Z</time>
      </trkpt>
      <trkpt lat="44.84446" lon="5.51447">
        <ele>1898.5999755859</ele>
        <time>2022-05-27T14:51:21.000Z</time>
      </trkpt>
      <trkpt lat="44.84445" lon="5.51446">
        <ele>1898.5999755859</ele>
        <time>2022-05-27T14:51:22.000Z</time>
      </trkpt>
      <trkpt lat="44.84444" lon="5.51446">
        <ele>1898.4000244141</ele>
        <time>2022-05-27T14:51:23.000Z</time>
      </trkpt>
      <trkpt lat="44.84443" lon="5.51446">
        <ele>1898.4000244141</ele>
        <time>2022-05-27T14:51:24.000Z</time>
      </trkpt>
      <trkpt lat="44.84442" lon="5.51446">
        <ele>1898.1999511719</ele>
        <time>2022-05-27T14:51:25.000Z</time>
      </trkpt>
      <trkpt lat="44.84428" lon="5.51435">
        <ele>1896.4000244141</ele>
        <time>2022-05-27T14:51:39.000Z</time>
      </trkpt>
      <trkpt lat="44.84427" lon="5.51434">
        <ele>1896.4000244141</ele>
        <time>2022-05-27T14:51:40.000Z</time>
      </trkpt>
      <trkpt lat="44.84426" lon="5.51433">
        <ele>1896.1999511719</ele>
        <time>2022-05-27T14:51:41.000Z</time>
      </trkpt>
      <trkpt lat="44.84423" lon="5.51429">
        <ele>1895.4000244141</ele>
        <time>2022-05-27T14:51:45.000Z</time>
      </trkpt>
      <trkpt lat="44.84421" lon="5.51427">
        <ele>1895</ele>
        <time>2022-05-27T14:51:47.000Z</time>
      </trkpt>
      <trkpt lat="44.84421" lon="5.51426">
        <ele>1895</ele>
        <time>2022-05-27T14:51:52.000Z</time>
      </trkpt>
      <trkpt lat="44.84421" lon="5.51426">
        <ele>1895</ele>
        <time>2022-05-27T14:51:54.000Z</time>
      </trkpt>
      <trkpt lat="44.84421" lon="5.51427">
        <ele>1895</ele>
        <time>2022-05-27T14:51:58.000Z</time>
      </trkpt>
      <trkpt lat="44.84421" lon="5.51427">
        <ele>1895</ele>
        <time>2022-05-27T14:52:02.000Z</time>
      </trkpt>
      <trkpt lat="44.84421" lon="5.51426">
        <ele>1895</ele>
        <time>2022-05-27T14:52:05.000Z</time>
      </trkpt>
      <trkpt lat="44.8442" lon="5.51425">
        <ele>1894.5999755859</ele>
        <time>2022-05-27T14:52:08.000Z</time>
      </trkpt>
      <trkpt lat="44.84416" lon="5.51423">
        <ele>1894</ele>
        <time>2022-05-27T14:52:12.000Z</time>
      </trkpt>
      <trkpt lat="44.84411" lon="5.51423">
        <ele>1893.1999511719</ele>
        <time>2022-05-27T14:52:18.000Z</time>
      </trkpt>
      <trkpt lat="44.84407" lon="5.5142">
        <ele>1892.4000244141</ele>
        <time>2022-05-27T14:52:24.000Z</time>
      </trkpt>
      <trkpt lat="44.84407" lon="5.51419">
        <ele>1892.4000244141</ele>
        <time>2022-05-27T14:52:25.000Z</time>
      </trkpt>
      <trkpt lat="44.84377" lon="5.51392">
        <ele>1885.4000244141</ele>
        <time>2022-05-27T14:53:00.000Z</time>
      </trkpt>
      <trkpt lat="44.84378" lon="5.51388">
        <ele>1885.1999511719</ele>
        <time>2022-05-27T14:53:13.000Z</time>
      </trkpt>
      <trkpt lat="44.84379" lon="5.51387">
        <ele>1885.1999511719</ele>
        <time>2022-05-27T14:53:30.000Z</time>
      </trkpt>
      <trkpt lat="44.84362" lon="5.51375">
        <ele>1881</ele>
        <time>2022-05-27T14:53:43.000Z</time>
      </trkpt>
      <trkpt lat="44.84349" lon="5.51371">
        <ele>1878</ele>
        <time>2022-05-27T14:53:53.000Z</time>
      </trkpt>
      <trkpt lat="44.84342" lon="5.51366">
        <ele>1876.4000244141</ele>
        <time>2022-05-27T14:54:04.000Z</time>
      </trkpt>
      <trkpt lat="44.84315" lon="5.51347">
        <ele>1871.8000488281</ele>
        <time>2022-05-27T14:54:33.000Z</time>
      </trkpt>
      <trkpt lat="44.8431" lon="5.5134">
        <ele>1870</ele>
        <time>2022-05-27T14:54:40.000Z</time>
      </trkpt>
      <trkpt lat="44.84299" lon="5.51328">
        <ele>1866.1999511719</ele>
        <time>2022-05-27T14:54:54.000Z</time>
      </trkpt>
      <trkpt lat="44.84294" lon="5.51321">
        <ele>1864.4000244141</ele>
        <time>2022-05-27T14:55:01.000Z</time>
      </trkpt>
      <trkpt lat="44.84292" lon="5.51319">
        <ele>1863.5999755859</ele>
        <time>2022-05-27T14:55:03.000Z</time>
      </trkpt>
      <trkpt lat="44.84291" lon="5.51318">
        <ele>1863.4000244141</ele>
        <time>2022-05-27T14:55:04.000Z</time>
      </trkpt>
      <trkpt lat="44.84291" lon="5.51316">
        <ele>1863.1999511719</ele>
        <time>2022-05-27T14:55:05.000Z</time>
      </trkpt>
      <trkpt lat="44.84291" lon="5.51315">
        <ele>1862.8000488281</ele>
        <time>2022-05-27T14:55:06.000Z</time>
      </trkpt>
      <trkpt lat="44.84289" lon="5.51309">
        <ele>1861.5999755859</ele>
        <time>2022-05-27T14:55:10.000Z</time>
      </trkpt>
      <trkpt lat="44.84286" lon="5.513">
        <ele>1860.4000244141</ele>
        <time>2022-05-27T14:55:18.000Z</time>
      </trkpt>
      <trkpt lat="44.84284" lon="5.51298">
        <ele>1859.8000488281</ele>
        <time>2022-05-27T14:55:22.000Z</time>
      </trkpt>
      <trkpt lat="44.84278" lon="5.51294">
        <ele>1858.1999511719</ele>
        <time>2022-05-27T14:55:29.000Z</time>
      </trkpt>
      <trkpt lat="44.84271" lon="5.51292">
        <ele>1856.4000244141</ele>
        <time>2022-05-27T14:55:37.000Z</time>
      </trkpt>
      <trkpt lat="44.84265" lon="5.51284">
        <ele>1854.5999755859</ele>
        <time>2022-05-27T14:55:47.000Z</time>
      </trkpt>
      <trkpt lat="44.84259" lon="5.5128">
        <ele>1853</ele>
        <time>2022-05-27T14:55:53.000Z</time>
      </trkpt>
      <trkpt lat="44.8425" lon="5.51267">
        <ele>1850.5999755859</ele>
        <time>2022-05-27T14:56:08.000Z</time>
      </trkpt>
      <trkpt lat="44.84232" lon="5.51244">
        <ele>1846</ele>
        <time>2022-05-27T14:56:28.000Z</time>
      </trkpt>
      <trkpt lat="44.84228" lon="5.51238">
        <ele>1844.5999755859</ele>
        <time>2022-05-27T14:56:39.000Z</time>
      </trkpt>
      <trkpt lat="44.84228" lon="5.51238">
        <ele>1844.4000244141</ele>
        <time>2022-05-27T14:56:45.000Z</time>
      </trkpt>
      <trkpt lat="44.84224" lon="5.51228">
        <ele>1843</ele>
        <time>2022-05-27T14:56:56.000Z</time>
      </trkpt>
      <trkpt lat="44.84193" lon="5.51186">
        <ele>1834.4000244141</ele>
        <time>2022-05-27T14:57:38.000Z</time>
      </trkpt>
      <trkpt lat="44.84166" lon="5.51135">
        <ele>1826.5999755859</ele>
        <time>2022-05-27T14:58:14.000Z</time>
      </trkpt>
      <trkpt lat="44.84163" lon="5.51129">
        <ele>1826.1999511719</ele>
        <time>2022-05-27T14:58:25.000Z</time>
      </trkpt>
      <trkpt lat="44.8416" lon="5.51125">
        <ele>1825.1999511719</ele>
        <time>2022-05-27T14:58:30.000Z</time>
      </trkpt>
      <trkpt lat="44.84141" lon="5.51096">
        <ele>1822</ele>
        <time>2022-05-27T14:58:56.000Z</time>
      </trkpt>
      <trkpt lat="44.84124" lon="5.51052">
        <ele>1822.5999755859</ele>
        <time>2022-05-27T14:59:37.000Z</time>
      </trkpt>
      <trkpt lat="44.84093" lon="5.51007">
        <ele>1820</ele>
        <time>2022-05-27T15:00:15.000Z</time>
      </trkpt>
      <trkpt lat="44.84065" lon="5.5097">
        <ele>1817</ele>
        <time>2022-05-27T15:00:53.000Z</time>
      </trkpt>
      <trkpt lat="44.8406" lon="5.50966">
        <ele>1816.1999511719</ele>
        <time>2022-05-27T15:00:58.000Z</time>
      </trkpt>
      <trkpt lat="44.84055" lon="5.50958">
        <ele>1815.4000244141</ele>
        <time>2022-05-27T15:01:06.000Z</time>
      </trkpt>
      <trkpt lat="44.84032" lon="5.50937">
        <ele>1811.4000244141</ele>
        <time>2022-05-27T15:01:30.000Z</time>
      </trkpt>
      <trkpt lat="44.84024" lon="5.50926">
        <ele>1810.1999511719</ele>
        <time>2022-05-27T15:01:39.000Z</time>
      </trkpt>
      <trkpt lat="44.84004" lon="5.50903">
        <ele>1807.1999511719</ele>
        <time>2022-05-27T15:02:01.000Z</time>
      </trkpt>
      <trkpt lat="44.83978" lon="5.5087">
        <ele>1804.5999755859</ele>
        <time>2022-05-27T15:02:41.000Z</time>
      </trkpt>
      <trkpt lat="44.83946" lon="5.50827">
        <ele>1798.8000488281</ele>
        <time>2022-05-27T15:03:25.000Z</time>
      </trkpt>
      <trkpt lat="44.83929" lon="5.50795">
        <ele>1794</ele>
        <time>2022-05-27T15:03:49.000Z</time>
      </trkpt>
      <trkpt lat="44.83896" lon="5.5075">
        <ele>1790.8000488281</ele>
        <time>2022-05-27T15:04:25.000Z</time>
      </trkpt>
      <trkpt lat="44.83882" lon="5.50728">
        <ele>1790.5999755859</ele>
        <time>2022-05-27T15:04:44.000Z</time>
      </trkpt>
      <trkpt lat="44.83847" lon="5.50687">
        <ele>1786</ele>
        <time>2022-05-27T15:05:23.000Z</time>
      </trkpt>
      <trkpt lat="44.83822" lon="5.5065">
        <ele>1785.5999755859</ele>
        <time>2022-05-27T15:05:59.000Z</time>
      </trkpt>
      <trkpt lat="44.83794" lon="5.5063">
        <ele>1784</ele>
        <time>2022-05-27T15:06:27.000Z</time>
      </trkpt>
      <trkpt lat="44.8377" lon="5.50593">
        <ele>1782.8000488281</ele>
        <time>2022-05-27T15:06:57.000Z</time>
      </trkpt>
      <trkpt lat="44.83768" lon="5.50584">
        <ele>1783.4000244141</ele>
        <time>2022-05-27T15:07:07.000Z</time>
      </trkpt>
      <trkpt lat="44.83767" lon="5.50579">
        <ele>1783.8000488281</ele>
        <time>2022-05-27T15:07:51.000Z</time>
      </trkpt>
      <trkpt lat="44.83762" lon="5.50566">
        <ele>1783.8000488281</ele>
        <time>2022-05-27T15:08:00.000Z</time>
      </trkpt>
      <trkpt lat="44.8376" lon="5.50561">
        <ele>1783.5999755859</ele>
        <time>2022-05-27T15:08:04.000Z</time>
      </trkpt>
      <trkpt lat="44.83757" lon="5.50557">
        <ele>1783.5999755859</ele>
        <time>2022-05-27T15:08:07.000Z</time>
      </trkpt>
      <trkpt lat="44.83746" lon="5.50546">
        <ele>1783.1999511719</ele>
        <time>2022-05-27T15:08:18.000Z</time>
      </trkpt>
      <trkpt lat="44.83719" lon="5.50514">
        <ele>1783.8000488281</ele>
        <time>2022-05-27T15:08:49.000Z</time>
      </trkpt>
      <trkpt lat="44.83701" lon="5.50487">
        <ele>1785.4000244141</ele>
        <time>2022-05-27T15:09:12.000Z</time>
      </trkpt>
      <trkpt lat="44.83688" lon="5.50467">
        <ele>1784.8000488281</ele>
        <time>2022-05-27T15:09:30.000Z</time>
      </trkpt>
      <trkpt lat="44.83646" lon="5.50448">
        <ele>1780.5999755859</ele>
        <time>2022-05-27T15:10:13.000Z</time>
      </trkpt>
      <trkpt lat="44.8363" lon="5.50434">
        <ele>1780.4000244141</ele>
        <time>2022-05-27T15:10:29.000Z</time>
      </trkpt>
      <trkpt lat="44.83599" lon="5.50389">
        <ele>1786</ele>
        <time>2022-05-27T15:11:06.000Z</time>
      </trkpt>
      <trkpt lat="44.83565" lon="5.50368">
        <ele>1786.8000488281</ele>
        <time>2022-05-27T15:11:46.000Z</time>
      </trkpt>
      <trkpt lat="44.83545" lon="5.50348">
        <ele>1785.5999755859</ele>
        <time>2022-05-27T15:12:19.000Z</time>
      </trkpt>
      <trkpt lat="44.83532" lon="5.5032">
        <ele>1783.8000488281</ele>
        <time>2022-05-27T15:12:40.000Z</time>
      </trkpt>
      <trkpt lat="44.8353" lon="5.50315">
        <ele>1783.4000244141</ele>
        <time>2022-05-27T15:12:43.000Z</time>
      </trkpt>
      <trkpt lat="44.83525" lon="5.50306">
        <ele>1782.4000244141</ele>
        <time>2022-05-27T15:12:50.000Z</time>
      </trkpt>
      <trkpt lat="44.83522" lon="5.50299">
        <ele>1782</ele>
        <time>2022-05-27T15:12:55.000Z</time>
      </trkpt>
      <trkpt lat="44.8352" lon="5.50297">
        <ele>1781.5999755859</ele>
        <time>2022-05-27T15:12:57.000Z</time>
      </trkpt>
      <trkpt lat="44.83516" lon="5.50293">
        <ele>1781</ele>
        <time>2022-05-27T15:13:00.000Z</time>
      </trkpt>
      <trkpt lat="44.83515" lon="5.50292">
        <ele>1780.8000488281</ele>
        <time>2022-05-27T15:13:01.000Z</time>
      </trkpt>
      <trkpt lat="44.83515" lon="5.50291">
        <ele>1780.5999755859</ele>
        <time>2022-05-27T15:13:02.000Z</time>
      </trkpt>
      <trkpt lat="44.83512" lon="5.50288">
        <ele>1780.1999511719</ele>
        <time>2022-05-27T15:13:05.000Z</time>
      </trkpt>
      <trkpt lat="44.83511" lon="5.50287">
        <ele>1780</ele>
        <time>2022-05-27T15:13:06.000Z</time>
      </trkpt>
      <trkpt lat="44.8351" lon="5.50286">
        <ele>1779.8000488281</ele>
        <time>2022-05-27T15:13:07.000Z</time>
      </trkpt>
      <trkpt lat="44.83506" lon="5.50283">
        <ele>1779</ele>
        <time>2022-05-27T15:13:10.000Z</time>
      </trkpt>
      <trkpt lat="44.83501" lon="5.50277">
        <ele>1778</ele>
        <time>2022-05-27T15:13:16.000Z</time>
      </trkpt>
      <trkpt lat="44.83473" lon="5.50244">
        <ele>1771.8000488281</ele>
        <time>2022-05-27T15:13:45.000Z</time>
      </trkpt>
      <trkpt lat="44.8347" lon="5.50233">
        <ele>1771.4000244141</ele>
        <time>2022-05-27T15:13:54.000Z</time>
      </trkpt>
      <trkpt lat="44.83469" lon="5.50228">
        <ele>1771.8000488281</ele>
        <time>2022-05-27T15:14:03.000Z</time>
      </trkpt>
      <trkpt lat="44.83467" lon="5.50219">
        <ele>1771.8000488281</ele>
        <time>2022-05-27T15:14:12.000Z</time>
      </trkpt>
      <trkpt lat="44.83467" lon="5.50215">
        <ele>1772</ele>
        <time>2022-05-27T15:14:15.000Z</time>
      </trkpt>
      <trkpt lat="44.83467" lon="5.50215">
        <ele>1772</ele>
        <time>2022-05-27T15:14:16.000Z</time>
      </trkpt>
      <trkpt lat="44.83466" lon="5.50214">
        <ele>1772</ele>
        <time>2022-05-27T15:14:17.000Z</time>
      </trkpt>
      <trkpt lat="44.83466" lon="5.50212">
        <ele>1772</ele>
        <time>2022-05-27T15:14:21.000Z</time>
      </trkpt>
      <trkpt lat="44.83465" lon="5.50206">
        <ele>1771.8000488281</ele>
        <time>2022-05-27T15:14:28.000Z</time>
      </trkpt>
      <trkpt lat="44.83461" lon="5.50198">
        <ele>1771.4000244141</ele>
        <time>2022-05-27T15:14:42.000Z</time>
      </trkpt>
      <trkpt lat="44.83461" lon="5.50195">
        <ele>1771.4000244141</ele>
        <time>2022-05-27T15:14:44.000Z</time>
      </trkpt>
      <trkpt lat="44.83453" lon="5.50188">
        <ele>1769</ele>
        <time>2022-05-27T15:14:56.000Z</time>
      </trkpt>
      <trkpt lat="44.83443" lon="5.50176">
        <ele>1766.5999755859</ele>
        <time>2022-05-27T15:15:13.000Z</time>
      </trkpt>
      <trkpt lat="44.83424" lon="5.50155">
        <ele>1762</ele>
        <time>2022-05-27T15:15:30.000Z</time>
      </trkpt>
      <trkpt lat="44.8342" lon="5.50149">
        <ele>1760.8000488281</ele>
        <time>2022-05-27T15:15:34.000Z</time>
      </trkpt>
      <trkpt lat="44.83416" lon="5.50145">
        <ele>1760</ele>
        <time>2022-05-27T15:15:37.000Z</time>
      </trkpt>
      <trkpt lat="44.83414" lon="5.50142">
        <ele>1759.4000244141</ele>
        <time>2022-05-27T15:15:39.000Z</time>
      </trkpt>
      <trkpt lat="44.83409" lon="5.50136">
        <ele>1758.1999511719</ele>
        <time>2022-05-27T15:15:44.000Z</time>
      </trkpt>
      <trkpt lat="44.83405" lon="5.50132">
        <ele>1757</ele>
        <time>2022-05-27T15:15:48.000Z</time>
      </trkpt>
      <trkpt lat="44.83388" lon="5.50103">
        <ele>1753</ele>
        <time>2022-05-27T15:16:10.000Z</time>
      </trkpt>
      <trkpt lat="44.83383" lon="5.50096">
        <ele>1752.4000244141</ele>
        <time>2022-05-27T15:16:15.000Z</time>
      </trkpt>
      <trkpt lat="44.83371" lon="5.5008">
        <ele>1750.5999755859</ele>
        <time>2022-05-27T15:16:30.000Z</time>
      </trkpt>
      <trkpt lat="44.83367" lon="5.50064">
        <ele>1752</ele>
        <time>2022-05-27T15:16:46.000Z</time>
      </trkpt>
      <trkpt lat="44.83366" lon="5.50062">
        <ele>1752.1999511719</ele>
        <time>2022-05-27T15:16:48.000Z</time>
      </trkpt>
      <trkpt lat="44.83353" lon="5.50046">
        <ele>1750</ele>
        <time>2022-05-27T15:17:03.000Z</time>
      </trkpt>
      <trkpt lat="44.83334" lon="5.50002">
        <ele>1749.4000244141</ele>
        <time>2022-05-27T15:17:58.000Z</time>
      </trkpt>
      <trkpt lat="44.83317" lon="5.49978">
        <ele>1746.4000244141</ele>
        <time>2022-05-27T15:18:18.000Z</time>
      </trkpt>
      <trkpt lat="44.83317" lon="5.49973">
        <ele>1746.5999755859</ele>
        <time>2022-05-27T15:18:21.000Z</time>
      </trkpt>
      <trkpt lat="44.83315" lon="5.49969">
        <ele>1746.4000244141</ele>
        <time>2022-05-27T15:18:24.000Z</time>
      </trkpt>
      <trkpt lat="44.83308" lon="5.49959">
        <ele>1745</ele>
        <time>2022-05-27T15:18:31.000Z</time>
      </trkpt>
      <trkpt lat="44.83305" lon="5.49955">
        <ele>1744.4000244141</ele>
        <time>2022-05-27T15:18:34.000Z</time>
      </trkpt>
      <trkpt lat="44.83304" lon="5.49952">
        <ele>1744.1999511719</ele>
        <time>2022-05-27T15:18:36.000Z</time>
      </trkpt>
      <trkpt lat="44.83302" lon="5.4995">
        <ele>1744</ele>
        <time>2022-05-27T15:18:38.000Z</time>
      </trkpt>
      <trkpt lat="44.83297" lon="5.4994">
        <ele>1742.5999755859</ele>
        <time>2022-05-27T15:18:45.000Z</time>
      </trkpt>
      <trkpt lat="44.83293" lon="5.49933">
        <ele>1741.8000488281</ele>
        <time>2022-05-27T15:18:50.000Z</time>
      </trkpt>
      <trkpt lat="44.83274" lon="5.49874">
        <ele>1740.1999511719</ele>
        <time>2022-05-27T15:19:27.000Z</time>
      </trkpt>
      <trkpt lat="44.8327" lon="5.49858">
        <ele>1739</ele>
        <time>2022-05-27T15:19:37.000Z</time>
      </trkpt>
      <trkpt lat="44.83246" lon="5.49807">
        <ele>1731.1999511719</ele>
        <time>2022-05-27T15:20:16.000Z</time>
      </trkpt>
      <trkpt lat="44.83236" lon="5.49788">
        <ele>1728.8000488281</ele>
        <time>2022-05-27T15:20:30.000Z</time>
      </trkpt>
      <trkpt lat="44.83234" lon="5.49786">
        <ele>1728.4000244141</ele>
        <time>2022-05-27T15:20:32.000Z</time>
      </trkpt>
      <trkpt lat="44.83221" lon="5.4975">
        <ele>1724.8000488281</ele>
        <time>2022-05-27T15:20:59.000Z</time>
      </trkpt>
      <trkpt lat="44.83214" lon="5.49727">
        <ele>1722.1999511719</ele>
        <time>2022-05-27T15:21:15.000Z</time>
      </trkpt>
      <trkpt lat="44.83214" lon="5.49724">
        <ele>1721.8000488281</ele>
        <time>2022-05-27T15:21:17.000Z</time>
      </trkpt>
      <trkpt lat="44.83196" lon="5.49687">
        <ele>1717</ele>
        <time>2022-05-27T15:21:41.000Z</time>
      </trkpt>
      <trkpt lat="44.83181" lon="5.49651">
        <ele>1712.8000488281</ele>
        <time>2022-05-27T15:22:08.000Z</time>
      </trkpt>
      <trkpt lat="44.8318" lon="5.49649">
        <ele>1712.4000244141</ele>
        <time>2022-05-27T15:22:10.000Z</time>
      </trkpt>
      <trkpt lat="44.83164" lon="5.49592">
        <ele>1708.1999511719</ele>
        <time>2022-05-27T15:22:49.000Z</time>
      </trkpt>
      <trkpt lat="44.83163" lon="5.49591">
        <ele>1708</ele>
        <time>2022-05-27T15:22:50.000Z</time>
      </trkpt>
      <trkpt lat="44.83159" lon="5.49586">
        <ele>1707.8000488281</ele>
        <time>2022-05-27T15:22:54.000Z</time>
      </trkpt>
      <trkpt lat="44.83157" lon="5.49584">
        <ele>1707.5999755859</ele>
        <time>2022-05-27T15:22:56.000Z</time>
      </trkpt>
      <trkpt lat="44.83154" lon="5.49583">
        <ele>1707.4000244141</ele>
        <time>2022-05-27T15:22:58.000Z</time>
      </trkpt>
      <trkpt lat="44.83152" lon="5.49581">
        <ele>1707.1999511719</ele>
        <time>2022-05-27T15:23:00.000Z</time>
      </trkpt>
      <trkpt lat="44.8315" lon="5.49579">
        <ele>1707.1999511719</ele>
        <time>2022-05-27T15:23:02.000Z</time>
      </trkpt>
      <trkpt lat="44.83114" lon="5.49541">
        <ele>1704</ele>
        <time>2022-05-27T15:23:41.000Z</time>
      </trkpt>
      <trkpt lat="44.83108" lon="5.49537">
        <ele>1703.8000488281</ele>
        <time>2022-05-27T15:23:46.000Z</time>
      </trkpt>
      <trkpt lat="44.83102" lon="5.49532">
        <ele>1703.5999755859</ele>
        <time>2022-05-27T15:23:52.000Z</time>
      </trkpt>
      <trkpt lat="44.83097" lon="5.49528">
        <ele>1703.4000244141</ele>
        <time>2022-05-27T15:23:56.000Z</time>
      </trkpt>
      <trkpt lat="44.83073" lon="5.49488">
        <ele>1700.8000488281</ele>
        <time>2022-05-27T15:24:30.000Z</time>
      </trkpt>
      <trkpt lat="44.83065" lon="5.49473">
        <ele>1699</ele>
        <time>2022-05-27T15:24:41.000Z</time>
      </trkpt>
      <trkpt lat="44.8306" lon="5.49462">
        <ele>1698.1999511719</ele>
        <time>2022-05-27T15:24:49.000Z</time>
      </trkpt>
      <trkpt lat="44.8305" lon="5.49443">
        <ele>1696.4000244141</ele>
        <time>2022-05-27T15:25:03.000Z</time>
      </trkpt>
      <trkpt lat="44.8303" lon="5.49387">
        <ele>1697.1999511719</ele>
        <time>2022-05-27T15:25:42.000Z</time>
      </trkpt>
      <trkpt lat="44.83027" lon="5.49379">
        <ele>1698</ele>
        <time>2022-05-27T15:25:48.000Z</time>
      </trkpt>
      <trkpt lat="44.83024" lon="5.49371">
        <ele>1699.1999511719</ele>
        <time>2022-05-27T15:25:58.000Z</time>
      </trkpt>
      <trkpt lat="44.83024" lon="5.49371">
        <ele>1699.1999511719</ele>
        <time>2022-05-27T15:25:59.000Z</time>
      </trkpt>
      <trkpt lat="44.83023" lon="5.49371">
        <ele>1699</ele>
        <time>2022-05-27T15:26:03.000Z</time>
      </trkpt>
      <trkpt lat="44.83023" lon="5.4937">
        <ele>1699</ele>
        <time>2022-05-27T15:26:04.000Z</time>
      </trkpt>
      <trkpt lat="44.83022" lon="5.4937">
        <ele>1698.8000488281</ele>
        <time>2022-05-27T15:26:07.000Z</time>
      </trkpt>
      <trkpt lat="44.83018" lon="5.49363">
        <ele>1699.5999755859</ele>
        <time>2022-05-27T15:26:20.000Z</time>
      </trkpt>
      <trkpt lat="44.83014" lon="5.49355">
        <ele>1700</ele>
        <time>2022-05-27T15:26:27.000Z</time>
      </trkpt>
      <trkpt lat="44.83006" lon="5.49345">
        <ele>1699.4000244141</ele>
        <time>2022-05-27T15:26:36.000Z</time>
      </trkpt>
      <trkpt lat="44.83005" lon="5.49343">
        <ele>1699.1999511719</ele>
        <time>2022-05-27T15:26:38.000Z</time>
      </trkpt>
      <trkpt lat="44.82975" lon="5.49295">
        <ele>1701.4000244141</ele>
        <time>2022-05-27T15:27:18.000Z</time>
      </trkpt>
      <trkpt lat="44.82961" lon="5.4928">
        <ele>1702</ele>
        <time>2022-05-27T15:27:32.000Z</time>
      </trkpt>
      <trkpt lat="44.82952" lon="5.4926">
        <ele>1703.8000488281</ele>
        <time>2022-05-27T15:27:49.000Z</time>
      </trkpt>
      <trkpt lat="44.82926" lon="5.49212">
        <ele>1702.5999755859</ele>
        <time>2022-05-27T15:28:30.000Z</time>
      </trkpt>
      <trkpt lat="44.82921" lon="5.49206">
        <ele>1701.4000244141</ele>
        <time>2022-05-27T15:28:41.000Z</time>
      </trkpt>
      <trkpt lat="44.82918" lon="5.49203">
        <ele>1700.5999755859</ele>
        <time>2022-05-27T15:28:45.000Z</time>
      </trkpt>
      <trkpt lat="44.82912" lon="5.492">
        <ele>1698</ele>
        <time>2022-05-27T15:28:53.000Z</time>
      </trkpt>
      <trkpt lat="44.82887" lon="5.49161">
        <ele>1693.4000244141</ele>
        <time>2022-05-27T15:29:36.000Z</time>
      </trkpt>
      <trkpt lat="44.82885" lon="5.49159">
        <ele>1692.5999755859</ele>
        <time>2022-05-27T15:29:39.000Z</time>
      </trkpt>
      <trkpt lat="44.82874" lon="5.49141">
        <ele>1689</ele>
        <time>2022-05-27T15:29:56.000Z</time>
      </trkpt>
      <trkpt lat="44.82865" lon="5.4913">
        <ele>1685.8000488281</ele>
        <time>2022-05-27T15:30:06.000Z</time>
      </trkpt>
      <trkpt lat="44.82862" lon="5.4911">
        <ele>1687.1999511719</ele>
        <time>2022-05-27T15:30:19.000Z</time>
      </trkpt>
      <trkpt lat="44.82853" lon="5.4908">
        <ele>1683.5999755859</ele>
        <time>2022-05-27T15:30:44.000Z</time>
      </trkpt>
      <trkpt lat="44.82857" lon="5.49072">
        <ele>1685.1999511719</ele>
        <time>2022-05-27T15:30:53.000Z</time>
      </trkpt>
      <trkpt lat="44.82857" lon="5.49071">
        <ele>1685.1999511719</ele>
        <time>2022-05-27T15:30:54.000Z</time>
      </trkpt>
      <trkpt lat="44.82855" lon="5.49063">
        <ele>1684.1999511719</ele>
        <time>2022-05-27T15:30:59.000Z</time>
      </trkpt>
      <trkpt lat="44.82854" lon="5.49057">
        <ele>1683.1999511719</ele>
        <time>2022-05-27T15:31:04.000Z</time>
      </trkpt>
      <trkpt lat="44.82849" lon="5.49037">
        <ele>1679</ele>
        <time>2022-05-27T15:31:22.000Z</time>
      </trkpt>
      <trkpt lat="44.82844" lon="5.49024">
        <ele>1675</ele>
        <time>2022-05-27T15:31:32.000Z</time>
      </trkpt>
      <trkpt lat="44.8284" lon="5.48999">
        <ele>1669.5999755859</ele>
        <time>2022-05-27T15:31:47.000Z</time>
      </trkpt>
      <trkpt lat="44.8284" lon="5.48987">
        <ele>1668.1999511719</ele>
        <time>2022-05-27T15:31:55.000Z</time>
      </trkpt>
      <trkpt lat="44.8284" lon="5.48985">
        <ele>1668</ele>
        <time>2022-05-27T15:31:56.000Z</time>
      </trkpt>
      <trkpt lat="44.82839" lon="5.4898">
        <ele>1667.1999511719</ele>
        <time>2022-05-27T15:32:00.000Z</time>
      </trkpt>
      <trkpt lat="44.82839" lon="5.48978">
        <ele>1667</ele>
        <time>2022-05-27T15:32:01.000Z</time>
      </trkpt>
      <trkpt lat="44.82838" lon="5.48977">
        <ele>1666.8000488281</ele>
        <time>2022-05-27T15:32:02.000Z</time>
      </trkpt>
      <trkpt lat="44.82837" lon="5.48976">
        <ele>1666.5999755859</ele>
        <time>2022-05-27T15:32:03.000Z</time>
      </trkpt>
      <trkpt lat="44.82837" lon="5.48971">
        <ele>1666</ele>
        <time>2022-05-27T15:32:07.000Z</time>
      </trkpt>
      <trkpt lat="44.82837" lon="5.4897">
        <ele>1665.8000488281</ele>
        <time>2022-05-27T15:32:08.000Z</time>
      </trkpt>
      <trkpt lat="44.82836" lon="5.48967">
        <ele>1665.4000244141</ele>
        <time>2022-05-27T15:32:10.000Z</time>
      </trkpt>
      <trkpt lat="44.82844" lon="5.48941">
        <ele>1663</ele>
        <time>2022-05-27T15:32:38.000Z</time>
      </trkpt>
      <trkpt lat="44.82841" lon="5.48922">
        <ele>1659.8000488281</ele>
        <time>2022-05-27T15:32:56.000Z</time>
      </trkpt>
      <trkpt lat="44.82834" lon="5.48898">
        <ele>1656.4000244141</ele>
        <time>2022-05-27T15:33:11.000Z</time>
      </trkpt>
      <trkpt lat="44.82834" lon="5.48888">
        <ele>1655</ele>
        <time>2022-05-27T15:33:18.000Z</time>
      </trkpt>
      <trkpt lat="44.82829" lon="5.48869">
        <ele>1653.1999511719</ele>
        <time>2022-05-27T15:33:31.000Z</time>
      </trkpt>
      <trkpt lat="44.8282" lon="5.48851">
        <ele>1651.1999511719</ele>
        <time>2022-05-27T15:33:44.000Z</time>
      </trkpt>
      <trkpt lat="44.8282" lon="5.4884">
        <ele>1649.5999755859</ele>
        <time>2022-05-27T15:33:54.000Z</time>
      </trkpt>
      <trkpt lat="44.82819" lon="5.48835">
        <ele>1649</ele>
        <time>2022-05-27T15:33:59.000Z</time>
      </trkpt>
      <trkpt lat="44.82815" lon="5.48819">
        <ele>1646.4000244141</ele>
        <time>2022-05-27T15:34:14.000Z</time>
      </trkpt>
      <trkpt lat="44.82812" lon="5.48801">
        <ele>1643.1999511719</ele>
        <time>2022-05-27T15:34:27.000Z</time>
      </trkpt>
      <trkpt lat="44.82777" lon="5.48761">
        <ele>1636</ele>
        <time>2022-05-27T15:35:05.000Z</time>
      </trkpt>
      <trkpt lat="44.82769" lon="5.48738">
        <ele>1631.8000488281</ele>
        <time>2022-05-27T15:35:24.000Z</time>
      </trkpt>
      <trkpt lat="44.82758" lon="5.48694">
        <ele>1627</ele>
        <time>2022-05-27T15:35:57.000Z</time>
      </trkpt>
      <trkpt lat="44.82758" lon="5.48688">
        <ele>1626.1999511719</ele>
        <time>2022-05-27T15:36:01.000Z</time>
      </trkpt>
      <trkpt lat="44.82758" lon="5.48684">
        <ele>1625.5999755859</ele>
        <time>2022-05-27T15:36:03.000Z</time>
      </trkpt>
      <trkpt lat="44.82756" lon="5.48668">
        <ele>1623.5999755859</ele>
        <time>2022-05-27T15:36:12.000Z</time>
      </trkpt>
      <trkpt lat="44.82756" lon="5.48612">
        <ele>1614.4000244141</ele>
        <time>2022-05-27T15:36:43.000Z</time>
      </trkpt>
      <trkpt lat="44.82741" lon="5.48551">
        <ele>1613.5999755859</ele>
        <time>2022-05-27T15:37:21.000Z</time>
      </trkpt>
      <trkpt lat="44.82736" lon="5.48515">
        <ele>1614.5999755859</ele>
        <time>2022-05-27T15:37:49.000Z</time>
      </trkpt>
      <trkpt lat="44.82735" lon="5.48512">
        <ele>1614.8000488281</ele>
        <time>2022-05-27T15:37:51.000Z</time>
      </trkpt>
      <trkpt lat="44.82723" lon="5.48451">
        <ele>1611.8000488281</ele>
        <time>2022-05-27T15:38:27.000Z</time>
      </trkpt>
      <trkpt lat="44.82715" lon="5.48389">
        <ele>1609.5999755859</ele>
        <time>2022-05-27T15:39:02.000Z</time>
      </trkpt>
      <trkpt lat="44.82704" lon="5.48327">
        <ele>1602.8000488281</ele>
        <time>2022-05-27T15:39:38.000Z</time>
      </trkpt>
      <trkpt lat="44.82697" lon="5.48286">
        <ele>1602.5999755859</ele>
        <time>2022-05-27T15:40:07.000Z</time>
      </trkpt>
      <trkpt lat="44.82704" lon="5.48279">
        <ele>1603</ele>
        <time>2022-05-27T15:41:18.000Z</time>
      </trkpt>
      <trkpt lat="44.82702" lon="5.4834">
        <ele>1604.4000244141</ele>
        <time>2022-05-28T04:46:00.000Z</time>
      </trkpt>
      <trkpt lat="44.82703" lon="5.48344">
        <ele>1604.5999755859</ele>
        <time>2022-05-28T04:46:04.000Z</time>
      </trkpt>
      <trkpt lat="44.82706" lon="5.48356">
        <ele>1606.1999511719</ele>
        <time>2022-05-28T04:46:13.000Z</time>
      </trkpt>
      <trkpt lat="44.82706" lon="5.4837">
        <ele>1608</ele>
        <time>2022-05-28T04:46:22.000Z</time>
      </trkpt>
      <trkpt lat="44.82707" lon="5.48374">
        <ele>1608.4000244141</ele>
        <time>2022-05-28T04:46:25.000Z</time>
      </trkpt>
      <trkpt lat="44.82709" lon="5.48388">
        <ele>1609.8000488281</ele>
        <time>2022-05-28T04:46:34.000Z</time>
      </trkpt>
      <trkpt lat="44.8271" lon="5.48393">
        <ele>1610</ele>
        <time>2022-05-28T04:46:37.000Z</time>
      </trkpt>
      <trkpt lat="44.82711" lon="5.48395">
        <ele>1610</ele>
        <time>2022-05-28T04:46:39.000Z</time>
      </trkpt>
      <trkpt lat="44.82719" lon="5.48453">
        <ele>1612</ele>
        <time>2022-05-28T04:47:16.000Z</time>
      </trkpt>
      <trkpt lat="44.82725" lon="5.48489">
        <ele>1614.4000244141</ele>
        <time>2022-05-28T04:47:42.000Z</time>
      </trkpt>
      <trkpt lat="44.82728" lon="5.4851">
        <ele>1615.4000244141</ele>
        <time>2022-05-28T04:48:04.000Z</time>
      </trkpt>
      <trkpt lat="44.82738" lon="5.48572">
        <ele>1613.5999755859</ele>
        <time>2022-05-28T04:48:42.000Z</time>
      </trkpt>
      <trkpt lat="44.82746" lon="5.48596">
        <ele>1613.8000488281</ele>
        <time>2022-05-28T04:49:10.000Z</time>
      </trkpt>
      <trkpt lat="44.82752" lon="5.4861">
        <ele>1614.1999511719</ele>
        <time>2022-05-28T04:49:27.000Z</time>
      </trkpt>
      <trkpt lat="44.82744" lon="5.4861">
        <ele>1614.5999755859</ele>
        <time>2022-05-28T04:49:41.000Z</time>
      </trkpt>
      <trkpt lat="44.82741" lon="5.4861">
        <ele>1614.5999755859</ele>
        <time>2022-05-28T04:49:43.000Z</time>
      </trkpt>
      <trkpt lat="44.82739" lon="5.4861">
        <ele>1614.8000488281</ele>
        <time>2022-05-28T04:49:45.000Z</time>
      </trkpt>
      <trkpt lat="44.82731" lon="5.48614">
        <ele>1615.5999755859</ele>
        <time>2022-05-28T04:49:53.000Z</time>
      </trkpt>
      <trkpt lat="44.82724" lon="5.48617">
        <ele>1617.4000244141</ele>
        <time>2022-05-28T04:50:01.000Z</time>
      </trkpt>
      <trkpt lat="44.82719" lon="5.48621">
        <ele>1619</ele>
        <time>2022-05-28T04:50:06.000Z</time>
      </trkpt>
      <trkpt lat="44.82715" lon="5.48623">
        <ele>1620</ele>
        <time>2022-05-28T04:50:09.000Z</time>
      </trkpt>
      <trkpt lat="44.82712" lon="5.48625">
        <ele>1620.5999755859</ele>
        <time>2022-05-28T04:50:12.000Z</time>
      </trkpt>
      <trkpt lat="44.82711" lon="5.48626">
        <ele>1620.8000488281</ele>
        <time>2022-05-28T04:50:13.000Z</time>
      </trkpt>
      <trkpt lat="44.8271" lon="5.48626">
        <ele>1621</ele>
        <time>2022-05-28T04:50:14.000Z</time>
      </trkpt>
      <trkpt lat="44.82709" lon="5.48628">
        <ele>1621.4000244141</ele>
        <time>2022-05-28T04:50:16.000Z</time>
      </trkpt>
      <trkpt lat="44.82706" lon="5.4863">
        <ele>1621.8000488281</ele>
        <time>2022-05-28T04:50:18.000Z</time>
      </trkpt>
      <trkpt lat="44.82693" lon="5.48639">
        <ele>1623.8000488281</ele>
        <time>2022-05-28T04:50:31.000Z</time>
      </trkpt>
      <trkpt lat="44.82649" lon="5.48629">
        <ele>1626.1999511719</ele>
        <time>2022-05-28T04:51:15.000Z</time>
      </trkpt>
      <trkpt lat="44.82644" lon="5.48626">
        <ele>1626.5999755859</ele>
        <time>2022-05-28T04:51:20.000Z</time>
      </trkpt>
      <trkpt lat="44.82625" lon="5.48622">
        <ele>1628.8000488281</ele>
        <time>2022-05-28T04:51:41.000Z</time>
      </trkpt>
      <trkpt lat="44.82622" lon="5.48622">
        <ele>1629.1999511719</ele>
        <time>2022-05-28T04:51:44.000Z</time>
      </trkpt>
      <trkpt lat="44.8262" lon="5.48621">
        <ele>1629.4000244141</ele>
        <time>2022-05-28T04:51:46.000Z</time>
      </trkpt>
      <trkpt lat="44.82617" lon="5.48621">
        <ele>1629.5999755859</ele>
        <time>2022-05-28T04:51:48.000Z</time>
      </trkpt>
      <trkpt lat="44.82616" lon="5.48621">
        <ele>1629.8000488281</ele>
        <time>2022-05-28T04:51:49.000Z</time>
      </trkpt>
      <trkpt lat="44.82614" lon="5.4862">
        <ele>1630</ele>
        <time>2022-05-28T04:51:51.000Z</time>
      </trkpt>
      <trkpt lat="44.82613" lon="5.4862">
        <ele>1630.1999511719</ele>
        <time>2022-05-28T04:51:52.000Z</time>
      </trkpt>
      <trkpt lat="44.8261" lon="5.4862">
        <ele>1630.4000244141</ele>
        <time>2022-05-28T04:51:54.000Z</time>
      </trkpt>
      <trkpt lat="44.8261" lon="5.4862">
        <ele>1630.4000244141</ele>
        <time>2022-05-28T04:51:55.000Z</time>
      </trkpt>
      <trkpt lat="44.82609" lon="5.48619">
        <ele>1630.5999755859</ele>
        <time>2022-05-28T04:51:57.000Z</time>
      </trkpt>
      <trkpt lat="44.82605" lon="5.48616">
        <ele>1630.8000488281</ele>
        <time>2022-05-28T04:52:02.000Z</time>
      </trkpt>
      <trkpt lat="44.82602" lon="5.48615">
        <ele>1631</ele>
        <time>2022-05-28T04:52:05.000Z</time>
      </trkpt>
      <trkpt lat="44.82591" lon="5.48611">
        <ele>1632</ele>
        <time>2022-05-28T04:52:17.000Z</time>
      </trkpt>
      <trkpt lat="44.82583" lon="5.4861">
        <ele>1632</ele>
        <time>2022-05-28T04:52:25.000Z</time>
      </trkpt>
      <trkpt lat="44.8257" lon="5.48607">
        <ele>1631.8000488281</ele>
        <time>2022-05-28T04:52:37.000Z</time>
      </trkpt>
      <trkpt lat="44.82553" lon="5.48605">
        <ele>1631.8000488281</ele>
        <time>2022-05-28T04:52:52.000Z</time>
      </trkpt>
      <trkpt lat="44.82543" lon="5.48599">
        <ele>1631.5999755859</ele>
        <time>2022-05-28T04:53:06.000Z</time>
      </trkpt>
      <trkpt lat="44.82542" lon="5.48599">
        <ele>1631.5999755859</ele>
        <time>2022-05-28T04:53:07.000Z</time>
      </trkpt>
      <trkpt lat="44.82537" lon="5.48593">
        <ele>1631</ele>
        <time>2022-05-28T04:53:13.000Z</time>
      </trkpt>
      <trkpt lat="44.82514" lon="5.48579">
        <ele>1633.1999511719</ele>
        <time>2022-05-28T04:53:35.000Z</time>
      </trkpt>
      <trkpt lat="44.82501" lon="5.48571">
        <ele>1634.1999511719</ele>
        <time>2022-05-28T04:53:48.000Z</time>
      </trkpt>
      <trkpt lat="44.82495" lon="5.48565">
        <ele>1634.4000244141</ele>
        <time>2022-05-28T04:53:54.000Z</time>
      </trkpt>
      <trkpt lat="44.82494" lon="5.48564">
        <ele>1634.4000244141</ele>
        <time>2022-05-28T04:53:55.000Z</time>
      </trkpt>
      <trkpt lat="44.82486" lon="5.48556">
        <ele>1634.5999755859</ele>
        <time>2022-05-28T04:54:03.000Z</time>
      </trkpt>
      <trkpt lat="44.82445" lon="5.48528">
        <ele>1633.8000488281</ele>
        <time>2022-05-28T04:54:43.000Z</time>
      </trkpt>
      <trkpt lat="44.82433" lon="5.4853">
        <ele>1634.8000488281</ele>
        <time>2022-05-28T04:54:54.000Z</time>
      </trkpt>
      <trkpt lat="44.82431" lon="5.48531">
        <ele>1635</ele>
        <time>2022-05-28T04:54:55.000Z</time>
      </trkpt>
      <trkpt lat="44.8243" lon="5.48531">
        <ele>1635.1999511719</ele>
        <time>2022-05-28T04:54:56.000Z</time>
      </trkpt>
      <trkpt lat="44.82429" lon="5.48531">
        <ele>1635.4000244141</ele>
        <time>2022-05-28T04:54:57.000Z</time>
      </trkpt>
      <trkpt lat="44.82418" lon="5.48532">
        <ele>1637.1999511719</ele>
        <time>2022-05-28T04:55:06.000Z</time>
      </trkpt>
      <trkpt lat="44.82401" lon="5.48538">
        <ele>1641.5999755859</ele>
        <time>2022-05-28T04:55:25.000Z</time>
      </trkpt>
      <trkpt lat="44.82399" lon="5.48538">
        <ele>1642.1999511719</ele>
        <time>2022-05-28T04:55:29.000Z</time>
      </trkpt>
      <trkpt lat="44.82394" lon="5.48539">
        <ele>1642.8000488281</ele>
        <time>2022-05-28T04:55:34.000Z</time>
      </trkpt>
      <trkpt lat="44.82383" lon="5.48539">
        <ele>1644</ele>
        <time>2022-05-28T04:55:47.000Z</time>
      </trkpt>
      <trkpt lat="44.82383" lon="5.48539">
        <ele>1644.1999511719</ele>
        <time>2022-05-28T04:55:48.000Z</time>
      </trkpt>
      <trkpt lat="44.82382" lon="5.48539">
        <ele>1644.4000244141</ele>
        <time>2022-05-28T04:55:49.000Z</time>
      </trkpt>
      <trkpt lat="44.8238" lon="5.4854">
        <ele>1644.5999755859</ele>
        <time>2022-05-28T04:55:51.000Z</time>
      </trkpt>
      <trkpt lat="44.82378" lon="5.48539">
        <ele>1644.5999755859</ele>
        <time>2022-05-28T04:55:53.000Z</time>
      </trkpt>
      <trkpt lat="44.82373" lon="5.48539">
        <ele>1645.1999511719</ele>
        <time>2022-05-28T04:56:00.000Z</time>
      </trkpt>
      <trkpt lat="44.82373" lon="5.48539">
        <ele>1645.1999511719</ele>
        <time>2022-05-28T04:56:01.000Z</time>
      </trkpt>
      <trkpt lat="44.82363" lon="5.48544">
        <ele>1646.4000244141</ele>
        <time>2022-05-28T04:56:18.000Z</time>
      </trkpt>
      <trkpt lat="44.82362" lon="5.48545">
        <ele>1646.4000244141</ele>
        <time>2022-05-28T04:56:20.000Z</time>
      </trkpt>
      <trkpt lat="44.82361" lon="5.48547">
        <ele>1646.8000488281</ele>
        <time>2022-05-28T04:56:26.000Z</time>
      </trkpt>
      <trkpt lat="44.82361" lon="5.48547">
        <ele>1646.8000488281</ele>
        <time>2022-05-28T04:56:29.000Z</time>
      </trkpt>
      <trkpt lat="44.82361" lon="5.48547">
        <ele>1646.8000488281</ele>
        <time>2022-05-28T04:56:37.000Z</time>
      </trkpt>
      <trkpt lat="44.82361" lon="5.48547">
        <ele>1646.8000488281</ele>
        <time>2022-05-28T04:56:38.000Z</time>
      </trkpt>
      <trkpt lat="44.82361" lon="5.48548">
        <ele>1646.8000488281</ele>
        <time>2022-05-28T04:56:45.000Z</time>
      </trkpt>
      <trkpt lat="44.82358" lon="5.48552">
        <ele>1647.1999511719</ele>
        <time>2022-05-28T04:56:54.000Z</time>
      </trkpt>
      <trkpt lat="44.82356" lon="5.48552">
        <ele>1647</ele>
        <time>2022-05-28T04:56:58.000Z</time>
      </trkpt>
      <trkpt lat="44.82353" lon="5.48553">
        <ele>1646.8000488281</ele>
        <time>2022-05-28T04:57:04.000Z</time>
      </trkpt>
      <trkpt lat="44.8235" lon="5.48555">
        <ele>1646.8000488281</ele>
        <time>2022-05-28T04:57:10.000Z</time>
      </trkpt>
      <trkpt lat="44.82349" lon="5.48558">
        <ele>1647</ele>
        <time>2022-05-28T04:57:14.000Z</time>
      </trkpt>
      <trkpt lat="44.82348" lon="5.48563">
        <ele>1647.8000488281</ele>
        <time>2022-05-28T04:57:22.000Z</time>
      </trkpt>
      <trkpt lat="44.82348" lon="5.48564">
        <ele>1648</ele>
        <time>2022-05-28T04:57:25.000Z</time>
      </trkpt>
      <trkpt lat="44.82342" lon="5.48587">
        <ele>1650.5999755859</ele>
        <time>2022-05-28T04:57:51.000Z</time>
      </trkpt>
      <trkpt lat="44.82341" lon="5.48589">
        <ele>1651</ele>
        <time>2022-05-28T04:57:53.000Z</time>
      </trkpt>
      <trkpt lat="44.8234" lon="5.48591">
        <ele>1651</ele>
        <time>2022-05-28T04:57:55.000Z</time>
      </trkpt>
      <trkpt lat="44.82339" lon="5.48593">
        <ele>1651.1999511719</ele>
        <time>2022-05-28T04:57:57.000Z</time>
      </trkpt>
      <trkpt lat="44.82338" lon="5.48594">
        <ele>1651.4000244141</ele>
        <time>2022-05-28T04:57:58.000Z</time>
      </trkpt>
      <trkpt lat="44.82336" lon="5.48598">
        <ele>1651.8000488281</ele>
        <time>2022-05-28T04:58:04.000Z</time>
      </trkpt>
      <trkpt lat="44.82335" lon="5.48599">
        <ele>1651.8000488281</ele>
        <time>2022-05-28T04:58:06.000Z</time>
      </trkpt>
      <trkpt lat="44.82334" lon="5.486">
        <ele>1651.8000488281</ele>
        <time>2022-05-28T04:58:08.000Z</time>
      </trkpt>
      <trkpt lat="44.82333" lon="5.48601">
        <ele>1652</ele>
        <time>2022-05-28T04:58:09.000Z</time>
      </trkpt>
      <trkpt lat="44.82332" lon="5.48602">
        <ele>1652</ele>
        <time>2022-05-28T04:58:10.000Z</time>
      </trkpt>
      <trkpt lat="44.82332" lon="5.48603">
        <ele>1652</ele>
        <time>2022-05-28T04:58:11.000Z</time>
      </trkpt>
      <trkpt lat="44.82331" lon="5.48604">
        <ele>1652.1999511719</ele>
        <time>2022-05-28T04:58:12.000Z</time>
      </trkpt>
      <trkpt lat="44.8233" lon="5.48604">
        <ele>1652.1999511719</ele>
        <time>2022-05-28T04:58:13.000Z</time>
      </trkpt>
      <trkpt lat="44.82329" lon="5.48607">
        <ele>1652.5999755859</ele>
        <time>2022-05-28T04:58:20.000Z</time>
      </trkpt>
      <trkpt lat="44.82329" lon="5.48607">
        <ele>1652.4000244141</ele>
        <time>2022-05-28T04:58:21.000Z</time>
      </trkpt>
      <trkpt lat="44.8233" lon="5.48603">
        <ele>1651.8000488281</ele>
        <time>2022-05-28T04:58:26.000Z</time>
      </trkpt>
      <trkpt lat="44.8233" lon="5.48602">
        <ele>1651.5999755859</ele>
        <time>2022-05-28T04:58:28.000Z</time>
      </trkpt>
      <trkpt lat="44.82328" lon="5.48599">
        <ele>1650.8000488281</ele>
        <time>2022-05-28T04:58:31.000Z</time>
      </trkpt>
      <trkpt lat="44.82325" lon="5.48596">
        <ele>1649.8000488281</ele>
        <time>2022-05-28T04:58:35.000Z</time>
      </trkpt>
      <trkpt lat="44.82324" lon="5.48595">
        <ele>1649.4000244141</ele>
        <time>2022-05-28T04:58:38.000Z</time>
      </trkpt>
      <trkpt lat="44.82324" lon="5.48594">
        <ele>1649.4000244141</ele>
        <time>2022-05-28T04:58:39.000Z</time>
      </trkpt>
      <trkpt lat="44.82324" lon="5.48595">
        <ele>1649.4000244141</ele>
        <time>2022-05-28T04:58:42.000Z</time>
      </trkpt>
      <trkpt lat="44.82324" lon="5.48594">
        <ele>1649.4000244141</ele>
        <time>2022-05-28T04:58:43.000Z</time>
      </trkpt>
      <trkpt lat="44.82323" lon="5.48594">
        <ele>1649.1999511719</ele>
        <time>2022-05-28T04:58:52.000Z</time>
      </trkpt>
      <trkpt lat="44.82323" lon="5.48594">
        <ele>1649.1999511719</ele>
        <time>2022-05-28T04:58:53.000Z</time>
      </trkpt>
      <trkpt lat="44.82323" lon="5.48594">
        <ele>1649.1999511719</ele>
        <time>2022-05-28T04:58:54.000Z</time>
      </trkpt>
      <trkpt lat="44.82323" lon="5.48594">
        <ele>1649.1999511719</ele>
        <time>2022-05-28T04:58:55.000Z</time>
      </trkpt>
      <trkpt lat="44.82323" lon="5.48594">
        <ele>1649.1999511719</ele>
        <time>2022-05-28T04:58:56.000Z</time>
      </trkpt>
      <trkpt lat="44.82324" lon="5.48594">
        <ele>1649.1999511719</ele>
        <time>2022-05-28T04:58:57.000Z</time>
      </trkpt>
      <trkpt lat="44.82324" lon="5.48594">
        <ele>1649.1999511719</ele>
        <time>2022-05-28T04:59:04.000Z</time>
      </trkpt>
      <trkpt lat="44.82324" lon="5.48594">
        <ele>1649.1999511719</ele>
        <time>2022-05-28T04:59:07.000Z</time>
      </trkpt>
      <trkpt lat="44.82324" lon="5.48594">
        <ele>1649.1999511719</ele>
        <time>2022-05-28T04:59:10.000Z</time>
      </trkpt>
      <trkpt lat="44.82324" lon="5.48593">
        <ele>1649.1999511719</ele>
        <time>2022-05-28T04:59:13.000Z</time>
      </trkpt>
      <trkpt lat="44.82324" lon="5.48593">
        <ele>1649.1999511719</ele>
        <time>2022-05-28T04:59:15.000Z</time>
      </trkpt>
      <trkpt lat="44.82324" lon="5.48593">
        <ele>1649.1999511719</ele>
        <time>2022-05-28T04:59:16.000Z</time>
      </trkpt>
      <trkpt lat="44.82324" lon="5.48593">
        <ele>1649.1999511719</ele>
        <time>2022-05-28T04:59:17.000Z</time>
      </trkpt>
      <trkpt lat="44.82324" lon="5.48593">
        <ele>1649.1999511719</ele>
        <time>2022-05-28T04:59:18.000Z</time>
      </trkpt>
      <trkpt lat="44.82324" lon="5.48593">
        <ele>1649.1999511719</ele>
        <time>2022-05-28T04:59:19.000Z</time>
      </trkpt>
      <trkpt lat="44.82317" lon="5.48587">
        <ele>1647.1999511719</ele>
        <time>2022-05-28T04:59:34.000Z</time>
      </trkpt>
      <trkpt lat="44.82313" lon="5.48585">
        <ele>1646.1999511719</ele>
        <time>2022-05-28T04:59:39.000Z</time>
      </trkpt>
      <trkpt lat="44.82307" lon="5.48563">
        <ele>1642.1999511719</ele>
        <time>2022-05-28T04:59:58.000Z</time>
      </trkpt>
      <trkpt lat="44.82307" lon="5.48562">
        <ele>1642</ele>
        <time>2022-05-28T04:59:59.000Z</time>
      </trkpt>
      <trkpt lat="44.82306" lon="5.48554">
        <ele>1640.8000488281</ele>
        <time>2022-05-28T05:00:06.000Z</time>
      </trkpt>
      <trkpt lat="44.82301" lon="5.48544">
        <ele>1640</ele>
        <time>2022-05-28T05:00:19.000Z</time>
      </trkpt>
      <trkpt lat="44.823" lon="5.48537">
        <ele>1639.5999755859</ele>
        <time>2022-05-28T05:00:25.000Z</time>
      </trkpt>
      <trkpt lat="44.82299" lon="5.48532">
        <ele>1639.1999511719</ele>
        <time>2022-05-28T05:00:30.000Z</time>
      </trkpt>
      <trkpt lat="44.82299" lon="5.48531">
        <ele>1639.1999511719</ele>
        <time>2022-05-28T05:00:31.000Z</time>
      </trkpt>
      <trkpt lat="44.82296" lon="5.48524">
        <ele>1639</ele>
        <time>2022-05-28T05:00:37.000Z</time>
      </trkpt>
      <trkpt lat="44.8229" lon="5.48516">
        <ele>1639.4000244141</ele>
        <time>2022-05-28T05:00:44.000Z</time>
      </trkpt>
      <trkpt lat="44.82288" lon="5.48513">
        <ele>1639.5999755859</ele>
        <time>2022-05-28T05:00:47.000Z</time>
      </trkpt>
      <trkpt lat="44.82286" lon="5.48511">
        <ele>1639.5999755859</ele>
        <time>2022-05-28T05:00:49.000Z</time>
      </trkpt>
      <trkpt lat="44.82277" lon="5.48504">
        <ele>1639.5999755859</ele>
        <time>2022-05-28T05:00:55.000Z</time>
      </trkpt>
      <trkpt lat="44.82276" lon="5.48503">
        <ele>1639.4000244141</ele>
        <time>2022-05-28T05:00:56.000Z</time>
      </trkpt>
      <trkpt lat="44.82273" lon="5.48501">
        <ele>1639.4000244141</ele>
        <time>2022-05-28T05:00:59.000Z</time>
      </trkpt>
      <trkpt lat="44.82271" lon="5.485">
        <ele>1639.4000244141</ele>
        <time>2022-05-28T05:01:01.000Z</time>
      </trkpt>
      <trkpt lat="44.82269" lon="5.48499">
        <ele>1639.4000244141</ele>
        <time>2022-05-28T05:01:03.000Z</time>
      </trkpt>
      <trkpt lat="44.82269" lon="5.48498">
        <ele>1639.4000244141</ele>
        <time>2022-05-28T05:01:04.000Z</time>
      </trkpt>
      <trkpt lat="44.82268" lon="5.48497">
        <ele>1639.5999755859</ele>
        <time>2022-05-28T05:01:05.000Z</time>
      </trkpt>
      <trkpt lat="44.82267" lon="5.48497">
        <ele>1639.5999755859</ele>
        <time>2022-05-28T05:01:06.000Z</time>
      </trkpt>
      <trkpt lat="44.82267" lon="5.48496">
        <ele>1640</ele>
        <time>2022-05-28T05:01:09.000Z</time>
      </trkpt>
      <trkpt lat="44.82267" lon="5.48496">
        <ele>1640</ele>
        <time>2022-05-28T05:01:10.000Z</time>
      </trkpt>
      <trkpt lat="44.82268" lon="5.48496">
        <ele>1640</ele>
        <time>2022-05-28T05:01:11.000Z</time>
      </trkpt>
      <trkpt lat="44.8227" lon="5.48498">
        <ele>1639.5999755859</ele>
        <time>2022-05-28T05:01:19.000Z</time>
      </trkpt>
      <trkpt lat="44.8227" lon="5.48499">
        <ele>1639.4000244141</ele>
        <time>2022-05-28T05:01:24.000Z</time>
      </trkpt>
      <trkpt lat="44.8227" lon="5.48498">
        <ele>1639.4000244141</ele>
        <time>2022-05-28T05:01:30.000Z</time>
      </trkpt>
      <trkpt lat="44.8227" lon="5.48499">
        <ele>1639.4000244141</ele>
        <time>2022-05-28T05:01:33.000Z</time>
      </trkpt>
      <trkpt lat="44.8227" lon="5.48499">
        <ele>1639.4000244141</ele>
        <time>2022-05-28T05:01:37.000Z</time>
      </trkpt>
      <trkpt lat="44.8227" lon="5.48499">
        <ele>1639.4000244141</ele>
        <time>2022-05-28T05:01:40.000Z</time>
      </trkpt>
      <trkpt lat="44.8227" lon="5.48499">
        <ele>1639.4000244141</ele>
        <time>2022-05-28T05:01:44.000Z</time>
      </trkpt>
      <trkpt lat="44.8227" lon="5.485">
        <ele>1639.1999511719</ele>
        <time>2022-05-28T05:01:47.000Z</time>
      </trkpt>
      <trkpt lat="44.82269" lon="5.48499">
        <ele>1639.4000244141</ele>
        <time>2022-05-28T05:01:51.000Z</time>
      </trkpt>
      <trkpt lat="44.82267" lon="5.48497">
        <ele>1639.5999755859</ele>
        <time>2022-05-28T05:01:56.000Z</time>
      </trkpt>
      <trkpt lat="44.82266" lon="5.48496">
        <ele>1639.8000488281</ele>
        <time>2022-05-28T05:02:02.000Z</time>
      </trkpt>
      <trkpt lat="44.82262" lon="5.48495">
        <ele>1639.5999755859</ele>
        <time>2022-05-28T05:02:08.000Z</time>
      </trkpt>
      <trkpt lat="44.82254" lon="5.48491">
        <ele>1639</ele>
        <time>2022-05-28T05:02:15.000Z</time>
      </trkpt>
      <trkpt lat="44.82241" lon="5.4849">
        <ele>1637.4000244141</ele>
        <time>2022-05-28T05:02:27.000Z</time>
      </trkpt>
      <trkpt lat="44.8224" lon="5.48491">
        <ele>1637.1999511719</ele>
        <time>2022-05-28T05:02:28.000Z</time>
      </trkpt>
      <trkpt lat="44.82239" lon="5.48491">
        <ele>1637.1999511719</ele>
        <time>2022-05-28T05:02:29.000Z</time>
      </trkpt>
      <trkpt lat="44.82237" lon="5.48491">
        <ele>1637</ele>
        <time>2022-05-28T05:02:30.000Z</time>
      </trkpt>
      <trkpt lat="44.82236" lon="5.48492">
        <ele>1637</ele>
        <time>2022-05-28T05:02:31.000Z</time>
      </trkpt>
      <trkpt lat="44.82228" lon="5.48496">
        <ele>1636.1999511719</ele>
        <time>2022-05-28T05:02:39.000Z</time>
      </trkpt>
      <trkpt lat="44.82198" lon="5.48486">
        <ele>1637.4000244141</ele>
        <time>2022-05-28T05:03:08.000Z</time>
      </trkpt>
      <trkpt lat="44.82197" lon="5.48486">
        <ele>1637.4000244141</ele>
        <time>2022-05-28T05:03:09.000Z</time>
      </trkpt>
      <trkpt lat="44.82177" lon="5.4848">
        <ele>1638.1999511719</ele>
        <time>2022-05-28T05:03:29.000Z</time>
      </trkpt>
      <trkpt lat="44.82169" lon="5.48471">
        <ele>1638</ele>
        <time>2022-05-28T05:03:39.000Z</time>
      </trkpt>
      <trkpt lat="44.82156" lon="5.48467">
        <ele>1638.1999511719</ele>
        <time>2022-05-28T05:03:53.000Z</time>
      </trkpt>
      <trkpt lat="44.82152" lon="5.4847">
        <ele>1638</ele>
        <time>2022-05-28T05:03:58.000Z</time>
      </trkpt>
      <trkpt lat="44.82135" lon="5.48484">
        <ele>1639.8000488281</ele>
        <time>2022-05-28T05:04:15.000Z</time>
      </trkpt>
      <trkpt lat="44.82133" lon="5.48485">
        <ele>1640</ele>
        <time>2022-05-28T05:04:16.000Z</time>
      </trkpt>
      <trkpt lat="44.8213" lon="5.48487">
        <ele>1639.8000488281</ele>
        <time>2022-05-28T05:04:19.000Z</time>
      </trkpt>
      <trkpt lat="44.82101" lon="5.48498">
        <ele>1639.1999511719</ele>
        <time>2022-05-28T05:04:45.000Z</time>
      </trkpt>
      <trkpt lat="44.82095" lon="5.48497">
        <ele>1639.1999511719</ele>
        <time>2022-05-28T05:04:54.000Z</time>
      </trkpt>
      <trkpt lat="44.82093" lon="5.48495">
        <ele>1639.4000244141</ele>
        <time>2022-05-28T05:04:56.000Z</time>
      </trkpt>
      <trkpt lat="44.82092" lon="5.48494">
        <ele>1639.4000244141</ele>
        <time>2022-05-28T05:04:57.000Z</time>
      </trkpt>
      <trkpt lat="44.82091" lon="5.48494">
        <ele>1639.4000244141</ele>
        <time>2022-05-28T05:04:58.000Z</time>
      </trkpt>
      <trkpt lat="44.8209" lon="5.48493">
        <ele>1639.4000244141</ele>
        <time>2022-05-28T05:04:59.000Z</time>
      </trkpt>
      <trkpt lat="44.82089" lon="5.48493">
        <ele>1639.1999511719</ele>
        <time>2022-05-28T05:05:01.000Z</time>
      </trkpt>
      <trkpt lat="44.82087" lon="5.48492">
        <ele>1639.1999511719</ele>
        <time>2022-05-28T05:05:04.000Z</time>
      </trkpt>
      <trkpt lat="44.82083" lon="5.48488">
        <ele>1639.1999511719</ele>
        <time>2022-05-28T05:05:09.000Z</time>
      </trkpt>
      <trkpt lat="44.82082" lon="5.48488">
        <ele>1639</ele>
        <time>2022-05-28T05:05:12.000Z</time>
      </trkpt>
      <trkpt lat="44.82077" lon="5.48484">
        <ele>1639</ele>
        <time>2022-05-28T05:05:22.000Z</time>
      </trkpt>
      <trkpt lat="44.82075" lon="5.48479">
        <ele>1639.1999511719</ele>
        <time>2022-05-28T05:05:26.000Z</time>
      </trkpt>
      <trkpt lat="44.82066" lon="5.48468">
        <ele>1639.5999755859</ele>
        <time>2022-05-28T05:05:37.000Z</time>
      </trkpt>
      <trkpt lat="44.82052" lon="5.48458">
        <ele>1641</ele>
        <time>2022-05-28T05:05:51.000Z</time>
      </trkpt>
      <trkpt lat="44.8204" lon="5.48449">
        <ele>1642.1999511719</ele>
        <time>2022-05-28T05:06:03.000Z</time>
      </trkpt>
      <trkpt lat="44.82009" lon="5.4843">
        <ele>1647</ele>
        <time>2022-05-28T05:06:45.000Z</time>
      </trkpt>
      <trkpt lat="44.81995" lon="5.48407">
        <ele>1650.1999511719</ele>
        <time>2022-05-28T05:07:11.000Z</time>
      </trkpt>
      <trkpt lat="44.81989" lon="5.48403">
        <ele>1650.5999755859</ele>
        <time>2022-05-28T05:07:17.000Z</time>
      </trkpt>
      <trkpt lat="44.81988" lon="5.48403">
        <ele>1650.8000488281</ele>
        <time>2022-05-28T05:07:18.000Z</time>
      </trkpt>
      <trkpt lat="44.81987" lon="5.48403">
        <ele>1650.8000488281</ele>
        <time>2022-05-28T05:07:19.000Z</time>
      </trkpt>
      <trkpt lat="44.81985" lon="5.48403">
        <ele>1650.8000488281</ele>
        <time>2022-05-28T05:07:24.000Z</time>
      </trkpt>
      <trkpt lat="44.81985" lon="5.48403">
        <ele>1650.8000488281</ele>
        <time>2022-05-28T05:07:25.000Z</time>
      </trkpt>
      <trkpt lat="44.81979" lon="5.48403">
        <ele>1651</ele>
        <time>2022-05-28T05:07:31.000Z</time>
      </trkpt>
      <trkpt lat="44.8196" lon="5.48396">
        <ele>1651.4000244141</ele>
        <time>2022-05-28T05:07:48.000Z</time>
      </trkpt>
      <trkpt lat="44.81957" lon="5.48386">
        <ele>1652</ele>
        <time>2022-05-28T05:07:55.000Z</time>
      </trkpt>
      <trkpt lat="44.81952" lon="5.48375">
        <ele>1652.1999511719</ele>
        <time>2022-05-28T05:08:04.000Z</time>
      </trkpt>
      <trkpt lat="44.81949" lon="5.48372">
        <ele>1652.4000244141</ele>
        <time>2022-05-28T05:08:09.000Z</time>
      </trkpt>
      <trkpt lat="44.81948" lon="5.48371">
        <ele>1652.5999755859</ele>
        <time>2022-05-28T05:08:10.000Z</time>
      </trkpt>
      <trkpt lat="44.81948" lon="5.4837">
        <ele>1652.5999755859</ele>
        <time>2022-05-28T05:08:11.000Z</time>
      </trkpt>
      <trkpt lat="44.81945" lon="5.48363">
        <ele>1652.8000488281</ele>
        <time>2022-05-28T05:08:16.000Z</time>
      </trkpt>
      <trkpt lat="44.81943" lon="5.48349">
        <ele>1653.1999511719</ele>
        <time>2022-05-28T05:08:24.000Z</time>
      </trkpt>
      <trkpt lat="44.81943" lon="5.48342">
        <ele>1653.1999511719</ele>
        <time>2022-05-28T05:08:28.000Z</time>
      </trkpt>
      <trkpt lat="44.81943" lon="5.48335">
        <ele>1653</ele>
        <time>2022-05-28T05:08:32.000Z</time>
      </trkpt>
      <trkpt lat="44.81927" lon="5.48274">
        <ele>1651.8000488281</ele>
        <time>2022-05-28T05:09:10.000Z</time>
      </trkpt>
      <trkpt lat="44.81924" lon="5.4825">
        <ele>1651.4000244141</ele>
        <time>2022-05-28T05:09:26.000Z</time>
      </trkpt>
      <trkpt lat="44.81922" lon="5.48243">
        <ele>1651.1999511719</ele>
        <time>2022-05-28T05:09:30.000Z</time>
      </trkpt>
      <trkpt lat="44.81921" lon="5.48238">
        <ele>1651.1999511719</ele>
        <time>2022-05-28T05:09:33.000Z</time>
      </trkpt>
      <trkpt lat="44.81915" lon="5.4822">
        <ele>1651.1999511719</ele>
        <time>2022-05-28T05:09:47.000Z</time>
      </trkpt>
      <trkpt lat="44.8191" lon="5.48213">
        <ele>1652</ele>
        <time>2022-05-28T05:09:55.000Z</time>
      </trkpt>
      <trkpt lat="44.81897" lon="5.48185">
        <ele>1653</ele>
        <time>2022-05-28T05:10:19.000Z</time>
      </trkpt>
      <trkpt lat="44.81893" lon="5.48187">
        <ele>1655.1999511719</ele>
        <time>2022-05-28T05:10:38.000Z</time>
      </trkpt>
      <trkpt lat="44.81894" lon="5.48186">
        <ele>1655</ele>
        <time>2022-05-28T05:10:41.000Z</time>
      </trkpt>
      <trkpt lat="44.81894" lon="5.48186">
        <ele>1654.5999755859</ele>
        <time>2022-05-28T05:10:44.000Z</time>
      </trkpt>
      <trkpt lat="44.81895" lon="5.48186">
        <ele>1654.4000244141</ele>
        <time>2022-05-28T05:10:45.000Z</time>
      </trkpt>
      <trkpt lat="44.81895" lon="5.48186">
        <ele>1654.4000244141</ele>
        <time>2022-05-28T05:10:46.000Z</time>
      </trkpt>
      <trkpt lat="44.81894" lon="5.48187">
        <ele>1655</ele>
        <time>2022-05-28T05:10:57.000Z</time>
      </trkpt>
      <trkpt lat="44.81893" lon="5.48187">
        <ele>1655.4000244141</ele>
        <time>2022-05-28T05:11:06.000Z</time>
      </trkpt>
      <trkpt lat="44.81892" lon="5.48185">
        <ele>1655.4000244141</ele>
        <time>2022-05-28T05:11:19.000Z</time>
      </trkpt>
      <trkpt lat="44.81893" lon="5.48184">
        <ele>1654.8000488281</ele>
        <time>2022-05-28T05:11:28.000Z</time>
      </trkpt>
      <trkpt lat="44.81892" lon="5.48176">
        <ele>1654.4000244141</ele>
        <time>2022-05-28T05:11:37.000Z</time>
      </trkpt>
      <trkpt lat="44.8189" lon="5.48171">
        <ele>1654.5999755859</ele>
        <time>2022-05-28T05:11:42.000Z</time>
      </trkpt>
      <trkpt lat="44.8189" lon="5.4817">
        <ele>1654.5999755859</ele>
        <time>2022-05-28T05:11:43.000Z</time>
      </trkpt>
      <trkpt lat="44.81885" lon="5.48161">
        <ele>1655.5999755859</ele>
        <time>2022-05-28T05:11:52.000Z</time>
      </trkpt>
      <trkpt lat="44.81883" lon="5.48159">
        <ele>1656.5999755859</ele>
        <time>2022-05-28T05:11:55.000Z</time>
      </trkpt>
      <trkpt lat="44.81878" lon="5.48157">
        <ele>1658.8000488281</ele>
        <time>2022-05-28T05:12:00.000Z</time>
      </trkpt>
      <trkpt lat="44.81873" lon="5.4815">
        <ele>1660.1999511719</ele>
        <time>2022-05-28T05:12:07.000Z</time>
      </trkpt>
      <trkpt lat="44.81871" lon="5.48145">
        <ele>1660.5999755859</ele>
        <time>2022-05-28T05:12:12.000Z</time>
      </trkpt>
      <trkpt lat="44.8187" lon="5.48142">
        <ele>1660.4000244141</ele>
        <time>2022-05-28T05:12:14.000Z</time>
      </trkpt>
      <trkpt lat="44.81867" lon="5.48135">
        <ele>1661</ele>
        <time>2022-05-28T05:12:22.000Z</time>
      </trkpt>
      <trkpt lat="44.81867" lon="5.48133">
        <ele>1661</ele>
        <time>2022-05-28T05:12:23.000Z</time>
      </trkpt>
      <trkpt lat="44.81866" lon="5.48133">
        <ele>1661</ele>
        <time>2022-05-28T05:12:24.000Z</time>
      </trkpt>
      <trkpt lat="44.81866" lon="5.48132">
        <ele>1660.8000488281</ele>
        <time>2022-05-28T05:12:25.000Z</time>
      </trkpt>
      <trkpt lat="44.81866" lon="5.48124">
        <ele>1659.1999511719</ele>
        <time>2022-05-28T05:12:34.000Z</time>
      </trkpt>
      <trkpt lat="44.81861" lon="5.4812">
        <ele>1661.5999755859</ele>
        <time>2022-05-28T05:12:42.000Z</time>
      </trkpt>
      <trkpt lat="44.81848" lon="5.48116">
        <ele>1668.5999755859</ele>
        <time>2022-05-28T05:12:56.000Z</time>
      </trkpt>
      <trkpt lat="44.81845" lon="5.48101">
        <ele>1668.5999755859</ele>
        <time>2022-05-28T05:13:12.000Z</time>
      </trkpt>
      <trkpt lat="44.81845" lon="5.481">
        <ele>1668.5999755859</ele>
        <time>2022-05-28T05:13:13.000Z</time>
      </trkpt>
      <trkpt lat="44.81845" lon="5.48098">
        <ele>1668.5999755859</ele>
        <time>2022-05-28T05:13:15.000Z</time>
      </trkpt>
      <trkpt lat="44.81845" lon="5.48095">
        <ele>1668.4000244141</ele>
        <time>2022-05-28T05:13:18.000Z</time>
      </trkpt>
      <trkpt lat="44.81841" lon="5.48081">
        <ele>1669.1999511719</ele>
        <time>2022-05-28T05:13:31.000Z</time>
      </trkpt>
      <trkpt lat="44.81839" lon="5.48077">
        <ele>1669.5999755859</ele>
        <time>2022-05-28T05:13:35.000Z</time>
      </trkpt>
      <trkpt lat="44.81833" lon="5.48073">
        <ele>1670.4000244141</ele>
        <time>2022-05-28T05:13:47.000Z</time>
      </trkpt>
      <trkpt lat="44.81833" lon="5.48072">
        <ele>1670.4000244141</ele>
        <time>2022-05-28T05:13:52.000Z</time>
      </trkpt>
      <trkpt lat="44.81834" lon="5.48067">
        <ele>1670.5999755859</ele>
        <time>2022-05-28T05:14:03.000Z</time>
      </trkpt>
      <trkpt lat="44.81834" lon="5.48068">
        <ele>1670.5999755859</ele>
        <time>2022-05-28T05:14:04.000Z</time>
      </trkpt>
      <trkpt lat="44.81836" lon="5.48066">
        <ele>1670.8000488281</ele>
        <time>2022-05-28T05:14:18.000Z</time>
      </trkpt>
      <trkpt lat="44.81836" lon="5.48066">
        <ele>1670.5999755859</ele>
        <time>2022-05-28T05:14:23.000Z</time>
      </trkpt>
      <trkpt lat="44.81835" lon="5.48066">
        <ele>1670.8000488281</ele>
        <time>2022-05-28T05:14:29.000Z</time>
      </trkpt>
      <trkpt lat="44.81834" lon="5.48067">
        <ele>1670.8000488281</ele>
        <time>2022-05-28T05:14:30.000Z</time>
      </trkpt>
      <trkpt lat="44.81824" lon="5.48058">
        <ele>1672.1999511719</ele>
        <time>2022-05-28T05:14:45.000Z</time>
      </trkpt>
      <trkpt lat="44.8182" lon="5.48044">
        <ele>1671.8000488281</ele>
        <time>2022-05-28T05:14:57.000Z</time>
      </trkpt>
      <trkpt lat="44.81819" lon="5.48041">
        <ele>1671.5999755859</ele>
        <time>2022-05-28T05:15:00.000Z</time>
      </trkpt>
      <trkpt lat="44.81819" lon="5.4804">
        <ele>1671.5999755859</ele>
        <time>2022-05-28T05:15:01.000Z</time>
      </trkpt>
      <trkpt lat="44.81818" lon="5.48039">
        <ele>1671.5999755859</ele>
        <time>2022-05-28T05:15:02.000Z</time>
      </trkpt>
      <trkpt lat="44.81818" lon="5.48037">
        <ele>1671.4000244141</ele>
        <time>2022-05-28T05:15:04.000Z</time>
      </trkpt>
      <trkpt lat="44.81816" lon="5.48033">
        <ele>1671.1999511719</ele>
        <time>2022-05-28T05:15:07.000Z</time>
      </trkpt>
      <trkpt lat="44.81813" lon="5.48021">
        <ele>1669.5999755859</ele>
        <time>2022-05-28T05:15:14.000Z</time>
      </trkpt>
      <trkpt lat="44.81805" lon="5.48003">
        <ele>1664.8000488281</ele>
        <time>2022-05-28T05:15:26.000Z</time>
      </trkpt>
      <trkpt lat="44.81803" lon="5.48001">
        <ele>1664</ele>
        <time>2022-05-28T05:15:28.000Z</time>
      </trkpt>
      <trkpt lat="44.81791" lon="5.47988">
        <ele>1656.5999755859</ele>
        <time>2022-05-28T05:15:44.000Z</time>
      </trkpt>
      <trkpt lat="44.81786" lon="5.47985">
        <ele>1654.8000488281</ele>
        <time>2022-05-28T05:15:48.000Z</time>
      </trkpt>
      <trkpt lat="44.81786" lon="5.47984">
        <ele>1654.5999755859</ele>
        <time>2022-05-28T05:15:49.000Z</time>
      </trkpt>
      <trkpt lat="44.81785" lon="5.47983">
        <ele>1654.5999755859</ele>
        <time>2022-05-28T05:15:50.000Z</time>
      </trkpt>
      <trkpt lat="44.81784" lon="5.47982">
        <ele>1654.4000244141</ele>
        <time>2022-05-28T05:15:51.000Z</time>
      </trkpt>
      <trkpt lat="44.81782" lon="5.47981">
        <ele>1654.1999511719</ele>
        <time>2022-05-28T05:15:53.000Z</time>
      </trkpt>
      <trkpt lat="44.81781" lon="5.4798">
        <ele>1654.1999511719</ele>
        <time>2022-05-28T05:15:54.000Z</time>
      </trkpt>
      <trkpt lat="44.81776" lon="5.47975">
        <ele>1653.8000488281</ele>
        <time>2022-05-28T05:15:59.000Z</time>
      </trkpt>
      <trkpt lat="44.81774" lon="5.47974">
        <ele>1654</ele>
        <time>2022-05-28T05:16:01.000Z</time>
      </trkpt>
      <trkpt lat="44.81772" lon="5.47973">
        <ele>1654.1999511719</ele>
        <time>2022-05-28T05:16:03.000Z</time>
      </trkpt>
      <trkpt lat="44.81769" lon="5.47969">
        <ele>1653.1999511719</ele>
        <time>2022-05-28T05:16:06.000Z</time>
      </trkpt>
      <trkpt lat="44.81734" lon="5.4793">
        <ele>1654.5999755859</ele>
        <time>2022-05-28T05:16:45.000Z</time>
      </trkpt>
      <trkpt lat="44.81726" lon="5.47922">
        <ele>1653.8000488281</ele>
        <time>2022-05-28T05:16:53.000Z</time>
      </trkpt>
      <trkpt lat="44.81724" lon="5.47921">
        <ele>1653.4000244141</ele>
        <time>2022-05-28T05:16:55.000Z</time>
      </trkpt>
      <trkpt lat="44.81687" lon="5.47882">
        <ele>1644.8000488281</ele>
        <time>2022-05-28T05:17:34.000Z</time>
      </trkpt>
      <trkpt lat="44.81678" lon="5.47866">
        <ele>1646</ele>
        <time>2022-05-28T05:18:06.000Z</time>
      </trkpt>
      <trkpt lat="44.81669" lon="5.47854">
        <ele>1646.5999755859</ele>
        <time>2022-05-28T05:18:17.000Z</time>
      </trkpt>
      <trkpt lat="44.81661" lon="5.47846">
        <ele>1647</ele>
        <time>2022-05-28T05:18:39.000Z</time>
      </trkpt>
      <trkpt lat="44.8166" lon="5.47846">
        <ele>1647.1999511719</ele>
        <time>2022-05-28T05:18:44.000Z</time>
      </trkpt>
      <trkpt lat="44.81664" lon="5.47844">
        <ele>1645.5999755859</ele>
        <time>2022-05-28T05:19:07.000Z</time>
      </trkpt>
      <trkpt lat="44.81665" lon="5.47844">
        <ele>1645.4000244141</ele>
        <time>2022-05-28T05:19:14.000Z</time>
      </trkpt>
      <trkpt lat="44.81665" lon="5.47844">
        <ele>1645.4000244141</ele>
        <time>2022-05-28T05:19:22.000Z</time>
      </trkpt>
      <trkpt lat="44.81665" lon="5.47845">
        <ele>1645.5999755859</ele>
        <time>2022-05-28T05:19:30.000Z</time>
      </trkpt>
      <trkpt lat="44.81664" lon="5.47848">
        <ele>1646.8000488281</ele>
        <time>2022-05-28T05:19:45.000Z</time>
      </trkpt>
      <trkpt lat="44.81657" lon="5.47845">
        <ele>1648.4000244141</ele>
        <time>2022-05-28T05:20:05.000Z</time>
      </trkpt>
      <trkpt lat="44.81656" lon="5.47845">
        <ele>1648.4000244141</ele>
        <time>2022-05-28T05:20:06.000Z</time>
      </trkpt>
      <trkpt lat="44.81655" lon="5.47843">
        <ele>1648.5999755859</ele>
        <time>2022-05-28T05:20:08.000Z</time>
      </trkpt>
      <trkpt lat="44.81653" lon="5.47842">
        <ele>1649</ele>
        <time>2022-05-28T05:20:10.000Z</time>
      </trkpt>
      <trkpt lat="44.81649" lon="5.47841">
        <ele>1649.8000488281</ele>
        <time>2022-05-28T05:20:13.000Z</time>
      </trkpt>
      <trkpt lat="44.81646" lon="5.47839">
        <ele>1650.5999755859</ele>
        <time>2022-05-28T05:20:19.000Z</time>
      </trkpt>
      <trkpt lat="44.81631" lon="5.47827">
        <ele>1655.1999511719</ele>
        <time>2022-05-28T05:20:47.000Z</time>
      </trkpt>
      <trkpt lat="44.81628" lon="5.47823">
        <ele>1655.4000244141</ele>
        <time>2022-05-28T05:20:51.000Z</time>
      </trkpt>
      <trkpt lat="44.81624" lon="5.47821">
        <ele>1656.5999755859</ele>
        <time>2022-05-28T05:20:56.000Z</time>
      </trkpt>
      <trkpt lat="44.81624" lon="5.4782">
        <ele>1656.5999755859</ele>
        <time>2022-05-28T05:20:57.000Z</time>
      </trkpt>
      <trkpt lat="44.81615" lon="5.47794">
        <ele>1652</ele>
        <time>2022-05-28T05:21:15.000Z</time>
      </trkpt>
      <trkpt lat="44.81609" lon="5.47767">
        <ele>1643.5999755859</ele>
        <time>2022-05-28T05:21:39.000Z</time>
      </trkpt>
      <trkpt lat="44.81608" lon="5.4776">
        <ele>1639.5999755859</ele>
        <time>2022-05-28T05:21:43.000Z</time>
      </trkpt>
      <trkpt lat="44.81605" lon="5.47754">
        <ele>1638.1999511719</ele>
        <time>2022-05-28T05:21:48.000Z</time>
      </trkpt>
      <trkpt lat="44.81592" lon="5.47742">
        <ele>1644.5999755859</ele>
        <time>2022-05-28T05:22:01.000Z</time>
      </trkpt>
      <trkpt lat="44.81591" lon="5.47741">
        <ele>1644.8000488281</ele>
        <time>2022-05-28T05:22:02.000Z</time>
      </trkpt>
      <trkpt lat="44.81591" lon="5.47741">
        <ele>1645.1999511719</ele>
        <time>2022-05-28T05:22:03.000Z</time>
      </trkpt>
      <trkpt lat="44.8159" lon="5.4774">
        <ele>1645.4000244141</ele>
        <time>2022-05-28T05:22:04.000Z</time>
      </trkpt>
      <trkpt lat="44.81588" lon="5.4774">
        <ele>1646.1999511719</ele>
        <time>2022-05-28T05:22:06.000Z</time>
      </trkpt>
      <trkpt lat="44.81586" lon="5.47738">
        <ele>1646.8000488281</ele>
        <time>2022-05-28T05:22:08.000Z</time>
      </trkpt>
      <trkpt lat="44.81583" lon="5.47735">
        <ele>1647.5999755859</ele>
        <time>2022-05-28T05:22:12.000Z</time>
      </trkpt>
      <trkpt lat="44.81577" lon="5.47731">
        <ele>1650.5999755859</ele>
        <time>2022-05-28T05:22:20.000Z</time>
      </trkpt>
      <trkpt lat="44.81571" lon="5.47725">
        <ele>1652</ele>
        <time>2022-05-28T05:22:26.000Z</time>
      </trkpt>
      <trkpt lat="44.81569" lon="5.47723">
        <ele>1652.1999511719</ele>
        <time>2022-05-28T05:22:29.000Z</time>
      </trkpt>
      <trkpt lat="44.81566" lon="5.47719">
        <ele>1653.4000244141</ele>
        <time>2022-05-28T05:22:33.000Z</time>
      </trkpt>
      <trkpt lat="44.81562" lon="5.47716">
        <ele>1655</ele>
        <time>2022-05-28T05:22:38.000Z</time>
      </trkpt>
      <trkpt lat="44.81556" lon="5.47708">
        <ele>1655.4000244141</ele>
        <time>2022-05-28T05:22:45.000Z</time>
      </trkpt>
      <trkpt lat="44.81538" lon="5.47703">
        <ele>1659.1999511719</ele>
        <time>2022-05-28T05:23:05.000Z</time>
      </trkpt>
      <trkpt lat="44.8152" lon="5.47707">
        <ele>1662.1999511719</ele>
        <time>2022-05-28T05:23:25.000Z</time>
      </trkpt>
      <trkpt lat="44.81513" lon="5.47711">
        <ele>1662.8000488281</ele>
        <time>2022-05-28T05:23:34.000Z</time>
      </trkpt>
      <trkpt lat="44.81511" lon="5.47711">
        <ele>1662.8000488281</ele>
        <time>2022-05-28T05:23:36.000Z</time>
      </trkpt>
      <trkpt lat="44.8151" lon="5.47711">
        <ele>1663</ele>
        <time>2022-05-28T05:23:37.000Z</time>
      </trkpt>
      <trkpt lat="44.81508" lon="5.47711">
        <ele>1663</ele>
        <time>2022-05-28T05:23:38.000Z</time>
      </trkpt>
      <trkpt lat="44.81505" lon="5.47711">
        <ele>1662.8000488281</ele>
        <time>2022-05-28T05:23:41.000Z</time>
      </trkpt>
      <trkpt lat="44.81503" lon="5.47712">
        <ele>1662.8000488281</ele>
        <time>2022-05-28T05:23:43.000Z</time>
      </trkpt>
      <trkpt lat="44.81501" lon="5.47713">
        <ele>1662.8000488281</ele>
        <time>2022-05-28T05:23:45.000Z</time>
      </trkpt>
      <trkpt lat="44.81498" lon="5.47714">
        <ele>1662.8000488281</ele>
        <time>2022-05-28T05:23:48.000Z</time>
      </trkpt>
      <trkpt lat="44.81497" lon="5.47714">
        <ele>1663</ele>
        <time>2022-05-28T05:23:49.000Z</time>
      </trkpt>
      <trkpt lat="44.81495" lon="5.47715">
        <ele>1663</ele>
        <time>2022-05-28T05:23:50.000Z</time>
      </trkpt>
      <trkpt lat="44.81494" lon="5.47715">
        <ele>1663</ele>
        <time>2022-05-28T05:23:51.000Z</time>
      </trkpt>
      <trkpt lat="44.81493" lon="5.47716">
        <ele>1663.1999511719</ele>
        <time>2022-05-28T05:23:52.000Z</time>
      </trkpt>
      <trkpt lat="44.81487" lon="5.47716">
        <ele>1663.4000244141</ele>
        <time>2022-05-28T05:23:58.000Z</time>
      </trkpt>
      <trkpt lat="44.81472" lon="5.47714">
        <ele>1663.1999511719</ele>
        <time>2022-05-28T05:24:13.000Z</time>
      </trkpt>
      <trkpt lat="44.81463" lon="5.47711">
        <ele>1663</ele>
        <time>2022-05-28T05:24:20.000Z</time>
      </trkpt>
      <trkpt lat="44.81459" lon="5.47711">
        <ele>1662.8000488281</ele>
        <time>2022-05-28T05:24:25.000Z</time>
      </trkpt>
      <trkpt lat="44.81451" lon="5.4771">
        <ele>1662.4000244141</ele>
        <time>2022-05-28T05:24:33.000Z</time>
      </trkpt>
      <trkpt lat="44.8144" lon="5.47708">
        <ele>1661</ele>
        <time>2022-05-28T05:24:44.000Z</time>
      </trkpt>
      <trkpt lat="44.81433" lon="5.47708">
        <ele>1660.4000244141</ele>
        <time>2022-05-28T05:24:51.000Z</time>
      </trkpt>
      <trkpt lat="44.81428" lon="5.4771">
        <ele>1660</ele>
        <time>2022-05-28T05:24:57.000Z</time>
      </trkpt>
      <trkpt lat="44.81421" lon="5.47713">
        <ele>1659.4000244141</ele>
        <time>2022-05-28T05:25:02.000Z</time>
      </trkpt>
      <trkpt lat="44.81416" lon="5.47714">
        <ele>1658.8000488281</ele>
        <time>2022-05-28T05:25:06.000Z</time>
      </trkpt>
      <trkpt lat="44.81405" lon="5.47715">
        <ele>1656.8000488281</ele>
        <time>2022-05-28T05:25:29.000Z</time>
      </trkpt>
      <trkpt lat="44.81407" lon="5.47716">
        <ele>1657.1999511719</ele>
        <time>2022-05-28T05:26:16.000Z</time>
      </trkpt>
      <trkpt lat="44.81404" lon="5.47721">
        <ele>1657</ele>
        <time>2022-05-28T05:26:30.000Z</time>
      </trkpt>
      <trkpt lat="44.81402" lon="5.47723">
        <ele>1656.8000488281</ele>
        <time>2022-05-28T05:26:33.000Z</time>
      </trkpt>
      <trkpt lat="44.81398" lon="5.47723">
        <ele>1656.1999511719</ele>
        <time>2022-05-28T05:26:38.000Z</time>
      </trkpt>
      <trkpt lat="44.81394" lon="5.47723">
        <ele>1655.5999755859</ele>
        <time>2022-05-28T05:26:45.000Z</time>
      </trkpt>
      <trkpt lat="44.8139" lon="5.47727">
        <ele>1655.4000244141</ele>
        <time>2022-05-28T05:26:50.000Z</time>
      </trkpt>
      <trkpt lat="44.81387" lon="5.47728">
        <ele>1655.1999511719</ele>
        <time>2022-05-28T05:26:54.000Z</time>
      </trkpt>
      <trkpt lat="44.81386" lon="5.47728">
        <ele>1655</ele>
        <time>2022-05-28T05:26:56.000Z</time>
      </trkpt>
      <trkpt lat="44.81379" lon="5.47728">
        <ele>1654.1999511719</ele>
        <time>2022-05-28T05:27:05.000Z</time>
      </trkpt>
      <trkpt lat="44.81374" lon="5.47728">
        <ele>1653.8000488281</ele>
        <time>2022-05-28T05:27:09.000Z</time>
      </trkpt>
      <trkpt lat="44.81371" lon="5.47728">
        <ele>1653.5999755859</ele>
        <time>2022-05-28T05:27:12.000Z</time>
      </trkpt>
      <trkpt lat="44.81367" lon="5.47729">
        <ele>1653.4000244141</ele>
        <time>2022-05-28T05:27:16.000Z</time>
      </trkpt>
      <trkpt lat="44.81362" lon="5.4773">
        <ele>1653</ele>
        <time>2022-05-28T05:27:21.000Z</time>
      </trkpt>
      <trkpt lat="44.81348" lon="5.47733">
        <ele>1652.4000244141</ele>
        <time>2022-05-28T05:27:34.000Z</time>
      </trkpt>
      <trkpt lat="44.81335" lon="5.47734">
        <ele>1652</ele>
        <time>2022-05-28T05:27:46.000Z</time>
      </trkpt>
      <trkpt lat="44.81313" lon="5.47726">
        <ele>1650.4000244141</ele>
        <time>2022-05-28T05:28:10.000Z</time>
      </trkpt>
      <trkpt lat="44.81303" lon="5.47718">
        <ele>1649.4000244141</ele>
        <time>2022-05-28T05:28:22.000Z</time>
      </trkpt>
      <trkpt lat="44.81302" lon="5.47717">
        <ele>1649.4000244141</ele>
        <time>2022-05-28T05:28:23.000Z</time>
      </trkpt>
      <trkpt lat="44.813" lon="5.47717">
        <ele>1649.4000244141</ele>
        <time>2022-05-28T05:28:25.000Z</time>
      </trkpt>
      <trkpt lat="44.81299" lon="5.47716">
        <ele>1649.1999511719</ele>
        <time>2022-05-28T05:28:26.000Z</time>
      </trkpt>
      <trkpt lat="44.81297" lon="5.47716">
        <ele>1649.1999511719</ele>
        <time>2022-05-28T05:28:28.000Z</time>
      </trkpt>
      <trkpt lat="44.81292" lon="5.47714">
        <ele>1649</ele>
        <time>2022-05-28T05:28:33.000Z</time>
      </trkpt>
      <trkpt lat="44.81271" lon="5.47713">
        <ele>1648.5999755859</ele>
        <time>2022-05-28T05:28:53.000Z</time>
      </trkpt>
      <trkpt lat="44.81261" lon="5.47707">
        <ele>1648.4000244141</ele>
        <time>2022-05-28T05:29:05.000Z</time>
      </trkpt>
      <trkpt lat="44.81231" lon="5.4766">
        <ele>1648</ele>
        <time>2022-05-28T05:29:44.000Z</time>
      </trkpt>
      <trkpt lat="44.81211" lon="5.4766">
        <ele>1647.5999755859</ele>
        <time>2022-05-28T05:30:09.000Z</time>
      </trkpt>
      <trkpt lat="44.81193" lon="5.47669">
        <ele>1648.4000244141</ele>
        <time>2022-05-28T05:30:31.000Z</time>
      </trkpt>
      <trkpt lat="44.81184" lon="5.47672">
        <ele>1649</ele>
        <time>2022-05-28T05:30:42.000Z</time>
      </trkpt>
      <trkpt lat="44.81182" lon="5.47668">
        <ele>1648.8000488281</ele>
        <time>2022-05-28T05:30:45.000Z</time>
      </trkpt>
      <trkpt lat="44.8118" lon="5.47663">
        <ele>1648.4000244141</ele>
        <time>2022-05-28T05:30:49.000Z</time>
      </trkpt>
      <trkpt lat="44.81179" lon="5.47662">
        <ele>1648.1999511719</ele>
        <time>2022-05-28T05:30:50.000Z</time>
      </trkpt>
      <trkpt lat="44.81178" lon="5.47659">
        <ele>1648</ele>
        <time>2022-05-28T05:30:52.000Z</time>
      </trkpt>
      <trkpt lat="44.81177" lon="5.47658">
        <ele>1647.8000488281</ele>
        <time>2022-05-28T05:30:53.000Z</time>
      </trkpt>
      <trkpt lat="44.81177" lon="5.47657">
        <ele>1647.5999755859</ele>
        <time>2022-05-28T05:30:54.000Z</time>
      </trkpt>
      <trkpt lat="44.81176" lon="5.47655">
        <ele>1647.4000244141</ele>
        <time>2022-05-28T05:30:56.000Z</time>
      </trkpt>
      <trkpt lat="44.81173" lon="5.47652">
        <ele>1647.1999511719</ele>
        <time>2022-05-28T05:30:59.000Z</time>
      </trkpt>
      <trkpt lat="44.81171" lon="5.4765">
        <ele>1647.1999511719</ele>
        <time>2022-05-28T05:31:01.000Z</time>
      </trkpt>
      <trkpt lat="44.81167" lon="5.47646">
        <ele>1647</ele>
        <time>2022-05-28T05:31:05.000Z</time>
      </trkpt>
      <trkpt lat="44.81166" lon="5.47642">
        <ele>1646.5999755859</ele>
        <time>2022-05-28T05:31:08.000Z</time>
      </trkpt>
      <trkpt lat="44.81164" lon="5.47639">
        <ele>1646.4000244141</ele>
        <time>2022-05-28T05:31:11.000Z</time>
      </trkpt>
      <trkpt lat="44.81151" lon="5.47613">
        <ele>1645</ele>
        <time>2022-05-28T05:31:33.000Z</time>
      </trkpt>
      <trkpt lat="44.81136" lon="5.47602">
        <ele>1646</ele>
        <time>2022-05-28T05:31:45.000Z</time>
      </trkpt>
      <trkpt lat="44.81126" lon="5.47596">
        <ele>1647.1999511719</ele>
        <time>2022-05-28T05:31:55.000Z</time>
      </trkpt>
      <trkpt lat="44.81112" lon="5.47596">
        <ele>1648.5999755859</ele>
        <time>2022-05-28T05:32:14.000Z</time>
      </trkpt>
      <trkpt lat="44.81104" lon="5.47594">
        <ele>1649</ele>
        <time>2022-05-28T05:32:25.000Z</time>
      </trkpt>
      <trkpt lat="44.81066" lon="5.4762">
        <ele>1653.4000244141</ele>
        <time>2022-05-28T05:33:13.000Z</time>
      </trkpt>
      <trkpt lat="44.81062" lon="5.47626">
        <ele>1654.1999511719</ele>
        <time>2022-05-28T05:33:20.000Z</time>
      </trkpt>
      <trkpt lat="44.81047" lon="5.4762">
        <ele>1653.4000244141</ele>
        <time>2022-05-28T05:33:43.000Z</time>
      </trkpt>
      <trkpt lat="44.81028" lon="5.47614">
        <ele>1653</ele>
        <time>2022-05-28T05:34:06.000Z</time>
      </trkpt>
      <trkpt lat="44.81004" lon="5.47608">
        <ele>1653.1999511719</ele>
        <time>2022-05-28T05:34:32.000Z</time>
      </trkpt>
      <trkpt lat="44.80999" lon="5.4761">
        <ele>1653.1999511719</ele>
        <time>2022-05-28T05:34:38.000Z</time>
      </trkpt>
      <trkpt lat="44.8099" lon="5.47613">
        <ele>1652.8000488281</ele>
        <time>2022-05-28T05:34:47.000Z</time>
      </trkpt>
      <trkpt lat="44.80944" lon="5.47614">
        <ele>1647.1999511719</ele>
        <time>2022-05-28T05:35:32.000Z</time>
      </trkpt>
      <trkpt lat="44.80899" lon="5.47609">
        <ele>1638.8000488281</ele>
        <time>2022-05-28T05:36:15.000Z</time>
      </trkpt>
      <trkpt lat="44.80892" lon="5.47606">
        <ele>1637.5999755859</ele>
        <time>2022-05-28T05:36:28.000Z</time>
      </trkpt>
      <trkpt lat="44.80892" lon="5.47606">
        <ele>1637.5999755859</ele>
        <time>2022-05-28T05:36:29.000Z</time>
      </trkpt>
      <trkpt lat="44.80891" lon="5.47606">
        <ele>1637.4000244141</ele>
        <time>2022-05-28T05:36:33.000Z</time>
      </trkpt>
      <trkpt lat="44.80891" lon="5.47608">
        <ele>1638.1999511719</ele>
        <time>2022-05-28T05:36:35.000Z</time>
      </trkpt>
      <trkpt lat="44.80891" lon="5.47609">
        <ele>1638.4000244141</ele>
        <time>2022-05-28T05:36:37.000Z</time>
      </trkpt>
      <trkpt lat="44.80891" lon="5.47609">
        <ele>1638.4000244141</ele>
        <time>2022-05-28T05:36:38.000Z</time>
      </trkpt>
      <trkpt lat="44.80891" lon="5.47611">
        <ele>1639</ele>
        <time>2022-05-28T05:36:42.000Z</time>
      </trkpt>
      <trkpt lat="44.80893" lon="5.47613">
        <ele>1639.5999755859</ele>
        <time>2022-05-28T05:36:49.000Z</time>
      </trkpt>
      <trkpt lat="44.80893" lon="5.47613">
        <ele>1639.5999755859</ele>
        <time>2022-05-28T05:36:53.000Z</time>
      </trkpt>
      <trkpt lat="44.80893" lon="5.47613">
        <ele>1639.5999755859</ele>
        <time>2022-05-28T05:36:58.000Z</time>
      </trkpt>
      <trkpt lat="44.80893" lon="5.47612">
        <ele>1639.4000244141</ele>
        <time>2022-05-28T05:37:01.000Z</time>
      </trkpt>
      <trkpt lat="44.80892" lon="5.4761">
        <ele>1638.8000488281</ele>
        <time>2022-05-28T05:37:05.000Z</time>
      </trkpt>
      <trkpt lat="44.8089" lon="5.47604">
        <ele>1636.8000488281</ele>
        <time>2022-05-28T05:37:10.000Z</time>
      </trkpt>
      <trkpt lat="44.80888" lon="5.47603">
        <ele>1636.5999755859</ele>
        <time>2022-05-28T05:37:15.000Z</time>
      </trkpt>
      <trkpt lat="44.80888" lon="5.47602">
        <ele>1636.1999511719</ele>
        <time>2022-05-28T05:37:21.000Z</time>
      </trkpt>
      <trkpt lat="44.80886" lon="5.47599">
        <ele>1635.1999511719</ele>
        <time>2022-05-28T05:37:26.000Z</time>
      </trkpt>
      <trkpt lat="44.80884" lon="5.47596">
        <ele>1634.4000244141</ele>
        <time>2022-05-28T05:37:32.000Z</time>
      </trkpt>
      <trkpt lat="44.80882" lon="5.47596">
        <ele>1634.1999511719</ele>
        <time>2022-05-28T05:37:37.000Z</time>
      </trkpt>
      <trkpt lat="44.8088" lon="5.47604">
        <ele>1636.5999755859</ele>
        <time>2022-05-28T05:37:49.000Z</time>
      </trkpt>
      <trkpt lat="44.80879" lon="5.47607">
        <ele>1637.1999511719</ele>
        <time>2022-05-28T05:37:53.000Z</time>
      </trkpt>
      <trkpt lat="44.80876" lon="5.47605">
        <ele>1636.8000488281</ele>
        <time>2022-05-28T05:37:59.000Z</time>
      </trkpt>
      <trkpt lat="44.80875" lon="5.47605">
        <ele>1636.5999755859</ele>
        <time>2022-05-28T05:38:03.000Z</time>
      </trkpt>
      <trkpt lat="44.80876" lon="5.47607">
        <ele>1637.1999511719</ele>
        <time>2022-05-28T05:38:06.000Z</time>
      </trkpt>
      <trkpt lat="44.80876" lon="5.47607">
        <ele>1637</ele>
        <time>2022-05-28T05:38:08.000Z</time>
      </trkpt>
      <trkpt lat="44.80874" lon="5.47606">
        <ele>1636.8000488281</ele>
        <time>2022-05-28T05:38:14.000Z</time>
      </trkpt>
      <trkpt lat="44.80865" lon="5.47597">
        <ele>1633.8000488281</ele>
        <time>2022-05-28T05:38:25.000Z</time>
      </trkpt>
      <trkpt lat="44.80853" lon="5.47592">
        <ele>1631.4000244141</ele>
        <time>2022-05-28T05:38:36.000Z</time>
      </trkpt>
      <trkpt lat="44.80838" lon="5.47591">
        <ele>1630</ele>
        <time>2022-05-28T05:38:51.000Z</time>
      </trkpt>
      <trkpt lat="44.80803" lon="5.47588">
        <ele>1626.5999755859</ele>
        <time>2022-05-28T05:39:22.000Z</time>
      </trkpt>
      <trkpt lat="44.80759" lon="5.47587">
        <ele>1622</ele>
        <time>2022-05-28T05:40:06.000Z</time>
      </trkpt>
      <trkpt lat="44.80756" lon="5.47587">
        <ele>1621.5999755859</ele>
        <time>2022-05-28T05:40:08.000Z</time>
      </trkpt>
      <trkpt lat="44.80737" lon="5.47587">
        <ele>1619</ele>
        <time>2022-05-28T05:40:19.000Z</time>
      </trkpt>
      <trkpt lat="44.80719" lon="5.47594">
        <ele>1619</ele>
        <time>2022-05-28T05:40:39.000Z</time>
      </trkpt>
      <trkpt lat="44.80689" lon="5.47611">
        <ele>1624.5999755859</ele>
        <time>2022-05-28T05:41:14.000Z</time>
      </trkpt>
      <trkpt lat="44.80647" lon="5.47639">
        <ele>1627</ele>
        <time>2022-05-28T05:42:08.000Z</time>
      </trkpt>
      <trkpt lat="44.80601" lon="5.47624">
        <ele>1626</ele>
        <time>2022-05-28T05:42:51.000Z</time>
      </trkpt>
      <trkpt lat="44.80555" lon="5.47622">
        <ele>1626.5999755859</ele>
        <time>2022-05-28T05:43:38.000Z</time>
      </trkpt>
      <trkpt lat="44.80512" lon="5.47628">
        <ele>1621.1999511719</ele>
        <time>2022-05-28T05:44:20.000Z</time>
      </trkpt>
      <trkpt lat="44.80505" lon="5.47626">
        <ele>1620</ele>
        <time>2022-05-28T05:44:28.000Z</time>
      </trkpt>
      <trkpt lat="44.805" lon="5.47626">
        <ele>1619.4000244141</ele>
        <time>2022-05-28T05:44:33.000Z</time>
      </trkpt>
      <trkpt lat="44.8049" lon="5.47636">
        <ele>1618.8000488281</ele>
        <time>2022-05-28T05:44:47.000Z</time>
      </trkpt>
      <trkpt lat="44.80481" lon="5.47645">
        <ele>1619.1999511719</ele>
        <time>2022-05-28T05:45:00.000Z</time>
      </trkpt>
      <trkpt lat="44.80468" lon="5.47643">
        <ele>1619.1999511719</ele>
        <time>2022-05-28T05:45:17.000Z</time>
      </trkpt>
      <trkpt lat="44.80462" lon="5.47641">
        <ele>1619.1999511719</ele>
        <time>2022-05-28T05:45:23.000Z</time>
      </trkpt>
      <trkpt lat="44.80441" lon="5.4763">
        <ele>1620.1999511719</ele>
        <time>2022-05-28T05:45:44.000Z</time>
      </trkpt>
      <trkpt lat="44.80425" lon="5.47616">
        <ele>1621.4000244141</ele>
        <time>2022-05-28T05:46:02.000Z</time>
      </trkpt>
      <trkpt lat="44.80416" lon="5.47607">
        <ele>1621.5999755859</ele>
        <time>2022-05-28T05:46:12.000Z</time>
      </trkpt>
      <trkpt lat="44.80413" lon="5.47606">
        <ele>1621.8000488281</ele>
        <time>2022-05-28T05:46:14.000Z</time>
      </trkpt>
      <trkpt lat="44.80397" lon="5.47596">
        <ele>1623</ele>
        <time>2022-05-28T05:46:31.000Z</time>
      </trkpt>
      <trkpt lat="44.80394" lon="5.47595">
        <ele>1623.1999511719</ele>
        <time>2022-05-28T05:46:34.000Z</time>
      </trkpt>
      <trkpt lat="44.80351" lon="5.47608">
        <ele>1626.5999755859</ele>
        <time>2022-05-28T05:47:27.000Z</time>
      </trkpt>
      <trkpt lat="44.80339" lon="5.47613">
        <ele>1627.1999511719</ele>
        <time>2022-05-28T05:47:40.000Z</time>
      </trkpt>
      <trkpt lat="44.80338" lon="5.47614">
        <ele>1627.1999511719</ele>
        <time>2022-05-28T05:47:41.000Z</time>
      </trkpt>
      <trkpt lat="44.80338" lon="5.47615">
        <ele>1627.4000244141</ele>
        <time>2022-05-28T05:47:42.000Z</time>
      </trkpt>
      <trkpt lat="44.80337" lon="5.47615">
        <ele>1627.4000244141</ele>
        <time>2022-05-28T05:47:43.000Z</time>
      </trkpt>
      <trkpt lat="44.80336" lon="5.47618">
        <ele>1627.4000244141</ele>
        <time>2022-05-28T05:47:45.000Z</time>
      </trkpt>
      <trkpt lat="44.80335" lon="5.47619">
        <ele>1627.4000244141</ele>
        <time>2022-05-28T05:47:47.000Z</time>
      </trkpt>
      <trkpt lat="44.80334" lon="5.4762">
        <ele>1627.5999755859</ele>
        <time>2022-05-28T05:47:49.000Z</time>
      </trkpt>
      <trkpt lat="44.8033" lon="5.47627">
        <ele>1627.8000488281</ele>
        <time>2022-05-28T05:47:58.000Z</time>
      </trkpt>
      <trkpt lat="44.80328" lon="5.47628">
        <ele>1627.8000488281</ele>
        <time>2022-05-28T05:48:00.000Z</time>
      </trkpt>
      <trkpt lat="44.80325" lon="5.47629">
        <ele>1627.5999755859</ele>
        <time>2022-05-28T05:48:03.000Z</time>
      </trkpt>
      <trkpt lat="44.80322" lon="5.47631">
        <ele>1627.4000244141</ele>
        <time>2022-05-28T05:48:07.000Z</time>
      </trkpt>
      <trkpt lat="44.80316" lon="5.47632">
        <ele>1627.4000244141</ele>
        <time>2022-05-28T05:48:10.000Z</time>
      </trkpt>
      <trkpt lat="44.80313" lon="5.47631">
        <ele>1627.8000488281</ele>
        <time>2022-05-28T05:48:12.000Z</time>
      </trkpt>
      <trkpt lat="44.80294" lon="5.47628">
        <ele>1633.1999511719</ele>
        <time>2022-05-28T05:48:27.000Z</time>
      </trkpt>
      <trkpt lat="44.80286" lon="5.4763">
        <ele>1634</ele>
        <time>2022-05-28T05:48:39.000Z</time>
      </trkpt>
      <trkpt lat="44.80284" lon="5.47632">
        <ele>1634.1999511719</ele>
        <time>2022-05-28T05:48:42.000Z</time>
      </trkpt>
      <trkpt lat="44.80283" lon="5.47632">
        <ele>1634.1999511719</ele>
        <time>2022-05-28T05:48:43.000Z</time>
      </trkpt>
      <trkpt lat="44.80282" lon="5.47633">
        <ele>1634.4000244141</ele>
        <time>2022-05-28T05:48:44.000Z</time>
      </trkpt>
      <trkpt lat="44.80281" lon="5.47633">
        <ele>1634.5999755859</ele>
        <time>2022-05-28T05:48:45.000Z</time>
      </trkpt>
      <trkpt lat="44.80281" lon="5.47634">
        <ele>1634.4000244141</ele>
        <time>2022-05-28T05:48:46.000Z</time>
      </trkpt>
      <trkpt lat="44.8028" lon="5.47634">
        <ele>1634.1999511719</ele>
        <time>2022-05-28T05:48:47.000Z</time>
      </trkpt>
      <trkpt lat="44.80277" lon="5.47638">
        <ele>1633.1999511719</ele>
        <time>2022-05-28T05:48:51.000Z</time>
      </trkpt>
      <trkpt lat="44.80273" lon="5.47642">
        <ele>1632.4000244141</ele>
        <time>2022-05-28T05:48:57.000Z</time>
      </trkpt>
      <trkpt lat="44.80271" lon="5.47645">
        <ele>1632</ele>
        <time>2022-05-28T05:49:00.000Z</time>
      </trkpt>
      <trkpt lat="44.80269" lon="5.47646">
        <ele>1631.8000488281</ele>
        <time>2022-05-28T05:49:02.000Z</time>
      </trkpt>
      <trkpt lat="44.80268" lon="5.47647">
        <ele>1631.5999755859</ele>
        <time>2022-05-28T05:49:04.000Z</time>
      </trkpt>
      <trkpt lat="44.80267" lon="5.47649">
        <ele>1631.5999755859</ele>
        <time>2022-05-28T05:49:07.000Z</time>
      </trkpt>
      <trkpt lat="44.80265" lon="5.47651">
        <ele>1631.5999755859</ele>
        <time>2022-05-28T05:49:10.000Z</time>
      </trkpt>
      <trkpt lat="44.80262" lon="5.47652">
        <ele>1631.8000488281</ele>
        <time>2022-05-28T05:49:13.000Z</time>
      </trkpt>
      <trkpt lat="44.80262" lon="5.47653">
        <ele>1631.5999755859</ele>
        <time>2022-05-28T05:49:17.000Z</time>
      </trkpt>
      <trkpt lat="44.80261" lon="5.47654">
        <ele>1631.5999755859</ele>
        <time>2022-05-28T05:49:21.000Z</time>
      </trkpt>
      <trkpt lat="44.80261" lon="5.47655">
        <ele>1631.5999755859</ele>
        <time>2022-05-28T05:49:23.000Z</time>
      </trkpt>
      <trkpt lat="44.80259" lon="5.47657">
        <ele>1631.5999755859</ele>
        <time>2022-05-28T05:49:26.000Z</time>
      </trkpt>
      <trkpt lat="44.80258" lon="5.47657">
        <ele>1631.8000488281</ele>
        <time>2022-05-28T05:49:27.000Z</time>
      </trkpt>
      <trkpt lat="44.80257" lon="5.47657">
        <ele>1632</ele>
        <time>2022-05-28T05:49:28.000Z</time>
      </trkpt>
      <trkpt lat="44.80256" lon="5.47658">
        <ele>1632.1999511719</ele>
        <time>2022-05-28T05:49:29.000Z</time>
      </trkpt>
      <trkpt lat="44.80255" lon="5.47659">
        <ele>1632.1999511719</ele>
        <time>2022-05-28T05:49:31.000Z</time>
      </trkpt>
      <trkpt lat="44.80253" lon="5.4766">
        <ele>1632.5999755859</ele>
        <time>2022-05-28T05:49:34.000Z</time>
      </trkpt>
      <trkpt lat="44.80245" lon="5.47657">
        <ele>1635.4000244141</ele>
        <time>2022-05-28T05:49:40.000Z</time>
      </trkpt>
      <trkpt lat="44.80225" lon="5.47661">
        <ele>1639.4000244141</ele>
        <time>2022-05-28T05:50:17.000Z</time>
      </trkpt>
      <trkpt lat="44.80224" lon="5.47661">
        <ele>1639.5999755859</ele>
        <time>2022-05-28T05:50:18.000Z</time>
      </trkpt>
      <trkpt lat="44.80224" lon="5.47661">
        <ele>1639.8000488281</ele>
        <time>2022-05-28T05:50:19.000Z</time>
      </trkpt>
      <trkpt lat="44.80223" lon="5.47661">
        <ele>1639.8000488281</ele>
        <time>2022-05-28T05:50:21.000Z</time>
      </trkpt>
      <trkpt lat="44.80222" lon="5.47663">
        <ele>1640</ele>
        <time>2022-05-28T05:50:25.000Z</time>
      </trkpt>
      <trkpt lat="44.80221" lon="5.47664">
        <ele>1640.1999511719</ele>
        <time>2022-05-28T05:50:28.000Z</time>
      </trkpt>
      <trkpt lat="44.8022" lon="5.47665">
        <ele>1640.1999511719</ele>
        <time>2022-05-28T05:50:30.000Z</time>
      </trkpt>
      <trkpt lat="44.80219" lon="5.47665">
        <ele>1640.4000244141</ele>
        <time>2022-05-28T05:50:31.000Z</time>
      </trkpt>
      <trkpt lat="44.80219" lon="5.47666">
        <ele>1640.4000244141</ele>
        <time>2022-05-28T05:50:32.000Z</time>
      </trkpt>
      <trkpt lat="44.80219" lon="5.47667">
        <ele>1640.4000244141</ele>
        <time>2022-05-28T05:50:34.000Z</time>
      </trkpt>
      <trkpt lat="44.80218" lon="5.47668">
        <ele>1640.4000244141</ele>
        <time>2022-05-28T05:50:35.000Z</time>
      </trkpt>
      <trkpt lat="44.80218" lon="5.47669">
        <ele>1640.4000244141</ele>
        <time>2022-05-28T05:50:36.000Z</time>
      </trkpt>
      <trkpt lat="44.80214" lon="5.47674">
        <ele>1640.8000488281</ele>
        <time>2022-05-28T05:50:42.000Z</time>
      </trkpt>
      <trkpt lat="44.80211" lon="5.47677">
        <ele>1641.4000244141</ele>
        <time>2022-05-28T05:50:46.000Z</time>
      </trkpt>
      <trkpt lat="44.80209" lon="5.47678">
        <ele>1641.8000488281</ele>
        <time>2022-05-28T05:50:48.000Z</time>
      </trkpt>
      <trkpt lat="44.80204" lon="5.47679">
        <ele>1643.4000244141</ele>
        <time>2022-05-28T05:50:53.000Z</time>
      </trkpt>
      <trkpt lat="44.80189" lon="5.47683">
        <ele>1648</ele>
        <time>2022-05-28T05:51:08.000Z</time>
      </trkpt>
      <trkpt lat="44.80187" lon="5.47684">
        <ele>1648.1999511719</ele>
        <time>2022-05-28T05:51:11.000Z</time>
      </trkpt>
      <trkpt lat="44.80187" lon="5.47685">
        <ele>1648.4000244141</ele>
        <time>2022-05-28T05:51:13.000Z</time>
      </trkpt>
      <trkpt lat="44.80186" lon="5.47686">
        <ele>1648.5999755859</ele>
        <time>2022-05-28T05:51:15.000Z</time>
      </trkpt>
      <trkpt lat="44.80184" lon="5.47689">
        <ele>1649.1999511719</ele>
        <time>2022-05-28T05:51:19.000Z</time>
      </trkpt>
      <trkpt lat="44.80182" lon="5.47691">
        <ele>1649.5999755859</ele>
        <time>2022-05-28T05:51:23.000Z</time>
      </trkpt>
      <trkpt lat="44.80182" lon="5.47692">
        <ele>1649.8000488281</ele>
        <time>2022-05-28T05:51:24.000Z</time>
      </trkpt>
      <trkpt lat="44.80181" lon="5.47692">
        <ele>1649.8000488281</ele>
        <time>2022-05-28T05:51:25.000Z</time>
      </trkpt>
      <trkpt lat="44.80181" lon="5.47693">
        <ele>1650</ele>
        <time>2022-05-28T05:51:26.000Z</time>
      </trkpt>
      <trkpt lat="44.80179" lon="5.47694">
        <ele>1650.4000244141</ele>
        <time>2022-05-28T05:51:28.000Z</time>
      </trkpt>
      <trkpt lat="44.80179" lon="5.47694">
        <ele>1650.5999755859</ele>
        <time>2022-05-28T05:51:29.000Z</time>
      </trkpt>
      <trkpt lat="44.80177" lon="5.47696">
        <ele>1651.4000244141</ele>
        <time>2022-05-28T05:51:32.000Z</time>
      </trkpt>
      <trkpt lat="44.80168" lon="5.477">
        <ele>1654.4000244141</ele>
        <time>2022-05-28T05:51:46.000Z</time>
      </trkpt>
      <trkpt lat="44.80166" lon="5.47701">
        <ele>1655.1999511719</ele>
        <time>2022-05-28T05:51:51.000Z</time>
      </trkpt>
      <trkpt lat="44.80161" lon="5.47702">
        <ele>1656.8000488281</ele>
        <time>2022-05-28T05:52:00.000Z</time>
      </trkpt>
      <trkpt lat="44.80156" lon="5.47702">
        <ele>1658.1999511719</ele>
        <time>2022-05-28T05:52:07.000Z</time>
      </trkpt>
      <trkpt lat="44.80156" lon="5.47703">
        <ele>1658.1999511719</ele>
        <time>2022-05-28T05:52:08.000Z</time>
      </trkpt>
      <trkpt lat="44.80153" lon="5.47704">
        <ele>1658.8000488281</ele>
        <time>2022-05-28T05:52:12.000Z</time>
      </trkpt>
      <trkpt lat="44.80146" lon="5.47706">
        <ele>1660.4000244141</ele>
        <time>2022-05-28T05:52:26.000Z</time>
      </trkpt>
      <trkpt lat="44.80143" lon="5.47708">
        <ele>1660.5999755859</ele>
        <time>2022-05-28T05:52:32.000Z</time>
      </trkpt>
      <trkpt lat="44.80142" lon="5.47711">
        <ele>1660.5999755859</ele>
        <time>2022-05-28T05:52:37.000Z</time>
      </trkpt>
      <trkpt lat="44.8014" lon="5.47712">
        <ele>1660.5999755859</ele>
        <time>2022-05-28T05:52:43.000Z</time>
      </trkpt>
      <trkpt lat="44.80138" lon="5.47714">
        <ele>1660.8000488281</ele>
        <time>2022-05-28T05:52:48.000Z</time>
      </trkpt>
      <trkpt lat="44.80121" lon="5.47711">
        <ele>1660.5999755859</ele>
        <time>2022-05-28T05:53:08.000Z</time>
      </trkpt>
      <trkpt lat="44.80115" lon="5.4771">
        <ele>1660.1999511719</ele>
        <time>2022-05-28T05:53:16.000Z</time>
      </trkpt>
      <trkpt lat="44.80111" lon="5.47707">
        <ele>1659.8000488281</ele>
        <time>2022-05-28T05:53:21.000Z</time>
      </trkpt>
      <trkpt lat="44.80089" lon="5.477">
        <ele>1657.4000244141</ele>
        <time>2022-05-28T05:53:45.000Z</time>
      </trkpt>
      <trkpt lat="44.80083" lon="5.47707">
        <ele>1656.4000244141</ele>
        <time>2022-05-28T05:53:52.000Z</time>
      </trkpt>
      <trkpt lat="44.80081" lon="5.47709">
        <ele>1656</ele>
        <time>2022-05-28T05:53:54.000Z</time>
      </trkpt>
      <trkpt lat="44.8008" lon="5.4771">
        <ele>1655.8000488281</ele>
        <time>2022-05-28T05:53:55.000Z</time>
      </trkpt>
      <trkpt lat="44.80072" lon="5.47716">
        <ele>1654.4000244141</ele>
        <time>2022-05-28T05:54:05.000Z</time>
      </trkpt>
      <trkpt lat="44.80071" lon="5.47717">
        <ele>1654.1999511719</ele>
        <time>2022-05-28T05:54:06.000Z</time>
      </trkpt>
      <trkpt lat="44.80066" lon="5.47723">
        <ele>1653.1999511719</ele>
        <time>2022-05-28T05:54:13.000Z</time>
      </trkpt>
      <trkpt lat="44.80059" lon="5.47725">
        <ele>1652.4000244141</ele>
        <time>2022-05-28T05:54:19.000Z</time>
      </trkpt>
      <trkpt lat="44.80059" lon="5.47724">
        <ele>1652.4000244141</ele>
        <time>2022-05-28T05:54:27.000Z</time>
      </trkpt>
      <trkpt lat="44.80056" lon="5.47724">
        <ele>1652</ele>
        <time>2022-05-28T05:54:45.000Z</time>
      </trkpt>
      <trkpt lat="44.80054" lon="5.47724">
        <ele>1651.8000488281</ele>
        <time>2022-05-28T05:54:49.000Z</time>
      </trkpt>
      <trkpt lat="44.80051" lon="5.47723">
        <ele>1651.5999755859</ele>
        <time>2022-05-28T05:54:59.000Z</time>
      </trkpt>
      <trkpt lat="44.80051" lon="5.47723">
        <ele>1651.5999755859</ele>
        <time>2022-05-28T05:55:05.000Z</time>
      </trkpt>
      <trkpt lat="44.80051" lon="5.47723">
        <ele>1651.5999755859</ele>
        <time>2022-05-28T05:55:12.000Z</time>
      </trkpt>
      <trkpt lat="44.8005" lon="5.47723">
        <ele>1651.4000244141</ele>
        <time>2022-05-28T05:55:22.000Z</time>
      </trkpt>
      <trkpt lat="44.80042" lon="5.47723">
        <ele>1650.5999755859</ele>
        <time>2022-05-28T05:55:34.000Z</time>
      </trkpt>
      <trkpt lat="44.80041" lon="5.47722">
        <ele>1650.4000244141</ele>
        <time>2022-05-28T05:55:44.000Z</time>
      </trkpt>
      <trkpt lat="44.80041" lon="5.47722">
        <ele>1650.4000244141</ele>
        <time>2022-05-28T05:56:00.000Z</time>
      </trkpt>
      <trkpt lat="44.8003" lon="5.47723">
        <ele>1649.1999511719</ele>
        <time>2022-05-28T05:56:24.000Z</time>
      </trkpt>
      <trkpt lat="44.80028" lon="5.47725">
        <ele>1649</ele>
        <time>2022-05-28T05:56:27.000Z</time>
      </trkpt>
      <trkpt lat="44.80025" lon="5.47726">
        <ele>1648.5999755859</ele>
        <time>2022-05-28T05:56:30.000Z</time>
      </trkpt>
      <trkpt lat="44.80021" lon="5.47724">
        <ele>1648.4000244141</ele>
        <time>2022-05-28T05:56:35.000Z</time>
      </trkpt>
      <trkpt lat="44.80017" lon="5.47723">
        <ele>1647.8000488281</ele>
        <time>2022-05-28T05:56:40.000Z</time>
      </trkpt>
      <trkpt lat="44.80013" lon="5.47723">
        <ele>1647.5999755859</ele>
        <time>2022-05-28T05:56:43.000Z</time>
      </trkpt>
      <trkpt lat="44.80006" lon="5.47723">
        <ele>1646.1999511719</ele>
        <time>2022-05-28T05:56:55.000Z</time>
      </trkpt>
      <trkpt lat="44.80005" lon="5.47722">
        <ele>1646.1999511719</ele>
        <time>2022-05-28T05:56:56.000Z</time>
      </trkpt>
      <trkpt lat="44.80004" lon="5.47723">
        <ele>1645.8000488281</ele>
        <time>2022-05-28T05:56:58.000Z</time>
      </trkpt>
      <trkpt lat="44.80001" lon="5.47724">
        <ele>1645</ele>
        <time>2022-05-28T05:57:04.000Z</time>
      </trkpt>
      <trkpt lat="44.79996" lon="5.47722">
        <ele>1644</ele>
        <time>2022-05-28T05:57:11.000Z</time>
      </trkpt>
      <trkpt lat="44.79988" lon="5.47721">
        <ele>1641.8000488281</ele>
        <time>2022-05-28T05:57:21.000Z</time>
      </trkpt>
      <trkpt lat="44.79973" lon="5.47715">
        <ele>1638.4000244141</ele>
        <time>2022-05-28T05:57:42.000Z</time>
      </trkpt>
      <trkpt lat="44.7996" lon="5.47717">
        <ele>1635.5999755859</ele>
        <time>2022-05-28T05:57:56.000Z</time>
      </trkpt>
      <trkpt lat="44.79921" lon="5.47744">
        <ele>1628.5999755859</ele>
        <time>2022-05-28T05:58:34.000Z</time>
      </trkpt>
      <trkpt lat="44.79895" lon="5.47737">
        <ele>1625.4000244141</ele>
        <time>2022-05-28T05:58:58.000Z</time>
      </trkpt>
      <trkpt lat="44.79889" lon="5.47735">
        <ele>1625.5999755859</ele>
        <time>2022-05-28T05:59:03.000Z</time>
      </trkpt>
      <trkpt lat="44.79878" lon="5.47739">
        <ele>1624.8000488281</ele>
        <time>2022-05-28T05:59:15.000Z</time>
      </trkpt>
      <trkpt lat="44.79842" lon="5.47753">
        <ele>1619.5999755859</ele>
        <time>2022-05-28T05:59:48.000Z</time>
      </trkpt>
      <trkpt lat="44.7984" lon="5.47753">
        <ele>1619.4000244141</ele>
        <time>2022-05-28T05:59:51.000Z</time>
      </trkpt>
      <trkpt lat="44.79839" lon="5.47753">
        <ele>1619.1999511719</ele>
        <time>2022-05-28T05:59:52.000Z</time>
      </trkpt>
      <trkpt lat="44.79829" lon="5.47753">
        <ele>1617.8000488281</ele>
        <time>2022-05-28T06:00:07.000Z</time>
      </trkpt>
      <trkpt lat="44.79824" lon="5.47753">
        <ele>1617.1999511719</ele>
        <time>2022-05-28T06:00:15.000Z</time>
      </trkpt>
      <trkpt lat="44.79826" lon="5.47754">
        <ele>1617.1999511719</ele>
        <time>2022-05-28T06:00:47.000Z</time>
      </trkpt>
      <trkpt lat="44.79821" lon="5.47756">
        <ele>1616.4000244141</ele>
        <time>2022-05-28T06:00:53.000Z</time>
      </trkpt>
      <trkpt lat="44.79815" lon="5.47761">
        <ele>1615.1999511719</ele>
        <time>2022-05-28T06:01:00.000Z</time>
      </trkpt>
      <trkpt lat="44.79814" lon="5.47762">
        <ele>1615.1999511719</ele>
        <time>2022-05-28T06:01:01.000Z</time>
      </trkpt>
      <trkpt lat="44.79812" lon="5.47764">
        <ele>1614.5999755859</ele>
        <time>2022-05-28T06:01:04.000Z</time>
      </trkpt>
      <trkpt lat="44.79807" lon="5.47767">
        <ele>1613.8000488281</ele>
        <time>2022-05-28T06:01:09.000Z</time>
      </trkpt>
      <trkpt lat="44.79806" lon="5.47767">
        <ele>1613.5999755859</ele>
        <time>2022-05-28T06:01:10.000Z</time>
      </trkpt>
      <trkpt lat="44.79802" lon="5.47766">
        <ele>1613.1999511719</ele>
        <time>2022-05-28T06:01:14.000Z</time>
      </trkpt>
      <trkpt lat="44.79798" lon="5.47764">
        <ele>1612.8000488281</ele>
        <time>2022-05-28T06:01:20.000Z</time>
      </trkpt>
      <trkpt lat="44.79797" lon="5.47764">
        <ele>1612.5999755859</ele>
        <time>2022-05-28T06:01:21.000Z</time>
      </trkpt>
      <trkpt lat="44.79796" lon="5.47763">
        <ele>1612.4000244141</ele>
        <time>2022-05-28T06:01:23.000Z</time>
      </trkpt>
      <trkpt lat="44.79792" lon="5.47761">
        <ele>1612</ele>
        <time>2022-05-28T06:01:27.000Z</time>
      </trkpt>
      <trkpt lat="44.79747" lon="5.47759">
        <ele>1609</ele>
        <time>2022-05-28T06:02:12.000Z</time>
      </trkpt>
      <trkpt lat="44.79705" lon="5.47768">
        <ele>1610.5999755859</ele>
        <time>2022-05-28T06:03:06.000Z</time>
      </trkpt>
      <trkpt lat="44.79702" lon="5.47769">
        <ele>1610.5999755859</ele>
        <time>2022-05-28T06:03:10.000Z</time>
      </trkpt>
      <trkpt lat="44.79686" lon="5.47772">
        <ele>1611.5999755859</ele>
        <time>2022-05-28T06:03:31.000Z</time>
      </trkpt>
      <trkpt lat="44.79656" lon="5.47801">
        <ele>1610.1999511719</ele>
        <time>2022-05-28T06:04:14.000Z</time>
      </trkpt>
      <trkpt lat="44.79647" lon="5.47802">
        <ele>1610.1999511719</ele>
        <time>2022-05-28T06:04:26.000Z</time>
      </trkpt>
      <trkpt lat="44.79643" lon="5.47803">
        <ele>1610.1999511719</ele>
        <time>2022-05-28T06:04:30.000Z</time>
      </trkpt>
      <trkpt lat="44.79624" lon="5.47803">
        <ele>1610.8000488281</ele>
        <time>2022-05-28T06:04:52.000Z</time>
      </trkpt>
      <trkpt lat="44.79621" lon="5.478">
        <ele>1611</ele>
        <time>2022-05-28T06:04:56.000Z</time>
      </trkpt>
      <trkpt lat="44.79615" lon="5.47791">
        <ele>1610.8000488281</ele>
        <time>2022-05-28T06:05:07.000Z</time>
      </trkpt>
      <trkpt lat="44.79598" lon="5.47733">
        <ele>1610.4000244141</ele>
        <time>2022-05-28T06:05:48.000Z</time>
      </trkpt>
      <trkpt lat="44.79592" lon="5.47718">
        <ele>1610.1999511719</ele>
        <time>2022-05-28T06:06:01.000Z</time>
      </trkpt>
      <trkpt lat="44.79591" lon="5.47717">
        <ele>1610.1999511719</ele>
        <time>2022-05-28T06:06:02.000Z</time>
      </trkpt>
      <trkpt lat="44.7959" lon="5.47714">
        <ele>1610.1999511719</ele>
        <time>2022-05-28T06:06:08.000Z</time>
      </trkpt>
      <trkpt lat="44.7958" lon="5.47709">
        <ele>1610</ele>
        <time>2022-05-28T06:06:22.000Z</time>
      </trkpt>
      <trkpt lat="44.79557" lon="5.47684">
        <ele>1610.4000244141</ele>
        <time>2022-05-28T06:07:21.000Z</time>
      </trkpt>
      <trkpt lat="44.79549" lon="5.4769">
        <ele>1609.8000488281</ele>
        <time>2022-05-28T06:07:32.000Z</time>
      </trkpt>
      <trkpt lat="44.79547" lon="5.47692">
        <ele>1609.5999755859</ele>
        <time>2022-05-28T06:07:34.000Z</time>
      </trkpt>
      <trkpt lat="44.7954" lon="5.47699">
        <ele>1609</ele>
        <time>2022-05-28T06:07:43.000Z</time>
      </trkpt>
      <trkpt lat="44.79536" lon="5.47703">
        <ele>1609</ele>
        <time>2022-05-28T06:07:47.000Z</time>
      </trkpt>
      <trkpt lat="44.79528" lon="5.47711">
        <ele>1609.8000488281</ele>
        <time>2022-05-28T06:07:57.000Z</time>
      </trkpt>
      <trkpt lat="44.79513" lon="5.47692">
        <ele>1611.5999755859</ele>
        <time>2022-05-28T06:08:21.000Z</time>
      </trkpt>
      <trkpt lat="44.79518" lon="5.47671">
        <ele>1612.5999755859</ele>
        <time>2022-05-28T06:08:54.000Z</time>
      </trkpt>
      <trkpt lat="44.79517" lon="5.47675">
        <ele>1612.4000244141</ele>
        <time>2022-05-28T06:09:25.000Z</time>
      </trkpt>
      <trkpt lat="44.79515" lon="5.47682">
        <ele>1612</ele>
        <time>2022-05-28T06:10:15.000Z</time>
      </trkpt>
      <trkpt lat="44.79515" lon="5.47682">
        <ele>1612</ele>
        <time>2022-05-28T06:10:26.000Z</time>
      </trkpt>
      <trkpt lat="44.79517" lon="5.47681">
        <ele>1612</ele>
        <time>2022-05-28T06:10:36.000Z</time>
      </trkpt>
      <trkpt lat="44.79517" lon="5.47681">
        <ele>1612</ele>
        <time>2022-05-28T06:10:42.000Z</time>
      </trkpt>
      <trkpt lat="44.79517" lon="5.47683">
        <ele>1611.8000488281</ele>
        <time>2022-05-28T06:10:49.000Z</time>
      </trkpt>
      <trkpt lat="44.79517" lon="5.47682">
        <ele>1611.8000488281</ele>
        <time>2022-05-28T06:10:55.000Z</time>
      </trkpt>
      <trkpt lat="44.79516" lon="5.47686">
        <ele>1611.5999755859</ele>
        <time>2022-05-28T06:11:04.000Z</time>
      </trkpt>
      <trkpt lat="44.79515" lon="5.4769">
        <ele>1611.5999755859</ele>
        <time>2022-05-28T06:11:08.000Z</time>
      </trkpt>
      <trkpt lat="44.79515" lon="5.47697">
        <ele>1611.4000244141</ele>
        <time>2022-05-28T06:11:12.000Z</time>
      </trkpt>
      <trkpt lat="44.79515" lon="5.47698">
        <ele>1611.1999511719</ele>
        <time>2022-05-28T06:11:14.000Z</time>
      </trkpt>
      <trkpt lat="44.79517" lon="5.47699">
        <ele>1611</ele>
        <time>2022-05-28T06:11:19.000Z</time>
      </trkpt>
      <trkpt lat="44.79516" lon="5.47699">
        <ele>1611.1999511719</ele>
        <time>2022-05-28T06:11:30.000Z</time>
      </trkpt>
      <trkpt lat="44.79514" lon="5.477">
        <ele>1611.4000244141</ele>
        <time>2022-05-28T06:11:50.000Z</time>
      </trkpt>
      <trkpt lat="44.79518" lon="5.47701">
        <ele>1611</ele>
        <time>2022-05-28T06:12:21.000Z</time>
      </trkpt>
      <trkpt lat="44.79516" lon="5.47688">
        <ele>1611.5999755859</ele>
        <time>2022-05-28T06:12:33.000Z</time>
      </trkpt>
      <trkpt lat="44.79532" lon="5.47644">
        <ele>1613.4000244141</ele>
        <time>2022-05-28T06:14:10.000Z</time>
      </trkpt>
      <trkpt lat="44.79536" lon="5.47636">
        <ele>1613.1999511719</ele>
        <time>2022-05-28T06:14:17.000Z</time>
      </trkpt>
      <trkpt lat="44.79547" lon="5.47612">
        <ele>1614.4000244141</ele>
        <time>2022-05-28T06:14:41.000Z</time>
      </trkpt>
      <trkpt lat="44.79549" lon="5.47605">
        <ele>1614.8000488281</ele>
        <time>2022-05-28T06:14:51.000Z</time>
      </trkpt>
      <trkpt lat="44.79556" lon="5.47585">
        <ele>1615.1999511719</ele>
        <time>2022-05-28T06:15:05.000Z</time>
      </trkpt>
      <trkpt lat="44.79563" lon="5.47542">
        <ele>1616.4000244141</ele>
        <time>2022-05-28T06:15:38.000Z</time>
      </trkpt>
      <trkpt lat="44.79565" lon="5.47537">
        <ele>1615.5999755859</ele>
        <time>2022-05-28T06:15:46.000Z</time>
      </trkpt>
      <trkpt lat="44.79566" lon="5.47535">
        <ele>1615.4000244141</ele>
        <time>2022-05-28T06:15:48.000Z</time>
      </trkpt>
      <trkpt lat="44.79569" lon="5.47523">
        <ele>1614.8000488281</ele>
        <time>2022-05-28T06:15:58.000Z</time>
      </trkpt>
      <trkpt lat="44.79571" lon="5.47499">
        <ele>1614</ele>
        <time>2022-05-28T06:16:13.000Z</time>
      </trkpt>
      <trkpt lat="44.79568" lon="5.47491">
        <ele>1614.4000244141</ele>
        <time>2022-05-28T06:16:18.000Z</time>
      </trkpt>
      <trkpt lat="44.79567" lon="5.47485">
        <ele>1614.5999755859</ele>
        <time>2022-05-28T06:16:22.000Z</time>
      </trkpt>
      <trkpt lat="44.79566" lon="5.47483">
        <ele>1614.5999755859</ele>
        <time>2022-05-28T06:16:23.000Z</time>
      </trkpt>
      <trkpt lat="44.79565" lon="5.47477">
        <ele>1614.8000488281</ele>
        <time>2022-05-28T06:16:27.000Z</time>
      </trkpt>
      <trkpt lat="44.79565" lon="5.47471">
        <ele>1614.8000488281</ele>
        <time>2022-05-28T06:16:31.000Z</time>
      </trkpt>
      <trkpt lat="44.79559" lon="5.47446">
        <ele>1613.5999755859</ele>
        <time>2022-05-28T06:16:46.000Z</time>
      </trkpt>
      <trkpt lat="44.79549" lon="5.47411">
        <ele>1611.4000244141</ele>
        <time>2022-05-28T06:17:10.000Z</time>
      </trkpt>
      <trkpt lat="44.79529" lon="5.47353">
        <ele>1613.5999755859</ele>
        <time>2022-05-28T06:17:50.000Z</time>
      </trkpt>
      <trkpt lat="44.79519" lon="5.4731">
        <ele>1616</ele>
        <time>2022-05-28T06:18:21.000Z</time>
      </trkpt>
      <trkpt lat="44.79497" lon="5.4726">
        <ele>1618.5999755859</ele>
        <time>2022-05-28T06:19:05.000Z</time>
      </trkpt>
      <trkpt lat="44.79481" lon="5.47232">
        <ele>1619.4000244141</ele>
        <time>2022-05-28T06:19:30.000Z</time>
      </trkpt>
      <trkpt lat="44.79479" lon="5.4723">
        <ele>1619.4000244141</ele>
        <time>2022-05-28T06:19:32.000Z</time>
      </trkpt>
      <trkpt lat="44.79479" lon="5.47229">
        <ele>1619.4000244141</ele>
        <time>2022-05-28T06:19:33.000Z</time>
      </trkpt>
      <trkpt lat="44.79478" lon="5.47228">
        <ele>1619.4000244141</ele>
        <time>2022-05-28T06:19:34.000Z</time>
      </trkpt>
      <trkpt lat="44.79478" lon="5.47227">
        <ele>1619.4000244141</ele>
        <time>2022-05-28T06:19:35.000Z</time>
      </trkpt>
      <trkpt lat="44.79476" lon="5.47224">
        <ele>1619.5999755859</ele>
        <time>2022-05-28T06:19:37.000Z</time>
      </trkpt>
      <trkpt lat="44.79475" lon="5.47223">
        <ele>1619.5999755859</ele>
        <time>2022-05-28T06:19:38.000Z</time>
      </trkpt>
      <trkpt lat="44.79473" lon="5.47219">
        <ele>1619.5999755859</ele>
        <time>2022-05-28T06:19:41.000Z</time>
      </trkpt>
      <trkpt lat="44.79472" lon="5.47217">
        <ele>1619.5999755859</ele>
        <time>2022-05-28T06:19:43.000Z</time>
      </trkpt>
      <trkpt lat="44.79471" lon="5.47214">
        <ele>1619.4000244141</ele>
        <time>2022-05-28T06:19:45.000Z</time>
      </trkpt>
      <trkpt lat="44.7947" lon="5.47211">
        <ele>1619.4000244141</ele>
        <time>2022-05-28T06:19:47.000Z</time>
      </trkpt>
      <trkpt lat="44.79468" lon="5.47208">
        <ele>1619.4000244141</ele>
        <time>2022-05-28T06:19:49.000Z</time>
      </trkpt>
      <trkpt lat="44.79466" lon="5.47206">
        <ele>1619.4000244141</ele>
        <time>2022-05-28T06:19:51.000Z</time>
      </trkpt>
      <trkpt lat="44.79465" lon="5.47204">
        <ele>1619.4000244141</ele>
        <time>2022-05-28T06:19:53.000Z</time>
      </trkpt>
      <trkpt lat="44.79462" lon="5.47199">
        <ele>1619.5999755859</ele>
        <time>2022-05-28T06:19:56.000Z</time>
      </trkpt>
      <trkpt lat="44.79456" lon="5.47191">
        <ele>1619.5999755859</ele>
        <time>2022-05-28T06:20:02.000Z</time>
      </trkpt>
      <trkpt lat="44.79439" lon="5.47172">
        <ele>1619.8000488281</ele>
        <time>2022-05-28T06:20:19.000Z</time>
      </trkpt>
      <trkpt lat="44.79411" lon="5.4714">
        <ele>1623</ele>
        <time>2022-05-28T06:20:51.000Z</time>
      </trkpt>
      <trkpt lat="44.79407" lon="5.47137">
        <ele>1624</ele>
        <time>2022-05-28T06:20:56.000Z</time>
      </trkpt>
      <trkpt lat="44.79404" lon="5.47133">
        <ele>1624.4000244141</ele>
        <time>2022-05-28T06:21:01.000Z</time>
      </trkpt>
      <trkpt lat="44.79395" lon="5.47094">
        <ele>1621.8000488281</ele>
        <time>2022-05-28T06:21:37.000Z</time>
      </trkpt>
      <trkpt lat="44.79375" lon="5.47041">
        <ele>1626.5999755859</ele>
        <time>2022-05-28T06:22:20.000Z</time>
      </trkpt>
      <trkpt lat="44.79375" lon="5.47037">
        <ele>1625.8000488281</ele>
        <time>2022-05-28T06:22:23.000Z</time>
      </trkpt>
      <trkpt lat="44.79377" lon="5.47031">
        <ele>1624.5999755859</ele>
        <time>2022-05-28T06:22:30.000Z</time>
      </trkpt>
      <trkpt lat="44.79378" lon="5.47031">
        <ele>1624.4000244141</ele>
        <time>2022-05-28T06:22:31.000Z</time>
      </trkpt>
      <trkpt lat="44.79378" lon="5.4703">
        <ele>1624.4000244141</ele>
        <time>2022-05-28T06:22:32.000Z</time>
      </trkpt>
      <trkpt lat="44.79377" lon="5.47027">
        <ele>1624.5999755859</ele>
        <time>2022-05-28T06:22:34.000Z</time>
      </trkpt>
      <trkpt lat="44.79376" lon="5.47025">
        <ele>1624.5999755859</ele>
        <time>2022-05-28T06:22:35.000Z</time>
      </trkpt>
      <trkpt lat="44.79375" lon="5.47024">
        <ele>1624.5999755859</ele>
        <time>2022-05-28T06:22:36.000Z</time>
      </trkpt>
      <trkpt lat="44.79372" lon="5.47007">
        <ele>1624</ele>
        <time>2022-05-28T06:22:47.000Z</time>
      </trkpt>
      <trkpt lat="44.79371" lon="5.47003">
        <ele>1623.8000488281</ele>
        <time>2022-05-28T06:22:50.000Z</time>
      </trkpt>
      <trkpt lat="44.7937" lon="5.46998">
        <ele>1623.8000488281</ele>
        <time>2022-05-28T06:22:53.000Z</time>
      </trkpt>
      <trkpt lat="44.79369" lon="5.46993">
        <ele>1623.8000488281</ele>
        <time>2022-05-28T06:22:58.000Z</time>
      </trkpt>
      <trkpt lat="44.79368" lon="5.46991">
        <ele>1623.8000488281</ele>
        <time>2022-05-28T06:22:59.000Z</time>
      </trkpt>
      <trkpt lat="44.79367" lon="5.46983">
        <ele>1624</ele>
        <time>2022-05-28T06:23:05.000Z</time>
      </trkpt>
      <trkpt lat="44.79363" lon="5.46972">
        <ele>1625</ele>
        <time>2022-05-28T06:23:14.000Z</time>
      </trkpt>
      <trkpt lat="44.79359" lon="5.46956">
        <ele>1626.5999755859</ele>
        <time>2022-05-28T06:23:32.000Z</time>
      </trkpt>
      <trkpt lat="44.79358" lon="5.46954">
        <ele>1626.5999755859</ele>
        <time>2022-05-28T06:23:34.000Z</time>
      </trkpt>
      <trkpt lat="44.79358" lon="5.46952">
        <ele>1626.8000488281</ele>
        <time>2022-05-28T06:23:35.000Z</time>
      </trkpt>
      <trkpt lat="44.79357" lon="5.4695">
        <ele>1627.1999511719</ele>
        <time>2022-05-28T06:23:37.000Z</time>
      </trkpt>
      <trkpt lat="44.79357" lon="5.46949">
        <ele>1627.1999511719</ele>
        <time>2022-05-28T06:23:38.000Z</time>
      </trkpt>
      <trkpt lat="44.79356" lon="5.46946">
        <ele>1627.8000488281</ele>
        <time>2022-05-28T06:23:41.000Z</time>
      </trkpt>
      <trkpt lat="44.79355" lon="5.46944">
        <ele>1628.4000244141</ele>
        <time>2022-05-28T06:23:43.000Z</time>
      </trkpt>
      <trkpt lat="44.79354" lon="5.46942">
        <ele>1628.8000488281</ele>
        <time>2022-05-28T06:23:45.000Z</time>
      </trkpt>
      <trkpt lat="44.79352" lon="5.46935">
        <ele>1629.5999755859</ele>
        <time>2022-05-28T06:23:54.000Z</time>
      </trkpt>
      <trkpt lat="44.79352" lon="5.46934">
        <ele>1629.8000488281</ele>
        <time>2022-05-28T06:23:57.000Z</time>
      </trkpt>
      <trkpt lat="44.79352" lon="5.46934">
        <ele>1629.8000488281</ele>
        <time>2022-05-28T06:23:58.000Z</time>
      </trkpt>
      <trkpt lat="44.79352" lon="5.46934">
        <ele>1629.8000488281</ele>
        <time>2022-05-28T06:23:59.000Z</time>
      </trkpt>
      <trkpt lat="44.79349" lon="5.46933">
        <ele>1631.1999511719</ele>
        <time>2022-05-28T06:24:12.000Z</time>
      </trkpt>
      <trkpt lat="44.79349" lon="5.46933">
        <ele>1631</ele>
        <time>2022-05-28T06:24:16.000Z</time>
      </trkpt>
      <trkpt lat="44.7935" lon="5.46933">
        <ele>1630.8000488281</ele>
        <time>2022-05-28T06:24:24.000Z</time>
      </trkpt>
      <trkpt lat="44.7935" lon="5.46934">
        <ele>1630.8000488281</ele>
        <time>2022-05-28T06:24:44.000Z</time>
      </trkpt>
      <trkpt lat="44.79351" lon="5.46934">
        <ele>1630.4000244141</ele>
        <time>2022-05-28T06:24:49.000Z</time>
      </trkpt>
      <trkpt lat="44.79353" lon="5.46935">
        <ele>1629.1999511719</ele>
        <time>2022-05-28T06:25:01.000Z</time>
      </trkpt>
      <trkpt lat="44.79353" lon="5.46935">
        <ele>1629.1999511719</ele>
        <time>2022-05-28T06:25:05.000Z</time>
      </trkpt>
      <trkpt lat="44.79187" lon="5.47279">
        <ele>1628.1999511719</ele>
        <time>2022-05-28T07:49:06.000Z</time>
      </trkpt>
      <trkpt lat="44.79352" lon="5.47204">
        <ele>1647.4000244141</ele>
        <time>2022-05-28T07:49:07.000Z</time>
      </trkpt>
      <trkpt lat="44.79329" lon="5.47202">
        <ele>1648.1999511719</ele>
        <time>2022-05-28T07:49:11.000Z</time>
      </trkpt>
      <trkpt lat="44.79353" lon="5.46945">
        <ele>1628.8000488281</ele>
        <time>2022-05-28T07:49:25.000Z</time>
      </trkpt>
      <trkpt lat="44.79354" lon="5.4695">
        <ele>1628.5999755859</ele>
        <time>2022-05-28T07:49:29.000Z</time>
      </trkpt>
      <trkpt lat="44.79356" lon="5.46954">
        <ele>1627.8000488281</ele>
        <time>2022-05-28T07:49:32.000Z</time>
      </trkpt>
      <trkpt lat="44.79361" lon="5.46961">
        <ele>1625.5999755859</ele>
        <time>2022-05-28T07:49:39.000Z</time>
      </trkpt>
      <trkpt lat="44.79364" lon="5.46971">
        <ele>1624.4000244141</ele>
        <time>2022-05-28T07:49:47.000Z</time>
      </trkpt>
      <trkpt lat="44.79371" lon="5.47003">
        <ele>1623.8000488281</ele>
        <time>2022-05-28T07:50:11.000Z</time>
      </trkpt>
      <trkpt lat="44.7939" lon="5.47055">
        <ele>1622</ele>
        <time>2022-05-28T07:50:50.000Z</time>
      </trkpt>
      <trkpt lat="44.79406" lon="5.47079">
        <ele>1617.4000244141</ele>
        <time>2022-05-28T07:51:12.000Z</time>
      </trkpt>
      <trkpt lat="44.79412" lon="5.4709">
        <ele>1616.4000244141</ele>
        <time>2022-05-28T07:51:22.000Z</time>
      </trkpt>
      <trkpt lat="44.79424" lon="5.47111">
        <ele>1614.4000244141</ele>
        <time>2022-05-28T07:51:39.000Z</time>
      </trkpt>
      <trkpt lat="44.7944" lon="5.47164">
        <ele>1619</ele>
        <time>2022-05-28T07:52:21.000Z</time>
      </trkpt>
      <trkpt lat="44.79471" lon="5.4721">
        <ele>1619.1999511719</ele>
        <time>2022-05-28T07:53:07.000Z</time>
      </trkpt>
      <trkpt lat="44.79502" lon="5.47257">
        <ele>1618</ele>
        <time>2022-05-28T07:53:45.000Z</time>
      </trkpt>
      <trkpt lat="44.79512" lon="5.47287">
        <ele>1617.1999511719</ele>
        <time>2022-05-28T07:54:05.000Z</time>
      </trkpt>
      <trkpt lat="44.79514" lon="5.47293">
        <ele>1617</ele>
        <time>2022-05-28T07:54:09.000Z</time>
      </trkpt>
      <trkpt lat="44.79519" lon="5.47306">
        <ele>1616</ele>
        <time>2022-05-28T07:54:18.000Z</time>
      </trkpt>
      <trkpt lat="44.79534" lon="5.47366">
        <ele>1612.5999755859</ele>
        <time>2022-05-28T07:54:56.000Z</time>
      </trkpt>
      <trkpt lat="44.79555" lon="5.47423">
        <ele>1611.1999511719</ele>
        <time>2022-05-28T07:55:37.000Z</time>
      </trkpt>
      <trkpt lat="44.79558" lon="5.47428">
        <ele>1611.4000244141</ele>
        <time>2022-05-28T07:55:41.000Z</time>
      </trkpt>
      <trkpt lat="44.79566" lon="5.47445">
        <ele>1612</ele>
        <time>2022-05-28T07:56:01.000Z</time>
      </trkpt>
      <trkpt lat="44.79568" lon="5.4746">
        <ele>1613.1999511719</ele>
        <time>2022-05-28T07:56:12.000Z</time>
      </trkpt>
      <trkpt lat="44.79568" lon="5.47462">
        <ele>1613.4000244141</ele>
        <time>2022-05-28T07:56:13.000Z</time>
      </trkpt>
      <trkpt lat="44.79568" lon="5.47463">
        <ele>1613.4000244141</ele>
        <time>2022-05-28T07:56:14.000Z</time>
      </trkpt>
      <trkpt lat="44.79568" lon="5.47465">
        <ele>1613.5999755859</ele>
        <time>2022-05-28T07:56:15.000Z</time>
      </trkpt>
      <trkpt lat="44.79568" lon="5.47467">
        <ele>1613.8000488281</ele>
        <time>2022-05-28T07:56:16.000Z</time>
      </trkpt>
      <trkpt lat="44.79568" lon="5.47471">
        <ele>1614.1999511719</ele>
        <time>2022-05-28T07:56:19.000Z</time>
      </trkpt>
      <trkpt lat="44.7957" lon="5.4749">
        <ele>1614.1999511719</ele>
        <time>2022-05-28T07:56:32.000Z</time>
      </trkpt>
      <trkpt lat="44.79571" lon="5.47501">
        <ele>1613.8000488281</ele>
        <time>2022-05-28T07:56:39.000Z</time>
      </trkpt>
      <trkpt lat="44.7957" lon="5.47511">
        <ele>1614.1999511719</ele>
        <time>2022-05-28T07:56:47.000Z</time>
      </trkpt>
      <trkpt lat="44.7957" lon="5.47512">
        <ele>1614.4000244141</ele>
        <time>2022-05-28T07:56:48.000Z</time>
      </trkpt>
      <trkpt lat="44.79565" lon="5.47526">
        <ele>1615.8000488281</ele>
        <time>2022-05-28T07:57:02.000Z</time>
      </trkpt>
      <trkpt lat="44.79563" lon="5.47536">
        <ele>1616.1999511719</ele>
        <time>2022-05-28T07:57:11.000Z</time>
      </trkpt>
      <trkpt lat="44.79563" lon="5.47538">
        <ele>1616.4000244141</ele>
        <time>2022-05-28T07:57:13.000Z</time>
      </trkpt>
      <trkpt lat="44.79562" lon="5.4754">
        <ele>1616.4000244141</ele>
        <time>2022-05-28T07:57:14.000Z</time>
      </trkpt>
      <trkpt lat="44.79562" lon="5.47541">
        <ele>1616.5999755859</ele>
        <time>2022-05-28T07:57:15.000Z</time>
      </trkpt>
      <trkpt lat="44.79562" lon="5.47542">
        <ele>1616.5999755859</ele>
        <time>2022-05-28T07:57:16.000Z</time>
      </trkpt>
      <trkpt lat="44.79561" lon="5.47543">
        <ele>1616.8000488281</ele>
        <time>2022-05-28T07:57:17.000Z</time>
      </trkpt>
      <trkpt lat="44.79561" lon="5.47546">
        <ele>1616.8000488281</ele>
        <time>2022-05-28T07:57:20.000Z</time>
      </trkpt>
      <trkpt lat="44.7956" lon="5.4755">
        <ele>1617</ele>
        <time>2022-05-28T07:57:23.000Z</time>
      </trkpt>
      <trkpt lat="44.7956" lon="5.47551">
        <ele>1617.1999511719</ele>
        <time>2022-05-28T07:57:24.000Z</time>
      </trkpt>
      <trkpt lat="44.7956" lon="5.47553">
        <ele>1617</ele>
        <time>2022-05-28T07:57:25.000Z</time>
      </trkpt>
      <trkpt lat="44.79559" lon="5.47565">
        <ele>1616.4000244141</ele>
        <time>2022-05-28T07:57:34.000Z</time>
      </trkpt>
      <trkpt lat="44.79558" lon="5.47568">
        <ele>1616.5999755859</ele>
        <time>2022-05-28T07:57:36.000Z</time>
      </trkpt>
      <trkpt lat="44.79556" lon="5.47575">
        <ele>1616.5999755859</ele>
        <time>2022-05-28T07:57:41.000Z</time>
      </trkpt>
      <trkpt lat="44.79555" lon="5.47576">
        <ele>1616.4000244141</ele>
        <time>2022-05-28T07:57:42.000Z</time>
      </trkpt>
      <trkpt lat="44.79555" lon="5.47582">
        <ele>1615.5999755859</ele>
        <time>2022-05-28T07:57:46.000Z</time>
      </trkpt>
      <trkpt lat="44.79555" lon="5.47584">
        <ele>1615.5999755859</ele>
        <time>2022-05-28T07:57:47.000Z</time>
      </trkpt>
      <trkpt lat="44.79554" lon="5.47587">
        <ele>1615.4000244141</ele>
        <time>2022-05-28T07:57:49.000Z</time>
      </trkpt>
      <trkpt lat="44.79546" lon="5.47616">
        <ele>1614.4000244141</ele>
        <time>2022-05-28T07:58:09.000Z</time>
      </trkpt>
      <trkpt lat="44.79543" lon="5.47624">
        <ele>1614</ele>
        <time>2022-05-28T07:58:14.000Z</time>
      </trkpt>
      <trkpt lat="44.79524" lon="5.47662">
        <ele>1613</ele>
        <time>2022-05-28T07:58:42.000Z</time>
      </trkpt>
      <trkpt lat="44.79518" lon="5.4767">
        <ele>1612.5999755859</ele>
        <time>2022-05-28T07:58:50.000Z</time>
      </trkpt>
      <trkpt lat="44.79511" lon="5.4767">
        <ele>1613.4000244141</ele>
        <time>2022-05-28T07:59:14.000Z</time>
      </trkpt>
      <trkpt lat="44.79503" lon="5.47669">
        <ele>1614.8000488281</ele>
        <time>2022-05-28T07:59:22.000Z</time>
      </trkpt>
      <trkpt lat="44.79502" lon="5.47668">
        <ele>1615.1999511719</ele>
        <time>2022-05-28T07:59:23.000Z</time>
      </trkpt>
      <trkpt lat="44.79497" lon="5.47668">
        <ele>1616.1999511719</ele>
        <time>2022-05-28T07:59:27.000Z</time>
      </trkpt>
      <trkpt lat="44.79494" lon="5.47671">
        <ele>1616.8000488281</ele>
        <time>2022-05-28T07:59:31.000Z</time>
      </trkpt>
      <trkpt lat="44.79457" lon="5.47704">
        <ele>1617.1999511719</ele>
        <time>2022-05-28T08:00:14.000Z</time>
      </trkpt>
      <trkpt lat="44.79452" lon="5.47733">
        <ele>1613.8000488281</ele>
        <time>2022-05-28T08:00:32.000Z</time>
      </trkpt>
      <trkpt lat="44.79455" lon="5.4775">
        <ele>1611.8000488281</ele>
        <time>2022-05-28T08:00:44.000Z</time>
      </trkpt>
      <trkpt lat="44.79442" lon="5.47791">
        <ele>1609.4000244141</ele>
        <time>2022-05-28T08:01:10.000Z</time>
      </trkpt>
      <trkpt lat="44.7943" lon="5.47851">
        <ele>1602.5999755859</ele>
        <time>2022-05-28T08:01:50.000Z</time>
      </trkpt>
      <trkpt lat="44.79405" lon="5.47905">
        <ele>1600.1999511719</ele>
        <time>2022-05-28T08:02:30.000Z</time>
      </trkpt>
      <trkpt lat="44.79394" lon="5.47919">
        <ele>1599.5999755859</ele>
        <time>2022-05-28T08:02:42.000Z</time>
      </trkpt>
      <trkpt lat="44.7939" lon="5.47955">
        <ele>1596.4000244141</ele>
        <time>2022-05-28T08:03:06.000Z</time>
      </trkpt>
      <trkpt lat="44.79373" lon="5.47994">
        <ele>1594.1999511719</ele>
        <time>2022-05-28T08:03:35.000Z</time>
      </trkpt>
      <trkpt lat="44.79366" lon="5.48002">
        <ele>1594</ele>
        <time>2022-05-28T08:03:53.000Z</time>
      </trkpt>
      <trkpt lat="44.79364" lon="5.48002">
        <ele>1594.1999511719</ele>
        <time>2022-05-28T08:03:55.000Z</time>
      </trkpt>
      <trkpt lat="44.79324" lon="5.48025">
        <ele>1594</ele>
        <time>2022-05-28T08:04:36.000Z</time>
      </trkpt>
      <trkpt lat="44.79295" lon="5.48027">
        <ele>1592</ele>
        <time>2022-05-28T08:05:03.000Z</time>
      </trkpt>
      <trkpt lat="44.79293" lon="5.48027">
        <ele>1591.8000488281</ele>
        <time>2022-05-28T08:05:05.000Z</time>
      </trkpt>
      <trkpt lat="44.7929" lon="5.48028">
        <ele>1591.4000244141</ele>
        <time>2022-05-28T08:05:08.000Z</time>
      </trkpt>
      <trkpt lat="44.79289" lon="5.48029">
        <ele>1591.1999511719</ele>
        <time>2022-05-28T08:05:10.000Z</time>
      </trkpt>
      <trkpt lat="44.79288" lon="5.4803">
        <ele>1591</ele>
        <time>2022-05-28T08:05:11.000Z</time>
      </trkpt>
      <trkpt lat="44.79286" lon="5.48032">
        <ele>1591</ele>
        <time>2022-05-28T08:05:13.000Z</time>
      </trkpt>
      <trkpt lat="44.79285" lon="5.48032">
        <ele>1591</ele>
        <time>2022-05-28T08:05:14.000Z</time>
      </trkpt>
      <trkpt lat="44.79284" lon="5.48033">
        <ele>1591</ele>
        <time>2022-05-28T08:05:15.000Z</time>
      </trkpt>
      <trkpt lat="44.79283" lon="5.48034">
        <ele>1591.1999511719</ele>
        <time>2022-05-28T08:05:16.000Z</time>
      </trkpt>
      <trkpt lat="44.79281" lon="5.48036">
        <ele>1591.1999511719</ele>
        <time>2022-05-28T08:05:18.000Z</time>
      </trkpt>
      <trkpt lat="44.7928" lon="5.48037">
        <ele>1591.1999511719</ele>
        <time>2022-05-28T08:05:19.000Z</time>
      </trkpt>
      <trkpt lat="44.79276" lon="5.48039">
        <ele>1591.4000244141</ele>
        <time>2022-05-28T08:05:22.000Z</time>
      </trkpt>
      <trkpt lat="44.7927" lon="5.48042">
        <ele>1591.4000244141</ele>
        <time>2022-05-28T08:05:28.000Z</time>
      </trkpt>
      <trkpt lat="44.79265" lon="5.48042">
        <ele>1591.1999511719</ele>
        <time>2022-05-28T08:05:33.000Z</time>
      </trkpt>
      <trkpt lat="44.79261" lon="5.48042">
        <ele>1591</ele>
        <time>2022-05-28T08:05:37.000Z</time>
      </trkpt>
      <trkpt lat="44.79244" lon="5.48036">
        <ele>1590.8000488281</ele>
        <time>2022-05-28T08:05:52.000Z</time>
      </trkpt>
      <trkpt lat="44.79208" lon="5.47999">
        <ele>1591.4000244141</ele>
        <time>2022-05-28T08:06:33.000Z</time>
      </trkpt>
      <trkpt lat="44.79194" lon="5.47988">
        <ele>1591</ele>
        <time>2022-05-28T08:06:48.000Z</time>
      </trkpt>
      <trkpt lat="44.79195" lon="5.47986">
        <ele>1591</ele>
        <time>2022-05-28T08:07:12.000Z</time>
      </trkpt>
      <trkpt lat="44.79196" lon="5.47987">
        <ele>1591</ele>
        <time>2022-05-28T08:07:19.000Z</time>
      </trkpt>
      <trkpt lat="44.79196" lon="5.47988">
        <ele>1591</ele>
        <time>2022-05-28T08:07:47.000Z</time>
      </trkpt>
      <trkpt lat="44.79196" lon="5.47988">
        <ele>1591</ele>
        <time>2022-05-28T08:07:54.000Z</time>
      </trkpt>
      <trkpt lat="44.79196" lon="5.47988">
        <ele>1591</ele>
        <time>2022-05-28T08:08:05.000Z</time>
      </trkpt>
      <trkpt lat="44.79196" lon="5.47987">
        <ele>1591</ele>
        <time>2022-05-28T08:08:11.000Z</time>
      </trkpt>
      <trkpt lat="44.79197" lon="5.47987">
        <ele>1591</ele>
        <time>2022-05-28T08:08:24.000Z</time>
      </trkpt>
      <trkpt lat="44.79197" lon="5.47987">
        <ele>1591</ele>
        <time>2022-05-28T08:08:33.000Z</time>
      </trkpt>
      <trkpt lat="44.79197" lon="5.47988">
        <ele>1591</ele>
        <time>2022-05-28T08:08:48.000Z</time>
      </trkpt>
      <trkpt lat="44.79198" lon="5.47987">
        <ele>1591</ele>
        <time>2022-05-28T08:09:12.000Z</time>
      </trkpt>
      <trkpt lat="44.79194" lon="5.47982">
        <ele>1591</ele>
        <time>2022-05-28T08:10:20.000Z</time>
      </trkpt>
      <trkpt lat="44.7919" lon="5.47979">
        <ele>1591</ele>
        <time>2022-05-28T08:10:25.000Z</time>
      </trkpt>
      <trkpt lat="44.79189" lon="5.47979">
        <ele>1591</ele>
        <time>2022-05-28T08:10:26.000Z</time>
      </trkpt>
      <trkpt lat="44.79186" lon="5.47974">
        <ele>1591</ele>
        <time>2022-05-28T08:10:31.000Z</time>
      </trkpt>
      <trkpt lat="44.79184" lon="5.47971">
        <ele>1591</ele>
        <time>2022-05-28T08:10:35.000Z</time>
      </trkpt>
      <trkpt lat="44.79183" lon="5.4797">
        <ele>1591</ele>
        <time>2022-05-28T08:10:36.000Z</time>
      </trkpt>
      <trkpt lat="44.79182" lon="5.47969">
        <ele>1591</ele>
        <time>2022-05-28T08:10:37.000Z</time>
      </trkpt>
      <trkpt lat="44.79182" lon="5.47968">
        <ele>1590.8000488281</ele>
        <time>2022-05-28T08:10:38.000Z</time>
      </trkpt>
      <trkpt lat="44.7918" lon="5.47966">
        <ele>1590.8000488281</ele>
        <time>2022-05-28T08:10:41.000Z</time>
      </trkpt>
      <trkpt lat="44.7918" lon="5.47965">
        <ele>1590.8000488281</ele>
        <time>2022-05-28T08:10:44.000Z</time>
      </trkpt>
      <trkpt lat="44.79177" lon="5.47961">
        <ele>1590.5999755859</ele>
        <time>2022-05-28T08:10:48.000Z</time>
      </trkpt>
      <trkpt lat="44.79173" lon="5.47955">
        <ele>1590.4000244141</ele>
        <time>2022-05-28T08:10:56.000Z</time>
      </trkpt>
      <trkpt lat="44.7917" lon="5.47951">
        <ele>1590.4000244141</ele>
        <time>2022-05-28T08:11:00.000Z</time>
      </trkpt>
      <trkpt lat="44.79166" lon="5.47943">
        <ele>1590.4000244141</ele>
        <time>2022-05-28T08:11:07.000Z</time>
      </trkpt>
      <trkpt lat="44.79165" lon="5.47942">
        <ele>1590.4000244141</ele>
        <time>2022-05-28T08:11:08.000Z</time>
      </trkpt>
      <trkpt lat="44.79142" lon="5.47888">
        <ele>1590.4000244141</ele>
        <time>2022-05-28T08:11:52.000Z</time>
      </trkpt>
      <trkpt lat="44.79119" lon="5.47855">
        <ele>1590.1999511719</ele>
        <time>2022-05-28T08:12:23.000Z</time>
      </trkpt>
      <trkpt lat="44.79118" lon="5.47853">
        <ele>1590.1999511719</ele>
        <time>2022-05-28T08:12:25.000Z</time>
      </trkpt>
      <trkpt lat="44.79117" lon="5.47851">
        <ele>1590.4000244141</ele>
        <time>2022-05-28T08:12:26.000Z</time>
      </trkpt>
      <trkpt lat="44.79116" lon="5.4785">
        <ele>1590.4000244141</ele>
        <time>2022-05-28T08:12:27.000Z</time>
      </trkpt>
      <trkpt lat="44.79116" lon="5.47849">
        <ele>1590.4000244141</ele>
        <time>2022-05-28T08:12:28.000Z</time>
      </trkpt>
      <trkpt lat="44.79115" lon="5.47848">
        <ele>1590.4000244141</ele>
        <time>2022-05-28T08:12:29.000Z</time>
      </trkpt>
      <trkpt lat="44.79115" lon="5.47846">
        <ele>1590.5999755859</ele>
        <time>2022-05-28T08:12:31.000Z</time>
      </trkpt>
      <trkpt lat="44.79115" lon="5.47846">
        <ele>1590.5999755859</ele>
        <time>2022-05-28T08:12:37.000Z</time>
      </trkpt>
      <trkpt lat="44.79115" lon="5.47846">
        <ele>1590.5999755859</ele>
        <time>2022-05-28T08:12:38.000Z</time>
      </trkpt>
      <trkpt lat="44.79115" lon="5.47847">
        <ele>1590.4000244141</ele>
        <time>2022-05-28T08:12:42.000Z</time>
      </trkpt>
      <trkpt lat="44.79115" lon="5.47847">
        <ele>1590.4000244141</ele>
        <time>2022-05-28T08:12:44.000Z</time>
      </trkpt>
      <trkpt lat="44.79115" lon="5.47846">
        <ele>1590.5999755859</ele>
        <time>2022-05-28T08:12:54.000Z</time>
      </trkpt>
      <trkpt lat="44.79113" lon="5.47841">
        <ele>1590.8000488281</ele>
        <time>2022-05-28T08:13:00.000Z</time>
      </trkpt>
      <trkpt lat="44.7911" lon="5.47835">
        <ele>1591</ele>
        <time>2022-05-28T08:13:05.000Z</time>
      </trkpt>
      <trkpt lat="44.79107" lon="5.47831">
        <ele>1591</ele>
        <time>2022-05-28T08:13:08.000Z</time>
      </trkpt>
      <trkpt lat="44.79099" lon="5.47821">
        <ele>1591.4000244141</ele>
        <time>2022-05-28T08:13:17.000Z</time>
      </trkpt>
      <trkpt lat="44.79095" lon="5.47812">
        <ele>1591.8000488281</ele>
        <time>2022-05-28T08:13:24.000Z</time>
      </trkpt>
      <trkpt lat="44.79085" lon="5.4779">
        <ele>1591.1999511719</ele>
        <time>2022-05-28T08:13:42.000Z</time>
      </trkpt>
      <trkpt lat="44.79053" lon="5.47744">
        <ele>1588.8000488281</ele>
        <time>2022-05-28T08:14:21.000Z</time>
      </trkpt>
      <trkpt lat="44.79021" lon="5.477">
        <ele>1587.1999511719</ele>
        <time>2022-05-28T08:15:01.000Z</time>
      </trkpt>
      <trkpt lat="44.79009" lon="5.47688">
        <ele>1588</ele>
        <time>2022-05-28T08:15:15.000Z</time>
      </trkpt>
      <trkpt lat="44.79007" lon="5.47687">
        <ele>1588</ele>
        <time>2022-05-28T08:15:17.000Z</time>
      </trkpt>
      <trkpt lat="44.78999" lon="5.4768">
        <ele>1587.5999755859</ele>
        <time>2022-05-28T08:15:26.000Z</time>
      </trkpt>
      <trkpt lat="44.78985" lon="5.47669">
        <ele>1587.1999511719</ele>
        <time>2022-05-28T08:15:41.000Z</time>
      </trkpt>
      <trkpt lat="44.78968" lon="5.47667">
        <ele>1586.5999755859</ele>
        <time>2022-05-28T08:15:56.000Z</time>
      </trkpt>
      <trkpt lat="44.78955" lon="5.47667">
        <ele>1586.1999511719</ele>
        <time>2022-05-28T08:16:07.000Z</time>
      </trkpt>
      <trkpt lat="44.78911" lon="5.47662">
        <ele>1586.4000244141</ele>
        <time>2022-05-28T08:16:47.000Z</time>
      </trkpt>
      <trkpt lat="44.78897" lon="5.4767">
        <ele>1586.1999511719</ele>
        <time>2022-05-28T08:17:00.000Z</time>
      </trkpt>
      <trkpt lat="44.78861" lon="5.47641">
        <ele>1582</ele>
        <time>2022-05-28T08:17:38.000Z</time>
      </trkpt>
      <trkpt lat="44.78857" lon="5.47623">
        <ele>1581.4000244141</ele>
        <time>2022-05-28T08:18:09.000Z</time>
      </trkpt>
      <trkpt lat="44.78848" lon="5.47561">
        <ele>1583.1999511719</ele>
        <time>2022-05-28T08:18:52.000Z</time>
      </trkpt>
      <trkpt lat="44.78835" lon="5.47506">
        <ele>1588.1999511719</ele>
        <time>2022-05-28T08:19:28.000Z</time>
      </trkpt>
      <trkpt lat="44.78834" lon="5.47501">
        <ele>1588.4000244141</ele>
        <time>2022-05-28T08:19:32.000Z</time>
      </trkpt>
      <trkpt lat="44.78834" lon="5.47499">
        <ele>1588.5999755859</ele>
        <time>2022-05-28T08:19:33.000Z</time>
      </trkpt>
      <trkpt lat="44.78833" lon="5.47497">
        <ele>1588.5999755859</ele>
        <time>2022-05-28T08:19:35.000Z</time>
      </trkpt>
      <trkpt lat="44.78832" lon="5.47492">
        <ele>1589</ele>
        <time>2022-05-28T08:19:39.000Z</time>
      </trkpt>
      <trkpt lat="44.7883" lon="5.47485">
        <ele>1589.1999511719</ele>
        <time>2022-05-28T08:19:44.000Z</time>
      </trkpt>
      <trkpt lat="44.7883" lon="5.47482">
        <ele>1589.1999511719</ele>
        <time>2022-05-28T08:19:46.000Z</time>
      </trkpt>
      <trkpt lat="44.78829" lon="5.47474">
        <ele>1589.4000244141</ele>
        <time>2022-05-28T08:19:51.000Z</time>
      </trkpt>
      <trkpt lat="44.78829" lon="5.47472">
        <ele>1589.4000244141</ele>
        <time>2022-05-28T08:19:52.000Z</time>
      </trkpt>
      <trkpt lat="44.78828" lon="5.47471">
        <ele>1589.4000244141</ele>
        <time>2022-05-28T08:19:53.000Z</time>
      </trkpt>
      <trkpt lat="44.78827" lon="5.47466">
        <ele>1589.8000488281</ele>
        <time>2022-05-28T08:19:56.000Z</time>
      </trkpt>
      <trkpt lat="44.78826" lon="5.47463">
        <ele>1590</ele>
        <time>2022-05-28T08:19:58.000Z</time>
      </trkpt>
      <trkpt lat="44.78825" lon="5.47462">
        <ele>1590</ele>
        <time>2022-05-28T08:19:59.000Z</time>
      </trkpt>
      <trkpt lat="44.78824" lon="5.47459">
        <ele>1590.4000244141</ele>
        <time>2022-05-28T08:20:01.000Z</time>
      </trkpt>
      <trkpt lat="44.78821" lon="5.47454">
        <ele>1590.8000488281</ele>
        <time>2022-05-28T08:20:05.000Z</time>
      </trkpt>
      <trkpt lat="44.78814" lon="5.47444">
        <ele>1592</ele>
        <time>2022-05-28T08:20:14.000Z</time>
      </trkpt>
      <trkpt lat="44.78791" lon="5.47389">
        <ele>1594.4000244141</ele>
        <time>2022-05-28T08:20:58.000Z</time>
      </trkpt>
      <trkpt lat="44.78785" lon="5.47367">
        <ele>1592</ele>
        <time>2022-05-28T08:21:17.000Z</time>
      </trkpt>
      <trkpt lat="44.78785" lon="5.47363">
        <ele>1591.5999755859</ele>
        <time>2022-05-28T08:21:20.000Z</time>
      </trkpt>
      <trkpt lat="44.78784" lon="5.47359">
        <ele>1591</ele>
        <time>2022-05-28T08:21:24.000Z</time>
      </trkpt>
      <trkpt lat="44.78785" lon="5.47357">
        <ele>1590.8000488281</ele>
        <time>2022-05-28T08:21:25.000Z</time>
      </trkpt>
      <trkpt lat="44.78785" lon="5.47356">
        <ele>1590.5999755859</ele>
        <time>2022-05-28T08:21:26.000Z</time>
      </trkpt>
      <trkpt lat="44.78782" lon="5.47348">
        <ele>1590.4000244141</ele>
        <time>2022-05-28T08:21:32.000Z</time>
      </trkpt>
      <trkpt lat="44.78782" lon="5.47347">
        <ele>1590.1999511719</ele>
        <time>2022-05-28T08:21:33.000Z</time>
      </trkpt>
      <trkpt lat="44.78781" lon="5.47345">
        <ele>1590.1999511719</ele>
        <time>2022-05-28T08:21:35.000Z</time>
      </trkpt>
      <trkpt lat="44.7878" lon="5.47314">
        <ele>1588.1999511719</ele>
        <time>2022-05-28T08:21:53.000Z</time>
      </trkpt>
      <trkpt lat="44.78782" lon="5.47303">
        <ele>1586.8000488281</ele>
        <time>2022-05-28T08:22:00.000Z</time>
      </trkpt>
      <trkpt lat="44.78789" lon="5.47286">
        <ele>1585.8000488281</ele>
        <time>2022-05-28T08:22:12.000Z</time>
      </trkpt>
      <trkpt lat="44.78796" lon="5.47283">
        <ele>1585.4000244141</ele>
        <time>2022-05-28T08:22:28.000Z</time>
      </trkpt>
      <trkpt lat="44.78795" lon="5.4728">
        <ele>1585.1999511719</ele>
        <time>2022-05-28T08:22:51.000Z</time>
      </trkpt>
      <trkpt lat="44.78792" lon="5.47275">
        <ele>1585.4000244141</ele>
        <time>2022-05-28T08:22:59.000Z</time>
      </trkpt>
      <trkpt lat="44.78791" lon="5.47273">
        <ele>1585.1999511719</ele>
        <time>2022-05-28T08:23:01.000Z</time>
      </trkpt>
      <trkpt lat="44.78789" lon="5.47269">
        <ele>1585.4000244141</ele>
        <time>2022-05-28T08:23:06.000Z</time>
      </trkpt>
      <trkpt lat="44.78789" lon="5.47262">
        <ele>1585.1999511719</ele>
        <time>2022-05-28T08:23:11.000Z</time>
      </trkpt>
      <trkpt lat="44.78789" lon="5.47252">
        <ele>1584.8000488281</ele>
        <time>2022-05-28T08:23:21.000Z</time>
      </trkpt>
      <trkpt lat="44.78789" lon="5.4722">
        <ele>1585.8000488281</ele>
        <time>2022-05-28T08:23:45.000Z</time>
      </trkpt>
      <trkpt lat="44.78784" lon="5.47198">
        <ele>1587</ele>
        <time>2022-05-28T08:24:00.000Z</time>
      </trkpt>
      <trkpt lat="44.78782" lon="5.47192">
        <ele>1587.4000244141</ele>
        <time>2022-05-28T08:24:04.000Z</time>
      </trkpt>
      <trkpt lat="44.78781" lon="5.4719">
        <ele>1587.4000244141</ele>
        <time>2022-05-28T08:24:05.000Z</time>
      </trkpt>
      <trkpt lat="44.78781" lon="5.47189">
        <ele>1587.5999755859</ele>
        <time>2022-05-28T08:24:06.000Z</time>
      </trkpt>
      <trkpt lat="44.78781" lon="5.47188">
        <ele>1587.5999755859</ele>
        <time>2022-05-28T08:24:07.000Z</time>
      </trkpt>
      <trkpt lat="44.78776" lon="5.4718">
        <ele>1588.4000244141</ele>
        <time>2022-05-28T08:24:14.000Z</time>
      </trkpt>
      <trkpt lat="44.78758" lon="5.47146">
        <ele>1592.1999511719</ele>
        <time>2022-05-28T08:24:42.000Z</time>
      </trkpt>
      <trkpt lat="44.78746" lon="5.47131">
        <ele>1594.1999511719</ele>
        <time>2022-05-28T08:24:58.000Z</time>
      </trkpt>
      <trkpt lat="44.78735" lon="5.47123">
        <ele>1595.4000244141</ele>
        <time>2022-05-28T08:25:10.000Z</time>
      </trkpt>
      <trkpt lat="44.7871" lon="5.47104">
        <ele>1598.1999511719</ele>
        <time>2022-05-28T08:25:34.000Z</time>
      </trkpt>
      <trkpt lat="44.78668" lon="5.47082">
        <ele>1604</ele>
        <time>2022-05-28T08:26:17.000Z</time>
      </trkpt>
      <trkpt lat="44.78659" lon="5.4707">
        <ele>1605.8000488281</ele>
        <time>2022-05-28T08:26:30.000Z</time>
      </trkpt>
      <trkpt lat="44.78654" lon="5.47061">
        <ele>1606.8000488281</ele>
        <time>2022-05-28T08:26:38.000Z</time>
      </trkpt>
      <trkpt lat="44.78651" lon="5.47058">
        <ele>1607.4000244141</ele>
        <time>2022-05-28T08:26:41.000Z</time>
      </trkpt>
      <trkpt lat="44.78639" lon="5.47044">
        <ele>1608.8000488281</ele>
        <time>2022-05-28T08:26:57.000Z</time>
      </trkpt>
      <trkpt lat="44.78636" lon="5.47041">
        <ele>1609.1999511719</ele>
        <time>2022-05-28T08:27:00.000Z</time>
      </trkpt>
      <trkpt lat="44.78632" lon="5.47035">
        <ele>1609.5999755859</ele>
        <time>2022-05-28T08:27:05.000Z</time>
      </trkpt>
      <trkpt lat="44.78631" lon="5.47033">
        <ele>1609.8000488281</ele>
        <time>2022-05-28T08:27:07.000Z</time>
      </trkpt>
      <trkpt lat="44.7863" lon="5.47031">
        <ele>1609.8000488281</ele>
        <time>2022-05-28T08:27:08.000Z</time>
      </trkpt>
      <trkpt lat="44.78609" lon="5.46983">
        <ele>1615.4000244141</ele>
        <time>2022-05-28T08:27:47.000Z</time>
      </trkpt>
      <trkpt lat="44.78604" lon="5.46953">
        <ele>1615.5999755859</ele>
        <time>2022-05-28T08:28:08.000Z</time>
      </trkpt>
      <trkpt lat="44.78588" lon="5.46927">
        <ele>1617.1999511719</ele>
        <time>2022-05-28T08:28:35.000Z</time>
      </trkpt>
      <trkpt lat="44.78573" lon="5.46925">
        <ele>1620.4000244141</ele>
        <time>2022-05-28T08:28:55.000Z</time>
      </trkpt>
      <trkpt lat="44.78557" lon="5.46938">
        <ele>1623.5999755859</ele>
        <time>2022-05-28T08:29:18.000Z</time>
      </trkpt>
      <trkpt lat="44.78556" lon="5.46939">
        <ele>1623.8000488281</ele>
        <time>2022-05-28T08:29:19.000Z</time>
      </trkpt>
      <trkpt lat="44.78555" lon="5.46943">
        <ele>1624.1999511719</ele>
        <time>2022-05-28T08:29:23.000Z</time>
      </trkpt>
      <trkpt lat="44.78553" lon="5.46945">
        <ele>1624.5999755859</ele>
        <time>2022-05-28T08:29:25.000Z</time>
      </trkpt>
      <trkpt lat="44.78551" lon="5.46949">
        <ele>1625</ele>
        <time>2022-05-28T08:29:29.000Z</time>
      </trkpt>
      <trkpt lat="44.78551" lon="5.46952">
        <ele>1625.1999511719</ele>
        <time>2022-05-28T08:29:31.000Z</time>
      </trkpt>
      <trkpt lat="44.78535" lon="5.46998">
        <ele>1628.4000244141</ele>
        <time>2022-05-28T08:30:13.000Z</time>
      </trkpt>
      <trkpt lat="44.7852" lon="5.47009">
        <ele>1634.5999755859</ele>
        <time>2022-05-28T08:30:37.000Z</time>
      </trkpt>
      <trkpt lat="44.78517" lon="5.47015">
        <ele>1635.5999755859</ele>
        <time>2022-05-28T08:30:44.000Z</time>
      </trkpt>
      <trkpt lat="44.78516" lon="5.47017">
        <ele>1636</ele>
        <time>2022-05-28T08:30:46.000Z</time>
      </trkpt>
      <trkpt lat="44.78515" lon="5.47018">
        <ele>1636.1999511719</ele>
        <time>2022-05-28T08:30:47.000Z</time>
      </trkpt>
      <trkpt lat="44.78514" lon="5.4702">
        <ele>1636.4000244141</ele>
        <time>2022-05-28T08:30:49.000Z</time>
      </trkpt>
      <trkpt lat="44.78513" lon="5.47022">
        <ele>1636.8000488281</ele>
        <time>2022-05-28T08:30:51.000Z</time>
      </trkpt>
      <trkpt lat="44.78512" lon="5.47024">
        <ele>1637.4000244141</ele>
        <time>2022-05-28T08:30:55.000Z</time>
      </trkpt>
      <trkpt lat="44.78512" lon="5.47024">
        <ele>1637.5999755859</ele>
        <time>2022-05-28T08:30:57.000Z</time>
      </trkpt>
      <trkpt lat="44.78512" lon="5.47024">
        <ele>1637.5999755859</ele>
        <time>2022-05-28T08:30:58.000Z</time>
      </trkpt>
      <trkpt lat="44.78512" lon="5.47024">
        <ele>1637.4000244141</ele>
        <time>2022-05-28T08:30:59.000Z</time>
      </trkpt>
      <trkpt lat="44.78512" lon="5.47025">
        <ele>1637.1999511719</ele>
        <time>2022-05-28T08:31:00.000Z</time>
      </trkpt>
      <trkpt lat="44.78512" lon="5.47026">
        <ele>1637.4000244141</ele>
        <time>2022-05-28T08:31:02.000Z</time>
      </trkpt>
      <trkpt lat="44.78511" lon="5.47027">
        <ele>1637.5999755859</ele>
        <time>2022-05-28T08:31:03.000Z</time>
      </trkpt>
      <trkpt lat="44.7851" lon="5.47027">
        <ele>1638</ele>
        <time>2022-05-28T08:31:04.000Z</time>
      </trkpt>
      <trkpt lat="44.7851" lon="5.47027">
        <ele>1638</ele>
        <time>2022-05-28T08:31:05.000Z</time>
      </trkpt>
      <trkpt lat="44.7851" lon="5.47028">
        <ele>1638.1999511719</ele>
        <time>2022-05-28T08:31:06.000Z</time>
      </trkpt>
      <trkpt lat="44.78509" lon="5.47028">
        <ele>1638.4000244141</ele>
        <time>2022-05-28T08:31:07.000Z</time>
      </trkpt>
      <trkpt lat="44.78509" lon="5.47028">
        <ele>1638.5999755859</ele>
        <time>2022-05-28T08:31:08.000Z</time>
      </trkpt>
      <trkpt lat="44.78508" lon="5.47028">
        <ele>1638.8000488281</ele>
        <time>2022-05-28T08:31:09.000Z</time>
      </trkpt>
      <trkpt lat="44.78508" lon="5.47029">
        <ele>1639</ele>
        <time>2022-05-28T08:31:10.000Z</time>
      </trkpt>
      <trkpt lat="44.78508" lon="5.47029">
        <ele>1639.1999511719</ele>
        <time>2022-05-28T08:31:11.000Z</time>
      </trkpt>
      <trkpt lat="44.78507" lon="5.4703">
        <ele>1639.5999755859</ele>
        <time>2022-05-28T08:31:12.000Z</time>
      </trkpt>
      <trkpt lat="44.78505" lon="5.47029">
        <ele>1640.1999511719</ele>
        <time>2022-05-28T08:31:15.000Z</time>
      </trkpt>
      <trkpt lat="44.78505" lon="5.4703">
        <ele>1640.4000244141</ele>
        <time>2022-05-28T08:31:16.000Z</time>
      </trkpt>
      <trkpt lat="44.78502" lon="5.4703">
        <ele>1641.5999755859</ele>
        <time>2022-05-28T08:31:19.000Z</time>
      </trkpt>
      <trkpt lat="44.78501" lon="5.4703">
        <ele>1641.8000488281</ele>
        <time>2022-05-28T08:31:20.000Z</time>
      </trkpt>
      <trkpt lat="44.78501" lon="5.4703">
        <ele>1642</ele>
        <time>2022-05-28T08:31:21.000Z</time>
      </trkpt>
      <trkpt lat="44.785" lon="5.47033">
        <ele>1642.4000244141</ele>
        <time>2022-05-28T08:31:23.000Z</time>
      </trkpt>
      <trkpt lat="44.78498" lon="5.47034">
        <ele>1643</ele>
        <time>2022-05-28T08:31:27.000Z</time>
      </trkpt>
      <trkpt lat="44.78496" lon="5.47033">
        <ele>1643.8000488281</ele>
        <time>2022-05-28T08:31:31.000Z</time>
      </trkpt>
      <trkpt lat="44.78495" lon="5.47033">
        <ele>1644.1999511719</ele>
        <time>2022-05-28T08:31:33.000Z</time>
      </trkpt>
      <trkpt lat="44.78493" lon="5.47036">
        <ele>1645.1999511719</ele>
        <time>2022-05-28T08:31:39.000Z</time>
      </trkpt>
      <trkpt lat="44.78492" lon="5.47036">
        <ele>1645.4000244141</ele>
        <time>2022-05-28T08:31:40.000Z</time>
      </trkpt>
      <trkpt lat="44.78489" lon="5.47038">
        <ele>1646.8000488281</ele>
        <time>2022-05-28T08:31:43.000Z</time>
      </trkpt>
      <trkpt lat="44.78489" lon="5.47038">
        <ele>1647</ele>
        <time>2022-05-28T08:31:44.000Z</time>
      </trkpt>
      <trkpt lat="44.78487" lon="5.4704">
        <ele>1647.8000488281</ele>
        <time>2022-05-28T08:31:49.000Z</time>
      </trkpt>
      <trkpt lat="44.78481" lon="5.47037">
        <ele>1650</ele>
        <time>2022-05-28T08:32:01.000Z</time>
      </trkpt>
      <trkpt lat="44.78479" lon="5.47042">
        <ele>1651</ele>
        <time>2022-05-28T08:32:14.000Z</time>
      </trkpt>
      <trkpt lat="44.78478" lon="5.47043">
        <ele>1651.4000244141</ele>
        <time>2022-05-28T08:32:17.000Z</time>
      </trkpt>
      <trkpt lat="44.78477" lon="5.47042">
        <ele>1651.5999755859</ele>
        <time>2022-05-28T08:32:25.000Z</time>
      </trkpt>
      <trkpt lat="44.78475" lon="5.4704">
        <ele>1652</ele>
        <time>2022-05-28T08:34:54.000Z</time>
      </trkpt>
      <trkpt lat="44.78475" lon="5.47041">
        <ele>1652.1999511719</ele>
        <time>2022-05-28T08:35:08.000Z</time>
      </trkpt>
      <trkpt lat="44.78475" lon="5.47041">
        <ele>1652.1999511719</ele>
        <time>2022-05-28T08:35:15.000Z</time>
      </trkpt>
      <trkpt lat="44.78474" lon="5.47042">
        <ele>1652.4000244141</ele>
        <time>2022-05-28T08:35:28.000Z</time>
      </trkpt>
      <trkpt lat="44.78476" lon="5.47041">
        <ele>1651.8000488281</ele>
        <time>2022-05-28T08:35:43.000Z</time>
      </trkpt>
      <trkpt lat="44.78477" lon="5.47043">
        <ele>1651.5999755859</ele>
        <time>2022-05-28T08:36:20.000Z</time>
      </trkpt>
      <trkpt lat="44.78478" lon="5.47046">
        <ele>1651.4000244141</ele>
        <time>2022-05-28T08:36:44.000Z</time>
      </trkpt>
      <trkpt lat="44.78478" lon="5.47046">
        <ele>1651.4000244141</ele>
        <time>2022-05-28T08:36:48.000Z</time>
      </trkpt>
      <trkpt lat="44.78478" lon="5.47044">
        <ele>1651.1999511719</ele>
        <time>2022-05-28T08:36:54.000Z</time>
      </trkpt>
      <trkpt lat="44.78478" lon="5.47044">
        <ele>1651.1999511719</ele>
        <time>2022-05-28T08:36:56.000Z</time>
      </trkpt>
      <trkpt lat="44.78478" lon="5.47044">
        <ele>1651.1999511719</ele>
        <time>2022-05-28T08:36:59.000Z</time>
      </trkpt>
      <trkpt lat="44.78478" lon="5.47044">
        <ele>1651.1999511719</ele>
        <time>2022-05-28T08:37:01.000Z</time>
      </trkpt>
      <trkpt lat="44.78478" lon="5.47044">
        <ele>1651.1999511719</ele>
        <time>2022-05-28T08:37:04.000Z</time>
      </trkpt>
      <trkpt lat="44.78478" lon="5.47044">
        <ele>1651.1999511719</ele>
        <time>2022-05-28T08:37:06.000Z</time>
      </trkpt>
      <trkpt lat="44.78478" lon="5.47044">
        <ele>1651.1999511719</ele>
        <time>2022-05-28T08:37:08.000Z</time>
      </trkpt>
      <trkpt lat="44.78478" lon="5.47044">
        <ele>1651.1999511719</ele>
        <time>2022-05-28T08:37:11.000Z</time>
      </trkpt>
      <trkpt lat="44.78478" lon="5.47044">
        <ele>1651.4000244141</ele>
        <time>2022-05-28T08:37:13.000Z</time>
      </trkpt>
      <trkpt lat="44.78477" lon="5.47044">
        <ele>1651.5999755859</ele>
        <time>2022-05-28T08:37:20.000Z</time>
      </trkpt>
      <trkpt lat="44.78477" lon="5.47045">
        <ele>1651.5999755859</ele>
        <time>2022-05-28T08:37:24.000Z</time>
      </trkpt>
      <trkpt lat="44.78477" lon="5.47044">
        <ele>1651.5999755859</ele>
        <time>2022-05-28T08:37:27.000Z</time>
      </trkpt>
      <trkpt lat="44.78477" lon="5.47043">
        <ele>1651.8000488281</ele>
        <time>2022-05-28T08:37:32.000Z</time>
      </trkpt>
      <trkpt lat="44.78477" lon="5.47042">
        <ele>1651.5999755859</ele>
        <time>2022-05-28T08:37:35.000Z</time>
      </trkpt>
      <trkpt lat="44.78476" lon="5.47042">
        <ele>1651.8000488281</ele>
        <time>2022-05-28T08:37:44.000Z</time>
      </trkpt>
      <trkpt lat="44.78476" lon="5.47043">
        <ele>1652</ele>
        <time>2022-05-28T08:37:58.000Z</time>
      </trkpt>
      <trkpt lat="44.78475" lon="5.47043">
        <ele>1652.4000244141</ele>
        <time>2022-05-28T08:38:12.000Z</time>
      </trkpt>
      <trkpt lat="44.78476" lon="5.47043">
        <ele>1652</ele>
        <time>2022-05-28T08:38:25.000Z</time>
      </trkpt>
      <trkpt lat="44.78477" lon="5.47042">
        <ele>1651.4000244141</ele>
        <time>2022-05-28T08:38:36.000Z</time>
      </trkpt>
      <trkpt lat="44.78478" lon="5.47042">
        <ele>1651.1999511719</ele>
        <time>2022-05-28T08:38:43.000Z</time>
      </trkpt>
      <trkpt lat="44.78478" lon="5.47042">
        <ele>1651.1999511719</ele>
        <time>2022-05-28T08:38:49.000Z</time>
      </trkpt>
      <trkpt lat="44.78479" lon="5.47043">
        <ele>1651</ele>
        <time>2022-05-28T08:38:58.000Z</time>
      </trkpt>
      <trkpt lat="44.7848" lon="5.47045">
        <ele>1650.8000488281</ele>
        <time>2022-05-28T08:39:07.000Z</time>
      </trkpt>
      <trkpt lat="44.78482" lon="5.47046">
        <ele>1649.8000488281</ele>
        <time>2022-05-28T08:39:16.000Z</time>
      </trkpt>
      <trkpt lat="44.78487" lon="5.47046">
        <ele>1647.8000488281</ele>
        <time>2022-05-28T08:39:32.000Z</time>
      </trkpt>
      <trkpt lat="44.78487" lon="5.47047">
        <ele>1648</ele>
        <time>2022-05-28T08:40:35.000Z</time>
      </trkpt>
      <trkpt lat="44.78487" lon="5.47047">
        <ele>1648.1999511719</ele>
        <time>2022-05-28T08:40:56.000Z</time>
      </trkpt>
      <trkpt lat="44.78486" lon="5.47045">
        <ele>1648.4000244141</ele>
        <time>2022-05-28T08:41:08.000Z</time>
      </trkpt>
      <trkpt lat="44.78486" lon="5.47045">
        <ele>1648.4000244141</ele>
        <time>2022-05-28T08:41:09.000Z</time>
      </trkpt>
      <trkpt lat="44.78472" lon="5.47045">
        <ele>1653.1999511719</ele>
        <time>2022-05-28T08:41:35.000Z</time>
      </trkpt>
      <trkpt lat="44.78471" lon="5.47044">
        <ele>1653.5999755859</ele>
        <time>2022-05-28T08:41:36.000Z</time>
      </trkpt>
      <trkpt lat="44.78467" lon="5.47044">
        <ele>1655</ele>
        <time>2022-05-28T08:41:41.000Z</time>
      </trkpt>
      <trkpt lat="44.78463" lon="5.47045">
        <ele>1656</ele>
        <time>2022-05-28T08:41:44.000Z</time>
      </trkpt>
      <trkpt lat="44.78458" lon="5.47046">
        <ele>1657.8000488281</ele>
        <time>2022-05-28T08:41:50.000Z</time>
      </trkpt>
      <trkpt lat="44.78458" lon="5.47046">
        <ele>1658</ele>
        <time>2022-05-28T08:41:51.000Z</time>
      </trkpt>
      <trkpt lat="44.78457" lon="5.47046">
        <ele>1658</ele>
        <time>2022-05-28T08:41:52.000Z</time>
      </trkpt>
      <trkpt lat="44.78455" lon="5.47045">
        <ele>1658.5999755859</ele>
        <time>2022-05-28T08:41:57.000Z</time>
      </trkpt>
      <trkpt lat="44.78454" lon="5.47047">
        <ele>1659</ele>
        <time>2022-05-28T08:41:59.000Z</time>
      </trkpt>
      <trkpt lat="44.78453" lon="5.47049">
        <ele>1659.5999755859</ele>
        <time>2022-05-28T08:42:02.000Z</time>
      </trkpt>
      <trkpt lat="44.78447" lon="5.47055">
        <ele>1661.5999755859</ele>
        <time>2022-05-28T08:42:14.000Z</time>
      </trkpt>
      <trkpt lat="44.78442" lon="5.47062">
        <ele>1663.1999511719</ele>
        <time>2022-05-28T08:42:21.000Z</time>
      </trkpt>
      <trkpt lat="44.78441" lon="5.47066">
        <ele>1663.8000488281</ele>
        <time>2022-05-28T08:42:24.000Z</time>
      </trkpt>
      <trkpt lat="44.7844" lon="5.47068">
        <ele>1664.1999511719</ele>
        <time>2022-05-28T08:42:27.000Z</time>
      </trkpt>
      <trkpt lat="44.7844" lon="5.4707">
        <ele>1664.1999511719</ele>
        <time>2022-05-28T08:42:28.000Z</time>
      </trkpt>
      <trkpt lat="44.7844" lon="5.47071">
        <ele>1664.1999511719</ele>
        <time>2022-05-28T08:42:29.000Z</time>
      </trkpt>
      <trkpt lat="44.78438" lon="5.47074">
        <ele>1664.8000488281</ele>
        <time>2022-05-28T08:42:33.000Z</time>
      </trkpt>
      <trkpt lat="44.78437" lon="5.47075">
        <ele>1665</ele>
        <time>2022-05-28T08:42:34.000Z</time>
      </trkpt>
      <trkpt lat="44.78436" lon="5.47075">
        <ele>1665.4000244141</ele>
        <time>2022-05-28T08:42:35.000Z</time>
      </trkpt>
      <trkpt lat="44.78428" lon="5.47081">
        <ele>1667.8000488281</ele>
        <time>2022-05-28T08:42:50.000Z</time>
      </trkpt>
      <trkpt lat="44.78422" lon="5.47073">
        <ele>1669.1999511719</ele>
        <time>2022-05-28T08:43:00.000Z</time>
      </trkpt>
      <trkpt lat="44.78419" lon="5.47072">
        <ele>1669.8000488281</ele>
        <time>2022-05-28T08:43:03.000Z</time>
      </trkpt>
      <trkpt lat="44.78403" lon="5.47068">
        <ele>1672.8000488281</ele>
        <time>2022-05-28T08:43:22.000Z</time>
      </trkpt>
      <trkpt lat="44.78402" lon="5.47068">
        <ele>1673</ele>
        <time>2022-05-28T08:43:23.000Z</time>
      </trkpt>
      <trkpt lat="44.784" lon="5.47066">
        <ele>1673.4000244141</ele>
        <time>2022-05-28T08:43:26.000Z</time>
      </trkpt>
      <trkpt lat="44.784" lon="5.47066">
        <ele>1673.4000244141</ele>
        <time>2022-05-28T08:43:27.000Z</time>
      </trkpt>
      <trkpt lat="44.78398" lon="5.47065">
        <ele>1673.8000488281</ele>
        <time>2022-05-28T08:43:30.000Z</time>
      </trkpt>
      <trkpt lat="44.78397" lon="5.47065">
        <ele>1674</ele>
        <time>2022-05-28T08:43:32.000Z</time>
      </trkpt>
      <trkpt lat="44.78387" lon="5.4706">
        <ele>1677.5999755859</ele>
        <time>2022-05-28T08:44:00.000Z</time>
      </trkpt>
      <trkpt lat="44.78372" lon="5.47065">
        <ele>1682.4000244141</ele>
        <time>2022-05-28T08:44:30.000Z</time>
      </trkpt>
      <trkpt lat="44.78369" lon="5.4707">
        <ele>1682.8000488281</ele>
        <time>2022-05-28T08:44:35.000Z</time>
      </trkpt>
      <trkpt lat="44.78366" lon="5.47073">
        <ele>1684</ele>
        <time>2022-05-28T08:44:40.000Z</time>
      </trkpt>
      <trkpt lat="44.78365" lon="5.47073">
        <ele>1684.4000244141</ele>
        <time>2022-05-28T08:44:42.000Z</time>
      </trkpt>
      <trkpt lat="44.78364" lon="5.47074">
        <ele>1684.4000244141</ele>
        <time>2022-05-28T08:44:43.000Z</time>
      </trkpt>
      <trkpt lat="44.78364" lon="5.47074">
        <ele>1684.5999755859</ele>
        <time>2022-05-28T08:44:44.000Z</time>
      </trkpt>
      <trkpt lat="44.78361" lon="5.47075">
        <ele>1685.5999755859</ele>
        <time>2022-05-28T08:44:48.000Z</time>
      </trkpt>
      <trkpt lat="44.78361" lon="5.47075">
        <ele>1685.8000488281</ele>
        <time>2022-05-28T08:44:49.000Z</time>
      </trkpt>
      <trkpt lat="44.78357" lon="5.47072">
        <ele>1687.4000244141</ele>
        <time>2022-05-28T08:44:56.000Z</time>
      </trkpt>
      <trkpt lat="44.78354" lon="5.47071">
        <ele>1688.5999755859</ele>
        <time>2022-05-28T08:45:01.000Z</time>
      </trkpt>
      <trkpt lat="44.78353" lon="5.4707">
        <ele>1689</ele>
        <time>2022-05-28T08:45:03.000Z</time>
      </trkpt>
      <trkpt lat="44.78352" lon="5.4707">
        <ele>1689.1999511719</ele>
        <time>2022-05-28T08:45:04.000Z</time>
      </trkpt>
      <trkpt lat="44.78352" lon="5.4707">
        <ele>1689.4000244141</ele>
        <time>2022-05-28T08:45:05.000Z</time>
      </trkpt>
      <trkpt lat="44.7835" lon="5.47071">
        <ele>1690</ele>
        <time>2022-05-28T08:45:08.000Z</time>
      </trkpt>
      <trkpt lat="44.78349" lon="5.47072">
        <ele>1690.1999511719</ele>
        <time>2022-05-28T08:45:09.000Z</time>
      </trkpt>
      <trkpt lat="44.78348" lon="5.47072">
        <ele>1690.4000244141</ele>
        <time>2022-05-28T08:45:10.000Z</time>
      </trkpt>
      <trkpt lat="44.78342" lon="5.47072">
        <ele>1692.1999511719</ele>
        <time>2022-05-28T08:45:18.000Z</time>
      </trkpt>
      <trkpt lat="44.78339" lon="5.47072">
        <ele>1693.4000244141</ele>
        <time>2022-05-28T08:45:23.000Z</time>
      </trkpt>
      <trkpt lat="44.78336" lon="5.47072">
        <ele>1694.4000244141</ele>
        <time>2022-05-28T08:45:29.000Z</time>
      </trkpt>
      <trkpt lat="44.78335" lon="5.47071">
        <ele>1695.1999511719</ele>
        <time>2022-05-28T08:45:32.000Z</time>
      </trkpt>
      <trkpt lat="44.78326" lon="5.47075">
        <ele>1697.5999755859</ele>
        <time>2022-05-28T08:45:47.000Z</time>
      </trkpt>
      <trkpt lat="44.78312" lon="5.47063">
        <ele>1704.8000488281</ele>
        <time>2022-05-28T08:46:34.000Z</time>
      </trkpt>
      <trkpt lat="44.7831" lon="5.47063">
        <ele>1705.4000244141</ele>
        <time>2022-05-28T08:46:37.000Z</time>
      </trkpt>
      <trkpt lat="44.78306" lon="5.47061">
        <ele>1707.4000244141</ele>
        <time>2022-05-28T08:46:44.000Z</time>
      </trkpt>
      <trkpt lat="44.78304" lon="5.47055">
        <ele>1709.4000244141</ele>
        <time>2022-05-28T08:46:54.000Z</time>
      </trkpt>
      <trkpt lat="44.78304" lon="5.47053">
        <ele>1710.1999511719</ele>
        <time>2022-05-28T08:46:57.000Z</time>
      </trkpt>
      <trkpt lat="44.78305" lon="5.47048">
        <ele>1710.8000488281</ele>
        <time>2022-05-28T08:47:02.000Z</time>
      </trkpt>
      <trkpt lat="44.78304" lon="5.47044">
        <ele>1712.4000244141</ele>
        <time>2022-05-28T08:47:08.000Z</time>
      </trkpt>
      <trkpt lat="44.78299" lon="5.47038">
        <ele>1715.5999755859</ele>
        <time>2022-05-28T08:47:25.000Z</time>
      </trkpt>
      <trkpt lat="44.78296" lon="5.47036">
        <ele>1717.5999755859</ele>
        <time>2022-05-28T08:47:31.000Z</time>
      </trkpt>
      <trkpt lat="44.78294" lon="5.47034">
        <ele>1719</ele>
        <time>2022-05-28T08:47:38.000Z</time>
      </trkpt>
      <trkpt lat="44.78284" lon="5.47029">
        <ele>1724.1999511719</ele>
        <time>2022-05-28T08:47:57.000Z</time>
      </trkpt>
      <trkpt lat="44.78272" lon="5.4702">
        <ele>1729.8000488281</ele>
        <time>2022-05-28T08:48:30.000Z</time>
      </trkpt>
      <trkpt lat="44.78255" lon="5.46998">
        <ele>1740</ele>
        <time>2022-05-28T08:49:41.000Z</time>
      </trkpt>
      <trkpt lat="44.78252" lon="5.46994">
        <ele>1741.4000244141</ele>
        <time>2022-05-28T08:49:54.000Z</time>
      </trkpt>
      <trkpt lat="44.78251" lon="5.46994">
        <ele>1741.5999755859</ele>
        <time>2022-05-28T08:49:55.000Z</time>
      </trkpt>
      <trkpt lat="44.78251" lon="5.46993">
        <ele>1741.8000488281</ele>
        <time>2022-05-28T08:49:56.000Z</time>
      </trkpt>
      <trkpt lat="44.78251" lon="5.46992">
        <ele>1742</ele>
        <time>2022-05-28T08:49:58.000Z</time>
      </trkpt>
      <trkpt lat="44.7825" lon="5.46991">
        <ele>1742.5999755859</ele>
        <time>2022-05-28T08:50:00.000Z</time>
      </trkpt>
      <trkpt lat="44.78249" lon="5.46991">
        <ele>1742.5999755859</ele>
        <time>2022-05-28T08:50:01.000Z</time>
      </trkpt>
      <trkpt lat="44.78247" lon="5.46987">
        <ele>1743.8000488281</ele>
        <time>2022-05-28T08:50:09.000Z</time>
      </trkpt>
      <trkpt lat="44.78245" lon="5.46986">
        <ele>1744.5999755859</ele>
        <time>2022-05-28T08:50:12.000Z</time>
      </trkpt>
      <trkpt lat="44.78243" lon="5.46984">
        <ele>1745.4000244141</ele>
        <time>2022-05-28T08:50:16.000Z</time>
      </trkpt>
      <trkpt lat="44.78241" lon="5.46985">
        <ele>1745.8000488281</ele>
        <time>2022-05-28T08:50:20.000Z</time>
      </trkpt>
      <trkpt lat="44.78239" lon="5.46987">
        <ele>1746</ele>
        <time>2022-05-28T08:50:24.000Z</time>
      </trkpt>
      <trkpt lat="44.78236" lon="5.46987">
        <ele>1746.5999755859</ele>
        <time>2022-05-28T08:50:28.000Z</time>
      </trkpt>
      <trkpt lat="44.78233" lon="5.46985">
        <ele>1747.8000488281</ele>
        <time>2022-05-28T08:50:34.000Z</time>
      </trkpt>
      <trkpt lat="44.78231" lon="5.46988">
        <ele>1747.8000488281</ele>
        <time>2022-05-28T08:50:41.000Z</time>
      </trkpt>
      <trkpt lat="44.78233" lon="5.46989">
        <ele>1746.8000488281</ele>
        <time>2022-05-28T08:50:54.000Z</time>
      </trkpt>
      <trkpt lat="44.78233" lon="5.46991">
        <ele>1746.8000488281</ele>
        <time>2022-05-28T08:51:02.000Z</time>
      </trkpt>
      <trkpt lat="44.78228" lon="5.4699">
        <ele>1748</ele>
        <time>2022-05-28T08:51:20.000Z</time>
      </trkpt>
      <trkpt lat="44.78225" lon="5.46986">
        <ele>1749.1999511719</ele>
        <time>2022-05-28T08:51:32.000Z</time>
      </trkpt>
      <trkpt lat="44.78224" lon="5.46983">
        <ele>1750</ele>
        <time>2022-05-28T08:51:42.000Z</time>
      </trkpt>
      <trkpt lat="44.78224" lon="5.4698">
        <ele>1750.5999755859</ele>
        <time>2022-05-28T08:51:47.000Z</time>
      </trkpt>
      <trkpt lat="44.78223" lon="5.46978">
        <ele>1751</ele>
        <time>2022-05-28T08:51:50.000Z</time>
      </trkpt>
      <trkpt lat="44.78222" lon="5.46967">
        <ele>1753.5999755859</ele>
        <time>2022-05-28T08:52:06.000Z</time>
      </trkpt>
      <trkpt lat="44.78219" lon="5.46964">
        <ele>1755</ele>
        <time>2022-05-28T08:52:32.000Z</time>
      </trkpt>
      <trkpt lat="44.78212" lon="5.46959">
        <ele>1757.5999755859</ele>
        <time>2022-05-28T08:52:47.000Z</time>
      </trkpt>
      <trkpt lat="44.78212" lon="5.46959">
        <ele>1757.8000488281</ele>
        <time>2022-05-28T08:52:48.000Z</time>
      </trkpt>
      <trkpt lat="44.7821" lon="5.4696">
        <ele>1758</ele>
        <time>2022-05-28T08:52:51.000Z</time>
      </trkpt>
      <trkpt lat="44.7821" lon="5.46961">
        <ele>1757.8000488281</ele>
        <time>2022-05-28T08:52:54.000Z</time>
      </trkpt>
      <trkpt lat="44.78209" lon="5.46958">
        <ele>1758.5999755859</ele>
        <time>2022-05-28T08:53:01.000Z</time>
      </trkpt>
      <trkpt lat="44.78209" lon="5.46957">
        <ele>1759</ele>
        <time>2022-05-28T08:53:03.000Z</time>
      </trkpt>
      <trkpt lat="44.78207" lon="5.46954">
        <ele>1760</ele>
        <time>2022-05-28T08:53:09.000Z</time>
      </trkpt>
      <trkpt lat="44.78206" lon="5.46955">
        <ele>1760</ele>
        <time>2022-05-28T08:53:12.000Z</time>
      </trkpt>
      <trkpt lat="44.78206" lon="5.46955">
        <ele>1760</ele>
        <time>2022-05-28T08:53:13.000Z</time>
      </trkpt>
      <trkpt lat="44.78206" lon="5.46954">
        <ele>1760.1999511719</ele>
        <time>2022-05-28T08:53:15.000Z</time>
      </trkpt>
      <trkpt lat="44.78204" lon="5.46951">
        <ele>1761.4000244141</ele>
        <time>2022-05-28T08:53:25.000Z</time>
      </trkpt>
      <trkpt lat="44.78204" lon="5.46951">
        <ele>1761.5999755859</ele>
        <time>2022-05-28T08:53:30.000Z</time>
      </trkpt>
      <trkpt lat="44.78204" lon="5.4695">
        <ele>1761.8000488281</ele>
        <time>2022-05-28T08:53:32.000Z</time>
      </trkpt>
      <trkpt lat="44.78204" lon="5.46948">
        <ele>1762.4000244141</ele>
        <time>2022-05-28T08:53:35.000Z</time>
      </trkpt>
      <trkpt lat="44.78203" lon="5.46948">
        <ele>1762.5999755859</ele>
        <time>2022-05-28T08:53:36.000Z</time>
      </trkpt>
      <trkpt lat="44.78203" lon="5.46948">
        <ele>1762.8000488281</ele>
        <time>2022-05-28T08:53:37.000Z</time>
      </trkpt>
      <trkpt lat="44.78202" lon="5.46947">
        <ele>1763</ele>
        <time>2022-05-28T08:53:38.000Z</time>
      </trkpt>
      <trkpt lat="44.78201" lon="5.46945">
        <ele>1763.5999755859</ele>
        <time>2022-05-28T08:53:40.000Z</time>
      </trkpt>
      <trkpt lat="44.78198" lon="5.46938">
        <ele>1766.1999511719</ele>
        <time>2022-05-28T08:54:10.000Z</time>
      </trkpt>
      <trkpt lat="44.78195" lon="5.46936">
        <ele>1767.1999511719</ele>
        <time>2022-05-28T08:54:14.000Z</time>
      </trkpt>
      <trkpt lat="44.78193" lon="5.46936">
        <ele>1767.8000488281</ele>
        <time>2022-05-28T08:54:18.000Z</time>
      </trkpt>
      <trkpt lat="44.78181" lon="5.46921">
        <ele>1773.4000244141</ele>
        <time>2022-05-28T08:54:41.000Z</time>
      </trkpt>
      <trkpt lat="44.78158" lon="5.46897">
        <ele>1785.1999511719</ele>
        <time>2022-05-28T08:55:18.000Z</time>
      </trkpt>
      <trkpt lat="44.78158" lon="5.46898">
        <ele>1785.1999511719</ele>
        <time>2022-05-28T08:55:21.000Z</time>
      </trkpt>
      <trkpt lat="44.78157" lon="5.46899">
        <ele>1785.1999511719</ele>
        <time>2022-05-28T08:55:28.000Z</time>
      </trkpt>
      <trkpt lat="44.78157" lon="5.46901">
        <ele>1784.8000488281</ele>
        <time>2022-05-28T08:55:30.000Z</time>
      </trkpt>
      <trkpt lat="44.78157" lon="5.46905">
        <ele>1784.1999511719</ele>
        <time>2022-05-28T08:55:37.000Z</time>
      </trkpt>
      <trkpt lat="44.78157" lon="5.46905">
        <ele>1784</ele>
        <time>2022-05-28T08:55:44.000Z</time>
      </trkpt>
      <trkpt lat="44.78157" lon="5.46906">
        <ele>1783.8000488281</ele>
        <time>2022-05-28T08:55:51.000Z</time>
      </trkpt>
      <trkpt lat="44.78156" lon="5.46903">
        <ele>1784.5999755859</ele>
        <time>2022-05-28T08:55:59.000Z</time>
      </trkpt>
      <trkpt lat="44.78154" lon="5.46901">
        <ele>1785.5999755859</ele>
        <time>2022-05-28T08:56:02.000Z</time>
      </trkpt>
      <trkpt lat="44.78154" lon="5.469">
        <ele>1786</ele>
        <time>2022-05-28T08:56:05.000Z</time>
      </trkpt>
      <trkpt lat="44.78154" lon="5.46899">
        <ele>1786.1999511719</ele>
        <time>2022-05-28T08:56:07.000Z</time>
      </trkpt>
      <trkpt lat="44.78153" lon="5.46898">
        <ele>1787</ele>
        <time>2022-05-28T08:56:10.000Z</time>
      </trkpt>
      <trkpt lat="44.78151" lon="5.46897">
        <ele>1787.5999755859</ele>
        <time>2022-05-28T08:56:13.000Z</time>
      </trkpt>
      <trkpt lat="44.7815" lon="5.46896">
        <ele>1788.4000244141</ele>
        <time>2022-05-28T08:56:16.000Z</time>
      </trkpt>
      <trkpt lat="44.78147" lon="5.46896">
        <ele>1789.1999511719</ele>
        <time>2022-05-28T08:56:21.000Z</time>
      </trkpt>
      <trkpt lat="44.78146" lon="5.46895">
        <ele>1789.5999755859</ele>
        <time>2022-05-28T08:56:25.000Z</time>
      </trkpt>
      <trkpt lat="44.78146" lon="5.46894">
        <ele>1789.8000488281</ele>
        <time>2022-05-28T08:56:27.000Z</time>
      </trkpt>
      <trkpt lat="44.78145" lon="5.46894">
        <ele>1790</ele>
        <time>2022-05-28T08:56:28.000Z</time>
      </trkpt>
      <trkpt lat="44.78145" lon="5.46894">
        <ele>1790.4000244141</ele>
        <time>2022-05-28T08:56:29.000Z</time>
      </trkpt>
      <trkpt lat="44.78144" lon="5.46894">
        <ele>1790.5999755859</ele>
        <time>2022-05-28T08:56:30.000Z</time>
      </trkpt>
      <trkpt lat="44.78142" lon="5.46893">
        <ele>1791.1999511719</ele>
        <time>2022-05-28T08:56:33.000Z</time>
      </trkpt>
      <trkpt lat="44.78141" lon="5.46893">
        <ele>1791.5999755859</ele>
        <time>2022-05-28T08:56:35.000Z</time>
      </trkpt>
      <trkpt lat="44.78139" lon="5.46893">
        <ele>1791.8000488281</ele>
        <time>2022-05-28T08:56:37.000Z</time>
      </trkpt>
      <trkpt lat="44.78139" lon="5.46893">
        <ele>1792</ele>
        <time>2022-05-28T08:56:38.000Z</time>
      </trkpt>
      <trkpt lat="44.78137" lon="5.46894">
        <ele>1792.1999511719</ele>
        <time>2022-05-28T08:56:42.000Z</time>
      </trkpt>
      <trkpt lat="44.78135" lon="5.46892">
        <ele>1793</ele>
        <time>2022-05-28T08:56:52.000Z</time>
      </trkpt>
      <trkpt lat="44.78135" lon="5.46889">
        <ele>1793.8000488281</ele>
        <time>2022-05-28T08:56:58.000Z</time>
      </trkpt>
      <trkpt lat="44.78135" lon="5.46888">
        <ele>1794</ele>
        <time>2022-05-28T08:57:01.000Z</time>
      </trkpt>
      <trkpt lat="44.78135" lon="5.46888">
        <ele>1794</ele>
        <time>2022-05-28T08:57:02.000Z</time>
      </trkpt>
      <trkpt lat="44.78135" lon="5.46887">
        <ele>1794</ele>
        <time>2022-05-28T08:57:05.000Z</time>
      </trkpt>
      <trkpt lat="44.7813" lon="5.46871">
        <ele>1798.8000488281</ele>
        <time>2022-05-28T08:57:34.000Z</time>
      </trkpt>
      <trkpt lat="44.78132" lon="5.46872">
        <ele>1798</ele>
        <time>2022-05-28T08:57:46.000Z</time>
      </trkpt>
      <trkpt lat="44.78132" lon="5.46873">
        <ele>1798</ele>
        <time>2022-05-28T08:57:57.000Z</time>
      </trkpt>
      <trkpt lat="44.78131" lon="5.46873">
        <ele>1798.1999511719</ele>
        <time>2022-05-28T08:58:04.000Z</time>
      </trkpt>
      <trkpt lat="44.78131" lon="5.46878">
        <ele>1797.1999511719</ele>
        <time>2022-05-28T08:58:13.000Z</time>
      </trkpt>
      <trkpt lat="44.7813" lon="5.46875">
        <ele>1798</ele>
        <time>2022-05-28T08:58:38.000Z</time>
      </trkpt>
      <trkpt lat="44.7813" lon="5.46875">
        <ele>1798.1999511719</ele>
        <time>2022-05-28T08:58:50.000Z</time>
      </trkpt>
      <trkpt lat="44.7813" lon="5.46874">
        <ele>1798</ele>
        <time>2022-05-28T08:58:56.000Z</time>
      </trkpt>
      <trkpt lat="44.78132" lon="5.46876">
        <ele>1797.1999511719</ele>
        <time>2022-05-28T08:59:22.000Z</time>
      </trkpt>
      <trkpt lat="44.78131" lon="5.46875">
        <ele>1797.8000488281</ele>
        <time>2022-05-28T08:59:36.000Z</time>
      </trkpt>
      <trkpt lat="44.78131" lon="5.46878">
        <ele>1797</ele>
        <time>2022-05-28T09:00:01.000Z</time>
      </trkpt>
      <trkpt lat="44.78131" lon="5.46878">
        <ele>1797.1999511719</ele>
        <time>2022-05-28T09:00:04.000Z</time>
      </trkpt>
      <trkpt lat="44.78128" lon="5.46875">
        <ele>1798.5999755859</ele>
        <time>2022-05-28T09:00:13.000Z</time>
      </trkpt>
      <trkpt lat="44.78127" lon="5.46875">
        <ele>1798.5999755859</ele>
        <time>2022-05-28T09:00:14.000Z</time>
      </trkpt>
      <trkpt lat="44.78125" lon="5.46875">
        <ele>1799.1999511719</ele>
        <time>2022-05-28T09:00:19.000Z</time>
      </trkpt>
      <trkpt lat="44.78125" lon="5.46876">
        <ele>1799.1999511719</ele>
        <time>2022-05-28T09:00:26.000Z</time>
      </trkpt>
      <trkpt lat="44.78124" lon="5.46871">
        <ele>1800.4000244141</ele>
        <time>2022-05-28T09:00:34.000Z</time>
      </trkpt>
      <trkpt lat="44.78122" lon="5.46869">
        <ele>1801.4000244141</ele>
        <time>2022-05-28T09:00:39.000Z</time>
      </trkpt>
      <trkpt lat="44.78116" lon="5.46869">
        <ele>1803</ele>
        <time>2022-05-28T09:00:50.000Z</time>
      </trkpt>
      <trkpt lat="44.78116" lon="5.46869">
        <ele>1803.1999511719</ele>
        <time>2022-05-28T09:00:52.000Z</time>
      </trkpt>
      <trkpt lat="44.78116" lon="5.46866">
        <ele>1803.8000488281</ele>
        <time>2022-05-28T09:00:55.000Z</time>
      </trkpt>
      <trkpt lat="44.78116" lon="5.46865">
        <ele>1804</ele>
        <time>2022-05-28T09:00:56.000Z</time>
      </trkpt>
      <trkpt lat="44.78116" lon="5.46864">
        <ele>1804.1999511719</ele>
        <time>2022-05-28T09:00:57.000Z</time>
      </trkpt>
      <trkpt lat="44.78114" lon="5.46847">
        <ele>1809.8000488281</ele>
        <time>2022-05-28T09:01:17.000Z</time>
      </trkpt>
      <trkpt lat="44.78114" lon="5.46846">
        <ele>1810.4000244141</ele>
        <time>2022-05-28T09:01:19.000Z</time>
      </trkpt>
      <trkpt lat="44.7811" lon="5.4684">
        <ele>1814.1999511719</ele>
        <time>2022-05-28T09:01:33.000Z</time>
      </trkpt>
      <trkpt lat="44.7811" lon="5.46836">
        <ele>1815.4000244141</ele>
        <time>2022-05-28T09:01:40.000Z</time>
      </trkpt>
      <trkpt lat="44.78102" lon="5.46827">
        <ele>1822</ele>
        <time>2022-05-28T09:02:20.000Z</time>
      </trkpt>
      <trkpt lat="44.78092" lon="5.468">
        <ele>1832.4000244141</ele>
        <time>2022-05-28T09:03:13.000Z</time>
      </trkpt>
      <trkpt lat="44.78069" lon="5.46776">
        <ele>1841</ele>
        <time>2022-05-28T09:05:43.000Z</time>
      </trkpt>
      <trkpt lat="44.78064" lon="5.46773">
        <ele>1843</ele>
        <time>2022-05-28T09:05:51.000Z</time>
      </trkpt>
      <trkpt lat="44.78042" lon="5.4673">
        <ele>1852.8000488281</ele>
        <time>2022-05-28T09:07:05.000Z</time>
      </trkpt>
      <trkpt lat="44.78038" lon="5.46724">
        <ele>1854.8000488281</ele>
        <time>2022-05-28T09:07:15.000Z</time>
      </trkpt>
      <trkpt lat="44.78006" lon="5.46682">
        <ele>1865.8000488281</ele>
        <time>2022-05-28T09:08:27.000Z</time>
      </trkpt>
      <trkpt lat="44.77999" lon="5.46676">
        <ele>1867.1999511719</ele>
        <time>2022-05-28T09:08:38.000Z</time>
      </trkpt>
      <trkpt lat="44.77998" lon="5.46676">
        <ele>1867.1999511719</ele>
        <time>2022-05-28T09:08:39.000Z</time>
      </trkpt>
      <trkpt lat="44.77998" lon="5.46675">
        <ele>1867.4000244141</ele>
        <time>2022-05-28T09:08:40.000Z</time>
      </trkpt>
      <trkpt lat="44.77997" lon="5.46674">
        <ele>1867.5999755859</ele>
        <time>2022-05-28T09:08:43.000Z</time>
      </trkpt>
      <trkpt lat="44.77995" lon="5.46672">
        <ele>1868</ele>
        <time>2022-05-28T09:08:46.000Z</time>
      </trkpt>
      <trkpt lat="44.77995" lon="5.4667">
        <ele>1868.4000244141</ele>
        <time>2022-05-28T09:08:48.000Z</time>
      </trkpt>
      <trkpt lat="44.77995" lon="5.46669">
        <ele>1868.4000244141</ele>
        <time>2022-05-28T09:08:49.000Z</time>
      </trkpt>
      <trkpt lat="44.77994" lon="5.46668">
        <ele>1868.5999755859</ele>
        <time>2022-05-28T09:08:50.000Z</time>
      </trkpt>
      <trkpt lat="44.77992" lon="5.46664">
        <ele>1869.5999755859</ele>
        <time>2022-05-28T09:08:56.000Z</time>
      </trkpt>
      <trkpt lat="44.7799" lon="5.46658">
        <ele>1870.8000488281</ele>
        <time>2022-05-28T09:09:00.000Z</time>
      </trkpt>
      <trkpt lat="44.77986" lon="5.46652">
        <ele>1872.4000244141</ele>
        <time>2022-05-28T09:09:10.000Z</time>
      </trkpt>
      <trkpt lat="44.77986" lon="5.46652">
        <ele>1872.5999755859</ele>
        <time>2022-05-28T09:09:11.000Z</time>
      </trkpt>
      <trkpt lat="44.77986" lon="5.46652">
        <ele>1872.5999755859</ele>
        <time>2022-05-28T09:09:12.000Z</time>
      </trkpt>
      <trkpt lat="44.77986" lon="5.46652">
        <ele>1872.5999755859</ele>
        <time>2022-05-28T09:09:13.000Z</time>
      </trkpt>
      <trkpt lat="44.77985" lon="5.46649">
        <ele>1873.1999511719</ele>
        <time>2022-05-28T09:09:18.000Z</time>
      </trkpt>
      <trkpt lat="44.77985" lon="5.46647">
        <ele>1873.8000488281</ele>
        <time>2022-05-28T09:09:21.000Z</time>
      </trkpt>
      <trkpt lat="44.77984" lon="5.46645">
        <ele>1874.1999511719</ele>
        <time>2022-05-28T09:09:24.000Z</time>
      </trkpt>
      <trkpt lat="44.77981" lon="5.46641">
        <ele>1875.4000244141</ele>
        <time>2022-05-28T09:09:33.000Z</time>
      </trkpt>
      <trkpt lat="44.77979" lon="5.46638">
        <ele>1875.8000488281</ele>
        <time>2022-05-28T09:09:37.000Z</time>
      </trkpt>
      <trkpt lat="44.77978" lon="5.46637">
        <ele>1876</ele>
        <time>2022-05-28T09:09:41.000Z</time>
      </trkpt>
      <trkpt lat="44.77978" lon="5.46632">
        <ele>1876.8000488281</ele>
        <time>2022-05-28T09:09:51.000Z</time>
      </trkpt>
      <trkpt lat="44.77977" lon="5.46631">
        <ele>1876.8000488281</ele>
        <time>2022-05-28T09:09:58.000Z</time>
      </trkpt>
      <trkpt lat="44.77975" lon="5.4663">
        <ele>1877</ele>
        <time>2022-05-28T09:10:09.000Z</time>
      </trkpt>
      <trkpt lat="44.77972" lon="5.4663">
        <ele>1877.1999511719</ele>
        <time>2022-05-28T09:10:14.000Z</time>
      </trkpt>
      <trkpt lat="44.77968" lon="5.46623">
        <ele>1878</ele>
        <time>2022-05-28T09:10:21.000Z</time>
      </trkpt>
      <trkpt lat="44.7796" lon="5.46615">
        <ele>1879.1999511719</ele>
        <time>2022-05-28T09:10:34.000Z</time>
      </trkpt>
      <trkpt lat="44.77951" lon="5.46599">
        <ele>1881.5999755859</ele>
        <time>2022-05-28T09:10:59.000Z</time>
      </trkpt>
      <trkpt lat="44.77943" lon="5.46592">
        <ele>1881.5999755859</ele>
        <time>2022-05-28T09:11:11.000Z</time>
      </trkpt>
      <trkpt lat="44.77922" lon="5.46555">
        <ele>1888.8000488281</ele>
        <time>2022-05-28T09:12:20.000Z</time>
      </trkpt>
      <trkpt lat="44.77916" lon="5.46526">
        <ele>1894.1999511719</ele>
        <time>2022-05-28T09:12:51.000Z</time>
      </trkpt>
      <trkpt lat="44.77906" lon="5.46512">
        <ele>1896.5999755859</ele>
        <time>2022-05-28T09:13:08.000Z</time>
      </trkpt>
      <trkpt lat="44.77903" lon="5.4651">
        <ele>1897</ele>
        <time>2022-05-28T09:13:49.000Z</time>
      </trkpt>
      <trkpt lat="44.77903" lon="5.4651">
        <ele>1897</ele>
        <time>2022-05-28T09:13:56.000Z</time>
      </trkpt>
      <trkpt lat="44.77902" lon="5.4651">
        <ele>1897</ele>
        <time>2022-05-28T09:14:01.000Z</time>
      </trkpt>
      <trkpt lat="44.77903" lon="5.4651">
        <ele>1897</ele>
        <time>2022-05-28T09:14:07.000Z</time>
      </trkpt>
      <trkpt lat="44.77904" lon="5.46512">
        <ele>1896.8000488281</ele>
        <time>2022-05-28T09:14:17.000Z</time>
      </trkpt>
      <trkpt lat="44.77905" lon="5.46512">
        <ele>1896.5999755859</ele>
        <time>2022-05-28T09:14:30.000Z</time>
      </trkpt>
      <trkpt lat="44.77904" lon="5.46512">
        <ele>1896.5999755859</ele>
        <time>2022-05-28T09:14:42.000Z</time>
      </trkpt>
      <trkpt lat="44.77904" lon="5.46512">
        <ele>1896.8000488281</ele>
        <time>2022-05-28T09:14:57.000Z</time>
      </trkpt>
      <trkpt lat="44.77904" lon="5.46512">
        <ele>1896.5999755859</ele>
        <time>2022-05-28T09:14:58.000Z</time>
      </trkpt>
      <trkpt lat="44.77905" lon="5.46515">
        <ele>1896.1999511719</ele>
        <time>2022-05-28T09:15:04.000Z</time>
      </trkpt>
      <trkpt lat="44.77905" lon="5.46515">
        <ele>1896.1999511719</ele>
        <time>2022-05-28T09:15:06.000Z</time>
      </trkpt>
      <trkpt lat="44.77903" lon="5.46514">
        <ele>1896.4000244141</ele>
        <time>2022-05-28T09:15:13.000Z</time>
      </trkpt>
      <trkpt lat="44.77903" lon="5.46514">
        <ele>1896.1999511719</ele>
        <time>2022-05-28T09:15:22.000Z</time>
      </trkpt>
      <trkpt lat="44.77903" lon="5.46515">
        <ele>1896.1999511719</ele>
        <time>2022-05-28T09:15:28.000Z</time>
      </trkpt>
      <trkpt lat="44.77902" lon="5.46515">
        <ele>1896.1999511719</ele>
        <time>2022-05-28T09:15:29.000Z</time>
      </trkpt>
      <trkpt lat="44.77902" lon="5.46515">
        <ele>1896.1999511719</ele>
        <time>2022-05-28T09:15:30.000Z</time>
      </trkpt>
      <trkpt lat="44.77902" lon="5.46515">
        <ele>1896.1999511719</ele>
        <time>2022-05-28T09:15:31.000Z</time>
      </trkpt>
      <trkpt lat="44.77904" lon="5.46515">
        <ele>1896.1999511719</ele>
        <time>2022-05-28T09:15:40.000Z</time>
      </trkpt>
      <trkpt lat="44.77906" lon="5.46514">
        <ele>1896.4000244141</ele>
        <time>2022-05-28T09:16:04.000Z</time>
      </trkpt>
      <trkpt lat="44.77906" lon="5.46515">
        <ele>1896.1999511719</ele>
        <time>2022-05-28T09:16:56.000Z</time>
      </trkpt>
      <trkpt lat="44.779" lon="5.46501">
        <ele>1898.5999755859</ele>
        <time>2022-05-28T09:17:24.000Z</time>
      </trkpt>
      <trkpt lat="44.77896" lon="5.46498">
        <ele>1899</ele>
        <time>2022-05-28T09:17:30.000Z</time>
      </trkpt>
      <trkpt lat="44.77873" lon="5.46483">
        <ele>1900.5999755859</ele>
        <time>2022-05-28T09:18:08.000Z</time>
      </trkpt>
      <trkpt lat="44.77874" lon="5.46486">
        <ele>1900</ele>
        <time>2022-05-28T09:18:45.000Z</time>
      </trkpt>
      <trkpt lat="44.77875" lon="5.46486">
        <ele>1900.1999511719</ele>
        <time>2022-05-28T09:18:55.000Z</time>
      </trkpt>
      <trkpt lat="44.77875" lon="5.46486">
        <ele>1900.1999511719</ele>
        <time>2022-05-28T09:19:02.000Z</time>
      </trkpt>
      <trkpt lat="44.77875" lon="5.46486">
        <ele>1900</ele>
        <time>2022-05-28T09:19:10.000Z</time>
      </trkpt>
      <trkpt lat="44.77874" lon="5.46477">
        <ele>1901.4000244141</ele>
        <time>2022-05-28T09:19:26.000Z</time>
      </trkpt>
      <trkpt lat="44.77874" lon="5.46476">
        <ele>1901.4000244141</ele>
        <time>2022-05-28T09:19:33.000Z</time>
      </trkpt>
      <trkpt lat="44.77874" lon="5.46476">
        <ele>1901.4000244141</ele>
        <time>2022-05-28T09:19:36.000Z</time>
      </trkpt>
      <trkpt lat="44.77874" lon="5.46476">
        <ele>1901.4000244141</ele>
        <time>2022-05-28T09:19:39.000Z</time>
      </trkpt>
      <trkpt lat="44.77873" lon="5.46477">
        <ele>1901.4000244141</ele>
        <time>2022-05-28T09:19:46.000Z</time>
      </trkpt>
      <trkpt lat="44.77871" lon="5.46477">
        <ele>1901.4000244141</ele>
        <time>2022-05-28T09:19:59.000Z</time>
      </trkpt>
      <trkpt lat="44.77872" lon="5.46475">
        <ele>1901.5999755859</ele>
        <time>2022-05-28T09:20:27.000Z</time>
      </trkpt>
      <trkpt lat="44.77874" lon="5.46475">
        <ele>1901.5999755859</ele>
        <time>2022-05-28T09:20:58.000Z</time>
      </trkpt>
      <trkpt lat="44.77874" lon="5.46475">
        <ele>1901.5999755859</ele>
        <time>2022-05-28T09:21:35.000Z</time>
      </trkpt>
      <trkpt lat="44.77874" lon="5.46474">
        <ele>1901.5999755859</ele>
        <time>2022-05-28T09:21:48.000Z</time>
      </trkpt>
      <trkpt lat="44.77874" lon="5.46474">
        <ele>1901.5999755859</ele>
        <time>2022-05-28T09:22:00.000Z</time>
      </trkpt>
      <trkpt lat="44.77864" lon="5.46459">
        <ele>1902.8000488281</ele>
        <time>2022-05-28T09:22:34.000Z</time>
      </trkpt>
      <trkpt lat="44.77857" lon="5.46451">
        <ele>1902.8000488281</ele>
        <time>2022-05-28T09:22:44.000Z</time>
      </trkpt>
      <trkpt lat="44.77857" lon="5.4645">
        <ele>1903</ele>
        <time>2022-05-28T09:22:45.000Z</time>
      </trkpt>
      <trkpt lat="44.77856" lon="5.46449">
        <ele>1903</ele>
        <time>2022-05-28T09:22:46.000Z</time>
      </trkpt>
      <trkpt lat="44.77856" lon="5.46448">
        <ele>1903</ele>
        <time>2022-05-28T09:22:47.000Z</time>
      </trkpt>
      <trkpt lat="44.77855" lon="5.46447">
        <ele>1903.1999511719</ele>
        <time>2022-05-28T09:22:48.000Z</time>
      </trkpt>
      <trkpt lat="44.77852" lon="5.46443">
        <ele>1903.1999511719</ele>
        <time>2022-05-28T09:22:53.000Z</time>
      </trkpt>
      <trkpt lat="44.77853" lon="5.46443">
        <ele>1903.1999511719</ele>
        <time>2022-05-28T09:22:54.000Z</time>
      </trkpt>
      <trkpt lat="44.77852" lon="5.46442">
        <ele>1903.1999511719</ele>
        <time>2022-05-28T09:22:56.000Z</time>
      </trkpt>
      <trkpt lat="44.77852" lon="5.46442">
        <ele>1903.1999511719</ele>
        <time>2022-05-28T09:22:58.000Z</time>
      </trkpt>
      <trkpt lat="44.77852" lon="5.46442">
        <ele>1903.4000244141</ele>
        <time>2022-05-28T09:22:59.000Z</time>
      </trkpt>
      <trkpt lat="44.77852" lon="5.46442">
        <ele>1903.4000244141</ele>
        <time>2022-05-28T09:23:00.000Z</time>
      </trkpt>
      <trkpt lat="44.77852" lon="5.4644">
        <ele>1903.4000244141</ele>
        <time>2022-05-28T09:23:08.000Z</time>
      </trkpt>
      <trkpt lat="44.77852" lon="5.46438">
        <ele>1903.5999755859</ele>
        <time>2022-05-28T09:23:12.000Z</time>
      </trkpt>
      <trkpt lat="44.77848" lon="5.46438">
        <ele>1903.1999511719</ele>
        <time>2022-05-28T09:23:39.000Z</time>
      </trkpt>
      <trkpt lat="44.77848" lon="5.46437">
        <ele>1903.1999511719</ele>
        <time>2022-05-28T09:23:50.000Z</time>
      </trkpt>
      <trkpt lat="44.77847" lon="5.4644">
        <ele>1902.8000488281</ele>
        <time>2022-05-28T09:24:06.000Z</time>
      </trkpt>
      <trkpt lat="44.77844" lon="5.46436">
        <ele>1902.8000488281</ele>
        <time>2022-05-28T09:24:14.000Z</time>
      </trkpt>
      <trkpt lat="44.77841" lon="5.46432">
        <ele>1902.8000488281</ele>
        <time>2022-05-28T09:24:18.000Z</time>
      </trkpt>
      <trkpt lat="44.77832" lon="5.46424">
        <ele>1902.4000244141</ele>
        <time>2022-05-28T09:24:29.000Z</time>
      </trkpt>
      <trkpt lat="44.7783" lon="5.46422">
        <ele>1902.4000244141</ele>
        <time>2022-05-28T09:24:31.000Z</time>
      </trkpt>
      <trkpt lat="44.77828" lon="5.46418">
        <ele>1902.4000244141</ele>
        <time>2022-05-28T09:24:34.000Z</time>
      </trkpt>
      <trkpt lat="44.77827" lon="5.46415">
        <ele>1902.4000244141</ele>
        <time>2022-05-28T09:24:37.000Z</time>
      </trkpt>
      <trkpt lat="44.77821" lon="5.46413">
        <ele>1901.8000488281</ele>
        <time>2022-05-28T09:24:45.000Z</time>
      </trkpt>
      <trkpt lat="44.77818" lon="5.4641">
        <ele>1901.1999511719</ele>
        <time>2022-05-28T09:24:49.000Z</time>
      </trkpt>
      <trkpt lat="44.77808" lon="5.46402">
        <ele>1900.1999511719</ele>
        <time>2022-05-28T09:25:04.000Z</time>
      </trkpt>
      <trkpt lat="44.77802" lon="5.46401">
        <ele>1899.5999755859</ele>
        <time>2022-05-28T09:25:12.000Z</time>
      </trkpt>
      <trkpt lat="44.77801" lon="5.464">
        <ele>1899.5999755859</ele>
        <time>2022-05-28T09:25:13.000Z</time>
      </trkpt>
      <trkpt lat="44.778" lon="5.464">
        <ele>1899.4000244141</ele>
        <time>2022-05-28T09:25:16.000Z</time>
      </trkpt>
      <trkpt lat="44.77799" lon="5.464">
        <ele>1899.4000244141</ele>
        <time>2022-05-28T09:25:17.000Z</time>
      </trkpt>
      <trkpt lat="44.77799" lon="5.464">
        <ele>1899.4000244141</ele>
        <time>2022-05-28T09:25:18.000Z</time>
      </trkpt>
      <trkpt lat="44.77799" lon="5.464">
        <ele>1899.4000244141</ele>
        <time>2022-05-28T09:25:19.000Z</time>
      </trkpt>
      <trkpt lat="44.778" lon="5.46399">
        <ele>1899.4000244141</ele>
        <time>2022-05-28T09:25:24.000Z</time>
      </trkpt>
      <trkpt lat="44.77802" lon="5.46396">
        <ele>1899.4000244141</ele>
        <time>2022-05-28T09:25:27.000Z</time>
      </trkpt>
      <trkpt lat="44.77802" lon="5.46386">
        <ele>1899.1999511719</ele>
        <time>2022-05-28T09:25:38.000Z</time>
      </trkpt>
      <trkpt lat="44.77797" lon="5.46373">
        <ele>1898.8000488281</ele>
        <time>2022-05-28T09:25:45.000Z</time>
      </trkpt>
      <trkpt lat="44.77808" lon="5.46342">
        <ele>1895.8000488281</ele>
        <time>2022-05-28T09:25:57.000Z</time>
      </trkpt>
      <trkpt lat="44.77809" lon="5.46338">
        <ele>1895.1999511719</ele>
        <time>2022-05-28T09:25:59.000Z</time>
      </trkpt>
      <trkpt lat="44.77809" lon="5.46334">
        <ele>1894.5999755859</ele>
        <time>2022-05-28T09:26:01.000Z</time>
      </trkpt>
      <trkpt lat="44.77808" lon="5.46332">
        <ele>1894.4000244141</ele>
        <time>2022-05-28T09:26:02.000Z</time>
      </trkpt>
      <trkpt lat="44.77808" lon="5.46331">
        <ele>1894.1999511719</ele>
        <time>2022-05-28T09:26:03.000Z</time>
      </trkpt>
      <trkpt lat="44.77809" lon="5.46329">
        <ele>1894</ele>
        <time>2022-05-28T09:26:05.000Z</time>
      </trkpt>
      <trkpt lat="44.77809" lon="5.46329">
        <ele>1894</ele>
        <time>2022-05-28T09:26:09.000Z</time>
      </trkpt>
      <trkpt lat="44.77809" lon="5.46329">
        <ele>1894</ele>
        <time>2022-05-28T09:26:12.000Z</time>
      </trkpt>
      <trkpt lat="44.77809" lon="5.46329">
        <ele>1894.1999511719</ele>
        <time>2022-05-28T09:26:14.000Z</time>
      </trkpt>
      <trkpt lat="44.77808" lon="5.46331">
        <ele>1894.1999511719</ele>
        <time>2022-05-28T09:26:18.000Z</time>
      </trkpt>
      <trkpt lat="44.77809" lon="5.46332">
        <ele>1894.1999511719</ele>
        <time>2022-05-28T09:26:20.000Z</time>
      </trkpt>
      <trkpt lat="44.77809" lon="5.46332">
        <ele>1894.4000244141</ele>
        <time>2022-05-28T09:26:21.000Z</time>
      </trkpt>
      <trkpt lat="44.7781" lon="5.46332">
        <ele>1894.1999511719</ele>
        <time>2022-05-28T09:26:28.000Z</time>
      </trkpt>
      <trkpt lat="44.77811" lon="5.46333">
        <ele>1894.1999511719</ele>
        <time>2022-05-28T09:26:31.000Z</time>
      </trkpt>
      <trkpt lat="44.7781" lon="5.46332">
        <ele>1894.1999511719</ele>
        <time>2022-05-28T09:26:33.000Z</time>
      </trkpt>
      <trkpt lat="44.77809" lon="5.46332">
        <ele>1894.4000244141</ele>
        <time>2022-05-28T09:26:35.000Z</time>
      </trkpt>
      <trkpt lat="44.77809" lon="5.46332">
        <ele>1894.4000244141</ele>
        <time>2022-05-28T09:26:36.000Z</time>
      </trkpt>
      <trkpt lat="44.77808" lon="5.46333">
        <ele>1894.4000244141</ele>
        <time>2022-05-28T09:26:37.000Z</time>
      </trkpt>
      <trkpt lat="44.77806" lon="5.46333">
        <ele>1894.5999755859</ele>
        <time>2022-05-28T09:26:41.000Z</time>
      </trkpt>
      <trkpt lat="44.77805" lon="5.46333">
        <ele>1894.5999755859</ele>
        <time>2022-05-28T09:26:45.000Z</time>
      </trkpt>
      <trkpt lat="44.77806" lon="5.46334">
        <ele>1894.8000488281</ele>
        <time>2022-05-28T09:26:56.000Z</time>
      </trkpt>
      <trkpt lat="44.77806" lon="5.46334">
        <ele>1894.8000488281</ele>
        <time>2022-05-28T09:26:57.000Z</time>
      </trkpt>
      <trkpt lat="44.77806" lon="5.46333">
        <ele>1894.5999755859</ele>
        <time>2022-05-28T09:27:01.000Z</time>
      </trkpt>
      <trkpt lat="44.77807" lon="5.46332">
        <ele>1894.4000244141</ele>
        <time>2022-05-28T09:27:04.000Z</time>
      </trkpt>
      <trkpt lat="44.77807" lon="5.46331">
        <ele>1894.4000244141</ele>
        <time>2022-05-28T09:27:07.000Z</time>
      </trkpt>
      <trkpt lat="44.77807" lon="5.46331">
        <ele>1894.4000244141</ele>
        <time>2022-05-28T09:27:08.000Z</time>
      </trkpt>
      <trkpt lat="44.77807" lon="5.46331">
        <ele>1894.4000244141</ele>
        <time>2022-05-28T09:27:09.000Z</time>
      </trkpt>
      <trkpt lat="44.77806" lon="5.4633">
        <ele>1894.4000244141</ele>
        <time>2022-05-28T09:27:12.000Z</time>
      </trkpt>
      <trkpt lat="44.77805" lon="5.46332">
        <ele>1894.5999755859</ele>
        <time>2022-05-28T09:27:16.000Z</time>
      </trkpt>
      <trkpt lat="44.77804" lon="5.46334">
        <ele>1895</ele>
        <time>2022-05-28T09:27:20.000Z</time>
      </trkpt>
      <trkpt lat="44.77804" lon="5.46335">
        <ele>1895</ele>
        <time>2022-05-28T09:27:21.000Z</time>
      </trkpt>
      <trkpt lat="44.77804" lon="5.46336">
        <ele>1895.1999511719</ele>
        <time>2022-05-28T09:27:22.000Z</time>
      </trkpt>
      <trkpt lat="44.77803" lon="5.46339">
        <ele>1895.8000488281</ele>
        <time>2022-05-28T09:27:24.000Z</time>
      </trkpt>
      <trkpt lat="44.77802" lon="5.46341">
        <ele>1896</ele>
        <time>2022-05-28T09:27:25.000Z</time>
      </trkpt>
      <trkpt lat="44.778" lon="5.46342">
        <ele>1896.4000244141</ele>
        <time>2022-05-28T09:27:28.000Z</time>
      </trkpt>
      <trkpt lat="44.77798" lon="5.46342">
        <ele>1896.4000244141</ele>
        <time>2022-05-28T09:27:30.000Z</time>
      </trkpt>
      <trkpt lat="44.77796" lon="5.46341">
        <ele>1896.5999755859</ele>
        <time>2022-05-28T09:27:31.000Z</time>
      </trkpt>
      <trkpt lat="44.77753" lon="5.46356">
        <ele>1895.4000244141</ele>
        <time>2022-05-28T09:28:15.000Z</time>
      </trkpt>
      <trkpt lat="44.77745" lon="5.46357">
        <ele>1893.8000488281</ele>
        <time>2022-05-28T09:28:22.000Z</time>
      </trkpt>
      <trkpt lat="44.77726" lon="5.46361">
        <ele>1890</ele>
        <time>2022-05-28T09:28:41.000Z</time>
      </trkpt>
      <trkpt lat="44.7771" lon="5.46351">
        <ele>1887.5999755859</ele>
        <time>2022-05-28T09:29:23.000Z</time>
      </trkpt>
      <trkpt lat="44.77703" lon="5.46346">
        <ele>1886.5999755859</ele>
        <time>2022-05-28T09:29:32.000Z</time>
      </trkpt>
      <trkpt lat="44.77685" lon="5.46341">
        <ele>1886.4000244141</ele>
        <time>2022-05-28T09:29:51.000Z</time>
      </trkpt>
      <trkpt lat="44.77674" lon="5.46338">
        <ele>1886.1999511719</ele>
        <time>2022-05-28T09:30:03.000Z</time>
      </trkpt>
      <trkpt lat="44.7767" lon="5.46341">
        <ele>1886</ele>
        <time>2022-05-28T09:30:34.000Z</time>
      </trkpt>
      <trkpt lat="44.77668" lon="5.46338">
        <ele>1886.4000244141</ele>
        <time>2022-05-28T09:30:43.000Z</time>
      </trkpt>
      <trkpt lat="44.77663" lon="5.46336">
        <ele>1886.8000488281</ele>
        <time>2022-05-28T09:30:51.000Z</time>
      </trkpt>
      <trkpt lat="44.77656" lon="5.46333">
        <ele>1887.5999755859</ele>
        <time>2022-05-28T09:31:02.000Z</time>
      </trkpt>
      <trkpt lat="44.77654" lon="5.46333">
        <ele>1887.5999755859</ele>
        <time>2022-05-28T09:31:04.000Z</time>
      </trkpt>
      <trkpt lat="44.77653" lon="5.46332">
        <ele>1887.8000488281</ele>
        <time>2022-05-28T09:31:05.000Z</time>
      </trkpt>
      <trkpt lat="44.77649" lon="5.46329">
        <ele>1888.4000244141</ele>
        <time>2022-05-28T09:31:09.000Z</time>
      </trkpt>
      <trkpt lat="44.77648" lon="5.46328">
        <ele>1888.4000244141</ele>
        <time>2022-05-28T09:31:10.000Z</time>
      </trkpt>
      <trkpt lat="44.77647" lon="5.46327">
        <ele>1888.5999755859</ele>
        <time>2022-05-28T09:31:11.000Z</time>
      </trkpt>
      <trkpt lat="44.77645" lon="5.46324">
        <ele>1889</ele>
        <time>2022-05-28T09:31:13.000Z</time>
      </trkpt>
      <trkpt lat="44.77645" lon="5.46323">
        <ele>1889.1999511719</ele>
        <time>2022-05-28T09:31:14.000Z</time>
      </trkpt>
      <trkpt lat="44.77643" lon="5.46322">
        <ele>1889.5999755859</ele>
        <time>2022-05-28T09:31:16.000Z</time>
      </trkpt>
      <trkpt lat="44.77636" lon="5.46317">
        <ele>1890.8000488281</ele>
        <time>2022-05-28T09:31:23.000Z</time>
      </trkpt>
      <trkpt lat="44.77635" lon="5.46317">
        <ele>1891</ele>
        <time>2022-05-28T09:31:24.000Z</time>
      </trkpt>
      <trkpt lat="44.77625" lon="5.46317">
        <ele>1891.4000244141</ele>
        <time>2022-05-28T09:31:33.000Z</time>
      </trkpt>
      <trkpt lat="44.77612" lon="5.46318">
        <ele>1892.4000244141</ele>
        <time>2022-05-28T09:31:47.000Z</time>
      </trkpt>
      <trkpt lat="44.77602" lon="5.4632">
        <ele>1893.5999755859</ele>
        <time>2022-05-28T09:31:59.000Z</time>
      </trkpt>
      <trkpt lat="44.77596" lon="5.46323">
        <ele>1894</ele>
        <time>2022-05-28T09:32:10.000Z</time>
      </trkpt>
      <trkpt lat="44.77593" lon="5.46326">
        <ele>1894.1999511719</ele>
        <time>2022-05-28T09:32:14.000Z</time>
      </trkpt>
      <trkpt lat="44.77574" lon="5.46342">
        <ele>1893.4000244141</ele>
        <time>2022-05-28T09:32:40.000Z</time>
      </trkpt>
      <trkpt lat="44.77557" lon="5.46364">
        <ele>1893</ele>
        <time>2022-05-28T09:33:02.000Z</time>
      </trkpt>
      <trkpt lat="44.77548" lon="5.46376">
        <ele>1892.8000488281</ele>
        <time>2022-05-28T09:33:15.000Z</time>
      </trkpt>
      <trkpt lat="44.77532" lon="5.46388">
        <ele>1892.5999755859</ele>
        <time>2022-05-28T09:33:33.000Z</time>
      </trkpt>
      <trkpt lat="44.775" lon="5.46434">
        <ele>1892.4000244141</ele>
        <time>2022-05-28T09:34:12.000Z</time>
      </trkpt>
      <trkpt lat="44.77492" lon="5.46451">
        <ele>1891.5999755859</ele>
        <time>2022-05-28T09:34:24.000Z</time>
      </trkpt>
      <trkpt lat="44.77491" lon="5.46451">
        <ele>1891.5999755859</ele>
        <time>2022-05-28T09:34:26.000Z</time>
      </trkpt>
      <trkpt lat="44.7749" lon="5.46451">
        <ele>1891.8000488281</ele>
        <time>2022-05-28T09:34:30.000Z</time>
      </trkpt>
      <trkpt lat="44.7749" lon="5.46455">
        <ele>1891.4000244141</ele>
        <time>2022-05-28T09:34:37.000Z</time>
      </trkpt>
      <trkpt lat="44.77488" lon="5.46458">
        <ele>1891.1999511719</ele>
        <time>2022-05-28T09:34:41.000Z</time>
      </trkpt>
      <trkpt lat="44.77488" lon="5.46459">
        <ele>1891</ele>
        <time>2022-05-28T09:34:42.000Z</time>
      </trkpt>
      <trkpt lat="44.77477" lon="5.46472">
        <ele>1889.5999755859</ele>
        <time>2022-05-28T09:34:55.000Z</time>
      </trkpt>
      <trkpt lat="44.77473" lon="5.46475">
        <ele>1889</ele>
        <time>2022-05-28T09:34:59.000Z</time>
      </trkpt>
      <trkpt lat="44.77467" lon="5.4648">
        <ele>1888.1999511719</ele>
        <time>2022-05-28T09:35:06.000Z</time>
      </trkpt>
      <trkpt lat="44.77423" lon="5.46492">
        <ele>1883.1999511719</ele>
        <time>2022-05-28T09:35:50.000Z</time>
      </trkpt>
      <trkpt lat="44.77402" lon="5.4649">
        <ele>1881.8000488281</ele>
        <time>2022-05-28T09:36:13.000Z</time>
      </trkpt>
      <trkpt lat="44.77375" lon="5.46481">
        <ele>1884.1999511719</ele>
        <time>2022-05-28T09:36:46.000Z</time>
      </trkpt>
      <trkpt lat="44.77356" lon="5.46502">
        <ele>1885.8000488281</ele>
        <time>2022-05-28T09:37:16.000Z</time>
      </trkpt>
      <trkpt lat="44.77346" lon="5.46507">
        <ele>1887.1999511719</ele>
        <time>2022-05-28T09:37:26.000Z</time>
      </trkpt>
      <trkpt lat="44.77319" lon="5.46524">
        <ele>1887</ele>
        <time>2022-05-28T09:38:09.000Z</time>
      </trkpt>
      <trkpt lat="44.77276" lon="5.46542">
        <ele>1883.4000244141</ele>
        <time>2022-05-28T09:38:52.000Z</time>
      </trkpt>
      <trkpt lat="44.77273" lon="5.4654">
        <ele>1883</ele>
        <time>2022-05-28T09:39:16.000Z</time>
      </trkpt>
      <trkpt lat="44.77273" lon="5.4654">
        <ele>1883</ele>
        <time>2022-05-28T09:39:30.000Z</time>
      </trkpt>
      <trkpt lat="44.77271" lon="5.46539">
        <ele>1882.8000488281</ele>
        <time>2022-05-28T09:39:37.000Z</time>
      </trkpt>
      <trkpt lat="44.77267" lon="5.4654">
        <ele>1882.8000488281</ele>
        <time>2022-05-28T09:39:42.000Z</time>
      </trkpt>
      <trkpt lat="44.77263" lon="5.46543">
        <ele>1883</ele>
        <time>2022-05-28T09:39:48.000Z</time>
      </trkpt>
      <trkpt lat="44.77245" lon="5.46548">
        <ele>1883.5999755859</ele>
        <time>2022-05-28T09:40:02.000Z</time>
      </trkpt>
      <trkpt lat="44.77236" lon="5.46544">
        <ele>1883.5999755859</ele>
        <time>2022-05-28T09:40:09.000Z</time>
      </trkpt>
      <trkpt lat="44.77233" lon="5.46543">
        <ele>1883.5999755859</ele>
        <time>2022-05-28T09:40:12.000Z</time>
      </trkpt>
      <trkpt lat="44.77231" lon="5.46542">
        <ele>1883.5999755859</ele>
        <time>2022-05-28T09:40:14.000Z</time>
      </trkpt>
      <trkpt lat="44.77219" lon="5.46535">
        <ele>1883</ele>
        <time>2022-05-28T09:40:25.000Z</time>
      </trkpt>
      <trkpt lat="44.77216" lon="5.46534">
        <ele>1882.8000488281</ele>
        <time>2022-05-28T09:40:27.000Z</time>
      </trkpt>
      <trkpt lat="44.77211" lon="5.4653">
        <ele>1882.4000244141</ele>
        <time>2022-05-28T09:40:31.000Z</time>
      </trkpt>
      <trkpt lat="44.77209" lon="5.46528">
        <ele>1882.1999511719</ele>
        <time>2022-05-28T09:40:33.000Z</time>
      </trkpt>
      <trkpt lat="44.77205" lon="5.46523">
        <ele>1881.5999755859</ele>
        <time>2022-05-28T09:40:37.000Z</time>
      </trkpt>
      <trkpt lat="44.77193" lon="5.46513">
        <ele>1880.8000488281</ele>
        <time>2022-05-28T09:40:47.000Z</time>
      </trkpt>
      <trkpt lat="44.77171" lon="5.46488">
        <ele>1879.5999755859</ele>
        <time>2022-05-28T09:41:31.000Z</time>
      </trkpt>
      <trkpt lat="44.7717" lon="5.46483">
        <ele>1879.4000244141</ele>
        <time>2022-05-28T09:41:35.000Z</time>
      </trkpt>
      <trkpt lat="44.77166" lon="5.46463">
        <ele>1879</ele>
        <time>2022-05-28T09:41:42.000Z</time>
      </trkpt>
      <trkpt lat="44.77166" lon="5.46461">
        <ele>1879</ele>
        <time>2022-05-28T09:41:43.000Z</time>
      </trkpt>
      <trkpt lat="44.77166" lon="5.4646">
        <ele>1878.8000488281</ele>
        <time>2022-05-28T09:41:44.000Z</time>
      </trkpt>
      <trkpt lat="44.77165" lon="5.46459">
        <ele>1878.8000488281</ele>
        <time>2022-05-28T09:41:45.000Z</time>
      </trkpt>
      <trkpt lat="44.77165" lon="5.46457">
        <ele>1878.8000488281</ele>
        <time>2022-05-28T09:41:46.000Z</time>
      </trkpt>
      <trkpt lat="44.77164" lon="5.46455">
        <ele>1878.8000488281</ele>
        <time>2022-05-28T09:41:47.000Z</time>
      </trkpt>
      <trkpt lat="44.77163" lon="5.46451">
        <ele>1878.5999755859</ele>
        <time>2022-05-28T09:41:50.000Z</time>
      </trkpt>
      <trkpt lat="44.7716" lon="5.46446">
        <ele>1878.5999755859</ele>
        <time>2022-05-28T09:41:53.000Z</time>
      </trkpt>
      <trkpt lat="44.77157" lon="5.46441">
        <ele>1878.5999755859</ele>
        <time>2022-05-28T09:41:57.000Z</time>
      </trkpt>
      <trkpt lat="44.77156" lon="5.46437">
        <ele>1878.5999755859</ele>
        <time>2022-05-28T09:42:00.000Z</time>
      </trkpt>
      <trkpt lat="44.77154" lon="5.46434">
        <ele>1878.8000488281</ele>
        <time>2022-05-28T09:42:03.000Z</time>
      </trkpt>
      <trkpt lat="44.77153" lon="5.46433">
        <ele>1878.8000488281</ele>
        <time>2022-05-28T09:42:05.000Z</time>
      </trkpt>
      <trkpt lat="44.77152" lon="5.46432">
        <ele>1878.8000488281</ele>
        <time>2022-05-28T09:42:06.000Z</time>
      </trkpt>
      <trkpt lat="44.77153" lon="5.46433">
        <ele>1878.8000488281</ele>
        <time>2022-05-28T09:42:08.000Z</time>
      </trkpt>
      <trkpt lat="44.77153" lon="5.46435">
        <ele>1878.8000488281</ele>
        <time>2022-05-28T09:42:11.000Z</time>
      </trkpt>
      <trkpt lat="44.77153" lon="5.46435">
        <ele>1878.8000488281</ele>
        <time>2022-05-28T09:42:12.000Z</time>
      </trkpt>
      <trkpt lat="44.77153" lon="5.46436">
        <ele>1878.8000488281</ele>
        <time>2022-05-28T09:42:13.000Z</time>
      </trkpt>
      <trkpt lat="44.77155" lon="5.46433">
        <ele>1878.5999755859</ele>
        <time>2022-05-28T09:42:35.000Z</time>
      </trkpt>
      <trkpt lat="44.77156" lon="5.46432">
        <ele>1878.5999755859</ele>
        <time>2022-05-28T09:42:39.000Z</time>
      </trkpt>
      <trkpt lat="44.77154" lon="5.46425">
        <ele>1878.8000488281</ele>
        <time>2022-05-28T09:42:45.000Z</time>
      </trkpt>
      <trkpt lat="44.77151" lon="5.46411">
        <ele>1879.4000244141</ele>
        <time>2022-05-28T09:42:56.000Z</time>
      </trkpt>
      <trkpt lat="44.77148" lon="5.46404">
        <ele>1879.8000488281</ele>
        <time>2022-05-28T09:43:00.000Z</time>
      </trkpt>
      <trkpt lat="44.77145" lon="5.46389">
        <ele>1880.8000488281</ele>
        <time>2022-05-28T09:43:18.000Z</time>
      </trkpt>
      <trkpt lat="44.77146" lon="5.46388">
        <ele>1880.8000488281</ele>
        <time>2022-05-28T09:43:31.000Z</time>
      </trkpt>
      <trkpt lat="44.77144" lon="5.46388">
        <ele>1880.5999755859</ele>
        <time>2022-05-28T09:43:50.000Z</time>
      </trkpt>
      <trkpt lat="44.77143" lon="5.46376">
        <ele>1881.4000244141</ele>
        <time>2022-05-28T09:44:12.000Z</time>
      </trkpt>
      <trkpt lat="44.77139" lon="5.46371">
        <ele>1881.1999511719</ele>
        <time>2022-05-28T09:44:19.000Z</time>
      </trkpt>
      <trkpt lat="44.77138" lon="5.4637">
        <ele>1881.1999511719</ele>
        <time>2022-05-28T09:44:20.000Z</time>
      </trkpt>
      <trkpt lat="44.77138" lon="5.46369">
        <ele>1881.1999511719</ele>
        <time>2022-05-28T09:44:21.000Z</time>
      </trkpt>
      <trkpt lat="44.77138" lon="5.46368">
        <ele>1881.1999511719</ele>
        <time>2022-05-28T09:44:22.000Z</time>
      </trkpt>
      <trkpt lat="44.77134" lon="5.46349">
        <ele>1882.1999511719</ele>
        <time>2022-05-28T09:44:39.000Z</time>
      </trkpt>
      <trkpt lat="44.77134" lon="5.46348">
        <ele>1882.1999511719</ele>
        <time>2022-05-28T09:44:40.000Z</time>
      </trkpt>
      <trkpt lat="44.77133" lon="5.46347">
        <ele>1882</ele>
        <time>2022-05-28T09:44:41.000Z</time>
      </trkpt>
      <trkpt lat="44.77133" lon="5.46346">
        <ele>1882</ele>
        <time>2022-05-28T09:44:42.000Z</time>
      </trkpt>
      <trkpt lat="44.77132" lon="5.46346">
        <ele>1882</ele>
        <time>2022-05-28T09:44:43.000Z</time>
      </trkpt>
      <trkpt lat="44.77132" lon="5.46342">
        <ele>1882.4000244141</ele>
        <time>2022-05-28T09:44:47.000Z</time>
      </trkpt>
      <trkpt lat="44.77132" lon="5.4634">
        <ele>1882.5999755859</ele>
        <time>2022-05-28T09:44:48.000Z</time>
      </trkpt>
      <trkpt lat="44.77132" lon="5.46338">
        <ele>1882.8000488281</ele>
        <time>2022-05-28T09:44:50.000Z</time>
      </trkpt>
      <trkpt lat="44.77131" lon="5.46332">
        <ele>1883</ele>
        <time>2022-05-28T09:44:54.000Z</time>
      </trkpt>
      <trkpt lat="44.7713" lon="5.46331">
        <ele>1883</ele>
        <time>2022-05-28T09:44:56.000Z</time>
      </trkpt>
      <trkpt lat="44.7713" lon="5.4633">
        <ele>1883</ele>
        <time>2022-05-28T09:44:57.000Z</time>
      </trkpt>
      <trkpt lat="44.7713" lon="5.46328">
        <ele>1883.1999511719</ele>
        <time>2022-05-28T09:45:02.000Z</time>
      </trkpt>
      <trkpt lat="44.7713" lon="5.46328">
        <ele>1883.1999511719</ele>
        <time>2022-05-28T09:45:03.000Z</time>
      </trkpt>
      <trkpt lat="44.77129" lon="5.46327">
        <ele>1883</ele>
        <time>2022-05-28T09:45:04.000Z</time>
      </trkpt>
      <trkpt lat="44.77129" lon="5.46325">
        <ele>1883</ele>
        <time>2022-05-28T09:45:05.000Z</time>
      </trkpt>
      <trkpt lat="44.77128" lon="5.46323">
        <ele>1883</ele>
        <time>2022-05-28T09:45:07.000Z</time>
      </trkpt>
      <trkpt lat="44.77127" lon="5.46318">
        <ele>1883</ele>
        <time>2022-05-28T09:45:11.000Z</time>
      </trkpt>
      <trkpt lat="44.77126" lon="5.46313">
        <ele>1883.1999511719</ele>
        <time>2022-05-28T09:45:14.000Z</time>
      </trkpt>
      <trkpt lat="44.77123" lon="5.46295">
        <ele>1884.1999511719</ele>
        <time>2022-05-28T09:45:28.000Z</time>
      </trkpt>
      <trkpt lat="44.77122" lon="5.4629">
        <ele>1884.5999755859</ele>
        <time>2022-05-28T09:45:32.000Z</time>
      </trkpt>
      <trkpt lat="44.77121" lon="5.46282">
        <ele>1885</ele>
        <time>2022-05-28T09:45:39.000Z</time>
      </trkpt>
      <trkpt lat="44.77119" lon="5.46277">
        <ele>1885</ele>
        <time>2022-05-28T09:45:43.000Z</time>
      </trkpt>
      <trkpt lat="44.77118" lon="5.46272">
        <ele>1885.1999511719</ele>
        <time>2022-05-28T09:45:47.000Z</time>
      </trkpt>
      <trkpt lat="44.77114" lon="5.46258">
        <ele>1885.1999511719</ele>
        <time>2022-05-28T09:45:58.000Z</time>
      </trkpt>
      <trkpt lat="44.77114" lon="5.46252">
        <ele>1885.5999755859</ele>
        <time>2022-05-28T09:46:03.000Z</time>
      </trkpt>
      <trkpt lat="44.77109" lon="5.46239">
        <ele>1885</ele>
        <time>2022-05-28T09:46:12.000Z</time>
      </trkpt>
      <trkpt lat="44.77103" lon="5.46229">
        <ele>1883.4000244141</ele>
        <time>2022-05-28T09:46:19.000Z</time>
      </trkpt>
      <trkpt lat="44.77102" lon="5.46223">
        <ele>1883</ele>
        <time>2022-05-28T09:46:23.000Z</time>
      </trkpt>
      <trkpt lat="44.77101" lon="5.46222">
        <ele>1883</ele>
        <time>2022-05-28T09:46:24.000Z</time>
      </trkpt>
      <trkpt lat="44.77099" lon="5.46212">
        <ele>1882.8000488281</ele>
        <time>2022-05-28T09:46:31.000Z</time>
      </trkpt>
      <trkpt lat="44.77089" lon="5.46182">
        <ele>1881.4000244141</ele>
        <time>2022-05-28T09:46:53.000Z</time>
      </trkpt>
      <trkpt lat="44.77086" lon="5.46172">
        <ele>1881.1999511719</ele>
        <time>2022-05-28T09:47:00.000Z</time>
      </trkpt>
      <trkpt lat="44.77086" lon="5.46155">
        <ele>1883</ele>
        <time>2022-05-28T09:47:14.000Z</time>
      </trkpt>
      <trkpt lat="44.77083" lon="5.46125">
        <ele>1886.8000488281</ele>
        <time>2022-05-28T09:47:36.000Z</time>
      </trkpt>
      <trkpt lat="44.77083" lon="5.46119">
        <ele>1888.1999511719</ele>
        <time>2022-05-28T09:47:42.000Z</time>
      </trkpt>
      <trkpt lat="44.77081" lon="5.46115">
        <ele>1888.4000244141</ele>
        <time>2022-05-28T09:47:45.000Z</time>
      </trkpt>
      <trkpt lat="44.77081" lon="5.46114">
        <ele>1888.5999755859</ele>
        <time>2022-05-28T09:47:46.000Z</time>
      </trkpt>
      <trkpt lat="44.7708" lon="5.46113">
        <ele>1888.5999755859</ele>
        <time>2022-05-28T09:47:47.000Z</time>
      </trkpt>
      <trkpt lat="44.77079" lon="5.46112">
        <ele>1888.5999755859</ele>
        <time>2022-05-28T09:47:48.000Z</time>
      </trkpt>
      <trkpt lat="44.77078" lon="5.46111">
        <ele>1888.8000488281</ele>
        <time>2022-05-28T09:47:49.000Z</time>
      </trkpt>
      <trkpt lat="44.77078" lon="5.46109">
        <ele>1889</ele>
        <time>2022-05-28T09:47:50.000Z</time>
      </trkpt>
      <trkpt lat="44.77077" lon="5.46108">
        <ele>1889</ele>
        <time>2022-05-28T09:47:51.000Z</time>
      </trkpt>
      <trkpt lat="44.77075" lon="5.46104">
        <ele>1889.5999755859</ele>
        <time>2022-05-28T09:47:54.000Z</time>
      </trkpt>
      <trkpt lat="44.77066" lon="5.46093">
        <ele>1890</ele>
        <time>2022-05-28T09:48:06.000Z</time>
      </trkpt>
      <trkpt lat="44.77059" lon="5.46088">
        <ele>1891</ele>
        <time>2022-05-28T09:48:16.000Z</time>
      </trkpt>
      <trkpt lat="44.77051" lon="5.46084">
        <ele>1892.4000244141</ele>
        <time>2022-05-28T09:48:24.000Z</time>
      </trkpt>
      <trkpt lat="44.77038" lon="5.46085">
        <ele>1893</ele>
        <time>2022-05-28T09:48:37.000Z</time>
      </trkpt>
      <trkpt lat="44.7703" lon="5.46093">
        <ele>1891.8000488281</ele>
        <time>2022-05-28T09:48:46.000Z</time>
      </trkpt>
      <trkpt lat="44.77026" lon="5.46099">
        <ele>1890.8000488281</ele>
        <time>2022-05-28T09:48:53.000Z</time>
      </trkpt>
      <trkpt lat="44.77006" lon="5.46121">
        <ele>1889.1999511719</ele>
        <time>2022-05-28T09:49:23.000Z</time>
      </trkpt>
      <trkpt lat="44.77002" lon="5.46124">
        <ele>1889.1999511719</ele>
        <time>2022-05-28T09:49:34.000Z</time>
      </trkpt>
      <trkpt lat="44.76998" lon="5.4613">
        <ele>1888.4000244141</ele>
        <time>2022-05-28T09:49:40.000Z</time>
      </trkpt>
      <trkpt lat="44.76984" lon="5.46135">
        <ele>1890</ele>
        <time>2022-05-28T09:50:01.000Z</time>
      </trkpt>
      <trkpt lat="44.76978" lon="5.46138">
        <ele>1890.4000244141</ele>
        <time>2022-05-28T09:50:06.000Z</time>
      </trkpt>
      <trkpt lat="44.7695" lon="5.46141">
        <ele>1895.4000244141</ele>
        <time>2022-05-28T09:50:37.000Z</time>
      </trkpt>
      <trkpt lat="44.76944" lon="5.46146">
        <ele>1894.4000244141</ele>
        <time>2022-05-28T09:51:00.000Z</time>
      </trkpt>
      <trkpt lat="44.76941" lon="5.46148">
        <ele>1894</ele>
        <time>2022-05-28T09:51:18.000Z</time>
      </trkpt>
      <trkpt lat="44.76941" lon="5.46148">
        <ele>1893.8000488281</ele>
        <time>2022-05-28T09:51:24.000Z</time>
      </trkpt>
      <trkpt lat="44.76932" lon="5.46147">
        <ele>1894.8000488281</ele>
        <time>2022-05-28T09:51:37.000Z</time>
      </trkpt>
      <trkpt lat="44.76919" lon="5.46143">
        <ele>1895.8000488281</ele>
        <time>2022-05-28T09:51:51.000Z</time>
      </trkpt>
      <trkpt lat="44.76916" lon="5.46143">
        <ele>1895.8000488281</ele>
        <time>2022-05-28T09:51:54.000Z</time>
      </trkpt>
      <trkpt lat="44.76913" lon="5.46144">
        <ele>1895.1999511719</ele>
        <time>2022-05-28T09:51:56.000Z</time>
      </trkpt>
      <trkpt lat="44.7691" lon="5.46144">
        <ele>1895</ele>
        <time>2022-05-28T09:51:59.000Z</time>
      </trkpt>
      <trkpt lat="44.76866" lon="5.46132">
        <ele>1897</ele>
        <time>2022-05-28T09:52:40.000Z</time>
      </trkpt>
      <trkpt lat="44.76842" lon="5.46132">
        <ele>1900.1999511719</ele>
        <time>2022-05-28T09:53:04.000Z</time>
      </trkpt>
      <trkpt lat="44.76837" lon="5.46136">
        <ele>1899.8000488281</ele>
        <time>2022-05-28T09:54:50.000Z</time>
      </trkpt>
      <trkpt lat="44.76837" lon="5.46138">
        <ele>1899.4000244141</ele>
        <time>2022-05-28T09:55:07.000Z</time>
      </trkpt>
      <trkpt lat="44.76836" lon="5.46135">
        <ele>1900.1999511719</ele>
        <time>2022-05-28T09:56:09.000Z</time>
      </trkpt>
      <trkpt lat="44.76836" lon="5.46134">
        <ele>1900.1999511719</ele>
        <time>2022-05-28T09:56:50.000Z</time>
      </trkpt>
      <trkpt lat="44.76837" lon="5.46138">
        <ele>1899.4000244141</ele>
        <time>2022-05-28T09:57:38.000Z</time>
      </trkpt>
      <trkpt lat="44.76838" lon="5.46138">
        <ele>1899</ele>
        <time>2022-05-28T09:57:56.000Z</time>
      </trkpt>
      <trkpt lat="44.76838" lon="5.46138">
        <ele>1899.1999511719</ele>
        <time>2022-05-28T09:57:57.000Z</time>
      </trkpt>
      <trkpt lat="44.76838" lon="5.46139">
        <ele>1899.1999511719</ele>
        <time>2022-05-28T09:57:58.000Z</time>
      </trkpt>
      <trkpt lat="44.76838" lon="5.46136">
        <ele>1899.5999755859</ele>
        <time>2022-05-28T09:58:09.000Z</time>
      </trkpt>
      <trkpt lat="44.76837" lon="5.46135">
        <ele>1899.8000488281</ele>
        <time>2022-05-28T09:58:12.000Z</time>
      </trkpt>
      <trkpt lat="44.76837" lon="5.46136">
        <ele>1899.8000488281</ele>
        <time>2022-05-28T09:58:20.000Z</time>
      </trkpt>
      <trkpt lat="44.76837" lon="5.46137">
        <ele>1899.5999755859</ele>
        <time>2022-05-28T09:58:26.000Z</time>
      </trkpt>
      <trkpt lat="44.76836" lon="5.46137">
        <ele>1899.5999755859</ele>
        <time>2022-05-28T09:58:31.000Z</time>
      </trkpt>
      <trkpt lat="44.76836" lon="5.46134">
        <ele>1900.1999511719</ele>
        <time>2022-05-28T09:58:39.000Z</time>
      </trkpt>
      <trkpt lat="44.76837" lon="5.46134">
        <ele>1900.1999511719</ele>
        <time>2022-05-28T09:59:13.000Z</time>
      </trkpt>
      <trkpt lat="44.76834" lon="5.46133">
        <ele>1900.5999755859</ele>
        <time>2022-05-28T10:00:24.000Z</time>
      </trkpt>
      <trkpt lat="44.76829" lon="5.46133">
        <ele>1901</ele>
        <time>2022-05-28T10:00:28.000Z</time>
      </trkpt>
      <trkpt lat="44.76799" lon="5.46131">
        <ele>1903</ele>
        <time>2022-05-28T10:00:54.000Z</time>
      </trkpt>
      <trkpt lat="44.7677" lon="5.46131">
        <ele>1902.8000488281</ele>
        <time>2022-05-28T10:01:25.000Z</time>
      </trkpt>
      <trkpt lat="44.76753" lon="5.46127">
        <ele>1903.5999755859</ele>
        <time>2022-05-28T10:01:42.000Z</time>
      </trkpt>
      <trkpt lat="44.76744" lon="5.46124">
        <ele>1904</ele>
        <time>2022-05-28T10:01:50.000Z</time>
      </trkpt>
      <trkpt lat="44.76726" lon="5.46117">
        <ele>1905.5999755859</ele>
        <time>2022-05-28T10:02:05.000Z</time>
      </trkpt>
      <trkpt lat="44.76683" lon="5.46101">
        <ele>1909.4000244141</ele>
        <time>2022-05-28T10:02:44.000Z</time>
      </trkpt>
      <trkpt lat="44.76673" lon="5.46096">
        <ele>1910.1999511719</ele>
        <time>2022-05-28T10:02:59.000Z</time>
      </trkpt>
      <trkpt lat="44.76651" lon="5.46079">
        <ele>1912.1999511719</ele>
        <time>2022-05-28T10:03:43.000Z</time>
      </trkpt>
      <trkpt lat="44.76613" lon="5.46109">
        <ele>1915.8000488281</ele>
        <time>2022-05-28T10:04:34.000Z</time>
      </trkpt>
      <trkpt lat="44.7661" lon="5.46111">
        <ele>1915.8000488281</ele>
        <time>2022-05-28T10:04:37.000Z</time>
      </trkpt>
      <trkpt lat="44.76603" lon="5.46111">
        <ele>1915.4000244141</ele>
        <time>2022-05-28T10:04:46.000Z</time>
      </trkpt>
      <trkpt lat="44.76558" lon="5.46112">
        <ele>1912.5999755859</ele>
        <time>2022-05-28T10:05:30.000Z</time>
      </trkpt>
      <trkpt lat="44.76529" lon="5.46099">
        <ele>1913</ele>
        <time>2022-05-28T10:06:12.000Z</time>
      </trkpt>
      <trkpt lat="44.76486" lon="5.46084">
        <ele>1908.4000244141</ele>
        <time>2022-05-28T10:06:51.000Z</time>
      </trkpt>
      <trkpt lat="44.76452" lon="5.46126">
        <ele>1908.5999755859</ele>
        <time>2022-05-28T10:07:34.000Z</time>
      </trkpt>
      <trkpt lat="44.76447" lon="5.46137">
        <ele>1910.1999511719</ele>
        <time>2022-05-28T10:07:43.000Z</time>
      </trkpt>
      <trkpt lat="44.7642" lon="5.46155">
        <ele>1909.1999511719</ele>
        <time>2022-05-28T10:08:11.000Z</time>
      </trkpt>
      <trkpt lat="44.76408" lon="5.46145">
        <ele>1907</ele>
        <time>2022-05-28T10:08:24.000Z</time>
      </trkpt>
      <trkpt lat="44.76401" lon="5.46138">
        <ele>1905.4000244141</ele>
        <time>2022-05-28T10:08:33.000Z</time>
      </trkpt>
      <trkpt lat="44.76368" lon="5.46141">
        <ele>1903.1999511719</ele>
        <time>2022-05-28T10:09:04.000Z</time>
      </trkpt>
      <trkpt lat="44.76349" lon="5.4615">
        <ele>1901.8000488281</ele>
        <time>2022-05-28T10:09:26.000Z</time>
      </trkpt>
      <trkpt lat="44.76346" lon="5.46153">
        <ele>1901.8000488281</ele>
        <time>2022-05-28T10:09:30.000Z</time>
      </trkpt>
      <trkpt lat="44.76341" lon="5.46173">
        <ele>1903</ele>
        <time>2022-05-28T10:09:48.000Z</time>
      </trkpt>
      <trkpt lat="44.76335" lon="5.46176">
        <ele>1903.4000244141</ele>
        <time>2022-05-28T10:09:54.000Z</time>
      </trkpt>
      <trkpt lat="44.76316" lon="5.46135">
        <ele>1900.8000488281</ele>
        <time>2022-05-28T10:10:29.000Z</time>
      </trkpt>
      <trkpt lat="44.76311" lon="5.46126">
        <ele>1900.8000488281</ele>
        <time>2022-05-28T10:10:38.000Z</time>
      </trkpt>
      <trkpt lat="44.7631" lon="5.46125">
        <ele>1901</ele>
        <time>2022-05-28T10:10:39.000Z</time>
      </trkpt>
      <trkpt lat="44.76308" lon="5.46123">
        <ele>1901.1999511719</ele>
        <time>2022-05-28T10:10:42.000Z</time>
      </trkpt>
      <trkpt lat="44.76308" lon="5.46122">
        <ele>1901.1999511719</ele>
        <time>2022-05-28T10:10:43.000Z</time>
      </trkpt>
      <trkpt lat="44.76303" lon="5.4612">
        <ele>1901.8000488281</ele>
        <time>2022-05-28T10:10:48.000Z</time>
      </trkpt>
      <trkpt lat="44.76301" lon="5.46118">
        <ele>1902</ele>
        <time>2022-05-28T10:10:51.000Z</time>
      </trkpt>
      <trkpt lat="44.76299" lon="5.46117">
        <ele>1902.1999511719</ele>
        <time>2022-05-28T10:10:53.000Z</time>
      </trkpt>
      <trkpt lat="44.76282" lon="5.4606">
        <ele>1900</ele>
        <time>2022-05-28T10:11:33.000Z</time>
      </trkpt>
      <trkpt lat="44.76282" lon="5.46048">
        <ele>1899.1999511719</ele>
        <time>2022-05-28T10:11:40.000Z</time>
      </trkpt>
      <trkpt lat="44.76277" lon="5.46012">
        <ele>1898.5999755859</ele>
        <time>2022-05-28T10:12:06.000Z</time>
      </trkpt>
      <trkpt lat="44.76249" lon="5.45989">
        <ele>1902.1999511719</ele>
        <time>2022-05-28T10:12:45.000Z</time>
      </trkpt>
      <trkpt lat="44.76223" lon="5.45983">
        <ele>1905.8000488281</ele>
        <time>2022-05-28T10:13:15.000Z</time>
      </trkpt>
      <trkpt lat="44.76214" lon="5.45986">
        <ele>1906.8000488281</ele>
        <time>2022-05-28T10:13:25.000Z</time>
      </trkpt>
      <trkpt lat="44.76198" lon="5.45988">
        <ele>1908.5999755859</ele>
        <time>2022-05-28T10:13:53.000Z</time>
      </trkpt>
      <trkpt lat="44.76191" lon="5.45993">
        <ele>1910.4000244141</ele>
        <time>2022-05-28T10:14:03.000Z</time>
      </trkpt>
      <trkpt lat="44.76183" lon="5.45993">
        <ele>1911.1999511719</ele>
        <time>2022-05-28T10:14:13.000Z</time>
      </trkpt>
      <trkpt lat="44.76183" lon="5.45993">
        <ele>1911</ele>
        <time>2022-05-28T10:14:14.000Z</time>
      </trkpt>
      <trkpt lat="44.76182" lon="5.45993">
        <ele>1911</ele>
        <time>2022-05-28T10:14:15.000Z</time>
      </trkpt>
      <trkpt lat="44.76181" lon="5.45993">
        <ele>1911.1999511719</ele>
        <time>2022-05-28T10:14:16.000Z</time>
      </trkpt>
      <trkpt lat="44.76181" lon="5.45993">
        <ele>1911.1999511719</ele>
        <time>2022-05-28T10:14:17.000Z</time>
      </trkpt>
      <trkpt lat="44.7618" lon="5.45993">
        <ele>1911.4000244141</ele>
        <time>2022-05-28T10:14:18.000Z</time>
      </trkpt>
      <trkpt lat="44.76179" lon="5.45993">
        <ele>1911.5999755859</ele>
        <time>2022-05-28T10:14:23.000Z</time>
      </trkpt>
      <trkpt lat="44.76179" lon="5.45993">
        <ele>1911.5999755859</ele>
        <time>2022-05-28T10:14:24.000Z</time>
      </trkpt>
      <trkpt lat="44.76179" lon="5.45993">
        <ele>1911.5999755859</ele>
        <time>2022-05-28T10:14:25.000Z</time>
      </trkpt>
      <trkpt lat="44.76178" lon="5.45993">
        <ele>1911.8000488281</ele>
        <time>2022-05-28T10:14:29.000Z</time>
      </trkpt>
      <trkpt lat="44.76178" lon="5.45993">
        <ele>1911.5999755859</ele>
        <time>2022-05-28T10:14:30.000Z</time>
      </trkpt>
      <trkpt lat="44.76177" lon="5.45993">
        <ele>1911.5999755859</ele>
        <time>2022-05-28T10:14:31.000Z</time>
      </trkpt>
      <trkpt lat="44.76177" lon="5.45992">
        <ele>1911.4000244141</ele>
        <time>2022-05-28T10:14:36.000Z</time>
      </trkpt>
      <trkpt lat="44.76177" lon="5.45992">
        <ele>1911.4000244141</ele>
        <time>2022-05-28T10:14:37.000Z</time>
      </trkpt>
      <trkpt lat="44.76178" lon="5.45992">
        <ele>1911.4000244141</ele>
        <time>2022-05-28T10:14:40.000Z</time>
      </trkpt>
      <trkpt lat="44.76178" lon="5.45993">
        <ele>1911.5999755859</ele>
        <time>2022-05-28T10:14:41.000Z</time>
      </trkpt>
      <trkpt lat="44.76178" lon="5.45993">
        <ele>1911.5999755859</ele>
        <time>2022-05-28T10:14:42.000Z</time>
      </trkpt>
      <trkpt lat="44.76178" lon="5.45993">
        <ele>1911.5999755859</ele>
        <time>2022-05-28T10:14:43.000Z</time>
      </trkpt>
      <trkpt lat="44.76178" lon="5.45993">
        <ele>1911.5999755859</ele>
        <time>2022-05-28T10:14:44.000Z</time>
      </trkpt>
      <trkpt lat="44.76178" lon="5.45993">
        <ele>1911.5999755859</ele>
        <time>2022-05-28T10:14:45.000Z</time>
      </trkpt>
      <trkpt lat="44.76178" lon="5.45993">
        <ele>1911.5999755859</ele>
        <time>2022-05-28T10:14:47.000Z</time>
      </trkpt>
      <trkpt lat="44.76177" lon="5.45993">
        <ele>1911.8000488281</ele>
        <time>2022-05-28T10:14:50.000Z</time>
      </trkpt>
      <trkpt lat="44.76178" lon="5.45993">
        <ele>1911.8000488281</ele>
        <time>2022-05-28T10:14:55.000Z</time>
      </trkpt>
      <trkpt lat="44.76176" lon="5.45995">
        <ele>1912.4000244141</ele>
        <time>2022-05-28T10:15:17.000Z</time>
      </trkpt>
      <trkpt lat="44.76175" lon="5.45995">
        <ele>1912.5999755859</ele>
        <time>2022-05-28T10:15:31.000Z</time>
      </trkpt>
      <trkpt lat="44.76175" lon="5.45995">
        <ele>1912.8000488281</ele>
        <time>2022-05-28T10:15:34.000Z</time>
      </trkpt>
      <trkpt lat="44.76176" lon="5.45995">
        <ele>1912.4000244141</ele>
        <time>2022-05-28T10:15:42.000Z</time>
      </trkpt>
      <trkpt lat="44.76176" lon="5.45995">
        <ele>1912.4000244141</ele>
        <time>2022-05-28T10:15:45.000Z</time>
      </trkpt>
      <trkpt lat="44.76176" lon="5.45995">
        <ele>1912.5999755859</ele>
        <time>2022-05-28T10:15:48.000Z</time>
      </trkpt>
      <trkpt lat="44.76176" lon="5.45995">
        <ele>1912.5999755859</ele>
        <time>2022-05-28T10:15:49.000Z</time>
      </trkpt>
      <trkpt lat="44.76176" lon="5.45995">
        <ele>1912.5999755859</ele>
        <time>2022-05-28T10:15:50.000Z</time>
      </trkpt>
      <trkpt lat="44.76176" lon="5.45996">
        <ele>1912.5999755859</ele>
        <time>2022-05-28T10:15:52.000Z</time>
      </trkpt>
      <trkpt lat="44.76175" lon="5.45996">
        <ele>1912.8000488281</ele>
        <time>2022-05-28T10:15:55.000Z</time>
      </trkpt>
      <trkpt lat="44.76175" lon="5.45995">
        <ele>1912.8000488281</ele>
        <time>2022-05-28T10:15:57.000Z</time>
      </trkpt>
      <trkpt lat="44.76175" lon="5.45996">
        <ele>1912.8000488281</ele>
        <time>2022-05-28T10:16:00.000Z</time>
      </trkpt>
      <trkpt lat="44.76176" lon="5.45996">
        <ele>1912.8000488281</ele>
        <time>2022-05-28T10:16:03.000Z</time>
      </trkpt>
      <trkpt lat="44.76177" lon="5.45995">
        <ele>1912.4000244141</ele>
        <time>2022-05-28T10:16:07.000Z</time>
      </trkpt>
      <trkpt lat="44.76177" lon="5.45995">
        <ele>1912.1999511719</ele>
        <time>2022-05-28T10:16:10.000Z</time>
      </trkpt>
      <trkpt lat="44.76177" lon="5.45996">
        <ele>1912.5999755859</ele>
        <time>2022-05-28T10:16:14.000Z</time>
      </trkpt>
      <trkpt lat="44.76178" lon="5.45997">
        <ele>1913.1999511719</ele>
        <time>2022-05-28T10:16:18.000Z</time>
      </trkpt>
      <trkpt lat="44.76177" lon="5.45998">
        <ele>1913.1999511719</ele>
        <time>2022-05-28T10:16:23.000Z</time>
      </trkpt>
      <trkpt lat="44.76178" lon="5.45997">
        <ele>1913.1999511719</ele>
        <time>2022-05-28T10:16:24.000Z</time>
      </trkpt>
      <trkpt lat="44.76178" lon="5.45998">
        <ele>1913.1999511719</ele>
        <time>2022-05-28T10:16:25.000Z</time>
      </trkpt>
      <trkpt lat="44.76178" lon="5.45997">
        <ele>1913.1999511719</ele>
        <time>2022-05-28T10:16:26.000Z</time>
      </trkpt>
      <trkpt lat="44.76177" lon="5.45997">
        <ele>1913</ele>
        <time>2022-05-28T10:16:30.000Z</time>
      </trkpt>
      <trkpt lat="44.76177" lon="5.45997">
        <ele>1913</ele>
        <time>2022-05-28T10:16:31.000Z</time>
      </trkpt>
      <trkpt lat="44.76177" lon="5.45997">
        <ele>1912.8000488281</ele>
        <time>2022-05-28T10:16:34.000Z</time>
      </trkpt>
      <trkpt lat="44.76177" lon="5.45996">
        <ele>1912.8000488281</ele>
        <time>2022-05-28T10:16:39.000Z</time>
      </trkpt>
      <trkpt lat="44.76175" lon="5.45998">
        <ele>1913.4000244141</ele>
        <time>2022-05-28T10:17:03.000Z</time>
      </trkpt>
      <trkpt lat="44.76175" lon="5.45998">
        <ele>1913.5999755859</ele>
        <time>2022-05-28T10:17:07.000Z</time>
      </trkpt>
      <trkpt lat="44.76174" lon="5.45999">
        <ele>1913.8000488281</ele>
        <time>2022-05-28T10:17:45.000Z</time>
      </trkpt>
      <trkpt lat="44.76174" lon="5.45999">
        <ele>1914</ele>
        <time>2022-05-28T10:18:13.000Z</time>
      </trkpt>
      <trkpt lat="44.76174" lon="5.45999">
        <ele>1913.8000488281</ele>
        <time>2022-05-28T10:18:16.000Z</time>
      </trkpt>
      <trkpt lat="44.76173" lon="5.45998">
        <ele>1913.8000488281</ele>
        <time>2022-05-28T10:18:17.000Z</time>
      </trkpt>
      <trkpt lat="44.76169" lon="5.45997">
        <ele>1912.8000488281</ele>
        <time>2022-05-28T10:18:26.000Z</time>
      </trkpt>
      <trkpt lat="44.76168" lon="5.45996">
        <ele>1912.5999755859</ele>
        <time>2022-05-28T10:18:29.000Z</time>
      </trkpt>
      <trkpt lat="44.76167" lon="5.45996">
        <ele>1912.4000244141</ele>
        <time>2022-05-28T10:18:34.000Z</time>
      </trkpt>
      <trkpt lat="44.76166" lon="5.45996">
        <ele>1912.4000244141</ele>
        <time>2022-05-28T10:18:38.000Z</time>
      </trkpt>
      <trkpt lat="44.76166" lon="5.45992">
        <ele>1911.5999755859</ele>
        <time>2022-05-28T10:18:41.000Z</time>
      </trkpt>
      <trkpt lat="44.76164" lon="5.45987">
        <ele>1910.4000244141</ele>
        <time>2022-05-28T10:18:44.000Z</time>
      </trkpt>
      <trkpt lat="44.76163" lon="5.45987">
        <ele>1910</ele>
        <time>2022-05-28T10:18:45.000Z</time>
      </trkpt>
      <trkpt lat="44.76163" lon="5.45986">
        <ele>1909.8000488281</ele>
        <time>2022-05-28T10:18:46.000Z</time>
      </trkpt>
      <trkpt lat="44.76162" lon="5.45985">
        <ele>1909.5999755859</ele>
        <time>2022-05-28T10:18:48.000Z</time>
      </trkpt>
      <trkpt lat="44.76162" lon="5.45985">
        <ele>1909.5999755859</ele>
        <time>2022-05-28T10:18:49.000Z</time>
      </trkpt>
      <trkpt lat="44.76161" lon="5.45985">
        <ele>1909.4000244141</ele>
        <time>2022-05-28T10:18:50.000Z</time>
      </trkpt>
      <trkpt lat="44.76161" lon="5.45985">
        <ele>1909.4000244141</ele>
        <time>2022-05-28T10:18:51.000Z</time>
      </trkpt>
      <trkpt lat="44.76161" lon="5.45985">
        <ele>1909.4000244141</ele>
        <time>2022-05-28T10:18:52.000Z</time>
      </trkpt>
      <trkpt lat="44.76161" lon="5.45985">
        <ele>1909.5999755859</ele>
        <time>2022-05-28T10:18:56.000Z</time>
      </trkpt>
      <trkpt lat="44.76161" lon="5.45986">
        <ele>1909.8000488281</ele>
        <time>2022-05-28T10:18:58.000Z</time>
      </trkpt>
      <trkpt lat="44.76162" lon="5.45986">
        <ele>1909.8000488281</ele>
        <time>2022-05-28T10:19:03.000Z</time>
      </trkpt>
      <trkpt lat="44.76163" lon="5.45986">
        <ele>1909.8000488281</ele>
        <time>2022-05-28T10:19:04.000Z</time>
      </trkpt>
      <trkpt lat="44.76163" lon="5.45986">
        <ele>1909.8000488281</ele>
        <time>2022-05-28T10:19:08.000Z</time>
      </trkpt>
      <trkpt lat="44.76163" lon="5.45986">
        <ele>1909.8000488281</ele>
        <time>2022-05-28T10:19:09.000Z</time>
      </trkpt>
      <trkpt lat="44.76164" lon="5.45986">
        <ele>1909.5999755859</ele>
        <time>2022-05-28T10:19:10.000Z</time>
      </trkpt>
      <trkpt lat="44.76164" lon="5.45985">
        <ele>1909.5999755859</ele>
        <time>2022-05-28T10:19:12.000Z</time>
      </trkpt>
      <trkpt lat="44.76164" lon="5.45985">
        <ele>1909.5999755859</ele>
        <time>2022-05-28T10:19:13.000Z</time>
      </trkpt>
      <trkpt lat="44.76164" lon="5.45985">
        <ele>1909.5999755859</ele>
        <time>2022-05-28T10:19:15.000Z</time>
      </trkpt>
      <trkpt lat="44.76165" lon="5.45986">
        <ele>1909.8000488281</ele>
        <time>2022-05-28T10:19:17.000Z</time>
      </trkpt>
      <trkpt lat="44.76163" lon="5.45984">
        <ele>1909.1999511719</ele>
        <time>2022-05-28T10:19:55.000Z</time>
      </trkpt>
      <trkpt lat="44.76163" lon="5.45985">
        <ele>1909.4000244141</ele>
        <time>2022-05-28T10:19:58.000Z</time>
      </trkpt>
      <trkpt lat="44.76166" lon="5.4599">
        <ele>1911</ele>
        <time>2022-05-28T10:20:08.000Z</time>
      </trkpt>
      <trkpt lat="44.76168" lon="5.45992">
        <ele>1911.8000488281</ele>
        <time>2022-05-28T10:20:22.000Z</time>
      </trkpt>
      <trkpt lat="44.76169" lon="5.4599">
        <ele>1911.1999511719</ele>
        <time>2022-05-28T10:20:28.000Z</time>
      </trkpt>
      <trkpt lat="44.76169" lon="5.4599">
        <ele>1911</ele>
        <time>2022-05-28T10:20:29.000Z</time>
      </trkpt>
      <trkpt lat="44.76169" lon="5.45996">
        <ele>1912.8000488281</ele>
        <time>2022-05-28T10:20:36.000Z</time>
      </trkpt>
      <trkpt lat="44.76169" lon="5.46">
        <ele>1913.5999755859</ele>
        <time>2022-05-28T10:20:42.000Z</time>
      </trkpt>
      <trkpt lat="44.7617" lon="5.45999">
        <ele>1913.4000244141</ele>
        <time>2022-05-28T10:21:08.000Z</time>
      </trkpt>
      <trkpt lat="44.7617" lon="5.46001">
        <ele>1913.8000488281</ele>
        <time>2022-05-28T10:21:18.000Z</time>
      </trkpt>
      <trkpt lat="44.7617" lon="5.46001">
        <ele>1914</ele>
        <time>2022-05-28T10:21:28.000Z</time>
      </trkpt>
      <trkpt lat="44.7617" lon="5.46001">
        <ele>1913.8000488281</ele>
        <time>2022-05-28T10:21:36.000Z</time>
      </trkpt>
      <trkpt lat="44.7617" lon="5.46001">
        <ele>1913.8000488281</ele>
        <time>2022-05-28T10:21:40.000Z</time>
      </trkpt>
      <trkpt lat="44.76171" lon="5.46001">
        <ele>1913.8000488281</ele>
        <time>2022-05-28T10:21:42.000Z</time>
      </trkpt>
      <trkpt lat="44.7617" lon="5.46">
        <ele>1913.5999755859</ele>
        <time>2022-05-28T10:21:47.000Z</time>
      </trkpt>
      <trkpt lat="44.76169" lon="5.46">
        <ele>1913.4000244141</ele>
        <time>2022-05-28T10:21:48.000Z</time>
      </trkpt>
      <trkpt lat="44.76161" lon="5.46009">
        <ele>1914</ele>
        <time>2022-05-28T10:22:16.000Z</time>
      </trkpt>
      <trkpt lat="44.76157" lon="5.46012">
        <ele>1913.8000488281</ele>
        <time>2022-05-28T10:22:20.000Z</time>
      </trkpt>
      <trkpt lat="44.76132" lon="5.46031">
        <ele>1912</ele>
        <time>2022-05-28T10:22:50.000Z</time>
      </trkpt>
      <trkpt lat="44.7612" lon="5.46048">
        <ele>1912</ele>
        <time>2022-05-28T10:23:11.000Z</time>
      </trkpt>
      <trkpt lat="44.76109" lon="5.46062">
        <ele>1913.4000244141</ele>
        <time>2022-05-28T10:23:29.000Z</time>
      </trkpt>
      <trkpt lat="44.76093" lon="5.4606">
        <ele>1911.4000244141</ele>
        <time>2022-05-28T10:23:45.000Z</time>
      </trkpt>
      <trkpt lat="44.76079" lon="5.46062">
        <ele>1912</ele>
        <time>2022-05-28T10:24:00.000Z</time>
      </trkpt>
      <trkpt lat="44.76035" lon="5.46062">
        <ele>1915.4000244141</ele>
        <time>2022-05-28T10:24:46.000Z</time>
      </trkpt>
      <trkpt lat="44.76033" lon="5.46062">
        <ele>1915.4000244141</ele>
        <time>2022-05-28T10:24:48.000Z</time>
      </trkpt>
      <trkpt lat="44.76014" lon="5.46051">
        <ele>1915.1999511719</ele>
        <time>2022-05-28T10:25:10.000Z</time>
      </trkpt>
      <trkpt lat="44.75999" lon="5.46044">
        <ele>1914.8000488281</ele>
        <time>2022-05-28T10:25:28.000Z</time>
      </trkpt>
      <trkpt lat="44.75993" lon="5.46043">
        <ele>1914.5999755859</ele>
        <time>2022-05-28T10:25:36.000Z</time>
      </trkpt>
      <trkpt lat="44.75967" lon="5.4606">
        <ele>1916.1999511719</ele>
        <time>2022-05-28T10:26:14.000Z</time>
      </trkpt>
      <trkpt lat="44.75954" lon="5.46061">
        <ele>1915</ele>
        <time>2022-05-28T10:26:30.000Z</time>
      </trkpt>
      <trkpt lat="44.75937" lon="5.46075">
        <ele>1916.1999511719</ele>
        <time>2022-05-28T10:26:55.000Z</time>
      </trkpt>
      <trkpt lat="44.75924" lon="5.46082">
        <ele>1916</ele>
        <time>2022-05-28T10:27:12.000Z</time>
      </trkpt>
      <trkpt lat="44.75881" lon="5.46098">
        <ele>1912.5999755859</ele>
        <time>2022-05-28T10:27:58.000Z</time>
      </trkpt>
      <trkpt lat="44.75877" lon="5.46106">
        <ele>1913.1999511719</ele>
        <time>2022-05-28T10:28:06.000Z</time>
      </trkpt>
      <trkpt lat="44.75876" lon="5.46109">
        <ele>1913.4000244141</ele>
        <time>2022-05-28T10:28:10.000Z</time>
      </trkpt>
      <trkpt lat="44.75874" lon="5.4611">
        <ele>1913.4000244141</ele>
        <time>2022-05-28T10:28:12.000Z</time>
      </trkpt>
      <trkpt lat="44.7587" lon="5.46114">
        <ele>1913</ele>
        <time>2022-05-28T10:28:17.000Z</time>
      </trkpt>
      <trkpt lat="44.7587" lon="5.46115">
        <ele>1913</ele>
        <time>2022-05-28T10:28:18.000Z</time>
      </trkpt>
      <trkpt lat="44.75869" lon="5.46116">
        <ele>1913</ele>
        <time>2022-05-28T10:28:19.000Z</time>
      </trkpt>
      <trkpt lat="44.75868" lon="5.46117">
        <ele>1913</ele>
        <time>2022-05-28T10:28:20.000Z</time>
      </trkpt>
      <trkpt lat="44.75867" lon="5.46118">
        <ele>1912.8000488281</ele>
        <time>2022-05-28T10:28:21.000Z</time>
      </trkpt>
      <trkpt lat="44.75865" lon="5.46121">
        <ele>1912.5999755859</ele>
        <time>2022-05-28T10:28:25.000Z</time>
      </trkpt>
      <trkpt lat="44.75861" lon="5.46126">
        <ele>1912.4000244141</ele>
        <time>2022-05-28T10:28:30.000Z</time>
      </trkpt>
      <trkpt lat="44.75857" lon="5.46128">
        <ele>1911.8000488281</ele>
        <time>2022-05-28T10:28:34.000Z</time>
      </trkpt>
      <trkpt lat="44.75848" lon="5.46136">
        <ele>1909.4000244141</ele>
        <time>2022-05-28T10:28:49.000Z</time>
      </trkpt>
      <trkpt lat="44.75845" lon="5.46136">
        <ele>1908.1999511719</ele>
        <time>2022-05-28T10:28:53.000Z</time>
      </trkpt>
      <trkpt lat="44.75832" lon="5.46138">
        <ele>1905.8000488281</ele>
        <time>2022-05-28T10:29:06.000Z</time>
      </trkpt>
      <trkpt lat="44.75798" lon="5.46155">
        <ele>1905.5999755859</ele>
        <time>2022-05-28T10:29:48.000Z</time>
      </trkpt>
      <trkpt lat="44.75778" lon="5.46153">
        <ele>1908</ele>
        <time>2022-05-28T10:30:09.000Z</time>
      </trkpt>
      <trkpt lat="44.75753" lon="5.4614">
        <ele>1910</ele>
        <time>2022-05-28T10:30:35.000Z</time>
      </trkpt>
      <trkpt lat="44.75708" lon="5.46132">
        <ele>1909.5999755859</ele>
        <time>2022-05-28T10:31:16.000Z</time>
      </trkpt>
      <trkpt lat="44.75667" lon="5.46161">
        <ele>1912.5999755859</ele>
        <time>2022-05-28T10:31:56.000Z</time>
      </trkpt>
      <trkpt lat="44.75652" lon="5.46174">
        <ele>1915.4000244141</ele>
        <time>2022-05-28T10:32:13.000Z</time>
      </trkpt>
      <trkpt lat="44.75644" lon="5.46178">
        <ele>1916</ele>
        <time>2022-05-28T10:32:20.000Z</time>
      </trkpt>
      <trkpt lat="44.75629" lon="5.46189">
        <ele>1917.5999755859</ele>
        <time>2022-05-28T10:32:36.000Z</time>
      </trkpt>
      <trkpt lat="44.75619" lon="5.46195">
        <ele>1918</ele>
        <time>2022-05-28T10:32:45.000Z</time>
      </trkpt>
      <trkpt lat="44.75588" lon="5.46211">
        <ele>1914.8000488281</ele>
        <time>2022-05-28T10:33:15.000Z</time>
      </trkpt>
      <trkpt lat="44.75559" lon="5.46228">
        <ele>1911.4000244141</ele>
        <time>2022-05-28T10:33:45.000Z</time>
      </trkpt>
      <trkpt lat="44.75549" lon="5.46231">
        <ele>1910</ele>
        <time>2022-05-28T10:33:53.000Z</time>
      </trkpt>
      <trkpt lat="44.75543" lon="5.46239">
        <ele>1909.5999755859</ele>
        <time>2022-05-28T10:34:01.000Z</time>
      </trkpt>
      <trkpt lat="44.7554" lon="5.46241">
        <ele>1909.1999511719</ele>
        <time>2022-05-28T10:34:05.000Z</time>
      </trkpt>
      <trkpt lat="44.75537" lon="5.46243">
        <ele>1909</ele>
        <time>2022-05-28T10:34:08.000Z</time>
      </trkpt>
      <trkpt lat="44.75534" lon="5.46245">
        <ele>1908.8000488281</ele>
        <time>2022-05-28T10:34:11.000Z</time>
      </trkpt>
      <trkpt lat="44.75532" lon="5.46246">
        <ele>1908.5999755859</ele>
        <time>2022-05-28T10:34:13.000Z</time>
      </trkpt>
      <trkpt lat="44.75531" lon="5.46247">
        <ele>1908.5999755859</ele>
        <time>2022-05-28T10:34:14.000Z</time>
      </trkpt>
      <trkpt lat="44.75527" lon="5.46249">
        <ele>1908.1999511719</ele>
        <time>2022-05-28T10:34:17.000Z</time>
      </trkpt>
      <trkpt lat="44.75522" lon="5.46251">
        <ele>1907.8000488281</ele>
        <time>2022-05-28T10:34:22.000Z</time>
      </trkpt>
      <trkpt lat="44.75516" lon="5.46251">
        <ele>1907.1999511719</ele>
        <time>2022-05-28T10:34:28.000Z</time>
      </trkpt>
      <trkpt lat="44.75503" lon="5.46252">
        <ele>1906.4000244141</ele>
        <time>2022-05-28T10:34:45.000Z</time>
      </trkpt>
      <trkpt lat="44.75492" lon="5.46251">
        <ele>1906.1999511719</ele>
        <time>2022-05-28T10:35:01.000Z</time>
      </trkpt>
      <trkpt lat="44.75492" lon="5.46253">
        <ele>1906.5999755859</ele>
        <time>2022-05-28T10:37:06.000Z</time>
      </trkpt>
      <trkpt lat="44.75492" lon="5.46251">
        <ele>1906.4000244141</ele>
        <time>2022-05-28T10:37:26.000Z</time>
      </trkpt>
      <trkpt lat="44.75492" lon="5.46251">
        <ele>1906.4000244141</ele>
        <time>2022-05-28T10:37:32.000Z</time>
      </trkpt>
      <trkpt lat="44.75491" lon="5.46251">
        <ele>1906.1999511719</ele>
        <time>2022-05-28T10:37:39.000Z</time>
      </trkpt>
      <trkpt lat="44.75491" lon="5.46252">
        <ele>1906.4000244141</ele>
        <time>2022-05-28T10:37:57.000Z</time>
      </trkpt>
      <trkpt lat="44.75491" lon="5.46252">
        <ele>1906.4000244141</ele>
        <time>2022-05-28T10:38:05.000Z</time>
      </trkpt>
      <trkpt lat="44.7549" lon="5.46252">
        <ele>1906.4000244141</ele>
        <time>2022-05-28T10:38:09.000Z</time>
      </trkpt>
      <trkpt lat="44.7549" lon="5.46252">
        <ele>1906.4000244141</ele>
        <time>2022-05-28T10:38:16.000Z</time>
      </trkpt>
      <trkpt lat="44.75491" lon="5.46254">
        <ele>1906.8000488281</ele>
        <time>2022-05-28T10:38:26.000Z</time>
      </trkpt>
      <trkpt lat="44.75491" lon="5.46254">
        <ele>1906.8000488281</ele>
        <time>2022-05-28T10:38:38.000Z</time>
      </trkpt>
      <trkpt lat="44.75491" lon="5.46254">
        <ele>1906.8000488281</ele>
        <time>2022-05-28T10:39:04.000Z</time>
      </trkpt>
      <trkpt lat="44.75491" lon="5.46254">
        <ele>1906.8000488281</ele>
        <time>2022-05-28T10:39:10.000Z</time>
      </trkpt>
      <trkpt lat="44.7549" lon="5.46254">
        <ele>1906.8000488281</ele>
        <time>2022-05-28T10:39:16.000Z</time>
      </trkpt>
      <trkpt lat="44.7549" lon="5.46254">
        <ele>1906.8000488281</ele>
        <time>2022-05-28T10:39:24.000Z</time>
      </trkpt>
      <trkpt lat="44.75491" lon="5.46254">
        <ele>1906.5999755859</ele>
        <time>2022-05-28T10:39:33.000Z</time>
      </trkpt>
      <trkpt lat="44.75491" lon="5.46253">
        <ele>1906.5999755859</ele>
        <time>2022-05-28T10:39:49.000Z</time>
      </trkpt>
      <trkpt lat="44.75491" lon="5.46252">
        <ele>1906.4000244141</ele>
        <time>2022-05-28T10:40:03.000Z</time>
      </trkpt>
      <trkpt lat="44.75491" lon="5.46253">
        <ele>1906.5999755859</ele>
        <time>2022-05-28T10:40:12.000Z</time>
      </trkpt>
      <trkpt lat="44.75491" lon="5.46253">
        <ele>1906.5999755859</ele>
        <time>2022-05-28T10:40:13.000Z</time>
      </trkpt>
      <trkpt lat="44.75491" lon="5.46253">
        <ele>1906.5999755859</ele>
        <time>2022-05-28T10:40:14.000Z</time>
      </trkpt>
      <trkpt lat="44.75491" lon="5.46253">
        <ele>1906.5999755859</ele>
        <time>2022-05-28T10:40:16.000Z</time>
      </trkpt>
      <trkpt lat="44.75491" lon="5.46253">
        <ele>1906.5999755859</ele>
        <time>2022-05-28T10:40:17.000Z</time>
      </trkpt>
      <trkpt lat="44.75491" lon="5.46253">
        <ele>1906.5999755859</ele>
        <time>2022-05-28T10:40:20.000Z</time>
      </trkpt>
      <trkpt lat="44.75491" lon="5.46253">
        <ele>1906.5999755859</ele>
        <time>2022-05-28T10:40:26.000Z</time>
      </trkpt>
      <trkpt lat="44.75491" lon="5.46253">
        <ele>1906.5999755859</ele>
        <time>2022-05-28T10:40:29.000Z</time>
      </trkpt>
      <trkpt lat="44.75491" lon="5.46253">
        <ele>1906.5999755859</ele>
        <time>2022-05-28T10:40:37.000Z</time>
      </trkpt>
      <trkpt lat="44.75491" lon="5.46253">
        <ele>1906.5999755859</ele>
        <time>2022-05-28T10:40:40.000Z</time>
      </trkpt>
      <trkpt lat="44.75491" lon="5.46253">
        <ele>1906.5999755859</ele>
        <time>2022-05-28T10:40:51.000Z</time>
      </trkpt>
      <trkpt lat="44.75491" lon="5.46254">
        <ele>1906.5999755859</ele>
        <time>2022-05-28T10:40:56.000Z</time>
      </trkpt>
      <trkpt lat="44.75491" lon="5.46253">
        <ele>1906.5999755859</ele>
        <time>2022-05-28T10:41:07.000Z</time>
      </trkpt>
      <trkpt lat="44.75491" lon="5.46253">
        <ele>1906.5999755859</ele>
        <time>2022-05-28T10:41:17.000Z</time>
      </trkpt>
      <trkpt lat="44.7549" lon="5.46253">
        <ele>1906.5999755859</ele>
        <time>2022-05-28T10:41:27.000Z</time>
      </trkpt>
      <trkpt lat="44.7549" lon="5.46254">
        <ele>1906.8000488281</ele>
        <time>2022-05-28T10:41:34.000Z</time>
      </trkpt>
      <trkpt lat="44.7549" lon="5.46254">
        <ele>1906.5999755859</ele>
        <time>2022-05-28T10:41:37.000Z</time>
      </trkpt>
      <trkpt lat="44.7549" lon="5.46254">
        <ele>1906.8000488281</ele>
        <time>2022-05-28T10:41:38.000Z</time>
      </trkpt>
      <trkpt lat="44.7549" lon="5.46254">
        <ele>1906.8000488281</ele>
        <time>2022-05-28T10:41:40.000Z</time>
      </trkpt>
      <trkpt lat="44.7549" lon="5.46254">
        <ele>1906.8000488281</ele>
        <time>2022-05-28T10:41:43.000Z</time>
      </trkpt>
      <trkpt lat="44.7549" lon="5.46253">
        <ele>1906.5999755859</ele>
        <time>2022-05-28T10:41:51.000Z</time>
      </trkpt>
      <trkpt lat="44.7549" lon="5.46253">
        <ele>1906.5999755859</ele>
        <time>2022-05-28T10:42:11.000Z</time>
      </trkpt>
      <trkpt lat="44.7549" lon="5.46252">
        <ele>1906.4000244141</ele>
        <time>2022-05-28T10:42:25.000Z</time>
      </trkpt>
      <trkpt lat="44.7549" lon="5.46252">
        <ele>1906.4000244141</ele>
        <time>2022-05-28T10:42:29.000Z</time>
      </trkpt>
      <trkpt lat="44.7549" lon="5.46252">
        <ele>1906.4000244141</ele>
        <time>2022-05-28T10:42:30.000Z</time>
      </trkpt>
      <trkpt lat="44.7549" lon="5.46252">
        <ele>1906.4000244141</ele>
        <time>2022-05-28T10:42:32.000Z</time>
      </trkpt>
      <trkpt lat="44.7549" lon="5.46252">
        <ele>1906.4000244141</ele>
        <time>2022-05-28T10:42:33.000Z</time>
      </trkpt>
      <trkpt lat="44.7549" lon="5.46252">
        <ele>1906.4000244141</ele>
        <time>2022-05-28T10:42:34.000Z</time>
      </trkpt>
      <trkpt lat="44.7549" lon="5.46252">
        <ele>1906.4000244141</ele>
        <time>2022-05-28T10:42:40.000Z</time>
      </trkpt>
      <trkpt lat="44.7549" lon="5.46252">
        <ele>1906.4000244141</ele>
        <time>2022-05-28T10:42:47.000Z</time>
      </trkpt>
      <trkpt lat="44.7549" lon="5.46252">
        <ele>1906.4000244141</ele>
        <time>2022-05-28T10:42:48.000Z</time>
      </trkpt>
      <trkpt lat="44.7549" lon="5.46252">
        <ele>1906.4000244141</ele>
        <time>2022-05-28T10:42:49.000Z</time>
      </trkpt>
      <trkpt lat="44.7549" lon="5.46252">
        <ele>1906.4000244141</ele>
        <time>2022-05-28T10:42:53.000Z</time>
      </trkpt>
      <trkpt lat="44.7549" lon="5.46252">
        <ele>1906.4000244141</ele>
        <time>2022-05-28T10:42:56.000Z</time>
      </trkpt>
      <trkpt lat="44.75478" lon="5.4625">
        <ele>1906.4000244141</ele>
        <time>2022-05-28T10:43:14.000Z</time>
      </trkpt>
      <trkpt lat="44.75461" lon="5.46241">
        <ele>1907.4000244141</ele>
        <time>2022-05-28T10:43:37.000Z</time>
      </trkpt>
      <trkpt lat="44.75458" lon="5.46237">
        <ele>1907</ele>
        <time>2022-05-28T10:43:59.000Z</time>
      </trkpt>
      <trkpt lat="44.75429" lon="5.46234">
        <ele>1909.8000488281</ele>
        <time>2022-05-28T10:44:20.000Z</time>
      </trkpt>
      <trkpt lat="44.75421" lon="5.46237">
        <ele>1911</ele>
        <time>2022-05-28T10:44:26.000Z</time>
      </trkpt>
      <trkpt lat="44.75377" lon="5.46233">
        <ele>1913.4000244141</ele>
        <time>2022-05-28T10:45:01.000Z</time>
      </trkpt>
      <trkpt lat="44.75348" lon="5.46213">
        <ele>1913.5999755859</ele>
        <time>2022-05-28T10:45:32.000Z</time>
      </trkpt>
      <trkpt lat="44.75342" lon="5.4621">
        <ele>1914</ele>
        <time>2022-05-28T10:45:40.000Z</time>
      </trkpt>
      <trkpt lat="44.75338" lon="5.46207">
        <ele>1913.8000488281</ele>
        <time>2022-05-28T10:45:46.000Z</time>
      </trkpt>
      <trkpt lat="44.75321" lon="5.46203">
        <ele>1914.5999755859</ele>
        <time>2022-05-28T10:46:02.000Z</time>
      </trkpt>
      <trkpt lat="44.75314" lon="5.46205">
        <ele>1916.4000244141</ele>
        <time>2022-05-28T10:46:08.000Z</time>
      </trkpt>
      <trkpt lat="44.7528" lon="5.46207">
        <ele>1917.5999755859</ele>
        <time>2022-05-28T10:46:45.000Z</time>
      </trkpt>
      <trkpt lat="44.75249" lon="5.4621">
        <ele>1915</ele>
        <time>2022-05-28T10:47:18.000Z</time>
      </trkpt>
      <trkpt lat="44.75205" lon="5.4621">
        <ele>1915.4000244141</ele>
        <time>2022-05-28T10:48:01.000Z</time>
      </trkpt>
      <trkpt lat="44.75196" lon="5.4621">
        <ele>1915.4000244141</ele>
        <time>2022-05-28T10:48:09.000Z</time>
      </trkpt>
      <trkpt lat="44.75167" lon="5.46212">
        <ele>1914.8000488281</ele>
        <time>2022-05-28T10:48:35.000Z</time>
      </trkpt>
      <trkpt lat="44.75155" lon="5.46216">
        <ele>1914.8000488281</ele>
        <time>2022-05-28T10:48:53.000Z</time>
      </trkpt>
      <trkpt lat="44.75137" lon="5.46222">
        <ele>1914.1999511719</ele>
        <time>2022-05-28T10:49:17.000Z</time>
      </trkpt>
      <trkpt lat="44.75133" lon="5.46222">
        <ele>1913.8000488281</ele>
        <time>2022-05-28T10:49:21.000Z</time>
      </trkpt>
      <trkpt lat="44.75091" lon="5.46241">
        <ele>1916.8000488281</ele>
        <time>2022-05-28T10:50:14.000Z</time>
      </trkpt>
      <trkpt lat="44.75077" lon="5.46249">
        <ele>1919</ele>
        <time>2022-05-28T10:50:36.000Z</time>
      </trkpt>
      <trkpt lat="44.75075" lon="5.46253">
        <ele>1919.5999755859</ele>
        <time>2022-05-28T10:50:39.000Z</time>
      </trkpt>
      <trkpt lat="44.75064" lon="5.46275">
        <ele>1921.8000488281</ele>
        <time>2022-05-28T10:50:59.000Z</time>
      </trkpt>
      <trkpt lat="44.75064" lon="5.46276">
        <ele>1922</ele>
        <time>2022-05-28T10:51:00.000Z</time>
      </trkpt>
      <trkpt lat="44.75063" lon="5.46277">
        <ele>1922</ele>
        <time>2022-05-28T10:51:01.000Z</time>
      </trkpt>
      <trkpt lat="44.75063" lon="5.46278">
        <ele>1922</ele>
        <time>2022-05-28T10:51:02.000Z</time>
      </trkpt>
      <trkpt lat="44.75062" lon="5.4628">
        <ele>1922.1999511719</ele>
        <time>2022-05-28T10:51:03.000Z</time>
      </trkpt>
      <trkpt lat="44.7506" lon="5.46284">
        <ele>1922.1999511719</ele>
        <time>2022-05-28T10:51:07.000Z</time>
      </trkpt>
      <trkpt lat="44.7503" lon="5.46314">
        <ele>1923.4000244141</ele>
        <time>2022-05-28T10:51:43.000Z</time>
      </trkpt>
      <trkpt lat="44.75016" lon="5.46322">
        <ele>1925.5999755859</ele>
        <time>2022-05-28T10:51:58.000Z</time>
      </trkpt>
      <trkpt lat="44.75001" lon="5.46329">
        <ele>1928.1999511719</ele>
        <time>2022-05-28T10:52:17.000Z</time>
      </trkpt>
      <trkpt lat="44.74956" lon="5.46331">
        <ele>1934.1999511719</ele>
        <time>2022-05-28T10:53:11.000Z</time>
      </trkpt>
      <trkpt lat="44.74956" lon="5.46331">
        <ele>1934.1999511719</ele>
        <time>2022-05-28T10:53:12.000Z</time>
      </trkpt>
      <trkpt lat="44.74955" lon="5.46331">
        <ele>1934.4000244141</ele>
        <time>2022-05-28T10:53:13.000Z</time>
      </trkpt>
      <trkpt lat="44.74954" lon="5.46331">
        <ele>1934.5999755859</ele>
        <time>2022-05-28T10:53:14.000Z</time>
      </trkpt>
      <trkpt lat="44.7495" lon="5.46332">
        <ele>1935.4000244141</ele>
        <time>2022-05-28T10:53:18.000Z</time>
      </trkpt>
      <trkpt lat="44.74949" lon="5.46332">
        <ele>1935.5999755859</ele>
        <time>2022-05-28T10:53:19.000Z</time>
      </trkpt>
      <trkpt lat="44.74948" lon="5.46332">
        <ele>1935.8000488281</ele>
        <time>2022-05-28T10:53:20.000Z</time>
      </trkpt>
      <trkpt lat="44.74947" lon="5.46332">
        <ele>1936</ele>
        <time>2022-05-28T10:53:21.000Z</time>
      </trkpt>
      <trkpt lat="44.74946" lon="5.46332">
        <ele>1936.1999511719</ele>
        <time>2022-05-28T10:53:22.000Z</time>
      </trkpt>
      <trkpt lat="44.74944" lon="5.46333">
        <ele>1936.5999755859</ele>
        <time>2022-05-28T10:53:24.000Z</time>
      </trkpt>
      <trkpt lat="44.74941" lon="5.46336">
        <ele>1937.8000488281</ele>
        <time>2022-05-28T10:53:30.000Z</time>
      </trkpt>
      <trkpt lat="44.7493" lon="5.46341">
        <ele>1940.5999755859</ele>
        <time>2022-05-28T10:53:43.000Z</time>
      </trkpt>
      <trkpt lat="44.74923" lon="5.46342">
        <ele>1941.4000244141</ele>
        <time>2022-05-28T10:53:51.000Z</time>
      </trkpt>
      <trkpt lat="44.74913" lon="5.46342">
        <ele>1943</ele>
        <time>2022-05-28T10:54:05.000Z</time>
      </trkpt>
      <trkpt lat="44.74907" lon="5.46344">
        <ele>1943.8000488281</ele>
        <time>2022-05-28T10:54:12.000Z</time>
      </trkpt>
      <trkpt lat="44.74904" lon="5.46346">
        <ele>1944.1999511719</ele>
        <time>2022-05-28T10:54:16.000Z</time>
      </trkpt>
      <trkpt lat="44.74902" lon="5.46347">
        <ele>1944.5999755859</ele>
        <time>2022-05-28T10:54:19.000Z</time>
      </trkpt>
      <trkpt lat="44.749" lon="5.46348">
        <ele>1944.8000488281</ele>
        <time>2022-05-28T10:54:21.000Z</time>
      </trkpt>
      <trkpt lat="44.749" lon="5.46348">
        <ele>1945</ele>
        <time>2022-05-28T10:54:22.000Z</time>
      </trkpt>
      <trkpt lat="44.74899" lon="5.46348">
        <ele>1945</ele>
        <time>2022-05-28T10:54:23.000Z</time>
      </trkpt>
      <trkpt lat="44.74899" lon="5.46347">
        <ele>1945.1999511719</ele>
        <time>2022-05-28T10:54:24.000Z</time>
      </trkpt>
      <trkpt lat="44.74898" lon="5.46347">
        <ele>1945.1999511719</ele>
        <time>2022-05-28T10:54:25.000Z</time>
      </trkpt>
      <trkpt lat="44.74897" lon="5.46347">
        <ele>1945.4000244141</ele>
        <time>2022-05-28T10:54:26.000Z</time>
      </trkpt>
      <trkpt lat="44.74896" lon="5.46347">
        <ele>1945.4000244141</ele>
        <time>2022-05-28T10:54:27.000Z</time>
      </trkpt>
      <trkpt lat="44.74895" lon="5.46347">
        <ele>1945.5999755859</ele>
        <time>2022-05-28T10:54:29.000Z</time>
      </trkpt>
      <trkpt lat="44.74886" lon="5.46349">
        <ele>1946</ele>
        <time>2022-05-28T10:54:40.000Z</time>
      </trkpt>
      <trkpt lat="44.74878" lon="5.4635">
        <ele>1946.8000488281</ele>
        <time>2022-05-28T10:54:50.000Z</time>
      </trkpt>
      <trkpt lat="44.74869" lon="5.46354">
        <ele>1948.1999511719</ele>
        <time>2022-05-28T10:55:01.000Z</time>
      </trkpt>
      <trkpt lat="44.74866" lon="5.46355">
        <ele>1948.4000244141</ele>
        <time>2022-05-28T10:55:06.000Z</time>
      </trkpt>
      <trkpt lat="44.74864" lon="5.46355">
        <ele>1948.4000244141</ele>
        <time>2022-05-28T10:55:10.000Z</time>
      </trkpt>
      <trkpt lat="44.74863" lon="5.46356">
        <ele>1948.4000244141</ele>
        <time>2022-05-28T10:55:11.000Z</time>
      </trkpt>
      <trkpt lat="44.74861" lon="5.46357">
        <ele>1948.8000488281</ele>
        <time>2022-05-28T10:55:13.000Z</time>
      </trkpt>
      <trkpt lat="44.7486" lon="5.46357">
        <ele>1948.8000488281</ele>
        <time>2022-05-28T10:55:14.000Z</time>
      </trkpt>
      <trkpt lat="44.7486" lon="5.46357">
        <ele>1949</ele>
        <time>2022-05-28T10:55:15.000Z</time>
      </trkpt>
      <trkpt lat="44.74859" lon="5.46357">
        <ele>1949</ele>
        <time>2022-05-28T10:55:16.000Z</time>
      </trkpt>
      <trkpt lat="44.74858" lon="5.46358">
        <ele>1949.1999511719</ele>
        <time>2022-05-28T10:55:17.000Z</time>
      </trkpt>
      <trkpt lat="44.74857" lon="5.46357">
        <ele>1949.1999511719</ele>
        <time>2022-05-28T10:55:18.000Z</time>
      </trkpt>
      <trkpt lat="44.74856" lon="5.46359">
        <ele>1949.5999755859</ele>
        <time>2022-05-28T10:55:22.000Z</time>
      </trkpt>
      <trkpt lat="44.74854" lon="5.4636">
        <ele>1950</ele>
        <time>2022-05-28T10:55:25.000Z</time>
      </trkpt>
      <trkpt lat="44.74853" lon="5.4636">
        <ele>1950.1999511719</ele>
        <time>2022-05-28T10:55:27.000Z</time>
      </trkpt>
      <trkpt lat="44.74853" lon="5.4636">
        <ele>1950.1999511719</ele>
        <time>2022-05-28T10:55:28.000Z</time>
      </trkpt>
      <trkpt lat="44.74852" lon="5.4636">
        <ele>1950.1999511719</ele>
        <time>2022-05-28T10:55:30.000Z</time>
      </trkpt>
      <trkpt lat="44.7485" lon="5.46361">
        <ele>1950.4000244141</ele>
        <time>2022-05-28T10:55:33.000Z</time>
      </trkpt>
      <trkpt lat="44.7485" lon="5.46361">
        <ele>1950.4000244141</ele>
        <time>2022-05-28T10:55:34.000Z</time>
      </trkpt>
      <trkpt lat="44.7485" lon="5.46361">
        <ele>1950.4000244141</ele>
        <time>2022-05-28T10:55:35.000Z</time>
      </trkpt>
      <trkpt lat="44.74848" lon="5.46361">
        <ele>1950.5999755859</ele>
        <time>2022-05-28T10:55:37.000Z</time>
      </trkpt>
      <trkpt lat="44.74846" lon="5.4636">
        <ele>1950.4000244141</ele>
        <time>2022-05-28T10:55:39.000Z</time>
      </trkpt>
      <trkpt lat="44.74844" lon="5.46358">
        <ele>1950.4000244141</ele>
        <time>2022-05-28T10:55:42.000Z</time>
      </trkpt>
      <trkpt lat="44.74837" lon="5.46362">
        <ele>1951.4000244141</ele>
        <time>2022-05-28T10:55:54.000Z</time>
      </trkpt>
      <trkpt lat="44.74835" lon="5.46363">
        <ele>1951.5999755859</ele>
        <time>2022-05-28T10:55:57.000Z</time>
      </trkpt>
      <trkpt lat="44.74833" lon="5.46364">
        <ele>1951.5999755859</ele>
        <time>2022-05-28T10:55:59.000Z</time>
      </trkpt>
      <trkpt lat="44.74831" lon="5.46365">
        <ele>1951.8000488281</ele>
        <time>2022-05-28T10:56:01.000Z</time>
      </trkpt>
      <trkpt lat="44.74829" lon="5.46365">
        <ele>1951.8000488281</ele>
        <time>2022-05-28T10:56:03.000Z</time>
      </trkpt>
      <trkpt lat="44.74827" lon="5.46365">
        <ele>1952</ele>
        <time>2022-05-28T10:56:06.000Z</time>
      </trkpt>
      <trkpt lat="44.74824" lon="5.46365">
        <ele>1951.8000488281</ele>
        <time>2022-05-28T10:56:08.000Z</time>
      </trkpt>
      <trkpt lat="44.74823" lon="5.46365">
        <ele>1951.8000488281</ele>
        <time>2022-05-28T10:56:09.000Z</time>
      </trkpt>
      <trkpt lat="44.74822" lon="5.46366">
        <ele>1952</ele>
        <time>2022-05-28T10:56:11.000Z</time>
      </trkpt>
      <trkpt lat="44.74819" lon="5.46367">
        <ele>1952.4000244141</ele>
        <time>2022-05-28T10:56:13.000Z</time>
      </trkpt>
      <trkpt lat="44.74816" lon="5.46369">
        <ele>1953</ele>
        <time>2022-05-28T10:56:17.000Z</time>
      </trkpt>
      <trkpt lat="44.74813" lon="5.46371">
        <ele>1953.5999755859</ele>
        <time>2022-05-28T10:56:21.000Z</time>
      </trkpt>
      <trkpt lat="44.74802" lon="5.46387">
        <ele>1957.1999511719</ele>
        <time>2022-05-28T10:56:39.000Z</time>
      </trkpt>
      <trkpt lat="44.74796" lon="5.46392">
        <ele>1958.1999511719</ele>
        <time>2022-05-28T10:56:48.000Z</time>
      </trkpt>
      <trkpt lat="44.74787" lon="5.46394">
        <ele>1958.1999511719</ele>
        <time>2022-05-28T10:56:59.000Z</time>
      </trkpt>
      <trkpt lat="44.74779" lon="5.46396">
        <ele>1958</ele>
        <time>2022-05-28T10:57:07.000Z</time>
      </trkpt>
      <trkpt lat="44.74777" lon="5.46397">
        <ele>1958.1999511719</ele>
        <time>2022-05-28T10:57:10.000Z</time>
      </trkpt>
      <trkpt lat="44.74775" lon="5.46398">
        <ele>1958.1999511719</ele>
        <time>2022-05-28T10:57:12.000Z</time>
      </trkpt>
      <trkpt lat="44.74771" lon="5.46402">
        <ele>1958.5999755859</ele>
        <time>2022-05-28T10:57:18.000Z</time>
      </trkpt>
      <trkpt lat="44.74769" lon="5.46406">
        <ele>1959.5999755859</ele>
        <time>2022-05-28T10:57:23.000Z</time>
      </trkpt>
      <trkpt lat="44.74762" lon="5.4641">
        <ele>1960.5999755859</ele>
        <time>2022-05-28T10:57:32.000Z</time>
      </trkpt>
      <trkpt lat="44.74761" lon="5.4641">
        <ele>1960.5999755859</ele>
        <time>2022-05-28T10:57:33.000Z</time>
      </trkpt>
      <trkpt lat="44.7476" lon="5.46411">
        <ele>1961</ele>
        <time>2022-05-28T10:57:34.000Z</time>
      </trkpt>
      <trkpt lat="44.74759" lon="5.46412">
        <ele>1961.1999511719</ele>
        <time>2022-05-28T10:57:35.000Z</time>
      </trkpt>
      <trkpt lat="44.74758" lon="5.46413">
        <ele>1961.4000244141</ele>
        <time>2022-05-28T10:57:36.000Z</time>
      </trkpt>
      <trkpt lat="44.74757" lon="5.46415">
        <ele>1961.8000488281</ele>
        <time>2022-05-28T10:57:37.000Z</time>
      </trkpt>
      <trkpt lat="44.74743" lon="5.46419">
        <ele>1964.5999755859</ele>
        <time>2022-05-28T10:57:52.000Z</time>
      </trkpt>
      <trkpt lat="44.74735" lon="5.46415">
        <ele>1965</ele>
        <time>2022-05-28T10:58:01.000Z</time>
      </trkpt>
      <trkpt lat="44.74733" lon="5.46414">
        <ele>1965</ele>
        <time>2022-05-28T10:58:03.000Z</time>
      </trkpt>
      <trkpt lat="44.74732" lon="5.46415">
        <ele>1965.4000244141</ele>
        <time>2022-05-28T10:58:05.000Z</time>
      </trkpt>
      <trkpt lat="44.74731" lon="5.46415">
        <ele>1965.5999755859</ele>
        <time>2022-05-28T10:58:06.000Z</time>
      </trkpt>
      <trkpt lat="44.74724" lon="5.46416">
        <ele>1966.5999755859</ele>
        <time>2022-05-28T10:58:14.000Z</time>
      </trkpt>
      <trkpt lat="44.74714" lon="5.46412">
        <ele>1967</ele>
        <time>2022-05-28T10:58:29.000Z</time>
      </trkpt>
      <trkpt lat="44.74713" lon="5.46411">
        <ele>1967</ele>
        <time>2022-05-28T10:58:30.000Z</time>
      </trkpt>
      <trkpt lat="44.74712" lon="5.4641">
        <ele>1966.8000488281</ele>
        <time>2022-05-28T10:58:31.000Z</time>
      </trkpt>
      <trkpt lat="44.74711" lon="5.46409">
        <ele>1966.8000488281</ele>
        <time>2022-05-28T10:58:33.000Z</time>
      </trkpt>
      <trkpt lat="44.74711" lon="5.46408">
        <ele>1966.8000488281</ele>
        <time>2022-05-28T10:58:34.000Z</time>
      </trkpt>
      <trkpt lat="44.7471" lon="5.46408">
        <ele>1966.8000488281</ele>
        <time>2022-05-28T10:58:35.000Z</time>
      </trkpt>
      <trkpt lat="44.74708" lon="5.46407">
        <ele>1966.5999755859</ele>
        <time>2022-05-28T10:58:37.000Z</time>
      </trkpt>
      <trkpt lat="44.74704" lon="5.46406">
        <ele>1967</ele>
        <time>2022-05-28T10:58:41.000Z</time>
      </trkpt>
      <trkpt lat="44.74701" lon="5.46406">
        <ele>1967.4000244141</ele>
        <time>2022-05-28T10:58:44.000Z</time>
      </trkpt>
      <trkpt lat="44.747" lon="5.46407">
        <ele>1967.5999755859</ele>
        <time>2022-05-28T10:58:46.000Z</time>
      </trkpt>
      <trkpt lat="44.74698" lon="5.46408">
        <ele>1967.5999755859</ele>
        <time>2022-05-28T10:58:52.000Z</time>
      </trkpt>
      <trkpt lat="44.74699" lon="5.46407">
        <ele>1967.5999755859</ele>
        <time>2022-05-28T10:58:54.000Z</time>
      </trkpt>
      <trkpt lat="44.74698" lon="5.46407">
        <ele>1967.5999755859</ele>
        <time>2022-05-28T10:58:56.000Z</time>
      </trkpt>
      <trkpt lat="44.74698" lon="5.46406">
        <ele>1967.4000244141</ele>
        <time>2022-05-28T10:59:02.000Z</time>
      </trkpt>
      <trkpt lat="44.74698" lon="5.46406">
        <ele>1967.4000244141</ele>
        <time>2022-05-28T10:59:03.000Z</time>
      </trkpt>
      <trkpt lat="44.74698" lon="5.46406">
        <ele>1967.4000244141</ele>
        <time>2022-05-28T10:59:04.000Z</time>
      </trkpt>
      <trkpt lat="44.74697" lon="5.46405">
        <ele>1967.1999511719</ele>
        <time>2022-05-28T10:59:08.000Z</time>
      </trkpt>
      <trkpt lat="44.74696" lon="5.46405">
        <ele>1967.1999511719</ele>
        <time>2022-05-28T10:59:09.000Z</time>
      </trkpt>
      <trkpt lat="44.74693" lon="5.46404">
        <ele>1967.1999511719</ele>
        <time>2022-05-28T10:59:14.000Z</time>
      </trkpt>
      <trkpt lat="44.74692" lon="5.46403">
        <ele>1967</ele>
        <time>2022-05-28T10:59:18.000Z</time>
      </trkpt>
      <trkpt lat="44.74693" lon="5.46403">
        <ele>1967</ele>
        <time>2022-05-28T10:59:20.000Z</time>
      </trkpt>
      <trkpt lat="44.74693" lon="5.46403">
        <ele>1967</ele>
        <time>2022-05-28T10:59:23.000Z</time>
      </trkpt>
      <trkpt lat="44.74688" lon="5.46402">
        <ele>1967</ele>
        <time>2022-05-28T10:59:39.000Z</time>
      </trkpt>
      <trkpt lat="44.74685" lon="5.46401">
        <ele>1967</ele>
        <time>2022-05-28T10:59:42.000Z</time>
      </trkpt>
      <trkpt lat="44.74683" lon="5.46399">
        <ele>1966.8000488281</ele>
        <time>2022-05-28T10:59:45.000Z</time>
      </trkpt>
      <trkpt lat="44.7468" lon="5.46397">
        <ele>1966.5999755859</ele>
        <time>2022-05-28T10:59:48.000Z</time>
      </trkpt>
      <trkpt lat="44.74676" lon="5.46396">
        <ele>1966.5999755859</ele>
        <time>2022-05-28T10:59:51.000Z</time>
      </trkpt>
      <trkpt lat="44.74675" lon="5.46394">
        <ele>1966.4000244141</ele>
        <time>2022-05-28T10:59:55.000Z</time>
      </trkpt>
      <trkpt lat="44.74673" lon="5.46397">
        <ele>1967.1999511719</ele>
        <time>2022-05-28T11:00:00.000Z</time>
      </trkpt>
      <trkpt lat="44.74672" lon="5.46398">
        <ele>1967.1999511719</ele>
        <time>2022-05-28T11:00:01.000Z</time>
      </trkpt>
      <trkpt lat="44.7467" lon="5.46399">
        <ele>1967.4000244141</ele>
        <time>2022-05-28T11:00:06.000Z</time>
      </trkpt>
      <trkpt lat="44.74671" lon="5.46401">
        <ele>1968</ele>
        <time>2022-05-28T11:00:13.000Z</time>
      </trkpt>
      <trkpt lat="44.74673" lon="5.46394">
        <ele>1966.5999755859</ele>
        <time>2022-05-28T11:00:32.000Z</time>
      </trkpt>
      <trkpt lat="44.74671" lon="5.46391">
        <ele>1965.5999755859</ele>
        <time>2022-05-28T11:00:47.000Z</time>
      </trkpt>
      <trkpt lat="44.74671" lon="5.4639">
        <ele>1965.4000244141</ele>
        <time>2022-05-28T11:00:58.000Z</time>
      </trkpt>
      <trkpt lat="44.74672" lon="5.4639">
        <ele>1965.4000244141</ele>
        <time>2022-05-28T11:01:02.000Z</time>
      </trkpt>
      <trkpt lat="44.74671" lon="5.46391">
        <ele>1965.4000244141</ele>
        <time>2022-05-28T11:01:07.000Z</time>
      </trkpt>
      <trkpt lat="44.74671" lon="5.46392">
        <ele>1965.8000488281</ele>
        <time>2022-05-28T11:01:15.000Z</time>
      </trkpt>
      <trkpt lat="44.74672" lon="5.46393">
        <ele>1966</ele>
        <time>2022-05-28T11:01:29.000Z</time>
      </trkpt>
      <trkpt lat="44.74671" lon="5.46391">
        <ele>1965.5999755859</ele>
        <time>2022-05-28T11:01:38.000Z</time>
      </trkpt>
      <trkpt lat="44.74671" lon="5.46391">
        <ele>1965.5999755859</ele>
        <time>2022-05-28T11:01:56.000Z</time>
      </trkpt>
      <trkpt lat="44.7467" lon="5.46392">
        <ele>1965.8000488281</ele>
        <time>2022-05-28T11:02:05.000Z</time>
      </trkpt>
      <trkpt lat="44.74671" lon="5.46393">
        <ele>1966</ele>
        <time>2022-05-28T11:02:36.000Z</time>
      </trkpt>
      <trkpt lat="44.74671" lon="5.46393">
        <ele>1966</ele>
        <time>2022-05-28T11:02:37.000Z</time>
      </trkpt>
      <trkpt lat="44.74671" lon="5.46393">
        <ele>1966</ele>
        <time>2022-05-28T11:02:38.000Z</time>
      </trkpt>
      <trkpt lat="44.74671" lon="5.46397">
        <ele>1967</ele>
        <time>2022-05-28T11:02:51.000Z</time>
      </trkpt>
      <trkpt lat="44.74671" lon="5.46397">
        <ele>1967</ele>
        <time>2022-05-28T11:02:54.000Z</time>
      </trkpt>
      <trkpt lat="44.74672" lon="5.46397">
        <ele>1967</ele>
        <time>2022-05-28T11:03:04.000Z</time>
      </trkpt>
      <trkpt lat="44.74671" lon="5.46397">
        <ele>1967.1999511719</ele>
        <time>2022-05-28T11:03:07.000Z</time>
      </trkpt>
      <trkpt lat="44.74671" lon="5.46397">
        <ele>1967.1999511719</ele>
        <time>2022-05-28T11:03:08.000Z</time>
      </trkpt>
      <trkpt lat="44.74672" lon="5.46398">
        <ele>1967.4000244141</ele>
        <time>2022-05-28T11:03:12.000Z</time>
      </trkpt>
      <trkpt lat="44.74672" lon="5.46398">
        <ele>1967.4000244141</ele>
        <time>2022-05-28T11:03:15.000Z</time>
      </trkpt>
      <trkpt lat="44.74672" lon="5.46398">
        <ele>1967.4000244141</ele>
        <time>2022-05-28T11:03:26.000Z</time>
      </trkpt>
      <trkpt lat="44.74671" lon="5.46398">
        <ele>1967.1999511719</ele>
        <time>2022-05-28T11:03:45.000Z</time>
      </trkpt>
      <trkpt lat="44.74671" lon="5.46398">
        <ele>1967.1999511719</ele>
        <time>2022-05-28T11:03:48.000Z</time>
      </trkpt>
      <trkpt lat="44.74671" lon="5.46398">
        <ele>1967.1999511719</ele>
        <time>2022-05-28T11:03:51.000Z</time>
      </trkpt>
      <trkpt lat="44.74666" lon="5.464">
        <ele>1967.1999511719</ele>
        <time>2022-05-28T11:04:05.000Z</time>
      </trkpt>
      <trkpt lat="44.74656" lon="5.46403">
        <ele>1967</ele>
        <time>2022-05-28T11:04:28.000Z</time>
      </trkpt>
      <trkpt lat="44.74652" lon="5.46405">
        <ele>1967</ele>
        <time>2022-05-28T11:04:33.000Z</time>
      </trkpt>
      <trkpt lat="44.74647" lon="5.46408">
        <ele>1967.1999511719</ele>
        <time>2022-05-28T11:04:38.000Z</time>
      </trkpt>
      <trkpt lat="44.74612" lon="5.46436">
        <ele>1965</ele>
        <time>2022-05-28T11:05:17.000Z</time>
      </trkpt>
      <trkpt lat="44.74582" lon="5.46467">
        <ele>1966.4000244141</ele>
        <time>2022-05-28T11:05:55.000Z</time>
      </trkpt>
      <trkpt lat="44.74546" lon="5.46504">
        <ele>1965.1999511719</ele>
        <time>2022-05-28T11:06:42.000Z</time>
      </trkpt>
      <trkpt lat="44.74524" lon="5.46521">
        <ele>1963.5999755859</ele>
        <time>2022-05-28T11:07:09.000Z</time>
      </trkpt>
      <trkpt lat="44.74523" lon="5.46522">
        <ele>1963.4000244141</ele>
        <time>2022-05-28T11:07:10.000Z</time>
      </trkpt>
      <trkpt lat="44.74522" lon="5.46523">
        <ele>1963.4000244141</ele>
        <time>2022-05-28T11:07:12.000Z</time>
      </trkpt>
      <trkpt lat="44.7452" lon="5.46524">
        <ele>1963.4000244141</ele>
        <time>2022-05-28T11:07:14.000Z</time>
      </trkpt>
      <trkpt lat="44.74518" lon="5.46524">
        <ele>1963.1999511719</ele>
        <time>2022-05-28T11:07:16.000Z</time>
      </trkpt>
      <trkpt lat="44.74518" lon="5.46524">
        <ele>1963</ele>
        <time>2022-05-28T11:07:17.000Z</time>
      </trkpt>
      <trkpt lat="44.74514" lon="5.46527">
        <ele>1963</ele>
        <time>2022-05-28T11:07:21.000Z</time>
      </trkpt>
      <trkpt lat="44.74513" lon="5.46528">
        <ele>1963</ele>
        <time>2022-05-28T11:07:22.000Z</time>
      </trkpt>
      <trkpt lat="44.74512" lon="5.46528">
        <ele>1963</ele>
        <time>2022-05-28T11:07:23.000Z</time>
      </trkpt>
      <trkpt lat="44.74511" lon="5.46529">
        <ele>1962.8000488281</ele>
        <time>2022-05-28T11:07:24.000Z</time>
      </trkpt>
      <trkpt lat="44.7451" lon="5.46529">
        <ele>1962.8000488281</ele>
        <time>2022-05-28T11:07:25.000Z</time>
      </trkpt>
      <trkpt lat="44.74507" lon="5.46532">
        <ele>1962.8000488281</ele>
        <time>2022-05-28T11:07:29.000Z</time>
      </trkpt>
      <trkpt lat="44.74502" lon="5.46541">
        <ele>1963.5999755859</ele>
        <time>2022-05-28T11:07:36.000Z</time>
      </trkpt>
      <trkpt lat="44.74495" lon="5.46548">
        <ele>1963.8000488281</ele>
        <time>2022-05-28T11:07:44.000Z</time>
      </trkpt>
      <trkpt lat="44.74482" lon="5.46562">
        <ele>1962.8000488281</ele>
        <time>2022-05-28T11:07:59.000Z</time>
      </trkpt>
      <trkpt lat="44.74477" lon="5.46566">
        <ele>1962.1999511719</ele>
        <time>2022-05-28T11:08:04.000Z</time>
      </trkpt>
      <trkpt lat="44.74467" lon="5.46584">
        <ele>1960.8000488281</ele>
        <time>2022-05-28T11:08:19.000Z</time>
      </trkpt>
      <trkpt lat="44.74463" lon="5.46589">
        <ele>1960.1999511719</ele>
        <time>2022-05-28T11:08:24.000Z</time>
      </trkpt>
      <trkpt lat="44.74456" lon="5.46597">
        <ele>1958.5999755859</ele>
        <time>2022-05-28T11:08:32.000Z</time>
      </trkpt>
      <trkpt lat="44.74453" lon="5.46609">
        <ele>1957.4000244141</ele>
        <time>2022-05-28T11:08:40.000Z</time>
      </trkpt>
      <trkpt lat="44.74446" lon="5.46618">
        <ele>1955.8000488281</ele>
        <time>2022-05-28T11:08:50.000Z</time>
      </trkpt>
      <trkpt lat="44.74436" lon="5.46643">
        <ele>1953.5999755859</ele>
        <time>2022-05-28T11:09:08.000Z</time>
      </trkpt>
      <trkpt lat="44.74425" lon="5.46665">
        <ele>1951.1999511719</ele>
        <time>2022-05-28T11:09:25.000Z</time>
      </trkpt>
      <trkpt lat="44.74413" lon="5.46689">
        <ele>1947.5999755859</ele>
        <time>2022-05-28T11:09:45.000Z</time>
      </trkpt>
      <trkpt lat="44.74403" lon="5.4671">
        <ele>1944</ele>
        <time>2022-05-28T11:10:02.000Z</time>
      </trkpt>
      <trkpt lat="44.74388" lon="5.46745">
        <ele>1940.1999511719</ele>
        <time>2022-05-28T11:10:29.000Z</time>
      </trkpt>
      <trkpt lat="44.7437" lon="5.46776">
        <ele>1936.4000244141</ele>
        <time>2022-05-28T11:10:56.000Z</time>
      </trkpt>
      <trkpt lat="44.74335" lon="5.46817">
        <ele>1928.8000488281</ele>
        <time>2022-05-28T11:11:38.000Z</time>
      </trkpt>
      <trkpt lat="44.7432" lon="5.46828">
        <ele>1927</ele>
        <time>2022-05-28T11:11:51.000Z</time>
      </trkpt>
      <trkpt lat="44.74289" lon="5.46867">
        <ele>1926</ele>
        <time>2022-05-28T11:12:27.000Z</time>
      </trkpt>
      <trkpt lat="44.74287" lon="5.46879">
        <ele>1926.5999755859</ele>
        <time>2022-05-28T11:12:36.000Z</time>
      </trkpt>
      <trkpt lat="44.74287" lon="5.4688">
        <ele>1926.5999755859</ele>
        <time>2022-05-28T11:12:37.000Z</time>
      </trkpt>
      <trkpt lat="44.74286" lon="5.46883">
        <ele>1926.8000488281</ele>
        <time>2022-05-28T11:12:39.000Z</time>
      </trkpt>
      <trkpt lat="44.74286" lon="5.46884">
        <ele>1926.8000488281</ele>
        <time>2022-05-28T11:12:40.000Z</time>
      </trkpt>
      <trkpt lat="44.74286" lon="5.46885">
        <ele>1926.8000488281</ele>
        <time>2022-05-28T11:12:41.000Z</time>
      </trkpt>
      <trkpt lat="44.74286" lon="5.46886">
        <ele>1927</ele>
        <time>2022-05-28T11:12:42.000Z</time>
      </trkpt>
      <trkpt lat="44.74286" lon="5.46888">
        <ele>1927</ele>
        <time>2022-05-28T11:12:43.000Z</time>
      </trkpt>
      <trkpt lat="44.74286" lon="5.46889">
        <ele>1927</ele>
        <time>2022-05-28T11:12:44.000Z</time>
      </trkpt>
      <trkpt lat="44.74285" lon="5.46902">
        <ele>1927</ele>
        <time>2022-05-28T11:12:54.000Z</time>
      </trkpt>
      <trkpt lat="44.74284" lon="5.4691">
        <ele>1927.1999511719</ele>
        <time>2022-05-28T11:13:03.000Z</time>
      </trkpt>
      <trkpt lat="44.74279" lon="5.46929">
        <ele>1927.5999755859</ele>
        <time>2022-05-28T11:13:35.000Z</time>
      </trkpt>
      <trkpt lat="44.74278" lon="5.46932">
        <ele>1927.8000488281</ele>
        <time>2022-05-28T11:13:54.000Z</time>
      </trkpt>
      <trkpt lat="44.74276" lon="5.46934">
        <ele>1928.1999511719</ele>
        <time>2022-05-28T11:13:57.000Z</time>
      </trkpt>
      <trkpt lat="44.74244" lon="5.46973">
        <ele>1933.4000244141</ele>
        <time>2022-05-28T11:14:41.000Z</time>
      </trkpt>
      <trkpt lat="44.74238" lon="5.46975">
        <ele>1934.4000244141</ele>
        <time>2022-05-28T11:14:47.000Z</time>
      </trkpt>
      <trkpt lat="44.74207" lon="5.47019">
        <ele>1939.8000488281</ele>
        <time>2022-05-28T11:15:32.000Z</time>
      </trkpt>
      <trkpt lat="44.74208" lon="5.47029">
        <ele>1939.5999755859</ele>
        <time>2022-05-28T11:15:40.000Z</time>
      </trkpt>
      <trkpt lat="44.74211" lon="5.47034">
        <ele>1939.8000488281</ele>
        <time>2022-05-28T11:15:45.000Z</time>
      </trkpt>
      <trkpt lat="44.74212" lon="5.47035">
        <ele>1939.8000488281</ele>
        <time>2022-05-28T11:15:46.000Z</time>
      </trkpt>
      <trkpt lat="44.74212" lon="5.47036">
        <ele>1939.8000488281</ele>
        <time>2022-05-28T11:15:47.000Z</time>
      </trkpt>
      <trkpt lat="44.74216" lon="5.47042">
        <ele>1940</ele>
        <time>2022-05-28T11:15:51.000Z</time>
      </trkpt>
      <trkpt lat="44.74216" lon="5.47043">
        <ele>1940</ele>
        <time>2022-05-28T11:15:52.000Z</time>
      </trkpt>
      <trkpt lat="44.74217" lon="5.47045">
        <ele>1940</ele>
        <time>2022-05-28T11:15:53.000Z</time>
      </trkpt>
      <trkpt lat="44.74214" lon="5.4705">
        <ele>1940</ele>
        <time>2022-05-28T11:16:01.000Z</time>
      </trkpt>
      <trkpt lat="44.74214" lon="5.47051">
        <ele>1940</ele>
        <time>2022-05-28T11:16:03.000Z</time>
      </trkpt>
      <trkpt lat="44.74213" lon="5.47052">
        <ele>1940</ele>
        <time>2022-05-28T11:16:04.000Z</time>
      </trkpt>
      <trkpt lat="44.74211" lon="5.47056">
        <ele>1940</ele>
        <time>2022-05-28T11:16:08.000Z</time>
      </trkpt>
      <trkpt lat="44.74199" lon="5.47066">
        <ele>1941.1999511719</ele>
        <time>2022-05-28T11:16:20.000Z</time>
      </trkpt>
      <trkpt lat="44.74191" lon="5.47075">
        <ele>1942.5999755859</ele>
        <time>2022-05-28T11:16:28.000Z</time>
      </trkpt>
      <trkpt lat="44.74188" lon="5.47079">
        <ele>1942.5999755859</ele>
        <time>2022-05-28T11:16:31.000Z</time>
      </trkpt>
      <trkpt lat="44.74164" lon="5.47111">
        <ele>1941.5999755859</ele>
        <time>2022-05-28T11:16:49.000Z</time>
      </trkpt>
      <trkpt lat="44.74156" lon="5.47121">
        <ele>1940.5999755859</ele>
        <time>2022-05-28T11:16:59.000Z</time>
      </trkpt>
      <trkpt lat="44.74156" lon="5.47121">
        <ele>1940.5999755859</ele>
        <time>2022-05-28T11:17:00.000Z</time>
      </trkpt>
      <trkpt lat="44.74156" lon="5.47121">
        <ele>1940.8000488281</ele>
        <time>2022-05-28T11:17:01.000Z</time>
      </trkpt>
      <trkpt lat="44.74156" lon="5.47121">
        <ele>1940.8000488281</ele>
        <time>2022-05-28T11:17:02.000Z</time>
      </trkpt>
      <trkpt lat="44.74156" lon="5.4712">
        <ele>1940.8000488281</ele>
        <time>2022-05-28T11:17:03.000Z</time>
      </trkpt>
      <trkpt lat="44.74156" lon="5.47121">
        <ele>1940.8000488281</ele>
        <time>2022-05-28T11:17:04.000Z</time>
      </trkpt>
      <trkpt lat="44.74156" lon="5.47121">
        <ele>1940.5999755859</ele>
        <time>2022-05-28T11:17:06.000Z</time>
      </trkpt>
      <trkpt lat="44.74157" lon="5.47121">
        <ele>1940.5999755859</ele>
        <time>2022-05-28T11:17:16.000Z</time>
      </trkpt>
      <trkpt lat="44.74157" lon="5.47121">
        <ele>1940.5999755859</ele>
        <time>2022-05-28T11:17:18.000Z</time>
      </trkpt>
      <trkpt lat="44.74157" lon="5.47121">
        <ele>1940.5999755859</ele>
        <time>2022-05-28T11:17:19.000Z</time>
      </trkpt>
      <trkpt lat="44.74157" lon="5.47121">
        <ele>1940.5999755859</ele>
        <time>2022-05-28T11:17:20.000Z</time>
      </trkpt>
      <trkpt lat="44.74157" lon="5.47122">
        <ele>1940.4000244141</ele>
        <time>2022-05-28T11:17:23.000Z</time>
      </trkpt>
      <trkpt lat="44.74157" lon="5.47122">
        <ele>1940.4000244141</ele>
        <time>2022-05-28T11:17:25.000Z</time>
      </trkpt>
      <trkpt lat="44.74158" lon="5.47122">
        <ele>1940.4000244141</ele>
        <time>2022-05-28T11:17:26.000Z</time>
      </trkpt>
      <trkpt lat="44.74157" lon="5.47121">
        <ele>1940.5999755859</ele>
        <time>2022-05-28T11:17:31.000Z</time>
      </trkpt>
      <trkpt lat="44.74159" lon="5.47119">
        <ele>1940.8000488281</ele>
        <time>2022-05-28T11:17:42.000Z</time>
      </trkpt>
      <trkpt lat="44.74159" lon="5.47119">
        <ele>1940.8000488281</ele>
        <time>2022-05-28T11:17:46.000Z</time>
      </trkpt>
      <trkpt lat="44.74159" lon="5.47119">
        <ele>1940.8000488281</ele>
        <time>2022-05-28T11:17:47.000Z</time>
      </trkpt>
      <trkpt lat="44.74159" lon="5.4712">
        <ele>1940.5999755859</ele>
        <time>2022-05-28T11:17:53.000Z</time>
      </trkpt>
      <trkpt lat="44.74159" lon="5.4712">
        <ele>1940.5999755859</ele>
        <time>2022-05-28T11:17:57.000Z</time>
      </trkpt>
      <trkpt lat="44.74158" lon="5.47124">
        <ele>1940</ele>
        <time>2022-05-28T11:18:04.000Z</time>
      </trkpt>
      <trkpt lat="44.74157" lon="5.47125">
        <ele>1939.5999755859</ele>
        <time>2022-05-28T11:18:34.000Z</time>
      </trkpt>
      <trkpt lat="44.74157" lon="5.47126">
        <ele>1939.5999755859</ele>
        <time>2022-05-28T11:18:37.000Z</time>
      </trkpt>
      <trkpt lat="44.74157" lon="5.47126">
        <ele>1939.5999755859</ele>
        <time>2022-05-28T11:18:40.000Z</time>
      </trkpt>
      <trkpt lat="44.74157" lon="5.47125">
        <ele>1939.5999755859</ele>
        <time>2022-05-28T11:18:43.000Z</time>
      </trkpt>
      <trkpt lat="44.74157" lon="5.47125">
        <ele>1939.5999755859</ele>
        <time>2022-05-28T11:18:45.000Z</time>
      </trkpt>
      <trkpt lat="44.74157" lon="5.47126">
        <ele>1939.5999755859</ele>
        <time>2022-05-28T11:18:49.000Z</time>
      </trkpt>
      <trkpt lat="44.74157" lon="5.47126">
        <ele>1939.5999755859</ele>
        <time>2022-05-28T11:18:52.000Z</time>
      </trkpt>
      <trkpt lat="44.74157" lon="5.47126">
        <ele>1939.5999755859</ele>
        <time>2022-05-28T11:18:54.000Z</time>
      </trkpt>
      <trkpt lat="44.74157" lon="5.47125">
        <ele>1939.5999755859</ele>
        <time>2022-05-28T11:18:58.000Z</time>
      </trkpt>
      <trkpt lat="44.74157" lon="5.47125">
        <ele>1939.8000488281</ele>
        <time>2022-05-28T11:19:01.000Z</time>
      </trkpt>
      <trkpt lat="44.74157" lon="5.47125">
        <ele>1939.8000488281</ele>
        <time>2022-05-28T11:19:04.000Z</time>
      </trkpt>
      <trkpt lat="44.74157" lon="5.47125">
        <ele>1939.8000488281</ele>
        <time>2022-05-28T11:19:08.000Z</time>
      </trkpt>
      <trkpt lat="44.74157" lon="5.47124">
        <ele>1940</ele>
        <time>2022-05-28T11:19:11.000Z</time>
      </trkpt>
      <trkpt lat="44.74157" lon="5.47124">
        <ele>1940</ele>
        <time>2022-05-28T11:19:15.000Z</time>
      </trkpt>
      <trkpt lat="44.74157" lon="5.47124">
        <ele>1940</ele>
        <time>2022-05-28T11:19:19.000Z</time>
      </trkpt>
      <trkpt lat="44.74159" lon="5.47119">
        <ele>1940.8000488281</ele>
        <time>2022-05-28T11:19:27.000Z</time>
      </trkpt>
      <trkpt lat="44.7416" lon="5.47117">
        <ele>1941</ele>
        <time>2022-05-28T11:19:31.000Z</time>
      </trkpt>
      <trkpt lat="44.74159" lon="5.47118">
        <ele>1941</ele>
        <time>2022-05-28T11:19:35.000Z</time>
      </trkpt>
      <trkpt lat="44.74159" lon="5.47116">
        <ele>1941.1999511719</ele>
        <time>2022-05-28T11:20:01.000Z</time>
      </trkpt>
      <trkpt lat="44.74159" lon="5.47116">
        <ele>1941.1999511719</ele>
        <time>2022-05-28T11:20:02.000Z</time>
      </trkpt>
      <trkpt lat="44.74158" lon="5.47117">
        <ele>1941.1999511719</ele>
        <time>2022-05-28T11:20:03.000Z</time>
      </trkpt>
      <trkpt lat="44.74159" lon="5.47117">
        <ele>1941</ele>
        <time>2022-05-28T11:20:07.000Z</time>
      </trkpt>
      <trkpt lat="44.74159" lon="5.47117">
        <ele>1941</ele>
        <time>2022-05-28T11:20:11.000Z</time>
      </trkpt>
      <trkpt lat="44.74159" lon="5.47117">
        <ele>1941</ele>
        <time>2022-05-28T11:20:14.000Z</time>
      </trkpt>
      <trkpt lat="44.74159" lon="5.47117">
        <ele>1941</ele>
        <time>2022-05-28T11:20:22.000Z</time>
      </trkpt>
      <trkpt lat="44.74159" lon="5.47117">
        <ele>1941</ele>
        <time>2022-05-28T11:20:24.000Z</time>
      </trkpt>
      <trkpt lat="44.74159" lon="5.47117">
        <ele>1941</ele>
        <time>2022-05-28T11:20:27.000Z</time>
      </trkpt>
      <trkpt lat="44.74159" lon="5.47117">
        <ele>1941</ele>
        <time>2022-05-28T11:20:28.000Z</time>
      </trkpt>
      <trkpt lat="44.74159" lon="5.47117">
        <ele>1941</ele>
        <time>2022-05-28T11:20:39.000Z</time>
      </trkpt>
      <trkpt lat="44.74159" lon="5.47117">
        <ele>1941</ele>
        <time>2022-05-28T11:20:48.000Z</time>
      </trkpt>
      <trkpt lat="44.74159" lon="5.47117">
        <ele>1941</ele>
        <time>2022-05-28T11:20:56.000Z</time>
      </trkpt>
      <trkpt lat="44.7416" lon="5.47119">
        <ele>1940.8000488281</ele>
        <time>2022-05-28T11:21:07.000Z</time>
      </trkpt>
      <trkpt lat="44.7416" lon="5.47118">
        <ele>1940.8000488281</ele>
        <time>2022-05-28T11:21:17.000Z</time>
      </trkpt>
      <trkpt lat="44.74158" lon="5.47118">
        <ele>1941</ele>
        <time>2022-05-28T11:21:43.000Z</time>
      </trkpt>
      <trkpt lat="44.74159" lon="5.47119">
        <ele>1940.8000488281</ele>
        <time>2022-05-28T11:21:53.000Z</time>
      </trkpt>
      <trkpt lat="44.74159" lon="5.47119">
        <ele>1940.8000488281</ele>
        <time>2022-05-28T11:22:06.000Z</time>
      </trkpt>
      <trkpt lat="44.74159" lon="5.4712">
        <ele>1940.8000488281</ele>
        <time>2022-05-28T11:22:50.000Z</time>
      </trkpt>
      <trkpt lat="44.74157" lon="5.47122">
        <ele>1940.5999755859</ele>
        <time>2022-05-28T11:23:24.000Z</time>
      </trkpt>
      <trkpt lat="44.74157" lon="5.47119">
        <ele>1941</ele>
        <time>2022-05-28T11:23:44.000Z</time>
      </trkpt>
      <trkpt lat="44.74159" lon="5.4712">
        <ele>1940.5999755859</ele>
        <time>2022-05-28T11:23:54.000Z</time>
      </trkpt>
      <trkpt lat="44.74158" lon="5.47121">
        <ele>1940.5999755859</ele>
        <time>2022-05-28T11:23:58.000Z</time>
      </trkpt>
      <trkpt lat="44.74159" lon="5.47121">
        <ele>1940.4000244141</ele>
        <time>2022-05-28T11:24:02.000Z</time>
      </trkpt>
      <trkpt lat="44.74158" lon="5.47121">
        <ele>1940.5999755859</ele>
        <time>2022-05-28T11:24:04.000Z</time>
      </trkpt>
      <trkpt lat="44.74159" lon="5.47121">
        <ele>1940.4000244141</ele>
        <time>2022-05-28T11:24:05.000Z</time>
      </trkpt>
      <trkpt lat="44.74153" lon="5.47128">
        <ele>1939</ele>
        <time>2022-05-28T11:24:17.000Z</time>
      </trkpt>
      <trkpt lat="44.74152" lon="5.47129">
        <ele>1938.5999755859</ele>
        <time>2022-05-28T11:24:18.000Z</time>
      </trkpt>
      <trkpt lat="44.74147" lon="5.47129">
        <ele>1938.1999511719</ele>
        <time>2022-05-28T11:24:24.000Z</time>
      </trkpt>
      <trkpt lat="44.74144" lon="5.4713">
        <ele>1938</ele>
        <time>2022-05-28T11:24:28.000Z</time>
      </trkpt>
      <trkpt lat="44.74142" lon="5.4713">
        <ele>1938</ele>
        <time>2022-05-28T11:24:30.000Z</time>
      </trkpt>
      <trkpt lat="44.7413" lon="5.47132">
        <ele>1937.5999755859</ele>
        <time>2022-05-28T11:24:40.000Z</time>
      </trkpt>
      <trkpt lat="44.74087" lon="5.4715">
        <ele>1933.1999511719</ele>
        <time>2022-05-28T11:25:20.000Z</time>
      </trkpt>
      <trkpt lat="44.74044" lon="5.47167">
        <ele>1935.8000488281</ele>
        <time>2022-05-28T11:26:00.000Z</time>
      </trkpt>
      <trkpt lat="44.74027" lon="5.47182">
        <ele>1937.1999511719</ele>
        <time>2022-05-28T11:27:06.000Z</time>
      </trkpt>
      <trkpt lat="44.74019" lon="5.47193">
        <ele>1937.8000488281</ele>
        <time>2022-05-28T11:27:20.000Z</time>
      </trkpt>
      <trkpt lat="44.74016" lon="5.47195">
        <ele>1938</ele>
        <time>2022-05-28T11:27:23.000Z</time>
      </trkpt>
      <trkpt lat="44.73979" lon="5.47231">
        <ele>1943.1999511719</ele>
        <time>2022-05-28T11:28:04.000Z</time>
      </trkpt>
      <trkpt lat="44.73954" lon="5.47277">
        <ele>1941</ele>
        <time>2022-05-28T11:28:37.000Z</time>
      </trkpt>
      <trkpt lat="44.73942" lon="5.47299">
        <ele>1943.5999755859</ele>
        <time>2022-05-28T11:28:54.000Z</time>
      </trkpt>
      <trkpt lat="44.73916" lon="5.47351">
        <ele>1945.1999511719</ele>
        <time>2022-05-28T11:29:32.000Z</time>
      </trkpt>
      <trkpt lat="44.73899" lon="5.47379">
        <ele>1945.4000244141</ele>
        <time>2022-05-28T11:29:56.000Z</time>
      </trkpt>
      <trkpt lat="44.73871" lon="5.47427">
        <ele>1943</ele>
        <time>2022-05-28T11:30:32.000Z</time>
      </trkpt>
      <trkpt lat="44.73859" lon="5.47448">
        <ele>1940.5999755859</ele>
        <time>2022-05-28T11:30:47.000Z</time>
      </trkpt>
      <trkpt lat="44.73859" lon="5.47452">
        <ele>1939.8000488281</ele>
        <time>2022-05-28T11:30:50.000Z</time>
      </trkpt>
      <trkpt lat="44.73856" lon="5.4746">
        <ele>1939</ele>
        <time>2022-05-28T11:30:56.000Z</time>
      </trkpt>
      <trkpt lat="44.73855" lon="5.47464">
        <ele>1938</ele>
        <time>2022-05-28T11:30:59.000Z</time>
      </trkpt>
      <trkpt lat="44.73847" lon="5.47478">
        <ele>1937.4000244141</ele>
        <time>2022-05-28T11:31:10.000Z</time>
      </trkpt>
      <trkpt lat="44.73823" lon="5.47521">
        <ele>1935.8000488281</ele>
        <time>2022-05-28T11:31:41.000Z</time>
      </trkpt>
      <trkpt lat="44.7381" lon="5.47545">
        <ele>1934.4000244141</ele>
        <time>2022-05-28T11:31:58.000Z</time>
      </trkpt>
      <trkpt lat="44.73802" lon="5.47555">
        <ele>1934.5999755859</ele>
        <time>2022-05-28T11:32:08.000Z</time>
      </trkpt>
      <trkpt lat="44.73772" lon="5.47602">
        <ele>1931.5999755859</ele>
        <time>2022-05-28T11:32:48.000Z</time>
      </trkpt>
      <trkpt lat="44.73735" lon="5.47641">
        <ele>1927.8000488281</ele>
        <time>2022-05-28T11:33:28.000Z</time>
      </trkpt>
      <trkpt lat="44.73722" lon="5.47668">
        <ele>1924.4000244141</ele>
        <time>2022-05-28T11:33:47.000Z</time>
      </trkpt>
      <trkpt lat="44.73709" lon="5.47683">
        <ele>1924.4000244141</ele>
        <time>2022-05-28T11:34:02.000Z</time>
      </trkpt>
      <trkpt lat="44.73707" lon="5.47685">
        <ele>1924</ele>
        <time>2022-05-28T11:34:04.000Z</time>
      </trkpt>
      <trkpt lat="44.73705" lon="5.4769">
        <ele>1923.4000244141</ele>
        <time>2022-05-28T11:34:08.000Z</time>
      </trkpt>
      <trkpt lat="44.73704" lon="5.4769">
        <ele>1923.4000244141</ele>
        <time>2022-05-28T11:34:09.000Z</time>
      </trkpt>
      <trkpt lat="44.73703" lon="5.47691">
        <ele>1923.4000244141</ele>
        <time>2022-05-28T11:34:10.000Z</time>
      </trkpt>
      <trkpt lat="44.737" lon="5.47695">
        <ele>1923</ele>
        <time>2022-05-28T11:34:13.000Z</time>
      </trkpt>
      <trkpt lat="44.73693" lon="5.47707">
        <ele>1921.8000488281</ele>
        <time>2022-05-28T11:34:34.000Z</time>
      </trkpt>
      <trkpt lat="44.73693" lon="5.47708">
        <ele>1921.5999755859</ele>
        <time>2022-05-28T11:34:42.000Z</time>
      </trkpt>
      <trkpt lat="44.73694" lon="5.47708">
        <ele>1921.5999755859</ele>
        <time>2022-05-28T11:34:50.000Z</time>
      </trkpt>
      <trkpt lat="44.73694" lon="5.47708">
        <ele>1921.5999755859</ele>
        <time>2022-05-28T11:34:55.000Z</time>
      </trkpt>
      <trkpt lat="44.73694" lon="5.47707">
        <ele>1921.5999755859</ele>
        <time>2022-05-28T11:34:58.000Z</time>
      </trkpt>
      <trkpt lat="44.73694" lon="5.47707">
        <ele>1921.5999755859</ele>
        <time>2022-05-28T11:35:03.000Z</time>
      </trkpt>
      <trkpt lat="44.73694" lon="5.47707">
        <ele>1921.5999755859</ele>
        <time>2022-05-28T11:35:08.000Z</time>
      </trkpt>
      <trkpt lat="44.73694" lon="5.47706">
        <ele>1921.8000488281</ele>
        <time>2022-05-28T11:35:13.000Z</time>
      </trkpt>
      <trkpt lat="44.73694" lon="5.47705">
        <ele>1921.8000488281</ele>
        <time>2022-05-28T11:35:21.000Z</time>
      </trkpt>
      <trkpt lat="44.73695" lon="5.47706">
        <ele>1921.8000488281</ele>
        <time>2022-05-28T11:35:31.000Z</time>
      </trkpt>
      <trkpt lat="44.73689" lon="5.47715">
        <ele>1921.1999511719</ele>
        <time>2022-05-28T11:35:42.000Z</time>
      </trkpt>
      <trkpt lat="44.73678" lon="5.47734">
        <ele>1920.1999511719</ele>
        <time>2022-05-28T11:35:57.000Z</time>
      </trkpt>
      <trkpt lat="44.73677" lon="5.47735">
        <ele>1920</ele>
        <time>2022-05-28T11:35:58.000Z</time>
      </trkpt>
      <trkpt lat="44.73677" lon="5.47736">
        <ele>1919.8000488281</ele>
        <time>2022-05-28T11:35:59.000Z</time>
      </trkpt>
      <trkpt lat="44.73676" lon="5.47737">
        <ele>1919.8000488281</ele>
        <time>2022-05-28T11:36:00.000Z</time>
      </trkpt>
      <trkpt lat="44.73666" lon="5.47754">
        <ele>1918</ele>
        <time>2022-05-28T11:36:14.000Z</time>
      </trkpt>
      <trkpt lat="44.73663" lon="5.47757">
        <ele>1917.8000488281</ele>
        <time>2022-05-28T11:36:17.000Z</time>
      </trkpt>
      <trkpt lat="44.73658" lon="5.47763">
        <ele>1917.1999511719</ele>
        <time>2022-05-28T11:36:22.000Z</time>
      </trkpt>
      <trkpt lat="44.73647" lon="5.47777">
        <ele>1916.8000488281</ele>
        <time>2022-05-28T11:36:35.000Z</time>
      </trkpt>
      <trkpt lat="44.73643" lon="5.47784">
        <ele>1916.1999511719</ele>
        <time>2022-05-28T11:36:40.000Z</time>
      </trkpt>
      <trkpt lat="44.73618" lon="5.47838">
        <ele>1910.5999755859</ele>
        <time>2022-05-28T11:37:16.000Z</time>
      </trkpt>
      <trkpt lat="44.73591" lon="5.47888">
        <ele>1906.8000488281</ele>
        <time>2022-05-28T11:37:56.000Z</time>
      </trkpt>
      <trkpt lat="44.73568" lon="5.47921">
        <ele>1909.1999511719</ele>
        <time>2022-05-28T11:38:24.000Z</time>
      </trkpt>
      <trkpt lat="44.73567" lon="5.47922">
        <ele>1909.4000244141</ele>
        <time>2022-05-28T11:38:25.000Z</time>
      </trkpt>
      <trkpt lat="44.73566" lon="5.47923">
        <ele>1909.5999755859</ele>
        <time>2022-05-28T11:38:26.000Z</time>
      </trkpt>
      <trkpt lat="44.73565" lon="5.47924">
        <ele>1909.8000488281</ele>
        <time>2022-05-28T11:38:27.000Z</time>
      </trkpt>
      <trkpt lat="44.73565" lon="5.47924">
        <ele>1909.8000488281</ele>
        <time>2022-05-28T11:38:28.000Z</time>
      </trkpt>
      <trkpt lat="44.73565" lon="5.47925">
        <ele>1909.8000488281</ele>
        <time>2022-05-28T11:38:29.000Z</time>
      </trkpt>
      <trkpt lat="44.73565" lon="5.47925">
        <ele>1910</ele>
        <time>2022-05-28T11:38:30.000Z</time>
      </trkpt>
      <trkpt lat="44.73564" lon="5.47925">
        <ele>1910.1999511719</ele>
        <time>2022-05-28T11:38:31.000Z</time>
      </trkpt>
      <trkpt lat="44.73562" lon="5.47925">
        <ele>1910.5999755859</ele>
        <time>2022-05-28T11:38:35.000Z</time>
      </trkpt>
      <trkpt lat="44.73562" lon="5.47925">
        <ele>1910.8000488281</ele>
        <time>2022-05-28T11:38:36.000Z</time>
      </trkpt>
      <trkpt lat="44.73561" lon="5.47925">
        <ele>1910.8000488281</ele>
        <time>2022-05-28T11:38:39.000Z</time>
      </trkpt>
      <trkpt lat="44.73558" lon="5.47932">
        <ele>1910.8000488281</ele>
        <time>2022-05-28T11:38:56.000Z</time>
      </trkpt>
      <trkpt lat="44.73554" lon="5.47936">
        <ele>1911.1999511719</ele>
        <time>2022-05-28T11:39:01.000Z</time>
      </trkpt>
      <trkpt lat="44.7355" lon="5.47941">
        <ele>1911</ele>
        <time>2022-05-28T11:39:07.000Z</time>
      </trkpt>
      <trkpt lat="44.73538" lon="5.47951">
        <ele>1910.4000244141</ele>
        <time>2022-05-28T11:39:19.000Z</time>
      </trkpt>
      <trkpt lat="44.73511" lon="5.47971">
        <ele>1907.1999511719</ele>
        <time>2022-05-28T11:39:44.000Z</time>
      </trkpt>
      <trkpt lat="44.73488" lon="5.47984">
        <ele>1905.1999511719</ele>
        <time>2022-05-28T11:40:03.000Z</time>
      </trkpt>
      <trkpt lat="44.7347" lon="5.47994">
        <ele>1904.5999755859</ele>
        <time>2022-05-28T11:40:19.000Z</time>
      </trkpt>
      <trkpt lat="44.73426" lon="5.48008">
        <ele>1899</ele>
        <time>2022-05-28T11:40:56.000Z</time>
      </trkpt>
      <trkpt lat="44.73404" lon="5.48013">
        <ele>1897</ele>
        <time>2022-05-28T11:41:16.000Z</time>
      </trkpt>
      <trkpt lat="44.73392" lon="5.48014">
        <ele>1896</ele>
        <time>2022-05-28T11:41:25.000Z</time>
      </trkpt>
      <trkpt lat="44.73388" lon="5.48013">
        <ele>1896</ele>
        <time>2022-05-28T11:41:46.000Z</time>
      </trkpt>
      <trkpt lat="44.73378" lon="5.48014">
        <ele>1895.1999511719</ele>
        <time>2022-05-28T11:42:00.000Z</time>
      </trkpt>
      <trkpt lat="44.73339" lon="5.48017">
        <ele>1892.1999511719</ele>
        <time>2022-05-28T11:42:40.000Z</time>
      </trkpt>
      <trkpt lat="44.73336" lon="5.48017">
        <ele>1892</ele>
        <time>2022-05-28T11:42:42.000Z</time>
      </trkpt>
      <trkpt lat="44.73335" lon="5.48017">
        <ele>1892</ele>
        <time>2022-05-28T11:42:43.000Z</time>
      </trkpt>
      <trkpt lat="44.73331" lon="5.48017">
        <ele>1891.8000488281</ele>
        <time>2022-05-28T11:42:46.000Z</time>
      </trkpt>
      <trkpt lat="44.73321" lon="5.48014">
        <ele>1892</ele>
        <time>2022-05-28T11:42:55.000Z</time>
      </trkpt>
      <trkpt lat="44.73311" lon="5.48013">
        <ele>1891.4000244141</ele>
        <time>2022-05-28T11:43:04.000Z</time>
      </trkpt>
      <trkpt lat="44.73304" lon="5.48012">
        <ele>1891.1999511719</ele>
        <time>2022-05-28T11:43:11.000Z</time>
      </trkpt>
      <trkpt lat="44.7327" lon="5.48005">
        <ele>1889</ele>
        <time>2022-05-28T11:43:42.000Z</time>
      </trkpt>
      <trkpt lat="44.73227" lon="5.47997">
        <ele>1887.4000244141</ele>
        <time>2022-05-28T11:44:20.000Z</time>
      </trkpt>
      <trkpt lat="44.73183" lon="5.47995">
        <ele>1885.5999755859</ele>
        <time>2022-05-28T11:45:01.000Z</time>
      </trkpt>
      <trkpt lat="44.73165" lon="5.4799">
        <ele>1884</ele>
        <time>2022-05-28T11:45:18.000Z</time>
      </trkpt>
      <trkpt lat="44.73164" lon="5.4799">
        <ele>1883.8000488281</ele>
        <time>2022-05-28T11:45:19.000Z</time>
      </trkpt>
      <trkpt lat="44.73162" lon="5.4799">
        <ele>1883.4000244141</ele>
        <time>2022-05-28T11:45:21.000Z</time>
      </trkpt>
      <trkpt lat="44.73155" lon="5.47987">
        <ele>1882.4000244141</ele>
        <time>2022-05-28T11:45:27.000Z</time>
      </trkpt>
      <trkpt lat="44.73143" lon="5.47987">
        <ele>1880.8000488281</ele>
        <time>2022-05-28T11:45:40.000Z</time>
      </trkpt>
      <trkpt lat="44.73134" lon="5.4798">
        <ele>1881.4000244141</ele>
        <time>2022-05-28T11:45:49.000Z</time>
      </trkpt>
      <trkpt lat="44.73119" lon="5.47983">
        <ele>1880.8000488281</ele>
        <time>2022-05-28T11:46:05.000Z</time>
      </trkpt>
      <trkpt lat="44.73117" lon="5.47991">
        <ele>1880.1999511719</ele>
        <time>2022-05-28T11:46:10.000Z</time>
      </trkpt>
      <trkpt lat="44.73114" lon="5.48015">
        <ele>1877</ele>
        <time>2022-05-28T11:46:25.000Z</time>
      </trkpt>
      <trkpt lat="44.73113" lon="5.48022">
        <ele>1876</ele>
        <time>2022-05-28T11:46:29.000Z</time>
      </trkpt>
      <trkpt lat="44.73112" lon="5.48028">
        <ele>1875.1999511719</ele>
        <time>2022-05-28T11:46:32.000Z</time>
      </trkpt>
      <trkpt lat="44.73112" lon="5.48033">
        <ele>1874</ele>
        <time>2022-05-28T11:46:35.000Z</time>
      </trkpt>
      <trkpt lat="44.73111" lon="5.48043">
        <ele>1871.5999755859</ele>
        <time>2022-05-28T11:46:41.000Z</time>
      </trkpt>
      <trkpt lat="44.73105" lon="5.48066">
        <ele>1869</ele>
        <time>2022-05-28T11:46:58.000Z</time>
      </trkpt>
      <trkpt lat="44.73084" lon="5.48121">
        <ele>1865.5999755859</ele>
        <time>2022-05-28T11:47:37.000Z</time>
      </trkpt>
      <trkpt lat="44.73074" lon="5.48131">
        <ele>1864.1999511719</ele>
        <time>2022-05-28T11:47:47.000Z</time>
      </trkpt>
      <trkpt lat="44.73042" lon="5.48171">
        <ele>1857</ele>
        <time>2022-05-28T11:48:28.000Z</time>
      </trkpt>
      <trkpt lat="44.73039" lon="5.48178">
        <ele>1856</ele>
        <time>2022-05-28T11:48:57.000Z</time>
      </trkpt>
      <trkpt lat="44.73039" lon="5.4818">
        <ele>1855.5999755859</ele>
        <time>2022-05-28T11:49:19.000Z</time>
      </trkpt>
      <trkpt lat="44.73035" lon="5.48184">
        <ele>1855.4000244141</ele>
        <time>2022-05-28T11:49:29.000Z</time>
      </trkpt>
      <trkpt lat="44.7303" lon="5.4819">
        <ele>1854.5999755859</ele>
        <time>2022-05-28T11:49:35.000Z</time>
      </trkpt>
      <trkpt lat="44.73019" lon="5.48203">
        <ele>1851.5999755859</ele>
        <time>2022-05-28T11:49:47.000Z</time>
      </trkpt>
      <trkpt lat="44.73012" lon="5.48209">
        <ele>1850</ele>
        <time>2022-05-28T11:49:54.000Z</time>
      </trkpt>
      <trkpt lat="44.73009" lon="5.48211">
        <ele>1849.4000244141</ele>
        <time>2022-05-28T11:49:58.000Z</time>
      </trkpt>
      <trkpt lat="44.72994" lon="5.48226">
        <ele>1845.4000244141</ele>
        <time>2022-05-28T11:50:14.000Z</time>
      </trkpt>
      <trkpt lat="44.72991" lon="5.48231">
        <ele>1844.1999511719</ele>
        <time>2022-05-28T11:50:19.000Z</time>
      </trkpt>
      <trkpt lat="44.72987" lon="5.48234">
        <ele>1843</ele>
        <time>2022-05-28T11:50:24.000Z</time>
      </trkpt>
      <trkpt lat="44.72967" lon="5.48258">
        <ele>1834.8000488281</ele>
        <time>2022-05-28T11:50:51.000Z</time>
      </trkpt>
      <trkpt lat="44.72965" lon="5.48261">
        <ele>1833.8000488281</ele>
        <time>2022-05-28T11:50:54.000Z</time>
      </trkpt>
      <trkpt lat="44.72963" lon="5.48261">
        <ele>1833.5999755859</ele>
        <time>2022-05-28T11:50:55.000Z</time>
      </trkpt>
      <trkpt lat="44.72962" lon="5.48262">
        <ele>1833.1999511719</ele>
        <time>2022-05-28T11:50:56.000Z</time>
      </trkpt>
      <trkpt lat="44.72961" lon="5.48262">
        <ele>1833</ele>
        <time>2022-05-28T11:50:57.000Z</time>
      </trkpt>
      <trkpt lat="44.7296" lon="5.48263">
        <ele>1832.5999755859</ele>
        <time>2022-05-28T11:50:58.000Z</time>
      </trkpt>
      <trkpt lat="44.72957" lon="5.48266">
        <ele>1831.5999755859</ele>
        <time>2022-05-28T11:51:01.000Z</time>
      </trkpt>
      <trkpt lat="44.72951" lon="5.48268">
        <ele>1830.8000488281</ele>
        <time>2022-05-28T11:51:06.000Z</time>
      </trkpt>
      <trkpt lat="44.72949" lon="5.48269">
        <ele>1830</ele>
        <time>2022-05-28T11:51:08.000Z</time>
      </trkpt>
      <trkpt lat="44.72922" lon="5.48288">
        <ele>1820</ele>
        <time>2022-05-28T11:51:37.000Z</time>
      </trkpt>
      <trkpt lat="44.72917" lon="5.48292">
        <ele>1816.8000488281</ele>
        <time>2022-05-28T11:51:46.000Z</time>
      </trkpt>
      <trkpt lat="44.72915" lon="5.48292">
        <ele>1816.1999511719</ele>
        <time>2022-05-28T11:51:59.000Z</time>
      </trkpt>
      <trkpt lat="44.72915" lon="5.48291">
        <ele>1816.1999511719</ele>
        <time>2022-05-28T11:52:02.000Z</time>
      </trkpt>
      <trkpt lat="44.72915" lon="5.48291">
        <ele>1816.4000244141</ele>
        <time>2022-05-28T11:52:04.000Z</time>
      </trkpt>
      <trkpt lat="44.72915" lon="5.48291">
        <ele>1816.5999755859</ele>
        <time>2022-05-28T11:52:07.000Z</time>
      </trkpt>
      <trkpt lat="44.72915" lon="5.48291">
        <ele>1816.5999755859</ele>
        <time>2022-05-28T11:52:09.000Z</time>
      </trkpt>
      <trkpt lat="44.72915" lon="5.4829">
        <ele>1816.5999755859</ele>
        <time>2022-05-28T11:52:10.000Z</time>
      </trkpt>
      <trkpt lat="44.72915" lon="5.4829">
        <ele>1816.8000488281</ele>
        <time>2022-05-28T11:52:12.000Z</time>
      </trkpt>
      <trkpt lat="44.72915" lon="5.4829">
        <ele>1816.4000244141</ele>
        <time>2022-05-28T11:52:14.000Z</time>
      </trkpt>
      <trkpt lat="44.72908" lon="5.4829">
        <ele>1813.8000488281</ele>
        <time>2022-05-28T11:52:23.000Z</time>
      </trkpt>
      <trkpt lat="44.72901" lon="5.48292">
        <ele>1812.1999511719</ele>
        <time>2022-05-28T11:52:29.000Z</time>
      </trkpt>
      <trkpt lat="44.72878" lon="5.4829">
        <ele>1803.8000488281</ele>
        <time>2022-05-28T11:52:48.000Z</time>
      </trkpt>
      <trkpt lat="44.72874" lon="5.48295">
        <ele>1803</ele>
        <time>2022-05-28T11:53:05.000Z</time>
      </trkpt>
      <trkpt lat="44.72851" lon="5.48313">
        <ele>1797.4000244141</ele>
        <time>2022-05-28T11:53:59.000Z</time>
      </trkpt>
      <trkpt lat="44.72845" lon="5.48314">
        <ele>1796.1999511719</ele>
        <time>2022-05-28T11:54:08.000Z</time>
      </trkpt>
      <trkpt lat="44.72838" lon="5.48323">
        <ele>1795.8000488281</ele>
        <time>2022-05-28T11:54:18.000Z</time>
      </trkpt>
      <trkpt lat="44.72835" lon="5.48329">
        <ele>1795.8000488281</ele>
        <time>2022-05-28T11:54:23.000Z</time>
      </trkpt>
      <trkpt lat="44.72821" lon="5.48341">
        <ele>1793.4000244141</ele>
        <time>2022-05-28T11:54:41.000Z</time>
      </trkpt>
      <trkpt lat="44.72804" lon="5.48351">
        <ele>1790.4000244141</ele>
        <time>2022-05-28T11:54:58.000Z</time>
      </trkpt>
      <trkpt lat="44.72795" lon="5.48356">
        <ele>1789</ele>
        <time>2022-05-28T11:55:06.000Z</time>
      </trkpt>
      <trkpt lat="44.7278" lon="5.48367">
        <ele>1785.1999511719</ele>
        <time>2022-05-28T11:55:22.000Z</time>
      </trkpt>
      <trkpt lat="44.72772" lon="5.48374">
        <ele>1782.4000244141</ele>
        <time>2022-05-28T11:55:33.000Z</time>
      </trkpt>
      <trkpt lat="44.72765" lon="5.48392">
        <ele>1780</ele>
        <time>2022-05-28T11:55:44.000Z</time>
      </trkpt>
      <trkpt lat="44.72763" lon="5.48398">
        <ele>1778.4000244141</ele>
        <time>2022-05-28T11:55:48.000Z</time>
      </trkpt>
      <trkpt lat="44.72762" lon="5.48402">
        <ele>1778</ele>
        <time>2022-05-28T11:55:50.000Z</time>
      </trkpt>
      <trkpt lat="44.72731" lon="5.4843">
        <ele>1770.8000488281</ele>
        <time>2022-05-28T11:56:09.000Z</time>
      </trkpt>
      <trkpt lat="44.72725" lon="5.48431">
        <ele>1769.8000488281</ele>
        <time>2022-05-28T11:56:13.000Z</time>
      </trkpt>
      <trkpt lat="44.72725" lon="5.48431">
        <ele>1769.8000488281</ele>
        <time>2022-05-28T11:56:14.000Z</time>
      </trkpt>
      <trkpt lat="44.72724" lon="5.48431">
        <ele>1769.5999755859</ele>
        <time>2022-05-28T11:56:15.000Z</time>
      </trkpt>
      <trkpt lat="44.72722" lon="5.48432">
        <ele>1769.1999511719</ele>
        <time>2022-05-28T11:56:17.000Z</time>
      </trkpt>
      <trkpt lat="44.72722" lon="5.48434">
        <ele>1768.8000488281</ele>
        <time>2022-05-28T11:56:19.000Z</time>
      </trkpt>
      <trkpt lat="44.7272" lon="5.48435">
        <ele>1768.4000244141</ele>
        <time>2022-05-28T11:56:21.000Z</time>
      </trkpt>
      <trkpt lat="44.72719" lon="5.48437">
        <ele>1768.1999511719</ele>
        <time>2022-05-28T11:56:23.000Z</time>
      </trkpt>
      <trkpt lat="44.72719" lon="5.48439">
        <ele>1768</ele>
        <time>2022-05-28T11:56:25.000Z</time>
      </trkpt>
      <trkpt lat="44.72718" lon="5.48435">
        <ele>1768.1999511719</ele>
        <time>2022-05-28T11:56:30.000Z</time>
      </trkpt>
      <trkpt lat="44.72717" lon="5.48438">
        <ele>1767.8000488281</ele>
        <time>2022-05-28T11:56:35.000Z</time>
      </trkpt>
      <trkpt lat="44.72717" lon="5.48439">
        <ele>1767.5999755859</ele>
        <time>2022-05-28T11:56:36.000Z</time>
      </trkpt>
      <trkpt lat="44.72715" lon="5.48439">
        <ele>1767.4000244141</ele>
        <time>2022-05-28T11:56:37.000Z</time>
      </trkpt>
      <trkpt lat="44.72714" lon="5.4844">
        <ele>1767.1999511719</ele>
        <time>2022-05-28T11:56:38.000Z</time>
      </trkpt>
      <trkpt lat="44.72712" lon="5.48442">
        <ele>1766.8000488281</ele>
        <time>2022-05-28T11:56:40.000Z</time>
      </trkpt>
      <trkpt lat="44.72702" lon="5.48455">
        <ele>1765</ele>
        <time>2022-05-28T11:56:50.000Z</time>
      </trkpt>
      <trkpt lat="44.72699" lon="5.48463">
        <ele>1764.8000488281</ele>
        <time>2022-05-28T11:56:55.000Z</time>
      </trkpt>
      <trkpt lat="44.72696" lon="5.48474">
        <ele>1764.8000488281</ele>
        <time>2022-05-28T11:57:01.000Z</time>
      </trkpt>
      <trkpt lat="44.72693" lon="5.48481">
        <ele>1764.4000244141</ele>
        <time>2022-05-28T11:57:06.000Z</time>
      </trkpt>
      <trkpt lat="44.72689" lon="5.48497">
        <ele>1765</ele>
        <time>2022-05-28T11:57:15.000Z</time>
      </trkpt>
      <trkpt lat="44.7269" lon="5.48509">
        <ele>1765.1999511719</ele>
        <time>2022-05-28T11:57:28.000Z</time>
      </trkpt>
      <trkpt lat="44.72688" lon="5.48509">
        <ele>1765.4000244141</ele>
        <time>2022-05-28T11:57:42.000Z</time>
      </trkpt>
      <trkpt lat="44.72689" lon="5.48515">
        <ele>1765.1999511719</ele>
        <time>2022-05-28T11:57:48.000Z</time>
      </trkpt>
      <trkpt lat="44.72689" lon="5.48525">
        <ele>1764.8000488281</ele>
        <time>2022-05-28T11:57:54.000Z</time>
      </trkpt>
      <trkpt lat="44.7269" lon="5.48534">
        <ele>1764.4000244141</ele>
        <time>2022-05-28T11:57:59.000Z</time>
      </trkpt>
      <trkpt lat="44.72696" lon="5.48598">
        <ele>1756.8000488281</ele>
        <time>2022-05-28T11:58:38.000Z</time>
      </trkpt>
      <trkpt lat="44.72697" lon="5.48663">
        <ele>1755.1999511719</ele>
        <time>2022-05-28T11:59:14.000Z</time>
      </trkpt>
      <trkpt lat="44.72698" lon="5.48677">
        <ele>1754.8000488281</ele>
        <time>2022-05-28T11:59:21.000Z</time>
      </trkpt>
      <trkpt lat="44.72703" lon="5.48741">
        <ele>1757.1999511719</ele>
        <time>2022-05-28T11:59:57.000Z</time>
      </trkpt>
      <trkpt lat="44.72707" lon="5.48758">
        <ele>1758.8000488281</ele>
        <time>2022-05-28T12:00:07.000Z</time>
      </trkpt>
      <trkpt lat="44.72708" lon="5.48777">
        <ele>1760.5999755859</ele>
        <time>2022-05-28T12:00:17.000Z</time>
      </trkpt>
      <trkpt lat="44.72706" lon="5.48825">
        <ele>1762.8000488281</ele>
        <time>2022-05-28T12:00:46.000Z</time>
      </trkpt>
      <trkpt lat="44.72706" lon="5.48844">
        <ele>1761.8000488281</ele>
        <time>2022-05-28T12:00:57.000Z</time>
      </trkpt>
      <trkpt lat="44.72721" lon="5.48901">
        <ele>1758.4000244141</ele>
        <time>2022-05-28T12:01:34.000Z</time>
      </trkpt>
      <trkpt lat="44.72711" lon="5.48963">
        <ele>1762.1999511719</ele>
        <time>2022-05-28T12:02:16.000Z</time>
      </trkpt>
      <trkpt lat="44.72732" lon="5.49008">
        <ele>1764.5999755859</ele>
        <time>2022-05-28T12:02:51.000Z</time>
      </trkpt>
      <trkpt lat="44.72761" lon="5.49018">
        <ele>1765.5999755859</ele>
        <time>2022-05-28T12:03:17.000Z</time>
      </trkpt>
      <trkpt lat="44.72765" lon="5.49021">
        <ele>1766.1999511719</ele>
        <time>2022-05-28T12:03:58.000Z</time>
      </trkpt>
      <trkpt lat="44.72767" lon="5.49017">
        <ele>1766</ele>
        <time>2022-05-28T12:04:09.000Z</time>
      </trkpt>
      <trkpt lat="44.72777" lon="5.48989">
        <ele>1765.4000244141</ele>
        <time>2022-05-28T12:04:28.000Z</time>
      </trkpt>
      <trkpt lat="44.72776" lon="5.4899">
        <ele>1765.4000244141</ele>
        <time>2022-05-28T12:04:29.000Z</time>
      </trkpt>
      <trkpt lat="44.72771" lon="5.49009">
        <ele>1766</ele>
        <time>2022-05-28T12:04:42.000Z</time>
      </trkpt>
      <trkpt lat="44.72766" lon="5.4902">
        <ele>1766.1999511719</ele>
        <time>2022-05-28T12:04:55.000Z</time>
      </trkpt>
      <trkpt lat="44.72768" lon="5.49019">
        <ele>1766.1999511719</ele>
        <time>2022-05-28T12:05:06.000Z</time>
      </trkpt>
      <trkpt lat="44.72739" lon="5.49008">
        <ele>1764.5999755859</ele>
        <time>2022-05-28T14:17:03.000Z</time>
      </trkpt>
      <trkpt lat="44.72724" lon="5.49003">
        <ele>1764.5999755859</ele>
        <time>2022-05-28T14:17:22.000Z</time>
      </trkpt>
      <trkpt lat="44.72713" lon="5.48995">
        <ele>1765</ele>
        <time>2022-05-28T14:17:37.000Z</time>
      </trkpt>
      <trkpt lat="44.72708" lon="5.48991">
        <ele>1765.1999511719</ele>
        <time>2022-05-28T14:17:44.000Z</time>
      </trkpt>
      <trkpt lat="44.72704" lon="5.4899">
        <ele>1765.4000244141</ele>
        <time>2022-05-28T14:17:50.000Z</time>
      </trkpt>
      <trkpt lat="44.72703" lon="5.48988">
        <ele>1765.4000244141</ele>
        <time>2022-05-28T14:17:52.000Z</time>
      </trkpt>
      <trkpt lat="44.72701" lon="5.48987">
        <ele>1765.5999755859</ele>
        <time>2022-05-28T14:17:55.000Z</time>
      </trkpt>
      <trkpt lat="44.727" lon="5.48987">
        <ele>1765.5999755859</ele>
        <time>2022-05-28T14:17:56.000Z</time>
      </trkpt>
      <trkpt lat="44.72699" lon="5.48986">
        <ele>1765.5999755859</ele>
        <time>2022-05-28T14:17:57.000Z</time>
      </trkpt>
      <trkpt lat="44.72696" lon="5.48986">
        <ele>1765.4000244141</ele>
        <time>2022-05-28T14:18:00.000Z</time>
      </trkpt>
      <trkpt lat="44.72692" lon="5.48985">
        <ele>1765.4000244141</ele>
        <time>2022-05-28T14:18:04.000Z</time>
      </trkpt>
      <trkpt lat="44.72691" lon="5.48985">
        <ele>1765.4000244141</ele>
        <time>2022-05-28T14:18:05.000Z</time>
      </trkpt>
      <trkpt lat="44.72689" lon="5.48985">
        <ele>1765.4000244141</ele>
        <time>2022-05-28T14:18:07.000Z</time>
      </trkpt>
      <trkpt lat="44.72673" lon="5.48988">
        <ele>1766.1999511719</ele>
        <time>2022-05-28T14:18:23.000Z</time>
      </trkpt>
      <trkpt lat="44.72664" lon="5.48986">
        <ele>1765.5999755859</ele>
        <time>2022-05-28T14:18:31.000Z</time>
      </trkpt>
      <trkpt lat="44.7266" lon="5.48985">
        <ele>1765.5999755859</ele>
        <time>2022-05-28T14:18:36.000Z</time>
      </trkpt>
      <trkpt lat="44.72653" lon="5.48984">
        <ele>1765.4000244141</ele>
        <time>2022-05-28T14:18:43.000Z</time>
      </trkpt>
      <trkpt lat="44.72648" lon="5.48983">
        <ele>1765.1999511719</ele>
        <time>2022-05-28T14:18:48.000Z</time>
      </trkpt>
      <trkpt lat="44.72645" lon="5.48983">
        <ele>1765.1999511719</ele>
        <time>2022-05-28T14:18:51.000Z</time>
      </trkpt>
      <trkpt lat="44.72639" lon="5.48983">
        <ele>1764.8000488281</ele>
        <time>2022-05-28T14:18:57.000Z</time>
      </trkpt>
      <trkpt lat="44.72628" lon="5.48983">
        <ele>1764</ele>
        <time>2022-05-28T14:19:10.000Z</time>
      </trkpt>
      <trkpt lat="44.7262" lon="5.48981">
        <ele>1763.4000244141</ele>
        <time>2022-05-28T14:19:19.000Z</time>
      </trkpt>
      <trkpt lat="44.72606" lon="5.4898">
        <ele>1762.8000488281</ele>
        <time>2022-05-28T14:19:33.000Z</time>
      </trkpt>
      <trkpt lat="44.72603" lon="5.4898">
        <ele>1762.8000488281</ele>
        <time>2022-05-28T14:19:35.000Z</time>
      </trkpt>
      <trkpt lat="44.72598" lon="5.48982">
        <ele>1762.5999755859</ele>
        <time>2022-05-28T14:19:41.000Z</time>
      </trkpt>
      <trkpt lat="44.7259" lon="5.48996">
        <ele>1763.5999755859</ele>
        <time>2022-05-28T14:19:56.000Z</time>
      </trkpt>
      <trkpt lat="44.72591" lon="5.4902">
        <ele>1764.8000488281</ele>
        <time>2022-05-28T14:20:11.000Z</time>
      </trkpt>
      <trkpt lat="44.72593" lon="5.49033">
        <ele>1765.8000488281</ele>
        <time>2022-05-28T14:20:20.000Z</time>
      </trkpt>
      <trkpt lat="44.72593" lon="5.49035">
        <ele>1766</ele>
        <time>2022-05-28T14:20:21.000Z</time>
      </trkpt>
      <trkpt lat="44.72593" lon="5.49037">
        <ele>1766.1999511719</ele>
        <time>2022-05-28T14:20:24.000Z</time>
      </trkpt>
      <trkpt lat="44.72592" lon="5.49038">
        <ele>1766.1999511719</ele>
        <time>2022-05-28T14:20:28.000Z</time>
      </trkpt>
      <trkpt lat="44.72588" lon="5.49041">
        <ele>1766.4000244141</ele>
        <time>2022-05-28T14:20:43.000Z</time>
      </trkpt>
      <trkpt lat="44.72588" lon="5.49044">
        <ele>1766.8000488281</ele>
        <time>2022-05-28T14:21:09.000Z</time>
      </trkpt>
      <trkpt lat="44.72588" lon="5.49045">
        <ele>1766.8000488281</ele>
        <time>2022-05-28T14:21:35.000Z</time>
      </trkpt>
      <trkpt lat="44.72588" lon="5.49046">
        <ele>1767</ele>
        <time>2022-05-28T14:21:36.000Z</time>
      </trkpt>
      <trkpt lat="44.72589" lon="5.49048">
        <ele>1767.1999511719</ele>
        <time>2022-05-28T14:21:45.000Z</time>
      </trkpt>
      <trkpt lat="44.72589" lon="5.49047">
        <ele>1767.1999511719</ele>
        <time>2022-05-28T14:22:25.000Z</time>
      </trkpt>
      <trkpt lat="44.7259" lon="5.49047">
        <ele>1767.1999511719</ele>
        <time>2022-05-28T14:22:46.000Z</time>
      </trkpt>
      <trkpt lat="44.72588" lon="5.49049">
        <ele>1767.4000244141</ele>
        <time>2022-05-28T14:23:08.000Z</time>
      </trkpt>
      <trkpt lat="44.72588" lon="5.49049">
        <ele>1767.1999511719</ele>
        <time>2022-05-28T14:23:11.000Z</time>
      </trkpt>
      <trkpt lat="44.72588" lon="5.49049">
        <ele>1767.1999511719</ele>
        <time>2022-05-28T14:23:18.000Z</time>
      </trkpt>
      <trkpt lat="44.7259" lon="5.49049">
        <ele>1767.4000244141</ele>
        <time>2022-05-28T14:23:50.000Z</time>
      </trkpt>
      <trkpt lat="44.72589" lon="5.4905">
        <ele>1767.4000244141</ele>
        <time>2022-05-28T14:23:56.000Z</time>
      </trkpt>
      <trkpt lat="44.72589" lon="5.4905">
        <ele>1767.4000244141</ele>
        <time>2022-05-28T14:24:01.000Z</time>
      </trkpt>
      <trkpt lat="44.72589" lon="5.4905">
        <ele>1767.4000244141</ele>
        <time>2022-05-28T14:24:03.000Z</time>
      </trkpt>
      <trkpt lat="44.72589" lon="5.4905">
        <ele>1767.4000244141</ele>
        <time>2022-05-28T14:24:19.000Z</time>
      </trkpt>
      <trkpt lat="44.72589" lon="5.4905">
        <ele>1767.4000244141</ele>
        <time>2022-05-28T14:24:22.000Z</time>
      </trkpt>
      <trkpt lat="44.72589" lon="5.4905">
        <ele>1767.4000244141</ele>
        <time>2022-05-28T14:25:01.000Z</time>
      </trkpt>
      <trkpt lat="44.72589" lon="5.49049">
        <ele>1767.4000244141</ele>
        <time>2022-05-28T14:25:03.000Z</time>
      </trkpt>
      <trkpt lat="44.72589" lon="5.49049">
        <ele>1767.1999511719</ele>
        <time>2022-05-28T14:25:09.000Z</time>
      </trkpt>
      <trkpt lat="44.72589" lon="5.49049">
        <ele>1767.1999511719</ele>
        <time>2022-05-28T14:25:13.000Z</time>
      </trkpt>
      <trkpt lat="44.72589" lon="5.49049">
        <ele>1767.4000244141</ele>
        <time>2022-05-28T14:25:19.000Z</time>
      </trkpt>
      <trkpt lat="44.72589" lon="5.49049">
        <ele>1767.4000244141</ele>
        <time>2022-05-28T14:25:20.000Z</time>
      </trkpt>
      <trkpt lat="44.72589" lon="5.49049">
        <ele>1767.4000244141</ele>
        <time>2022-05-28T14:25:22.000Z</time>
      </trkpt>
      <trkpt lat="44.72589" lon="5.49049">
        <ele>1767.4000244141</ele>
        <time>2022-05-28T14:25:25.000Z</time>
      </trkpt>
      <trkpt lat="44.7259" lon="5.49049">
        <ele>1767.4000244141</ele>
        <time>2022-05-28T14:25:35.000Z</time>
      </trkpt>
      <trkpt lat="44.7259" lon="5.49049">
        <ele>1767.4000244141</ele>
        <time>2022-05-28T14:25:42.000Z</time>
      </trkpt>
      <trkpt lat="44.7259" lon="5.49049">
        <ele>1767.4000244141</ele>
        <time>2022-05-28T14:25:44.000Z</time>
      </trkpt>
      <trkpt lat="44.7259" lon="5.49049">
        <ele>1767.4000244141</ele>
        <time>2022-05-28T14:25:45.000Z</time>
      </trkpt>
      <trkpt lat="44.7259" lon="5.49049">
        <ele>1767.4000244141</ele>
        <time>2022-05-28T14:25:46.000Z</time>
      </trkpt>
      <trkpt lat="44.7259" lon="5.49049">
        <ele>1767.1999511719</ele>
        <time>2022-05-28T14:25:47.000Z</time>
      </trkpt>
      <trkpt lat="44.72591" lon="5.49048">
        <ele>1767.1999511719</ele>
        <time>2022-05-28T14:25:50.000Z</time>
      </trkpt>
      <trkpt lat="44.72591" lon="5.49048">
        <ele>1767.1999511719</ele>
        <time>2022-05-28T14:25:51.000Z</time>
      </trkpt>
      <trkpt lat="44.72591" lon="5.49047">
        <ele>1767.1999511719</ele>
        <time>2022-05-28T14:25:52.000Z</time>
      </trkpt>
      <trkpt lat="44.72591" lon="5.49047">
        <ele>1767.1999511719</ele>
        <time>2022-05-28T14:25:53.000Z</time>
      </trkpt>
      <trkpt lat="44.72593" lon="5.49044">
        <ele>1767</ele>
        <time>2022-05-28T14:25:59.000Z</time>
      </trkpt>
      <trkpt lat="44.72594" lon="5.49041">
        <ele>1766.8000488281</ele>
        <time>2022-05-28T14:26:02.000Z</time>
      </trkpt>
      <trkpt lat="44.72603" lon="5.49042">
        <ele>1767.5999755859</ele>
        <time>2022-05-28T14:26:47.000Z</time>
      </trkpt>
      <trkpt lat="44.72598" lon="5.49041">
        <ele>1767</ele>
        <time>2022-05-28T14:26:58.000Z</time>
      </trkpt>
      <trkpt lat="44.72591" lon="5.49043">
        <ele>1766.8000488281</ele>
        <time>2022-05-28T14:27:08.000Z</time>
      </trkpt>
      <trkpt lat="44.7259" lon="5.49042">
        <ele>1766.5999755859</ele>
        <time>2022-05-28T14:27:18.000Z</time>
      </trkpt>
      <trkpt lat="44.7259" lon="5.49041">
        <ele>1766.5999755859</ele>
        <time>2022-05-28T14:27:27.000Z</time>
      </trkpt>
      <trkpt lat="44.72589" lon="5.49037">
        <ele>1766</ele>
        <time>2022-05-28T14:27:33.000Z</time>
      </trkpt>
      <trkpt lat="44.72587" lon="5.49031">
        <ele>1765.1999511719</ele>
        <time>2022-05-28T14:27:39.000Z</time>
      </trkpt>
      <trkpt lat="44.72579" lon="5.49023">
        <ele>1764.4000244141</ele>
        <time>2022-05-28T14:27:48.000Z</time>
      </trkpt>
      <trkpt lat="44.72577" lon="5.49021">
        <ele>1764.4000244141</ele>
        <time>2022-05-28T14:27:51.000Z</time>
      </trkpt>
      <trkpt lat="44.72574" lon="5.49019">
        <ele>1764.1999511719</ele>
        <time>2022-05-28T14:27:54.000Z</time>
      </trkpt>
      <trkpt lat="44.72567" lon="5.49013">
        <ele>1763.5999755859</ele>
        <time>2022-05-28T14:28:01.000Z</time>
      </trkpt>
      <trkpt lat="44.72563" lon="5.49009">
        <ele>1763.4000244141</ele>
        <time>2022-05-28T14:28:06.000Z</time>
      </trkpt>
      <trkpt lat="44.72557" lon="5.49004">
        <ele>1763.5999755859</ele>
        <time>2022-05-28T14:28:12.000Z</time>
      </trkpt>
      <trkpt lat="44.72556" lon="5.49003">
        <ele>1763.8000488281</ele>
        <time>2022-05-28T14:28:13.000Z</time>
      </trkpt>
      <trkpt lat="44.72555" lon="5.49002">
        <ele>1763.8000488281</ele>
        <time>2022-05-28T14:28:15.000Z</time>
      </trkpt>
      <trkpt lat="44.72554" lon="5.49001">
        <ele>1763.8000488281</ele>
        <time>2022-05-28T14:28:27.000Z</time>
      </trkpt>
      <trkpt lat="44.72553" lon="5.48997">
        <ele>1764</ele>
        <time>2022-05-28T14:28:32.000Z</time>
      </trkpt>
      <trkpt lat="44.7255" lon="5.48993">
        <ele>1764</ele>
        <time>2022-05-28T14:28:43.000Z</time>
      </trkpt>
      <trkpt lat="44.72547" lon="5.48984">
        <ele>1764</ele>
        <time>2022-05-28T14:29:24.000Z</time>
      </trkpt>
      <trkpt lat="44.72547" lon="5.48984">
        <ele>1764</ele>
        <time>2022-05-28T14:29:42.000Z</time>
      </trkpt>
      <trkpt lat="44.72547" lon="5.48984">
        <ele>1764</ele>
        <time>2022-05-28T14:29:46.000Z</time>
      </trkpt>
      <trkpt lat="44.72547" lon="5.48984">
        <ele>1764</ele>
        <time>2022-05-28T14:29:47.000Z</time>
      </trkpt>
      <trkpt lat="44.72547" lon="5.48984">
        <ele>1764</ele>
        <time>2022-05-28T14:29:53.000Z</time>
      </trkpt>
      <trkpt lat="44.72548" lon="5.48984">
        <ele>1764</ele>
        <time>2022-05-28T14:30:21.000Z</time>
      </trkpt>
      <trkpt lat="44.72548" lon="5.48984">
        <ele>1764</ele>
        <time>2022-05-28T14:30:23.000Z</time>
      </trkpt>
      <trkpt lat="44.72548" lon="5.48984">
        <ele>1764</ele>
        <time>2022-05-28T14:30:26.000Z</time>
      </trkpt>
      <trkpt lat="44.72548" lon="5.48984">
        <ele>1764</ele>
        <time>2022-05-28T14:30:33.000Z</time>
      </trkpt>
      <trkpt lat="44.72548" lon="5.48984">
        <ele>1764</ele>
        <time>2022-05-28T14:30:37.000Z</time>
      </trkpt>
      <trkpt lat="44.72548" lon="5.48984">
        <ele>1764</ele>
        <time>2022-05-28T14:30:40.000Z</time>
      </trkpt>
      <trkpt lat="44.72548" lon="5.48984">
        <ele>1764</ele>
        <time>2022-05-28T14:30:42.000Z</time>
      </trkpt>
      <trkpt lat="44.72548" lon="5.48984">
        <ele>1764</ele>
        <time>2022-05-28T14:30:44.000Z</time>
      </trkpt>
      <trkpt lat="44.72548" lon="5.48985">
        <ele>1764</ele>
        <time>2022-05-28T14:30:48.000Z</time>
      </trkpt>
      <trkpt lat="44.72547" lon="5.48984">
        <ele>1764</ele>
        <time>2022-05-28T14:30:54.000Z</time>
      </trkpt>
      <trkpt lat="44.72542" lon="5.48985">
        <ele>1764.5999755859</ele>
        <time>2022-05-28T14:31:00.000Z</time>
      </trkpt>
      <trkpt lat="44.72539" lon="5.48985">
        <ele>1765</ele>
        <time>2022-05-28T14:31:03.000Z</time>
      </trkpt>
      <trkpt lat="44.72494" lon="5.48989">
        <ele>1772.4000244141</ele>
        <time>2022-05-28T14:31:51.000Z</time>
      </trkpt>
      <trkpt lat="44.72488" lon="5.48989">
        <ele>1773</ele>
        <time>2022-05-28T14:31:57.000Z</time>
      </trkpt>
      <trkpt lat="44.72444" lon="5.48986">
        <ele>1775.8000488281</ele>
        <time>2022-05-28T14:32:44.000Z</time>
      </trkpt>
      <trkpt lat="44.72431" lon="5.48973">
        <ele>1776.5999755859</ele>
        <time>2022-05-28T14:33:04.000Z</time>
      </trkpt>
      <trkpt lat="44.72394" lon="5.48937">
        <ele>1781</ele>
        <time>2022-05-28T14:33:49.000Z</time>
      </trkpt>
      <trkpt lat="44.72358" lon="5.48898">
        <ele>1781.4000244141</ele>
        <time>2022-05-28T14:34:39.000Z</time>
      </trkpt>
      <trkpt lat="44.72352" lon="5.48889">
        <ele>1779</ele>
        <time>2022-05-28T14:35:07.000Z</time>
      </trkpt>
      <trkpt lat="44.72353" lon="5.4889">
        <ele>1779.1999511719</ele>
        <time>2022-05-28T14:35:18.000Z</time>
      </trkpt>
      <trkpt lat="44.72353" lon="5.48889">
        <ele>1779</ele>
        <time>2022-05-28T14:35:29.000Z</time>
      </trkpt>
      <trkpt lat="44.72353" lon="5.48889">
        <ele>1779</ele>
        <time>2022-05-28T14:35:39.000Z</time>
      </trkpt>
      <trkpt lat="44.72353" lon="5.48889">
        <ele>1779.1999511719</ele>
        <time>2022-05-28T14:35:46.000Z</time>
      </trkpt>
      <trkpt lat="44.72353" lon="5.48889">
        <ele>1779</ele>
        <time>2022-05-28T14:35:50.000Z</time>
      </trkpt>
      <trkpt lat="44.72353" lon="5.48889">
        <ele>1779</ele>
        <time>2022-05-28T14:36:05.000Z</time>
      </trkpt>
      <trkpt lat="44.72352" lon="5.48888">
        <ele>1778.4000244141</ele>
        <time>2022-05-28T14:36:15.000Z</time>
      </trkpt>
      <trkpt lat="44.72352" lon="5.48887">
        <ele>1778.1999511719</ele>
        <time>2022-05-28T14:37:03.000Z</time>
      </trkpt>
      <trkpt lat="44.72352" lon="5.48887">
        <ele>1778.1999511719</ele>
        <time>2022-05-28T14:37:14.000Z</time>
      </trkpt>
      <trkpt lat="44.72352" lon="5.48887">
        <ele>1778.1999511719</ele>
        <time>2022-05-28T14:37:20.000Z</time>
      </trkpt>
      <trkpt lat="44.72352" lon="5.48886">
        <ele>1778</ele>
        <time>2022-05-28T14:37:23.000Z</time>
      </trkpt>
      <trkpt lat="44.72352" lon="5.48886">
        <ele>1778</ele>
        <time>2022-05-28T14:37:24.000Z</time>
      </trkpt>
      <trkpt lat="44.72351" lon="5.48887">
        <ele>1778</ele>
        <time>2022-05-28T14:37:28.000Z</time>
      </trkpt>
      <trkpt lat="44.72351" lon="5.48887">
        <ele>1778</ele>
        <time>2022-05-28T14:37:31.000Z</time>
      </trkpt>
      <trkpt lat="44.72351" lon="5.48887">
        <ele>1778.1999511719</ele>
        <time>2022-05-28T14:37:34.000Z</time>
      </trkpt>
      <trkpt lat="44.72351" lon="5.48887">
        <ele>1778</ele>
        <time>2022-05-28T14:37:36.000Z</time>
      </trkpt>
      <trkpt lat="44.72353" lon="5.48892">
        <ele>1779.5999755859</ele>
        <time>2022-05-28T14:37:56.000Z</time>
      </trkpt>
      <trkpt lat="44.72355" lon="5.48899">
        <ele>1781.1999511719</ele>
        <time>2022-05-28T14:38:00.000Z</time>
      </trkpt>
      <trkpt lat="44.72355" lon="5.48901">
        <ele>1781.4000244141</ele>
        <time>2022-05-28T14:38:02.000Z</time>
      </trkpt>
      <trkpt lat="44.72355" lon="5.48901">
        <ele>1781.5999755859</ele>
        <time>2022-05-28T14:38:04.000Z</time>
      </trkpt>
      <trkpt lat="44.72355" lon="5.48901">
        <ele>1781.5999755859</ele>
        <time>2022-05-28T14:38:05.000Z</time>
      </trkpt>
      <trkpt lat="44.72358" lon="5.48901">
        <ele>1781.8000488281</ele>
        <time>2022-05-28T14:38:21.000Z</time>
      </trkpt>
      <trkpt lat="44.7236" lon="5.48907">
        <ele>1783.4000244141</ele>
        <time>2022-05-28T14:38:36.000Z</time>
      </trkpt>
      <trkpt lat="44.7236" lon="5.48907">
        <ele>1783.1999511719</ele>
        <time>2022-05-28T14:38:38.000Z</time>
      </trkpt>
      <trkpt lat="44.7236" lon="5.48907">
        <ele>1783.1999511719</ele>
        <time>2022-05-28T14:38:39.000Z</time>
      </trkpt>
      <trkpt lat="44.7236" lon="5.48907">
        <ele>1783.1999511719</ele>
        <time>2022-05-28T14:38:41.000Z</time>
      </trkpt>
      <trkpt lat="44.72359" lon="5.48907">
        <ele>1783</ele>
        <time>2022-05-28T14:38:49.000Z</time>
      </trkpt>
      <trkpt lat="44.72359" lon="5.48907">
        <ele>1783</ele>
        <time>2022-05-28T14:38:53.000Z</time>
      </trkpt>
      <trkpt lat="44.7236" lon="5.48907">
        <ele>1783.1999511719</ele>
        <time>2022-05-28T14:38:57.000Z</time>
      </trkpt>
      <trkpt lat="44.72359" lon="5.48907">
        <ele>1783.1999511719</ele>
        <time>2022-05-28T14:39:01.000Z</time>
      </trkpt>
      <trkpt lat="44.72359" lon="5.48907">
        <ele>1783.1999511719</ele>
        <time>2022-05-28T14:39:07.000Z</time>
      </trkpt>
      <trkpt lat="44.72359" lon="5.48907">
        <ele>1783.1999511719</ele>
        <time>2022-05-28T14:39:12.000Z</time>
      </trkpt>
      <trkpt lat="44.7236" lon="5.48907">
        <ele>1783.1999511719</ele>
        <time>2022-05-28T14:39:19.000Z</time>
      </trkpt>
      <trkpt lat="44.7236" lon="5.48906">
        <ele>1783.1999511719</ele>
        <time>2022-05-28T14:39:25.000Z</time>
      </trkpt>
      <trkpt lat="44.7236" lon="5.48907">
        <ele>1783.1999511719</ele>
        <time>2022-05-28T14:39:34.000Z</time>
      </trkpt>
      <trkpt lat="44.7236" lon="5.48906">
        <ele>1783.1999511719</ele>
        <time>2022-05-28T14:39:56.000Z</time>
      </trkpt>
      <trkpt lat="44.7236" lon="5.48906">
        <ele>1783</ele>
        <time>2022-05-28T14:40:05.000Z</time>
      </trkpt>
      <trkpt lat="44.7236" lon="5.48906">
        <ele>1783.1999511719</ele>
        <time>2022-05-28T14:40:08.000Z</time>
      </trkpt>
      <trkpt lat="44.72358" lon="5.48897">
        <ele>1781.1999511719</ele>
        <time>2022-05-28T14:40:39.000Z</time>
      </trkpt>
      <trkpt lat="44.72352" lon="5.48888">
        <ele>1778.5999755859</ele>
        <time>2022-05-28T14:40:52.000Z</time>
      </trkpt>
      <trkpt lat="44.7235" lon="5.48888">
        <ele>1778.1999511719</ele>
        <time>2022-05-28T14:40:54.000Z</time>
      </trkpt>
      <trkpt lat="44.7235" lon="5.48888">
        <ele>1778.1999511719</ele>
        <time>2022-05-28T14:40:55.000Z</time>
      </trkpt>
      <trkpt lat="44.7235" lon="5.48888">
        <ele>1778.1999511719</ele>
        <time>2022-05-28T14:40:56.000Z</time>
      </trkpt>
      <trkpt lat="44.72349" lon="5.48888">
        <ele>1778.1999511719</ele>
        <time>2022-05-28T14:40:57.000Z</time>
      </trkpt>
      <trkpt lat="44.72349" lon="5.48887">
        <ele>1778</ele>
        <time>2022-05-28T14:40:58.000Z</time>
      </trkpt>
      <trkpt lat="44.72349" lon="5.48887">
        <ele>1778</ele>
        <time>2022-05-28T14:41:00.000Z</time>
      </trkpt>
      <trkpt lat="44.72349" lon="5.48887">
        <ele>1777.8000488281</ele>
        <time>2022-05-28T14:41:01.000Z</time>
      </trkpt>
      <trkpt lat="44.72349" lon="5.48887">
        <ele>1778</ele>
        <time>2022-05-28T14:41:03.000Z</time>
      </trkpt>
      <trkpt lat="44.72349" lon="5.48888">
        <ele>1778</ele>
        <time>2022-05-28T14:41:05.000Z</time>
      </trkpt>
      <trkpt lat="44.72348" lon="5.48888">
        <ele>1778</ele>
        <time>2022-05-28T14:41:09.000Z</time>
      </trkpt>
      <trkpt lat="44.72349" lon="5.48888">
        <ele>1778</ele>
        <time>2022-05-28T14:41:12.000Z</time>
      </trkpt>
      <trkpt lat="44.72349" lon="5.48888">
        <ele>1778</ele>
        <time>2022-05-28T14:41:13.000Z</time>
      </trkpt>
      <trkpt lat="44.72349" lon="5.48888">
        <ele>1778</ele>
        <time>2022-05-28T14:41:14.000Z</time>
      </trkpt>
      <trkpt lat="44.72349" lon="5.48886">
        <ele>1777.4000244141</ele>
        <time>2022-05-28T14:41:15.000Z</time>
      </trkpt>
      <trkpt lat="44.72349" lon="5.48886">
        <ele>1777.4000244141</ele>
        <time>2022-05-28T14:41:16.000Z</time>
      </trkpt>
      <trkpt lat="44.72348" lon="5.48886">
        <ele>1777.4000244141</ele>
        <time>2022-05-28T14:41:17.000Z</time>
      </trkpt>
      <trkpt lat="44.72349" lon="5.48886">
        <ele>1777.4000244141</ele>
        <time>2022-05-28T14:41:21.000Z</time>
      </trkpt>
      <trkpt lat="44.72351" lon="5.48888">
        <ele>1778.4000244141</ele>
        <time>2022-05-28T14:41:34.000Z</time>
      </trkpt>
      <trkpt lat="44.72351" lon="5.48889">
        <ele>1778.8000488281</ele>
        <time>2022-05-28T14:41:48.000Z</time>
      </trkpt>
      <trkpt lat="44.72351" lon="5.48889">
        <ele>1778.8000488281</ele>
        <time>2022-05-28T14:42:00.000Z</time>
      </trkpt>
      <trkpt lat="44.72352" lon="5.48889">
        <ele>1778.8000488281</ele>
        <time>2022-05-28T14:42:10.000Z</time>
      </trkpt>
      <trkpt lat="44.72352" lon="5.48888">
        <ele>1778.8000488281</ele>
        <time>2022-05-28T14:42:29.000Z</time>
      </trkpt>
      <trkpt lat="44.72352" lon="5.48888">
        <ele>1778.8000488281</ele>
        <time>2022-05-28T14:42:37.000Z</time>
      </trkpt>
      <trkpt lat="44.72352" lon="5.48886">
        <ele>1777.8000488281</ele>
        <time>2022-05-28T14:43:15.000Z</time>
      </trkpt>
      <trkpt lat="44.72352" lon="5.48886">
        <ele>1777.8000488281</ele>
        <time>2022-05-28T14:43:33.000Z</time>
      </trkpt>
      <trkpt lat="44.72351" lon="5.48887">
        <ele>1778.1999511719</ele>
        <time>2022-05-28T14:44:43.000Z</time>
      </trkpt>
      <trkpt lat="44.72352" lon="5.48887">
        <ele>1778.1999511719</ele>
        <time>2022-05-28T14:44:54.000Z</time>
      </trkpt>
      <trkpt lat="44.7235" lon="5.48896">
        <ele>1779.8000488281</ele>
        <time>2022-05-28T14:45:41.000Z</time>
      </trkpt>
      <trkpt lat="44.72349" lon="5.48897">
        <ele>1779.8000488281</ele>
        <time>2022-05-28T14:45:47.000Z</time>
      </trkpt>
      <trkpt lat="44.7235" lon="5.48897">
        <ele>1780</ele>
        <time>2022-05-28T14:45:53.000Z</time>
      </trkpt>
      <trkpt lat="44.7235" lon="5.48897">
        <ele>1780</ele>
        <time>2022-05-28T14:45:55.000Z</time>
      </trkpt>
      <trkpt lat="44.7235" lon="5.48897">
        <ele>1780</ele>
        <time>2022-05-28T14:45:56.000Z</time>
      </trkpt>
      <trkpt lat="44.72352" lon="5.48897">
        <ele>1780.4000244141</ele>
        <time>2022-05-28T14:45:59.000Z</time>
      </trkpt>
      <trkpt lat="44.72353" lon="5.48898">
        <ele>1780.8000488281</ele>
        <time>2022-05-28T14:46:07.000Z</time>
      </trkpt>
      <trkpt lat="44.7235" lon="5.48897">
        <ele>1780</ele>
        <time>2022-05-28T14:46:15.000Z</time>
      </trkpt>
      <trkpt lat="44.72352" lon="5.48898">
        <ele>1780.4000244141</ele>
        <time>2022-05-28T14:46:28.000Z</time>
      </trkpt>
      <trkpt lat="44.72352" lon="5.48898">
        <ele>1780.4000244141</ele>
        <time>2022-05-28T14:46:32.000Z</time>
      </trkpt>
      <trkpt lat="44.72352" lon="5.48898">
        <ele>1780.5999755859</ele>
        <time>2022-05-28T14:46:41.000Z</time>
      </trkpt>
      <trkpt lat="44.72352" lon="5.48898">
        <ele>1780.5999755859</ele>
        <time>2022-05-28T14:46:42.000Z</time>
      </trkpt>
      <trkpt lat="44.72352" lon="5.48898">
        <ele>1780.4000244141</ele>
        <time>2022-05-28T14:46:46.000Z</time>
      </trkpt>
      <trkpt lat="44.72348" lon="5.48898">
        <ele>1780</ele>
        <time>2022-05-28T14:47:21.000Z</time>
      </trkpt>
      <trkpt lat="44.72353" lon="5.48898">
        <ele>1780.8000488281</ele>
        <time>2022-05-28T14:47:35.000Z</time>
      </trkpt>
      <trkpt lat="44.72312" lon="5.48935">
        <ele>1786.4000244141</ele>
        <time>2022-05-28T14:52:46.000Z</time>
      </trkpt>
      <trkpt lat="44.72309" lon="5.48939">
        <ele>1786.4000244141</ele>
        <time>2022-05-28T14:52:50.000Z</time>
      </trkpt>
      <trkpt lat="44.72307" lon="5.48941">
        <ele>1786.8000488281</ele>
        <time>2022-05-28T14:52:53.000Z</time>
      </trkpt>
      <trkpt lat="44.72305" lon="5.48944">
        <ele>1787.4000244141</ele>
        <time>2022-05-28T14:52:55.000Z</time>
      </trkpt>
      <trkpt lat="44.72304" lon="5.48945">
        <ele>1787.4000244141</ele>
        <time>2022-05-28T14:52:56.000Z</time>
      </trkpt>
      <trkpt lat="44.72301" lon="5.48947">
        <ele>1787.4000244141</ele>
        <time>2022-05-28T14:52:59.000Z</time>
      </trkpt>
      <trkpt lat="44.723" lon="5.48948">
        <ele>1787.4000244141</ele>
        <time>2022-05-28T14:53:00.000Z</time>
      </trkpt>
      <trkpt lat="44.72296" lon="5.4895">
        <ele>1787.4000244141</ele>
        <time>2022-05-28T14:53:04.000Z</time>
      </trkpt>
      <trkpt lat="44.72295" lon="5.48952">
        <ele>1787.4000244141</ele>
        <time>2022-05-28T14:53:06.000Z</time>
      </trkpt>
      <trkpt lat="44.72291" lon="5.48956">
        <ele>1787.8000488281</ele>
        <time>2022-05-28T14:53:11.000Z</time>
      </trkpt>
      <trkpt lat="44.72289" lon="5.48958">
        <ele>1788</ele>
        <time>2022-05-28T14:53:13.000Z</time>
      </trkpt>
      <trkpt lat="44.72288" lon="5.48958">
        <ele>1788</ele>
        <time>2022-05-28T14:53:14.000Z</time>
      </trkpt>
      <trkpt lat="44.72287" lon="5.48961">
        <ele>1788.4000244141</ele>
        <time>2022-05-28T14:53:17.000Z</time>
      </trkpt>
      <trkpt lat="44.72286" lon="5.48962">
        <ele>1788.5999755859</ele>
        <time>2022-05-28T14:53:19.000Z</time>
      </trkpt>
      <trkpt lat="44.72279" lon="5.48965">
        <ele>1787.8000488281</ele>
        <time>2022-05-28T14:53:27.000Z</time>
      </trkpt>
      <trkpt lat="44.72273" lon="5.4897">
        <ele>1788.4000244141</ele>
        <time>2022-05-28T14:53:33.000Z</time>
      </trkpt>
      <trkpt lat="44.7226" lon="5.48981">
        <ele>1788.4000244141</ele>
        <time>2022-05-28T14:53:50.000Z</time>
      </trkpt>
      <trkpt lat="44.72251" lon="5.48984">
        <ele>1786.8000488281</ele>
        <time>2022-05-28T14:54:01.000Z</time>
      </trkpt>
      <trkpt lat="44.72247" lon="5.48989">
        <ele>1786.1999511719</ele>
        <time>2022-05-28T14:54:11.000Z</time>
      </trkpt>
      <trkpt lat="44.72242" lon="5.48993">
        <ele>1787</ele>
        <time>2022-05-28T14:54:18.000Z</time>
      </trkpt>
      <trkpt lat="44.7224" lon="5.48996">
        <ele>1787.5999755859</ele>
        <time>2022-05-28T14:54:33.000Z</time>
      </trkpt>
      <trkpt lat="44.7224" lon="5.48996">
        <ele>1787.8000488281</ele>
        <time>2022-05-28T14:54:52.000Z</time>
      </trkpt>
      <trkpt lat="44.72239" lon="5.48999">
        <ele>1788.8000488281</ele>
        <time>2022-05-28T14:54:56.000Z</time>
      </trkpt>
      <trkpt lat="44.72239" lon="5.49002">
        <ele>1789.4000244141</ele>
        <time>2022-05-28T14:54:59.000Z</time>
      </trkpt>
      <trkpt lat="44.72237" lon="5.49006">
        <ele>1789.8000488281</ele>
        <time>2022-05-28T14:55:03.000Z</time>
      </trkpt>
      <trkpt lat="44.72225" lon="5.49008">
        <ele>1788.5999755859</ele>
        <time>2022-05-28T14:55:14.000Z</time>
      </trkpt>
      <trkpt lat="44.72224" lon="5.4901">
        <ele>1788.5999755859</ele>
        <time>2022-05-28T14:55:16.000Z</time>
      </trkpt>
      <trkpt lat="44.72223" lon="5.49011">
        <ele>1788.4000244141</ele>
        <time>2022-05-28T14:55:17.000Z</time>
      </trkpt>
      <trkpt lat="44.72213" lon="5.49015">
        <ele>1786.4000244141</ele>
        <time>2022-05-28T14:55:26.000Z</time>
      </trkpt>
      <trkpt lat="44.72212" lon="5.49016">
        <ele>1786.5999755859</ele>
        <time>2022-05-28T14:55:27.000Z</time>
      </trkpt>
      <trkpt lat="44.72212" lon="5.49017">
        <ele>1786.5999755859</ele>
        <time>2022-05-28T14:55:28.000Z</time>
      </trkpt>
      <trkpt lat="44.7221" lon="5.49017">
        <ele>1786.5999755859</ele>
        <time>2022-05-28T14:55:29.000Z</time>
      </trkpt>
      <trkpt lat="44.72209" lon="5.49018">
        <ele>1786.5999755859</ele>
        <time>2022-05-28T14:55:30.000Z</time>
      </trkpt>
      <trkpt lat="44.72175" lon="5.49035">
        <ele>1770.5999755859</ele>
        <time>2022-05-28T14:56:10.000Z</time>
      </trkpt>
      <trkpt lat="44.72164" lon="5.49044">
        <ele>1765.5999755859</ele>
        <time>2022-05-28T14:56:29.000Z</time>
      </trkpt>
      <trkpt lat="44.72165" lon="5.49045">
        <ele>1766.1999511719</ele>
        <time>2022-05-28T14:56:51.000Z</time>
      </trkpt>
      <trkpt lat="44.72165" lon="5.49045">
        <ele>1766.1999511719</ele>
        <time>2022-05-28T14:56:52.000Z</time>
      </trkpt>
      <trkpt lat="44.72165" lon="5.49045">
        <ele>1766</ele>
        <time>2022-05-28T14:56:59.000Z</time>
      </trkpt>
      <trkpt lat="44.72164" lon="5.49045">
        <ele>1766</ele>
        <time>2022-05-28T14:57:01.000Z</time>
      </trkpt>
      <trkpt lat="44.72165" lon="5.49044">
        <ele>1766</ele>
        <time>2022-05-28T14:57:10.000Z</time>
      </trkpt>
      <trkpt lat="44.72165" lon="5.49045">
        <ele>1766.1999511719</ele>
        <time>2022-05-28T14:57:35.000Z</time>
      </trkpt>
      <trkpt lat="44.72165" lon="5.49046">
        <ele>1766.4000244141</ele>
        <time>2022-05-28T14:57:59.000Z</time>
      </trkpt>
      <trkpt lat="44.72162" lon="5.49057">
        <ele>1767.4000244141</ele>
        <time>2022-05-28T14:58:26.000Z</time>
      </trkpt>
      <trkpt lat="44.72162" lon="5.4906">
        <ele>1768</ele>
        <time>2022-05-28T14:58:29.000Z</time>
      </trkpt>
      <trkpt lat="44.72162" lon="5.49061">
        <ele>1768</ele>
        <time>2022-05-28T14:58:31.000Z</time>
      </trkpt>
      <trkpt lat="44.72161" lon="5.49063">
        <ele>1768</ele>
        <time>2022-05-28T14:58:32.000Z</time>
      </trkpt>
      <trkpt lat="44.7216" lon="5.49065">
        <ele>1768</ele>
        <time>2022-05-28T14:58:34.000Z</time>
      </trkpt>
      <trkpt lat="44.72159" lon="5.49066">
        <ele>1767.5999755859</ele>
        <time>2022-05-28T14:58:36.000Z</time>
      </trkpt>
      <trkpt lat="44.72158" lon="5.49067">
        <ele>1767.1999511719</ele>
        <time>2022-05-28T14:58:38.000Z</time>
      </trkpt>
      <trkpt lat="44.7216" lon="5.49072">
        <ele>1769</ele>
        <time>2022-05-28T14:58:46.000Z</time>
      </trkpt>
      <trkpt lat="44.72159" lon="5.49075">
        <ele>1769</ele>
        <time>2022-05-28T14:58:50.000Z</time>
      </trkpt>
      <trkpt lat="44.72161" lon="5.49078">
        <ele>1770.4000244141</ele>
        <time>2022-05-28T14:58:56.000Z</time>
      </trkpt>
      <trkpt lat="44.7216" lon="5.4909">
        <ele>1771.5999755859</ele>
        <time>2022-05-28T14:59:13.000Z</time>
      </trkpt>
      <trkpt lat="44.72159" lon="5.49093">
        <ele>1771.8000488281</ele>
        <time>2022-05-28T14:59:16.000Z</time>
      </trkpt>
      <trkpt lat="44.72155" lon="5.49102">
        <ele>1770.5999755859</ele>
        <time>2022-05-28T14:59:24.000Z</time>
      </trkpt>
      <trkpt lat="44.72149" lon="5.49116">
        <ele>1768</ele>
        <time>2022-05-28T14:59:40.000Z</time>
      </trkpt>
      <trkpt lat="44.7215" lon="5.49113">
        <ele>1767.5999755859</ele>
        <time>2022-05-28T14:59:42.000Z</time>
      </trkpt>
      <trkpt lat="44.7215" lon="5.49109">
        <ele>1767.4000244141</ele>
        <time>2022-05-28T14:59:49.000Z</time>
      </trkpt>
      <trkpt lat="44.7215" lon="5.49109">
        <ele>1767.4000244141</ele>
        <time>2022-05-28T14:59:51.000Z</time>
      </trkpt>
      <trkpt lat="44.7215" lon="5.49109">
        <ele>1767.1999511719</ele>
        <time>2022-05-28T14:59:53.000Z</time>
      </trkpt>
      <trkpt lat="44.72149" lon="5.49116">
        <ele>1767.8000488281</ele>
        <time>2022-05-28T15:00:01.000Z</time>
      </trkpt>
      <trkpt lat="44.72149" lon="5.49124">
        <ele>1771.4000244141</ele>
        <time>2022-05-28T15:00:06.000Z</time>
      </trkpt>
      <trkpt lat="44.72146" lon="5.49133">
        <ele>1774</ele>
        <time>2022-05-28T15:00:11.000Z</time>
      </trkpt>
      <trkpt lat="44.72131" lon="5.4917">
        <ele>1783.4000244141</ele>
        <time>2022-05-28T15:00:42.000Z</time>
      </trkpt>
      <trkpt lat="44.7213" lon="5.49168">
        <ele>1783.1999511719</ele>
        <time>2022-05-28T15:01:04.000Z</time>
      </trkpt>
      <trkpt lat="44.7213" lon="5.49168">
        <ele>1783</ele>
        <time>2022-05-28T15:01:10.000Z</time>
      </trkpt>
      <trkpt lat="44.72131" lon="5.4917">
        <ele>1783.4000244141</ele>
        <time>2022-05-28T15:01:15.000Z</time>
      </trkpt>
      <trkpt lat="44.7213" lon="5.49174">
        <ele>1784.1999511719</ele>
        <time>2022-05-28T15:01:20.000Z</time>
      </trkpt>
      <trkpt lat="44.72129" lon="5.49176">
        <ele>1784.1999511719</ele>
        <time>2022-05-28T15:01:22.000Z</time>
      </trkpt>
      <trkpt lat="44.72122" lon="5.49181">
        <ele>1785.5999755859</ele>
        <time>2022-05-28T15:01:31.000Z</time>
      </trkpt>
      <trkpt lat="44.72123" lon="5.4918">
        <ele>1785.4000244141</ele>
        <time>2022-05-28T15:01:37.000Z</time>
      </trkpt>
      <trkpt lat="44.72123" lon="5.4918">
        <ele>1785.4000244141</ele>
        <time>2022-05-28T15:01:38.000Z</time>
      </trkpt>
      <trkpt lat="44.7212" lon="5.49184">
        <ele>1787</ele>
        <time>2022-05-28T15:01:43.000Z</time>
      </trkpt>
      <trkpt lat="44.72117" lon="5.49184">
        <ele>1787</ele>
        <time>2022-05-28T15:01:45.000Z</time>
      </trkpt>
      <trkpt lat="44.72112" lon="5.49183">
        <ele>1777.5999755859</ele>
        <time>2022-05-28T15:01:52.000Z</time>
      </trkpt>
      <trkpt lat="44.72111" lon="5.49184">
        <ele>1777.8000488281</ele>
        <time>2022-05-28T15:02:32.000Z</time>
      </trkpt>
      <trkpt lat="44.72111" lon="5.49184">
        <ele>1777.8000488281</ele>
        <time>2022-05-28T15:02:38.000Z</time>
      </trkpt>
      <trkpt lat="44.72111" lon="5.49184">
        <ele>1777.8000488281</ele>
        <time>2022-05-28T15:02:42.000Z</time>
      </trkpt>
      <trkpt lat="44.72111" lon="5.49184">
        <ele>1777.8000488281</ele>
        <time>2022-05-28T15:02:47.000Z</time>
      </trkpt>
      <trkpt lat="44.72111" lon="5.49184">
        <ele>1777.8000488281</ele>
        <time>2022-05-28T15:02:56.000Z</time>
      </trkpt>
      <trkpt lat="44.72111" lon="5.49184">
        <ele>1776.5999755859</ele>
        <time>2022-05-28T15:03:13.000Z</time>
      </trkpt>
      <trkpt lat="44.72111" lon="5.49184">
        <ele>1777</ele>
        <time>2022-05-28T15:03:18.000Z</time>
      </trkpt>
      <trkpt lat="44.72111" lon="5.49184">
        <ele>1777.8000488281</ele>
        <time>2022-05-28T15:03:55.000Z</time>
      </trkpt>
      <trkpt lat="44.72111" lon="5.49186">
        <ele>1778.1999511719</ele>
        <time>2022-05-28T15:04:15.000Z</time>
      </trkpt>
      <trkpt lat="44.7211" lon="5.49187">
        <ele>1777.1999511719</ele>
        <time>2022-05-28T15:04:19.000Z</time>
      </trkpt>
      <trkpt lat="44.7211" lon="5.49187">
        <ele>1776.8000488281</ele>
        <time>2022-05-28T15:04:25.000Z</time>
      </trkpt>
      <trkpt lat="44.7211" lon="5.49187">
        <ele>1776.4000244141</ele>
        <time>2022-05-28T15:04:28.000Z</time>
      </trkpt>
      <trkpt lat="44.7211" lon="5.49187">
        <ele>1776.5999755859</ele>
        <time>2022-05-28T15:04:32.000Z</time>
      </trkpt>
      <trkpt lat="44.7211" lon="5.49187">
        <ele>1776.8000488281</ele>
        <time>2022-05-28T15:04:34.000Z</time>
      </trkpt>
      <trkpt lat="44.7211" lon="5.49187">
        <ele>1777</ele>
        <time>2022-05-28T15:04:35.000Z</time>
      </trkpt>
      <trkpt lat="44.7211" lon="5.49187">
        <ele>1777.1999511719</ele>
        <time>2022-05-28T15:04:37.000Z</time>
      </trkpt>
      <trkpt lat="44.72113" lon="5.49191">
        <ele>1784.5999755859</ele>
        <time>2022-05-28T15:04:50.000Z</time>
      </trkpt>
      <trkpt lat="44.72115" lon="5.49195">
        <ele>1790.1999511719</ele>
        <time>2022-05-28T15:04:55.000Z</time>
      </trkpt>
      <trkpt lat="44.72116" lon="5.492">
        <ele>1791.4000244141</ele>
        <time>2022-05-28T15:05:03.000Z</time>
      </trkpt>
      <trkpt lat="44.72115" lon="5.49201">
        <ele>1790.4000244141</ele>
        <time>2022-05-28T15:05:08.000Z</time>
      </trkpt>
      <trkpt lat="44.72114" lon="5.492">
        <ele>1790.1999511719</ele>
        <time>2022-05-28T15:05:09.000Z</time>
      </trkpt>
      <trkpt lat="44.72114" lon="5.49201">
        <ele>1789.5999755859</ele>
        <time>2022-05-28T15:05:14.000Z</time>
      </trkpt>
      <trkpt lat="44.72114" lon="5.49201">
        <ele>1789.5999755859</ele>
        <time>2022-05-28T15:05:21.000Z</time>
      </trkpt>
      <trkpt lat="44.72114" lon="5.49202">
        <ele>1790</ele>
        <time>2022-05-28T15:05:25.000Z</time>
      </trkpt>
      <trkpt lat="44.72114" lon="5.49206">
        <ele>1790</ele>
        <time>2022-05-28T15:05:39.000Z</time>
      </trkpt>
      <trkpt lat="44.72108" lon="5.49218">
        <ele>1787.5999755859</ele>
        <time>2022-05-28T15:05:48.000Z</time>
      </trkpt>
      <trkpt lat="44.72103" lon="5.49222">
        <ele>1787.5999755859</ele>
        <time>2022-05-28T15:05:59.000Z</time>
      </trkpt>
      <trkpt lat="44.721" lon="5.49222">
        <ele>1786.4000244141</ele>
        <time>2022-05-28T15:06:05.000Z</time>
      </trkpt>
      <trkpt lat="44.721" lon="5.49223">
        <ele>1786.1999511719</ele>
        <time>2022-05-28T15:06:06.000Z</time>
      </trkpt>
      <trkpt lat="44.72099" lon="5.49224">
        <ele>1785.5999755859</ele>
        <time>2022-05-28T15:06:08.000Z</time>
      </trkpt>
      <trkpt lat="44.72096" lon="5.49227">
        <ele>1784.4000244141</ele>
        <time>2022-05-28T15:06:12.000Z</time>
      </trkpt>
      <trkpt lat="44.72095" lon="5.49228">
        <ele>1783.5999755859</ele>
        <time>2022-05-28T15:06:14.000Z</time>
      </trkpt>
      <trkpt lat="44.72093" lon="5.49228">
        <ele>1782.8000488281</ele>
        <time>2022-05-28T15:06:22.000Z</time>
      </trkpt>
      <trkpt lat="44.72093" lon="5.49228">
        <ele>1782.8000488281</ele>
        <time>2022-05-28T15:06:23.000Z</time>
      </trkpt>
      <trkpt lat="44.72093" lon="5.49227">
        <ele>1782.8000488281</ele>
        <time>2022-05-28T15:06:25.000Z</time>
      </trkpt>
      <trkpt lat="44.72093" lon="5.49227">
        <ele>1782.8000488281</ele>
        <time>2022-05-28T15:06:27.000Z</time>
      </trkpt>
      <trkpt lat="44.72092" lon="5.49227">
        <ele>1782.5999755859</ele>
        <time>2022-05-28T15:06:29.000Z</time>
      </trkpt>
      <trkpt lat="44.72093" lon="5.49228">
        <ele>1782.5999755859</ele>
        <time>2022-05-28T15:06:34.000Z</time>
      </trkpt>
      <trkpt lat="44.72093" lon="5.49229">
        <ele>1782.5999755859</ele>
        <time>2022-05-28T15:06:35.000Z</time>
      </trkpt>
      <trkpt lat="44.72093" lon="5.49229">
        <ele>1782.5999755859</ele>
        <time>2022-05-28T15:06:37.000Z</time>
      </trkpt>
      <trkpt lat="44.72093" lon="5.49231">
        <ele>1782.4000244141</ele>
        <time>2022-05-28T15:06:41.000Z</time>
      </trkpt>
      <trkpt lat="44.72094" lon="5.49233">
        <ele>1782.4000244141</ele>
        <time>2022-05-28T15:06:49.000Z</time>
      </trkpt>
      <trkpt lat="44.72094" lon="5.49236">
        <ele>1782</ele>
        <time>2022-05-28T15:06:57.000Z</time>
      </trkpt>
      <trkpt lat="44.72095" lon="5.49241">
        <ele>1781.8000488281</ele>
        <time>2022-05-28T15:07:06.000Z</time>
      </trkpt>
      <trkpt lat="44.72095" lon="5.49243">
        <ele>1781.4000244141</ele>
        <time>2022-05-28T15:07:08.000Z</time>
      </trkpt>
      <trkpt lat="44.72095" lon="5.49244">
        <ele>1781.4000244141</ele>
        <time>2022-05-28T15:07:10.000Z</time>
      </trkpt>
      <trkpt lat="44.72095" lon="5.49245">
        <ele>1781.1999511719</ele>
        <time>2022-05-28T15:07:12.000Z</time>
      </trkpt>
      <trkpt lat="44.72095" lon="5.49245">
        <ele>1781.1999511719</ele>
        <time>2022-05-28T15:07:13.000Z</time>
      </trkpt>
      <trkpt lat="44.72093" lon="5.49253">
        <ele>1779.8000488281</ele>
        <time>2022-05-28T15:07:22.000Z</time>
      </trkpt>
      <trkpt lat="44.72087" lon="5.49269">
        <ele>1778.4000244141</ele>
        <time>2022-05-28T15:07:38.000Z</time>
      </trkpt>
      <trkpt lat="44.72085" lon="5.49276">
        <ele>1777.4000244141</ele>
        <time>2022-05-28T15:07:44.000Z</time>
      </trkpt>
      <trkpt lat="44.7208" lon="5.49288">
        <ele>1777.1999511719</ele>
        <time>2022-05-28T15:07:55.000Z</time>
      </trkpt>
      <trkpt lat="44.72077" lon="5.49294">
        <ele>1776.8000488281</ele>
        <time>2022-05-28T15:08:08.000Z</time>
      </trkpt>
      <trkpt lat="44.72077" lon="5.49296">
        <ele>1777.4000244141</ele>
        <time>2022-05-28T15:08:11.000Z</time>
      </trkpt>
      <trkpt lat="44.72078" lon="5.49299">
        <ele>1779</ele>
        <time>2022-05-28T15:08:18.000Z</time>
      </trkpt>
      <trkpt lat="44.72078" lon="5.493">
        <ele>1779.8000488281</ele>
        <time>2022-05-28T15:08:21.000Z</time>
      </trkpt>
      <trkpt lat="44.72079" lon="5.49303">
        <ele>1781</ele>
        <time>2022-05-28T15:08:24.000Z</time>
      </trkpt>
      <trkpt lat="44.72079" lon="5.49307">
        <ele>1782.8000488281</ele>
        <time>2022-05-28T15:08:28.000Z</time>
      </trkpt>
      <trkpt lat="44.72079" lon="5.49311">
        <ele>1783.5999755859</ele>
        <time>2022-05-28T15:08:31.000Z</time>
      </trkpt>
      <trkpt lat="44.72079" lon="5.49315">
        <ele>1784</ele>
        <time>2022-05-28T15:08:34.000Z</time>
      </trkpt>
      <trkpt lat="44.72079" lon="5.49319">
        <ele>1785</ele>
        <time>2022-05-28T15:08:37.000Z</time>
      </trkpt>
      <trkpt lat="44.72078" lon="5.49321">
        <ele>1785.1999511719</ele>
        <time>2022-05-28T15:08:38.000Z</time>
      </trkpt>
      <trkpt lat="44.72078" lon="5.49326">
        <ele>1786.8000488281</ele>
        <time>2022-05-28T15:08:43.000Z</time>
      </trkpt>
      <trkpt lat="44.72078" lon="5.49332">
        <ele>1789</ele>
        <time>2022-05-28T15:08:47.000Z</time>
      </trkpt>
      <trkpt lat="44.72077" lon="5.49335">
        <ele>1789.4000244141</ele>
        <time>2022-05-28T15:08:49.000Z</time>
      </trkpt>
      <trkpt lat="44.72075" lon="5.49345">
        <ele>1790.5999755859</ele>
        <time>2022-05-28T15:08:58.000Z</time>
      </trkpt>
      <trkpt lat="44.72063" lon="5.49359">
        <ele>1789.8000488281</ele>
        <time>2022-05-28T15:09:16.000Z</time>
      </trkpt>
      <trkpt lat="44.72057" lon="5.49361">
        <ele>1787.4000244141</ele>
        <time>2022-05-28T15:09:24.000Z</time>
      </trkpt>
      <trkpt lat="44.72051" lon="5.49366">
        <ele>1784.8000488281</ele>
        <time>2022-05-28T15:09:37.000Z</time>
      </trkpt>
      <trkpt lat="44.7205" lon="5.49367">
        <ele>1784.5999755859</ele>
        <time>2022-05-28T15:09:44.000Z</time>
      </trkpt>
      <trkpt lat="44.7205" lon="5.49367">
        <ele>1784.5999755859</ele>
        <time>2022-05-28T15:09:45.000Z</time>
      </trkpt>
      <trkpt lat="44.7205" lon="5.49367">
        <ele>1784.4000244141</ele>
        <time>2022-05-28T15:09:46.000Z</time>
      </trkpt>
      <trkpt lat="44.7205" lon="5.49367">
        <ele>1784.1999511719</ele>
        <time>2022-05-28T15:09:48.000Z</time>
      </trkpt>
      <trkpt lat="44.7205" lon="5.49367">
        <ele>1784.1999511719</ele>
        <time>2022-05-28T15:09:50.000Z</time>
      </trkpt>
      <trkpt lat="44.72049" lon="5.49367">
        <ele>1784</ele>
        <time>2022-05-28T15:09:52.000Z</time>
      </trkpt>
      <trkpt lat="44.72049" lon="5.49366">
        <ele>1783.5999755859</ele>
        <time>2022-05-28T15:09:56.000Z</time>
      </trkpt>
      <trkpt lat="44.7205" lon="5.49367">
        <ele>1784.4000244141</ele>
        <time>2022-05-28T15:10:00.000Z</time>
      </trkpt>
      <trkpt lat="44.72051" lon="5.49373">
        <ele>1786.5999755859</ele>
        <time>2022-05-28T15:10:05.000Z</time>
      </trkpt>
      <trkpt lat="44.72052" lon="5.4938">
        <ele>1788.4000244141</ele>
        <time>2022-05-28T15:10:10.000Z</time>
      </trkpt>
      <trkpt lat="44.72052" lon="5.49382">
        <ele>1789.1999511719</ele>
        <time>2022-05-28T15:10:14.000Z</time>
      </trkpt>
      <trkpt lat="44.72053" lon="5.49382">
        <ele>1789.5999755859</ele>
        <time>2022-05-28T15:10:18.000Z</time>
      </trkpt>
      <trkpt lat="44.72054" lon="5.49383">
        <ele>1790.4000244141</ele>
        <time>2022-05-28T15:10:22.000Z</time>
      </trkpt>
      <trkpt lat="44.72055" lon="5.49386">
        <ele>1791.5999755859</ele>
        <time>2022-05-28T15:10:26.000Z</time>
      </trkpt>
      <trkpt lat="44.72054" lon="5.49387">
        <ele>1791</ele>
        <time>2022-05-28T15:10:29.000Z</time>
      </trkpt>
      <trkpt lat="44.72051" lon="5.4939">
        <ele>1789.4000244141</ele>
        <time>2022-05-28T15:10:35.000Z</time>
      </trkpt>
      <trkpt lat="44.72051" lon="5.49392">
        <ele>1789.5999755859</ele>
        <time>2022-05-28T15:10:36.000Z</time>
      </trkpt>
      <trkpt lat="44.72051" lon="5.49392">
        <ele>1789.8000488281</ele>
        <time>2022-05-28T15:10:37.000Z</time>
      </trkpt>
      <trkpt lat="44.72051" lon="5.49395">
        <ele>1790.8000488281</ele>
        <time>2022-05-28T15:10:40.000Z</time>
      </trkpt>
      <trkpt lat="44.72053" lon="5.49397">
        <ele>1792</ele>
        <time>2022-05-28T15:10:43.000Z</time>
      </trkpt>
      <trkpt lat="44.72052" lon="5.49401">
        <ele>1792.5999755859</ele>
        <time>2022-05-28T15:10:46.000Z</time>
      </trkpt>
      <trkpt lat="44.72048" lon="5.49421">
        <ele>1792.8000488281</ele>
        <time>2022-05-28T15:11:06.000Z</time>
      </trkpt>
      <trkpt lat="44.72047" lon="5.49423">
        <ele>1792.8000488281</ele>
        <time>2022-05-28T15:11:07.000Z</time>
      </trkpt>
      <trkpt lat="44.72043" lon="5.49433">
        <ele>1792.5999755859</ele>
        <time>2022-05-28T15:11:18.000Z</time>
      </trkpt>
      <trkpt lat="44.72042" lon="5.49436">
        <ele>1793.1999511719</ele>
        <time>2022-05-28T15:11:22.000Z</time>
      </trkpt>
      <trkpt lat="44.72041" lon="5.49443">
        <ele>1794.8000488281</ele>
        <time>2022-05-28T15:11:28.000Z</time>
      </trkpt>
      <trkpt lat="44.72039" lon="5.49448">
        <ele>1795.1999511719</ele>
        <time>2022-05-28T15:11:33.000Z</time>
      </trkpt>
      <trkpt lat="44.7203" lon="5.49488">
        <ele>1802.5999755859</ele>
        <time>2022-05-28T15:12:25.000Z</time>
      </trkpt>
      <trkpt lat="44.72028" lon="5.49496">
        <ele>1804.4000244141</ele>
        <time>2022-05-28T15:12:34.000Z</time>
      </trkpt>
      <trkpt lat="44.72026" lon="5.49499">
        <ele>1805</ele>
        <time>2022-05-28T15:12:39.000Z</time>
      </trkpt>
      <trkpt lat="44.72013" lon="5.4952">
        <ele>1808.5999755859</ele>
        <time>2022-05-28T15:13:13.000Z</time>
      </trkpt>
      <trkpt lat="44.72009" lon="5.49529">
        <ele>1811</ele>
        <time>2022-05-28T15:13:54.000Z</time>
      </trkpt>
      <trkpt lat="44.72009" lon="5.49529">
        <ele>1811</ele>
        <time>2022-05-28T15:14:06.000Z</time>
      </trkpt>
      <trkpt lat="44.72009" lon="5.49529">
        <ele>1811</ele>
        <time>2022-05-28T15:14:12.000Z</time>
      </trkpt>
      <trkpt lat="44.72009" lon="5.49528">
        <ele>1810.8000488281</ele>
        <time>2022-05-28T15:14:21.000Z</time>
      </trkpt>
      <trkpt lat="44.7201" lon="5.49527">
        <ele>1810.8000488281</ele>
        <time>2022-05-28T15:14:31.000Z</time>
      </trkpt>
      <trkpt lat="44.7201" lon="5.49527">
        <ele>1810.8000488281</ele>
        <time>2022-05-28T15:14:44.000Z</time>
      </trkpt>
      <trkpt lat="44.7201" lon="5.49527">
        <ele>1810.8000488281</ele>
        <time>2022-05-28T15:15:01.000Z</time>
      </trkpt>
      <trkpt lat="44.7201" lon="5.49527">
        <ele>1810.5999755859</ele>
        <time>2022-05-28T15:15:18.000Z</time>
      </trkpt>
      <trkpt lat="44.7201" lon="5.49526">
        <ele>1810.4000244141</ele>
        <time>2022-05-28T15:15:28.000Z</time>
      </trkpt>
      <trkpt lat="44.72008" lon="5.49525">
        <ele>1809.5999755859</ele>
        <time>2022-05-28T15:16:09.000Z</time>
      </trkpt>
      <trkpt lat="44.72009" lon="5.49526">
        <ele>1810</ele>
        <time>2022-05-28T15:16:39.000Z</time>
      </trkpt>
      <trkpt lat="44.72012" lon="5.49528">
        <ele>1811.4000244141</ele>
        <time>2022-05-28T15:17:32.000Z</time>
      </trkpt>
      <trkpt lat="44.72013" lon="5.49529">
        <ele>1812.1999511719</ele>
        <time>2022-05-28T15:17:34.000Z</time>
      </trkpt>
      <trkpt lat="44.72014" lon="5.4953">
        <ele>1812.4000244141</ele>
        <time>2022-05-28T15:17:35.000Z</time>
      </trkpt>
      <trkpt lat="44.72014" lon="5.49531">
        <ele>1812.8000488281</ele>
        <time>2022-05-28T15:17:36.000Z</time>
      </trkpt>
      <trkpt lat="44.72015" lon="5.49532">
        <ele>1813.1999511719</ele>
        <time>2022-05-28T15:17:38.000Z</time>
      </trkpt>
      <trkpt lat="44.72015" lon="5.49533">
        <ele>1813.5999755859</ele>
        <time>2022-05-28T15:17:39.000Z</time>
      </trkpt>
      <trkpt lat="44.72015" lon="5.49534">
        <ele>1813.8000488281</ele>
        <time>2022-05-28T15:17:40.000Z</time>
      </trkpt>
      <trkpt lat="44.72015" lon="5.49535">
        <ele>1814.1999511719</ele>
        <time>2022-05-28T15:17:42.000Z</time>
      </trkpt>
      <trkpt lat="44.72016" lon="5.49538">
        <ele>1815</ele>
        <time>2022-05-28T15:17:45.000Z</time>
      </trkpt>
      <trkpt lat="44.72016" lon="5.49539">
        <ele>1815.4000244141</ele>
        <time>2022-05-28T15:17:53.000Z</time>
      </trkpt>
      <trkpt lat="44.72017" lon="5.49546">
        <ele>1817.5999755859</ele>
        <time>2022-05-28T15:18:05.000Z</time>
      </trkpt>
      <trkpt lat="44.72018" lon="5.49547">
        <ele>1818</ele>
        <time>2022-05-28T15:18:06.000Z</time>
      </trkpt>
      <trkpt lat="44.72018" lon="5.49548">
        <ele>1818.1999511719</ele>
        <time>2022-05-28T15:18:07.000Z</time>
      </trkpt>
      <trkpt lat="44.72018" lon="5.49548">
        <ele>1818.5999755859</ele>
        <time>2022-05-28T15:18:08.000Z</time>
      </trkpt>
      <trkpt lat="44.72019" lon="5.4955">
        <ele>1819.1999511719</ele>
        <time>2022-05-28T15:18:10.000Z</time>
      </trkpt>
      <trkpt lat="44.7202" lon="5.4955">
        <ele>1819.4000244141</ele>
        <time>2022-05-28T15:18:11.000Z</time>
      </trkpt>
      <trkpt lat="44.72023" lon="5.49555">
        <ele>1821.5999755859</ele>
        <time>2022-05-28T15:18:19.000Z</time>
      </trkpt>
      <trkpt lat="44.72025" lon="5.4956">
        <ele>1822.5999755859</ele>
        <time>2022-05-28T15:18:26.000Z</time>
      </trkpt>
      <trkpt lat="44.7203" lon="5.49577">
        <ele>1826.1999511719</ele>
        <time>2022-05-28T15:18:53.000Z</time>
      </trkpt>
      <trkpt lat="44.72033" lon="5.49586">
        <ele>1828.1999511719</ele>
        <time>2022-05-28T15:19:05.000Z</time>
      </trkpt>
      <trkpt lat="44.7203" lon="5.49589">
        <ele>1827.5999755859</ele>
        <time>2022-05-28T15:19:16.000Z</time>
      </trkpt>
      <trkpt lat="44.72012" lon="5.49645">
        <ele>1828.1999511719</ele>
        <time>2022-05-28T15:19:57.000Z</time>
      </trkpt>
      <trkpt lat="44.7199" lon="5.49698">
        <ele>1830.1999511719</ele>
        <time>2022-05-28T15:20:52.000Z</time>
      </trkpt>
      <trkpt lat="44.71976" lon="5.49738">
        <ele>1835.8000488281</ele>
        <time>2022-05-28T15:21:25.000Z</time>
      </trkpt>
      <trkpt lat="44.71976" lon="5.49738">
        <ele>1835.5999755859</ele>
        <time>2022-05-28T15:21:26.000Z</time>
      </trkpt>
      <trkpt lat="44.71972" lon="5.49745">
        <ele>1835.1999511719</ele>
        <time>2022-05-28T15:21:33.000Z</time>
      </trkpt>
      <trkpt lat="44.7197" lon="5.49748">
        <ele>1835.4000244141</ele>
        <time>2022-05-28T15:21:36.000Z</time>
      </trkpt>
      <trkpt lat="44.71969" lon="5.49749">
        <ele>1835.4000244141</ele>
        <time>2022-05-28T15:21:37.000Z</time>
      </trkpt>
      <trkpt lat="44.71967" lon="5.4975">
        <ele>1835.4000244141</ele>
        <time>2022-05-28T15:21:39.000Z</time>
      </trkpt>
      <trkpt lat="44.71965" lon="5.49752">
        <ele>1835</ele>
        <time>2022-05-28T15:21:41.000Z</time>
      </trkpt>
      <trkpt lat="44.71963" lon="5.49754">
        <ele>1834.8000488281</ele>
        <time>2022-05-28T15:21:43.000Z</time>
      </trkpt>
      <trkpt lat="44.7196" lon="5.49757">
        <ele>1834.4000244141</ele>
        <time>2022-05-28T15:21:48.000Z</time>
      </trkpt>
      <trkpt lat="44.7196" lon="5.49757">
        <ele>1834.1999511719</ele>
        <time>2022-05-28T15:21:49.000Z</time>
      </trkpt>
      <trkpt lat="44.7196" lon="5.49757">
        <ele>1834.1999511719</ele>
        <time>2022-05-28T15:21:50.000Z</time>
      </trkpt>
      <trkpt lat="44.71957" lon="5.49759">
        <ele>1834.1999511719</ele>
        <time>2022-05-28T15:21:53.000Z</time>
      </trkpt>
      <trkpt lat="44.71952" lon="5.49766">
        <ele>1834.8000488281</ele>
        <time>2022-05-28T15:22:00.000Z</time>
      </trkpt>
      <trkpt lat="44.71949" lon="5.49771">
        <ele>1834.5999755859</ele>
        <time>2022-05-28T15:22:05.000Z</time>
      </trkpt>
      <trkpt lat="44.71942" lon="5.49788">
        <ele>1834.8000488281</ele>
        <time>2022-05-28T15:22:22.000Z</time>
      </trkpt>
      <trkpt lat="44.71942" lon="5.49789">
        <ele>1834.8000488281</ele>
        <time>2022-05-28T15:22:23.000Z</time>
      </trkpt>
      <trkpt lat="44.71939" lon="5.49795">
        <ele>1834.8000488281</ele>
        <time>2022-05-28T15:22:28.000Z</time>
      </trkpt>
      <trkpt lat="44.71936" lon="5.4981">
        <ele>1837</ele>
        <time>2022-05-28T15:22:39.000Z</time>
      </trkpt>
      <trkpt lat="44.71933" lon="5.49816">
        <ele>1837</ele>
        <time>2022-05-28T15:22:44.000Z</time>
      </trkpt>
      <trkpt lat="44.71933" lon="5.4982">
        <ele>1837</ele>
        <time>2022-05-28T15:22:47.000Z</time>
      </trkpt>
      <trkpt lat="44.71933" lon="5.49822">
        <ele>1837</ele>
        <time>2022-05-28T15:22:48.000Z</time>
      </trkpt>
      <trkpt lat="44.71926" lon="5.49827">
        <ele>1837</ele>
        <time>2022-05-28T15:23:05.000Z</time>
      </trkpt>
      <trkpt lat="44.71902" lon="5.49831">
        <ele>1834</ele>
        <time>2022-05-28T15:23:32.000Z</time>
      </trkpt>
      <trkpt lat="44.719" lon="5.49832">
        <ele>1833.5999755859</ele>
        <time>2022-05-28T15:23:35.000Z</time>
      </trkpt>
      <trkpt lat="44.71897" lon="5.49836">
        <ele>1833.4000244141</ele>
        <time>2022-05-28T15:23:40.000Z</time>
      </trkpt>
      <trkpt lat="44.71896" lon="5.49837">
        <ele>1833.4000244141</ele>
        <time>2022-05-28T15:23:42.000Z</time>
      </trkpt>
      <trkpt lat="44.71896" lon="5.49839">
        <ele>1833.4000244141</ele>
        <time>2022-05-28T15:23:44.000Z</time>
      </trkpt>
      <trkpt lat="44.71894" lon="5.49841">
        <ele>1833.4000244141</ele>
        <time>2022-05-28T15:23:48.000Z</time>
      </trkpt>
      <trkpt lat="44.71887" lon="5.49846">
        <ele>1832.1999511719</ele>
        <time>2022-05-28T15:23:55.000Z</time>
      </trkpt>
      <trkpt lat="44.71882" lon="5.49852">
        <ele>1831.8000488281</ele>
        <time>2022-05-28T15:24:03.000Z</time>
      </trkpt>
      <trkpt lat="44.71876" lon="5.49865">
        <ele>1832.4000244141</ele>
        <time>2022-05-28T15:24:17.000Z</time>
      </trkpt>
      <trkpt lat="44.71873" lon="5.49871">
        <ele>1832.4000244141</ele>
        <time>2022-05-28T15:24:24.000Z</time>
      </trkpt>
      <trkpt lat="44.71863" lon="5.49898">
        <ele>1831</ele>
        <time>2022-05-28T15:24:55.000Z</time>
      </trkpt>
      <trkpt lat="44.71851" lon="5.49933">
        <ele>1828</ele>
        <time>2022-05-28T15:25:27.000Z</time>
      </trkpt>
      <trkpt lat="44.71842" lon="5.49978">
        <ele>1826.1999511719</ele>
        <time>2022-05-28T15:26:05.000Z</time>
      </trkpt>
      <trkpt lat="44.71839" lon="5.49996">
        <ele>1826.8000488281</ele>
        <time>2022-05-28T15:26:18.000Z</time>
      </trkpt>
      <trkpt lat="44.71838" lon="5.50013">
        <ele>1826.4000244141</ele>
        <time>2022-05-28T15:26:31.000Z</time>
      </trkpt>
      <trkpt lat="44.71838" lon="5.50024">
        <ele>1825.8000488281</ele>
        <time>2022-05-28T15:26:38.000Z</time>
      </trkpt>
      <trkpt lat="44.71838" lon="5.50025">
        <ele>1825.8000488281</ele>
        <time>2022-05-28T15:26:39.000Z</time>
      </trkpt>
      <trkpt lat="44.71838" lon="5.50029">
        <ele>1825.5999755859</ele>
        <time>2022-05-28T15:26:42.000Z</time>
      </trkpt>
      <trkpt lat="44.71829" lon="5.50041">
        <ele>1822.1999511719</ele>
        <time>2022-05-28T15:27:11.000Z</time>
      </trkpt>
      <trkpt lat="44.71826" lon="5.50042">
        <ele>1822</ele>
        <time>2022-05-28T15:27:32.000Z</time>
      </trkpt>
      <trkpt lat="44.71826" lon="5.50042">
        <ele>1822</ele>
        <time>2022-05-28T15:27:47.000Z</time>
      </trkpt>
      <trkpt lat="44.71826" lon="5.50042">
        <ele>1822</ele>
        <time>2022-05-28T15:27:54.000Z</time>
      </trkpt>
      <trkpt lat="44.71826" lon="5.50042">
        <ele>1822</ele>
        <time>2022-05-28T15:28:03.000Z</time>
      </trkpt>
      <trkpt lat="44.71826" lon="5.50042">
        <ele>1822</ele>
        <time>2022-05-28T15:28:11.000Z</time>
      </trkpt>
      <trkpt lat="44.71827" lon="5.50041">
        <ele>1822.1999511719</ele>
        <time>2022-05-28T15:28:19.000Z</time>
      </trkpt>
      <trkpt lat="44.71828" lon="5.5004">
        <ele>1822.4000244141</ele>
        <time>2022-05-28T15:28:27.000Z</time>
      </trkpt>
      <trkpt lat="44.71829" lon="5.50037">
        <ele>1823.1999511719</ele>
        <time>2022-05-28T15:28:36.000Z</time>
      </trkpt>
      <trkpt lat="44.71829" lon="5.50037">
        <ele>1823.1999511719</ele>
        <time>2022-05-28T15:28:37.000Z</time>
      </trkpt>
      <trkpt lat="44.71829" lon="5.50037">
        <ele>1823.1999511719</ele>
        <time>2022-05-28T15:28:39.000Z</time>
      </trkpt>
      <trkpt lat="44.71829" lon="5.50037">
        <ele>1823.1999511719</ele>
        <time>2022-05-28T15:28:41.000Z</time>
      </trkpt>
      <trkpt lat="44.71829" lon="5.50037">
        <ele>1823.1999511719</ele>
        <time>2022-05-28T15:28:44.000Z</time>
      </trkpt>
      <trkpt lat="44.71829" lon="5.50037">
        <ele>1823.1999511719</ele>
        <time>2022-05-28T15:28:49.000Z</time>
      </trkpt>
      <trkpt lat="44.71829" lon="5.50036">
        <ele>1823.4000244141</ele>
        <time>2022-05-28T15:28:57.000Z</time>
      </trkpt>
      <trkpt lat="44.71829" lon="5.50036">
        <ele>1823.4000244141</ele>
        <time>2022-05-28T15:29:00.000Z</time>
      </trkpt>
      <trkpt lat="44.71829" lon="5.50036">
        <ele>1823.4000244141</ele>
        <time>2022-05-28T15:29:01.000Z</time>
      </trkpt>
      <trkpt lat="44.71829" lon="5.50036">
        <ele>1823.4000244141</ele>
        <time>2022-05-28T15:29:03.000Z</time>
      </trkpt>
      <trkpt lat="44.71826" lon="5.50038">
        <ele>1822.8000488281</ele>
        <time>2022-05-28T15:29:11.000Z</time>
      </trkpt>
      <trkpt lat="44.71824" lon="5.50039">
        <ele>1822.4000244141</ele>
        <time>2022-05-28T15:29:25.000Z</time>
      </trkpt>
      <trkpt lat="44.71824" lon="5.5004">
        <ele>1822.1999511719</ele>
        <time>2022-05-28T15:30:07.000Z</time>
      </trkpt>
      <trkpt lat="44.71823" lon="5.5004">
        <ele>1822.1999511719</ele>
        <time>2022-05-28T15:30:19.000Z</time>
      </trkpt>
      <trkpt lat="44.71823" lon="5.5004">
        <ele>1822.1999511719</ele>
        <time>2022-05-28T15:30:30.000Z</time>
      </trkpt>
      <trkpt lat="44.71823" lon="5.5004">
        <ele>1822.1999511719</ele>
        <time>2022-05-28T15:30:38.000Z</time>
      </trkpt>
      <trkpt lat="44.71823" lon="5.5004">
        <ele>1822.1999511719</ele>
        <time>2022-05-28T15:30:44.000Z</time>
      </trkpt>
      <trkpt lat="44.71823" lon="5.5004">
        <ele>1822.1999511719</ele>
        <time>2022-05-28T15:30:52.000Z</time>
      </trkpt>
      <trkpt lat="44.71823" lon="5.50039">
        <ele>1822.4000244141</ele>
        <time>2022-05-28T15:31:07.000Z</time>
      </trkpt>
      <trkpt lat="44.71824" lon="5.50039">
        <ele>1822.5999755859</ele>
        <time>2022-05-28T15:31:18.000Z</time>
      </trkpt>
      <trkpt lat="44.71829" lon="5.50036">
        <ele>1823.5999755859</ele>
        <time>2022-05-28T15:32:15.000Z</time>
      </trkpt>
      <trkpt lat="44.71828" lon="5.50032">
        <ele>1824.4000244141</ele>
        <time>2022-05-28T15:32:32.000Z</time>
      </trkpt>
      <trkpt lat="44.71828" lon="5.50032">
        <ele>1824.1999511719</ele>
        <time>2022-05-28T15:32:39.000Z</time>
      </trkpt>
      <trkpt lat="44.71828" lon="5.50032">
        <ele>1824.1999511719</ele>
        <time>2022-05-28T15:32:40.000Z</time>
      </trkpt>
      <trkpt lat="44.71828" lon="5.50032">
        <ele>1824.1999511719</ele>
        <time>2022-05-28T15:32:41.000Z</time>
      </trkpt>
      <trkpt lat="44.71828" lon="5.50032">
        <ele>1824.1999511719</ele>
        <time>2022-05-28T15:32:42.000Z</time>
      </trkpt>
      <trkpt lat="44.71828" lon="5.50032">
        <ele>1824.1999511719</ele>
        <time>2022-05-28T15:32:43.000Z</time>
      </trkpt>
      <trkpt lat="44.71828" lon="5.50032">
        <ele>1824.1999511719</ele>
        <time>2022-05-28T15:32:44.000Z</time>
      </trkpt>
      <trkpt lat="44.71828" lon="5.50032">
        <ele>1824.1999511719</ele>
        <time>2022-05-28T15:32:47.000Z</time>
      </trkpt>
      <trkpt lat="44.71828" lon="5.50031">
        <ele>1824.4000244141</ele>
        <time>2022-05-28T15:33:12.000Z</time>
      </trkpt>
      <trkpt lat="44.71829" lon="5.50036">
        <ele>1823.5999755859</ele>
        <time>2022-05-28T15:33:48.000Z</time>
      </trkpt>
      <trkpt lat="44.71829" lon="5.50036">
        <ele>1823.4000244141</ele>
        <time>2022-05-28T15:33:51.000Z</time>
      </trkpt>
      <trkpt lat="44.71829" lon="5.50036">
        <ele>1823.4000244141</ele>
        <time>2022-05-28T15:33:53.000Z</time>
      </trkpt>
      <trkpt lat="44.71829" lon="5.50036">
        <ele>1823.4000244141</ele>
        <time>2022-05-28T15:33:57.000Z</time>
      </trkpt>
      <trkpt lat="44.71829" lon="5.50036">
        <ele>1823.4000244141</ele>
        <time>2022-05-28T15:34:06.000Z</time>
      </trkpt>
      <trkpt lat="44.71829" lon="5.50036">
        <ele>1823.4000244141</ele>
        <time>2022-05-28T15:34:09.000Z</time>
      </trkpt>
      <trkpt lat="44.71829" lon="5.50036">
        <ele>1823.4000244141</ele>
        <time>2022-05-28T15:34:17.000Z</time>
      </trkpt>
      <trkpt lat="44.71828" lon="5.50036">
        <ele>1823.4000244141</ele>
        <time>2022-05-28T15:34:24.000Z</time>
      </trkpt>
      <trkpt lat="44.71827" lon="5.50036">
        <ele>1823.4000244141</ele>
        <time>2022-05-28T15:38:37.000Z</time>
      </trkpt>
      <trkpt lat="44.71828" lon="5.50036">
        <ele>1823.4000244141</ele>
        <time>2022-05-28T15:38:38.000Z</time>
      </trkpt>
      <trkpt lat="44.71826" lon="5.50031">
        <ele>1824.4000244141</ele>
        <time>2022-05-28T15:38:42.000Z</time>
      </trkpt>
      <trkpt lat="44.71823" lon="5.50025">
        <ele>1824.5999755859</ele>
        <time>2022-05-28T15:38:47.000Z</time>
      </trkpt>
      <trkpt lat="44.7182" lon="5.5002">
        <ele>1824</ele>
        <time>2022-05-28T15:38:51.000Z</time>
      </trkpt>
      <trkpt lat="44.7182" lon="5.5002">
        <ele>1824</ele>
        <time>2022-05-28T15:38:52.000Z</time>
      </trkpt>
      <trkpt lat="44.71818" lon="5.50018">
        <ele>1823.8000488281</ele>
        <time>2022-05-28T15:38:57.000Z</time>
      </trkpt>
      <trkpt lat="44.71819" lon="5.50017">
        <ele>1823.8000488281</ele>
        <time>2022-05-28T15:39:00.000Z</time>
      </trkpt>
      <trkpt lat="44.7182" lon="5.50017">
        <ele>1823.8000488281</ele>
        <time>2022-05-28T15:39:01.000Z</time>
      </trkpt>
      <trkpt lat="44.71824" lon="5.50013">
        <ele>1823.8000488281</ele>
        <time>2022-05-28T15:39:07.000Z</time>
      </trkpt>
      <trkpt lat="44.71825" lon="5.50012">
        <ele>1824</ele>
        <time>2022-05-28T15:39:08.000Z</time>
      </trkpt>
      <trkpt lat="44.71827" lon="5.50008">
        <ele>1824.4000244141</ele>
        <time>2022-05-28T15:39:11.000Z</time>
      </trkpt>
      <trkpt lat="44.7183" lon="5.50002">
        <ele>1825.1999511719</ele>
        <time>2022-05-28T15:39:15.000Z</time>
      </trkpt>
      <trkpt lat="44.71837" lon="5.49991">
        <ele>1826</ele>
        <time>2022-05-28T15:39:24.000Z</time>
      </trkpt>
      <trkpt lat="44.71838" lon="5.49989">
        <ele>1826.1999511719</ele>
        <time>2022-05-28T15:39:25.000Z</time>
      </trkpt>
      <trkpt lat="44.7184" lon="5.49986">
        <ele>1826.5999755859</ele>
        <time>2022-05-28T15:39:27.000Z</time>
      </trkpt>
      <trkpt lat="44.71846" lon="5.4998">
        <ele>1826.1999511719</ele>
        <time>2022-05-28T15:39:34.000Z</time>
      </trkpt>
      <trkpt lat="44.71852" lon="5.49972">
        <ele>1827</ele>
        <time>2022-05-28T15:39:44.000Z</time>
      </trkpt>
      <trkpt lat="44.71852" lon="5.49975">
        <ele>1826.8000488281</ele>
        <time>2022-05-28T15:40:01.000Z</time>
      </trkpt>
      <trkpt lat="44.7185" lon="5.49981">
        <ele>1826.4000244141</ele>
        <time>2022-05-28T15:40:06.000Z</time>
      </trkpt>
      <trkpt lat="44.71833" lon="5.50028">
        <ele>1825.4000244141</ele>
        <time>2022-05-28T15:40:42.000Z</time>
      </trkpt>
      <trkpt lat="44.71829" lon="5.50036">
        <ele>1823.4000244141</ele>
        <time>2022-05-28T15:41:07.000Z</time>
      </trkpt>
      <trkpt lat="44.71825" lon="5.50025">
        <ele>1824.8000488281</ele>
        <time>2022-05-28T15:50:33.000Z</time>
      </trkpt>
      <trkpt lat="44.71825" lon="5.50024">
        <ele>1824.8000488281</ele>
        <time>2022-05-28T15:50:34.000Z</time>
      </trkpt>
      <trkpt lat="44.71815" lon="5.50019">
        <ele>1823.5999755859</ele>
        <time>2022-05-28T15:50:47.000Z</time>
      </trkpt>
      <trkpt lat="44.71812" lon="5.50017">
        <ele>1823.1999511719</ele>
        <time>2022-05-28T15:50:51.000Z</time>
      </trkpt>
      <trkpt lat="44.71811" lon="5.50015">
        <ele>1823</ele>
        <time>2022-05-28T15:50:53.000Z</time>
      </trkpt>
      <trkpt lat="44.7181" lon="5.50014">
        <ele>1822</ele>
        <time>2022-05-28T15:50:55.000Z</time>
      </trkpt>
      <trkpt lat="44.71809" lon="5.50014">
        <ele>1821.5999755859</ele>
        <time>2022-05-28T15:50:56.000Z</time>
      </trkpt>
      <trkpt lat="44.71808" lon="5.50014">
        <ele>1820.8000488281</ele>
        <time>2022-05-28T15:50:58.000Z</time>
      </trkpt>
      <trkpt lat="44.71806" lon="5.50014">
        <ele>1820</ele>
        <time>2022-05-28T15:51:00.000Z</time>
      </trkpt>
      <trkpt lat="44.71804" lon="5.50012">
        <ele>1818.8000488281</ele>
        <time>2022-05-28T15:51:05.000Z</time>
      </trkpt>
      <trkpt lat="44.71804" lon="5.50011">
        <ele>1818.5999755859</ele>
        <time>2022-05-28T15:51:06.000Z</time>
      </trkpt>
      <trkpt lat="44.71801" lon="5.50015">
        <ele>1817.1999511719</ele>
        <time>2022-05-28T15:51:16.000Z</time>
      </trkpt>
      <trkpt lat="44.718" lon="5.50016">
        <ele>1817.1999511719</ele>
        <time>2022-05-28T15:51:17.000Z</time>
      </trkpt>
      <trkpt lat="44.718" lon="5.50017">
        <ele>1817</ele>
        <time>2022-05-28T15:51:18.000Z</time>
      </trkpt>
      <trkpt lat="44.71798" lon="5.50017">
        <ele>1816.1999511719</ele>
        <time>2022-05-28T15:51:21.000Z</time>
      </trkpt>
      <trkpt lat="44.71796" lon="5.50016">
        <ele>1815.4000244141</ele>
        <time>2022-05-28T15:51:23.000Z</time>
      </trkpt>
      <trkpt lat="44.71793" lon="5.50014">
        <ele>1813.5999755859</ele>
        <time>2022-05-28T15:51:28.000Z</time>
      </trkpt>
      <trkpt lat="44.71793" lon="5.50013">
        <ele>1813.4000244141</ele>
        <time>2022-05-28T15:51:31.000Z</time>
      </trkpt>
      <trkpt lat="44.71793" lon="5.50013">
        <ele>1813.4000244141</ele>
        <time>2022-05-28T15:51:32.000Z</time>
      </trkpt>
      <trkpt lat="44.71791" lon="5.50016">
        <ele>1813.4000244141</ele>
        <time>2022-05-28T15:51:44.000Z</time>
      </trkpt>
      <trkpt lat="44.71791" lon="5.50022">
        <ele>1814.5999755859</ele>
        <time>2022-05-28T15:51:49.000Z</time>
      </trkpt>
      <trkpt lat="44.71788" lon="5.50037">
        <ele>1813.8000488281</ele>
        <time>2022-05-28T15:52:04.000Z</time>
      </trkpt>
      <trkpt lat="44.7179" lon="5.50053">
        <ele>1813.8000488281</ele>
        <time>2022-05-28T15:52:19.000Z</time>
      </trkpt>
      <trkpt lat="44.71782" lon="5.50071">
        <ele>1807.1999511719</ele>
        <time>2022-05-28T15:52:35.000Z</time>
      </trkpt>
      <trkpt lat="44.71777" lon="5.50084">
        <ele>1802.8000488281</ele>
        <time>2022-05-28T15:52:48.000Z</time>
      </trkpt>
      <trkpt lat="44.71775" lon="5.50088">
        <ele>1801.5999755859</ele>
        <time>2022-05-28T15:52:51.000Z</time>
      </trkpt>
      <trkpt lat="44.71771" lon="5.50095">
        <ele>1799.4000244141</ele>
        <time>2022-05-28T15:52:56.000Z</time>
      </trkpt>
      <trkpt lat="44.71765" lon="5.50117">
        <ele>1795</ele>
        <time>2022-05-28T15:53:28.000Z</time>
      </trkpt>
      <trkpt lat="44.71756" lon="5.50132">
        <ele>1792</ele>
        <time>2022-05-28T15:53:54.000Z</time>
      </trkpt>
      <trkpt lat="44.71755" lon="5.50137">
        <ele>1790.4000244141</ele>
        <time>2022-05-28T15:54:08.000Z</time>
      </trkpt>
      <trkpt lat="44.71755" lon="5.50141">
        <ele>1790.1999511719</ele>
        <time>2022-05-28T15:54:11.000Z</time>
      </trkpt>
      <trkpt lat="44.71752" lon="5.50156">
        <ele>1786.4000244141</ele>
        <time>2022-05-28T15:54:59.000Z</time>
      </trkpt>
      <trkpt lat="44.71749" lon="5.50155">
        <ele>1785.8000488281</ele>
        <time>2022-05-28T15:55:07.000Z</time>
      </trkpt>
      <trkpt lat="44.71745" lon="5.5015">
        <ele>1785.8000488281</ele>
        <time>2022-05-28T15:55:12.000Z</time>
      </trkpt>
      <trkpt lat="44.71741" lon="5.50149">
        <ele>1785</ele>
        <time>2022-05-28T15:55:18.000Z</time>
      </trkpt>
      <trkpt lat="44.71738" lon="5.50145">
        <ele>1785</ele>
        <time>2022-05-28T15:55:23.000Z</time>
      </trkpt>
      <trkpt lat="44.71736" lon="5.50142">
        <ele>1785.4000244141</ele>
        <time>2022-05-28T15:55:26.000Z</time>
      </trkpt>
      <trkpt lat="44.71735" lon="5.50139">
        <ele>1785.5999755859</ele>
        <time>2022-05-28T15:55:29.000Z</time>
      </trkpt>
      <trkpt lat="44.71727" lon="5.50132">
        <ele>1782.8000488281</ele>
        <time>2022-05-28T15:55:39.000Z</time>
      </trkpt>
      <trkpt lat="44.7172" lon="5.50134">
        <ele>1779.8000488281</ele>
        <time>2022-05-28T15:55:50.000Z</time>
      </trkpt>
      <trkpt lat="44.71718" lon="5.50135">
        <ele>1779.1999511719</ele>
        <time>2022-05-28T15:55:52.000Z</time>
      </trkpt>
      <trkpt lat="44.71716" lon="5.50142">
        <ele>1778.4000244141</ele>
        <time>2022-05-28T15:56:00.000Z</time>
      </trkpt>
      <trkpt lat="44.71712" lon="5.50146">
        <ele>1775.8000488281</ele>
        <time>2022-05-28T15:56:08.000Z</time>
      </trkpt>
      <trkpt lat="44.71705" lon="5.50153">
        <ele>1773.8000488281</ele>
        <time>2022-05-28T15:56:22.000Z</time>
      </trkpt>
      <trkpt lat="44.71704" lon="5.50154">
        <ele>1773.5999755859</ele>
        <time>2022-05-28T15:56:25.000Z</time>
      </trkpt>
      <trkpt lat="44.717" lon="5.50156">
        <ele>1772.4000244141</ele>
        <time>2022-05-28T15:56:31.000Z</time>
      </trkpt>
      <trkpt lat="44.71691" lon="5.50167">
        <ele>1769</ele>
        <time>2022-05-28T15:56:48.000Z</time>
      </trkpt>
      <trkpt lat="44.71689" lon="5.50178">
        <ele>1767.4000244141</ele>
        <time>2022-05-28T15:56:59.000Z</time>
      </trkpt>
      <trkpt lat="44.71687" lon="5.50182">
        <ele>1765.5999755859</ele>
        <time>2022-05-28T15:57:27.000Z</time>
      </trkpt>
      <trkpt lat="44.71685" lon="5.50186">
        <ele>1763.5999755859</ele>
        <time>2022-05-28T15:57:29.000Z</time>
      </trkpt>
      <trkpt lat="44.71672" lon="5.50203">
        <ele>1751.4000244141</ele>
        <time>2022-05-28T15:57:44.000Z</time>
      </trkpt>
      <trkpt lat="44.71659" lon="5.50224">
        <ele>1740.4000244141</ele>
        <time>2022-05-28T15:57:59.000Z</time>
      </trkpt>
      <trkpt lat="44.71656" lon="5.50235">
        <ele>1737.5999755859</ele>
        <time>2022-05-28T15:58:08.000Z</time>
      </trkpt>
      <trkpt lat="44.71654" lon="5.50247">
        <ele>1735.8000488281</ele>
        <time>2022-05-28T15:58:21.000Z</time>
      </trkpt>
      <trkpt lat="44.71655" lon="5.50258">
        <ele>1735.8000488281</ele>
        <time>2022-05-28T15:58:30.000Z</time>
      </trkpt>
      <trkpt lat="44.71661" lon="5.50263">
        <ele>1737.8000488281</ele>
        <time>2022-05-28T15:58:39.000Z</time>
      </trkpt>
      <trkpt lat="44.71669" lon="5.50279">
        <ele>1740.5999755859</ele>
        <time>2022-05-28T15:58:49.000Z</time>
      </trkpt>
      <trkpt lat="44.71651" lon="5.50322">
        <ele>1740</ele>
        <time>2022-05-28T15:59:00.000Z</time>
      </trkpt>
      <trkpt lat="44.71649" lon="5.50331">
        <ele>1742.5999755859</ele>
        <time>2022-05-28T15:59:03.000Z</time>
      </trkpt>
      <trkpt lat="44.71646" lon="5.50337">
        <ele>1743.1999511719</ele>
        <time>2022-05-28T15:59:04.000Z</time>
      </trkpt>
      <trkpt lat="44.71646" lon="5.50337">
        <ele>1743.1999511719</ele>
        <time>2022-05-28T15:59:05.000Z</time>
      </trkpt>
      <trkpt lat="44.71646" lon="5.5034">
        <ele>1744.5999755859</ele>
        <time>2022-05-28T15:59:06.000Z</time>
      </trkpt>
      <trkpt lat="44.71645" lon="5.50343">
        <ele>1746</ele>
        <time>2022-05-28T15:59:07.000Z</time>
      </trkpt>
      <trkpt lat="44.71645" lon="5.50345">
        <ele>1746.8000488281</ele>
        <time>2022-05-28T15:59:08.000Z</time>
      </trkpt>
      <trkpt lat="44.71644" lon="5.50346">
        <ele>1747</ele>
        <time>2022-05-28T15:59:09.000Z</time>
      </trkpt>
      <trkpt lat="44.71644" lon="5.50346">
        <ele>1747</ele>
        <time>2022-05-28T15:59:10.000Z</time>
      </trkpt>
      <trkpt lat="44.71644" lon="5.50346">
        <ele>1747</ele>
        <time>2022-05-28T15:59:12.000Z</time>
      </trkpt>
      <trkpt lat="44.71645" lon="5.50348">
        <ele>1747.5999755859</ele>
        <time>2022-05-28T15:59:17.000Z</time>
      </trkpt>
      <trkpt lat="44.71644" lon="5.50354">
        <ele>1749.4000244141</ele>
        <time>2022-05-28T15:59:23.000Z</time>
      </trkpt>
      <trkpt lat="44.71644" lon="5.50355">
        <ele>1749.8000488281</ele>
        <time>2022-05-28T15:59:24.000Z</time>
      </trkpt>
      <trkpt lat="44.71645" lon="5.50356">
        <ele>1750.4000244141</ele>
        <time>2022-05-28T15:59:29.000Z</time>
      </trkpt>
      <trkpt lat="44.71645" lon="5.50357">
        <ele>1750.5999755859</ele>
        <time>2022-05-28T15:59:32.000Z</time>
      </trkpt>
      <trkpt lat="44.71646" lon="5.5036">
        <ele>1751.1999511719</ele>
        <time>2022-05-28T15:59:37.000Z</time>
      </trkpt>
      <trkpt lat="44.71647" lon="5.50363">
        <ele>1750.5999755859</ele>
        <time>2022-05-28T15:59:41.000Z</time>
      </trkpt>
      <trkpt lat="44.71649" lon="5.50367">
        <ele>1749.8000488281</ele>
        <time>2022-05-28T15:59:46.000Z</time>
      </trkpt>
      <trkpt lat="44.71649" lon="5.50376">
        <ele>1751.4000244141</ele>
        <time>2022-05-28T15:59:53.000Z</time>
      </trkpt>
      <trkpt lat="44.71649" lon="5.50377">
        <ele>1751.8000488281</ele>
        <time>2022-05-28T15:59:54.000Z</time>
      </trkpt>
      <trkpt lat="44.71648" lon="5.50378">
        <ele>1752</ele>
        <time>2022-05-28T15:59:55.000Z</time>
      </trkpt>
      <trkpt lat="44.71648" lon="5.50379">
        <ele>1752.1999511719</ele>
        <time>2022-05-28T15:59:56.000Z</time>
      </trkpt>
      <trkpt lat="44.71648" lon="5.50381">
        <ele>1752.5999755859</ele>
        <time>2022-05-28T15:59:58.000Z</time>
      </trkpt>
      <trkpt lat="44.71647" lon="5.5039">
        <ele>1754</ele>
        <time>2022-05-28T16:00:08.000Z</time>
      </trkpt>
      <trkpt lat="44.71651" lon="5.50395">
        <ele>1751</ele>
        <time>2022-05-28T16:00:13.000Z</time>
      </trkpt>
      <trkpt lat="44.71654" lon="5.50409">
        <ele>1748.4000244141</ele>
        <time>2022-05-28T16:00:29.000Z</time>
      </trkpt>
      <trkpt lat="44.71654" lon="5.5041">
        <ele>1748.5999755859</ele>
        <time>2022-05-28T16:00:30.000Z</time>
      </trkpt>
      <trkpt lat="44.71649" lon="5.50419">
        <ele>1753.1999511719</ele>
        <time>2022-05-28T16:00:44.000Z</time>
      </trkpt>
      <trkpt lat="44.71646" lon="5.50423">
        <ele>1755.5999755859</ele>
        <time>2022-05-28T16:00:51.000Z</time>
      </trkpt>
      <trkpt lat="44.71645" lon="5.5043">
        <ele>1757.4000244141</ele>
        <time>2022-05-28T16:01:00.000Z</time>
      </trkpt>
      <trkpt lat="44.71642" lon="5.50447">
        <ele>1761</ele>
        <time>2022-05-28T16:01:21.000Z</time>
      </trkpt>
      <trkpt lat="44.71621" lon="5.5049">
        <ele>1776.8000488281</ele>
        <time>2022-05-28T16:02:30.000Z</time>
      </trkpt>
      <trkpt lat="44.71616" lon="5.50492">
        <ele>1779.8000488281</ele>
        <time>2022-05-28T16:02:41.000Z</time>
      </trkpt>
      <trkpt lat="44.71611" lon="5.50497">
        <ele>1780.8000488281</ele>
        <time>2022-05-28T16:02:49.000Z</time>
      </trkpt>
      <trkpt lat="44.71609" lon="5.50502">
        <ele>1780.8000488281</ele>
        <time>2022-05-28T16:02:55.000Z</time>
      </trkpt>
      <trkpt lat="44.71608" lon="5.50505">
        <ele>1780.1999511719</ele>
        <time>2022-05-28T16:02:57.000Z</time>
      </trkpt>
      <trkpt lat="44.71605" lon="5.50509">
        <ele>1779.8000488281</ele>
        <time>2022-05-28T16:03:03.000Z</time>
      </trkpt>
      <trkpt lat="44.71604" lon="5.50512">
        <ele>1779.1999511719</ele>
        <time>2022-05-28T16:03:06.000Z</time>
      </trkpt>
      <trkpt lat="44.71602" lon="5.50517">
        <ele>1779</ele>
        <time>2022-05-28T16:03:12.000Z</time>
      </trkpt>
      <trkpt lat="44.71601" lon="5.50526">
        <ele>1777.5999755859</ele>
        <time>2022-05-28T16:03:20.000Z</time>
      </trkpt>
      <trkpt lat="44.71602" lon="5.50531">
        <ele>1775</ele>
        <time>2022-05-28T16:03:25.000Z</time>
      </trkpt>
      <trkpt lat="44.716" lon="5.5054">
        <ele>1771.5999755859</ele>
        <time>2022-05-28T16:03:32.000Z</time>
      </trkpt>
      <trkpt lat="44.71597" lon="5.50561">
        <ele>1767</ele>
        <time>2022-05-28T16:03:49.000Z</time>
      </trkpt>
      <trkpt lat="44.71599" lon="5.50564">
        <ele>1763.4000244141</ele>
        <time>2022-05-28T16:03:57.000Z</time>
      </trkpt>
      <trkpt lat="44.71591" lon="5.50558">
        <ele>1773</ele>
        <time>2022-05-28T16:04:33.000Z</time>
      </trkpt>
      <trkpt lat="44.71592" lon="5.5056">
        <ele>1771</ele>
        <time>2022-05-28T16:04:47.000Z</time>
      </trkpt>
      <trkpt lat="44.71592" lon="5.50559">
        <ele>1770.8000488281</ele>
        <time>2022-05-28T16:04:51.000Z</time>
      </trkpt>
      <trkpt lat="44.71593" lon="5.50559">
        <ele>1770.8000488281</ele>
        <time>2022-05-28T16:04:55.000Z</time>
      </trkpt>
      <trkpt lat="44.71595" lon="5.50561">
        <ele>1768.1999511719</ele>
        <time>2022-05-28T16:05:00.000Z</time>
      </trkpt>
      <trkpt lat="44.716" lon="5.50563">
        <ele>1763.8000488281</ele>
        <time>2022-05-28T16:05:06.000Z</time>
      </trkpt>
      <trkpt lat="44.71602" lon="5.50563">
        <ele>1762</ele>
        <time>2022-05-28T16:05:09.000Z</time>
      </trkpt>
      <trkpt lat="44.71608" lon="5.50559">
        <ele>1760.1999511719</ele>
        <time>2022-05-28T16:05:15.000Z</time>
      </trkpt>
      <trkpt lat="44.7161" lon="5.50558">
        <ele>1759.5999755859</ele>
        <time>2022-05-28T16:05:17.000Z</time>
      </trkpt>
      <trkpt lat="44.71612" lon="5.50557">
        <ele>1758.8000488281</ele>
        <time>2022-05-28T16:05:18.000Z</time>
      </trkpt>
      <trkpt lat="44.71614" lon="5.50556">
        <ele>1758.1999511719</ele>
        <time>2022-05-28T16:05:19.000Z</time>
      </trkpt>
      <trkpt lat="44.71614" lon="5.50556">
        <ele>1758.1999511719</ele>
        <time>2022-05-28T16:05:20.000Z</time>
      </trkpt>
      <trkpt lat="44.71615" lon="5.50556">
        <ele>1757.8000488281</ele>
        <time>2022-05-28T16:05:21.000Z</time>
      </trkpt>
      <trkpt lat="44.71615" lon="5.50556">
        <ele>1757.1999511719</ele>
        <time>2022-05-28T16:05:22.000Z</time>
      </trkpt>
      <trkpt lat="44.71616" lon="5.50556">
        <ele>1756.8000488281</ele>
        <time>2022-05-28T16:05:23.000Z</time>
      </trkpt>
      <trkpt lat="44.71617" lon="5.50556">
        <ele>1755.8000488281</ele>
        <time>2022-05-28T16:05:26.000Z</time>
      </trkpt>
      <trkpt lat="44.71618" lon="5.50556">
        <ele>1755</ele>
        <time>2022-05-28T16:05:33.000Z</time>
      </trkpt>
      <trkpt lat="44.71619" lon="5.50556">
        <ele>1754</ele>
        <time>2022-05-28T16:05:35.000Z</time>
      </trkpt>
      <trkpt lat="44.7162" lon="5.50557">
        <ele>1752</ele>
        <time>2022-05-28T16:05:40.000Z</time>
      </trkpt>
      <trkpt lat="44.7162" lon="5.50557">
        <ele>1751.8000488281</ele>
        <time>2022-05-28T16:05:41.000Z</time>
      </trkpt>
      <trkpt lat="44.71621" lon="5.50557">
        <ele>1751.1999511719</ele>
        <time>2022-05-28T16:05:42.000Z</time>
      </trkpt>
      <trkpt lat="44.7162" lon="5.50557">
        <ele>1752</ele>
        <time>2022-05-28T16:06:00.000Z</time>
      </trkpt>
      <trkpt lat="44.71619" lon="5.5056">
        <ele>1752</ele>
        <time>2022-05-28T16:06:18.000Z</time>
      </trkpt>
      <trkpt lat="44.71619" lon="5.50559">
        <ele>1752</ele>
        <time>2022-05-28T16:06:26.000Z</time>
      </trkpt>
      <trkpt lat="44.71619" lon="5.50561">
        <ele>1751.1999511719</ele>
        <time>2022-05-28T16:06:34.000Z</time>
      </trkpt>
      <trkpt lat="44.7162" lon="5.50559">
        <ele>1751</ele>
        <time>2022-05-28T16:06:41.000Z</time>
      </trkpt>
      <trkpt lat="44.7162" lon="5.5056">
        <ele>1751</ele>
        <time>2022-05-28T16:06:48.000Z</time>
      </trkpt>
      <trkpt lat="44.71621" lon="5.50554">
        <ele>1752.5999755859</ele>
        <time>2022-05-28T16:07:03.000Z</time>
      </trkpt>
      <trkpt lat="44.71623" lon="5.50549">
        <ele>1753</ele>
        <time>2022-05-28T16:07:25.000Z</time>
      </trkpt>
      <trkpt lat="44.71623" lon="5.50549">
        <ele>1753.4000244141</ele>
        <time>2022-05-28T16:07:27.000Z</time>
      </trkpt>
      <trkpt lat="44.71623" lon="5.50548">
        <ele>1754</ele>
        <time>2022-05-28T16:07:29.000Z</time>
      </trkpt>
      <trkpt lat="44.71622" lon="5.50548">
        <ele>1754.1999511719</ele>
        <time>2022-05-28T16:07:30.000Z</time>
      </trkpt>
      <trkpt lat="44.71622" lon="5.50548">
        <ele>1754.5999755859</ele>
        <time>2022-05-28T16:07:58.000Z</time>
      </trkpt>
      <trkpt lat="44.71622" lon="5.50546">
        <ele>1755.5999755859</ele>
        <time>2022-05-28T16:08:07.000Z</time>
      </trkpt>
      <trkpt lat="44.71623" lon="5.50546">
        <ele>1755</ele>
        <time>2022-05-28T16:08:19.000Z</time>
      </trkpt>
      <trkpt lat="44.71623" lon="5.50545">
        <ele>1755.1999511719</ele>
        <time>2022-05-28T16:08:21.000Z</time>
      </trkpt>
      <trkpt lat="44.71623" lon="5.50547">
        <ele>1754.5999755859</ele>
        <time>2022-05-28T16:08:46.000Z</time>
      </trkpt>
      <trkpt lat="44.71623" lon="5.50547">
        <ele>1754.5999755859</ele>
        <time>2022-05-28T16:08:47.000Z</time>
      </trkpt>
      <trkpt lat="44.71623" lon="5.50548">
        <ele>1753.8000488281</ele>
        <time>2022-05-28T16:08:55.000Z</time>
      </trkpt>
      <trkpt lat="44.71623" lon="5.50549">
        <ele>1752.4000244141</ele>
        <time>2022-05-28T16:09:07.000Z</time>
      </trkpt>
      <trkpt lat="44.71626" lon="5.5055">
        <ele>1749.5999755859</ele>
        <time>2022-05-28T16:09:15.000Z</time>
      </trkpt>
      <trkpt lat="44.71626" lon="5.5055">
        <ele>1749.8000488281</ele>
        <time>2022-05-28T16:09:17.000Z</time>
      </trkpt>
      <trkpt lat="44.71627" lon="5.50548">
        <ele>1749.1999511719</ele>
        <time>2022-05-28T16:09:25.000Z</time>
      </trkpt>
      <trkpt lat="44.71627" lon="5.50548">
        <ele>1749.1999511719</ele>
        <time>2022-05-28T16:09:26.000Z</time>
      </trkpt>
      <trkpt lat="44.71628" lon="5.50548">
        <ele>1748.1999511719</ele>
        <time>2022-05-28T16:09:39.000Z</time>
      </trkpt>
      <trkpt lat="44.71628" lon="5.50548">
        <ele>1748.4000244141</ele>
        <time>2022-05-28T16:09:40.000Z</time>
      </trkpt>
      <trkpt lat="44.71627" lon="5.50548">
        <ele>1748.8000488281</ele>
        <time>2022-05-28T16:09:47.000Z</time>
      </trkpt>
      <trkpt lat="44.71627" lon="5.50548">
        <ele>1748.8000488281</ele>
        <time>2022-05-28T16:09:52.000Z</time>
      </trkpt>
      <trkpt lat="44.71624" lon="5.50549">
        <ele>1752.1999511719</ele>
        <time>2022-05-28T16:10:00.000Z</time>
      </trkpt>
      <trkpt lat="44.7162" lon="5.5055">
        <ele>1755.5999755859</ele>
        <time>2022-05-28T16:10:04.000Z</time>
      </trkpt>
      <trkpt lat="44.71616" lon="5.50549">
        <ele>1760</ele>
        <time>2022-05-28T16:10:18.000Z</time>
      </trkpt>
      <trkpt lat="44.71615" lon="5.50549">
        <ele>1760.1999511719</ele>
        <time>2022-05-28T16:10:22.000Z</time>
      </trkpt>
      <trkpt lat="44.71614" lon="5.50549">
        <ele>1760.8000488281</ele>
        <time>2022-05-28T16:10:25.000Z</time>
      </trkpt>
      <trkpt lat="44.71614" lon="5.50549">
        <ele>1761</ele>
        <time>2022-05-28T16:10:28.000Z</time>
      </trkpt>
      <trkpt lat="44.71615" lon="5.50549">
        <ele>1760.8000488281</ele>
        <time>2022-05-28T16:10:30.000Z</time>
      </trkpt>
      <trkpt lat="44.71615" lon="5.50549">
        <ele>1760.1999511719</ele>
        <time>2022-05-28T16:10:46.000Z</time>
      </trkpt>
      <trkpt lat="44.71615" lon="5.5055">
        <ele>1760.1999511719</ele>
        <time>2022-05-28T16:10:52.000Z</time>
      </trkpt>
      <trkpt lat="44.71615" lon="5.5055">
        <ele>1759.5999755859</ele>
        <time>2022-05-28T16:11:14.000Z</time>
      </trkpt>
      <trkpt lat="44.71617" lon="5.5055">
        <ele>1759.4000244141</ele>
        <time>2022-05-28T16:11:22.000Z</time>
      </trkpt>
      <trkpt lat="44.71617" lon="5.50549">
        <ele>1759.8000488281</ele>
        <time>2022-05-28T16:11:33.000Z</time>
      </trkpt>
      <trkpt lat="44.71616" lon="5.50552">
        <ele>1758.1999511719</ele>
        <time>2022-05-28T16:11:45.000Z</time>
      </trkpt>
      <trkpt lat="44.71613" lon="5.50556">
        <ele>1758.4000244141</ele>
        <time>2022-05-28T16:11:49.000Z</time>
      </trkpt>
      <trkpt lat="44.71607" lon="5.50567">
        <ele>1756.1999511719</ele>
        <time>2022-05-28T16:11:59.000Z</time>
      </trkpt>
      <trkpt lat="44.71606" lon="5.50569">
        <ele>1756.1999511719</ele>
        <time>2022-05-28T16:12:01.000Z</time>
      </trkpt>
      <trkpt lat="44.71602" lon="5.50574">
        <ele>1757</ele>
        <time>2022-05-28T16:12:09.000Z</time>
      </trkpt>
      <trkpt lat="44.71601" lon="5.50573">
        <ele>1758.1999511719</ele>
        <time>2022-05-28T16:12:14.000Z</time>
      </trkpt>
      <trkpt lat="44.71596" lon="5.50579">
        <ele>1761.1999511719</ele>
        <time>2022-05-28T16:12:22.000Z</time>
      </trkpt>
      <trkpt lat="44.71593" lon="5.50585">
        <ele>1762.1999511719</ele>
        <time>2022-05-28T16:12:41.000Z</time>
      </trkpt>
      <trkpt lat="44.71591" lon="5.50586">
        <ele>1763.1999511719</ele>
        <time>2022-05-28T16:12:50.000Z</time>
      </trkpt>
      <trkpt lat="44.71586" lon="5.5059">
        <ele>1763.8000488281</ele>
        <time>2022-05-28T16:13:08.000Z</time>
      </trkpt>
      <trkpt lat="44.71579" lon="5.50598">
        <ele>1762</ele>
        <time>2022-05-28T16:13:21.000Z</time>
      </trkpt>
      <trkpt lat="44.71578" lon="5.50599">
        <ele>1761.5999755859</ele>
        <time>2022-05-28T16:13:24.000Z</time>
      </trkpt>
      <trkpt lat="44.71578" lon="5.50601">
        <ele>1761</ele>
        <time>2022-05-28T16:13:29.000Z</time>
      </trkpt>
      <trkpt lat="44.71576" lon="5.50602">
        <ele>1761.1999511719</ele>
        <time>2022-05-28T16:13:34.000Z</time>
      </trkpt>
      <trkpt lat="44.71576" lon="5.50602">
        <ele>1761.1999511719</ele>
        <time>2022-05-28T16:13:35.000Z</time>
      </trkpt>
      <trkpt lat="44.71575" lon="5.506">
        <ele>1762</ele>
        <time>2022-05-28T16:13:59.000Z</time>
      </trkpt>
      <trkpt lat="44.71575" lon="5.506">
        <ele>1762</ele>
        <time>2022-05-28T16:14:09.000Z</time>
      </trkpt>
      <trkpt lat="44.71576" lon="5.506">
        <ele>1761.8000488281</ele>
        <time>2022-05-28T16:14:18.000Z</time>
      </trkpt>
      <trkpt lat="44.71574" lon="5.50602">
        <ele>1761.8000488281</ele>
        <time>2022-05-28T16:14:33.000Z</time>
      </trkpt>
      <trkpt lat="44.71567" lon="5.50602">
        <ele>1763.5999755859</ele>
        <time>2022-05-28T16:14:47.000Z</time>
      </trkpt>
      <trkpt lat="44.71555" lon="5.50601">
        <ele>1764.1999511719</ele>
        <time>2022-05-28T16:14:57.000Z</time>
      </trkpt>
      <trkpt lat="44.71551" lon="5.50601">
        <ele>1763.4000244141</ele>
        <time>2022-05-28T16:15:00.000Z</time>
      </trkpt>
      <trkpt lat="44.71549" lon="5.50601">
        <ele>1763.1999511719</ele>
        <time>2022-05-28T16:15:02.000Z</time>
      </trkpt>
      <trkpt lat="44.71545" lon="5.50603">
        <ele>1762.4000244141</ele>
        <time>2022-05-28T16:15:06.000Z</time>
      </trkpt>
      <trkpt lat="44.71535" lon="5.50609">
        <ele>1760.4000244141</ele>
        <time>2022-05-28T16:15:15.000Z</time>
      </trkpt>
      <trkpt lat="44.71526" lon="5.50611">
        <ele>1757.5999755859</ele>
        <time>2022-05-28T16:15:21.000Z</time>
      </trkpt>
      <trkpt lat="44.7152" lon="5.50619">
        <ele>1754.1999511719</ele>
        <time>2022-05-28T16:15:27.000Z</time>
      </trkpt>
      <trkpt lat="44.71518" lon="5.50624">
        <ele>1752.5999755859</ele>
        <time>2022-05-28T16:15:30.000Z</time>
      </trkpt>
      <trkpt lat="44.71516" lon="5.50634">
        <ele>1751.5999755859</ele>
        <time>2022-05-28T16:15:36.000Z</time>
      </trkpt>
      <trkpt lat="44.71514" lon="5.50635">
        <ele>1751</ele>
        <time>2022-05-28T16:15:40.000Z</time>
      </trkpt>
      <trkpt lat="44.71515" lon="5.50636">
        <ele>1751</ele>
        <time>2022-05-28T16:15:56.000Z</time>
      </trkpt>
      <trkpt lat="44.71498" lon="5.50652">
        <ele>1744.4000244141</ele>
        <time>2022-05-28T16:16:15.000Z</time>
      </trkpt>
      <trkpt lat="44.71496" lon="5.50665">
        <ele>1741.8000488281</ele>
        <time>2022-05-28T16:16:28.000Z</time>
      </trkpt>
      <trkpt lat="44.71489" lon="5.50679">
        <ele>1735.1999511719</ele>
        <time>2022-05-28T16:17:10.000Z</time>
      </trkpt>
      <trkpt lat="44.71489" lon="5.50684">
        <ele>1734</ele>
        <time>2022-05-28T16:17:14.000Z</time>
      </trkpt>
      <trkpt lat="44.71485" lon="5.50691">
        <ele>1731.5999755859</ele>
        <time>2022-05-28T16:17:29.000Z</time>
      </trkpt>
      <trkpt lat="44.71485" lon="5.5069">
        <ele>1731.5999755859</ele>
        <time>2022-05-28T16:17:35.000Z</time>
      </trkpt>
      <trkpt lat="44.71485" lon="5.5069">
        <ele>1731.8000488281</ele>
        <time>2022-05-28T16:17:45.000Z</time>
      </trkpt>
      <trkpt lat="44.71485" lon="5.50691">
        <ele>1731.4000244141</ele>
        <time>2022-05-28T16:18:04.000Z</time>
      </trkpt>
      <trkpt lat="44.71485" lon="5.50691">
        <ele>1731.4000244141</ele>
        <time>2022-05-28T16:18:12.000Z</time>
      </trkpt>
      <trkpt lat="44.71485" lon="5.50691">
        <ele>1731.4000244141</ele>
        <time>2022-05-28T16:18:19.000Z</time>
      </trkpt>
      <trkpt lat="44.71485" lon="5.50691">
        <ele>1731.4000244141</ele>
        <time>2022-05-28T16:18:25.000Z</time>
      </trkpt>
      <trkpt lat="44.71484" lon="5.50691">
        <ele>1731.4000244141</ele>
        <time>2022-05-28T16:18:34.000Z</time>
      </trkpt>
      <trkpt lat="44.71485" lon="5.50691">
        <ele>1731.4000244141</ele>
        <time>2022-05-28T16:18:42.000Z</time>
      </trkpt>
      <trkpt lat="44.71485" lon="5.50691">
        <ele>1731.4000244141</ele>
        <time>2022-05-28T16:18:55.000Z</time>
      </trkpt>
      <trkpt lat="44.71485" lon="5.5069">
        <ele>1731.5999755859</ele>
        <time>2022-05-28T16:19:12.000Z</time>
      </trkpt>
      <trkpt lat="44.71487" lon="5.50687">
        <ele>1732.8000488281</ele>
        <time>2022-05-28T16:20:21.000Z</time>
      </trkpt>
      <trkpt lat="44.71488" lon="5.50689">
        <ele>1732.5999755859</ele>
        <time>2022-05-28T16:21:02.000Z</time>
      </trkpt>
      <trkpt lat="44.71488" lon="5.50689">
        <ele>1732.5999755859</ele>
        <time>2022-05-28T16:21:25.000Z</time>
      </trkpt>
      <trkpt lat="44.71488" lon="5.50689">
        <ele>1732.5999755859</ele>
        <time>2022-05-28T16:21:58.000Z</time>
      </trkpt>
      <trkpt lat="44.71488" lon="5.50689">
        <ele>1732.5999755859</ele>
        <time>2022-05-28T16:21:59.000Z</time>
      </trkpt>
      <trkpt lat="44.71488" lon="5.50689">
        <ele>1732.5999755859</ele>
        <time>2022-05-28T16:22:00.000Z</time>
      </trkpt>
      <trkpt lat="44.71488" lon="5.50689">
        <ele>1732.5999755859</ele>
        <time>2022-05-28T16:22:01.000Z</time>
      </trkpt>
      <trkpt lat="44.71488" lon="5.50689">
        <ele>1732.5999755859</ele>
        <time>2022-05-28T16:22:02.000Z</time>
      </trkpt>
      <trkpt lat="44.71488" lon="5.50689">
        <ele>1732.5999755859</ele>
        <time>2022-05-28T16:22:06.000Z</time>
      </trkpt>
      <trkpt lat="44.71487" lon="5.5069">
        <ele>1732.1999511719</ele>
        <time>2022-05-28T16:22:11.000Z</time>
      </trkpt>
      <trkpt lat="44.71488" lon="5.50689">
        <ele>1732.5999755859</ele>
        <time>2022-05-28T16:22:13.000Z</time>
      </trkpt>
      <trkpt lat="44.71488" lon="5.50689">
        <ele>1732.5999755859</ele>
        <time>2022-05-28T16:22:15.000Z</time>
      </trkpt>
      <trkpt lat="44.71488" lon="5.5069">
        <ele>1732.5999755859</ele>
        <time>2022-05-28T16:22:16.000Z</time>
      </trkpt>
      <trkpt lat="44.71488" lon="5.50691">
        <ele>1732.4000244141</ele>
        <time>2022-05-28T16:22:18.000Z</time>
      </trkpt>
      <trkpt lat="44.7149" lon="5.50692">
        <ele>1732.5999755859</ele>
        <time>2022-05-28T16:22:20.000Z</time>
      </trkpt>
      <trkpt lat="44.7149" lon="5.50692">
        <ele>1732.4000244141</ele>
        <time>2022-05-28T16:22:22.000Z</time>
      </trkpt>
      <trkpt lat="44.7149" lon="5.50692">
        <ele>1732.4000244141</ele>
        <time>2022-05-28T16:22:25.000Z</time>
      </trkpt>
      <trkpt lat="44.7149" lon="5.50692">
        <ele>1732.4000244141</ele>
        <time>2022-05-28T16:22:30.000Z</time>
      </trkpt>
      <trkpt lat="44.71489" lon="5.50693">
        <ele>1732</ele>
        <time>2022-05-28T16:22:33.000Z</time>
      </trkpt>
      <trkpt lat="44.71489" lon="5.50694">
        <ele>1731.8000488281</ele>
        <time>2022-05-28T16:22:34.000Z</time>
      </trkpt>
      <trkpt lat="44.71489" lon="5.50694">
        <ele>1731.8000488281</ele>
        <time>2022-05-28T16:22:42.000Z</time>
      </trkpt>
      <trkpt lat="44.71489" lon="5.50694">
        <ele>1731.8000488281</ele>
        <time>2022-05-28T16:23:05.000Z</time>
      </trkpt>
      <trkpt lat="44.71489" lon="5.50694">
        <ele>1731.8000488281</ele>
        <time>2022-05-28T16:23:08.000Z</time>
      </trkpt>
      <trkpt lat="44.71489" lon="5.50694">
        <ele>1731.8000488281</ele>
        <time>2022-05-28T16:23:28.000Z</time>
      </trkpt>
      <trkpt lat="44.71488" lon="5.50694">
        <ele>1731.8000488281</ele>
        <time>2022-05-28T16:23:38.000Z</time>
      </trkpt>
      <trkpt lat="44.71488" lon="5.50694">
        <ele>1731.5999755859</ele>
        <time>2022-05-28T16:23:54.000Z</time>
      </trkpt>
      <trkpt lat="44.71489" lon="5.50693">
        <ele>1732</ele>
        <time>2022-05-28T16:24:42.000Z</time>
      </trkpt>
      <trkpt lat="44.71489" lon="5.50693">
        <ele>1732</ele>
        <time>2022-05-28T16:24:45.000Z</time>
      </trkpt>
      <trkpt lat="44.71489" lon="5.50694">
        <ele>1732</ele>
        <time>2022-05-28T16:25:03.000Z</time>
      </trkpt>
      <trkpt lat="44.71488" lon="5.50694">
        <ele>1731.5999755859</ele>
        <time>2022-05-28T16:25:20.000Z</time>
      </trkpt>
      <trkpt lat="44.71488" lon="5.50694">
        <ele>1731.5999755859</ele>
        <time>2022-05-28T16:25:27.000Z</time>
      </trkpt>
      <trkpt lat="44.71493" lon="5.50694">
        <ele>1733</ele>
        <time>2022-05-28T16:25:53.000Z</time>
      </trkpt>
      <trkpt lat="44.71494" lon="5.50695">
        <ele>1733</ele>
        <time>2022-05-28T16:26:00.000Z</time>
      </trkpt>
      <trkpt lat="44.71494" lon="5.50695">
        <ele>1733</ele>
        <time>2022-05-28T16:26:01.000Z</time>
      </trkpt>
      <trkpt lat="44.71495" lon="5.50695">
        <ele>1732.8000488281</ele>
        <time>2022-05-28T16:26:04.000Z</time>
      </trkpt>
      <trkpt lat="44.71495" lon="5.50695">
        <ele>1733.1999511719</ele>
        <time>2022-05-28T16:26:23.000Z</time>
      </trkpt>
      <trkpt lat="44.71494" lon="5.50692">
        <ele>1733.4000244141</ele>
        <time>2022-05-28T16:26:32.000Z</time>
      </trkpt>
      <trkpt lat="44.71492" lon="5.50691">
        <ele>1733.1999511719</ele>
        <time>2022-05-28T16:26:40.000Z</time>
      </trkpt>
      <trkpt lat="44.7149" lon="5.50691">
        <ele>1732.5999755859</ele>
        <time>2022-05-28T16:26:47.000Z</time>
      </trkpt>
      <trkpt lat="44.71489" lon="5.50694">
        <ele>1732</ele>
        <time>2022-05-28T16:27:01.000Z</time>
      </trkpt>
      <trkpt lat="44.7149" lon="5.50694">
        <ele>1732.1999511719</ele>
        <time>2022-05-28T16:27:03.000Z</time>
      </trkpt>
      <trkpt lat="44.71521" lon="5.50644">
        <ele>1750.8000488281</ele>
        <time>2022-05-28T16:37:09.000Z</time>
      </trkpt>
      <trkpt lat="44.7152" lon="5.50648">
        <ele>1749.5999755859</ele>
        <time>2022-05-28T16:37:10.000Z</time>
      </trkpt>
      <trkpt lat="44.71519" lon="5.50649">
        <ele>1749.1999511719</ele>
        <time>2022-05-28T16:37:11.000Z</time>
      </trkpt>
      <trkpt lat="44.71534" lon="5.50626">
        <ele>1757.4000244141</ele>
        <time>2022-05-28T16:37:16.000Z</time>
      </trkpt>
      <trkpt lat="44.71537" lon="5.50623">
        <ele>1757.8000488281</ele>
        <time>2022-05-28T16:37:18.000Z</time>
      </trkpt>
      <trkpt lat="44.71537" lon="5.50622">
        <ele>1758.1999511719</ele>
        <time>2022-05-28T16:37:19.000Z</time>
      </trkpt>
      <trkpt lat="44.71539" lon="5.50619">
        <ele>1758.5999755859</ele>
        <time>2022-05-28T16:37:20.000Z</time>
      </trkpt>
      <trkpt lat="44.71539" lon="5.50619">
        <ele>1758.5999755859</ele>
        <time>2022-05-28T16:37:21.000Z</time>
      </trkpt>
      <trkpt lat="44.71541" lon="5.50617">
        <ele>1759.1999511719</ele>
        <time>2022-05-28T16:37:23.000Z</time>
      </trkpt>
      <trkpt lat="44.71542" lon="5.50616">
        <ele>1759.5999755859</ele>
        <time>2022-05-28T16:37:24.000Z</time>
      </trkpt>
      <trkpt lat="44.71545" lon="5.50614">
        <ele>1760.4000244141</ele>
        <time>2022-05-28T16:37:27.000Z</time>
      </trkpt>
      <trkpt lat="44.71547" lon="5.50614">
        <ele>1760.8000488281</ele>
        <time>2022-05-28T16:37:28.000Z</time>
      </trkpt>
      <trkpt lat="44.71548" lon="5.50613">
        <ele>1761</ele>
        <time>2022-05-28T16:37:29.000Z</time>
      </trkpt>
      <trkpt lat="44.7155" lon="5.50612">
        <ele>1761.4000244141</ele>
        <time>2022-05-28T16:37:31.000Z</time>
      </trkpt>
      <trkpt lat="44.71552" lon="5.5061">
        <ele>1762.1999511719</ele>
        <time>2022-05-28T16:37:34.000Z</time>
      </trkpt>
      <trkpt lat="44.71553" lon="5.50608">
        <ele>1762.5999755859</ele>
        <time>2022-05-28T16:37:36.000Z</time>
      </trkpt>
      <trkpt lat="44.71559" lon="5.50591">
        <ele>1766.8000488281</ele>
        <time>2022-05-28T16:37:49.000Z</time>
      </trkpt>
      <trkpt lat="44.7156" lon="5.5059">
        <ele>1767.4000244141</ele>
        <time>2022-05-28T16:37:51.000Z</time>
      </trkpt>
      <trkpt lat="44.71561" lon="5.50587">
        <ele>1768</ele>
        <time>2022-05-28T16:37:53.000Z</time>
      </trkpt>
      <trkpt lat="44.71561" lon="5.50586">
        <ele>1768.4000244141</ele>
        <time>2022-05-28T16:37:54.000Z</time>
      </trkpt>
      <trkpt lat="44.71562" lon="5.50583">
        <ele>1769.1999511719</ele>
        <time>2022-05-28T16:37:56.000Z</time>
      </trkpt>
      <trkpt lat="44.71563" lon="5.50581">
        <ele>1769.4000244141</ele>
        <time>2022-05-28T16:37:58.000Z</time>
      </trkpt>
      <trkpt lat="44.71563" lon="5.5058">
        <ele>1769.5999755859</ele>
        <time>2022-05-28T16:37:59.000Z</time>
      </trkpt>
      <trkpt lat="44.71565" lon="5.50579">
        <ele>1769.5999755859</ele>
        <time>2022-05-28T16:38:00.000Z</time>
      </trkpt>
      <trkpt lat="44.71569" lon="5.50576">
        <ele>1770</ele>
        <time>2022-05-28T16:38:05.000Z</time>
      </trkpt>
      <trkpt lat="44.71572" lon="5.50574">
        <ele>1770.1999511719</ele>
        <time>2022-05-28T16:38:07.000Z</time>
      </trkpt>
      <trkpt lat="44.71572" lon="5.50573">
        <ele>1770.5999755859</ele>
        <time>2022-05-28T16:38:08.000Z</time>
      </trkpt>
      <trkpt lat="44.71579" lon="5.50563">
        <ele>1772.8000488281</ele>
        <time>2022-05-28T16:38:16.000Z</time>
      </trkpt>
      <trkpt lat="44.7158" lon="5.50562">
        <ele>1773.4000244141</ele>
        <time>2022-05-28T16:38:18.000Z</time>
      </trkpt>
      <trkpt lat="44.7158" lon="5.50561">
        <ele>1773.5999755859</ele>
        <time>2022-05-28T16:38:19.000Z</time>
      </trkpt>
      <trkpt lat="44.71581" lon="5.50561">
        <ele>1773.5999755859</ele>
        <time>2022-05-28T16:38:20.000Z</time>
      </trkpt>
      <trkpt lat="44.71582" lon="5.50553">
        <ele>1775.8000488281</ele>
        <time>2022-05-28T16:38:25.000Z</time>
      </trkpt>
      <trkpt lat="44.71591" lon="5.50533">
        <ele>1779.4000244141</ele>
        <time>2022-05-28T16:38:39.000Z</time>
      </trkpt>
      <trkpt lat="44.71594" lon="5.50524">
        <ele>1781</ele>
        <time>2022-05-28T16:38:46.000Z</time>
      </trkpt>
      <trkpt lat="44.71595" lon="5.50504">
        <ele>1784.4000244141</ele>
        <time>2022-05-28T16:39:01.000Z</time>
      </trkpt>
      <trkpt lat="44.71595" lon="5.505">
        <ele>1785.4000244141</ele>
        <time>2022-05-28T16:39:03.000Z</time>
      </trkpt>
      <trkpt lat="44.71601" lon="5.50476">
        <ele>1784.8000488281</ele>
        <time>2022-05-28T16:39:20.000Z</time>
      </trkpt>
      <trkpt lat="44.71605" lon="5.50458">
        <ele>1780.8000488281</ele>
        <time>2022-05-28T16:39:34.000Z</time>
      </trkpt>
      <trkpt lat="44.71604" lon="5.50432">
        <ele>1772.4000244141</ele>
        <time>2022-05-28T16:40:26.000Z</time>
      </trkpt>
      <trkpt lat="44.71609" lon="5.50424">
        <ele>1772.4000244141</ele>
        <time>2022-05-28T16:40:39.000Z</time>
      </trkpt>
      <trkpt lat="44.71626" lon="5.50415">
        <ele>1766.5999755859</ele>
        <time>2022-05-28T16:40:57.000Z</time>
      </trkpt>
      <trkpt lat="44.71632" lon="5.50411">
        <ele>1761.8000488281</ele>
        <time>2022-05-28T16:41:02.000Z</time>
      </trkpt>
      <trkpt lat="44.71634" lon="5.50411">
        <ele>1760.1999511719</ele>
        <time>2022-05-28T16:41:04.000Z</time>
      </trkpt>
      <trkpt lat="44.71636" lon="5.5041">
        <ele>1759.1999511719</ele>
        <time>2022-05-28T16:41:05.000Z</time>
      </trkpt>
      <trkpt lat="44.71637" lon="5.5041">
        <ele>1758.4000244141</ele>
        <time>2022-05-28T16:41:06.000Z</time>
      </trkpt>
      <trkpt lat="44.71638" lon="5.50409">
        <ele>1757.8000488281</ele>
        <time>2022-05-28T16:41:07.000Z</time>
      </trkpt>
      <trkpt lat="44.71638" lon="5.50409">
        <ele>1757.5999755859</ele>
        <time>2022-05-28T16:41:08.000Z</time>
      </trkpt>
      <trkpt lat="44.71642" lon="5.50408">
        <ele>1756.8000488281</ele>
        <time>2022-05-28T16:41:11.000Z</time>
      </trkpt>
      <trkpt lat="44.71646" lon="5.50407">
        <ele>1755.5999755859</ele>
        <time>2022-05-28T16:41:14.000Z</time>
      </trkpt>
      <trkpt lat="44.71647" lon="5.50407">
        <ele>1754.4000244141</ele>
        <time>2022-05-28T16:41:15.000Z</time>
      </trkpt>
      <trkpt lat="44.71649" lon="5.50407">
        <ele>1752.8000488281</ele>
        <time>2022-05-28T16:41:17.000Z</time>
      </trkpt>
      <trkpt lat="44.7165" lon="5.50407">
        <ele>1751.8000488281</ele>
        <time>2022-05-28T16:41:18.000Z</time>
      </trkpt>
      <trkpt lat="44.71651" lon="5.50407">
        <ele>1751</ele>
        <time>2022-05-28T16:41:19.000Z</time>
      </trkpt>
      <trkpt lat="44.71655" lon="5.5041">
        <ele>1748.1999511719</ele>
        <time>2022-05-28T16:41:31.000Z</time>
      </trkpt>
      <trkpt lat="44.71654" lon="5.50409">
        <ele>1748.4000244141</ele>
        <time>2022-05-28T16:41:32.000Z</time>
      </trkpt>
      <trkpt lat="44.71654" lon="5.50406">
        <ele>1749</ele>
        <time>2022-05-28T16:41:35.000Z</time>
      </trkpt>
      <trkpt lat="44.71654" lon="5.50404">
        <ele>1748.8000488281</ele>
        <time>2022-05-28T16:41:38.000Z</time>
      </trkpt>
      <trkpt lat="44.71654" lon="5.50403">
        <ele>1748.5999755859</ele>
        <time>2022-05-28T16:41:39.000Z</time>
      </trkpt>
      <trkpt lat="44.71655" lon="5.50402">
        <ele>1748.4000244141</ele>
        <time>2022-05-28T16:41:40.000Z</time>
      </trkpt>
      <trkpt lat="44.71655" lon="5.50401">
        <ele>1748</ele>
        <time>2022-05-28T16:41:41.000Z</time>
      </trkpt>
      <trkpt lat="44.71658" lon="5.50395">
        <ele>1746.4000244141</ele>
        <time>2022-05-28T16:41:47.000Z</time>
      </trkpt>
      <trkpt lat="44.71665" lon="5.5038">
        <ele>1740.8000488281</ele>
        <time>2022-05-28T16:42:01.000Z</time>
      </trkpt>
      <trkpt lat="44.71666" lon="5.50365">
        <ele>1741.1999511719</ele>
        <time>2022-05-28T16:42:09.000Z</time>
      </trkpt>
      <trkpt lat="44.71666" lon="5.50363">
        <ele>1741</ele>
        <time>2022-05-28T16:42:12.000Z</time>
      </trkpt>
      <trkpt lat="44.71665" lon="5.50359">
        <ele>1741.1999511719</ele>
        <time>2022-05-28T16:42:15.000Z</time>
      </trkpt>
      <trkpt lat="44.71677" lon="5.50334">
        <ele>1742</ele>
        <time>2022-05-28T16:42:34.000Z</time>
      </trkpt>
      <trkpt lat="44.71685" lon="5.5034">
        <ele>1739.5999755859</ele>
        <time>2022-05-28T16:43:13.000Z</time>
      </trkpt>
      <trkpt lat="44.7169" lon="5.50335">
        <ele>1739.5999755859</ele>
        <time>2022-05-28T16:43:20.000Z</time>
      </trkpt>
      <trkpt lat="44.71702" lon="5.50342">
        <ele>1735.8000488281</ele>
        <time>2022-05-28T16:43:41.000Z</time>
      </trkpt>
      <trkpt lat="44.71704" lon="5.50349">
        <ele>1734</ele>
        <time>2022-05-28T16:43:50.000Z</time>
      </trkpt>
      <trkpt lat="44.71703" lon="5.50351">
        <ele>1733.8000488281</ele>
        <time>2022-05-28T16:43:54.000Z</time>
      </trkpt>
      <trkpt lat="44.71703" lon="5.50351">
        <ele>1733.5999755859</ele>
        <time>2022-05-28T16:43:59.000Z</time>
      </trkpt>
      <trkpt lat="44.71704" lon="5.50357">
        <ele>1732.5999755859</ele>
        <time>2022-05-28T16:44:05.000Z</time>
      </trkpt>
      <trkpt lat="44.71706" lon="5.50356">
        <ele>1732</ele>
        <time>2022-05-28T16:44:11.000Z</time>
      </trkpt>
      <trkpt lat="44.71707" lon="5.50356">
        <ele>1731.4000244141</ele>
        <time>2022-05-28T16:44:18.000Z</time>
      </trkpt>
      <trkpt lat="44.7171" lon="5.50355">
        <ele>1730.8000488281</ele>
        <time>2022-05-28T16:44:25.000Z</time>
      </trkpt>
      <trkpt lat="44.71713" lon="5.50354">
        <ele>1729.8000488281</ele>
        <time>2022-05-28T16:44:36.000Z</time>
      </trkpt>
      <trkpt lat="44.71716" lon="5.50358">
        <ele>1727.8000488281</ele>
        <time>2022-05-28T16:44:45.000Z</time>
      </trkpt>
      <trkpt lat="44.71718" lon="5.50369">
        <ele>1724.4000244141</ele>
        <time>2022-05-28T16:45:03.000Z</time>
      </trkpt>
      <trkpt lat="44.71722" lon="5.50376">
        <ele>1720.8000488281</ele>
        <time>2022-05-28T16:45:31.000Z</time>
      </trkpt>
      <trkpt lat="44.71731" lon="5.50397">
        <ele>1711.1999511719</ele>
        <time>2022-05-28T16:46:07.000Z</time>
      </trkpt>
      <trkpt lat="44.71729" lon="5.50426">
        <ele>1701.8000488281</ele>
        <time>2022-05-28T16:46:22.000Z</time>
      </trkpt>
      <trkpt lat="44.71725" lon="5.50442">
        <ele>1698.1999511719</ele>
        <time>2022-05-28T16:46:36.000Z</time>
      </trkpt>
      <trkpt lat="44.71721" lon="5.50453">
        <ele>1698.8000488281</ele>
        <time>2022-05-28T16:46:43.000Z</time>
      </trkpt>
      <trkpt lat="44.71697" lon="5.50489">
        <ele>1703.8000488281</ele>
        <time>2022-05-28T16:47:09.000Z</time>
      </trkpt>
      <trkpt lat="44.71697" lon="5.50497">
        <ele>1701</ele>
        <time>2022-05-28T16:47:20.000Z</time>
      </trkpt>
      <trkpt lat="44.71699" lon="5.505">
        <ele>1699</ele>
        <time>2022-05-28T16:47:23.000Z</time>
      </trkpt>
      <trkpt lat="44.71699" lon="5.50507">
        <ele>1696</ele>
        <time>2022-05-28T16:47:31.000Z</time>
      </trkpt>
      <trkpt lat="44.71701" lon="5.50514">
        <ele>1692.5999755859</ele>
        <time>2022-05-28T16:47:35.000Z</time>
      </trkpt>
      <trkpt lat="44.71702" lon="5.50515">
        <ele>1692</ele>
        <time>2022-05-28T16:47:36.000Z</time>
      </trkpt>
      <trkpt lat="44.71701" lon="5.50518">
        <ele>1691.4000244141</ele>
        <time>2022-05-28T16:47:37.000Z</time>
      </trkpt>
      <trkpt lat="44.71701" lon="5.50518">
        <ele>1691.4000244141</ele>
        <time>2022-05-28T16:47:38.000Z</time>
      </trkpt>
      <trkpt lat="44.71701" lon="5.5052">
        <ele>1691.1999511719</ele>
        <time>2022-05-28T16:47:39.000Z</time>
      </trkpt>
      <trkpt lat="44.717" lon="5.50521">
        <ele>1691.8000488281</ele>
        <time>2022-05-28T16:47:41.000Z</time>
      </trkpt>
      <trkpt lat="44.717" lon="5.50521">
        <ele>1692</ele>
        <time>2022-05-28T16:47:42.000Z</time>
      </trkpt>
      <trkpt lat="44.717" lon="5.50523">
        <ele>1691.1999511719</ele>
        <time>2022-05-28T16:47:50.000Z</time>
      </trkpt>
      <trkpt lat="44.71699" lon="5.50525">
        <ele>1691.8000488281</ele>
        <time>2022-05-28T16:47:51.000Z</time>
      </trkpt>
      <trkpt lat="44.71698" lon="5.50529">
        <ele>1690.5999755859</ele>
        <time>2022-05-28T16:47:54.000Z</time>
      </trkpt>
      <trkpt lat="44.71699" lon="5.50533">
        <ele>1689.1999511719</ele>
        <time>2022-05-28T16:48:06.000Z</time>
      </trkpt>
      <trkpt lat="44.71698" lon="5.50535">
        <ele>1690.4000244141</ele>
        <time>2022-05-28T16:48:14.000Z</time>
      </trkpt>
      <trkpt lat="44.71692" lon="5.50542">
        <ele>1694.4000244141</ele>
        <time>2022-05-28T16:48:20.000Z</time>
      </trkpt>
      <trkpt lat="44.71694" lon="5.5055">
        <ele>1691.1999511719</ele>
        <time>2022-05-28T16:48:24.000Z</time>
      </trkpt>
      <trkpt lat="44.71695" lon="5.50552">
        <ele>1689.4000244141</ele>
        <time>2022-05-28T16:48:29.000Z</time>
      </trkpt>
      <trkpt lat="44.71695" lon="5.50548">
        <ele>1690.5999755859</ele>
        <time>2022-05-28T16:48:35.000Z</time>
      </trkpt>
      <trkpt lat="44.71699" lon="5.50543">
        <ele>1688.1999511719</ele>
        <time>2022-05-28T16:48:41.000Z</time>
      </trkpt>
      <trkpt lat="44.717" lon="5.50541">
        <ele>1687.4000244141</ele>
        <time>2022-05-28T16:48:42.000Z</time>
      </trkpt>
      <trkpt lat="44.71702" lon="5.50537">
        <ele>1686.8000488281</ele>
        <time>2022-05-28T16:48:46.000Z</time>
      </trkpt>
      <trkpt lat="44.717" lon="5.50536">
        <ele>1687.8000488281</ele>
        <time>2022-05-28T16:48:50.000Z</time>
      </trkpt>
      <trkpt lat="44.717" lon="5.50536">
        <ele>1687.8000488281</ele>
        <time>2022-05-28T16:48:51.000Z</time>
      </trkpt>
      <trkpt lat="44.717" lon="5.50537">
        <ele>1688.4000244141</ele>
        <time>2022-05-28T16:48:53.000Z</time>
      </trkpt>
      <trkpt lat="44.71698" lon="5.50539">
        <ele>1689.4000244141</ele>
        <time>2022-05-28T16:48:55.000Z</time>
      </trkpt>
      <trkpt lat="44.71692" lon="5.50553">
        <ele>1690.5999755859</ele>
        <time>2022-05-28T16:49:07.000Z</time>
      </trkpt>
      <trkpt lat="44.71694" lon="5.5056">
        <ele>1687.8000488281</ele>
        <time>2022-05-28T16:49:11.000Z</time>
      </trkpt>
      <trkpt lat="44.71698" lon="5.50566">
        <ele>1685.4000244141</ele>
        <time>2022-05-28T16:49:21.000Z</time>
      </trkpt>
      <trkpt lat="44.71697" lon="5.50571">
        <ele>1685.1999511719</ele>
        <time>2022-05-28T16:49:35.000Z</time>
      </trkpt>
      <trkpt lat="44.71698" lon="5.50573">
        <ele>1684.5999755859</ele>
        <time>2022-05-28T16:49:39.000Z</time>
      </trkpt>
      <trkpt lat="44.71698" lon="5.50572">
        <ele>1684.4000244141</ele>
        <time>2022-05-28T16:49:43.000Z</time>
      </trkpt>
      <trkpt lat="44.71698" lon="5.50572">
        <ele>1684.4000244141</ele>
        <time>2022-05-28T16:49:44.000Z</time>
      </trkpt>
      <trkpt lat="44.71698" lon="5.50569">
        <ele>1684.5999755859</ele>
        <time>2022-05-28T16:49:49.000Z</time>
      </trkpt>
      <trkpt lat="44.71697" lon="5.50568">
        <ele>1685.4000244141</ele>
        <time>2022-05-28T16:49:52.000Z</time>
      </trkpt>
      <trkpt lat="44.71696" lon="5.50566">
        <ele>1686.1999511719</ele>
        <time>2022-05-28T16:50:08.000Z</time>
      </trkpt>
      <trkpt lat="44.71696" lon="5.50566">
        <ele>1686.1999511719</ele>
        <time>2022-05-28T16:50:12.000Z</time>
      </trkpt>
      <trkpt lat="44.71695" lon="5.50564">
        <ele>1686.5999755859</ele>
        <time>2022-05-28T16:50:15.000Z</time>
      </trkpt>
      <trkpt lat="44.71695" lon="5.50564">
        <ele>1687</ele>
        <time>2022-05-28T16:50:19.000Z</time>
      </trkpt>
      <trkpt lat="44.71695" lon="5.50564">
        <ele>1687</ele>
        <time>2022-05-28T16:50:23.000Z</time>
      </trkpt>
      <trkpt lat="44.71697" lon="5.50567">
        <ele>1685.5999755859</ele>
        <time>2022-05-28T16:50:28.000Z</time>
      </trkpt>
      <trkpt lat="44.71699" lon="5.50568">
        <ele>1684.5999755859</ele>
        <time>2022-05-28T16:50:35.000Z</time>
      </trkpt>
      <trkpt lat="44.71695" lon="5.50567">
        <ele>1686.5999755859</ele>
        <time>2022-05-28T16:50:51.000Z</time>
      </trkpt>
      <trkpt lat="44.71695" lon="5.50565">
        <ele>1686.8000488281</ele>
        <time>2022-05-28T16:53:21.000Z</time>
      </trkpt>
      <trkpt lat="44.71695" lon="5.50566">
        <ele>1686.8000488281</ele>
        <time>2022-05-28T16:53:22.000Z</time>
      </trkpt>
      <trkpt lat="44.71694" lon="5.50568">
        <ele>1687</ele>
        <time>2022-05-28T16:53:41.000Z</time>
      </trkpt>
      <trkpt lat="44.71692" lon="5.5057">
        <ele>1687.8000488281</ele>
        <time>2022-05-28T16:53:58.000Z</time>
      </trkpt>
      <trkpt lat="44.7169" lon="5.50568">
        <ele>1689</ele>
        <time>2022-05-28T16:54:45.000Z</time>
      </trkpt>
      <trkpt lat="44.7169" lon="5.50569">
        <ele>1689</ele>
        <time>2022-05-28T16:54:46.000Z</time>
      </trkpt>
      <trkpt lat="44.7169" lon="5.50569">
        <ele>1689</ele>
        <time>2022-05-28T16:54:50.000Z</time>
      </trkpt>
      <trkpt lat="44.7169" lon="5.50569">
        <ele>1689</ele>
        <time>2022-05-28T16:54:55.000Z</time>
      </trkpt>
      <trkpt lat="44.71692" lon="5.50568">
        <ele>1688.1999511719</ele>
        <time>2022-05-28T16:55:06.000Z</time>
      </trkpt>
      <trkpt lat="44.71693" lon="5.50564">
        <ele>1687.8000488281</ele>
        <time>2022-05-28T16:55:18.000Z</time>
      </trkpt>
      <trkpt lat="44.71694" lon="5.50564">
        <ele>1687.5999755859</ele>
        <time>2022-05-28T16:55:19.000Z</time>
      </trkpt>
      <trkpt lat="44.71694" lon="5.50564">
        <ele>1687.4000244141</ele>
        <time>2022-05-28T16:55:20.000Z</time>
      </trkpt>
      <trkpt lat="44.71694" lon="5.50563">
        <ele>1687.1999511719</ele>
        <time>2022-05-28T16:55:21.000Z</time>
      </trkpt>
      <trkpt lat="44.71695" lon="5.50563">
        <ele>1687.1999511719</ele>
        <time>2022-05-28T16:55:23.000Z</time>
      </trkpt>
      <trkpt lat="44.71694" lon="5.50563">
        <ele>1687.4000244141</ele>
        <time>2022-05-28T16:55:24.000Z</time>
      </trkpt>
      <trkpt lat="44.71694" lon="5.50563">
        <ele>1687.4000244141</ele>
        <time>2022-05-28T16:55:32.000Z</time>
      </trkpt>
      <trkpt lat="44.71699" lon="5.50565">
        <ele>1684.5999755859</ele>
        <time>2022-05-28T16:56:11.000Z</time>
      </trkpt>
      <trkpt lat="44.71698" lon="5.50586">
        <ele>1682.8000488281</ele>
        <time>2022-05-28T16:56:33.000Z</time>
      </trkpt>
      <trkpt lat="44.717" lon="5.50591">
        <ele>1681.1999511719</ele>
        <time>2022-05-28T16:56:53.000Z</time>
      </trkpt>
      <trkpt lat="44.71696" lon="5.5057">
        <ele>1686</ele>
        <time>2022-05-28T16:57:21.000Z</time>
      </trkpt>
      <trkpt lat="44.71695" lon="5.50567">
        <ele>1686.8000488281</ele>
        <time>2022-05-28T16:57:31.000Z</time>
      </trkpt>
      <trkpt lat="44.71693" lon="5.50569">
        <ele>1687</ele>
        <time>2022-05-28T16:57:56.000Z</time>
      </trkpt>
      <trkpt lat="44.71692" lon="5.50568">
        <ele>1687.8000488281</ele>
        <time>2022-05-28T16:58:04.000Z</time>
      </trkpt>
      <trkpt lat="44.71693" lon="5.50564">
        <ele>1687.8000488281</ele>
        <time>2022-05-28T16:58:10.000Z</time>
      </trkpt>
      <trkpt lat="44.71692" lon="5.50557">
        <ele>1689.1999511719</ele>
        <time>2022-05-28T16:58:18.000Z</time>
      </trkpt>
      <trkpt lat="44.71694" lon="5.50541">
        <ele>1693</ele>
        <time>2022-05-28T16:58:30.000Z</time>
      </trkpt>
      <trkpt lat="44.71695" lon="5.50538">
        <ele>1692.1999511719</ele>
        <time>2022-05-28T16:58:32.000Z</time>
      </trkpt>
      <trkpt lat="44.71697" lon="5.50533">
        <ele>1691.4000244141</ele>
        <time>2022-05-28T16:58:36.000Z</time>
      </trkpt>
      <trkpt lat="44.71698" lon="5.50522">
        <ele>1693.1999511719</ele>
        <time>2022-05-28T16:58:44.000Z</time>
      </trkpt>
      <trkpt lat="44.71695" lon="5.50511">
        <ele>1699.5999755859</ele>
        <time>2022-05-28T16:58:52.000Z</time>
      </trkpt>
      <trkpt lat="44.71692" lon="5.50503">
        <ele>1705.8000488281</ele>
        <time>2022-05-28T16:58:58.000Z</time>
      </trkpt>
      <trkpt lat="44.7169" lon="5.50499">
        <ele>1709</ele>
        <time>2022-05-28T16:59:02.000Z</time>
      </trkpt>
      <trkpt lat="44.7169" lon="5.50498">
        <ele>1708.5999755859</ele>
        <time>2022-05-28T16:59:03.000Z</time>
      </trkpt>
      <trkpt lat="44.7169" lon="5.50497">
        <ele>1709.1999511719</ele>
        <time>2022-05-28T16:59:04.000Z</time>
      </trkpt>
      <trkpt lat="44.7169" lon="5.50494">
        <ele>1709.8000488281</ele>
        <time>2022-05-28T16:59:06.000Z</time>
      </trkpt>
      <trkpt lat="44.71691" lon="5.50491">
        <ele>1709.4000244141</ele>
        <time>2022-05-28T16:59:08.000Z</time>
      </trkpt>
      <trkpt lat="44.71693" lon="5.50488">
        <ele>1707.8000488281</ele>
        <time>2022-05-28T16:59:11.000Z</time>
      </trkpt>
      <trkpt lat="44.71694" lon="5.50486">
        <ele>1707.4000244141</ele>
        <time>2022-05-28T16:59:12.000Z</time>
      </trkpt>
      <trkpt lat="44.71696" lon="5.50479">
        <ele>1707.8000488281</ele>
        <time>2022-05-28T16:59:17.000Z</time>
      </trkpt>
      <trkpt lat="44.71698" lon="5.50477">
        <ele>1707</ele>
        <time>2022-05-28T16:59:19.000Z</time>
      </trkpt>
      <trkpt lat="44.717" lon="5.50474">
        <ele>1706</ele>
        <time>2022-05-28T16:59:21.000Z</time>
      </trkpt>
      <trkpt lat="44.71705" lon="5.50469">
        <ele>1704.1999511719</ele>
        <time>2022-05-28T16:59:25.000Z</time>
      </trkpt>
      <trkpt lat="44.71708" lon="5.50466">
        <ele>1703.4000244141</ele>
        <time>2022-05-28T16:59:28.000Z</time>
      </trkpt>
      <trkpt lat="44.71717" lon="5.50458">
        <ele>1699.8000488281</ele>
        <time>2022-05-28T16:59:39.000Z</time>
      </trkpt>
      <trkpt lat="44.71718" lon="5.50457">
        <ele>1699.8000488281</ele>
        <time>2022-05-28T16:59:40.000Z</time>
      </trkpt>
      <trkpt lat="44.71718" lon="5.50457">
        <ele>1699.5999755859</ele>
        <time>2022-05-28T16:59:41.000Z</time>
      </trkpt>
      <trkpt lat="44.71717" lon="5.50457">
        <ele>1699.8000488281</ele>
        <time>2022-05-28T16:59:42.000Z</time>
      </trkpt>
      <trkpt lat="44.71718" lon="5.50457">
        <ele>1699.5999755859</ele>
        <time>2022-05-28T16:59:44.000Z</time>
      </trkpt>
      <trkpt lat="44.71718" lon="5.50457">
        <ele>1699.4000244141</ele>
        <time>2022-05-28T16:59:45.000Z</time>
      </trkpt>
      <trkpt lat="44.71717" lon="5.50457">
        <ele>1700</ele>
        <time>2022-05-28T16:59:46.000Z</time>
      </trkpt>
      <trkpt lat="44.71717" lon="5.50457">
        <ele>1700</ele>
        <time>2022-05-28T16:59:50.000Z</time>
      </trkpt>
      <trkpt lat="44.71721" lon="5.50449">
        <ele>1699.5999755859</ele>
        <time>2022-05-28T17:00:01.000Z</time>
      </trkpt>
      <trkpt lat="44.71723" lon="5.50448">
        <ele>1698.4000244141</ele>
        <time>2022-05-28T17:00:03.000Z</time>
      </trkpt>
      <trkpt lat="44.71728" lon="5.50443">
        <ele>1696.5999755859</ele>
        <time>2022-05-28T17:00:08.000Z</time>
      </trkpt>
      <trkpt lat="44.7173" lon="5.50439">
        <ele>1697</ele>
        <time>2022-05-28T17:00:12.000Z</time>
      </trkpt>
      <trkpt lat="44.71731" lon="5.50433">
        <ele>1698.4000244141</ele>
        <time>2022-05-28T17:00:18.000Z</time>
      </trkpt>
      <trkpt lat="44.71732" lon="5.50431">
        <ele>1699</ele>
        <time>2022-05-28T17:00:20.000Z</time>
      </trkpt>
      <trkpt lat="44.71732" lon="5.50428">
        <ele>1699.8000488281</ele>
        <time>2022-05-28T17:00:23.000Z</time>
      </trkpt>
      <trkpt lat="44.71732" lon="5.50427">
        <ele>1700.1999511719</ele>
        <time>2022-05-28T17:00:24.000Z</time>
      </trkpt>
      <trkpt lat="44.71732" lon="5.50426">
        <ele>1700.1999511719</ele>
        <time>2022-05-28T17:00:25.000Z</time>
      </trkpt>
      <trkpt lat="44.71733" lon="5.50425">
        <ele>1700.4000244141</ele>
        <time>2022-05-28T17:00:26.000Z</time>
      </trkpt>
      <trkpt lat="44.71733" lon="5.50425">
        <ele>1700.4000244141</ele>
        <time>2022-05-28T17:00:27.000Z</time>
      </trkpt>
      <trkpt lat="44.71734" lon="5.50424">
        <ele>1700</ele>
        <time>2022-05-28T17:00:31.000Z</time>
      </trkpt>
      <trkpt lat="44.71734" lon="5.50423">
        <ele>1700.5999755859</ele>
        <time>2022-05-28T17:00:35.000Z</time>
      </trkpt>
      <trkpt lat="44.71732" lon="5.50424">
        <ele>1701</ele>
        <time>2022-05-28T17:00:38.000Z</time>
      </trkpt>
      <trkpt lat="44.71732" lon="5.50425">
        <ele>1700.8000488281</ele>
        <time>2022-05-28T17:00:39.000Z</time>
      </trkpt>
      <trkpt lat="44.71731" lon="5.50425">
        <ele>1701.1999511719</ele>
        <time>2022-05-28T17:00:47.000Z</time>
      </trkpt>
      <trkpt lat="44.71731" lon="5.50425">
        <ele>1701.1999511719</ele>
        <time>2022-05-28T17:00:50.000Z</time>
      </trkpt>
      <trkpt lat="44.71731" lon="5.50426">
        <ele>1700.8000488281</ele>
        <time>2022-05-28T17:00:56.000Z</time>
      </trkpt>
      <trkpt lat="44.71731" lon="5.50426">
        <ele>1700.8000488281</ele>
        <time>2022-05-28T17:01:00.000Z</time>
      </trkpt>
      <trkpt lat="44.71731" lon="5.50426">
        <ele>1700.8000488281</ele>
        <time>2022-05-28T17:01:03.000Z</time>
      </trkpt>
      <trkpt lat="44.71731" lon="5.50426">
        <ele>1700.8000488281</ele>
        <time>2022-05-28T17:01:06.000Z</time>
      </trkpt>
      <trkpt lat="44.71731" lon="5.50426">
        <ele>1700.8000488281</ele>
        <time>2022-05-28T17:01:09.000Z</time>
      </trkpt>
      <trkpt lat="44.71731" lon="5.50427">
        <ele>1700.4000244141</ele>
        <time>2022-05-28T17:01:12.000Z</time>
      </trkpt>
      <trkpt lat="44.71732" lon="5.50427">
        <ele>1700.1999511719</ele>
        <time>2022-05-28T17:01:15.000Z</time>
      </trkpt>
      <trkpt lat="44.7173" lon="5.50427">
        <ele>1700.8000488281</ele>
        <time>2022-05-28T17:01:19.000Z</time>
      </trkpt>
      <trkpt lat="44.71729" lon="5.50426">
        <ele>1701.5999755859</ele>
        <time>2022-05-28T17:01:22.000Z</time>
      </trkpt>
      <trkpt lat="44.71729" lon="5.50426">
        <ele>1701.8000488281</ele>
        <time>2022-05-28T17:01:25.000Z</time>
      </trkpt>
      <trkpt lat="44.71729" lon="5.50428">
        <ele>1701.1999511719</ele>
        <time>2022-05-28T17:01:29.000Z</time>
      </trkpt>
      <trkpt lat="44.71728" lon="5.50428">
        <ele>1701.1999511719</ele>
        <time>2022-05-28T17:01:33.000Z</time>
      </trkpt>
      <trkpt lat="44.71729" lon="5.50429">
        <ele>1701</ele>
        <time>2022-05-28T17:01:37.000Z</time>
      </trkpt>
      <trkpt lat="44.7173" lon="5.50431">
        <ele>1699.8000488281</ele>
        <time>2022-05-28T17:01:44.000Z</time>
      </trkpt>
      <trkpt lat="44.7173" lon="5.50432">
        <ele>1699.1999511719</ele>
        <time>2022-05-28T17:01:50.000Z</time>
      </trkpt>
      <trkpt lat="44.7173" lon="5.50433">
        <ele>1698.8000488281</ele>
        <time>2022-05-28T17:01:58.000Z</time>
      </trkpt>
      <trkpt lat="44.7173" lon="5.50433">
        <ele>1698.8000488281</ele>
        <time>2022-05-28T17:02:03.000Z</time>
      </trkpt>
      <trkpt lat="44.71733" lon="5.50431">
        <ele>1698.1999511719</ele>
        <time>2022-05-28T17:02:19.000Z</time>
      </trkpt>
      <trkpt lat="44.71734" lon="5.50429">
        <ele>1698.4000244141</ele>
        <time>2022-05-28T17:02:32.000Z</time>
      </trkpt>
      <trkpt lat="44.71734" lon="5.50429">
        <ele>1698.8000488281</ele>
        <time>2022-05-28T17:02:36.000Z</time>
      </trkpt>
      <trkpt lat="44.71734" lon="5.50429">
        <ele>1698.8000488281</ele>
        <time>2022-05-28T17:02:38.000Z</time>
      </trkpt>
      <trkpt lat="44.71734" lon="5.50429">
        <ele>1698.5999755859</ele>
        <time>2022-05-28T17:02:39.000Z</time>
      </trkpt>
      <trkpt lat="44.71734" lon="5.50429">
        <ele>1698.5999755859</ele>
        <time>2022-05-28T17:02:40.000Z</time>
      </trkpt>
      <trkpt lat="44.71734" lon="5.50429">
        <ele>1698.5999755859</ele>
        <time>2022-05-28T17:02:41.000Z</time>
      </trkpt>
      <trkpt lat="44.71734" lon="5.50429">
        <ele>1698.5999755859</ele>
        <time>2022-05-28T17:02:42.000Z</time>
      </trkpt>
      <trkpt lat="44.71734" lon="5.50429">
        <ele>1698.4000244141</ele>
        <time>2022-05-28T17:02:45.000Z</time>
      </trkpt>
      <trkpt lat="44.71733" lon="5.50429">
        <ele>1698.8000488281</ele>
        <time>2022-05-28T17:03:01.000Z</time>
      </trkpt>
      <trkpt lat="44.71732" lon="5.50427">
        <ele>1700.1999511719</ele>
        <time>2022-05-28T17:03:22.000Z</time>
      </trkpt>
      <trkpt lat="44.71732" lon="5.50427">
        <ele>1700</ele>
        <time>2022-05-28T17:03:34.000Z</time>
      </trkpt>
      <trkpt lat="44.71733" lon="5.50427">
        <ele>1699.4000244141</ele>
        <time>2022-05-28T17:03:45.000Z</time>
      </trkpt>
      <trkpt lat="44.71731" lon="5.50429">
        <ele>1699.5999755859</ele>
        <time>2022-05-28T17:04:05.000Z</time>
      </trkpt>
      <trkpt lat="44.71731" lon="5.50425">
        <ele>1701.1999511719</ele>
        <time>2022-05-28T17:04:31.000Z</time>
      </trkpt>
      <trkpt lat="44.71733" lon="5.50413">
        <ele>1705</ele>
        <time>2022-05-28T17:04:39.000Z</time>
      </trkpt>
      <trkpt lat="44.71733" lon="5.5041">
        <ele>1706</ele>
        <time>2022-05-28T17:04:42.000Z</time>
      </trkpt>
      <trkpt lat="44.71733" lon="5.50403">
        <ele>1708.4000244141</ele>
        <time>2022-05-28T17:04:48.000Z</time>
      </trkpt>
      <trkpt lat="44.71733" lon="5.50399">
        <ele>1710</ele>
        <time>2022-05-28T17:04:53.000Z</time>
      </trkpt>
      <trkpt lat="44.71733" lon="5.50396">
        <ele>1710.8000488281</ele>
        <time>2022-05-28T17:04:56.000Z</time>
      </trkpt>
      <trkpt lat="44.7172" lon="5.50371">
        <ele>1723.1999511719</ele>
        <time>2022-05-28T17:05:48.000Z</time>
      </trkpt>
      <trkpt lat="44.7172" lon="5.50371">
        <ele>1723.1999511719</ele>
        <time>2022-05-28T17:05:49.000Z</time>
      </trkpt>
      <trkpt lat="44.7172" lon="5.5037">
        <ele>1723.4000244141</ele>
        <time>2022-05-28T17:05:50.000Z</time>
      </trkpt>
      <trkpt lat="44.71713" lon="5.50362">
        <ele>1728.1999511719</ele>
        <time>2022-05-28T17:06:20.000Z</time>
      </trkpt>
      <trkpt lat="44.71712" lon="5.50352">
        <ele>1730.5999755859</ele>
        <time>2022-05-28T17:06:39.000Z</time>
      </trkpt>
      <trkpt lat="44.71705" lon="5.50345">
        <ele>1734.4000244141</ele>
        <time>2022-05-28T17:07:18.000Z</time>
      </trkpt>
      <trkpt lat="44.71698" lon="5.5031">
        <ele>1740.5999755859</ele>
        <time>2022-05-28T17:08:14.000Z</time>
      </trkpt>
      <trkpt lat="44.717" lon="5.50276">
        <ele>1746</ele>
        <time>2022-05-28T17:08:46.000Z</time>
      </trkpt>
      <trkpt lat="44.71703" lon="5.50256">
        <ele>1750.8000488281</ele>
        <time>2022-05-28T17:09:04.000Z</time>
      </trkpt>
      <trkpt lat="44.71703" lon="5.50255">
        <ele>1751</ele>
        <time>2022-05-28T17:09:06.000Z</time>
      </trkpt>
      <trkpt lat="44.71702" lon="5.50254">
        <ele>1751.1999511719</ele>
        <time>2022-05-28T17:09:08.000Z</time>
      </trkpt>
      <trkpt lat="44.71702" lon="5.50254">
        <ele>1751.4000244141</ele>
        <time>2022-05-28T17:09:09.000Z</time>
      </trkpt>
      <trkpt lat="44.71701" lon="5.50253">
        <ele>1751.4000244141</ele>
        <time>2022-05-28T17:09:10.000Z</time>
      </trkpt>
      <trkpt lat="44.71701" lon="5.50253">
        <ele>1751.4000244141</ele>
        <time>2022-05-28T17:09:11.000Z</time>
      </trkpt>
      <trkpt lat="44.71699" lon="5.50251">
        <ele>1751.4000244141</ele>
        <time>2022-05-28T17:09:13.000Z</time>
      </trkpt>
      <trkpt lat="44.717" lon="5.50236">
        <ele>1756.1999511719</ele>
        <time>2022-05-28T17:09:30.000Z</time>
      </trkpt>
      <trkpt lat="44.71703" lon="5.50218">
        <ele>1763.4000244141</ele>
        <time>2022-05-28T17:09:51.000Z</time>
      </trkpt>
      <trkpt lat="44.71704" lon="5.50209">
        <ele>1766.5999755859</ele>
        <time>2022-05-28T17:10:01.000Z</time>
      </trkpt>
      <trkpt lat="44.71703" lon="5.50208">
        <ele>1767</ele>
        <time>2022-05-28T17:10:02.000Z</time>
      </trkpt>
      <trkpt lat="44.71702" lon="5.50202">
        <ele>1768.5999755859</ele>
        <time>2022-05-28T17:10:07.000Z</time>
      </trkpt>
      <trkpt lat="44.71702" lon="5.50202">
        <ele>1768.8000488281</ele>
        <time>2022-05-28T17:10:08.000Z</time>
      </trkpt>
      <trkpt lat="44.71702" lon="5.50201">
        <ele>1769.1999511719</ele>
        <time>2022-05-28T17:10:09.000Z</time>
      </trkpt>
      <trkpt lat="44.71702" lon="5.50199">
        <ele>1770</ele>
        <time>2022-05-28T17:10:11.000Z</time>
      </trkpt>
      <trkpt lat="44.71704" lon="5.50196">
        <ele>1771</ele>
        <time>2022-05-28T17:10:14.000Z</time>
      </trkpt>
      <trkpt lat="44.71706" lon="5.50196">
        <ele>1771.4000244141</ele>
        <time>2022-05-28T17:10:17.000Z</time>
      </trkpt>
      <trkpt lat="44.7171" lon="5.50193">
        <ele>1772.4000244141</ele>
        <time>2022-05-28T17:10:23.000Z</time>
      </trkpt>
      <trkpt lat="44.71713" lon="5.5019">
        <ele>1773.1999511719</ele>
        <time>2022-05-28T17:10:31.000Z</time>
      </trkpt>
      <trkpt lat="44.71716" lon="5.50189">
        <ele>1773.5999755859</ele>
        <time>2022-05-28T17:10:36.000Z</time>
      </trkpt>
      <trkpt lat="44.71717" lon="5.50187">
        <ele>1773.8000488281</ele>
        <time>2022-05-28T17:10:39.000Z</time>
      </trkpt>
      <trkpt lat="44.71716" lon="5.50182">
        <ele>1774</ele>
        <time>2022-05-28T17:10:48.000Z</time>
      </trkpt>
      <trkpt lat="44.71715" lon="5.50177">
        <ele>1774.5999755859</ele>
        <time>2022-05-28T17:10:52.000Z</time>
      </trkpt>
      <trkpt lat="44.71715" lon="5.50174">
        <ele>1775.1999511719</ele>
        <time>2022-05-28T17:10:55.000Z</time>
      </trkpt>
      <trkpt lat="44.71715" lon="5.50172">
        <ele>1775.5999755859</ele>
        <time>2022-05-28T17:10:57.000Z</time>
      </trkpt>
      <trkpt lat="44.71716" lon="5.50161">
        <ele>1776.8000488281</ele>
        <time>2022-05-28T17:11:07.000Z</time>
      </trkpt>
      <trkpt lat="44.71717" lon="5.50153">
        <ele>1777</ele>
        <time>2022-05-28T17:11:14.000Z</time>
      </trkpt>
      <trkpt lat="44.71719" lon="5.50153">
        <ele>1778</ele>
        <time>2022-05-28T17:11:19.000Z</time>
      </trkpt>
      <trkpt lat="44.71719" lon="5.50155">
        <ele>1778</ele>
        <time>2022-05-28T17:11:27.000Z</time>
      </trkpt>
      <trkpt lat="44.71719" lon="5.50156">
        <ele>1777.5999755859</ele>
        <time>2022-05-28T17:11:32.000Z</time>
      </trkpt>
      <trkpt lat="44.71719" lon="5.50156">
        <ele>1777.4000244141</ele>
        <time>2022-05-28T17:11:40.000Z</time>
      </trkpt>
      <trkpt lat="44.71718" lon="5.50156">
        <ele>1777.1999511719</ele>
        <time>2022-05-28T17:11:46.000Z</time>
      </trkpt>
      <trkpt lat="44.71719" lon="5.50156">
        <ele>1777.4000244141</ele>
        <time>2022-05-28T17:11:48.000Z</time>
      </trkpt>
      <trkpt lat="44.71719" lon="5.50156">
        <ele>1777.5999755859</ele>
        <time>2022-05-28T17:11:51.000Z</time>
      </trkpt>
      <trkpt lat="44.71719" lon="5.50156">
        <ele>1777.5999755859</ele>
        <time>2022-05-28T17:11:53.000Z</time>
      </trkpt>
      <trkpt lat="44.7172" lon="5.50151">
        <ele>1778.8000488281</ele>
        <time>2022-05-28T17:12:04.000Z</time>
      </trkpt>
      <trkpt lat="44.71721" lon="5.50149">
        <ele>1779.5999755859</ele>
        <time>2022-05-28T17:12:07.000Z</time>
      </trkpt>
      <trkpt lat="44.71722" lon="5.50144">
        <ele>1780.8000488281</ele>
        <time>2022-05-28T17:12:13.000Z</time>
      </trkpt>
      <trkpt lat="44.71722" lon="5.50141">
        <ele>1781</ele>
        <time>2022-05-28T17:12:16.000Z</time>
      </trkpt>
      <trkpt lat="44.71725" lon="5.50135">
        <ele>1782</ele>
        <time>2022-05-28T17:12:22.000Z</time>
      </trkpt>
      <trkpt lat="44.71724" lon="5.50132">
        <ele>1781.4000244141</ele>
        <time>2022-05-28T17:12:33.000Z</time>
      </trkpt>
      <trkpt lat="44.71722" lon="5.50125">
        <ele>1779.5999755859</ele>
        <time>2022-05-28T17:12:39.000Z</time>
      </trkpt>
      <trkpt lat="44.71706" lon="5.50102">
        <ele>1770.4000244141</ele>
        <time>2022-05-28T17:13:43.000Z</time>
      </trkpt>
      <trkpt lat="44.71711" lon="5.50114">
        <ele>1773.8000488281</ele>
        <time>2022-05-28T17:14:09.000Z</time>
      </trkpt>
      <trkpt lat="44.71718" lon="5.50119">
        <ele>1777.4000244141</ele>
        <time>2022-05-28T17:14:18.000Z</time>
      </trkpt>
      <trkpt lat="44.71719" lon="5.5012">
        <ele>1777.8000488281</ele>
        <time>2022-05-28T17:14:19.000Z</time>
      </trkpt>
      <trkpt lat="44.71719" lon="5.50122">
        <ele>1778.4000244141</ele>
        <time>2022-05-28T17:14:20.000Z</time>
      </trkpt>
      <trkpt lat="44.71721" lon="5.50124">
        <ele>1779.4000244141</ele>
        <time>2022-05-28T17:14:22.000Z</time>
      </trkpt>
      <trkpt lat="44.71725" lon="5.50128">
        <ele>1781.5999755859</ele>
        <time>2022-05-28T17:14:27.000Z</time>
      </trkpt>
      <trkpt lat="44.71728" lon="5.5013">
        <ele>1782.8000488281</ele>
        <time>2022-05-28T17:14:30.000Z</time>
      </trkpt>
      <trkpt lat="44.7173" lon="5.50131">
        <ele>1783.5999755859</ele>
        <time>2022-05-28T17:14:33.000Z</time>
      </trkpt>
      <trkpt lat="44.71731" lon="5.50132">
        <ele>1784</ele>
        <time>2022-05-28T17:14:35.000Z</time>
      </trkpt>
      <trkpt lat="44.71732" lon="5.50132">
        <ele>1784.4000244141</ele>
        <time>2022-05-28T17:14:37.000Z</time>
      </trkpt>
      <trkpt lat="44.71733" lon="5.50133">
        <ele>1784.5999755859</ele>
        <time>2022-05-28T17:14:39.000Z</time>
      </trkpt>
      <trkpt lat="44.71735" lon="5.50141">
        <ele>1785.1999511719</ele>
        <time>2022-05-28T17:14:48.000Z</time>
      </trkpt>
      <trkpt lat="44.71739" lon="5.50148">
        <ele>1784.5999755859</ele>
        <time>2022-05-28T17:14:56.000Z</time>
      </trkpt>
      <trkpt lat="44.71741" lon="5.50151">
        <ele>1784.8000488281</ele>
        <time>2022-05-28T17:15:01.000Z</time>
      </trkpt>
      <trkpt lat="44.71744" lon="5.50151">
        <ele>1785.4000244141</ele>
        <time>2022-05-28T17:15:06.000Z</time>
      </trkpt>
      <trkpt lat="44.71746" lon="5.50148">
        <ele>1786.5999755859</ele>
        <time>2022-05-28T17:15:13.000Z</time>
      </trkpt>
      <trkpt lat="44.71749" lon="5.50142">
        <ele>1788.5999755859</ele>
        <time>2022-05-28T17:15:20.000Z</time>
      </trkpt>
      <trkpt lat="44.71754" lon="5.5014">
        <ele>1790.4000244141</ele>
        <time>2022-05-28T17:15:27.000Z</time>
      </trkpt>
      <trkpt lat="44.71757" lon="5.50136">
        <ele>1791.4000244141</ele>
        <time>2022-05-28T17:15:33.000Z</time>
      </trkpt>
      <trkpt lat="44.71758" lon="5.50122">
        <ele>1793.5999755859</ele>
        <time>2022-05-28T17:15:46.000Z</time>
      </trkpt>
      <trkpt lat="44.71766" lon="5.50099">
        <ele>1797.5999755859</ele>
        <time>2022-05-28T17:16:10.000Z</time>
      </trkpt>
      <trkpt lat="44.7177" lon="5.50091">
        <ele>1799.8000488281</ele>
        <time>2022-05-28T17:16:20.000Z</time>
      </trkpt>
      <trkpt lat="44.71781" lon="5.50071">
        <ele>1806.5999755859</ele>
        <time>2022-05-28T17:16:37.000Z</time>
      </trkpt>
      <trkpt lat="44.71784" lon="5.50057">
        <ele>1811.5999755859</ele>
        <time>2022-05-28T17:16:51.000Z</time>
      </trkpt>
      <trkpt lat="44.71784" lon="5.50054">
        <ele>1812.1999511719</ele>
        <time>2022-05-28T17:16:54.000Z</time>
      </trkpt>
      <trkpt lat="44.71784" lon="5.50051">
        <ele>1812.4000244141</ele>
        <time>2022-05-28T17:16:56.000Z</time>
      </trkpt>
      <trkpt lat="44.71784" lon="5.50048">
        <ele>1812.4000244141</ele>
        <time>2022-05-28T17:16:59.000Z</time>
      </trkpt>
      <trkpt lat="44.71785" lon="5.50046">
        <ele>1812.5999755859</ele>
        <time>2022-05-28T17:17:01.000Z</time>
      </trkpt>
      <trkpt lat="44.71785" lon="5.50045">
        <ele>1812.5999755859</ele>
        <time>2022-05-28T17:17:02.000Z</time>
      </trkpt>
      <trkpt lat="44.71785" lon="5.50044">
        <ele>1812.5999755859</ele>
        <time>2022-05-28T17:17:03.000Z</time>
      </trkpt>
      <trkpt lat="44.71785" lon="5.50043">
        <ele>1812.5999755859</ele>
        <time>2022-05-28T17:17:04.000Z</time>
      </trkpt>
      <trkpt lat="44.71784" lon="5.50041">
        <ele>1812.5999755859</ele>
        <time>2022-05-28T17:17:07.000Z</time>
      </trkpt>
      <trkpt lat="44.71784" lon="5.50038">
        <ele>1812.8000488281</ele>
        <time>2022-05-28T17:17:11.000Z</time>
      </trkpt>
      <trkpt lat="44.71785" lon="5.50032">
        <ele>1813.1999511719</ele>
        <time>2022-05-28T17:17:17.000Z</time>
      </trkpt>
      <trkpt lat="44.71785" lon="5.50031">
        <ele>1813.4000244141</ele>
        <time>2022-05-28T17:17:18.000Z</time>
      </trkpt>
      <trkpt lat="44.71784" lon="5.50018">
        <ele>1811</ele>
        <time>2022-05-28T17:17:32.000Z</time>
      </trkpt>
      <trkpt lat="44.71783" lon="5.50001">
        <ele>1806.8000488281</ele>
        <time>2022-05-28T17:17:47.000Z</time>
      </trkpt>
      <trkpt lat="44.71783" lon="5.49998">
        <ele>1805.8000488281</ele>
        <time>2022-05-28T17:17:50.000Z</time>
      </trkpt>
      <trkpt lat="44.71783" lon="5.49991">
        <ele>1804.5999755859</ele>
        <time>2022-05-28T17:17:57.000Z</time>
      </trkpt>
      <trkpt lat="44.71786" lon="5.49987">
        <ele>1805.4000244141</ele>
        <time>2022-05-28T17:18:06.000Z</time>
      </trkpt>
      <trkpt lat="44.71787" lon="5.49987">
        <ele>1805.8000488281</ele>
        <time>2022-05-28T17:18:08.000Z</time>
      </trkpt>
      <trkpt lat="44.71787" lon="5.49987">
        <ele>1806</ele>
        <time>2022-05-28T17:18:09.000Z</time>
      </trkpt>
      <trkpt lat="44.71787" lon="5.49987">
        <ele>1805.8000488281</ele>
        <time>2022-05-28T17:18:10.000Z</time>
      </trkpt>
      <trkpt lat="44.71797" lon="5.4997">
        <ele>1808.5999755859</ele>
        <time>2022-05-28T17:19:07.000Z</time>
      </trkpt>
      <trkpt lat="44.71799" lon="5.49968">
        <ele>1809.4000244141</ele>
        <time>2022-05-28T17:19:10.000Z</time>
      </trkpt>
      <trkpt lat="44.71834" lon="5.49928">
        <ele>1824</ele>
        <time>2022-05-28T17:19:48.000Z</time>
      </trkpt>
      <trkpt lat="44.71843" lon="5.49913">
        <ele>1827</ele>
        <time>2022-05-28T17:19:58.000Z</time>
      </trkpt>
      <trkpt lat="44.71846" lon="5.4991">
        <ele>1827.1999511719</ele>
        <time>2022-05-28T17:20:01.000Z</time>
      </trkpt>
      <trkpt lat="44.7185" lon="5.49906">
        <ele>1827.4000244141</ele>
        <time>2022-05-28T17:20:05.000Z</time>
      </trkpt>
      <trkpt lat="44.71865" lon="5.4989">
        <ele>1832</ele>
        <time>2022-05-28T17:20:19.000Z</time>
      </trkpt>
      <trkpt lat="44.71868" lon="5.49881">
        <ele>1832.5999755859</ele>
        <time>2022-05-28T17:20:26.000Z</time>
      </trkpt>
      <trkpt lat="44.71889" lon="5.49851">
        <ele>1833</ele>
        <time>2022-05-28T17:20:48.000Z</time>
      </trkpt>
      <trkpt lat="44.71908" lon="5.49827">
        <ele>1834.5999755859</ele>
        <time>2022-05-28T17:21:07.000Z</time>
      </trkpt>
      <trkpt lat="44.71922" lon="5.4982">
        <ele>1836.8000488281</ele>
        <time>2022-05-28T17:21:18.000Z</time>
      </trkpt>
      <trkpt lat="44.71933" lon="5.49819">
        <ele>1837</ele>
        <time>2022-05-28T17:21:26.000Z</time>
      </trkpt>
      <trkpt lat="44.7194" lon="5.49817">
        <ele>1837</ele>
        <time>2022-05-28T17:21:32.000Z</time>
      </trkpt>
      <trkpt lat="44.71943" lon="5.49818">
        <ele>1837</ele>
        <time>2022-05-28T17:21:34.000Z</time>
      </trkpt>
      <trkpt lat="44.71945" lon="5.49819">
        <ele>1837</ele>
        <time>2022-05-28T17:21:37.000Z</time>
      </trkpt>
      <trkpt lat="44.71945" lon="5.49821">
        <ele>1837</ele>
        <time>2022-05-28T17:21:39.000Z</time>
      </trkpt>
      <trkpt lat="44.71946" lon="5.49822">
        <ele>1837</ele>
        <time>2022-05-28T17:21:46.000Z</time>
      </trkpt>
      <trkpt lat="44.71948" lon="5.49817">
        <ele>1837</ele>
        <time>2022-05-28T17:21:50.000Z</time>
      </trkpt>
      <trkpt lat="44.7197" lon="5.49812">
        <ele>1836</ele>
        <time>2022-05-28T17:22:08.000Z</time>
      </trkpt>
      <trkpt lat="44.71976" lon="5.49811">
        <ele>1835.8000488281</ele>
        <time>2022-05-28T17:22:12.000Z</time>
      </trkpt>
      <trkpt lat="44.71985" lon="5.49809">
        <ele>1835.4000244141</ele>
        <time>2022-05-28T17:22:24.000Z</time>
      </trkpt>
      <trkpt lat="44.72001" lon="5.49795">
        <ele>1835.5999755859</ele>
        <time>2022-05-28T17:22:38.000Z</time>
      </trkpt>
      <trkpt lat="44.72031" lon="5.49769">
        <ele>1832.5999755859</ele>
        <time>2022-05-28T17:23:03.000Z</time>
      </trkpt>
      <trkpt lat="44.72047" lon="5.49756">
        <ele>1832</ele>
        <time>2022-05-28T17:23:18.000Z</time>
      </trkpt>
      <trkpt lat="44.72089" lon="5.49731">
        <ele>1832</ele>
        <time>2022-05-28T17:23:52.000Z</time>
      </trkpt>
      <trkpt lat="44.72123" lon="5.49708">
        <ele>1828.5999755859</ele>
        <time>2022-05-28T17:24:21.000Z</time>
      </trkpt>
      <trkpt lat="44.72125" lon="5.49708">
        <ele>1828.4000244141</ele>
        <time>2022-05-28T17:24:22.000Z</time>
      </trkpt>
      <trkpt lat="44.72126" lon="5.49707">
        <ele>1828.1999511719</ele>
        <time>2022-05-28T17:24:23.000Z</time>
      </trkpt>
      <trkpt lat="44.72129" lon="5.49705">
        <ele>1828</ele>
        <time>2022-05-28T17:24:25.000Z</time>
      </trkpt>
      <trkpt lat="44.72135" lon="5.49702">
        <ele>1826.4000244141</ele>
        <time>2022-05-28T17:24:31.000Z</time>
      </trkpt>
      <trkpt lat="44.72139" lon="5.49702">
        <ele>1825.5999755859</ele>
        <time>2022-05-28T17:24:40.000Z</time>
      </trkpt>
      <trkpt lat="44.72151" lon="5.497">
        <ele>1823.8000488281</ele>
        <time>2022-05-28T17:24:49.000Z</time>
      </trkpt>
      <trkpt lat="44.72166" lon="5.49693">
        <ele>1822.4000244141</ele>
        <time>2022-05-28T17:24:59.000Z</time>
      </trkpt>
      <trkpt lat="44.72177" lon="5.49684">
        <ele>1820.8000488281</ele>
        <time>2022-05-28T17:25:08.000Z</time>
      </trkpt>
      <trkpt lat="44.7219" lon="5.49671">
        <ele>1819.4000244141</ele>
        <time>2022-05-28T17:25:19.000Z</time>
      </trkpt>
      <trkpt lat="44.72232" lon="5.49654">
        <ele>1815</ele>
        <time>2022-05-28T17:25:57.000Z</time>
      </trkpt>
      <trkpt lat="44.72232" lon="5.49653">
        <ele>1815</ele>
        <time>2022-05-28T17:26:15.000Z</time>
      </trkpt>
      <trkpt lat="44.72232" lon="5.49653">
        <ele>1815</ele>
        <time>2022-05-28T17:26:21.000Z</time>
      </trkpt>
      <trkpt lat="44.72232" lon="5.49653">
        <ele>1814.8000488281</ele>
        <time>2022-05-28T17:26:27.000Z</time>
      </trkpt>
      <trkpt lat="44.72234" lon="5.49648">
        <ele>1814</ele>
        <time>2022-05-28T17:26:42.000Z</time>
      </trkpt>
      <trkpt lat="44.72235" lon="5.49641">
        <ele>1813.4000244141</ele>
        <time>2022-05-28T17:26:47.000Z</time>
      </trkpt>
      <trkpt lat="44.72236" lon="5.49638">
        <ele>1813.1999511719</ele>
        <time>2022-05-28T17:26:49.000Z</time>
      </trkpt>
      <trkpt lat="44.72236" lon="5.49632">
        <ele>1812.8000488281</ele>
        <time>2022-05-28T17:26:53.000Z</time>
      </trkpt>
      <trkpt lat="44.72237" lon="5.49629">
        <ele>1812.8000488281</ele>
        <time>2022-05-28T17:26:54.000Z</time>
      </trkpt>
      <trkpt lat="44.72237" lon="5.49626">
        <ele>1812.5999755859</ele>
        <time>2022-05-28T17:26:56.000Z</time>
      </trkpt>
      <trkpt lat="44.7224" lon="5.49615">
        <ele>1811.5999755859</ele>
        <time>2022-05-28T17:27:02.000Z</time>
      </trkpt>
      <trkpt lat="44.72244" lon="5.49609">
        <ele>1810.5999755859</ele>
        <time>2022-05-28T17:27:06.000Z</time>
      </trkpt>
      <trkpt lat="44.72247" lon="5.49603">
        <ele>1810</ele>
        <time>2022-05-28T17:27:10.000Z</time>
      </trkpt>
      <trkpt lat="44.72252" lon="5.49593">
        <ele>1809.5999755859</ele>
        <time>2022-05-28T17:27:16.000Z</time>
      </trkpt>
      <trkpt lat="44.72253" lon="5.4959">
        <ele>1809.1999511719</ele>
        <time>2022-05-28T17:27:18.000Z</time>
      </trkpt>
      <trkpt lat="44.72256" lon="5.49585">
        <ele>1809</ele>
        <time>2022-05-28T17:27:21.000Z</time>
      </trkpt>
      <trkpt lat="44.72288" lon="5.49539">
        <ele>1805.5999755859</ele>
        <time>2022-05-28T17:27:55.000Z</time>
      </trkpt>
      <trkpt lat="44.7229" lon="5.49534">
        <ele>1805</ele>
        <time>2022-05-28T17:27:58.000Z</time>
      </trkpt>
      <trkpt lat="44.72292" lon="5.49529">
        <ele>1805.8000488281</ele>
        <time>2022-05-28T17:28:01.000Z</time>
      </trkpt>
      <trkpt lat="44.72312" lon="5.49496">
        <ele>1802.5999755859</ele>
        <time>2022-05-28T17:28:24.000Z</time>
      </trkpt>
      <trkpt lat="44.72336" lon="5.4946">
        <ele>1793</ele>
        <time>2022-05-28T17:28:49.000Z</time>
      </trkpt>
      <trkpt lat="44.7235" lon="5.49443">
        <ele>1789</ele>
        <time>2022-05-28T17:29:02.000Z</time>
      </trkpt>
      <trkpt lat="44.72351" lon="5.49441">
        <ele>1788.8000488281</ele>
        <time>2022-05-28T17:29:03.000Z</time>
      </trkpt>
      <trkpt lat="44.72352" lon="5.4944">
        <ele>1788.5999755859</ele>
        <time>2022-05-28T17:29:04.000Z</time>
      </trkpt>
      <trkpt lat="44.72353" lon="5.49439">
        <ele>1788.4000244141</ele>
        <time>2022-05-28T17:29:05.000Z</time>
      </trkpt>
      <trkpt lat="44.72354" lon="5.49437">
        <ele>1788.1999511719</ele>
        <time>2022-05-28T17:29:06.000Z</time>
      </trkpt>
      <trkpt lat="44.72355" lon="5.49436">
        <ele>1788</ele>
        <time>2022-05-28T17:29:07.000Z</time>
      </trkpt>
      <trkpt lat="44.72356" lon="5.49435">
        <ele>1787.8000488281</ele>
        <time>2022-05-28T17:29:08.000Z</time>
      </trkpt>
      <trkpt lat="44.72356" lon="5.49433">
        <ele>1787.5999755859</ele>
        <time>2022-05-28T17:29:09.000Z</time>
      </trkpt>
      <trkpt lat="44.72373" lon="5.49414">
        <ele>1786.8000488281</ele>
        <time>2022-05-28T17:29:25.000Z</time>
      </trkpt>
      <trkpt lat="44.7238" lon="5.49408">
        <ele>1785.5999755859</ele>
        <time>2022-05-28T17:29:31.000Z</time>
      </trkpt>
      <trkpt lat="44.72385" lon="5.49405">
        <ele>1785</ele>
        <time>2022-05-28T17:29:35.000Z</time>
      </trkpt>
      <trkpt lat="44.72387" lon="5.49401">
        <ele>1785.4000244141</ele>
        <time>2022-05-28T17:29:40.000Z</time>
      </trkpt>
      <trkpt lat="44.72388" lon="5.49397">
        <ele>1786.1999511719</ele>
        <time>2022-05-28T17:29:43.000Z</time>
      </trkpt>
      <trkpt lat="44.72391" lon="5.4939">
        <ele>1787.1999511719</ele>
        <time>2022-05-28T17:29:48.000Z</time>
      </trkpt>
      <trkpt lat="44.72405" lon="5.49379">
        <ele>1786.5999755859</ele>
        <time>2022-05-28T17:30:01.000Z</time>
      </trkpt>
      <trkpt lat="44.72406" lon="5.49378">
        <ele>1786.5999755859</ele>
        <time>2022-05-28T17:30:02.000Z</time>
      </trkpt>
      <trkpt lat="44.72407" lon="5.49377">
        <ele>1786.5999755859</ele>
        <time>2022-05-28T17:30:03.000Z</time>
      </trkpt>
      <trkpt lat="44.72409" lon="5.49376">
        <ele>1786.4000244141</ele>
        <time>2022-05-28T17:30:04.000Z</time>
      </trkpt>
      <trkpt lat="44.72425" lon="5.49362">
        <ele>1788.4000244141</ele>
        <time>2022-05-28T17:30:19.000Z</time>
      </trkpt>
      <trkpt lat="44.72436" lon="5.49355">
        <ele>1788</ele>
        <time>2022-05-28T17:30:27.000Z</time>
      </trkpt>
      <trkpt lat="44.72445" lon="5.4935">
        <ele>1787.8000488281</ele>
        <time>2022-05-28T17:30:34.000Z</time>
      </trkpt>
      <trkpt lat="44.7247" lon="5.49329">
        <ele>1788</ele>
        <time>2022-05-28T17:30:57.000Z</time>
      </trkpt>
      <trkpt lat="44.72507" lon="5.49293">
        <ele>1784</ele>
        <time>2022-05-28T17:31:31.000Z</time>
      </trkpt>
      <trkpt lat="44.72551" lon="5.49275">
        <ele>1780.5999755859</ele>
        <time>2022-05-28T17:32:03.000Z</time>
      </trkpt>
      <trkpt lat="44.72595" lon="5.49261">
        <ele>1779.5999755859</ele>
        <time>2022-05-28T17:32:38.000Z</time>
      </trkpt>
      <trkpt lat="44.72596" lon="5.4926">
        <ele>1779.1999511719</ele>
        <time>2022-05-28T17:32:39.000Z</time>
      </trkpt>
      <trkpt lat="44.72601" lon="5.49256">
        <ele>1779.4000244141</ele>
        <time>2022-05-28T17:32:44.000Z</time>
      </trkpt>
      <trkpt lat="44.72602" lon="5.49255">
        <ele>1780</ele>
        <time>2022-05-28T17:32:45.000Z</time>
      </trkpt>
      <trkpt lat="44.72604" lon="5.49253">
        <ele>1781</ele>
        <time>2022-05-28T17:32:47.000Z</time>
      </trkpt>
      <trkpt lat="44.72605" lon="5.49252">
        <ele>1781.4000244141</ele>
        <time>2022-05-28T17:32:48.000Z</time>
      </trkpt>
      <trkpt lat="44.72606" lon="5.49251">
        <ele>1782</ele>
        <time>2022-05-28T17:32:49.000Z</time>
      </trkpt>
      <trkpt lat="44.72607" lon="5.4925">
        <ele>1782.5999755859</ele>
        <time>2022-05-28T17:32:50.000Z</time>
      </trkpt>
      <trkpt lat="44.72614" lon="5.49242">
        <ele>1782.1999511719</ele>
        <time>2022-05-28T17:32:58.000Z</time>
      </trkpt>
      <trkpt lat="44.7263" lon="5.49234">
        <ele>1780</ele>
        <time>2022-05-28T17:33:20.000Z</time>
      </trkpt>
      <trkpt lat="44.72636" lon="5.49235">
        <ele>1779.8000488281</ele>
        <time>2022-05-28T17:33:38.000Z</time>
      </trkpt>
      <trkpt lat="44.72681" lon="5.49236">
        <ele>1778.1999511719</ele>
        <time>2022-05-28T17:34:14.000Z</time>
      </trkpt>
      <trkpt lat="44.72693" lon="5.4924">
        <ele>1776</ele>
        <time>2022-05-28T17:34:59.000Z</time>
      </trkpt>
      <trkpt lat="44.72705" lon="5.49217">
        <ele>1776</ele>
        <time>2022-05-28T17:35:49.000Z</time>
      </trkpt>
      <trkpt lat="44.72704" lon="5.49217">
        <ele>1776.4000244141</ele>
        <time>2022-05-28T17:36:08.000Z</time>
      </trkpt>
      <trkpt lat="44.72704" lon="5.49217">
        <ele>1776.4000244141</ele>
        <time>2022-05-28T17:36:13.000Z</time>
      </trkpt>
      <trkpt lat="44.72704" lon="5.49217">
        <ele>1776.4000244141</ele>
        <time>2022-05-28T17:36:20.000Z</time>
      </trkpt>
      <trkpt lat="44.72704" lon="5.49216">
        <ele>1776.4000244141</ele>
        <time>2022-05-28T17:36:31.000Z</time>
      </trkpt>
      <trkpt lat="44.72704" lon="5.49217">
        <ele>1776.4000244141</ele>
        <time>2022-05-28T17:36:38.000Z</time>
      </trkpt>
      <trkpt lat="44.72704" lon="5.49217">
        <ele>1776.4000244141</ele>
        <time>2022-05-28T17:36:40.000Z</time>
      </trkpt>
      <trkpt lat="44.72704" lon="5.49217">
        <ele>1776.4000244141</ele>
        <time>2022-05-28T17:36:46.000Z</time>
      </trkpt>
      <trkpt lat="44.72704" lon="5.49216">
        <ele>1776.4000244141</ele>
        <time>2022-05-28T17:36:52.000Z</time>
      </trkpt>
      <trkpt lat="44.72704" lon="5.49216">
        <ele>1776.5999755859</ele>
        <time>2022-05-28T17:37:06.000Z</time>
      </trkpt>
      <trkpt lat="44.72702" lon="5.49215">
        <ele>1778.1999511719</ele>
        <time>2022-05-28T17:37:18.000Z</time>
      </trkpt>
      <trkpt lat="44.72701" lon="5.49216">
        <ele>1778.4000244141</ele>
        <time>2022-05-28T17:37:29.000Z</time>
      </trkpt>
      <trkpt lat="44.72701" lon="5.49217">
        <ele>1778.5999755859</ele>
        <time>2022-05-28T17:37:35.000Z</time>
      </trkpt>
      <trkpt lat="44.72701" lon="5.49217">
        <ele>1778.5999755859</ele>
        <time>2022-05-28T17:37:36.000Z</time>
      </trkpt>
      <trkpt lat="44.72701" lon="5.49215">
        <ele>1778.8000488281</ele>
        <time>2022-05-28T17:37:43.000Z</time>
      </trkpt>
      <trkpt lat="44.72701" lon="5.49217">
        <ele>1778.5999755859</ele>
        <time>2022-05-28T17:37:48.000Z</time>
      </trkpt>
      <trkpt lat="44.72701" lon="5.49219">
        <ele>1778.8000488281</ele>
        <time>2022-05-28T17:38:10.000Z</time>
      </trkpt>
      <trkpt lat="44.72701" lon="5.49217">
        <ele>1779</ele>
        <time>2022-05-28T17:38:42.000Z</time>
      </trkpt>
      <trkpt lat="44.72702" lon="5.49218">
        <ele>1778.4000244141</ele>
        <time>2022-05-28T17:38:51.000Z</time>
      </trkpt>
      <trkpt lat="44.72701" lon="5.49218">
        <ele>1778.5999755859</ele>
        <time>2022-05-28T17:38:53.000Z</time>
      </trkpt>
      <trkpt lat="44.72701" lon="5.49218">
        <ele>1778.5999755859</ele>
        <time>2022-05-28T17:38:59.000Z</time>
      </trkpt>
      <trkpt lat="44.72701" lon="5.49218">
        <ele>1778.5999755859</ele>
        <time>2022-05-28T17:39:06.000Z</time>
      </trkpt>
      <trkpt lat="44.72701" lon="5.49221">
        <ele>1778.8000488281</ele>
        <time>2022-05-28T17:39:24.000Z</time>
      </trkpt>
      <trkpt lat="44.72701" lon="5.49221">
        <ele>1778.8000488281</ele>
        <time>2022-05-28T17:39:33.000Z</time>
      </trkpt>
      <trkpt lat="44.72701" lon="5.4922">
        <ele>1778.5999755859</ele>
        <time>2022-05-28T17:39:44.000Z</time>
      </trkpt>
      <trkpt lat="44.72701" lon="5.4921">
        <ele>1778.8000488281</ele>
        <time>2022-05-28T17:39:58.000Z</time>
      </trkpt>
      <trkpt lat="44.72701" lon="5.49206">
        <ele>1778.4000244141</ele>
        <time>2022-05-28T17:40:00.000Z</time>
      </trkpt>
      <trkpt lat="44.72702" lon="5.49202">
        <ele>1778.4000244141</ele>
        <time>2022-05-28T17:40:02.000Z</time>
      </trkpt>
      <trkpt lat="44.72702" lon="5.49194">
        <ele>1778.5999755859</ele>
        <time>2022-05-28T17:40:06.000Z</time>
      </trkpt>
      <trkpt lat="44.72702" lon="5.49192">
        <ele>1778.4000244141</ele>
        <time>2022-05-28T17:40:07.000Z</time>
      </trkpt>
      <trkpt lat="44.72702" lon="5.49188">
        <ele>1777.8000488281</ele>
        <time>2022-05-28T17:40:09.000Z</time>
      </trkpt>
      <trkpt lat="44.72703" lon="5.49184">
        <ele>1777</ele>
        <time>2022-05-28T17:40:11.000Z</time>
      </trkpt>
      <trkpt lat="44.72705" lon="5.49176">
        <ele>1775.1999511719</ele>
        <time>2022-05-28T17:40:21.000Z</time>
      </trkpt>
      <trkpt lat="44.72706" lon="5.49175">
        <ele>1774.8000488281</ele>
        <time>2022-05-28T17:40:22.000Z</time>
      </trkpt>
      <trkpt lat="44.72708" lon="5.49175">
        <ele>1774</ele>
        <time>2022-05-28T17:40:29.000Z</time>
      </trkpt>
      <trkpt lat="44.72708" lon="5.49176">
        <ele>1774</ele>
        <time>2022-05-28T17:40:35.000Z</time>
      </trkpt>
      <trkpt lat="44.72708" lon="5.49176">
        <ele>1774</ele>
        <time>2022-05-28T17:40:38.000Z</time>
      </trkpt>
      <trkpt lat="44.72708" lon="5.49176">
        <ele>1774</ele>
        <time>2022-05-28T17:40:40.000Z</time>
      </trkpt>
      <trkpt lat="44.72708" lon="5.49175">
        <ele>1774</ele>
        <time>2022-05-28T17:40:44.000Z</time>
      </trkpt>
      <trkpt lat="44.72708" lon="5.49176">
        <ele>1774</ele>
        <time>2022-05-28T17:40:59.000Z</time>
      </trkpt>
      <trkpt lat="44.72707" lon="5.49174">
        <ele>1774.4000244141</ele>
        <time>2022-05-28T17:41:07.000Z</time>
      </trkpt>
      <trkpt lat="44.72707" lon="5.49168">
        <ele>1774.5999755859</ele>
        <time>2022-05-28T17:41:12.000Z</time>
      </trkpt>
      <trkpt lat="44.72708" lon="5.49161">
        <ele>1773.8000488281</ele>
        <time>2022-05-28T17:41:23.000Z</time>
      </trkpt>
      <trkpt lat="44.72708" lon="5.49159">
        <ele>1773.1999511719</ele>
        <time>2022-05-28T17:41:26.000Z</time>
      </trkpt>
      <trkpt lat="44.72709" lon="5.49154">
        <ele>1772.4000244141</ele>
        <time>2022-05-28T17:41:29.000Z</time>
      </trkpt>
      <trkpt lat="44.7271" lon="5.49142">
        <ele>1771.4000244141</ele>
        <time>2022-05-28T17:41:35.000Z</time>
      </trkpt>
      <trkpt lat="44.72714" lon="5.49118">
        <ele>1769.1999511719</ele>
        <time>2022-05-28T17:41:48.000Z</time>
      </trkpt>
      <trkpt lat="44.72785" lon="5.49118">
        <ele>1763</ele>
        <time>2022-05-29T05:26:47.000Z</time>
      </trkpt>
      <trkpt lat="44.72785" lon="5.49117">
        <ele>1763</ele>
        <time>2022-05-29T05:26:48.000Z</time>
      </trkpt>
      <trkpt lat="44.72788" lon="5.49109">
        <ele>1763.1999511719</ele>
        <time>2022-05-29T05:26:58.000Z</time>
      </trkpt>
      <trkpt lat="44.72786" lon="5.49103">
        <ele>1763.8000488281</ele>
        <time>2022-05-29T05:27:06.000Z</time>
      </trkpt>
      <trkpt lat="44.72784" lon="5.49099">
        <ele>1764</ele>
        <time>2022-05-29T05:27:10.000Z</time>
      </trkpt>
      <trkpt lat="44.72783" lon="5.49097">
        <ele>1764.1999511719</ele>
        <time>2022-05-29T05:27:12.000Z</time>
      </trkpt>
      <trkpt lat="44.72782" lon="5.49094">
        <ele>1764.4000244141</ele>
        <time>2022-05-29T05:27:14.000Z</time>
      </trkpt>
      <trkpt lat="44.72781" lon="5.49091">
        <ele>1764.5999755859</ele>
        <time>2022-05-29T05:27:16.000Z</time>
      </trkpt>
      <trkpt lat="44.7278" lon="5.49088">
        <ele>1764.8000488281</ele>
        <time>2022-05-29T05:27:18.000Z</time>
      </trkpt>
      <trkpt lat="44.72776" lon="5.49081">
        <ele>1765.1999511719</ele>
        <time>2022-05-29T05:27:25.000Z</time>
      </trkpt>
      <trkpt lat="44.72776" lon="5.49078">
        <ele>1765.4000244141</ele>
        <time>2022-05-29T05:27:27.000Z</time>
      </trkpt>
      <trkpt lat="44.72775" lon="5.49077">
        <ele>1765.5999755859</ele>
        <time>2022-05-29T05:27:28.000Z</time>
      </trkpt>
      <trkpt lat="44.72775" lon="5.49075">
        <ele>1765.5999755859</ele>
        <time>2022-05-29T05:27:29.000Z</time>
      </trkpt>
      <trkpt lat="44.72775" lon="5.49074">
        <ele>1765.8000488281</ele>
        <time>2022-05-29T05:27:30.000Z</time>
      </trkpt>
      <trkpt lat="44.72774" lon="5.49068">
        <ele>1766</ele>
        <time>2022-05-29T05:27:35.000Z</time>
      </trkpt>
      <trkpt lat="44.72769" lon="5.49052">
        <ele>1767</ele>
        <time>2022-05-29T05:27:45.000Z</time>
      </trkpt>
      <trkpt lat="44.7276" lon="5.49021">
        <ele>1767</ele>
        <time>2022-05-29T05:28:37.000Z</time>
      </trkpt>
      <trkpt lat="44.7276" lon="5.49021">
        <ele>1767</ele>
        <time>2022-05-29T05:28:52.000Z</time>
      </trkpt>
      <trkpt lat="44.72761" lon="5.4902">
        <ele>1766.8000488281</ele>
        <time>2022-05-29T05:29:00.000Z</time>
      </trkpt>
      <trkpt lat="44.72761" lon="5.4902">
        <ele>1766.8000488281</ele>
        <time>2022-05-29T05:29:07.000Z</time>
      </trkpt>
      <trkpt lat="44.72761" lon="5.4902">
        <ele>1766.8000488281</ele>
        <time>2022-05-29T05:29:15.000Z</time>
      </trkpt>
      <trkpt lat="44.72762" lon="5.4902">
        <ele>1766.8000488281</ele>
        <time>2022-05-29T05:29:27.000Z</time>
      </trkpt>
      <trkpt lat="44.72763" lon="5.49026">
        <ele>1767</ele>
        <time>2022-05-29T05:29:33.000Z</time>
      </trkpt>
      <trkpt lat="44.7277" lon="5.49041">
        <ele>1767.1999511719</ele>
        <time>2022-05-29T05:29:44.000Z</time>
      </trkpt>
      <trkpt lat="44.72772" lon="5.4905">
        <ele>1767.1999511719</ele>
        <time>2022-05-29T05:29:49.000Z</time>
      </trkpt>
      <trkpt lat="44.72775" lon="5.49055">
        <ele>1766.8000488281</ele>
        <time>2022-05-29T05:29:52.000Z</time>
      </trkpt>
      <trkpt lat="44.72777" lon="5.4906">
        <ele>1766.5999755859</ele>
        <time>2022-05-29T05:29:55.000Z</time>
      </trkpt>
      <trkpt lat="44.72779" lon="5.49067">
        <ele>1766</ele>
        <time>2022-05-29T05:30:00.000Z</time>
      </trkpt>
      <trkpt lat="44.72778" lon="5.49075">
        <ele>1765.5999755859</ele>
        <time>2022-05-29T05:30:05.000Z</time>
      </trkpt>
      <trkpt lat="44.72777" lon="5.49078">
        <ele>1765.4000244141</ele>
        <time>2022-05-29T05:30:07.000Z</time>
      </trkpt>
      <trkpt lat="44.72777" lon="5.49079">
        <ele>1765.4000244141</ele>
        <time>2022-05-29T05:30:08.000Z</time>
      </trkpt>
      <trkpt lat="44.72777" lon="5.4908">
        <ele>1765.1999511719</ele>
        <time>2022-05-29T05:30:09.000Z</time>
      </trkpt>
      <trkpt lat="44.72777" lon="5.49081">
        <ele>1765.1999511719</ele>
        <time>2022-05-29T05:30:10.000Z</time>
      </trkpt>
      <trkpt lat="44.72776" lon="5.49082">
        <ele>1765.1999511719</ele>
        <time>2022-05-29T05:30:11.000Z</time>
      </trkpt>
      <trkpt lat="44.72776" lon="5.49082">
        <ele>1765.1999511719</ele>
        <time>2022-05-29T05:30:12.000Z</time>
      </trkpt>
      <trkpt lat="44.72776" lon="5.49088">
        <ele>1764.8000488281</ele>
        <time>2022-05-29T05:30:18.000Z</time>
      </trkpt>
      <trkpt lat="44.72776" lon="5.49088">
        <ele>1764.8000488281</ele>
        <time>2022-05-29T05:30:19.000Z</time>
      </trkpt>
      <trkpt lat="44.72776" lon="5.49088">
        <ele>1764.8000488281</ele>
        <time>2022-05-29T05:30:22.000Z</time>
      </trkpt>
      <trkpt lat="44.72777" lon="5.4909">
        <ele>1764.5999755859</ele>
        <time>2022-05-29T05:30:25.000Z</time>
      </trkpt>
      <trkpt lat="44.72777" lon="5.49091">
        <ele>1764.5999755859</ele>
        <time>2022-05-29T05:30:26.000Z</time>
      </trkpt>
      <trkpt lat="44.72777" lon="5.49094">
        <ele>1764.4000244141</ele>
        <time>2022-05-29T05:30:28.000Z</time>
      </trkpt>
      <trkpt lat="44.7278" lon="5.49099">
        <ele>1764.1999511719</ele>
        <time>2022-05-29T05:30:34.000Z</time>
      </trkpt>
      <trkpt lat="44.72783" lon="5.49106">
        <ele>1763.5999755859</ele>
        <time>2022-05-29T05:30:43.000Z</time>
      </trkpt>
      <trkpt lat="44.72782" lon="5.49124">
        <ele>1762.5999755859</ele>
        <time>2022-05-29T05:31:07.000Z</time>
      </trkpt>
      <trkpt lat="44.72779" lon="5.49132">
        <ele>1762.5999755859</ele>
        <time>2022-05-29T05:32:02.000Z</time>
      </trkpt>
      <trkpt lat="44.72779" lon="5.49132">
        <ele>1762.5999755859</ele>
        <time>2022-05-29T05:32:07.000Z</time>
      </trkpt>
      <trkpt lat="44.72779" lon="5.49132">
        <ele>1762.5999755859</ele>
        <time>2022-05-29T05:32:14.000Z</time>
      </trkpt>
      <trkpt lat="44.7278" lon="5.49131">
        <ele>1762.5999755859</ele>
        <time>2022-05-29T05:32:20.000Z</time>
      </trkpt>
      <trkpt lat="44.72782" lon="5.49127">
        <ele>1762.4000244141</ele>
        <time>2022-05-29T05:32:30.000Z</time>
      </trkpt>
      <trkpt lat="44.72782" lon="5.49129">
        <ele>1762.4000244141</ele>
        <time>2022-05-29T05:32:33.000Z</time>
      </trkpt>
      <trkpt lat="44.72784" lon="5.49116">
        <ele>1763</ele>
        <time>2022-05-29T05:32:52.000Z</time>
      </trkpt>
      <trkpt lat="44.72784" lon="5.49112">
        <ele>1763.1999511719</ele>
        <time>2022-05-29T05:32:55.000Z</time>
      </trkpt>
      <trkpt lat="44.72784" lon="5.49107">
        <ele>1763.5999755859</ele>
        <time>2022-05-29T05:32:58.000Z</time>
      </trkpt>
      <trkpt lat="44.72783" lon="5.49103">
        <ele>1763.8000488281</ele>
        <time>2022-05-29T05:33:00.000Z</time>
      </trkpt>
      <trkpt lat="44.72783" lon="5.49101">
        <ele>1764</ele>
        <time>2022-05-29T05:33:01.000Z</time>
      </trkpt>
      <trkpt lat="44.72783" lon="5.491">
        <ele>1764</ele>
        <time>2022-05-29T05:33:02.000Z</time>
      </trkpt>
      <trkpt lat="44.72783" lon="5.49098">
        <ele>1764.1999511719</ele>
        <time>2022-05-29T05:33:03.000Z</time>
      </trkpt>
      <trkpt lat="44.7278" lon="5.49086">
        <ele>1765</ele>
        <time>2022-05-29T05:33:11.000Z</time>
      </trkpt>
      <trkpt lat="44.7278" lon="5.49082">
        <ele>1765.1999511719</ele>
        <time>2022-05-29T05:33:13.000Z</time>
      </trkpt>
      <trkpt lat="44.72777" lon="5.49068">
        <ele>1766</ele>
        <time>2022-05-29T05:33:22.000Z</time>
      </trkpt>
      <trkpt lat="44.72776" lon="5.49066">
        <ele>1766.1999511719</ele>
        <time>2022-05-29T05:33:23.000Z</time>
      </trkpt>
      <trkpt lat="44.72775" lon="5.49062">
        <ele>1766.4000244141</ele>
        <time>2022-05-29T05:33:26.000Z</time>
      </trkpt>
      <trkpt lat="44.72773" lon="5.49056">
        <ele>1766.8000488281</ele>
        <time>2022-05-29T05:33:29.000Z</time>
      </trkpt>
      <trkpt lat="44.72763" lon="5.49029">
        <ele>1767</ele>
        <time>2022-05-29T05:33:45.000Z</time>
      </trkpt>
      <trkpt lat="44.72757" lon="5.4902">
        <ele>1767</ele>
        <time>2022-05-29T05:33:52.000Z</time>
      </trkpt>
      <trkpt lat="44.72754" lon="5.49015">
        <ele>1767</ele>
        <time>2022-05-29T05:33:56.000Z</time>
      </trkpt>
      <trkpt lat="44.72747" lon="5.49012">
        <ele>1767</ele>
        <time>2022-05-29T05:34:01.000Z</time>
      </trkpt>
      <trkpt lat="44.72743" lon="5.4901">
        <ele>1767</ele>
        <time>2022-05-29T05:34:06.000Z</time>
      </trkpt>
      <trkpt lat="44.72738" lon="5.49005">
        <ele>1767</ele>
        <time>2022-05-29T05:34:18.000Z</time>
      </trkpt>
      <trkpt lat="44.72702" lon="5.48974">
        <ele>1767</ele>
        <time>2022-05-29T05:35:03.000Z</time>
      </trkpt>
      <trkpt lat="44.727" lon="5.48942">
        <ele>1765.4000244141</ele>
        <time>2022-05-29T05:35:25.000Z</time>
      </trkpt>
      <trkpt lat="44.72699" lon="5.4889">
        <ele>1761.8000488281</ele>
        <time>2022-05-29T05:35:57.000Z</time>
      </trkpt>
      <trkpt lat="44.72701" lon="5.48826">
        <ele>1764.5999755859</ele>
        <time>2022-05-29T05:36:35.000Z</time>
      </trkpt>
      <trkpt lat="44.727" lon="5.48806">
        <ele>1765.8000488281</ele>
        <time>2022-05-29T05:36:48.000Z</time>
      </trkpt>
      <trkpt lat="44.72702" lon="5.48767">
        <ele>1765.4000244141</ele>
        <time>2022-05-29T05:37:11.000Z</time>
      </trkpt>
      <trkpt lat="44.72694" lon="5.48706">
        <ele>1765</ele>
        <time>2022-05-29T05:37:49.000Z</time>
      </trkpt>
      <trkpt lat="44.72694" lon="5.48684">
        <ele>1763.8000488281</ele>
        <time>2022-05-29T05:38:02.000Z</time>
      </trkpt>
      <trkpt lat="44.72694" lon="5.48679">
        <ele>1763.4000244141</ele>
        <time>2022-05-29T05:38:05.000Z</time>
      </trkpt>
      <trkpt lat="44.72694" lon="5.48675">
        <ele>1763.1999511719</ele>
        <time>2022-05-29T05:38:08.000Z</time>
      </trkpt>
      <trkpt lat="44.72692" lon="5.48637">
        <ele>1761.1999511719</ele>
        <time>2022-05-29T05:38:32.000Z</time>
      </trkpt>
      <trkpt lat="44.72692" lon="5.48617">
        <ele>1760.8000488281</ele>
        <time>2022-05-29T05:38:44.000Z</time>
      </trkpt>
      <trkpt lat="44.72692" lon="5.48593">
        <ele>1761.5999755859</ele>
        <time>2022-05-29T05:39:01.000Z</time>
      </trkpt>
      <trkpt lat="44.72692" lon="5.48593">
        <ele>1761.5999755859</ele>
        <time>2022-05-29T05:39:02.000Z</time>
      </trkpt>
      <trkpt lat="44.72692" lon="5.48593">
        <ele>1761.5999755859</ele>
        <time>2022-05-29T05:39:03.000Z</time>
      </trkpt>
      <trkpt lat="44.72692" lon="5.48593">
        <ele>1761.5999755859</ele>
        <time>2022-05-29T05:39:04.000Z</time>
      </trkpt>
      <trkpt lat="44.72693" lon="5.48593">
        <ele>1761.4000244141</ele>
        <time>2022-05-29T05:39:06.000Z</time>
      </trkpt>
      <trkpt lat="44.72693" lon="5.48591">
        <ele>1761.5999755859</ele>
        <time>2022-05-29T05:39:09.000Z</time>
      </trkpt>
      <trkpt lat="44.72692" lon="5.48562">
        <ele>1762.8000488281</ele>
        <time>2022-05-29T05:39:20.000Z</time>
      </trkpt>
      <trkpt lat="44.72691" lon="5.48551">
        <ele>1763.1999511719</ele>
        <time>2022-05-29T05:39:26.000Z</time>
      </trkpt>
      <trkpt lat="44.72691" lon="5.48546">
        <ele>1762.8000488281</ele>
        <time>2022-05-29T05:39:29.000Z</time>
      </trkpt>
      <trkpt lat="44.7269" lon="5.4853">
        <ele>1761.5999755859</ele>
        <time>2022-05-29T05:39:39.000Z</time>
      </trkpt>
      <trkpt lat="44.7269" lon="5.48528">
        <ele>1761.5999755859</ele>
        <time>2022-05-29T05:39:40.000Z</time>
      </trkpt>
      <trkpt lat="44.72687" lon="5.48506">
        <ele>1762.4000244141</ele>
        <time>2022-05-29T05:39:53.000Z</time>
      </trkpt>
      <trkpt lat="44.72687" lon="5.48505">
        <ele>1762.5999755859</ele>
        <time>2022-05-29T05:39:54.000Z</time>
      </trkpt>
      <trkpt lat="44.72689" lon="5.48481">
        <ele>1763.8000488281</ele>
        <time>2022-05-29T05:40:09.000Z</time>
      </trkpt>
      <trkpt lat="44.72704" lon="5.48442">
        <ele>1763</ele>
        <time>2022-05-29T05:40:39.000Z</time>
      </trkpt>
      <trkpt lat="44.72717" lon="5.4843">
        <ele>1761.8000488281</ele>
        <time>2022-05-29T05:40:55.000Z</time>
      </trkpt>
      <trkpt lat="44.72732" lon="5.48418">
        <ele>1760.5999755859</ele>
        <time>2022-05-29T05:41:14.000Z</time>
      </trkpt>
      <trkpt lat="44.72737" lon="5.48415">
        <ele>1760.5999755859</ele>
        <time>2022-05-29T05:41:22.000Z</time>
      </trkpt>
      <trkpt lat="44.72738" lon="5.48414">
        <ele>1760.8000488281</ele>
        <time>2022-05-29T05:41:26.000Z</time>
      </trkpt>
      <trkpt lat="44.7274" lon="5.48412">
        <ele>1761.4000244141</ele>
        <time>2022-05-29T05:41:30.000Z</time>
      </trkpt>
      <trkpt lat="44.72741" lon="5.48411">
        <ele>1761.8000488281</ele>
        <time>2022-05-29T05:41:32.000Z</time>
      </trkpt>
      <trkpt lat="44.72742" lon="5.48411">
        <ele>1762.1999511719</ele>
        <time>2022-05-29T05:41:33.000Z</time>
      </trkpt>
      <trkpt lat="44.72743" lon="5.4841">
        <ele>1762.4000244141</ele>
        <time>2022-05-29T05:41:34.000Z</time>
      </trkpt>
      <trkpt lat="44.72744" lon="5.4841">
        <ele>1762.5999755859</ele>
        <time>2022-05-29T05:41:36.000Z</time>
      </trkpt>
      <trkpt lat="44.72745" lon="5.48407">
        <ele>1763.1999511719</ele>
        <time>2022-05-29T05:41:39.000Z</time>
      </trkpt>
      <trkpt lat="44.72746" lon="5.48406">
        <ele>1763.8000488281</ele>
        <time>2022-05-29T05:41:41.000Z</time>
      </trkpt>
      <trkpt lat="44.72748" lon="5.48406">
        <ele>1764</ele>
        <time>2022-05-29T05:41:43.000Z</time>
      </trkpt>
      <trkpt lat="44.72751" lon="5.48401">
        <ele>1765.4000244141</ele>
        <time>2022-05-29T05:41:50.000Z</time>
      </trkpt>
      <trkpt lat="44.72751" lon="5.48401">
        <ele>1765.5999755859</ele>
        <time>2022-05-29T05:41:51.000Z</time>
      </trkpt>
      <trkpt lat="44.72761" lon="5.4839">
        <ele>1768.8000488281</ele>
        <time>2022-05-29T05:42:07.000Z</time>
      </trkpt>
      <trkpt lat="44.72765" lon="5.48384">
        <ele>1770.5999755859</ele>
        <time>2022-05-29T05:42:15.000Z</time>
      </trkpt>
      <trkpt lat="44.72767" lon="5.48381">
        <ele>1770.1999511719</ele>
        <time>2022-05-29T05:42:20.000Z</time>
      </trkpt>
      <trkpt lat="44.72767" lon="5.4838">
        <ele>1770</ele>
        <time>2022-05-29T05:42:21.000Z</time>
      </trkpt>
      <trkpt lat="44.72769" lon="5.48377">
        <ele>1769.4000244141</ele>
        <time>2022-05-29T05:42:25.000Z</time>
      </trkpt>
      <trkpt lat="44.72769" lon="5.48377">
        <ele>1769.1999511719</ele>
        <time>2022-05-29T05:42:26.000Z</time>
      </trkpt>
      <trkpt lat="44.72769" lon="5.48376">
        <ele>1769.1999511719</ele>
        <time>2022-05-29T05:42:27.000Z</time>
      </trkpt>
      <trkpt lat="44.72769" lon="5.48375">
        <ele>1769</ele>
        <time>2022-05-29T05:42:28.000Z</time>
      </trkpt>
      <trkpt lat="44.7277" lon="5.48374">
        <ele>1768.8000488281</ele>
        <time>2022-05-29T05:42:30.000Z</time>
      </trkpt>
      <trkpt lat="44.72772" lon="5.4837">
        <ele>1767.8000488281</ele>
        <time>2022-05-29T05:42:36.000Z</time>
      </trkpt>
      <trkpt lat="44.72773" lon="5.48368">
        <ele>1767.5999755859</ele>
        <time>2022-05-29T05:42:39.000Z</time>
      </trkpt>
      <trkpt lat="44.72776" lon="5.48365">
        <ele>1768.4000244141</ele>
        <time>2022-05-29T05:42:45.000Z</time>
      </trkpt>
      <trkpt lat="44.72777" lon="5.48364">
        <ele>1769.4000244141</ele>
        <time>2022-05-29T05:42:49.000Z</time>
      </trkpt>
      <trkpt lat="44.72778" lon="5.48364">
        <ele>1769.5999755859</ele>
        <time>2022-05-29T05:42:50.000Z</time>
      </trkpt>
      <trkpt lat="44.72778" lon="5.48363">
        <ele>1769.5999755859</ele>
        <time>2022-05-29T05:42:51.000Z</time>
      </trkpt>
      <trkpt lat="44.72779" lon="5.48362">
        <ele>1769.8000488281</ele>
        <time>2022-05-29T05:42:53.000Z</time>
      </trkpt>
      <trkpt lat="44.7278" lon="5.48361">
        <ele>1770.4000244141</ele>
        <time>2022-05-29T05:42:56.000Z</time>
      </trkpt>
      <trkpt lat="44.72783" lon="5.4836">
        <ele>1771.5999755859</ele>
        <time>2022-05-29T05:43:00.000Z</time>
      </trkpt>
      <trkpt lat="44.72787" lon="5.48358">
        <ele>1773.4000244141</ele>
        <time>2022-05-29T05:43:06.000Z</time>
      </trkpt>
      <trkpt lat="44.72788" lon="5.48358">
        <ele>1773.5999755859</ele>
        <time>2022-05-29T05:43:07.000Z</time>
      </trkpt>
      <trkpt lat="44.72788" lon="5.48358">
        <ele>1773.8000488281</ele>
        <time>2022-05-29T05:43:08.000Z</time>
      </trkpt>
      <trkpt lat="44.72789" lon="5.48357">
        <ele>1773.8000488281</ele>
        <time>2022-05-29T05:43:09.000Z</time>
      </trkpt>
      <trkpt lat="44.72801" lon="5.48347">
        <ele>1775</ele>
        <time>2022-05-29T05:43:32.000Z</time>
      </trkpt>
      <trkpt lat="44.72805" lon="5.48344">
        <ele>1775.4000244141</ele>
        <time>2022-05-29T05:43:40.000Z</time>
      </trkpt>
      <trkpt lat="44.72808" lon="5.48343">
        <ele>1775.8000488281</ele>
        <time>2022-05-29T05:43:45.000Z</time>
      </trkpt>
      <trkpt lat="44.72813" lon="5.48341">
        <ele>1776.5999755859</ele>
        <time>2022-05-29T05:43:54.000Z</time>
      </trkpt>
      <trkpt lat="44.72816" lon="5.48338">
        <ele>1777</ele>
        <time>2022-05-29T05:44:00.000Z</time>
      </trkpt>
      <trkpt lat="44.7282" lon="5.48336">
        <ele>1777.4000244141</ele>
        <time>2022-05-29T05:44:06.000Z</time>
      </trkpt>
      <trkpt lat="44.72824" lon="5.48332">
        <ele>1778.4000244141</ele>
        <time>2022-05-29T05:44:13.000Z</time>
      </trkpt>
      <trkpt lat="44.7283" lon="5.48325">
        <ele>1780.8000488281</ele>
        <time>2022-05-29T05:44:27.000Z</time>
      </trkpt>
      <trkpt lat="44.72833" lon="5.48321">
        <ele>1782.1999511719</ele>
        <time>2022-05-29T05:44:36.000Z</time>
      </trkpt>
      <trkpt lat="44.72842" lon="5.48311">
        <ele>1785.5999755859</ele>
        <time>2022-05-29T05:44:53.000Z</time>
      </trkpt>
      <trkpt lat="44.72843" lon="5.48309">
        <ele>1786.1999511719</ele>
        <time>2022-05-29T05:44:56.000Z</time>
      </trkpt>
      <trkpt lat="44.72844" lon="5.48309">
        <ele>1786.4000244141</ele>
        <time>2022-05-29T05:44:57.000Z</time>
      </trkpt>
      <trkpt lat="44.72844" lon="5.48308">
        <ele>1786.5999755859</ele>
        <time>2022-05-29T05:44:58.000Z</time>
      </trkpt>
      <trkpt lat="44.72845" lon="5.48308">
        <ele>1787</ele>
        <time>2022-05-29T05:45:00.000Z</time>
      </trkpt>
      <trkpt lat="44.72847" lon="5.48307">
        <ele>1787.8000488281</ele>
        <time>2022-05-29T05:45:03.000Z</time>
      </trkpt>
      <trkpt lat="44.72848" lon="5.48307">
        <ele>1788</ele>
        <time>2022-05-29T05:45:04.000Z</time>
      </trkpt>
      <trkpt lat="44.72849" lon="5.48306">
        <ele>1788.5999755859</ele>
        <time>2022-05-29T05:45:06.000Z</time>
      </trkpt>
      <trkpt lat="44.72851" lon="5.48303">
        <ele>1789.4000244141</ele>
        <time>2022-05-29T05:45:10.000Z</time>
      </trkpt>
      <trkpt lat="44.72852" lon="5.48301">
        <ele>1789.8000488281</ele>
        <time>2022-05-29T05:45:12.000Z</time>
      </trkpt>
      <trkpt lat="44.72855" lon="5.483">
        <ele>1790.8000488281</ele>
        <time>2022-05-29T05:45:16.000Z</time>
      </trkpt>
      <trkpt lat="44.72857" lon="5.48299">
        <ele>1791.1999511719</ele>
        <time>2022-05-29T05:45:19.000Z</time>
      </trkpt>
      <trkpt lat="44.7286" lon="5.48296">
        <ele>1791.1999511719</ele>
        <time>2022-05-29T05:45:25.000Z</time>
      </trkpt>
      <trkpt lat="44.72862" lon="5.48292">
        <ele>1790.4000244141</ele>
        <time>2022-05-29T05:45:31.000Z</time>
      </trkpt>
      <trkpt lat="44.72866" lon="5.48289">
        <ele>1791.5999755859</ele>
        <time>2022-05-29T05:45:38.000Z</time>
      </trkpt>
      <trkpt lat="44.72867" lon="5.48288">
        <ele>1791.8000488281</ele>
        <time>2022-05-29T05:45:41.000Z</time>
      </trkpt>
      <trkpt lat="44.72868" lon="5.48287">
        <ele>1792.1999511719</ele>
        <time>2022-05-29T05:45:43.000Z</time>
      </trkpt>
      <trkpt lat="44.72869" lon="5.48286">
        <ele>1792.4000244141</ele>
        <time>2022-05-29T05:45:44.000Z</time>
      </trkpt>
      <trkpt lat="44.72875" lon="5.48278">
        <ele>1792.4000244141</ele>
        <time>2022-05-29T05:45:54.000Z</time>
      </trkpt>
      <trkpt lat="44.7289" lon="5.4825">
        <ele>1789.5999755859</ele>
        <time>2022-05-29T05:46:24.000Z</time>
      </trkpt>
      <trkpt lat="44.72891" lon="5.48249">
        <ele>1789.4000244141</ele>
        <time>2022-05-29T05:46:26.000Z</time>
      </trkpt>
      <trkpt lat="44.72893" lon="5.48244">
        <ele>1788.5999755859</ele>
        <time>2022-05-29T05:46:33.000Z</time>
      </trkpt>
      <trkpt lat="44.729" lon="5.48232">
        <ele>1792.1999511719</ele>
        <time>2022-05-29T05:46:50.000Z</time>
      </trkpt>
      <trkpt lat="44.72902" lon="5.4823">
        <ele>1793.4000244141</ele>
        <time>2022-05-29T05:46:54.000Z</time>
      </trkpt>
      <trkpt lat="44.72911" lon="5.48216">
        <ele>1800</ele>
        <time>2022-05-29T05:47:24.000Z</time>
      </trkpt>
      <trkpt lat="44.72913" lon="5.48214">
        <ele>1801.1999511719</ele>
        <time>2022-05-29T05:47:42.000Z</time>
      </trkpt>
      <trkpt lat="44.72916" lon="5.48213">
        <ele>1802.1999511719</ele>
        <time>2022-05-29T05:47:49.000Z</time>
      </trkpt>
      <trkpt lat="44.72915" lon="5.48214">
        <ele>1802.1999511719</ele>
        <time>2022-05-29T05:48:04.000Z</time>
      </trkpt>
      <trkpt lat="44.72941" lon="5.48177">
        <ele>1813.8000488281</ele>
        <time>2022-05-29T05:50:28.000Z</time>
      </trkpt>
      <trkpt lat="44.72962" lon="5.48132">
        <ele>1826.4000244141</ele>
        <time>2022-05-29T05:51:54.000Z</time>
      </trkpt>
      <trkpt lat="44.72985" lon="5.48089">
        <ele>1832.5999755859</ele>
        <time>2022-05-29T05:52:52.000Z</time>
      </trkpt>
      <trkpt lat="44.72994" lon="5.48052">
        <ele>1841.8000488281</ele>
        <time>2022-05-29T05:53:55.000Z</time>
      </trkpt>
      <trkpt lat="44.72994" lon="5.48051">
        <ele>1842</ele>
        <time>2022-05-29T05:53:56.000Z</time>
      </trkpt>
      <trkpt lat="44.72995" lon="5.48051">
        <ele>1842.4000244141</ele>
        <time>2022-05-29T05:53:57.000Z</time>
      </trkpt>
      <trkpt lat="44.72998" lon="5.48043">
        <ele>1844.4000244141</ele>
        <time>2022-05-29T05:54:07.000Z</time>
      </trkpt>
      <trkpt lat="44.72999" lon="5.48041">
        <ele>1845.1999511719</ele>
        <time>2022-05-29T05:54:10.000Z</time>
      </trkpt>
      <trkpt lat="44.73001" lon="5.48036">
        <ele>1846.8000488281</ele>
        <time>2022-05-29T05:54:17.000Z</time>
      </trkpt>
      <trkpt lat="44.73002" lon="5.48033">
        <ele>1847.5999755859</ele>
        <time>2022-05-29T05:54:21.000Z</time>
      </trkpt>
      <trkpt lat="44.73002" lon="5.48018">
        <ele>1848.1999511719</ele>
        <time>2022-05-29T05:54:39.000Z</time>
      </trkpt>
      <trkpt lat="44.73003" lon="5.48017">
        <ele>1848.5999755859</ele>
        <time>2022-05-29T05:54:41.000Z</time>
      </trkpt>
      <trkpt lat="44.73003" lon="5.48016">
        <ele>1848.8000488281</ele>
        <time>2022-05-29T05:54:42.000Z</time>
      </trkpt>
      <trkpt lat="44.73004" lon="5.48015">
        <ele>1849.4000244141</ele>
        <time>2022-05-29T05:54:44.000Z</time>
      </trkpt>
      <trkpt lat="44.73006" lon="5.48012">
        <ele>1850.8000488281</ele>
        <time>2022-05-29T05:54:48.000Z</time>
      </trkpt>
      <trkpt lat="44.7301" lon="5.48001">
        <ele>1855.1999511719</ele>
        <time>2022-05-29T05:55:03.000Z</time>
      </trkpt>
      <trkpt lat="44.73015" lon="5.47991">
        <ele>1859.1999511719</ele>
        <time>2022-05-29T05:55:16.000Z</time>
      </trkpt>
      <trkpt lat="44.73016" lon="5.4799">
        <ele>1860</ele>
        <time>2022-05-29T05:55:18.000Z</time>
      </trkpt>
      <trkpt lat="44.73017" lon="5.47985">
        <ele>1861.4000244141</ele>
        <time>2022-05-29T05:55:24.000Z</time>
      </trkpt>
      <trkpt lat="44.73017" lon="5.47983">
        <ele>1861.5999755859</ele>
        <time>2022-05-29T05:55:25.000Z</time>
      </trkpt>
      <trkpt lat="44.73018" lon="5.47982">
        <ele>1861.8000488281</ele>
        <time>2022-05-29T05:55:26.000Z</time>
      </trkpt>
      <trkpt lat="44.73018" lon="5.47981">
        <ele>1862</ele>
        <time>2022-05-29T05:55:27.000Z</time>
      </trkpt>
      <trkpt lat="44.73018" lon="5.47978">
        <ele>1862.1999511719</ele>
        <time>2022-05-29T05:55:30.000Z</time>
      </trkpt>
      <trkpt lat="44.73018" lon="5.47974">
        <ele>1862.8000488281</ele>
        <time>2022-05-29T05:55:34.000Z</time>
      </trkpt>
      <trkpt lat="44.73018" lon="5.4797">
        <ele>1862.8000488281</ele>
        <time>2022-05-29T05:55:37.000Z</time>
      </trkpt>
      <trkpt lat="44.73017" lon="5.47968">
        <ele>1862.5999755859</ele>
        <time>2022-05-29T05:55:39.000Z</time>
      </trkpt>
      <trkpt lat="44.73017" lon="5.47967">
        <ele>1863</ele>
        <time>2022-05-29T05:55:40.000Z</time>
      </trkpt>
      <trkpt lat="44.73017" lon="5.47962">
        <ele>1863.1999511719</ele>
        <time>2022-05-29T05:55:44.000Z</time>
      </trkpt>
      <trkpt lat="44.73017" lon="5.4796">
        <ele>1863</ele>
        <time>2022-05-29T05:55:45.000Z</time>
      </trkpt>
      <trkpt lat="44.73017" lon="5.47958">
        <ele>1863.1999511719</ele>
        <time>2022-05-29T05:55:48.000Z</time>
      </trkpt>
      <trkpt lat="44.73017" lon="5.47957">
        <ele>1863</ele>
        <time>2022-05-29T05:55:49.000Z</time>
      </trkpt>
      <trkpt lat="44.73021" lon="5.47948">
        <ele>1866</ele>
        <time>2022-05-29T05:56:02.000Z</time>
      </trkpt>
      <trkpt lat="44.73022" lon="5.47942">
        <ele>1867.4000244141</ele>
        <time>2022-05-29T05:56:08.000Z</time>
      </trkpt>
      <trkpt lat="44.73022" lon="5.47933">
        <ele>1867.8000488281</ele>
        <time>2022-05-29T05:56:15.000Z</time>
      </trkpt>
      <trkpt lat="44.73022" lon="5.47932">
        <ele>1868</ele>
        <time>2022-05-29T05:56:16.000Z</time>
      </trkpt>
      <trkpt lat="44.73023" lon="5.47929">
        <ele>1868.8000488281</ele>
        <time>2022-05-29T05:56:18.000Z</time>
      </trkpt>
      <trkpt lat="44.73025" lon="5.47903">
        <ele>1871.8000488281</ele>
        <time>2022-05-29T05:56:40.000Z</time>
      </trkpt>
      <trkpt lat="44.73024" lon="5.47899">
        <ele>1871.1999511719</ele>
        <time>2022-05-29T05:56:45.000Z</time>
      </trkpt>
      <trkpt lat="44.73024" lon="5.47896">
        <ele>1871.5999755859</ele>
        <time>2022-05-29T05:56:47.000Z</time>
      </trkpt>
      <trkpt lat="44.73024" lon="5.47891">
        <ele>1872.1999511719</ele>
        <time>2022-05-29T05:56:50.000Z</time>
      </trkpt>
      <trkpt lat="44.73025" lon="5.47889">
        <ele>1872.4000244141</ele>
        <time>2022-05-29T05:56:51.000Z</time>
      </trkpt>
      <trkpt lat="44.73025" lon="5.47887">
        <ele>1872.5999755859</ele>
        <time>2022-05-29T05:56:52.000Z</time>
      </trkpt>
      <trkpt lat="44.73027" lon="5.4788">
        <ele>1874.1999511719</ele>
        <time>2022-05-29T05:56:57.000Z</time>
      </trkpt>
      <trkpt lat="44.73033" lon="5.47868">
        <ele>1877.5999755859</ele>
        <time>2022-05-29T05:57:05.000Z</time>
      </trkpt>
      <trkpt lat="44.73041" lon="5.4784">
        <ele>1879.4000244141</ele>
        <time>2022-05-29T05:57:22.000Z</time>
      </trkpt>
      <trkpt lat="44.7304" lon="5.47827">
        <ele>1878.4000244141</ele>
        <time>2022-05-29T05:57:29.000Z</time>
      </trkpt>
      <trkpt lat="44.7304" lon="5.47812">
        <ele>1877.1999511719</ele>
        <time>2022-05-29T05:57:37.000Z</time>
      </trkpt>
      <trkpt lat="44.73037" lon="5.47789">
        <ele>1875.5999755859</ele>
        <time>2022-05-29T05:57:50.000Z</time>
      </trkpt>
      <trkpt lat="44.73047" lon="5.47776">
        <ele>1877.8000488281</ele>
        <time>2022-05-29T05:58:02.000Z</time>
      </trkpt>
      <trkpt lat="44.73041" lon="5.47741">
        <ele>1875</ele>
        <time>2022-05-29T05:58:27.000Z</time>
      </trkpt>
      <trkpt lat="44.73041" lon="5.47738">
        <ele>1874.8000488281</ele>
        <time>2022-05-29T05:58:29.000Z</time>
      </trkpt>
      <trkpt lat="44.73043" lon="5.47707">
        <ele>1875.1999511719</ele>
        <time>2022-05-29T05:58:52.000Z</time>
      </trkpt>
      <trkpt lat="44.73043" lon="5.47708">
        <ele>1875.1999511719</ele>
        <time>2022-05-29T05:59:01.000Z</time>
      </trkpt>
      <trkpt lat="44.73043" lon="5.47708">
        <ele>1875.4000244141</ele>
        <time>2022-05-29T05:59:12.000Z</time>
      </trkpt>
      <trkpt lat="44.73045" lon="5.47705">
        <ele>1876</ele>
        <time>2022-05-29T05:59:19.000Z</time>
      </trkpt>
      <trkpt lat="44.73047" lon="5.47695">
        <ele>1876.5999755859</ele>
        <time>2022-05-29T05:59:29.000Z</time>
      </trkpt>
      <trkpt lat="44.73048" lon="5.47684">
        <ele>1877</ele>
        <time>2022-05-29T05:59:36.000Z</time>
      </trkpt>
      <trkpt lat="44.73048" lon="5.4768">
        <ele>1877</ele>
        <time>2022-05-29T05:59:38.000Z</time>
      </trkpt>
      <trkpt lat="44.73049" lon="5.47678">
        <ele>1877</ele>
        <time>2022-05-29T05:59:40.000Z</time>
      </trkpt>
      <trkpt lat="44.73049" lon="5.47676">
        <ele>1877.4000244141</ele>
        <time>2022-05-29T05:59:44.000Z</time>
      </trkpt>
      <trkpt lat="44.73046" lon="5.47655">
        <ele>1876</ele>
        <time>2022-05-29T06:07:32.000Z</time>
      </trkpt>
      <trkpt lat="44.73045" lon="5.47651">
        <ele>1875.5999755859</ele>
        <time>2022-05-29T06:07:33.000Z</time>
      </trkpt>
      <trkpt lat="44.73052" lon="5.47599">
        <ele>1876.4000244141</ele>
        <time>2022-05-29T06:08:11.000Z</time>
      </trkpt>
      <trkpt lat="44.73053" lon="5.47588">
        <ele>1875.8000488281</ele>
        <time>2022-05-29T06:08:19.000Z</time>
      </trkpt>
      <trkpt lat="44.73062" lon="5.47551">
        <ele>1881</ele>
        <time>2022-05-29T06:08:53.000Z</time>
      </trkpt>
      <trkpt lat="44.73081" lon="5.47525">
        <ele>1889.8000488281</ele>
        <time>2022-05-29T06:09:21.000Z</time>
      </trkpt>
      <trkpt lat="44.73095" lon="5.47492">
        <ele>1898</ele>
        <time>2022-05-29T06:09:57.000Z</time>
      </trkpt>
      <trkpt lat="44.73097" lon="5.47493">
        <ele>1899.4000244141</ele>
        <time>2022-05-29T06:10:02.000Z</time>
      </trkpt>
      <trkpt lat="44.73098" lon="5.47493">
        <ele>1900</ele>
        <time>2022-05-29T06:10:03.000Z</time>
      </trkpt>
      <trkpt lat="44.73099" lon="5.47492">
        <ele>1901</ele>
        <time>2022-05-29T06:10:05.000Z</time>
      </trkpt>
      <trkpt lat="44.73101" lon="5.47489">
        <ele>1902</ele>
        <time>2022-05-29T06:10:08.000Z</time>
      </trkpt>
      <trkpt lat="44.73101" lon="5.47487">
        <ele>1902.1999511719</ele>
        <time>2022-05-29T06:10:09.000Z</time>
      </trkpt>
      <trkpt lat="44.73101" lon="5.47485">
        <ele>1902.1999511719</ele>
        <time>2022-05-29T06:10:10.000Z</time>
      </trkpt>
      <trkpt lat="44.73102" lon="5.47479">
        <ele>1903</ele>
        <time>2022-05-29T06:10:14.000Z</time>
      </trkpt>
      <trkpt lat="44.73102" lon="5.47477">
        <ele>1903</ele>
        <time>2022-05-29T06:10:15.000Z</time>
      </trkpt>
      <trkpt lat="44.73102" lon="5.47475">
        <ele>1903</ele>
        <time>2022-05-29T06:10:16.000Z</time>
      </trkpt>
      <trkpt lat="44.73102" lon="5.47474">
        <ele>1903</ele>
        <time>2022-05-29T06:10:17.000Z</time>
      </trkpt>
      <trkpt lat="44.73103" lon="5.47468">
        <ele>1903.5999755859</ele>
        <time>2022-05-29T06:10:21.000Z</time>
      </trkpt>
      <trkpt lat="44.73104" lon="5.4746">
        <ele>1903.8000488281</ele>
        <time>2022-05-29T06:10:25.000Z</time>
      </trkpt>
      <trkpt lat="44.7311" lon="5.47447">
        <ele>1907.1999511719</ele>
        <time>2022-05-29T06:10:34.000Z</time>
      </trkpt>
      <trkpt lat="44.73117" lon="5.47428">
        <ele>1911.1999511719</ele>
        <time>2022-05-29T06:10:47.000Z</time>
      </trkpt>
      <trkpt lat="44.73119" lon="5.47423">
        <ele>1912.4000244141</ele>
        <time>2022-05-29T06:10:51.000Z</time>
      </trkpt>
      <trkpt lat="44.73122" lon="5.47418">
        <ele>1914</ele>
        <time>2022-05-29T06:10:56.000Z</time>
      </trkpt>
      <trkpt lat="44.73124" lon="5.47413">
        <ele>1914.1999511719</ele>
        <time>2022-05-29T06:11:01.000Z</time>
      </trkpt>
      <trkpt lat="44.73123" lon="5.47407">
        <ele>1913.4000244141</ele>
        <time>2022-05-29T06:11:05.000Z</time>
      </trkpt>
      <trkpt lat="44.73126" lon="5.47398">
        <ele>1913.5999755859</ele>
        <time>2022-05-29T06:11:13.000Z</time>
      </trkpt>
      <trkpt lat="44.73128" lon="5.47393">
        <ele>1914</ele>
        <time>2022-05-29T06:11:18.000Z</time>
      </trkpt>
      <trkpt lat="44.73133" lon="5.47373">
        <ele>1916.4000244141</ele>
        <time>2022-05-29T06:11:32.000Z</time>
      </trkpt>
      <trkpt lat="44.73134" lon="5.47371">
        <ele>1916.8000488281</ele>
        <time>2022-05-29T06:11:34.000Z</time>
      </trkpt>
      <trkpt lat="44.73134" lon="5.47371">
        <ele>1916.8000488281</ele>
        <time>2022-05-29T06:11:35.000Z</time>
      </trkpt>
      <trkpt lat="44.73136" lon="5.47367">
        <ele>1917.4000244141</ele>
        <time>2022-05-29T06:11:40.000Z</time>
      </trkpt>
      <trkpt lat="44.73137" lon="5.47366">
        <ele>1917.4000244141</ele>
        <time>2022-05-29T06:11:41.000Z</time>
      </trkpt>
      <trkpt lat="44.73137" lon="5.47365">
        <ele>1917.5999755859</ele>
        <time>2022-05-29T06:11:42.000Z</time>
      </trkpt>
      <trkpt lat="44.73139" lon="5.47361">
        <ele>1918.4000244141</ele>
        <time>2022-05-29T06:11:47.000Z</time>
      </trkpt>
      <trkpt lat="44.73139" lon="5.4736">
        <ele>1918.4000244141</ele>
        <time>2022-05-29T06:11:48.000Z</time>
      </trkpt>
      <trkpt lat="44.7314" lon="5.4736">
        <ele>1918.5999755859</ele>
        <time>2022-05-29T06:11:49.000Z</time>
      </trkpt>
      <trkpt lat="44.73143" lon="5.47351">
        <ele>1919.4000244141</ele>
        <time>2022-05-29T06:11:56.000Z</time>
      </trkpt>
      <trkpt lat="44.73144" lon="5.47349">
        <ele>1919.8000488281</ele>
        <time>2022-05-29T06:11:58.000Z</time>
      </trkpt>
      <trkpt lat="44.73145" lon="5.47348">
        <ele>1920</ele>
        <time>2022-05-29T06:11:59.000Z</time>
      </trkpt>
      <trkpt lat="44.73145" lon="5.47347">
        <ele>1920.1999511719</ele>
        <time>2022-05-29T06:12:00.000Z</time>
      </trkpt>
      <trkpt lat="44.73146" lon="5.47346">
        <ele>1920.4000244141</ele>
        <time>2022-05-29T06:12:01.000Z</time>
      </trkpt>
      <trkpt lat="44.73146" lon="5.47345">
        <ele>1920.5999755859</ele>
        <time>2022-05-29T06:12:02.000Z</time>
      </trkpt>
      <trkpt lat="44.73147" lon="5.47344">
        <ele>1920.5999755859</ele>
        <time>2022-05-29T06:12:03.000Z</time>
      </trkpt>
      <trkpt lat="44.73147" lon="5.47343">
        <ele>1920.8000488281</ele>
        <time>2022-05-29T06:12:04.000Z</time>
      </trkpt>
      <trkpt lat="44.73147" lon="5.47342">
        <ele>1921</ele>
        <time>2022-05-29T06:12:05.000Z</time>
      </trkpt>
      <trkpt lat="44.73148" lon="5.47339">
        <ele>1921</ele>
        <time>2022-05-29T06:12:07.000Z</time>
      </trkpt>
      <trkpt lat="44.73148" lon="5.47338">
        <ele>1921</ele>
        <time>2022-05-29T06:12:08.000Z</time>
      </trkpt>
      <trkpt lat="44.73148" lon="5.47337">
        <ele>1921.1999511719</ele>
        <time>2022-05-29T06:12:09.000Z</time>
      </trkpt>
      <trkpt lat="44.73151" lon="5.47331">
        <ele>1921.8000488281</ele>
        <time>2022-05-29T06:12:15.000Z</time>
      </trkpt>
      <trkpt lat="44.73153" lon="5.47328">
        <ele>1922.8000488281</ele>
        <time>2022-05-29T06:12:18.000Z</time>
      </trkpt>
      <trkpt lat="44.73153" lon="5.47325">
        <ele>1923.4000244141</ele>
        <time>2022-05-29T06:12:21.000Z</time>
      </trkpt>
      <trkpt lat="44.73155" lon="5.47321">
        <ele>1924.5999755859</ele>
        <time>2022-05-29T06:12:25.000Z</time>
      </trkpt>
      <trkpt lat="44.73156" lon="5.47318">
        <ele>1925.4000244141</ele>
        <time>2022-05-29T06:12:28.000Z</time>
      </trkpt>
      <trkpt lat="44.73158" lon="5.47312">
        <ele>1927</ele>
        <time>2022-05-29T06:12:34.000Z</time>
      </trkpt>
      <trkpt lat="44.7316" lon="5.47309">
        <ele>1928.1999511719</ele>
        <time>2022-05-29T06:12:39.000Z</time>
      </trkpt>
      <trkpt lat="44.7316" lon="5.47308">
        <ele>1928.1999511719</ele>
        <time>2022-05-29T06:12:40.000Z</time>
      </trkpt>
      <trkpt lat="44.7316" lon="5.47307">
        <ele>1928.4000244141</ele>
        <time>2022-05-29T06:12:41.000Z</time>
      </trkpt>
      <trkpt lat="44.73161" lon="5.47304">
        <ele>1929.1999511719</ele>
        <time>2022-05-29T06:12:44.000Z</time>
      </trkpt>
      <trkpt lat="44.73162" lon="5.47296">
        <ele>1930.4000244141</ele>
        <time>2022-05-29T06:12:50.000Z</time>
      </trkpt>
      <trkpt lat="44.73163" lon="5.47288">
        <ele>1931.5999755859</ele>
        <time>2022-05-29T06:12:56.000Z</time>
      </trkpt>
      <trkpt lat="44.73164" lon="5.47259">
        <ele>1934.1999511719</ele>
        <time>2022-05-29T06:13:16.000Z</time>
      </trkpt>
      <trkpt lat="44.73164" lon="5.47248">
        <ele>1935.5999755859</ele>
        <time>2022-05-29T06:13:23.000Z</time>
      </trkpt>
      <trkpt lat="44.73164" lon="5.47242">
        <ele>1936.4000244141</ele>
        <time>2022-05-29T06:13:27.000Z</time>
      </trkpt>
      <trkpt lat="44.73164" lon="5.47233">
        <ele>1937.1999511719</ele>
        <time>2022-05-29T06:13:33.000Z</time>
      </trkpt>
      <trkpt lat="44.73163" lon="5.47221">
        <ele>1938.4000244141</ele>
        <time>2022-05-29T06:13:41.000Z</time>
      </trkpt>
      <trkpt lat="44.73162" lon="5.47211">
        <ele>1939.5999755859</ele>
        <time>2022-05-29T06:13:47.000Z</time>
      </trkpt>
      <trkpt lat="44.73162" lon="5.47208">
        <ele>1940</ele>
        <time>2022-05-29T06:13:49.000Z</time>
      </trkpt>
      <trkpt lat="44.73159" lon="5.47179">
        <ele>1943.8000488281</ele>
        <time>2022-05-29T06:14:14.000Z</time>
      </trkpt>
      <trkpt lat="44.7316" lon="5.47175">
        <ele>1945.5999755859</ele>
        <time>2022-05-29T06:14:20.000Z</time>
      </trkpt>
      <trkpt lat="44.7316" lon="5.4717">
        <ele>1946.4000244141</ele>
        <time>2022-05-29T06:14:24.000Z</time>
      </trkpt>
      <trkpt lat="44.73159" lon="5.47162">
        <ele>1946.8000488281</ele>
        <time>2022-05-29T06:14:30.000Z</time>
      </trkpt>
      <trkpt lat="44.7316" lon="5.47141">
        <ele>1950</ele>
        <time>2022-05-29T06:14:48.000Z</time>
      </trkpt>
      <trkpt lat="44.73165" lon="5.47127">
        <ele>1954.5999755859</ele>
        <time>2022-05-29T06:15:02.000Z</time>
      </trkpt>
      <trkpt lat="44.73169" lon="5.47121">
        <ele>1957</ele>
        <time>2022-05-29T06:15:10.000Z</time>
      </trkpt>
      <trkpt lat="44.73176" lon="5.47113">
        <ele>1961.5999755859</ele>
        <time>2022-05-29T06:15:19.000Z</time>
      </trkpt>
      <trkpt lat="44.73179" lon="5.47113">
        <ele>1963.8000488281</ele>
        <time>2022-05-29T06:15:22.000Z</time>
      </trkpt>
      <trkpt lat="44.73184" lon="5.47113">
        <ele>1966.1999511719</ele>
        <time>2022-05-29T06:15:26.000Z</time>
      </trkpt>
      <trkpt lat="44.73195" lon="5.47113">
        <ele>1972.1999511719</ele>
        <time>2022-05-29T06:15:35.000Z</time>
      </trkpt>
      <trkpt lat="44.73204" lon="5.47114">
        <ele>1977.1999511719</ele>
        <time>2022-05-29T06:15:43.000Z</time>
      </trkpt>
      <trkpt lat="44.7322" lon="5.47115">
        <ele>1980</ele>
        <time>2022-05-29T06:15:54.000Z</time>
      </trkpt>
      <trkpt lat="44.7323" lon="5.47116">
        <ele>1982</ele>
        <time>2022-05-29T06:16:02.000Z</time>
      </trkpt>
      <trkpt lat="44.73237" lon="5.47118">
        <ele>1983.4000244141</ele>
        <time>2022-05-29T06:16:08.000Z</time>
      </trkpt>
      <trkpt lat="44.73248" lon="5.47116">
        <ele>1985.4000244141</ele>
        <time>2022-05-29T06:16:17.000Z</time>
      </trkpt>
      <trkpt lat="44.73255" lon="5.47115">
        <ele>1986.8000488281</ele>
        <time>2022-05-29T06:16:25.000Z</time>
      </trkpt>
      <trkpt lat="44.73263" lon="5.47113">
        <ele>1988.4000244141</ele>
        <time>2022-05-29T06:16:34.000Z</time>
      </trkpt>
      <trkpt lat="44.73282" lon="5.47109">
        <ele>1991.5999755859</ele>
        <time>2022-05-29T06:16:53.000Z</time>
      </trkpt>
      <trkpt lat="44.73327" lon="5.47097">
        <ele>1989.1999511719</ele>
        <time>2022-05-29T06:17:37.000Z</time>
      </trkpt>
      <trkpt lat="44.73371" lon="5.47087">
        <ele>1989.1999511719</ele>
        <time>2022-05-29T06:18:16.000Z</time>
      </trkpt>
      <trkpt lat="44.73394" lon="5.4708">
        <ele>1989.8000488281</ele>
        <time>2022-05-29T06:18:36.000Z</time>
      </trkpt>
      <trkpt lat="44.73396" lon="5.4708">
        <ele>1989.8000488281</ele>
        <time>2022-05-29T06:18:38.000Z</time>
      </trkpt>
      <trkpt lat="44.73397" lon="5.4708">
        <ele>1989.8000488281</ele>
        <time>2022-05-29T06:18:39.000Z</time>
      </trkpt>
      <trkpt lat="44.73398" lon="5.4708">
        <ele>1989.8000488281</ele>
        <time>2022-05-29T06:18:40.000Z</time>
      </trkpt>
      <trkpt lat="44.73405" lon="5.47079">
        <ele>1990.1999511719</ele>
        <time>2022-05-29T06:18:49.000Z</time>
      </trkpt>
      <trkpt lat="44.73407" lon="5.47079">
        <ele>1990.4000244141</ele>
        <time>2022-05-29T06:18:51.000Z</time>
      </trkpt>
      <trkpt lat="44.73418" lon="5.47074">
        <ele>1991.8000488281</ele>
        <time>2022-05-29T06:19:04.000Z</time>
      </trkpt>
      <trkpt lat="44.73424" lon="5.47071">
        <ele>1992.5999755859</ele>
        <time>2022-05-29T06:19:11.000Z</time>
      </trkpt>
      <trkpt lat="44.73439" lon="5.47068">
        <ele>1994</ele>
        <time>2022-05-29T06:19:27.000Z</time>
      </trkpt>
      <trkpt lat="44.73443" lon="5.47068">
        <ele>1994.1999511719</ele>
        <time>2022-05-29T06:19:30.000Z</time>
      </trkpt>
      <trkpt lat="44.73444" lon="5.47067">
        <ele>1994.4000244141</ele>
        <time>2022-05-29T06:19:31.000Z</time>
      </trkpt>
      <trkpt lat="44.73446" lon="5.47067">
        <ele>1994.4000244141</ele>
        <time>2022-05-29T06:19:33.000Z</time>
      </trkpt>
      <trkpt lat="44.73447" lon="5.47068">
        <ele>1994.5999755859</ele>
        <time>2022-05-29T06:19:34.000Z</time>
      </trkpt>
      <trkpt lat="44.7345" lon="5.47068">
        <ele>1994.5999755859</ele>
        <time>2022-05-29T06:19:37.000Z</time>
      </trkpt>
      <trkpt lat="44.73455" lon="5.47065">
        <ele>1995.4000244141</ele>
        <time>2022-05-29T06:19:43.000Z</time>
      </trkpt>
      <trkpt lat="44.73462" lon="5.47063">
        <ele>1996.4000244141</ele>
        <time>2022-05-29T06:19:53.000Z</time>
      </trkpt>
      <trkpt lat="44.73463" lon="5.47063">
        <ele>1996.4000244141</ele>
        <time>2022-05-29T06:19:57.000Z</time>
      </trkpt>
      <trkpt lat="44.73465" lon="5.47065">
        <ele>1996.1999511719</ele>
        <time>2022-05-29T06:20:06.000Z</time>
      </trkpt>
      <trkpt lat="44.73465" lon="5.47066">
        <ele>1996.4000244141</ele>
        <time>2022-05-29T06:20:07.000Z</time>
      </trkpt>
      <trkpt lat="44.73466" lon="5.47065">
        <ele>1996.4000244141</ele>
        <time>2022-05-29T06:20:08.000Z</time>
      </trkpt>
      <trkpt lat="44.73466" lon="5.47065">
        <ele>1996.5999755859</ele>
        <time>2022-05-29T06:20:09.000Z</time>
      </trkpt>
      <trkpt lat="44.73467" lon="5.47064">
        <ele>1996.5999755859</ele>
        <time>2022-05-29T06:20:10.000Z</time>
      </trkpt>
      <trkpt lat="44.7347" lon="5.47063">
        <ele>1997.1999511719</ele>
        <time>2022-05-29T06:20:13.000Z</time>
      </trkpt>
      <trkpt lat="44.73475" lon="5.4706">
        <ele>1998</ele>
        <time>2022-05-29T06:20:18.000Z</time>
      </trkpt>
      <trkpt lat="44.73481" lon="5.47059">
        <ele>1998.8000488281</ele>
        <time>2022-05-29T06:20:24.000Z</time>
      </trkpt>
      <trkpt lat="44.73497" lon="5.47056">
        <ele>2000.8000488281</ele>
        <time>2022-05-29T06:20:42.000Z</time>
      </trkpt>
      <trkpt lat="44.73502" lon="5.47056">
        <ele>2001.4000244141</ele>
        <time>2022-05-29T06:20:48.000Z</time>
      </trkpt>
      <trkpt lat="44.73511" lon="5.47055">
        <ele>2002.4000244141</ele>
        <time>2022-05-29T06:20:58.000Z</time>
      </trkpt>
      <trkpt lat="44.73514" lon="5.47053">
        <ele>2003</ele>
        <time>2022-05-29T06:21:04.000Z</time>
      </trkpt>
      <trkpt lat="44.73518" lon="5.47053">
        <ele>2003.5999755859</ele>
        <time>2022-05-29T06:21:11.000Z</time>
      </trkpt>
      <trkpt lat="44.73524" lon="5.47056">
        <ele>2003.8000488281</ele>
        <time>2022-05-29T06:21:19.000Z</time>
      </trkpt>
      <trkpt lat="44.73529" lon="5.47056">
        <ele>2004.1999511719</ele>
        <time>2022-05-29T06:21:28.000Z</time>
      </trkpt>
      <trkpt lat="44.73537" lon="5.47052">
        <ele>2005.5999755859</ele>
        <time>2022-05-29T06:21:38.000Z</time>
      </trkpt>
      <trkpt lat="44.73542" lon="5.47045">
        <ele>2006.8000488281</ele>
        <time>2022-05-29T06:21:51.000Z</time>
      </trkpt>
      <trkpt lat="44.73558" lon="5.47042">
        <ele>2009.4000244141</ele>
        <time>2022-05-29T06:22:10.000Z</time>
      </trkpt>
      <trkpt lat="44.73566" lon="5.47039">
        <ele>2010.8000488281</ele>
        <time>2022-05-29T06:22:19.000Z</time>
      </trkpt>
      <trkpt lat="44.7358" lon="5.47034">
        <ele>2013</ele>
        <time>2022-05-29T06:22:32.000Z</time>
      </trkpt>
      <trkpt lat="44.73601" lon="5.47032">
        <ele>2016.4000244141</ele>
        <time>2022-05-29T06:22:53.000Z</time>
      </trkpt>
      <trkpt lat="44.73602" lon="5.47032">
        <ele>2016.5999755859</ele>
        <time>2022-05-29T06:22:54.000Z</time>
      </trkpt>
      <trkpt lat="44.73615" lon="5.47029">
        <ele>2018.5999755859</ele>
        <time>2022-05-29T06:23:11.000Z</time>
      </trkpt>
      <trkpt lat="44.73633" lon="5.47028">
        <ele>2021</ele>
        <time>2022-05-29T06:23:30.000Z</time>
      </trkpt>
      <trkpt lat="44.73647" lon="5.4703">
        <ele>2022.5999755859</ele>
        <time>2022-05-29T06:23:46.000Z</time>
      </trkpt>
      <trkpt lat="44.73649" lon="5.4703">
        <ele>2022.8000488281</ele>
        <time>2022-05-29T06:23:48.000Z</time>
      </trkpt>
      <trkpt lat="44.7365" lon="5.47029">
        <ele>2023</ele>
        <time>2022-05-29T06:23:50.000Z</time>
      </trkpt>
      <trkpt lat="44.73652" lon="5.47029">
        <ele>2023.1999511719</ele>
        <time>2022-05-29T06:23:52.000Z</time>
      </trkpt>
      <trkpt lat="44.73653" lon="5.47029">
        <ele>2023.4000244141</ele>
        <time>2022-05-29T06:23:53.000Z</time>
      </trkpt>
      <trkpt lat="44.73653" lon="5.47029">
        <ele>2023.4000244141</ele>
        <time>2022-05-29T06:23:54.000Z</time>
      </trkpt>
      <trkpt lat="44.73654" lon="5.47029">
        <ele>2023.5999755859</ele>
        <time>2022-05-29T06:23:55.000Z</time>
      </trkpt>
      <trkpt lat="44.73656" lon="5.47028">
        <ele>2023.8000488281</ele>
        <time>2022-05-29T06:23:57.000Z</time>
      </trkpt>
      <trkpt lat="44.73657" lon="5.47028">
        <ele>2023.8000488281</ele>
        <time>2022-05-29T06:23:58.000Z</time>
      </trkpt>
      <trkpt lat="44.73658" lon="5.47029">
        <ele>2024</ele>
        <time>2022-05-29T06:23:59.000Z</time>
      </trkpt>
      <trkpt lat="44.73662" lon="5.47029">
        <ele>2024.4000244141</ele>
        <time>2022-05-29T06:24:03.000Z</time>
      </trkpt>
      <trkpt lat="44.7367" lon="5.4703">
        <ele>2025.4000244141</ele>
        <time>2022-05-29T06:24:11.000Z</time>
      </trkpt>
      <trkpt lat="44.73674" lon="5.47029">
        <ele>2026</ele>
        <time>2022-05-29T06:24:16.000Z</time>
      </trkpt>
      <trkpt lat="44.73679" lon="5.47028">
        <ele>2026.5999755859</ele>
        <time>2022-05-29T06:24:21.000Z</time>
      </trkpt>
      <trkpt lat="44.7369" lon="5.47024">
        <ele>2027.8000488281</ele>
        <time>2022-05-29T06:24:33.000Z</time>
      </trkpt>
      <trkpt lat="44.73707" lon="5.47022">
        <ele>2029</ele>
        <time>2022-05-29T06:24:52.000Z</time>
      </trkpt>
      <trkpt lat="44.73718" lon="5.47019">
        <ele>2029.1999511719</ele>
        <time>2022-05-29T06:25:08.000Z</time>
      </trkpt>
      <trkpt lat="44.73719" lon="5.4702">
        <ele>2029.1999511719</ele>
        <time>2022-05-29T06:25:10.000Z</time>
      </trkpt>
      <trkpt lat="44.7372" lon="5.4702">
        <ele>2029.1999511719</ele>
        <time>2022-05-29T06:25:19.000Z</time>
      </trkpt>
      <trkpt lat="44.7372" lon="5.47022">
        <ele>2029.1999511719</ele>
        <time>2022-05-29T06:25:30.000Z</time>
      </trkpt>
      <trkpt lat="44.73721" lon="5.47022">
        <ele>2029.1999511719</ele>
        <time>2022-05-29T06:25:36.000Z</time>
      </trkpt>
      <trkpt lat="44.7372" lon="5.47021">
        <ele>2029.1999511719</ele>
        <time>2022-05-29T06:25:46.000Z</time>
      </trkpt>
      <trkpt lat="44.7372" lon="5.47021">
        <ele>2029.1999511719</ele>
        <time>2022-05-29T06:25:55.000Z</time>
      </trkpt>
      <trkpt lat="44.7372" lon="5.47021">
        <ele>2029.1999511719</ele>
        <time>2022-05-29T06:26:06.000Z</time>
      </trkpt>
      <trkpt lat="44.73721" lon="5.47012">
        <ele>2029.1999511719</ele>
        <time>2022-05-29T06:26:17.000Z</time>
      </trkpt>
      <trkpt lat="44.73721" lon="5.47011">
        <ele>2029.1999511719</ele>
        <time>2022-05-29T06:26:18.000Z</time>
      </trkpt>
      <trkpt lat="44.73718" lon="5.47002">
        <ele>2029.1999511719</ele>
        <time>2022-05-29T06:26:28.000Z</time>
      </trkpt>
      <trkpt lat="44.73718" lon="5.47003">
        <ele>2029.1999511719</ele>
        <time>2022-05-29T06:26:41.000Z</time>
      </trkpt>
      <trkpt lat="44.73715" lon="5.47002">
        <ele>2029.1999511719</ele>
        <time>2022-05-29T06:26:49.000Z</time>
      </trkpt>
      <trkpt lat="44.73708" lon="5.46995">
        <ele>2029</ele>
        <time>2022-05-29T06:26:57.000Z</time>
      </trkpt>
      <trkpt lat="44.73707" lon="5.4699">
        <ele>2029</ele>
        <time>2022-05-29T06:27:02.000Z</time>
      </trkpt>
      <trkpt lat="44.7371" lon="5.46984">
        <ele>2029</ele>
        <time>2022-05-29T06:27:07.000Z</time>
      </trkpt>
      <trkpt lat="44.73713" lon="5.46979">
        <ele>2029.1999511719</ele>
        <time>2022-05-29T06:27:12.000Z</time>
      </trkpt>
      <trkpt lat="44.73717" lon="5.46973">
        <ele>2029.4000244141</ele>
        <time>2022-05-29T06:27:18.000Z</time>
      </trkpt>
      <trkpt lat="44.73724" lon="5.46973">
        <ele>2029.5999755859</ele>
        <time>2022-05-29T06:27:25.000Z</time>
      </trkpt>
      <trkpt lat="44.73739" lon="5.46984">
        <ele>2029.8000488281</ele>
        <time>2022-05-29T06:27:43.000Z</time>
      </trkpt>
      <trkpt lat="44.73755" lon="5.47004">
        <ele>2030</ele>
        <time>2022-05-29T06:28:03.000Z</time>
      </trkpt>
      <trkpt lat="44.73758" lon="5.47039">
        <ele>2029.5999755859</ele>
        <time>2022-05-29T06:28:26.000Z</time>
      </trkpt>
      <trkpt lat="44.7374" lon="5.47061">
        <ele>2027.5999755859</ele>
        <time>2022-05-29T06:28:50.000Z</time>
      </trkpt>
      <trkpt lat="44.73739" lon="5.47061">
        <ele>2027.4000244141</ele>
        <time>2022-05-29T06:28:51.000Z</time>
      </trkpt>
      <trkpt lat="44.73713" lon="5.4707">
        <ele>2026.1999511719</ele>
        <time>2022-05-29T06:29:14.000Z</time>
      </trkpt>
      <trkpt lat="44.73706" lon="5.4707">
        <ele>2026.4000244141</ele>
        <time>2022-05-29T06:29:20.000Z</time>
      </trkpt>
      <trkpt lat="44.73702" lon="5.47068">
        <ele>2026.5999755859</ele>
        <time>2022-05-29T06:29:25.000Z</time>
      </trkpt>
      <trkpt lat="44.73678" lon="5.47021">
        <ele>2026.5999755859</ele>
        <time>2022-05-29T06:30:04.000Z</time>
      </trkpt>
      <trkpt lat="44.73697" lon="5.46989">
        <ele>2028.4000244141</ele>
        <time>2022-05-29T06:30:29.000Z</time>
      </trkpt>
      <trkpt lat="44.73702" lon="5.46988">
        <ele>2028.8000488281</ele>
        <time>2022-05-29T06:30:33.000Z</time>
      </trkpt>
      <trkpt lat="44.73703" lon="5.46987">
        <ele>2029</ele>
        <time>2022-05-29T06:30:34.000Z</time>
      </trkpt>
      <trkpt lat="44.73715" lon="5.46985">
        <ele>2029.1999511719</ele>
        <time>2022-05-29T06:30:46.000Z</time>
      </trkpt>
      <trkpt lat="44.73716" lon="5.46985">
        <ele>2029.1999511719</ele>
        <time>2022-05-29T06:30:47.000Z</time>
      </trkpt>
      <trkpt lat="44.73718" lon="5.4699">
        <ele>2029.1999511719</ele>
        <time>2022-05-29T06:30:51.000Z</time>
      </trkpt>
      <trkpt lat="44.73719" lon="5.46997">
        <ele>2029.1999511719</ele>
        <time>2022-05-29T06:30:56.000Z</time>
      </trkpt>
      <trkpt lat="44.73719" lon="5.4701">
        <ele>2029.1999511719</ele>
        <time>2022-05-29T06:31:05.000Z</time>
      </trkpt>
      <trkpt lat="44.73717" lon="5.47015">
        <ele>2029.1999511719</ele>
        <time>2022-05-29T06:31:10.000Z</time>
      </trkpt>
      <trkpt lat="44.73718" lon="5.47017">
        <ele>2029.1999511719</ele>
        <time>2022-05-29T06:31:25.000Z</time>
      </trkpt>
      <trkpt lat="44.73719" lon="5.47018">
        <ele>2029.1999511719</ele>
        <time>2022-05-29T06:31:36.000Z</time>
      </trkpt>
      <trkpt lat="44.73719" lon="5.47018">
        <ele>2029.1999511719</ele>
        <time>2022-05-29T06:31:45.000Z</time>
      </trkpt>
      <trkpt lat="44.73719" lon="5.47017">
        <ele>2029.1999511719</ele>
        <time>2022-05-29T06:31:54.000Z</time>
      </trkpt>
      <trkpt lat="44.73719" lon="5.47018">
        <ele>2029.1999511719</ele>
        <time>2022-05-29T06:32:05.000Z</time>
      </trkpt>
      <trkpt lat="44.73718" lon="5.47017">
        <ele>2029.1999511719</ele>
        <time>2022-05-29T06:32:11.000Z</time>
      </trkpt>
      <trkpt lat="44.73719" lon="5.47016">
        <ele>2029.1999511719</ele>
        <time>2022-05-29T06:32:21.000Z</time>
      </trkpt>
      <trkpt lat="44.73718" lon="5.47019">
        <ele>2029.1999511719</ele>
        <time>2022-05-29T06:32:28.000Z</time>
      </trkpt>
      <trkpt lat="44.73718" lon="5.47021">
        <ele>2029.1999511719</ele>
        <time>2022-05-29T06:32:35.000Z</time>
      </trkpt>
      <trkpt lat="44.73719" lon="5.4702">
        <ele>2029.1999511719</ele>
        <time>2022-05-29T06:32:37.000Z</time>
      </trkpt>
      <trkpt lat="44.73719" lon="5.47019">
        <ele>2029.1999511719</ele>
        <time>2022-05-29T06:32:41.000Z</time>
      </trkpt>
      <trkpt lat="44.73719" lon="5.4702">
        <ele>2029.1999511719</ele>
        <time>2022-05-29T06:32:45.000Z</time>
      </trkpt>
      <trkpt lat="44.73719" lon="5.47019">
        <ele>2029.1999511719</ele>
        <time>2022-05-29T06:32:51.000Z</time>
      </trkpt>
      <trkpt lat="44.73719" lon="5.47019">
        <ele>2029.1999511719</ele>
        <time>2022-05-29T06:32:55.000Z</time>
      </trkpt>
      <trkpt lat="44.7372" lon="5.47019">
        <ele>2029.1999511719</ele>
        <time>2022-05-29T06:33:05.000Z</time>
      </trkpt>
      <trkpt lat="44.7372" lon="5.47019">
        <ele>2029.1999511719</ele>
        <time>2022-05-29T06:33:16.000Z</time>
      </trkpt>
      <trkpt lat="44.7372" lon="5.47019">
        <ele>2029.1999511719</ele>
        <time>2022-05-29T06:33:28.000Z</time>
      </trkpt>
      <trkpt lat="44.7372" lon="5.47018">
        <ele>2029.1999511719</ele>
        <time>2022-05-29T06:33:36.000Z</time>
      </trkpt>
      <trkpt lat="44.7372" lon="5.47019">
        <ele>2029.1999511719</ele>
        <time>2022-05-29T06:33:46.000Z</time>
      </trkpt>
      <trkpt lat="44.73719" lon="5.47019">
        <ele>2029.1999511719</ele>
        <time>2022-05-29T06:34:02.000Z</time>
      </trkpt>
      <trkpt lat="44.73719" lon="5.47026">
        <ele>2029.1999511719</ele>
        <time>2022-05-29T06:34:14.000Z</time>
      </trkpt>
      <trkpt lat="44.73718" lon="5.47027">
        <ele>2029.1999511719</ele>
        <time>2022-05-29T06:34:23.000Z</time>
      </trkpt>
      <trkpt lat="44.73712" lon="5.4702">
        <ele>2029</ele>
        <time>2022-05-29T06:34:36.000Z</time>
      </trkpt>
      <trkpt lat="44.73713" lon="5.47019">
        <ele>2029.1999511719</ele>
        <time>2022-05-29T06:34:38.000Z</time>
      </trkpt>
      <trkpt lat="44.73714" lon="5.47018">
        <ele>2029.1999511719</ele>
        <time>2022-05-29T06:34:39.000Z</time>
      </trkpt>
      <trkpt lat="44.73717" lon="5.47018">
        <ele>2029.1999511719</ele>
        <time>2022-05-29T06:34:46.000Z</time>
      </trkpt>
      <trkpt lat="44.73718" lon="5.47019">
        <ele>2029.1999511719</ele>
        <time>2022-05-29T06:34:48.000Z</time>
      </trkpt>
      <trkpt lat="44.73718" lon="5.4702">
        <ele>2029.1999511719</ele>
        <time>2022-05-29T06:34:49.000Z</time>
      </trkpt>
      <trkpt lat="44.73718" lon="5.47021">
        <ele>2029.1999511719</ele>
        <time>2022-05-29T06:34:51.000Z</time>
      </trkpt>
      <trkpt lat="44.73718" lon="5.47021">
        <ele>2029.1999511719</ele>
        <time>2022-05-29T06:34:54.000Z</time>
      </trkpt>
      <trkpt lat="44.73718" lon="5.47021">
        <ele>2029.1999511719</ele>
        <time>2022-05-29T06:34:55.000Z</time>
      </trkpt>
      <trkpt lat="44.73718" lon="5.47021">
        <ele>2029.1999511719</ele>
        <time>2022-05-29T06:34:57.000Z</time>
      </trkpt>
      <trkpt lat="44.73718" lon="5.47021">
        <ele>2029.1999511719</ele>
        <time>2022-05-29T06:34:58.000Z</time>
      </trkpt>
      <trkpt lat="44.73718" lon="5.4702">
        <ele>2029.1999511719</ele>
        <time>2022-05-29T06:35:01.000Z</time>
      </trkpt>
      <trkpt lat="44.73718" lon="5.4702">
        <ele>2029.1999511719</ele>
        <time>2022-05-29T06:35:05.000Z</time>
      </trkpt>
      <trkpt lat="44.73718" lon="5.47019">
        <ele>2029.1999511719</ele>
        <time>2022-05-29T06:35:07.000Z</time>
      </trkpt>
      <trkpt lat="44.73717" lon="5.47019">
        <ele>2029.1999511719</ele>
        <time>2022-05-29T06:35:10.000Z</time>
      </trkpt>
      <trkpt lat="44.73718" lon="5.47019">
        <ele>2029.1999511719</ele>
        <time>2022-05-29T06:35:15.000Z</time>
      </trkpt>
      <trkpt lat="44.73717" lon="5.47018">
        <ele>2029.1999511719</ele>
        <time>2022-05-29T06:35:18.000Z</time>
      </trkpt>
      <trkpt lat="44.73717" lon="5.47019">
        <ele>2029.1999511719</ele>
        <time>2022-05-29T06:35:24.000Z</time>
      </trkpt>
      <trkpt lat="44.73717" lon="5.47019">
        <ele>2029.1999511719</ele>
        <time>2022-05-29T06:35:26.000Z</time>
      </trkpt>
      <trkpt lat="44.73717" lon="5.47019">
        <ele>2029.1999511719</ele>
        <time>2022-05-29T06:35:27.000Z</time>
      </trkpt>
      <trkpt lat="44.73717" lon="5.47019">
        <ele>2029.1999511719</ele>
        <time>2022-05-29T06:35:29.000Z</time>
      </trkpt>
      <trkpt lat="44.73718" lon="5.47019">
        <ele>2029.1999511719</ele>
        <time>2022-05-29T06:35:34.000Z</time>
      </trkpt>
      <trkpt lat="44.73718" lon="5.47019">
        <ele>2029.1999511719</ele>
        <time>2022-05-29T06:35:38.000Z</time>
      </trkpt>
      <trkpt lat="44.73717" lon="5.47019">
        <ele>2029.1999511719</ele>
        <time>2022-05-29T06:35:47.000Z</time>
      </trkpt>
      <trkpt lat="44.73718" lon="5.4702">
        <ele>2029.1999511719</ele>
        <time>2022-05-29T06:35:50.000Z</time>
      </trkpt>
      <trkpt lat="44.73718" lon="5.47019">
        <ele>2029.1999511719</ele>
        <time>2022-05-29T06:35:52.000Z</time>
      </trkpt>
      <trkpt lat="44.73718" lon="5.47019">
        <ele>2029.1999511719</ele>
        <time>2022-05-29T06:35:54.000Z</time>
      </trkpt>
      <trkpt lat="44.73718" lon="5.4702">
        <ele>2029.1999511719</ele>
        <time>2022-05-29T06:36:02.000Z</time>
      </trkpt>
      <trkpt lat="44.73718" lon="5.4702">
        <ele>2029.1999511719</ele>
        <time>2022-05-29T06:36:07.000Z</time>
      </trkpt>
      <trkpt lat="44.73719" lon="5.4702">
        <ele>2029.1999511719</ele>
        <time>2022-05-29T06:36:17.000Z</time>
      </trkpt>
      <trkpt lat="44.73719" lon="5.4702">
        <ele>2029.1999511719</ele>
        <time>2022-05-29T06:36:23.000Z</time>
      </trkpt>
      <trkpt lat="44.7372" lon="5.4702">
        <ele>2029.1999511719</ele>
        <time>2022-05-29T06:36:42.000Z</time>
      </trkpt>
      <trkpt lat="44.73719" lon="5.47019">
        <ele>2029.1999511719</ele>
        <time>2022-05-29T06:37:02.000Z</time>
      </trkpt>
      <trkpt lat="44.73719" lon="5.4702">
        <ele>2029.1999511719</ele>
        <time>2022-05-29T06:37:06.000Z</time>
      </trkpt>
      <trkpt lat="44.73719" lon="5.4702">
        <ele>2029.1999511719</ele>
        <time>2022-05-29T06:37:10.000Z</time>
      </trkpt>
      <trkpt lat="44.73719" lon="5.4702">
        <ele>2029.1999511719</ele>
        <time>2022-05-29T06:37:13.000Z</time>
      </trkpt>
      <trkpt lat="44.73719" lon="5.47021">
        <ele>2029.1999511719</ele>
        <time>2022-05-29T06:37:16.000Z</time>
      </trkpt>
      <trkpt lat="44.73719" lon="5.47022">
        <ele>2029.1999511719</ele>
        <time>2022-05-29T06:37:19.000Z</time>
      </trkpt>
      <trkpt lat="44.73719" lon="5.47022">
        <ele>2029.1999511719</ele>
        <time>2022-05-29T06:37:23.000Z</time>
      </trkpt>
      <trkpt lat="44.73719" lon="5.47022">
        <ele>2029.1999511719</ele>
        <time>2022-05-29T06:37:25.000Z</time>
      </trkpt>
      <trkpt lat="44.73719" lon="5.47021">
        <ele>2029.1999511719</ele>
        <time>2022-05-29T06:37:28.000Z</time>
      </trkpt>
      <trkpt lat="44.73719" lon="5.47021">
        <ele>2029.1999511719</ele>
        <time>2022-05-29T06:37:30.000Z</time>
      </trkpt>
      <trkpt lat="44.73719" lon="5.47021">
        <ele>2029.1999511719</ele>
        <time>2022-05-29T06:37:31.000Z</time>
      </trkpt>
      <trkpt lat="44.73719" lon="5.47021">
        <ele>2029.1999511719</ele>
        <time>2022-05-29T06:37:32.000Z</time>
      </trkpt>
      <trkpt lat="44.73719" lon="5.47021">
        <ele>2029.1999511719</ele>
        <time>2022-05-29T06:37:35.000Z</time>
      </trkpt>
      <trkpt lat="44.73719" lon="5.47021">
        <ele>2029.1999511719</ele>
        <time>2022-05-29T06:37:37.000Z</time>
      </trkpt>
      <trkpt lat="44.73719" lon="5.47021">
        <ele>2029.1999511719</ele>
        <time>2022-05-29T06:37:41.000Z</time>
      </trkpt>
      <trkpt lat="44.73719" lon="5.47021">
        <ele>2029.1999511719</ele>
        <time>2022-05-29T06:37:43.000Z</time>
      </trkpt>
      <trkpt lat="44.73719" lon="5.47021">
        <ele>2029.1999511719</ele>
        <time>2022-05-29T06:37:44.000Z</time>
      </trkpt>
      <trkpt lat="44.73719" lon="5.47021">
        <ele>2029.1999511719</ele>
        <time>2022-05-29T06:37:45.000Z</time>
      </trkpt>
      <trkpt lat="44.73719" lon="5.47021">
        <ele>2029.1999511719</ele>
        <time>2022-05-29T06:37:47.000Z</time>
      </trkpt>
      <trkpt lat="44.73719" lon="5.47022">
        <ele>2029.1999511719</ele>
        <time>2022-05-29T06:37:48.000Z</time>
      </trkpt>
      <trkpt lat="44.73719" lon="5.47022">
        <ele>2029.1999511719</ele>
        <time>2022-05-29T06:37:49.000Z</time>
      </trkpt>
      <trkpt lat="44.73719" lon="5.47022">
        <ele>2029.1999511719</ele>
        <time>2022-05-29T06:37:51.000Z</time>
      </trkpt>
      <trkpt lat="44.7372" lon="5.47022">
        <ele>2029.1999511719</ele>
        <time>2022-05-29T06:37:52.000Z</time>
      </trkpt>
      <trkpt lat="44.7372" lon="5.47022">
        <ele>2029.1999511719</ele>
        <time>2022-05-29T06:37:55.000Z</time>
      </trkpt>
      <trkpt lat="44.7372" lon="5.47022">
        <ele>2029.1999511719</ele>
        <time>2022-05-29T06:38:00.000Z</time>
      </trkpt>
      <trkpt lat="44.7372" lon="5.47022">
        <ele>2029.1999511719</ele>
        <time>2022-05-29T06:38:05.000Z</time>
      </trkpt>
      <trkpt lat="44.73721" lon="5.47022">
        <ele>2029.1999511719</ele>
        <time>2022-05-29T06:38:15.000Z</time>
      </trkpt>
      <trkpt lat="44.73721" lon="5.47023">
        <ele>2029.1999511719</ele>
        <time>2022-05-29T06:38:23.000Z</time>
      </trkpt>
      <trkpt lat="44.7372" lon="5.47023">
        <ele>2029.1999511719</ele>
        <time>2022-05-29T06:38:27.000Z</time>
      </trkpt>
      <trkpt lat="44.7372" lon="5.47023">
        <ele>2029.1999511719</ele>
        <time>2022-05-29T06:38:31.000Z</time>
      </trkpt>
      <trkpt lat="44.7372" lon="5.47023">
        <ele>2029.1999511719</ele>
        <time>2022-05-29T06:38:34.000Z</time>
      </trkpt>
      <trkpt lat="44.7372" lon="5.47023">
        <ele>2029.1999511719</ele>
        <time>2022-05-29T06:38:38.000Z</time>
      </trkpt>
      <trkpt lat="44.73719" lon="5.47023">
        <ele>2029.1999511719</ele>
        <time>2022-05-29T06:38:41.000Z</time>
      </trkpt>
      <trkpt lat="44.73719" lon="5.47023">
        <ele>2029.1999511719</ele>
        <time>2022-05-29T06:38:45.000Z</time>
      </trkpt>
      <trkpt lat="44.7372" lon="5.47023">
        <ele>2029.1999511719</ele>
        <time>2022-05-29T06:38:48.000Z</time>
      </trkpt>
      <trkpt lat="44.7372" lon="5.47022">
        <ele>2029.1999511719</ele>
        <time>2022-05-29T06:38:52.000Z</time>
      </trkpt>
      <trkpt lat="44.73721" lon="5.47022">
        <ele>2029.1999511719</ele>
        <time>2022-05-29T06:38:56.000Z</time>
      </trkpt>
      <trkpt lat="44.73719" lon="5.4702">
        <ele>2029.1999511719</ele>
        <time>2022-05-29T06:38:59.000Z</time>
      </trkpt>
      <trkpt lat="44.73718" lon="5.47019">
        <ele>2029.1999511719</ele>
        <time>2022-05-29T06:39:03.000Z</time>
      </trkpt>
      <trkpt lat="44.73719" lon="5.4702">
        <ele>2029.1999511719</ele>
        <time>2022-05-29T06:39:08.000Z</time>
      </trkpt>
      <trkpt lat="44.7372" lon="5.47021">
        <ele>2029.1999511719</ele>
        <time>2022-05-29T06:39:12.000Z</time>
      </trkpt>
      <trkpt lat="44.73726" lon="5.47021">
        <ele>2029.1999511719</ele>
        <time>2022-05-29T06:39:27.000Z</time>
      </trkpt>
      <trkpt lat="44.73732" lon="5.47023">
        <ele>2029.4000244141</ele>
        <time>2022-05-29T06:39:30.000Z</time>
      </trkpt>
      <trkpt lat="44.73751" lon="5.47028">
        <ele>2029.5999755859</ele>
        <time>2022-05-29T06:39:50.000Z</time>
      </trkpt>
      <trkpt lat="44.73752" lon="5.47028">
        <ele>2029.5999755859</ele>
        <time>2022-05-29T06:39:51.000Z</time>
      </trkpt>
      <trkpt lat="44.73754" lon="5.47028">
        <ele>2029.5999755859</ele>
        <time>2022-05-29T06:39:53.000Z</time>
      </trkpt>
      <trkpt lat="44.73755" lon="5.47028">
        <ele>2029.5999755859</ele>
        <time>2022-05-29T06:39:54.000Z</time>
      </trkpt>
      <trkpt lat="44.73756" lon="5.47028">
        <ele>2029.5999755859</ele>
        <time>2022-05-29T06:39:55.000Z</time>
      </trkpt>
      <trkpt lat="44.73757" lon="5.47027">
        <ele>2029.5999755859</ele>
        <time>2022-05-29T06:39:56.000Z</time>
      </trkpt>
      <trkpt lat="44.73759" lon="5.47026">
        <ele>2029.5999755859</ele>
        <time>2022-05-29T06:39:58.000Z</time>
      </trkpt>
      <trkpt lat="44.73761" lon="5.47026">
        <ele>2029.5999755859</ele>
        <time>2022-05-29T06:39:59.000Z</time>
      </trkpt>
      <trkpt lat="44.73764" lon="5.47023">
        <ele>2029.8000488281</ele>
        <time>2022-05-29T06:40:03.000Z</time>
      </trkpt>
      <trkpt lat="44.73765" lon="5.47022">
        <ele>2029.8000488281</ele>
        <time>2022-05-29T06:40:05.000Z</time>
      </trkpt>
      <trkpt lat="44.73769" lon="5.47018">
        <ele>2030.1999511719</ele>
        <time>2022-05-29T06:40:11.000Z</time>
      </trkpt>
      <trkpt lat="44.7377" lon="5.47017">
        <ele>2030.1999511719</ele>
        <time>2022-05-29T06:40:12.000Z</time>
      </trkpt>
      <trkpt lat="44.7377" lon="5.47017">
        <ele>2030.1999511719</ele>
        <time>2022-05-29T06:40:14.000Z</time>
      </trkpt>
      <trkpt lat="44.7377" lon="5.47017">
        <ele>2030.1999511719</ele>
        <time>2022-05-29T06:40:15.000Z</time>
      </trkpt>
      <trkpt lat="44.7378" lon="5.47006">
        <ele>2030.8000488281</ele>
        <time>2022-05-29T06:40:32.000Z</time>
      </trkpt>
      <trkpt lat="44.73784" lon="5.47001">
        <ele>2031</ele>
        <time>2022-05-29T06:40:39.000Z</time>
      </trkpt>
      <trkpt lat="44.7379" lon="5.46997">
        <ele>2030.8000488281</ele>
        <time>2022-05-29T06:40:45.000Z</time>
      </trkpt>
      <trkpt lat="44.73796" lon="5.46988">
        <ele>2029.8000488281</ele>
        <time>2022-05-29T06:40:54.000Z</time>
      </trkpt>
      <trkpt lat="44.73805" lon="5.46982">
        <ele>2028.4000244141</ele>
        <time>2022-05-29T06:41:04.000Z</time>
      </trkpt>
      <trkpt lat="44.73816" lon="5.46986">
        <ele>2026.4000244141</ele>
        <time>2022-05-29T06:41:17.000Z</time>
      </trkpt>
      <trkpt lat="44.7382" lon="5.46987">
        <ele>2025.5999755859</ele>
        <time>2022-05-29T06:41:23.000Z</time>
      </trkpt>
      <trkpt lat="44.73825" lon="5.46986">
        <ele>2024.8000488281</ele>
        <time>2022-05-29T06:41:30.000Z</time>
      </trkpt>
      <trkpt lat="44.73825" lon="5.46985">
        <ele>2024.5999755859</ele>
        <time>2022-05-29T06:41:32.000Z</time>
      </trkpt>
      <trkpt lat="44.73832" lon="5.46983">
        <ele>2023.5999755859</ele>
        <time>2022-05-29T06:41:41.000Z</time>
      </trkpt>
      <trkpt lat="44.73838" lon="5.46982">
        <ele>2022.5999755859</ele>
        <time>2022-05-29T06:41:48.000Z</time>
      </trkpt>
      <trkpt lat="44.73855" lon="5.46978">
        <ele>2019.5999755859</ele>
        <time>2022-05-29T06:42:13.000Z</time>
      </trkpt>
      <trkpt lat="44.73858" lon="5.46976">
        <ele>2019</ele>
        <time>2022-05-29T06:42:20.000Z</time>
      </trkpt>
      <trkpt lat="44.73882" lon="5.46958">
        <ele>2013.4000244141</ele>
        <time>2022-05-29T06:42:51.000Z</time>
      </trkpt>
      <trkpt lat="44.73894" lon="5.46951">
        <ele>2009.8000488281</ele>
        <time>2022-05-29T06:43:08.000Z</time>
      </trkpt>
      <trkpt lat="44.739" lon="5.46947">
        <ele>2007.8000488281</ele>
        <time>2022-05-29T06:43:14.000Z</time>
      </trkpt>
      <trkpt lat="44.73942" lon="5.46927">
        <ele>1997.8000488281</ele>
        <time>2022-05-29T06:44:04.000Z</time>
      </trkpt>
      <trkpt lat="44.73967" lon="5.46934">
        <ele>1992.1999511719</ele>
        <time>2022-05-29T06:44:28.000Z</time>
      </trkpt>
      <trkpt lat="44.73978" lon="5.46933">
        <ele>1989.8000488281</ele>
        <time>2022-05-29T06:44:38.000Z</time>
      </trkpt>
      <trkpt lat="44.73979" lon="5.46933">
        <ele>1989.4000244141</ele>
        <time>2022-05-29T06:44:39.000Z</time>
      </trkpt>
      <trkpt lat="44.73991" lon="5.4694">
        <ele>1986.5999755859</ele>
        <time>2022-05-29T06:44:51.000Z</time>
      </trkpt>
      <trkpt lat="44.74001" lon="5.46946">
        <ele>1984</ele>
        <time>2022-05-29T06:45:02.000Z</time>
      </trkpt>
      <trkpt lat="44.74005" lon="5.46947">
        <ele>1983.1999511719</ele>
        <time>2022-05-29T06:45:09.000Z</time>
      </trkpt>
      <trkpt lat="44.74011" lon="5.46943">
        <ele>1982</ele>
        <time>2022-05-29T06:45:20.000Z</time>
      </trkpt>
      <trkpt lat="44.74021" lon="5.46939">
        <ele>1980.5999755859</ele>
        <time>2022-05-29T06:45:35.000Z</time>
      </trkpt>
      <trkpt lat="44.74033" lon="5.46938">
        <ele>1978.8000488281</ele>
        <time>2022-05-29T06:45:50.000Z</time>
      </trkpt>
      <trkpt lat="44.74054" lon="5.46946">
        <ele>1975.8000488281</ele>
        <time>2022-05-29T06:46:22.000Z</time>
      </trkpt>
      <trkpt lat="44.74064" lon="5.46954">
        <ele>1974</ele>
        <time>2022-05-29T06:46:37.000Z</time>
      </trkpt>
      <trkpt lat="44.74085" lon="5.46958">
        <ele>1971.8000488281</ele>
        <time>2022-05-29T06:47:08.000Z</time>
      </trkpt>
      <trkpt lat="44.74089" lon="5.46956">
        <ele>1971.8000488281</ele>
        <time>2022-05-29T06:47:12.000Z</time>
      </trkpt>
      <trkpt lat="44.74091" lon="5.46954">
        <ele>1971.8000488281</ele>
        <time>2022-05-29T06:47:14.000Z</time>
      </trkpt>
      <trkpt lat="44.74104" lon="5.46957">
        <ele>1970.4000244141</ele>
        <time>2022-05-29T06:47:29.000Z</time>
      </trkpt>
      <trkpt lat="44.74114" lon="5.46956">
        <ele>1969.5999755859</ele>
        <time>2022-05-29T06:47:41.000Z</time>
      </trkpt>
      <trkpt lat="44.7412" lon="5.46951">
        <ele>1969.5999755859</ele>
        <time>2022-05-29T06:47:48.000Z</time>
      </trkpt>
      <trkpt lat="44.74127" lon="5.46959">
        <ele>1967.4000244141</ele>
        <time>2022-05-29T06:48:05.000Z</time>
      </trkpt>
      <trkpt lat="44.74134" lon="5.46972">
        <ele>1964.5999755859</ele>
        <time>2022-05-29T06:48:36.000Z</time>
      </trkpt>
      <trkpt lat="44.74134" lon="5.46971">
        <ele>1964.5999755859</ele>
        <time>2022-05-29T06:49:01.000Z</time>
      </trkpt>
      <trkpt lat="44.74134" lon="5.46971">
        <ele>1964.5999755859</ele>
        <time>2022-05-29T06:49:08.000Z</time>
      </trkpt>
      <trkpt lat="44.74133" lon="5.46971">
        <ele>1964.8000488281</ele>
        <time>2022-05-29T06:49:13.000Z</time>
      </trkpt>
      <trkpt lat="44.74133" lon="5.46971">
        <ele>1964.8000488281</ele>
        <time>2022-05-29T06:49:17.000Z</time>
      </trkpt>
      <trkpt lat="44.74133" lon="5.46972">
        <ele>1964.8000488281</ele>
        <time>2022-05-29T06:49:26.000Z</time>
      </trkpt>
      <trkpt lat="44.74133" lon="5.46972">
        <ele>1964.8000488281</ele>
        <time>2022-05-29T06:49:34.000Z</time>
      </trkpt>
      <trkpt lat="44.74133" lon="5.46971">
        <ele>1964.8000488281</ele>
        <time>2022-05-29T06:49:40.000Z</time>
      </trkpt>
      <trkpt lat="44.74133" lon="5.46971">
        <ele>1964.8000488281</ele>
        <time>2022-05-29T06:49:50.000Z</time>
      </trkpt>
      <trkpt lat="44.74132" lon="5.46972">
        <ele>1965</ele>
        <time>2022-05-29T06:50:12.000Z</time>
      </trkpt>
      <trkpt lat="44.74132" lon="5.46971">
        <ele>1965.1999511719</ele>
        <time>2022-05-29T06:50:30.000Z</time>
      </trkpt>
      <trkpt lat="44.74131" lon="5.46971">
        <ele>1965.4000244141</ele>
        <time>2022-05-29T06:50:35.000Z</time>
      </trkpt>
      <trkpt lat="44.74132" lon="5.4697">
        <ele>1965.1999511719</ele>
        <time>2022-05-29T06:51:17.000Z</time>
      </trkpt>
      <trkpt lat="44.74132" lon="5.4697">
        <ele>1965.1999511719</ele>
        <time>2022-05-29T06:51:22.000Z</time>
      </trkpt>
      <trkpt lat="44.74132" lon="5.4697">
        <ele>1965.1999511719</ele>
        <time>2022-05-29T06:51:51.000Z</time>
      </trkpt>
      <trkpt lat="44.74132" lon="5.4697">
        <ele>1965.4000244141</ele>
        <time>2022-05-29T06:51:57.000Z</time>
      </trkpt>
      <trkpt lat="44.74131" lon="5.46969">
        <ele>1965.4000244141</ele>
        <time>2022-05-29T06:52:16.000Z</time>
      </trkpt>
      <trkpt lat="44.7413" lon="5.4697">
        <ele>1965.5999755859</ele>
        <time>2022-05-29T06:52:38.000Z</time>
      </trkpt>
      <trkpt lat="44.7413" lon="5.4697">
        <ele>1965.5999755859</ele>
        <time>2022-05-29T06:53:12.000Z</time>
      </trkpt>
      <trkpt lat="44.74131" lon="5.46969">
        <ele>1965.4000244141</ele>
        <time>2022-05-29T06:53:30.000Z</time>
      </trkpt>
      <trkpt lat="44.74131" lon="5.46969">
        <ele>1965.4000244141</ele>
        <time>2022-05-29T06:53:31.000Z</time>
      </trkpt>
      <trkpt lat="44.74131" lon="5.4697">
        <ele>1965.4000244141</ele>
        <time>2022-05-29T06:53:45.000Z</time>
      </trkpt>
      <trkpt lat="44.74133" lon="5.46974">
        <ele>1964.5999755859</ele>
        <time>2022-05-29T06:53:55.000Z</time>
      </trkpt>
      <trkpt lat="44.74135" lon="5.46977">
        <ele>1964.1999511719</ele>
        <time>2022-05-29T06:53:59.000Z</time>
      </trkpt>
      <trkpt lat="44.74135" lon="5.46978">
        <ele>1964</ele>
        <time>2022-05-29T06:54:00.000Z</time>
      </trkpt>
      <trkpt lat="44.74136" lon="5.46979">
        <ele>1963.8000488281</ele>
        <time>2022-05-29T06:54:01.000Z</time>
      </trkpt>
      <trkpt lat="44.74138" lon="5.46981">
        <ele>1963.1999511719</ele>
        <time>2022-05-29T06:54:05.000Z</time>
      </trkpt>
      <trkpt lat="44.74139" lon="5.46981">
        <ele>1963</ele>
        <time>2022-05-29T06:54:06.000Z</time>
      </trkpt>
      <trkpt lat="44.7414" lon="5.46983">
        <ele>1962.5999755859</ele>
        <time>2022-05-29T06:54:09.000Z</time>
      </trkpt>
      <trkpt lat="44.74141" lon="5.46985">
        <ele>1962.4000244141</ele>
        <time>2022-05-29T06:54:11.000Z</time>
      </trkpt>
      <trkpt lat="44.74143" lon="5.46988">
        <ele>1961.5999755859</ele>
        <time>2022-05-29T06:54:15.000Z</time>
      </trkpt>
      <trkpt lat="44.74148" lon="5.46996">
        <ele>1959.8000488281</ele>
        <time>2022-05-29T06:54:24.000Z</time>
      </trkpt>
      <trkpt lat="44.74149" lon="5.46997">
        <ele>1959.4000244141</ele>
        <time>2022-05-29T06:54:26.000Z</time>
      </trkpt>
      <trkpt lat="44.74153" lon="5.46999">
        <ele>1958.4000244141</ele>
        <time>2022-05-29T06:54:37.000Z</time>
      </trkpt>
      <trkpt lat="44.74153" lon="5.46999">
        <ele>1958.5999755859</ele>
        <time>2022-05-29T06:54:43.000Z</time>
      </trkpt>
      <trkpt lat="44.74153" lon="5.46999">
        <ele>1958.5999755859</ele>
        <time>2022-05-29T06:54:45.000Z</time>
      </trkpt>
      <trkpt lat="44.74159" lon="5.47001">
        <ele>1957.1999511719</ele>
        <time>2022-05-29T06:55:04.000Z</time>
      </trkpt>
      <trkpt lat="44.74173" lon="5.46998">
        <ele>1954.4000244141</ele>
        <time>2022-05-29T06:55:18.000Z</time>
      </trkpt>
      <trkpt lat="44.74185" lon="5.46999">
        <ele>1951.4000244141</ele>
        <time>2022-05-29T06:55:31.000Z</time>
      </trkpt>
      <trkpt lat="44.74192" lon="5.46986">
        <ele>1950.5999755859</ele>
        <time>2022-05-29T06:55:43.000Z</time>
      </trkpt>
      <trkpt lat="44.74207" lon="5.46948">
        <ele>1949.8000488281</ele>
        <time>2022-05-29T06:56:27.000Z</time>
      </trkpt>
      <trkpt lat="44.74213" lon="5.46935">
        <ele>1949.5999755859</ele>
        <time>2022-05-29T06:56:40.000Z</time>
      </trkpt>
      <trkpt lat="44.74221" lon="5.46929">
        <ele>1948.4000244141</ele>
        <time>2022-05-29T06:56:52.000Z</time>
      </trkpt>
      <trkpt lat="44.74228" lon="5.46926">
        <ele>1947.4000244141</ele>
        <time>2022-05-29T06:57:02.000Z</time>
      </trkpt>
      <trkpt lat="44.74239" lon="5.46927">
        <ele>1945.1999511719</ele>
        <time>2022-05-29T06:57:23.000Z</time>
      </trkpt>
      <trkpt lat="44.74242" lon="5.46927">
        <ele>1944.5999755859</ele>
        <time>2022-05-29T06:57:26.000Z</time>
      </trkpt>
      <trkpt lat="44.74261" lon="5.4694">
        <ele>1940</ele>
        <time>2022-05-29T06:57:43.000Z</time>
      </trkpt>
      <trkpt lat="44.7427" lon="5.4693">
        <ele>1937.8000488281</ele>
        <time>2022-05-29T06:57:48.000Z</time>
      </trkpt>
      <trkpt lat="44.74272" lon="5.46927">
        <ele>1937.4000244141</ele>
        <time>2022-05-29T06:57:51.000Z</time>
      </trkpt>
      <trkpt lat="44.74273" lon="5.46926">
        <ele>1937.1999511719</ele>
        <time>2022-05-29T06:57:52.000Z</time>
      </trkpt>
      <trkpt lat="44.74274" lon="5.46925">
        <ele>1937</ele>
        <time>2022-05-29T06:57:53.000Z</time>
      </trkpt>
      <trkpt lat="44.74275" lon="5.46921">
        <ele>1936.5999755859</ele>
        <time>2022-05-29T06:57:56.000Z</time>
      </trkpt>
      <trkpt lat="44.74278" lon="5.46915">
        <ele>1936</ele>
        <time>2022-05-29T06:58:00.000Z</time>
      </trkpt>
      <trkpt lat="44.74279" lon="5.46912">
        <ele>1935.8000488281</ele>
        <time>2022-05-29T06:58:02.000Z</time>
      </trkpt>
      <trkpt lat="44.74281" lon="5.46905">
        <ele>1935.4000244141</ele>
        <time>2022-05-29T06:58:06.000Z</time>
      </trkpt>
      <trkpt lat="44.74281" lon="5.46897">
        <ele>1935.4000244141</ele>
        <time>2022-05-29T06:58:10.000Z</time>
      </trkpt>
      <trkpt lat="44.74281" lon="5.46892">
        <ele>1935.4000244141</ele>
        <time>2022-05-29T06:58:13.000Z</time>
      </trkpt>
      <trkpt lat="44.74281" lon="5.46891">
        <ele>1935.4000244141</ele>
        <time>2022-05-29T06:58:14.000Z</time>
      </trkpt>
      <trkpt lat="44.74281" lon="5.46889">
        <ele>1935.4000244141</ele>
        <time>2022-05-29T06:58:15.000Z</time>
      </trkpt>
      <trkpt lat="44.74282" lon="5.46883">
        <ele>1935.4000244141</ele>
        <time>2022-05-29T06:58:21.000Z</time>
      </trkpt>
      <trkpt lat="44.74284" lon="5.46878">
        <ele>1934.5999755859</ele>
        <time>2022-05-29T06:58:25.000Z</time>
      </trkpt>
      <trkpt lat="44.74285" lon="5.46875">
        <ele>1934.1999511719</ele>
        <time>2022-05-29T06:58:27.000Z</time>
      </trkpt>
      <trkpt lat="44.74287" lon="5.4687">
        <ele>1933.8000488281</ele>
        <time>2022-05-29T06:58:30.000Z</time>
      </trkpt>
      <trkpt lat="44.74287" lon="5.46866">
        <ele>1933.4000244141</ele>
        <time>2022-05-29T06:58:32.000Z</time>
      </trkpt>
      <trkpt lat="44.74289" lon="5.46862">
        <ele>1933.1999511719</ele>
        <time>2022-05-29T06:58:35.000Z</time>
      </trkpt>
      <trkpt lat="44.74292" lon="5.46855">
        <ele>1932.5999755859</ele>
        <time>2022-05-29T06:58:40.000Z</time>
      </trkpt>
      <trkpt lat="44.74295" lon="5.4685">
        <ele>1932.1999511719</ele>
        <time>2022-05-29T06:58:44.000Z</time>
      </trkpt>
      <trkpt lat="44.74298" lon="5.46844">
        <ele>1931.8000488281</ele>
        <time>2022-05-29T06:58:48.000Z</time>
      </trkpt>
      <trkpt lat="44.74303" lon="5.46833">
        <ele>1931.1999511719</ele>
        <time>2022-05-29T06:58:57.000Z</time>
      </trkpt>
      <trkpt lat="44.743" lon="5.4683">
        <ele>1931.1999511719</ele>
        <time>2022-05-29T06:59:05.000Z</time>
      </trkpt>
      <trkpt lat="44.743" lon="5.4683">
        <ele>1931.1999511719</ele>
        <time>2022-05-29T06:59:12.000Z</time>
      </trkpt>
      <trkpt lat="44.74298" lon="5.46824">
        <ele>1931.1999511719</ele>
        <time>2022-05-29T06:59:21.000Z</time>
      </trkpt>
      <trkpt lat="44.74295" lon="5.4682">
        <ele>1931.1999511719</ele>
        <time>2022-05-29T06:59:27.000Z</time>
      </trkpt>
      <trkpt lat="44.74293" lon="5.46818">
        <ele>1931.1999511719</ele>
        <time>2022-05-29T06:59:29.000Z</time>
      </trkpt>
      <trkpt lat="44.74286" lon="5.4681">
        <ele>1931.8000488281</ele>
        <time>2022-05-29T06:59:42.000Z</time>
      </trkpt>
      <trkpt lat="44.74277" lon="5.46751">
        <ele>1928.5999755859</ele>
        <time>2022-05-29T07:00:20.000Z</time>
      </trkpt>
      <trkpt lat="44.74268" lon="5.46698">
        <ele>1925.4000244141</ele>
        <time>2022-05-29T07:01:03.000Z</time>
      </trkpt>
      <trkpt lat="44.74257" lon="5.46678">
        <ele>1925.8000488281</ele>
        <time>2022-05-29T07:01:26.000Z</time>
      </trkpt>
      <trkpt lat="44.74243" lon="5.46618">
        <ele>1922</ele>
        <time>2022-05-29T07:02:07.000Z</time>
      </trkpt>
      <trkpt lat="44.74237" lon="5.46581">
        <ele>1916.8000488281</ele>
        <time>2022-05-29T07:02:32.000Z</time>
      </trkpt>
      <trkpt lat="44.74227" lon="5.46563">
        <ele>1917</ele>
        <time>2022-05-29T07:02:57.000Z</time>
      </trkpt>
      <trkpt lat="44.74223" lon="5.4655">
        <ele>1917</ele>
        <time>2022-05-29T07:03:07.000Z</time>
      </trkpt>
      <trkpt lat="44.74199" lon="5.46496">
        <ele>1908.1999511719</ele>
        <time>2022-05-29T07:03:51.000Z</time>
      </trkpt>
      <trkpt lat="44.74188" lon="5.46484">
        <ele>1906.5999755859</ele>
        <time>2022-05-29T07:04:09.000Z</time>
      </trkpt>
      <trkpt lat="44.74163" lon="5.46432">
        <ele>1896.4000244141</ele>
        <time>2022-05-29T07:04:54.000Z</time>
      </trkpt>
      <trkpt lat="44.74155" lon="5.46395">
        <ele>1887.1999511719</ele>
        <time>2022-05-29T07:05:28.000Z</time>
      </trkpt>
      <trkpt lat="44.74155" lon="5.46394">
        <ele>1886.8000488281</ele>
        <time>2022-05-29T07:05:29.000Z</time>
      </trkpt>
      <trkpt lat="44.74155" lon="5.46392">
        <ele>1886.4000244141</ele>
        <time>2022-05-29T07:05:30.000Z</time>
      </trkpt>
      <trkpt lat="44.74155" lon="5.4639">
        <ele>1885.5999755859</ele>
        <time>2022-05-29T07:05:32.000Z</time>
      </trkpt>
      <trkpt lat="44.74155" lon="5.46389">
        <ele>1885.5999755859</ele>
        <time>2022-05-29T07:05:33.000Z</time>
      </trkpt>
      <trkpt lat="44.74155" lon="5.46388">
        <ele>1885.1999511719</ele>
        <time>2022-05-29T07:05:34.000Z</time>
      </trkpt>
      <trkpt lat="44.74155" lon="5.46386">
        <ele>1884.5999755859</ele>
        <time>2022-05-29T07:05:36.000Z</time>
      </trkpt>
      <trkpt lat="44.74155" lon="5.46384">
        <ele>1884</ele>
        <time>2022-05-29T07:05:38.000Z</time>
      </trkpt>
      <trkpt lat="44.74155" lon="5.46383">
        <ele>1883.8000488281</ele>
        <time>2022-05-29T07:05:39.000Z</time>
      </trkpt>
      <trkpt lat="44.74156" lon="5.46381">
        <ele>1883</ele>
        <time>2022-05-29T07:05:42.000Z</time>
      </trkpt>
      <trkpt lat="44.74155" lon="5.46378">
        <ele>1882.4000244141</ele>
        <time>2022-05-29T07:05:45.000Z</time>
      </trkpt>
      <trkpt lat="44.74155" lon="5.46377">
        <ele>1882</ele>
        <time>2022-05-29T07:05:48.000Z</time>
      </trkpt>
      <trkpt lat="44.74155" lon="5.46376">
        <ele>1882</ele>
        <time>2022-05-29T07:05:49.000Z</time>
      </trkpt>
      <trkpt lat="44.74155" lon="5.46376">
        <ele>1882</ele>
        <time>2022-05-29T07:05:50.000Z</time>
      </trkpt>
      <trkpt lat="44.74155" lon="5.46376">
        <ele>1881.8000488281</ele>
        <time>2022-05-29T07:05:53.000Z</time>
      </trkpt>
      <trkpt lat="44.74154" lon="5.46373">
        <ele>1881</ele>
        <time>2022-05-29T07:05:56.000Z</time>
      </trkpt>
      <trkpt lat="44.74156" lon="5.4637">
        <ele>1880.1999511719</ele>
        <time>2022-05-29T07:05:58.000Z</time>
      </trkpt>
      <trkpt lat="44.74159" lon="5.46368">
        <ele>1879.1999511719</ele>
        <time>2022-05-29T07:06:03.000Z</time>
      </trkpt>
      <trkpt lat="44.74161" lon="5.46366">
        <ele>1878.4000244141</ele>
        <time>2022-05-29T07:06:05.000Z</time>
      </trkpt>
      <trkpt lat="44.74162" lon="5.46364">
        <ele>1878</ele>
        <time>2022-05-29T07:06:06.000Z</time>
      </trkpt>
      <trkpt lat="44.74167" lon="5.4636">
        <ele>1876.4000244141</ele>
        <time>2022-05-29T07:06:10.000Z</time>
      </trkpt>
      <trkpt lat="44.74168" lon="5.46359">
        <ele>1876</ele>
        <time>2022-05-29T07:06:12.000Z</time>
      </trkpt>
      <trkpt lat="44.74171" lon="5.46358">
        <ele>1875.1999511719</ele>
        <time>2022-05-29T07:06:17.000Z</time>
      </trkpt>
      <trkpt lat="44.74176" lon="5.4635">
        <ele>1872.8000488281</ele>
        <time>2022-05-29T07:06:28.000Z</time>
      </trkpt>
      <trkpt lat="44.74178" lon="5.46346">
        <ele>1871.8000488281</ele>
        <time>2022-05-29T07:06:32.000Z</time>
      </trkpt>
      <trkpt lat="44.74181" lon="5.46341">
        <ele>1870.4000244141</ele>
        <time>2022-05-29T07:06:38.000Z</time>
      </trkpt>
      <trkpt lat="44.74182" lon="5.46336">
        <ele>1869</ele>
        <time>2022-05-29T07:06:46.000Z</time>
      </trkpt>
      <trkpt lat="44.74182" lon="5.46332">
        <ele>1868</ele>
        <time>2022-05-29T07:06:49.000Z</time>
      </trkpt>
      <trkpt lat="44.74181" lon="5.46324">
        <ele>1866.1999511719</ele>
        <time>2022-05-29T07:06:53.000Z</time>
      </trkpt>
      <trkpt lat="44.7418" lon="5.46308">
        <ele>1862.4000244141</ele>
        <time>2022-05-29T07:07:00.000Z</time>
      </trkpt>
      <trkpt lat="44.7418" lon="5.46302">
        <ele>1861.1999511719</ele>
        <time>2022-05-29T07:07:03.000Z</time>
      </trkpt>
      <trkpt lat="44.74181" lon="5.46292">
        <ele>1859</ele>
        <time>2022-05-29T07:07:09.000Z</time>
      </trkpt>
      <trkpt lat="44.74182" lon="5.46285">
        <ele>1857.8000488281</ele>
        <time>2022-05-29T07:07:13.000Z</time>
      </trkpt>
      <trkpt lat="44.74184" lon="5.46274">
        <ele>1856.1999511719</ele>
        <time>2022-05-29T07:07:20.000Z</time>
      </trkpt>
      <trkpt lat="44.74187" lon="5.46257">
        <ele>1855.1999511719</ele>
        <time>2022-05-29T07:07:30.000Z</time>
      </trkpt>
      <trkpt lat="44.74188" lon="5.46249">
        <ele>1854.5999755859</ele>
        <time>2022-05-29T07:07:37.000Z</time>
      </trkpt>
      <trkpt lat="44.74189" lon="5.46233">
        <ele>1853.5999755859</ele>
        <time>2022-05-29T07:07:48.000Z</time>
      </trkpt>
      <trkpt lat="44.74189" lon="5.46232">
        <ele>1853.4000244141</ele>
        <time>2022-05-29T07:07:49.000Z</time>
      </trkpt>
      <trkpt lat="44.74192" lon="5.46223">
        <ele>1853</ele>
        <time>2022-05-29T07:07:56.000Z</time>
      </trkpt>
      <trkpt lat="44.74195" lon="5.46214">
        <ele>1852</ele>
        <time>2022-05-29T07:08:03.000Z</time>
      </trkpt>
      <trkpt lat="44.74195" lon="5.4621">
        <ele>1851.4000244141</ele>
        <time>2022-05-29T07:08:41.000Z</time>
      </trkpt>
      <trkpt lat="44.74196" lon="5.46211">
        <ele>1851.4000244141</ele>
        <time>2022-05-29T07:09:27.000Z</time>
      </trkpt>
      <trkpt lat="44.74196" lon="5.46211">
        <ele>1851.4000244141</ele>
        <time>2022-05-29T07:09:34.000Z</time>
      </trkpt>
      <trkpt lat="44.74196" lon="5.46212">
        <ele>1851.8000488281</ele>
        <time>2022-05-29T07:09:43.000Z</time>
      </trkpt>
      <trkpt lat="44.74196" lon="5.46211">
        <ele>1851.4000244141</ele>
        <time>2022-05-29T07:09:53.000Z</time>
      </trkpt>
      <trkpt lat="44.74197" lon="5.46209">
        <ele>1851.1999511719</ele>
        <time>2022-05-29T07:10:04.000Z</time>
      </trkpt>
      <trkpt lat="44.74196" lon="5.46211">
        <ele>1851.5999755859</ele>
        <time>2022-05-29T07:10:09.000Z</time>
      </trkpt>
      <trkpt lat="44.74196" lon="5.46211">
        <ele>1851.5999755859</ele>
        <time>2022-05-29T07:10:16.000Z</time>
      </trkpt>
      <trkpt lat="44.74193" lon="5.46205">
        <ele>1850</ele>
        <time>2022-05-29T07:10:22.000Z</time>
      </trkpt>
      <trkpt lat="44.74184" lon="5.4619">
        <ele>1846.8000488281</ele>
        <time>2022-05-29T07:10:34.000Z</time>
      </trkpt>
      <trkpt lat="44.74183" lon="5.46189">
        <ele>1846.5999755859</ele>
        <time>2022-05-29T07:10:35.000Z</time>
      </trkpt>
      <trkpt lat="44.74179" lon="5.46182">
        <ele>1845.1999511719</ele>
        <time>2022-05-29T07:10:39.000Z</time>
      </trkpt>
      <trkpt lat="44.74179" lon="5.46181">
        <ele>1844.8000488281</ele>
        <time>2022-05-29T07:10:40.000Z</time>
      </trkpt>
      <trkpt lat="44.74178" lon="5.46179">
        <ele>1844.5999755859</ele>
        <time>2022-05-29T07:10:41.000Z</time>
      </trkpt>
      <trkpt lat="44.74177" lon="5.46173">
        <ele>1843.4000244141</ele>
        <time>2022-05-29T07:10:44.000Z</time>
      </trkpt>
      <trkpt lat="44.74177" lon="5.4617">
        <ele>1843.1999511719</ele>
        <time>2022-05-29T07:10:45.000Z</time>
      </trkpt>
      <trkpt lat="44.74178" lon="5.46168">
        <ele>1843</ele>
        <time>2022-05-29T07:10:46.000Z</time>
      </trkpt>
      <trkpt lat="44.74178" lon="5.46166">
        <ele>1842.8000488281</ele>
        <time>2022-05-29T07:10:47.000Z</time>
      </trkpt>
      <trkpt lat="44.74179" lon="5.46164">
        <ele>1842.4000244141</ele>
        <time>2022-05-29T07:10:48.000Z</time>
      </trkpt>
      <trkpt lat="44.7418" lon="5.46162">
        <ele>1842.1999511719</ele>
        <time>2022-05-29T07:10:49.000Z</time>
      </trkpt>
      <trkpt lat="44.7418" lon="5.46159">
        <ele>1842</ele>
        <time>2022-05-29T07:10:50.000Z</time>
      </trkpt>
      <trkpt lat="44.7418" lon="5.46158">
        <ele>1841.5999755859</ele>
        <time>2022-05-29T07:10:51.000Z</time>
      </trkpt>
      <trkpt lat="44.74179" lon="5.46154">
        <ele>1841</ele>
        <time>2022-05-29T07:10:53.000Z</time>
      </trkpt>
      <trkpt lat="44.74173" lon="5.46147">
        <ele>1839.4000244141</ele>
        <time>2022-05-29T07:11:00.000Z</time>
      </trkpt>
      <trkpt lat="44.74172" lon="5.46146">
        <ele>1839</ele>
        <time>2022-05-29T07:11:01.000Z</time>
      </trkpt>
      <trkpt lat="44.74166" lon="5.46143">
        <ele>1837.8000488281</ele>
        <time>2022-05-29T07:11:05.000Z</time>
      </trkpt>
      <trkpt lat="44.74165" lon="5.46141">
        <ele>1837.5999755859</ele>
        <time>2022-05-29T07:11:06.000Z</time>
      </trkpt>
      <trkpt lat="44.7416" lon="5.46128">
        <ele>1834</ele>
        <time>2022-05-29T07:11:18.000Z</time>
      </trkpt>
      <trkpt lat="44.74162" lon="5.46128">
        <ele>1834</ele>
        <time>2022-05-29T07:11:20.000Z</time>
      </trkpt>
      <trkpt lat="44.74166" lon="5.46127">
        <ele>1834</ele>
        <time>2022-05-29T07:11:24.000Z</time>
      </trkpt>
      <trkpt lat="44.74168" lon="5.46126">
        <ele>1834</ele>
        <time>2022-05-29T07:11:26.000Z</time>
      </trkpt>
      <trkpt lat="44.74172" lon="5.46123">
        <ele>1833.1999511719</ele>
        <time>2022-05-29T07:11:31.000Z</time>
      </trkpt>
      <trkpt lat="44.74198" lon="5.46115">
        <ele>1834.1999511719</ele>
        <time>2022-05-29T07:11:51.000Z</time>
      </trkpt>
      <trkpt lat="44.74208" lon="5.46109">
        <ele>1834</ele>
        <time>2022-05-29T07:11:59.000Z</time>
      </trkpt>
      <trkpt lat="44.74213" lon="5.46108">
        <ele>1833.8000488281</ele>
        <time>2022-05-29T07:12:04.000Z</time>
      </trkpt>
      <trkpt lat="44.74217" lon="5.46105">
        <ele>1833.1999511719</ele>
        <time>2022-05-29T07:12:09.000Z</time>
      </trkpt>
      <trkpt lat="44.74222" lon="5.46104">
        <ele>1833</ele>
        <time>2022-05-29T07:12:13.000Z</time>
      </trkpt>
      <trkpt lat="44.74231" lon="5.46104">
        <ele>1833.1999511719</ele>
        <time>2022-05-29T07:12:21.000Z</time>
      </trkpt>
      <trkpt lat="44.74238" lon="5.46106">
        <ele>1833.5999755859</ele>
        <time>2022-05-29T07:12:27.000Z</time>
      </trkpt>
      <trkpt lat="44.74243" lon="5.46105">
        <ele>1833.5999755859</ele>
        <time>2022-05-29T07:12:32.000Z</time>
      </trkpt>
      <trkpt lat="44.7425" lon="5.46101">
        <ele>1832.5999755859</ele>
        <time>2022-05-29T07:12:43.000Z</time>
      </trkpt>
      <trkpt lat="44.74257" lon="5.46099">
        <ele>1832.1999511719</ele>
        <time>2022-05-29T07:12:51.000Z</time>
      </trkpt>
      <trkpt lat="44.74259" lon="5.46098">
        <ele>1832</ele>
        <time>2022-05-29T07:12:56.000Z</time>
      </trkpt>
      <trkpt lat="44.74252" lon="5.46088">
        <ele>1828.5999755859</ele>
        <time>2022-05-29T07:13:12.000Z</time>
      </trkpt>
      <trkpt lat="44.74243" lon="5.46082">
        <ele>1826.8000488281</ele>
        <time>2022-05-29T07:13:22.000Z</time>
      </trkpt>
      <trkpt lat="44.74243" lon="5.46082">
        <ele>1826.8000488281</ele>
        <time>2022-05-29T07:13:23.000Z</time>
      </trkpt>
      <trkpt lat="44.74241" lon="5.46078">
        <ele>1825.5999755859</ele>
        <time>2022-05-29T07:13:27.000Z</time>
      </trkpt>
      <trkpt lat="44.7424" lon="5.46077">
        <ele>1825.1999511719</ele>
        <time>2022-05-29T07:13:28.000Z</time>
      </trkpt>
      <trkpt lat="44.7424" lon="5.46076">
        <ele>1825</ele>
        <time>2022-05-29T07:13:29.000Z</time>
      </trkpt>
      <trkpt lat="44.74238" lon="5.46074">
        <ele>1824.4000244141</ele>
        <time>2022-05-29T07:13:30.000Z</time>
      </trkpt>
      <trkpt lat="44.74237" lon="5.46073">
        <ele>1823.8000488281</ele>
        <time>2022-05-29T07:13:33.000Z</time>
      </trkpt>
      <trkpt lat="44.74236" lon="5.46072">
        <ele>1823.4000244141</ele>
        <time>2022-05-29T07:13:34.000Z</time>
      </trkpt>
      <trkpt lat="44.74236" lon="5.46071">
        <ele>1823.1999511719</ele>
        <time>2022-05-29T07:13:35.000Z</time>
      </trkpt>
      <trkpt lat="44.74236" lon="5.46071">
        <ele>1823.1999511719</ele>
        <time>2022-05-29T07:13:36.000Z</time>
      </trkpt>
      <trkpt lat="44.74236" lon="5.4607">
        <ele>1823</ele>
        <time>2022-05-29T07:13:37.000Z</time>
      </trkpt>
      <trkpt lat="44.74236" lon="5.4607">
        <ele>1823</ele>
        <time>2022-05-29T07:13:40.000Z</time>
      </trkpt>
      <trkpt lat="44.74238" lon="5.46068">
        <ele>1822.4000244141</ele>
        <time>2022-05-29T07:13:52.000Z</time>
      </trkpt>
      <trkpt lat="44.7425" lon="5.46062">
        <ele>1821</ele>
        <time>2022-05-29T07:14:04.000Z</time>
      </trkpt>
      <trkpt lat="44.74249" lon="5.4606">
        <ele>1820.4000244141</ele>
        <time>2022-05-29T07:14:09.000Z</time>
      </trkpt>
      <trkpt lat="44.74249" lon="5.46061">
        <ele>1820.4000244141</ele>
        <time>2022-05-29T07:14:13.000Z</time>
      </trkpt>
      <trkpt lat="44.74252" lon="5.46059">
        <ele>1820</ele>
        <time>2022-05-29T07:14:26.000Z</time>
      </trkpt>
      <trkpt lat="44.74254" lon="5.46054">
        <ele>1818.4000244141</ele>
        <time>2022-05-29T07:14:31.000Z</time>
      </trkpt>
      <trkpt lat="44.74255" lon="5.46053">
        <ele>1818.1999511719</ele>
        <time>2022-05-29T07:14:36.000Z</time>
      </trkpt>
      <trkpt lat="44.74256" lon="5.46053">
        <ele>1818.1999511719</ele>
        <time>2022-05-29T07:14:38.000Z</time>
      </trkpt>
      <trkpt lat="44.74258" lon="5.46052">
        <ele>1818.1999511719</ele>
        <time>2022-05-29T07:14:43.000Z</time>
      </trkpt>
      <trkpt lat="44.74259" lon="5.46051">
        <ele>1817.8000488281</ele>
        <time>2022-05-29T07:14:46.000Z</time>
      </trkpt>
      <trkpt lat="44.74279" lon="5.46039">
        <ele>1813.4000244141</ele>
        <time>2022-05-29T07:15:21.000Z</time>
      </trkpt>
      <trkpt lat="44.7429" lon="5.46035">
        <ele>1811</ele>
        <time>2022-05-29T07:15:33.000Z</time>
      </trkpt>
      <trkpt lat="44.74309" lon="5.46002">
        <ele>1793.4000244141</ele>
        <time>2022-05-29T07:16:54.000Z</time>
      </trkpt>
      <trkpt lat="44.74316" lon="5.45993">
        <ele>1788.5999755859</ele>
        <time>2022-05-29T07:17:10.000Z</time>
      </trkpt>
      <trkpt lat="44.74334" lon="5.45982">
        <ele>1781.5999755859</ele>
        <time>2022-05-29T07:17:48.000Z</time>
      </trkpt>
      <trkpt lat="44.74345" lon="5.45974">
        <ele>1777</ele>
        <time>2022-05-29T07:18:04.000Z</time>
      </trkpt>
      <trkpt lat="44.74344" lon="5.45975">
        <ele>1777.1999511719</ele>
        <time>2022-05-29T07:18:06.000Z</time>
      </trkpt>
      <trkpt lat="44.74345" lon="5.45977">
        <ele>1778.1999511719</ele>
        <time>2022-05-29T07:18:11.000Z</time>
      </trkpt>
      <trkpt lat="44.74345" lon="5.45978">
        <ele>1778.5999755859</ele>
        <time>2022-05-29T07:18:12.000Z</time>
      </trkpt>
      <trkpt lat="44.74346" lon="5.45978">
        <ele>1778.8000488281</ele>
        <time>2022-05-29T07:18:13.000Z</time>
      </trkpt>
      <trkpt lat="44.74346" lon="5.45979">
        <ele>1779.4000244141</ele>
        <time>2022-05-29T07:18:14.000Z</time>
      </trkpt>
      <trkpt lat="44.74345" lon="5.45978">
        <ele>1779</ele>
        <time>2022-05-29T07:18:15.000Z</time>
      </trkpt>
      <trkpt lat="44.74345" lon="5.45978">
        <ele>1779.1999511719</ele>
        <time>2022-05-29T07:18:16.000Z</time>
      </trkpt>
      <trkpt lat="44.74346" lon="5.45978">
        <ele>1778.8000488281</ele>
        <time>2022-05-29T07:18:20.000Z</time>
      </trkpt>
      <trkpt lat="44.74348" lon="5.45976">
        <ele>1777.4000244141</ele>
        <time>2022-05-29T07:18:23.000Z</time>
      </trkpt>
      <trkpt lat="44.7435" lon="5.45971">
        <ele>1775.1999511719</ele>
        <time>2022-05-29T07:18:28.000Z</time>
      </trkpt>
      <trkpt lat="44.7435" lon="5.45971">
        <ele>1774.8000488281</ele>
        <time>2022-05-29T07:18:29.000Z</time>
      </trkpt>
      <trkpt lat="44.74352" lon="5.4597">
        <ele>1774.5999755859</ele>
        <time>2022-05-29T07:18:31.000Z</time>
      </trkpt>
      <trkpt lat="44.74354" lon="5.45971">
        <ele>1774.5999755859</ele>
        <time>2022-05-29T07:18:35.000Z</time>
      </trkpt>
      <trkpt lat="44.74356" lon="5.45971">
        <ele>1774.4000244141</ele>
        <time>2022-05-29T07:18:38.000Z</time>
      </trkpt>
      <trkpt lat="44.74363" lon="5.45969">
        <ele>1773</ele>
        <time>2022-05-29T07:18:49.000Z</time>
      </trkpt>
      <trkpt lat="44.74358" lon="5.45966">
        <ele>1771.8000488281</ele>
        <time>2022-05-29T07:18:56.000Z</time>
      </trkpt>
      <trkpt lat="44.74352" lon="5.45965">
        <ele>1772.1999511719</ele>
        <time>2022-05-29T07:19:03.000Z</time>
      </trkpt>
      <trkpt lat="44.74347" lon="5.45962">
        <ele>1770.8000488281</ele>
        <time>2022-05-29T07:19:09.000Z</time>
      </trkpt>
      <trkpt lat="44.74345" lon="5.4596">
        <ele>1769.8000488281</ele>
        <time>2022-05-29T07:19:14.000Z</time>
      </trkpt>
      <trkpt lat="44.74355" lon="5.45955">
        <ele>1766.8000488281</ele>
        <time>2022-05-29T07:19:32.000Z</time>
      </trkpt>
      <trkpt lat="44.74355" lon="5.45947">
        <ele>1763</ele>
        <time>2022-05-29T07:20:02.000Z</time>
      </trkpt>
      <trkpt lat="44.74383" lon="5.45936">
        <ele>1755.4000244141</ele>
        <time>2022-05-29T07:20:45.000Z</time>
      </trkpt>
      <trkpt lat="44.74393" lon="5.4593">
        <ele>1751.1999511719</ele>
        <time>2022-05-29T07:20:59.000Z</time>
      </trkpt>
      <trkpt lat="44.74399" lon="5.45924">
        <ele>1747.5999755859</ele>
        <time>2022-05-29T07:21:07.000Z</time>
      </trkpt>
      <trkpt lat="44.74423" lon="5.45918">
        <ele>1741.5999755859</ele>
        <time>2022-05-29T07:21:34.000Z</time>
      </trkpt>
      <trkpt lat="44.74423" lon="5.45912">
        <ele>1738</ele>
        <time>2022-05-29T07:21:46.000Z</time>
      </trkpt>
      <trkpt lat="44.74424" lon="5.45921">
        <ele>1742.5999755859</ele>
        <time>2022-05-29T07:22:25.000Z</time>
      </trkpt>
      <trkpt lat="44.74426" lon="5.45916">
        <ele>1739.5999755859</ele>
        <time>2022-05-29T07:24:35.000Z</time>
      </trkpt>
      <trkpt lat="44.74431" lon="5.45921">
        <ele>1741.5999755859</ele>
        <time>2022-05-29T07:25:18.000Z</time>
      </trkpt>
      <trkpt lat="44.74426" lon="5.4592">
        <ele>1741.5999755859</ele>
        <time>2022-05-29T07:26:14.000Z</time>
      </trkpt>
      <trkpt lat="44.74426" lon="5.45913">
        <ele>1738.1999511719</ele>
        <time>2022-05-29T07:27:09.000Z</time>
      </trkpt>
      <trkpt lat="44.74436" lon="5.45914">
        <ele>1736.8000488281</ele>
        <time>2022-05-29T07:27:40.000Z</time>
      </trkpt>
      <trkpt lat="44.74451" lon="5.45903">
        <ele>1728.4000244141</ele>
        <time>2022-05-29T07:28:03.000Z</time>
      </trkpt>
      <trkpt lat="44.74447" lon="5.45899">
        <ele>1727.1999511719</ele>
        <time>2022-05-29T07:28:08.000Z</time>
      </trkpt>
      <trkpt lat="44.74445" lon="5.45882">
        <ele>1718.1999511719</ele>
        <time>2022-05-29T07:28:24.000Z</time>
      </trkpt>
      <trkpt lat="44.74444" lon="5.45881">
        <ele>1717.8000488281</ele>
        <time>2022-05-29T07:28:25.000Z</time>
      </trkpt>
      <trkpt lat="44.74444" lon="5.4588">
        <ele>1717.4000244141</ele>
        <time>2022-05-29T07:28:26.000Z</time>
      </trkpt>
      <trkpt lat="44.74444" lon="5.45878">
        <ele>1716.1999511719</ele>
        <time>2022-05-29T07:28:28.000Z</time>
      </trkpt>
      <trkpt lat="44.74443" lon="5.45877">
        <ele>1715.5999755859</ele>
        <time>2022-05-29T07:28:29.000Z</time>
      </trkpt>
      <trkpt lat="44.74442" lon="5.45875">
        <ele>1715.1999511719</ele>
        <time>2022-05-29T07:28:30.000Z</time>
      </trkpt>
      <trkpt lat="44.74442" lon="5.45875">
        <ele>1715.1999511719</ele>
        <time>2022-05-29T07:28:31.000Z</time>
      </trkpt>
      <trkpt lat="44.7444" lon="5.45873">
        <ele>1714.1999511719</ele>
        <time>2022-05-29T07:28:33.000Z</time>
      </trkpt>
      <trkpt lat="44.74433" lon="5.45862">
        <ele>1710</ele>
        <time>2022-05-29T07:28:40.000Z</time>
      </trkpt>
      <trkpt lat="44.74429" lon="5.45856">
        <ele>1707.4000244141</ele>
        <time>2022-05-29T07:28:43.000Z</time>
      </trkpt>
      <trkpt lat="44.74423" lon="5.45851">
        <ele>1705.4000244141</ele>
        <time>2022-05-29T07:28:47.000Z</time>
      </trkpt>
      <trkpt lat="44.74419" lon="5.45847">
        <ele>1704.4000244141</ele>
        <time>2022-05-29T07:28:50.000Z</time>
      </trkpt>
      <trkpt lat="44.74417" lon="5.45846">
        <ele>1704</ele>
        <time>2022-05-29T07:28:51.000Z</time>
      </trkpt>
      <trkpt lat="44.74415" lon="5.45844">
        <ele>1703.1999511719</ele>
        <time>2022-05-29T07:28:54.000Z</time>
      </trkpt>
      <trkpt lat="44.74412" lon="5.4584">
        <ele>1701.8000488281</ele>
        <time>2022-05-29T07:28:58.000Z</time>
      </trkpt>
      <trkpt lat="44.74409" lon="5.45837">
        <ele>1700.5999755859</ele>
        <time>2022-05-29T07:29:00.000Z</time>
      </trkpt>
      <trkpt lat="44.74408" lon="5.45833">
        <ele>1698.8000488281</ele>
        <time>2022-05-29T07:29:01.000Z</time>
      </trkpt>
      <trkpt lat="44.74409" lon="5.45831">
        <ele>1698</ele>
        <time>2022-05-29T07:29:03.000Z</time>
      </trkpt>
      <trkpt lat="44.74411" lon="5.45831">
        <ele>1697.5999755859</ele>
        <time>2022-05-29T07:29:04.000Z</time>
      </trkpt>
      <trkpt lat="44.74412" lon="5.4583">
        <ele>1697.1999511719</ele>
        <time>2022-05-29T07:29:05.000Z</time>
      </trkpt>
      <trkpt lat="44.74415" lon="5.45829">
        <ele>1696.1999511719</ele>
        <time>2022-05-29T07:29:07.000Z</time>
      </trkpt>
      <trkpt lat="44.74422" lon="5.45826">
        <ele>1694.1999511719</ele>
        <time>2022-05-29T07:29:15.000Z</time>
      </trkpt>
      <trkpt lat="44.74425" lon="5.45826">
        <ele>1693.8000488281</ele>
        <time>2022-05-29T07:29:17.000Z</time>
      </trkpt>
      <trkpt lat="44.74426" lon="5.45825">
        <ele>1693.5999755859</ele>
        <time>2022-05-29T07:29:18.000Z</time>
      </trkpt>
      <trkpt lat="44.74448" lon="5.45825">
        <ele>1691.1999511719</ele>
        <time>2022-05-29T07:29:29.000Z</time>
      </trkpt>
      <trkpt lat="44.7446" lon="5.45825">
        <ele>1690.4000244141</ele>
        <time>2022-05-29T07:29:38.000Z</time>
      </trkpt>
      <trkpt lat="44.7446" lon="5.45821">
        <ele>1688.5999755859</ele>
        <time>2022-05-29T07:29:40.000Z</time>
      </trkpt>
      <trkpt lat="44.74457" lon="5.45815">
        <ele>1685.8000488281</ele>
        <time>2022-05-29T07:29:43.000Z</time>
      </trkpt>
      <trkpt lat="44.74454" lon="5.45808">
        <ele>1683</ele>
        <time>2022-05-29T07:29:49.000Z</time>
      </trkpt>
      <trkpt lat="44.74448" lon="5.458">
        <ele>1680</ele>
        <time>2022-05-29T07:29:58.000Z</time>
      </trkpt>
      <trkpt lat="44.74443" lon="5.45794">
        <ele>1676.8000488281</ele>
        <time>2022-05-29T07:30:05.000Z</time>
      </trkpt>
      <trkpt lat="44.74434" lon="5.45783">
        <ele>1671</ele>
        <time>2022-05-29T07:30:31.000Z</time>
      </trkpt>
      <trkpt lat="44.74436" lon="5.45781">
        <ele>1670.1999511719</ele>
        <time>2022-05-29T07:30:36.000Z</time>
      </trkpt>
      <trkpt lat="44.74434" lon="5.45778">
        <ele>1668.5999755859</ele>
        <time>2022-05-29T07:30:40.000Z</time>
      </trkpt>
      <trkpt lat="44.74429" lon="5.45773">
        <ele>1666</ele>
        <time>2022-05-29T07:30:47.000Z</time>
      </trkpt>
      <trkpt lat="44.74425" lon="5.45765">
        <ele>1662.1999511719</ele>
        <time>2022-05-29T07:30:53.000Z</time>
      </trkpt>
      <trkpt lat="44.74421" lon="5.4576">
        <ele>1660</ele>
        <time>2022-05-29T07:30:57.000Z</time>
      </trkpt>
      <trkpt lat="44.74418" lon="5.45757">
        <ele>1658.4000244141</ele>
        <time>2022-05-29T07:31:01.000Z</time>
      </trkpt>
      <trkpt lat="44.74411" lon="5.45748">
        <ele>1654</ele>
        <time>2022-05-29T07:31:10.000Z</time>
      </trkpt>
      <trkpt lat="44.74409" lon="5.45742">
        <ele>1651.1999511719</ele>
        <time>2022-05-29T07:31:18.000Z</time>
      </trkpt>
      <trkpt lat="44.7441" lon="5.45741">
        <ele>1651</ele>
        <time>2022-05-29T07:31:19.000Z</time>
      </trkpt>
      <trkpt lat="44.74413" lon="5.45738">
        <ele>1649.5999755859</ele>
        <time>2022-05-29T07:31:24.000Z</time>
      </trkpt>
      <trkpt lat="44.74414" lon="5.45738">
        <ele>1649.5999755859</ele>
        <time>2022-05-29T07:31:27.000Z</time>
      </trkpt>
      <trkpt lat="44.74415" lon="5.45738">
        <ele>1649.5999755859</ele>
        <time>2022-05-29T07:31:29.000Z</time>
      </trkpt>
      <trkpt lat="44.74414" lon="5.45737">
        <ele>1649.4000244141</ele>
        <time>2022-05-29T07:31:31.000Z</time>
      </trkpt>
      <trkpt lat="44.74414" lon="5.45736">
        <ele>1648.5999755859</ele>
        <time>2022-05-29T07:31:34.000Z</time>
      </trkpt>
      <trkpt lat="44.74415" lon="5.45736">
        <ele>1648.4000244141</ele>
        <time>2022-05-29T07:31:35.000Z</time>
      </trkpt>
      <trkpt lat="44.74415" lon="5.45735">
        <ele>1648.4000244141</ele>
        <time>2022-05-29T07:31:36.000Z</time>
      </trkpt>
      <trkpt lat="44.74415" lon="5.45734">
        <ele>1647.8000488281</ele>
        <time>2022-05-29T07:31:37.000Z</time>
      </trkpt>
      <trkpt lat="44.74417" lon="5.45732">
        <ele>1646.8000488281</ele>
        <time>2022-05-29T07:31:39.000Z</time>
      </trkpt>
      <trkpt lat="44.74418" lon="5.45731">
        <ele>1646.5999755859</ele>
        <time>2022-05-29T07:31:40.000Z</time>
      </trkpt>
      <trkpt lat="44.74419" lon="5.4573">
        <ele>1646.4000244141</ele>
        <time>2022-05-29T07:31:41.000Z</time>
      </trkpt>
      <trkpt lat="44.7442" lon="5.45729">
        <ele>1645.8000488281</ele>
        <time>2022-05-29T07:31:42.000Z</time>
      </trkpt>
      <trkpt lat="44.74421" lon="5.45728">
        <ele>1645.4000244141</ele>
        <time>2022-05-29T07:31:43.000Z</time>
      </trkpt>
      <trkpt lat="44.74423" lon="5.45728">
        <ele>1645.4000244141</ele>
        <time>2022-05-29T07:31:44.000Z</time>
      </trkpt>
      <trkpt lat="44.74424" lon="5.45728">
        <ele>1645.1999511719</ele>
        <time>2022-05-29T07:31:46.000Z</time>
      </trkpt>
      <trkpt lat="44.74432" lon="5.45724">
        <ele>1644</ele>
        <time>2022-05-29T07:31:54.000Z</time>
      </trkpt>
      <trkpt lat="44.74433" lon="5.45724">
        <ele>1643.8000488281</ele>
        <time>2022-05-29T07:31:55.000Z</time>
      </trkpt>
      <trkpt lat="44.74434" lon="5.45723">
        <ele>1643.5999755859</ele>
        <time>2022-05-29T07:31:57.000Z</time>
      </trkpt>
      <trkpt lat="44.74434" lon="5.4572">
        <ele>1641.8000488281</ele>
        <time>2022-05-29T07:32:02.000Z</time>
      </trkpt>
      <trkpt lat="44.74431" lon="5.45717">
        <ele>1640.5999755859</ele>
        <time>2022-05-29T07:32:07.000Z</time>
      </trkpt>
      <trkpt lat="44.74428" lon="5.45715">
        <ele>1639.4000244141</ele>
        <time>2022-05-29T07:32:11.000Z</time>
      </trkpt>
      <trkpt lat="44.74424" lon="5.45713">
        <ele>1638</ele>
        <time>2022-05-29T07:32:16.000Z</time>
      </trkpt>
      <trkpt lat="44.74418" lon="5.45711">
        <ele>1636.4000244141</ele>
        <time>2022-05-29T07:32:21.000Z</time>
      </trkpt>
      <trkpt lat="44.74416" lon="5.45707">
        <ele>1634</ele>
        <time>2022-05-29T07:32:26.000Z</time>
      </trkpt>
      <trkpt lat="44.74419" lon="5.45703">
        <ele>1631.1999511719</ele>
        <time>2022-05-29T07:32:31.000Z</time>
      </trkpt>
      <trkpt lat="44.74419" lon="5.45695">
        <ele>1626.1999511719</ele>
        <time>2022-05-29T07:32:38.000Z</time>
      </trkpt>
      <trkpt lat="44.74417" lon="5.45692">
        <ele>1624.4000244141</ele>
        <time>2022-05-29T07:32:41.000Z</time>
      </trkpt>
      <trkpt lat="44.74415" lon="5.45691">
        <ele>1623.5999755859</ele>
        <time>2022-05-29T07:32:43.000Z</time>
      </trkpt>
      <trkpt lat="44.74413" lon="5.4569">
        <ele>1623.1999511719</ele>
        <time>2022-05-29T07:32:44.000Z</time>
      </trkpt>
      <trkpt lat="44.74412" lon="5.4569">
        <ele>1622.8000488281</ele>
        <time>2022-05-29T07:32:45.000Z</time>
      </trkpt>
      <trkpt lat="44.74409" lon="5.45688">
        <ele>1621.5999755859</ele>
        <time>2022-05-29T07:32:48.000Z</time>
      </trkpt>
      <trkpt lat="44.74407" lon="5.45684">
        <ele>1618.8000488281</ele>
        <time>2022-05-29T07:32:52.000Z</time>
      </trkpt>
      <trkpt lat="44.7441" lon="5.45682">
        <ele>1617.5999755859</ele>
        <time>2022-05-29T07:32:54.000Z</time>
      </trkpt>
      <trkpt lat="44.74419" lon="5.45665">
        <ele>1609.4000244141</ele>
        <time>2022-05-29T07:33:04.000Z</time>
      </trkpt>
      <trkpt lat="44.74418" lon="5.45663">
        <ele>1608</ele>
        <time>2022-05-29T07:33:06.000Z</time>
      </trkpt>
      <trkpt lat="44.74415" lon="5.45649">
        <ele>1600.1999511719</ele>
        <time>2022-05-29T07:33:21.000Z</time>
      </trkpt>
      <trkpt lat="44.74418" lon="5.45642">
        <ele>1596.5999755859</ele>
        <time>2022-05-29T07:33:37.000Z</time>
      </trkpt>
      <trkpt lat="44.7441" lon="5.45638">
        <ele>1593.4000244141</ele>
        <time>2022-05-29T07:33:46.000Z</time>
      </trkpt>
      <trkpt lat="44.7441" lon="5.45634">
        <ele>1591.5999755859</ele>
        <time>2022-05-29T07:33:48.000Z</time>
      </trkpt>
      <trkpt lat="44.74413" lon="5.45629">
        <ele>1588.5999755859</ele>
        <time>2022-05-29T07:33:52.000Z</time>
      </trkpt>
      <trkpt lat="44.74416" lon="5.45628">
        <ele>1588.1999511719</ele>
        <time>2022-05-29T07:33:54.000Z</time>
      </trkpt>
      <trkpt lat="44.74415" lon="5.4562">
        <ele>1581.5999755859</ele>
        <time>2022-05-29T07:34:04.000Z</time>
      </trkpt>
      <trkpt lat="44.74413" lon="5.45619">
        <ele>1580.8000488281</ele>
        <time>2022-05-29T07:34:05.000Z</time>
      </trkpt>
      <trkpt lat="44.74413" lon="5.45613">
        <ele>1576.5999755859</ele>
        <time>2022-05-29T07:34:14.000Z</time>
      </trkpt>
      <trkpt lat="44.74413" lon="5.45611">
        <ele>1574.8000488281</ele>
        <time>2022-05-29T07:34:16.000Z</time>
      </trkpt>
      <trkpt lat="44.74413" lon="5.4561">
        <ele>1574</ele>
        <time>2022-05-29T07:34:18.000Z</time>
      </trkpt>
      <trkpt lat="44.74412" lon="5.45611">
        <ele>1574.4000244141</ele>
        <time>2022-05-29T07:34:19.000Z</time>
      </trkpt>
      <trkpt lat="44.74411" lon="5.45611">
        <ele>1574.8000488281</ele>
        <time>2022-05-29T07:34:21.000Z</time>
      </trkpt>
      <trkpt lat="44.7441" lon="5.45611">
        <ele>1574.4000244141</ele>
        <time>2022-05-29T07:34:23.000Z</time>
      </trkpt>
      <trkpt lat="44.74409" lon="5.45611">
        <ele>1574</ele>
        <time>2022-05-29T07:34:27.000Z</time>
      </trkpt>
      <trkpt lat="44.74406" lon="5.45605">
        <ele>1569</ele>
        <time>2022-05-29T07:34:33.000Z</time>
      </trkpt>
      <trkpt lat="44.74409" lon="5.45596">
        <ele>1563</ele>
        <time>2022-05-29T07:34:43.000Z</time>
      </trkpt>
      <trkpt lat="44.7441" lon="5.45594">
        <ele>1561.8000488281</ele>
        <time>2022-05-29T07:34:44.000Z</time>
      </trkpt>
      <trkpt lat="44.74414" lon="5.45589">
        <ele>1559.1999511719</ele>
        <time>2022-05-29T07:34:49.000Z</time>
      </trkpt>
      <trkpt lat="44.74417" lon="5.45585">
        <ele>1558.4000244141</ele>
        <time>2022-05-29T07:34:56.000Z</time>
      </trkpt>
      <trkpt lat="44.74418" lon="5.45581">
        <ele>1556.4000244141</ele>
        <time>2022-05-29T07:35:04.000Z</time>
      </trkpt>
      <trkpt lat="44.74421" lon="5.45574">
        <ele>1554.4000244141</ele>
        <time>2022-05-29T07:35:10.000Z</time>
      </trkpt>
      <trkpt lat="44.74426" lon="5.45568">
        <ele>1553</ele>
        <time>2022-05-29T07:35:16.000Z</time>
      </trkpt>
      <trkpt lat="44.74428" lon="5.45565">
        <ele>1552.4000244141</ele>
        <time>2022-05-29T07:35:22.000Z</time>
      </trkpt>
      <trkpt lat="44.74437" lon="5.45561">
        <ele>1554.4000244141</ele>
        <time>2022-05-29T07:35:35.000Z</time>
      </trkpt>
      <trkpt lat="44.74437" lon="5.45559">
        <ele>1553.1999511719</ele>
        <time>2022-05-29T07:35:39.000Z</time>
      </trkpt>
      <trkpt lat="44.74437" lon="5.45557">
        <ele>1552.4000244141</ele>
        <time>2022-05-29T07:35:40.000Z</time>
      </trkpt>
      <trkpt lat="44.74437" lon="5.45553">
        <ele>1550.4000244141</ele>
        <time>2022-05-29T07:35:42.000Z</time>
      </trkpt>
      <trkpt lat="44.74439" lon="5.45552">
        <ele>1550.5999755859</ele>
        <time>2022-05-29T07:35:44.000Z</time>
      </trkpt>
      <trkpt lat="44.74443" lon="5.45551">
        <ele>1551.1999511719</ele>
        <time>2022-05-29T07:35:53.000Z</time>
      </trkpt>
      <trkpt lat="44.74443" lon="5.45551">
        <ele>1551.5999755859</ele>
        <time>2022-05-29T07:35:54.000Z</time>
      </trkpt>
      <trkpt lat="44.74443" lon="5.45552">
        <ele>1552</ele>
        <time>2022-05-29T07:35:56.000Z</time>
      </trkpt>
      <trkpt lat="44.74443" lon="5.45552">
        <ele>1552</ele>
        <time>2022-05-29T07:35:58.000Z</time>
      </trkpt>
      <trkpt lat="44.74443" lon="5.45552">
        <ele>1551.5999755859</ele>
        <time>2022-05-29T07:35:59.000Z</time>
      </trkpt>
      <trkpt lat="44.74441" lon="5.45549">
        <ele>1549.8000488281</ele>
        <time>2022-05-29T07:36:02.000Z</time>
      </trkpt>
      <trkpt lat="44.7444" lon="5.45547">
        <ele>1548.4000244141</ele>
        <time>2022-05-29T07:36:04.000Z</time>
      </trkpt>
      <trkpt lat="44.74439" lon="5.45546">
        <ele>1547.4000244141</ele>
        <time>2022-05-29T07:36:06.000Z</time>
      </trkpt>
      <trkpt lat="44.74436" lon="5.45546">
        <ele>1546.4000244141</ele>
        <time>2022-05-29T07:36:09.000Z</time>
      </trkpt>
      <trkpt lat="44.74436" lon="5.45546">
        <ele>1546.1999511719</ele>
        <time>2022-05-29T07:36:13.000Z</time>
      </trkpt>
      <trkpt lat="44.74433" lon="5.45546">
        <ele>1545.1999511719</ele>
        <time>2022-05-29T07:36:17.000Z</time>
      </trkpt>
      <trkpt lat="44.74431" lon="5.4554">
        <ele>1542.4000244141</ele>
        <time>2022-05-29T07:36:26.000Z</time>
      </trkpt>
      <trkpt lat="44.7443" lon="5.45538">
        <ele>1540.8000488281</ele>
        <time>2022-05-29T07:36:28.000Z</time>
      </trkpt>
      <trkpt lat="44.74427" lon="5.45535">
        <ele>1538.4000244141</ele>
        <time>2022-05-29T07:36:30.000Z</time>
      </trkpt>
      <trkpt lat="44.74427" lon="5.45535">
        <ele>1538.4000244141</ele>
        <time>2022-05-29T07:36:31.000Z</time>
      </trkpt>
      <trkpt lat="44.74427" lon="5.45533">
        <ele>1537.4000244141</ele>
        <time>2022-05-29T07:36:33.000Z</time>
      </trkpt>
      <trkpt lat="44.74426" lon="5.45532">
        <ele>1537</ele>
        <time>2022-05-29T07:36:34.000Z</time>
      </trkpt>
      <trkpt lat="44.74426" lon="5.45531">
        <ele>1536.5999755859</ele>
        <time>2022-05-29T07:36:37.000Z</time>
      </trkpt>
      <trkpt lat="44.74424" lon="5.45528">
        <ele>1534.4000244141</ele>
        <time>2022-05-29T07:36:43.000Z</time>
      </trkpt>
      <trkpt lat="44.74417" lon="5.45525">
        <ele>1530.1999511719</ele>
        <time>2022-05-29T07:36:53.000Z</time>
      </trkpt>
      <trkpt lat="44.74414" lon="5.45516">
        <ele>1525.8000488281</ele>
        <time>2022-05-29T07:37:03.000Z</time>
      </trkpt>
      <trkpt lat="44.74412" lon="5.45513">
        <ele>1523.1999511719</ele>
        <time>2022-05-29T07:37:09.000Z</time>
      </trkpt>
      <trkpt lat="44.7441" lon="5.45511">
        <ele>1522</ele>
        <time>2022-05-29T07:37:11.000Z</time>
      </trkpt>
      <trkpt lat="44.74405" lon="5.45502">
        <ele>1516.4000244141</ele>
        <time>2022-05-29T07:37:23.000Z</time>
      </trkpt>
      <trkpt lat="44.74402" lon="5.45501">
        <ele>1514.8000488281</ele>
        <time>2022-05-29T07:37:27.000Z</time>
      </trkpt>
      <trkpt lat="44.74396" lon="5.45499">
        <ele>1511.4000244141</ele>
        <time>2022-05-29T07:37:34.000Z</time>
      </trkpt>
      <trkpt lat="44.74395" lon="5.45498">
        <ele>1511</ele>
        <time>2022-05-29T07:37:35.000Z</time>
      </trkpt>
      <trkpt lat="44.74386" lon="5.45494">
        <ele>1505.5999755859</ele>
        <time>2022-05-29T07:37:44.000Z</time>
      </trkpt>
      <trkpt lat="44.74385" lon="5.45494">
        <ele>1505</ele>
        <time>2022-05-29T07:37:45.000Z</time>
      </trkpt>
      <trkpt lat="44.7438" lon="5.45493">
        <ele>1502.8000488281</ele>
        <time>2022-05-29T07:37:49.000Z</time>
      </trkpt>
      <trkpt lat="44.74383" lon="5.45487">
        <ele>1501.4000244141</ele>
        <time>2022-05-29T07:38:10.000Z</time>
      </trkpt>
      <trkpt lat="44.74382" lon="5.45486">
        <ele>1500.5999755859</ele>
        <time>2022-05-29T07:38:14.000Z</time>
      </trkpt>
      <trkpt lat="44.74382" lon="5.45484">
        <ele>1500</ele>
        <time>2022-05-29T07:38:20.000Z</time>
      </trkpt>
      <trkpt lat="44.74382" lon="5.45485">
        <ele>1500.1999511719</ele>
        <time>2022-05-29T07:38:24.000Z</time>
      </trkpt>
      <trkpt lat="44.74382" lon="5.45486">
        <ele>1500.5999755859</ele>
        <time>2022-05-29T07:38:27.000Z</time>
      </trkpt>
      <trkpt lat="44.74382" lon="5.45487">
        <ele>1501.1999511719</ele>
        <time>2022-05-29T07:38:30.000Z</time>
      </trkpt>
      <trkpt lat="44.74381" lon="5.45487">
        <ele>1500.5999755859</ele>
        <time>2022-05-29T07:38:43.000Z</time>
      </trkpt>
      <trkpt lat="44.74379" lon="5.45487">
        <ele>1500</ele>
        <time>2022-05-29T07:38:51.000Z</time>
      </trkpt>
      <trkpt lat="44.7438" lon="5.45488">
        <ele>1500.4000244141</ele>
        <time>2022-05-29T07:38:57.000Z</time>
      </trkpt>
      <trkpt lat="44.74381" lon="5.45489">
        <ele>1501.4000244141</ele>
        <time>2022-05-29T07:39:18.000Z</time>
      </trkpt>
      <trkpt lat="44.74381" lon="5.45489">
        <ele>1501.4000244141</ele>
        <time>2022-05-29T07:39:26.000Z</time>
      </trkpt>
      <trkpt lat="44.74382" lon="5.4549">
        <ele>1502.1999511719</ele>
        <time>2022-05-29T07:39:34.000Z</time>
      </trkpt>
      <trkpt lat="44.74383" lon="5.4549">
        <ele>1502.8000488281</ele>
        <time>2022-05-29T07:39:51.000Z</time>
      </trkpt>
      <trkpt lat="44.74383" lon="5.45491">
        <ele>1503</ele>
        <time>2022-05-29T07:39:52.000Z</time>
      </trkpt>
      <trkpt lat="44.74383" lon="5.45491">
        <ele>1503</ele>
        <time>2022-05-29T07:39:53.000Z</time>
      </trkpt>
      <trkpt lat="44.74379" lon="5.45498">
        <ele>1504.1999511719</ele>
        <time>2022-05-29T07:40:16.000Z</time>
      </trkpt>
      <trkpt lat="44.74378" lon="5.45498">
        <ele>1504.1999511719</ele>
        <time>2022-05-29T07:40:18.000Z</time>
      </trkpt>
      <trkpt lat="44.74378" lon="5.45498">
        <ele>1504.1999511719</ele>
        <time>2022-05-29T07:40:19.000Z</time>
      </trkpt>
      <trkpt lat="44.7438" lon="5.45497">
        <ele>1504</ele>
        <time>2022-05-29T07:40:28.000Z</time>
      </trkpt>
      <trkpt lat="44.7438" lon="5.45496">
        <ele>1504</ele>
        <time>2022-05-29T07:40:30.000Z</time>
      </trkpt>
      <trkpt lat="44.74379" lon="5.45493">
        <ele>1502.1999511719</ele>
        <time>2022-05-29T07:40:41.000Z</time>
      </trkpt>
      <trkpt lat="44.74378" lon="5.4549">
        <ele>1500.5999755859</ele>
        <time>2022-05-29T07:40:48.000Z</time>
      </trkpt>
      <trkpt lat="44.74378" lon="5.45487">
        <ele>1499.1999511719</ele>
        <time>2022-05-29T07:40:54.000Z</time>
      </trkpt>
      <trkpt lat="44.74378" lon="5.45486">
        <ele>1499</ele>
        <time>2022-05-29T07:41:07.000Z</time>
      </trkpt>
      <trkpt lat="44.74378" lon="5.45485">
        <ele>1498.5999755859</ele>
        <time>2022-05-29T07:41:19.000Z</time>
      </trkpt>
      <trkpt lat="44.74378" lon="5.45485">
        <ele>1498.8000488281</ele>
        <time>2022-05-29T07:41:25.000Z</time>
      </trkpt>
      <trkpt lat="44.74378" lon="5.45485">
        <ele>1498.5999755859</ele>
        <time>2022-05-29T07:41:29.000Z</time>
      </trkpt>
      <trkpt lat="44.74377" lon="5.45488">
        <ele>1499.4000244141</ele>
        <time>2022-05-29T07:41:50.000Z</time>
      </trkpt>
      <trkpt lat="44.74378" lon="5.45487">
        <ele>1499.4000244141</ele>
        <time>2022-05-29T07:42:06.000Z</time>
      </trkpt>
      <trkpt lat="44.74378" lon="5.45487">
        <ele>1499.4000244141</ele>
        <time>2022-05-29T07:42:07.000Z</time>
      </trkpt>
      <trkpt lat="44.74378" lon="5.45486">
        <ele>1499.1999511719</ele>
        <time>2022-05-29T07:42:09.000Z</time>
      </trkpt>
      <trkpt lat="44.74378" lon="5.45486">
        <ele>1499.4000244141</ele>
        <time>2022-05-29T07:42:11.000Z</time>
      </trkpt>
      <trkpt lat="44.74379" lon="5.45487">
        <ele>1499.8000488281</ele>
        <time>2022-05-29T07:42:13.000Z</time>
      </trkpt>
      <trkpt lat="44.74379" lon="5.45487">
        <ele>1499.8000488281</ele>
        <time>2022-05-29T07:42:29.000Z</time>
      </trkpt>
      <trkpt lat="44.74379" lon="5.45486">
        <ele>1499.4000244141</ele>
        <time>2022-05-29T07:42:44.000Z</time>
      </trkpt>
      <trkpt lat="44.74379" lon="5.45487">
        <ele>1499.5999755859</ele>
        <time>2022-05-29T07:42:53.000Z</time>
      </trkpt>
      <trkpt lat="44.74378" lon="5.45489">
        <ele>1500.1999511719</ele>
        <time>2022-05-29T07:43:07.000Z</time>
      </trkpt>
      <trkpt lat="44.74379" lon="5.4549">
        <ele>1501.1999511719</ele>
        <time>2022-05-29T07:43:17.000Z</time>
      </trkpt>
      <trkpt lat="44.74377" lon="5.4549">
        <ele>1500.4000244141</ele>
        <time>2022-05-29T07:43:46.000Z</time>
      </trkpt>
      <trkpt lat="44.74374" lon="5.45491">
        <ele>1499.5999755859</ele>
        <time>2022-05-29T07:45:00.000Z</time>
      </trkpt>
      <trkpt lat="44.7437" lon="5.45493">
        <ele>1498.1999511719</ele>
        <time>2022-05-29T07:45:12.000Z</time>
      </trkpt>
      <trkpt lat="44.74366" lon="5.45493">
        <ele>1495.4000244141</ele>
        <time>2022-05-29T07:45:18.000Z</time>
      </trkpt>
      <trkpt lat="44.74364" lon="5.45494">
        <ele>1494.4000244141</ele>
        <time>2022-05-29T07:45:22.000Z</time>
      </trkpt>
      <trkpt lat="44.74364" lon="5.45494">
        <ele>1494.5999755859</ele>
        <time>2022-05-29T07:45:23.000Z</time>
      </trkpt>
      <trkpt lat="44.74364" lon="5.45495">
        <ele>1495</ele>
        <time>2022-05-29T07:45:24.000Z</time>
      </trkpt>
      <trkpt lat="44.74364" lon="5.45496">
        <ele>1495.1999511719</ele>
        <time>2022-05-29T07:45:27.000Z</time>
      </trkpt>
      <trkpt lat="44.74363" lon="5.45498">
        <ele>1495.5999755859</ele>
        <time>2022-05-29T07:45:29.000Z</time>
      </trkpt>
      <trkpt lat="44.74363" lon="5.45498">
        <ele>1495.8000488281</ele>
        <time>2022-05-29T07:45:30.000Z</time>
      </trkpt>
      <trkpt lat="44.74363" lon="5.45498">
        <ele>1495.5999755859</ele>
        <time>2022-05-29T07:45:33.000Z</time>
      </trkpt>
      <trkpt lat="44.74363" lon="5.45497">
        <ele>1495.4000244141</ele>
        <time>2022-05-29T07:45:35.000Z</time>
      </trkpt>
      <trkpt lat="44.74364" lon="5.45497">
        <ele>1495.5999755859</ele>
        <time>2022-05-29T07:45:36.000Z</time>
      </trkpt>
      <trkpt lat="44.74364" lon="5.45497">
        <ele>1495.5999755859</ele>
        <time>2022-05-29T07:45:40.000Z</time>
      </trkpt>
      <trkpt lat="44.74364" lon="5.45496">
        <ele>1495.5999755859</ele>
        <time>2022-05-29T07:45:49.000Z</time>
      </trkpt>
      <trkpt lat="44.74372" lon="5.45498">
        <ele>1501.8000488281</ele>
        <time>2022-05-29T07:46:06.000Z</time>
      </trkpt>
      <trkpt lat="44.74372" lon="5.455">
        <ele>1502.5999755859</ele>
        <time>2022-05-29T07:46:23.000Z</time>
      </trkpt>
      <trkpt lat="44.74372" lon="5.45501">
        <ele>1503.1999511719</ele>
        <time>2022-05-29T07:46:27.000Z</time>
      </trkpt>
      <trkpt lat="44.74371" lon="5.45502">
        <ele>1503</ele>
        <time>2022-05-29T07:46:42.000Z</time>
      </trkpt>
      <trkpt lat="44.74371" lon="5.45502">
        <ele>1503</ele>
        <time>2022-05-29T07:46:48.000Z</time>
      </trkpt>
      <trkpt lat="44.74372" lon="5.45503">
        <ele>1503.1999511719</ele>
        <time>2022-05-29T07:47:10.000Z</time>
      </trkpt>
      <trkpt lat="44.74372" lon="5.45504">
        <ele>1504.1999511719</ele>
        <time>2022-05-29T07:47:23.000Z</time>
      </trkpt>
      <trkpt lat="44.74372" lon="5.45504">
        <ele>1504</ele>
        <time>2022-05-29T07:47:40.000Z</time>
      </trkpt>
      <trkpt lat="44.74372" lon="5.45505">
        <ele>1504.1999511719</ele>
        <time>2022-05-29T07:47:45.000Z</time>
      </trkpt>
      <trkpt lat="44.74368" lon="5.45499">
        <ele>1499.8000488281</ele>
        <time>2022-05-29T07:48:33.000Z</time>
      </trkpt>
      <trkpt lat="44.74368" lon="5.45499">
        <ele>1499.8000488281</ele>
        <time>2022-05-29T07:48:34.000Z</time>
      </trkpt>
      <trkpt lat="44.74368" lon="5.45499">
        <ele>1499.8000488281</ele>
        <time>2022-05-29T07:48:36.000Z</time>
      </trkpt>
      <trkpt lat="44.74369" lon="5.45501">
        <ele>1500.8000488281</ele>
        <time>2022-05-29T07:49:02.000Z</time>
      </trkpt>
      <trkpt lat="44.74369" lon="5.45505">
        <ele>1503</ele>
        <time>2022-05-29T07:49:17.000Z</time>
      </trkpt>
      <trkpt lat="44.74369" lon="5.45505">
        <ele>1502.8000488281</ele>
        <time>2022-05-29T07:49:23.000Z</time>
      </trkpt>
      <trkpt lat="44.74369" lon="5.45505">
        <ele>1502.8000488281</ele>
        <time>2022-05-29T07:49:25.000Z</time>
      </trkpt>
      <trkpt lat="44.74369" lon="5.45505">
        <ele>1502.8000488281</ele>
        <time>2022-05-29T07:49:35.000Z</time>
      </trkpt>
      <trkpt lat="44.7437" lon="5.45505">
        <ele>1503.1999511719</ele>
        <time>2022-05-29T07:49:49.000Z</time>
      </trkpt>
      <trkpt lat="44.7437" lon="5.45505">
        <ele>1503</ele>
        <time>2022-05-29T07:49:55.000Z</time>
      </trkpt>
      <trkpt lat="44.74369" lon="5.45496">
        <ele>1499</ele>
        <time>2022-05-29T07:50:12.000Z</time>
      </trkpt>
      <trkpt lat="44.74368" lon="5.45496">
        <ele>1498.8000488281</ele>
        <time>2022-05-29T07:50:14.000Z</time>
      </trkpt>
      <trkpt lat="44.74368" lon="5.45496">
        <ele>1498.4000244141</ele>
        <time>2022-05-29T07:50:15.000Z</time>
      </trkpt>
      <trkpt lat="44.74367" lon="5.45496">
        <ele>1497.5999755859</ele>
        <time>2022-05-29T07:50:16.000Z</time>
      </trkpt>
      <trkpt lat="44.74363" lon="5.45496">
        <ele>1494.5999755859</ele>
        <time>2022-05-29T07:50:21.000Z</time>
      </trkpt>
      <trkpt lat="44.74363" lon="5.45496">
        <ele>1494.1999511719</ele>
        <time>2022-05-29T07:50:22.000Z</time>
      </trkpt>
      <trkpt lat="44.74362" lon="5.45495">
        <ele>1494</ele>
        <time>2022-05-29T07:50:29.000Z</time>
      </trkpt>
      <trkpt lat="44.74362" lon="5.45495">
        <ele>1493.5999755859</ele>
        <time>2022-05-29T07:50:31.000Z</time>
      </trkpt>
      <trkpt lat="44.74362" lon="5.45493">
        <ele>1492.5999755859</ele>
        <time>2022-05-29T07:50:37.000Z</time>
      </trkpt>
      <trkpt lat="44.74362" lon="5.45493">
        <ele>1492.5999755859</ele>
        <time>2022-05-29T07:50:39.000Z</time>
      </trkpt>
      <trkpt lat="44.74362" lon="5.45493">
        <ele>1492.5999755859</ele>
        <time>2022-05-29T07:50:40.000Z</time>
      </trkpt>
      <trkpt lat="44.74363" lon="5.45492">
        <ele>1493</ele>
        <time>2022-05-29T07:50:47.000Z</time>
      </trkpt>
      <trkpt lat="44.74363" lon="5.45492">
        <ele>1493</ele>
        <time>2022-05-29T07:50:48.000Z</time>
      </trkpt>
      <trkpt lat="44.74366" lon="5.45491">
        <ele>1495.1999511719</ele>
        <time>2022-05-29T07:50:58.000Z</time>
      </trkpt>
      <trkpt lat="44.74378" lon="5.45488">
        <ele>1499.8000488281</ele>
        <time>2022-05-29T07:51:12.000Z</time>
      </trkpt>
      <trkpt lat="44.74378" lon="5.45488">
        <ele>1499.8000488281</ele>
        <time>2022-05-29T07:51:14.000Z</time>
      </trkpt>
      <trkpt lat="44.74378" lon="5.45489">
        <ele>1500</ele>
        <time>2022-05-29T07:51:17.000Z</time>
      </trkpt>
      <trkpt lat="44.74379" lon="5.45484">
        <ele>1498.1999511719</ele>
        <time>2022-05-29T07:51:34.000Z</time>
      </trkpt>
      <trkpt lat="44.74378" lon="5.45484">
        <ele>1498.1999511719</ele>
        <time>2022-05-29T07:51:38.000Z</time>
      </trkpt>
      <trkpt lat="44.74377" lon="5.45485">
        <ele>1498.1999511719</ele>
        <time>2022-05-29T07:51:44.000Z</time>
      </trkpt>
      <trkpt lat="44.74376" lon="5.45484">
        <ele>1497.8000488281</ele>
        <time>2022-05-29T07:51:46.000Z</time>
      </trkpt>
      <trkpt lat="44.7437" lon="5.45482">
        <ele>1494.1999511719</ele>
        <time>2022-05-29T07:52:05.000Z</time>
      </trkpt>
      <trkpt lat="44.74372" lon="5.4547">
        <ele>1490.1999511719</ele>
        <time>2022-05-29T07:52:19.000Z</time>
      </trkpt>
      <trkpt lat="44.74376" lon="5.4546">
        <ele>1489</ele>
        <time>2022-05-29T07:52:30.000Z</time>
      </trkpt>
      <trkpt lat="44.74367" lon="5.45445">
        <ele>1482.1999511719</ele>
        <time>2022-05-29T07:52:57.000Z</time>
      </trkpt>
      <trkpt lat="44.74361" lon="5.45438">
        <ele>1477</ele>
        <time>2022-05-29T07:53:27.000Z</time>
      </trkpt>
      <trkpt lat="44.7435" lon="5.45413">
        <ele>1465.5999755859</ele>
        <time>2022-05-29T07:54:22.000Z</time>
      </trkpt>
      <trkpt lat="44.74352" lon="5.45404">
        <ele>1465.1999511719</ele>
        <time>2022-05-29T07:54:28.000Z</time>
      </trkpt>
      <trkpt lat="44.74348" lon="5.45392">
        <ele>1460.4000244141</ele>
        <time>2022-05-29T07:54:33.000Z</time>
      </trkpt>
      <trkpt lat="44.7433" lon="5.4537">
        <ele>1447.8000488281</ele>
        <time>2022-05-29T07:55:03.000Z</time>
      </trkpt>
      <trkpt lat="44.74324" lon="5.45364">
        <ele>1443.5999755859</ele>
        <time>2022-05-29T07:55:11.000Z</time>
      </trkpt>
      <trkpt lat="44.74316" lon="5.45346">
        <ele>1438.1999511719</ele>
        <time>2022-05-29T07:55:42.000Z</time>
      </trkpt>
      <trkpt lat="44.74316" lon="5.45344">
        <ele>1438.4000244141</ele>
        <time>2022-05-29T07:55:44.000Z</time>
      </trkpt>
      <trkpt lat="44.74317" lon="5.45342">
        <ele>1438.5999755859</ele>
        <time>2022-05-29T07:55:48.000Z</time>
      </trkpt>
      <trkpt lat="44.74316" lon="5.4534">
        <ele>1438.1999511719</ele>
        <time>2022-05-29T07:55:51.000Z</time>
      </trkpt>
      <trkpt lat="44.74317" lon="5.45339">
        <ele>1438.4000244141</ele>
        <time>2022-05-29T07:55:53.000Z</time>
      </trkpt>
      <trkpt lat="44.74329" lon="5.45324">
        <ele>1443.1999511719</ele>
        <time>2022-05-29T07:56:10.000Z</time>
      </trkpt>
      <trkpt lat="44.74353" lon="5.45308">
        <ele>1452</ele>
        <time>2022-05-29T07:56:24.000Z</time>
      </trkpt>
      <trkpt lat="44.74358" lon="5.45306">
        <ele>1454.1999511719</ele>
        <time>2022-05-29T07:56:27.000Z</time>
      </trkpt>
      <trkpt lat="44.7436" lon="5.45306">
        <ele>1455.1999511719</ele>
        <time>2022-05-29T07:56:30.000Z</time>
      </trkpt>
      <trkpt lat="44.74361" lon="5.45305">
        <ele>1455.5999755859</ele>
        <time>2022-05-29T07:56:31.000Z</time>
      </trkpt>
      <trkpt lat="44.74365" lon="5.45305">
        <ele>1457</ele>
        <time>2022-05-29T07:56:33.000Z</time>
      </trkpt>
      <trkpt lat="44.74366" lon="5.45306">
        <ele>1457.8000488281</ele>
        <time>2022-05-29T07:56:34.000Z</time>
      </trkpt>
      <trkpt lat="44.74367" lon="5.45305">
        <ele>1458</ele>
        <time>2022-05-29T07:56:35.000Z</time>
      </trkpt>
      <trkpt lat="44.74368" lon="5.45305">
        <ele>1458.4000244141</ele>
        <time>2022-05-29T07:56:36.000Z</time>
      </trkpt>
      <trkpt lat="44.74368" lon="5.45304">
        <ele>1458.4000244141</ele>
        <time>2022-05-29T07:56:37.000Z</time>
      </trkpt>
      <trkpt lat="44.74369" lon="5.45303">
        <ele>1458.8000488281</ele>
        <time>2022-05-29T07:56:38.000Z</time>
      </trkpt>
      <trkpt lat="44.74371" lon="5.45301">
        <ele>1459.4000244141</ele>
        <time>2022-05-29T07:56:41.000Z</time>
      </trkpt>
      <trkpt lat="44.74372" lon="5.45299">
        <ele>1459</ele>
        <time>2022-05-29T07:56:43.000Z</time>
      </trkpt>
      <trkpt lat="44.74373" lon="5.45298">
        <ele>1458.8000488281</ele>
        <time>2022-05-29T07:56:45.000Z</time>
      </trkpt>
      <trkpt lat="44.74374" lon="5.45297">
        <ele>1458.5999755859</ele>
        <time>2022-05-29T07:56:46.000Z</time>
      </trkpt>
      <trkpt lat="44.74376" lon="5.45294">
        <ele>1458</ele>
        <time>2022-05-29T07:56:49.000Z</time>
      </trkpt>
      <trkpt lat="44.7438" lon="5.45288">
        <ele>1456.5999755859</ele>
        <time>2022-05-29T07:56:54.000Z</time>
      </trkpt>
      <trkpt lat="44.74385" lon="5.45275">
        <ele>1453</ele>
        <time>2022-05-29T07:57:04.000Z</time>
      </trkpt>
      <trkpt lat="44.74385" lon="5.45271">
        <ele>1452</ele>
        <time>2022-05-29T07:57:07.000Z</time>
      </trkpt>
      <trkpt lat="44.74386" lon="5.45269">
        <ele>1451.4000244141</ele>
        <time>2022-05-29T07:57:10.000Z</time>
      </trkpt>
      <trkpt lat="44.74384" lon="5.45267">
        <ele>1450.8000488281</ele>
        <time>2022-05-29T07:57:16.000Z</time>
      </trkpt>
      <trkpt lat="44.74384" lon="5.45266">
        <ele>1450.1999511719</ele>
        <time>2022-05-29T07:57:18.000Z</time>
      </trkpt>
      <trkpt lat="44.74384" lon="5.45265">
        <ele>1449.8000488281</ele>
        <time>2022-05-29T07:57:20.000Z</time>
      </trkpt>
      <trkpt lat="44.74385" lon="5.45259">
        <ele>1448.4000244141</ele>
        <time>2022-05-29T07:57:29.000Z</time>
      </trkpt>
      <trkpt lat="44.74386" lon="5.45254">
        <ele>1447</ele>
        <time>2022-05-29T07:57:34.000Z</time>
      </trkpt>
      <trkpt lat="44.74386" lon="5.45252">
        <ele>1446.4000244141</ele>
        <time>2022-05-29T07:57:38.000Z</time>
      </trkpt>
      <trkpt lat="44.74384" lon="5.4525">
        <ele>1445.4000244141</ele>
        <time>2022-05-29T07:57:45.000Z</time>
      </trkpt>
      <trkpt lat="44.74382" lon="5.45249">
        <ele>1445.1999511719</ele>
        <time>2022-05-29T07:57:48.000Z</time>
      </trkpt>
      <trkpt lat="44.74378" lon="5.45249">
        <ele>1444.5999755859</ele>
        <time>2022-05-29T07:57:54.000Z</time>
      </trkpt>
      <trkpt lat="44.7437" lon="5.45247">
        <ele>1443.1999511719</ele>
        <time>2022-05-29T07:58:01.000Z</time>
      </trkpt>
      <trkpt lat="44.74367" lon="5.45243">
        <ele>1441.4000244141</ele>
        <time>2022-05-29T07:58:08.000Z</time>
      </trkpt>
      <trkpt lat="44.74349" lon="5.45234">
        <ele>1434.1999511719</ele>
        <time>2022-05-29T07:58:29.000Z</time>
      </trkpt>
      <trkpt lat="44.74338" lon="5.45227">
        <ele>1429.4000244141</ele>
        <time>2022-05-29T07:58:40.000Z</time>
      </trkpt>
      <trkpt lat="44.74315" lon="5.45188">
        <ele>1413.5999755859</ele>
        <time>2022-05-29T07:58:53.000Z</time>
      </trkpt>
      <trkpt lat="44.74315" lon="5.45185">
        <ele>1412.5999755859</ele>
        <time>2022-05-29T07:58:58.000Z</time>
      </trkpt>
      <trkpt lat="44.74315" lon="5.45184">
        <ele>1412.5999755859</ele>
        <time>2022-05-29T07:59:00.000Z</time>
      </trkpt>
      <trkpt lat="44.74315" lon="5.45184">
        <ele>1412.4000244141</ele>
        <time>2022-05-29T07:59:01.000Z</time>
      </trkpt>
      <trkpt lat="44.74315" lon="5.45184">
        <ele>1412.5999755859</ele>
        <time>2022-05-29T07:59:03.000Z</time>
      </trkpt>
      <trkpt lat="44.74316" lon="5.45182">
        <ele>1412.1999511719</ele>
        <time>2022-05-29T07:59:06.000Z</time>
      </trkpt>
      <trkpt lat="44.74316" lon="5.45181">
        <ele>1412</ele>
        <time>2022-05-29T07:59:07.000Z</time>
      </trkpt>
      <trkpt lat="44.74316" lon="5.45179">
        <ele>1411.4000244141</ele>
        <time>2022-05-29T07:59:09.000Z</time>
      </trkpt>
      <trkpt lat="44.74316" lon="5.45178">
        <ele>1411.4000244141</ele>
        <time>2022-05-29T07:59:10.000Z</time>
      </trkpt>
      <trkpt lat="44.74316" lon="5.45178">
        <ele>1411.1999511719</ele>
        <time>2022-05-29T07:59:12.000Z</time>
      </trkpt>
      <trkpt lat="44.74316" lon="5.45174">
        <ele>1410.1999511719</ele>
        <time>2022-05-29T07:59:19.000Z</time>
      </trkpt>
      <trkpt lat="44.74315" lon="5.45172">
        <ele>1409.5999755859</ele>
        <time>2022-05-29T07:59:25.000Z</time>
      </trkpt>
      <trkpt lat="44.74315" lon="5.45168">
        <ele>1408.5999755859</ele>
        <time>2022-05-29T07:59:27.000Z</time>
      </trkpt>
      <trkpt lat="44.74315" lon="5.45163">
        <ele>1407.4000244141</ele>
        <time>2022-05-29T07:59:30.000Z</time>
      </trkpt>
      <trkpt lat="44.74317" lon="5.45163">
        <ele>1408</ele>
        <time>2022-05-29T07:59:32.000Z</time>
      </trkpt>
      <trkpt lat="44.74318" lon="5.45163">
        <ele>1408</ele>
        <time>2022-05-29T07:59:33.000Z</time>
      </trkpt>
      <trkpt lat="44.74324" lon="5.45159">
        <ele>1407.1999511719</ele>
        <time>2022-05-29T07:59:38.000Z</time>
      </trkpt>
      <trkpt lat="44.7433" lon="5.45155">
        <ele>1406.1999511719</ele>
        <time>2022-05-29T07:59:44.000Z</time>
      </trkpt>
      <trkpt lat="44.74334" lon="5.45156">
        <ele>1407</ele>
        <time>2022-05-29T07:59:48.000Z</time>
      </trkpt>
      <trkpt lat="44.74338" lon="5.45158">
        <ele>1408.1999511719</ele>
        <time>2022-05-29T07:59:59.000Z</time>
      </trkpt>
      <trkpt lat="44.74339" lon="5.4516">
        <ele>1409.1999511719</ele>
        <time>2022-05-29T08:00:03.000Z</time>
      </trkpt>
      <trkpt lat="44.74344" lon="5.45159">
        <ele>1409.1999511719</ele>
        <time>2022-05-29T08:00:09.000Z</time>
      </trkpt>
      <trkpt lat="44.74349" lon="5.45154">
        <ele>1407.8000488281</ele>
        <time>2022-05-29T08:00:14.000Z</time>
      </trkpt>
      <trkpt lat="44.74347" lon="5.45145">
        <ele>1404.4000244141</ele>
        <time>2022-05-29T08:00:22.000Z</time>
      </trkpt>
      <trkpt lat="44.74346" lon="5.45145">
        <ele>1404.1999511719</ele>
        <time>2022-05-29T08:00:27.000Z</time>
      </trkpt>
      <trkpt lat="44.74346" lon="5.45145">
        <ele>1404</ele>
        <time>2022-05-29T08:00:28.000Z</time>
      </trkpt>
      <trkpt lat="44.74345" lon="5.45144">
        <ele>1403.5999755859</ele>
        <time>2022-05-29T08:00:30.000Z</time>
      </trkpt>
      <trkpt lat="44.74345" lon="5.45142">
        <ele>1402.8000488281</ele>
        <time>2022-05-29T08:00:32.000Z</time>
      </trkpt>
      <trkpt lat="44.74344" lon="5.45141">
        <ele>1402.1999511719</ele>
        <time>2022-05-29T08:00:33.000Z</time>
      </trkpt>
      <trkpt lat="44.74344" lon="5.4514">
        <ele>1402.1999511719</ele>
        <time>2022-05-29T08:00:34.000Z</time>
      </trkpt>
      <trkpt lat="44.74345" lon="5.4514">
        <ele>1402.1999511719</ele>
        <time>2022-05-29T08:00:35.000Z</time>
      </trkpt>
      <trkpt lat="44.74345" lon="5.45139">
        <ele>1401.8000488281</ele>
        <time>2022-05-29T08:00:38.000Z</time>
      </trkpt>
      <trkpt lat="44.74347" lon="5.45139">
        <ele>1402</ele>
        <time>2022-05-29T08:00:45.000Z</time>
      </trkpt>
      <trkpt lat="44.74349" lon="5.45141">
        <ele>1402.8000488281</ele>
        <time>2022-05-29T08:00:56.000Z</time>
      </trkpt>
      <trkpt lat="44.74349" lon="5.45141">
        <ele>1402.8000488281</ele>
        <time>2022-05-29T08:00:58.000Z</time>
      </trkpt>
      <trkpt lat="44.74347" lon="5.45141">
        <ele>1402.8000488281</ele>
        <time>2022-05-29T08:01:03.000Z</time>
      </trkpt>
      <trkpt lat="44.74346" lon="5.45138">
        <ele>1401.5999755859</ele>
        <time>2022-05-29T08:01:17.000Z</time>
      </trkpt>
      <trkpt lat="44.74346" lon="5.45132">
        <ele>1399.1999511719</ele>
        <time>2022-05-29T08:01:30.000Z</time>
      </trkpt>
      <trkpt lat="44.74346" lon="5.45114">
        <ele>1392.4000244141</ele>
        <time>2022-05-29T08:02:01.000Z</time>
      </trkpt>
      <trkpt lat="44.74339" lon="5.45103">
        <ele>1387.5999755859</ele>
        <time>2022-05-29T08:02:23.000Z</time>
      </trkpt>
      <trkpt lat="44.74335" lon="5.45101">
        <ele>1386.4000244141</ele>
        <time>2022-05-29T08:02:27.000Z</time>
      </trkpt>
      <trkpt lat="44.74333" lon="5.45099">
        <ele>1385.5999755859</ele>
        <time>2022-05-29T08:02:29.000Z</time>
      </trkpt>
      <trkpt lat="44.74322" lon="5.45094">
        <ele>1382.1999511719</ele>
        <time>2022-05-29T08:02:42.000Z</time>
      </trkpt>
      <trkpt lat="44.74318" lon="5.45094">
        <ele>1381.8000488281</ele>
        <time>2022-05-29T08:02:46.000Z</time>
      </trkpt>
      <trkpt lat="44.74307" lon="5.45098">
        <ele>1382.1999511719</ele>
        <time>2022-05-29T08:02:59.000Z</time>
      </trkpt>
      <trkpt lat="44.74304" lon="5.45098">
        <ele>1382</ele>
        <time>2022-05-29T08:03:03.000Z</time>
      </trkpt>
      <trkpt lat="44.74302" lon="5.45097">
        <ele>1381.4000244141</ele>
        <time>2022-05-29T08:03:07.000Z</time>
      </trkpt>
      <trkpt lat="44.743" lon="5.45096">
        <ele>1380.8000488281</ele>
        <time>2022-05-29T08:03:11.000Z</time>
      </trkpt>
      <trkpt lat="44.74297" lon="5.45089">
        <ele>1378</ele>
        <time>2022-05-29T08:03:18.000Z</time>
      </trkpt>
      <trkpt lat="44.74296" lon="5.45086">
        <ele>1376.5999755859</ele>
        <time>2022-05-29T08:03:23.000Z</time>
      </trkpt>
      <trkpt lat="44.74294" lon="5.45083">
        <ele>1375.4000244141</ele>
        <time>2022-05-29T08:03:26.000Z</time>
      </trkpt>
      <trkpt lat="44.74287" lon="5.45079">
        <ele>1372.5999755859</ele>
        <time>2022-05-29T08:03:38.000Z</time>
      </trkpt>
      <trkpt lat="44.74269" lon="5.4507">
        <ele>1360.1999511719</ele>
        <time>2022-05-29T08:03:53.000Z</time>
      </trkpt>
      <trkpt lat="44.74263" lon="5.45066">
        <ele>1355.5999755859</ele>
        <time>2022-05-29T08:03:59.000Z</time>
      </trkpt>
      <trkpt lat="44.74252" lon="5.45053">
        <ele>1345.5999755859</ele>
        <time>2022-05-29T08:04:17.000Z</time>
      </trkpt>
      <trkpt lat="44.74229" lon="5.4504">
        <ele>1327</ele>
        <time>2022-05-29T08:04:44.000Z</time>
      </trkpt>
      <trkpt lat="44.74227" lon="5.4504">
        <ele>1326.1999511719</ele>
        <time>2022-05-29T08:05:32.000Z</time>
      </trkpt>
      <trkpt lat="44.74227" lon="5.4504">
        <ele>1326.5999755859</ele>
        <time>2022-05-29T08:05:37.000Z</time>
      </trkpt>
      <trkpt lat="44.74228" lon="5.45037">
        <ele>1325.1999511719</ele>
        <time>2022-05-29T08:05:44.000Z</time>
      </trkpt>
      <trkpt lat="44.74229" lon="5.45036">
        <ele>1325.5999755859</ele>
        <time>2022-05-29T08:05:51.000Z</time>
      </trkpt>
      <trkpt lat="44.74231" lon="5.45026">
        <ele>1321.4000244141</ele>
        <time>2022-05-29T08:06:08.000Z</time>
      </trkpt>
      <trkpt lat="44.74231" lon="5.45026">
        <ele>1321.8000488281</ele>
        <time>2022-05-29T08:06:10.000Z</time>
      </trkpt>
      <trkpt lat="44.74231" lon="5.45026">
        <ele>1322</ele>
        <time>2022-05-29T08:06:11.000Z</time>
      </trkpt>
      <trkpt lat="44.74231" lon="5.45027">
        <ele>1322.1999511719</ele>
        <time>2022-05-29T08:06:12.000Z</time>
      </trkpt>
      <trkpt lat="44.74231" lon="5.45027">
        <ele>1322.4000244141</ele>
        <time>2022-05-29T08:06:13.000Z</time>
      </trkpt>
      <trkpt lat="44.74231" lon="5.45027">
        <ele>1322.8000488281</ele>
        <time>2022-05-29T08:06:15.000Z</time>
      </trkpt>
      <trkpt lat="44.74232" lon="5.45028">
        <ele>1323</ele>
        <time>2022-05-29T08:06:16.000Z</time>
      </trkpt>
      <trkpt lat="44.74232" lon="5.45028">
        <ele>1323.1999511719</ele>
        <time>2022-05-29T08:06:17.000Z</time>
      </trkpt>
      <trkpt lat="44.74233" lon="5.45028">
        <ele>1323.5999755859</ele>
        <time>2022-05-29T08:06:18.000Z</time>
      </trkpt>
      <trkpt lat="44.74233" lon="5.45028">
        <ele>1323.8000488281</ele>
        <time>2022-05-29T08:06:19.000Z</time>
      </trkpt>
      <trkpt lat="44.74237" lon="5.45028">
        <ele>1325.8000488281</ele>
        <time>2022-05-29T08:06:26.000Z</time>
      </trkpt>
      <trkpt lat="44.74239" lon="5.45026">
        <ele>1326</ele>
        <time>2022-05-29T08:06:28.000Z</time>
      </trkpt>
      <trkpt lat="44.7424" lon="5.45027">
        <ele>1326.8000488281</ele>
        <time>2022-05-29T08:06:29.000Z</time>
      </trkpt>
      <trkpt lat="44.74241" lon="5.45027">
        <ele>1327.5999755859</ele>
        <time>2022-05-29T08:06:30.000Z</time>
      </trkpt>
      <trkpt lat="44.74244" lon="5.45027">
        <ele>1329</ele>
        <time>2022-05-29T08:06:33.000Z</time>
      </trkpt>
      <trkpt lat="44.74246" lon="5.45027">
        <ele>1330</ele>
        <time>2022-05-29T08:06:37.000Z</time>
      </trkpt>
      <trkpt lat="44.74248" lon="5.45028">
        <ele>1331.5999755859</ele>
        <time>2022-05-29T08:06:40.000Z</time>
      </trkpt>
      <trkpt lat="44.74249" lon="5.45028">
        <ele>1332</ele>
        <time>2022-05-29T08:06:41.000Z</time>
      </trkpt>
      <trkpt lat="44.74251" lon="5.45028">
        <ele>1333</ele>
        <time>2022-05-29T08:06:43.000Z</time>
      </trkpt>
      <trkpt lat="44.74252" lon="5.45029">
        <ele>1333.5999755859</ele>
        <time>2022-05-29T08:06:44.000Z</time>
      </trkpt>
      <trkpt lat="44.74254" lon="5.45029">
        <ele>1334.8000488281</ele>
        <time>2022-05-29T08:06:48.000Z</time>
      </trkpt>
      <trkpt lat="44.74256" lon="5.45025">
        <ele>1334.1999511719</ele>
        <time>2022-05-29T08:06:55.000Z</time>
      </trkpt>
      <trkpt lat="44.74257" lon="5.45025">
        <ele>1335.1999511719</ele>
        <time>2022-05-29T08:06:56.000Z</time>
      </trkpt>
      <trkpt lat="44.74265" lon="5.45028">
        <ele>1340.4000244141</ele>
        <time>2022-05-29T08:07:07.000Z</time>
      </trkpt>
      <trkpt lat="44.74268" lon="5.45025">
        <ele>1340.5999755859</ele>
        <time>2022-05-29T08:07:13.000Z</time>
      </trkpt>
      <trkpt lat="44.74267" lon="5.45012">
        <ele>1333.5999755859</ele>
        <time>2022-05-29T08:07:28.000Z</time>
      </trkpt>
      <trkpt lat="44.74261" lon="5.44994">
        <ele>1322.4000244141</ele>
        <time>2022-05-29T08:08:05.000Z</time>
      </trkpt>
      <trkpt lat="44.74259" lon="5.44991">
        <ele>1319.8000488281</ele>
        <time>2022-05-29T08:08:10.000Z</time>
      </trkpt>
      <trkpt lat="44.74257" lon="5.44988">
        <ele>1317.4000244141</ele>
        <time>2022-05-29T08:08:14.000Z</time>
      </trkpt>
      <trkpt lat="44.74255" lon="5.44989">
        <ele>1317.1999511719</ele>
        <time>2022-05-29T08:08:19.000Z</time>
      </trkpt>
      <trkpt lat="44.74257" lon="5.4499">
        <ele>1318.8000488281</ele>
        <time>2022-05-29T08:08:24.000Z</time>
      </trkpt>
      <trkpt lat="44.74258" lon="5.44994">
        <ele>1321.1999511719</ele>
        <time>2022-05-29T08:08:32.000Z</time>
      </trkpt>
      <trkpt lat="44.7426" lon="5.44997">
        <ele>1323.5999755859</ele>
        <time>2022-05-29T08:08:38.000Z</time>
      </trkpt>
      <trkpt lat="44.7426" lon="5.44999">
        <ele>1324</ele>
        <time>2022-05-29T08:08:42.000Z</time>
      </trkpt>
      <trkpt lat="44.74258" lon="5.45">
        <ele>1324</ele>
        <time>2022-05-29T08:08:46.000Z</time>
      </trkpt>
      <trkpt lat="44.74259" lon="5.45003">
        <ele>1325.4000244141</ele>
        <time>2022-05-29T08:08:55.000Z</time>
      </trkpt>
      <trkpt lat="44.74251" lon="5.44996">
        <ele>1318</ele>
        <time>2022-05-29T08:09:14.000Z</time>
      </trkpt>
      <trkpt lat="44.74246" lon="5.44987">
        <ele>1311.4000244141</ele>
        <time>2022-05-29T08:09:23.000Z</time>
      </trkpt>
      <trkpt lat="44.74244" lon="5.44983">
        <ele>1308.5999755859</ele>
        <time>2022-05-29T08:09:27.000Z</time>
      </trkpt>
      <trkpt lat="44.74242" lon="5.44981">
        <ele>1306.5999755859</ele>
        <time>2022-05-29T08:09:30.000Z</time>
      </trkpt>
      <trkpt lat="44.74241" lon="5.44979">
        <ele>1305</ele>
        <time>2022-05-29T08:09:32.000Z</time>
      </trkpt>
      <trkpt lat="44.74236" lon="5.4498">
        <ele>1302.5999755859</ele>
        <time>2022-05-29T08:09:41.000Z</time>
      </trkpt>
      <trkpt lat="44.74235" lon="5.44981">
        <ele>1302.4000244141</ele>
        <time>2022-05-29T08:09:43.000Z</time>
      </trkpt>
      <trkpt lat="44.74235" lon="5.44981">
        <ele>1302.5999755859</ele>
        <time>2022-05-29T08:09:44.000Z</time>
      </trkpt>
      <trkpt lat="44.74235" lon="5.44981">
        <ele>1302.5999755859</ele>
        <time>2022-05-29T08:09:45.000Z</time>
      </trkpt>
      <trkpt lat="44.74235" lon="5.44979">
        <ele>1302</ele>
        <time>2022-05-29T08:09:47.000Z</time>
      </trkpt>
      <trkpt lat="44.74235" lon="5.44978">
        <ele>1301.5999755859</ele>
        <time>2022-05-29T08:09:48.000Z</time>
      </trkpt>
      <trkpt lat="44.74235" lon="5.44977">
        <ele>1300.8000488281</ele>
        <time>2022-05-29T08:09:49.000Z</time>
      </trkpt>
      <trkpt lat="44.74235" lon="5.44976">
        <ele>1300</ele>
        <time>2022-05-29T08:09:50.000Z</time>
      </trkpt>
      <trkpt lat="44.74234" lon="5.44975">
        <ele>1299.1999511719</ele>
        <time>2022-05-29T08:09:51.000Z</time>
      </trkpt>
      <trkpt lat="44.74232" lon="5.44972">
        <ele>1296.5999755859</ele>
        <time>2022-05-29T08:09:54.000Z</time>
      </trkpt>
      <trkpt lat="44.74227" lon="5.44967">
        <ele>1291.5999755859</ele>
        <time>2022-05-29T08:09:59.000Z</time>
      </trkpt>
      <trkpt lat="44.74227" lon="5.44966">
        <ele>1291.8000488281</ele>
        <time>2022-05-29T08:10:00.000Z</time>
      </trkpt>
      <trkpt lat="44.74227" lon="5.44966">
        <ele>1291.4000244141</ele>
        <time>2022-05-29T08:10:02.000Z</time>
      </trkpt>
      <trkpt lat="44.74224" lon="5.44965">
        <ele>1289.8000488281</ele>
        <time>2022-05-29T08:10:06.000Z</time>
      </trkpt>
      <trkpt lat="44.74223" lon="5.44964">
        <ele>1289</ele>
        <time>2022-05-29T08:10:08.000Z</time>
      </trkpt>
      <trkpt lat="44.74223" lon="5.44962">
        <ele>1288</ele>
        <time>2022-05-29T08:10:11.000Z</time>
      </trkpt>
      <trkpt lat="44.74224" lon="5.44959">
        <ele>1287.8000488281</ele>
        <time>2022-05-29T08:10:15.000Z</time>
      </trkpt>
      <trkpt lat="44.74223" lon="5.44956">
        <ele>1286.4000244141</ele>
        <time>2022-05-29T08:10:21.000Z</time>
      </trkpt>
      <trkpt lat="44.74225" lon="5.44955">
        <ele>1287.1999511719</ele>
        <time>2022-05-29T08:10:24.000Z</time>
      </trkpt>
      <trkpt lat="44.74226" lon="5.4495">
        <ele>1286</ele>
        <time>2022-05-29T08:10:35.000Z</time>
      </trkpt>
      <trkpt lat="44.74224" lon="5.44944">
        <ele>1283.4000244141</ele>
        <time>2022-05-29T08:10:44.000Z</time>
      </trkpt>
      <trkpt lat="44.74224" lon="5.44943">
        <ele>1283.1999511719</ele>
        <time>2022-05-29T08:10:47.000Z</time>
      </trkpt>
      <trkpt lat="44.74226" lon="5.44943">
        <ele>1284.5999755859</ele>
        <time>2022-05-29T08:11:29.000Z</time>
      </trkpt>
      <trkpt lat="44.74226" lon="5.44937">
        <ele>1282.4000244141</ele>
        <time>2022-05-29T08:11:54.000Z</time>
      </trkpt>
      <trkpt lat="44.74206" lon="5.44927">
        <ele>1268.5999755859</ele>
        <time>2022-05-29T08:12:31.000Z</time>
      </trkpt>
      <trkpt lat="44.74205" lon="5.44925">
        <ele>1267.5999755859</ele>
        <time>2022-05-29T08:12:32.000Z</time>
      </trkpt>
      <trkpt lat="44.74203" lon="5.44912">
        <ele>1262.8000488281</ele>
        <time>2022-05-29T08:12:43.000Z</time>
      </trkpt>
      <trkpt lat="44.74204" lon="5.44906">
        <ele>1261.4000244141</ele>
        <time>2022-05-29T08:12:47.000Z</time>
      </trkpt>
      <trkpt lat="44.74201" lon="5.44904">
        <ele>1259</ele>
        <time>2022-05-29T08:12:51.000Z</time>
      </trkpt>
      <trkpt lat="44.74199" lon="5.44902">
        <ele>1257</ele>
        <time>2022-05-29T08:12:54.000Z</time>
      </trkpt>
      <trkpt lat="44.74194" lon="5.44897">
        <ele>1253</ele>
        <time>2022-05-29T08:12:59.000Z</time>
      </trkpt>
      <trkpt lat="44.74193" lon="5.44894">
        <ele>1251.4000244141</ele>
        <time>2022-05-29T08:13:04.000Z</time>
      </trkpt>
      <trkpt lat="44.74188" lon="5.44888">
        <ele>1246.1999511719</ele>
        <time>2022-05-29T08:13:13.000Z</time>
      </trkpt>
      <trkpt lat="44.74185" lon="5.44883">
        <ele>1243.4000244141</ele>
        <time>2022-05-29T08:13:17.000Z</time>
      </trkpt>
      <trkpt lat="44.74185" lon="5.44883">
        <ele>1243.1999511719</ele>
        <time>2022-05-29T08:13:19.000Z</time>
      </trkpt>
      <trkpt lat="44.74185" lon="5.44882">
        <ele>1243</ele>
        <time>2022-05-29T08:13:20.000Z</time>
      </trkpt>
      <trkpt lat="44.74185" lon="5.44882">
        <ele>1243</ele>
        <time>2022-05-29T08:13:21.000Z</time>
      </trkpt>
      <trkpt lat="44.74185" lon="5.44882">
        <ele>1242.8000488281</ele>
        <time>2022-05-29T08:13:24.000Z</time>
      </trkpt>
      <trkpt lat="44.74184" lon="5.4488">
        <ele>1242.1999511719</ele>
        <time>2022-05-29T08:13:25.000Z</time>
      </trkpt>
      <trkpt lat="44.74184" lon="5.44879">
        <ele>1242</ele>
        <time>2022-05-29T08:13:26.000Z</time>
      </trkpt>
      <trkpt lat="44.74184" lon="5.44877">
        <ele>1241.1999511719</ele>
        <time>2022-05-29T08:13:28.000Z</time>
      </trkpt>
      <trkpt lat="44.74185" lon="5.44876">
        <ele>1241.5999755859</ele>
        <time>2022-05-29T08:13:31.000Z</time>
      </trkpt>
      <trkpt lat="44.74185" lon="5.44876">
        <ele>1241.8000488281</ele>
        <time>2022-05-29T08:13:32.000Z</time>
      </trkpt>
      <trkpt lat="44.74186" lon="5.44873">
        <ele>1241.5999755859</ele>
        <time>2022-05-29T08:13:35.000Z</time>
      </trkpt>
      <trkpt lat="44.74187" lon="5.44872">
        <ele>1241.8000488281</ele>
        <time>2022-05-29T08:13:36.000Z</time>
      </trkpt>
      <trkpt lat="44.74188" lon="5.44872">
        <ele>1242.5999755859</ele>
        <time>2022-05-29T08:13:37.000Z</time>
      </trkpt>
      <trkpt lat="44.74196" lon="5.44869">
        <ele>1247.5999755859</ele>
        <time>2022-05-29T08:13:45.000Z</time>
      </trkpt>
      <trkpt lat="44.742" lon="5.44865">
        <ele>1250</ele>
        <time>2022-05-29T08:13:51.000Z</time>
      </trkpt>
      <trkpt lat="44.74205" lon="5.44863">
        <ele>1253.5999755859</ele>
        <time>2022-05-29T08:13:57.000Z</time>
      </trkpt>
      <trkpt lat="44.7421" lon="5.44864">
        <ele>1255.1999511719</ele>
        <time>2022-05-29T08:14:03.000Z</time>
      </trkpt>
      <trkpt lat="44.74211" lon="5.44864">
        <ele>1255.5999755859</ele>
        <time>2022-05-29T08:14:05.000Z</time>
      </trkpt>
      <trkpt lat="44.74214" lon="5.44864">
        <ele>1256.8000488281</ele>
        <time>2022-05-29T08:14:09.000Z</time>
      </trkpt>
      <trkpt lat="44.74216" lon="5.44864">
        <ele>1257.5999755859</ele>
        <time>2022-05-29T08:14:11.000Z</time>
      </trkpt>
      <trkpt lat="44.74221" lon="5.44866">
        <ele>1259.5999755859</ele>
        <time>2022-05-29T08:14:16.000Z</time>
      </trkpt>
      <trkpt lat="44.74246" lon="5.44873">
        <ele>1269</ele>
        <time>2022-05-29T08:14:38.000Z</time>
      </trkpt>
      <trkpt lat="44.74272" lon="5.44858">
        <ele>1274.1999511719</ele>
        <time>2022-05-29T08:14:55.000Z</time>
      </trkpt>
      <trkpt lat="44.74286" lon="5.44855">
        <ele>1273.4000244141</ele>
        <time>2022-05-29T08:15:01.000Z</time>
      </trkpt>
      <trkpt lat="44.74289" lon="5.44855">
        <ele>1273.5999755859</ele>
        <time>2022-05-29T08:15:05.000Z</time>
      </trkpt>
      <trkpt lat="44.74295" lon="5.44856">
        <ele>1273.8000488281</ele>
        <time>2022-05-29T08:15:10.000Z</time>
      </trkpt>
      <trkpt lat="44.74298" lon="5.44857">
        <ele>1274</ele>
        <time>2022-05-29T08:15:14.000Z</time>
      </trkpt>
      <trkpt lat="44.74299" lon="5.44858">
        <ele>1274.1999511719</ele>
        <time>2022-05-29T08:15:16.000Z</time>
      </trkpt>
      <trkpt lat="44.743" lon="5.44859">
        <ele>1274.4000244141</ele>
        <time>2022-05-29T08:15:17.000Z</time>
      </trkpt>
      <trkpt lat="44.74301" lon="5.44858">
        <ele>1274.4000244141</ele>
        <time>2022-05-29T08:15:18.000Z</time>
      </trkpt>
      <trkpt lat="44.74302" lon="5.44858">
        <ele>1274.1999511719</ele>
        <time>2022-05-29T08:15:19.000Z</time>
      </trkpt>
      <trkpt lat="44.74317" lon="5.44858">
        <ele>1273.8000488281</ele>
        <time>2022-05-29T08:15:28.000Z</time>
      </trkpt>
      <trkpt lat="44.74323" lon="5.44861">
        <ele>1274.5999755859</ele>
        <time>2022-05-29T08:15:32.000Z</time>
      </trkpt>
      <trkpt lat="44.74326" lon="5.44866">
        <ele>1276.8000488281</ele>
        <time>2022-05-29T08:15:39.000Z</time>
      </trkpt>
      <trkpt lat="44.74331" lon="5.44867">
        <ele>1276.8000488281</ele>
        <time>2022-05-29T08:15:56.000Z</time>
      </trkpt>
      <trkpt lat="44.74329" lon="5.44865">
        <ele>1276</ele>
        <time>2022-05-29T08:16:17.000Z</time>
      </trkpt>
      <trkpt lat="44.74329" lon="5.44865">
        <ele>1276</ele>
        <time>2022-05-29T08:16:19.000Z</time>
      </trkpt>
      <trkpt lat="44.74328" lon="5.44864">
        <ele>1275.8000488281</ele>
        <time>2022-05-29T08:16:20.000Z</time>
      </trkpt>
      <trkpt lat="44.74328" lon="5.44864">
        <ele>1275.5999755859</ele>
        <time>2022-05-29T08:16:21.000Z</time>
      </trkpt>
      <trkpt lat="44.74327" lon="5.44863">
        <ele>1275.5999755859</ele>
        <time>2022-05-29T08:16:23.000Z</time>
      </trkpt>
      <trkpt lat="44.74327" lon="5.44864">
        <ele>1275.8000488281</ele>
        <time>2022-05-29T08:16:26.000Z</time>
      </trkpt>
      <trkpt lat="44.74329" lon="5.44863">
        <ele>1275.1999511719</ele>
        <time>2022-05-29T08:16:32.000Z</time>
      </trkpt>
      <trkpt lat="44.74332" lon="5.44862">
        <ele>1275</ele>
        <time>2022-05-29T08:16:40.000Z</time>
      </trkpt>
      <trkpt lat="44.74332" lon="5.44861">
        <ele>1274.4000244141</ele>
        <time>2022-05-29T08:16:48.000Z</time>
      </trkpt>
      <trkpt lat="44.74332" lon="5.44861">
        <ele>1274.1999511719</ele>
        <time>2022-05-29T08:16:49.000Z</time>
      </trkpt>
      <trkpt lat="44.74332" lon="5.4486">
        <ele>1274</ele>
        <time>2022-05-29T08:16:50.000Z</time>
      </trkpt>
      <trkpt lat="44.74341" lon="5.44851">
        <ele>1269.8000488281</ele>
        <time>2022-05-29T08:17:11.000Z</time>
      </trkpt>
      <trkpt lat="44.74351" lon="5.44842">
        <ele>1265</ele>
        <time>2022-05-29T08:17:21.000Z</time>
      </trkpt>
      <trkpt lat="44.7438" lon="5.44806">
        <ele>1247.4000244141</ele>
        <time>2022-05-29T08:17:51.000Z</time>
      </trkpt>
      <trkpt lat="44.74391" lon="5.44805">
        <ele>1248</ele>
        <time>2022-05-29T08:18:02.000Z</time>
      </trkpt>
      <trkpt lat="44.744" lon="5.448">
        <ele>1246.5999755859</ele>
        <time>2022-05-29T08:18:10.000Z</time>
      </trkpt>
      <trkpt lat="44.74413" lon="5.44788">
        <ele>1242.5999755859</ele>
        <time>2022-05-29T08:18:24.000Z</time>
      </trkpt>
      <trkpt lat="44.74415" lon="5.44787">
        <ele>1242.1999511719</ele>
        <time>2022-05-29T08:18:26.000Z</time>
      </trkpt>
      <trkpt lat="44.74425" lon="5.44791">
        <ele>1244.8000488281</ele>
        <time>2022-05-29T08:18:48.000Z</time>
      </trkpt>
      <trkpt lat="44.74434" lon="5.44803">
        <ele>1250.8000488281</ele>
        <time>2022-05-29T08:18:59.000Z</time>
      </trkpt>
      <trkpt lat="44.74462" lon="5.44802">
        <ele>1249.4000244141</ele>
        <time>2022-05-29T08:19:12.000Z</time>
      </trkpt>
      <trkpt lat="44.74465" lon="5.44802">
        <ele>1248.8000488281</ele>
        <time>2022-05-29T08:19:13.000Z</time>
      </trkpt>
      <trkpt lat="44.74469" lon="5.44801">
        <ele>1247</ele>
        <time>2022-05-29T08:19:15.000Z</time>
      </trkpt>
      <trkpt lat="44.74471" lon="5.44799">
        <ele>1246</ele>
        <time>2022-05-29T08:19:16.000Z</time>
      </trkpt>
      <trkpt lat="44.74471" lon="5.44798">
        <ele>1245.1999511719</ele>
        <time>2022-05-29T08:19:17.000Z</time>
      </trkpt>
      <trkpt lat="44.74472" lon="5.44796">
        <ele>1244.4000244141</ele>
        <time>2022-05-29T08:19:18.000Z</time>
      </trkpt>
      <trkpt lat="44.74472" lon="5.44795">
        <ele>1243.8000488281</ele>
        <time>2022-05-29T08:19:19.000Z</time>
      </trkpt>
      <trkpt lat="44.74473" lon="5.44794">
        <ele>1243.4000244141</ele>
        <time>2022-05-29T08:19:20.000Z</time>
      </trkpt>
      <trkpt lat="44.74474" lon="5.44794">
        <ele>1243</ele>
        <time>2022-05-29T08:19:21.000Z</time>
      </trkpt>
      <trkpt lat="44.74476" lon="5.44795">
        <ele>1242.8000488281</ele>
        <time>2022-05-29T08:19:22.000Z</time>
      </trkpt>
      <trkpt lat="44.74482" lon="5.44795">
        <ele>1241</ele>
        <time>2022-05-29T08:19:27.000Z</time>
      </trkpt>
      <trkpt lat="44.74483" lon="5.44795">
        <ele>1240.5999755859</ele>
        <time>2022-05-29T08:19:28.000Z</time>
      </trkpt>
      <trkpt lat="44.74485" lon="5.44795">
        <ele>1240</ele>
        <time>2022-05-29T08:19:30.000Z</time>
      </trkpt>
      <trkpt lat="44.74485" lon="5.44794">
        <ele>1240</ele>
        <time>2022-05-29T08:19:31.000Z</time>
      </trkpt>
      <trkpt lat="44.74486" lon="5.44795">
        <ele>1240</ele>
        <time>2022-05-29T08:19:33.000Z</time>
      </trkpt>
      <trkpt lat="44.74487" lon="5.44797">
        <ele>1240</ele>
        <time>2022-05-29T08:19:36.000Z</time>
      </trkpt>
      <trkpt lat="44.74488" lon="5.44797">
        <ele>1239.8000488281</ele>
        <time>2022-05-29T08:19:37.000Z</time>
      </trkpt>
      <trkpt lat="44.74495" lon="5.44796">
        <ele>1237.5999755859</ele>
        <time>2022-05-29T08:19:41.000Z</time>
      </trkpt>
      <trkpt lat="44.74497" lon="5.44795">
        <ele>1236.5999755859</ele>
        <time>2022-05-29T08:19:42.000Z</time>
      </trkpt>
      <trkpt lat="44.74498" lon="5.44796">
        <ele>1236.4000244141</ele>
        <time>2022-05-29T08:19:43.000Z</time>
      </trkpt>
      <trkpt lat="44.74502" lon="5.44796">
        <ele>1235.5999755859</ele>
        <time>2022-05-29T08:19:45.000Z</time>
      </trkpt>
      <trkpt lat="44.74508" lon="5.44803">
        <ele>1236.1999511719</ele>
        <time>2022-05-29T08:20:01.000Z</time>
      </trkpt>
      <trkpt lat="44.74515" lon="5.44803">
        <ele>1234.1999511719</ele>
        <time>2022-05-29T08:20:07.000Z</time>
      </trkpt>
      <trkpt lat="44.74523" lon="5.44803">
        <ele>1231.8000488281</ele>
        <time>2022-05-29T08:20:11.000Z</time>
      </trkpt>
      <trkpt lat="44.74525" lon="5.44804">
        <ele>1231.1999511719</ele>
        <time>2022-05-29T08:20:16.000Z</time>
      </trkpt>
      <trkpt lat="44.74527" lon="5.44801">
        <ele>1230</ele>
        <time>2022-05-29T08:20:29.000Z</time>
      </trkpt>
      <trkpt lat="44.7453" lon="5.44797">
        <ele>1227.4000244141</ele>
        <time>2022-05-29T08:20:40.000Z</time>
      </trkpt>
      <trkpt lat="44.74533" lon="5.44795">
        <ele>1225.8000488281</ele>
        <time>2022-05-29T08:20:48.000Z</time>
      </trkpt>
      <trkpt lat="44.74528" lon="5.44797">
        <ele>1228</ele>
        <time>2022-05-29T08:20:55.000Z</time>
      </trkpt>
      <trkpt lat="44.74527" lon="5.44799">
        <ele>1229</ele>
        <time>2022-05-29T08:21:00.000Z</time>
      </trkpt>
      <trkpt lat="44.74527" lon="5.44796">
        <ele>1227.8000488281</ele>
        <time>2022-05-29T08:21:05.000Z</time>
      </trkpt>
      <trkpt lat="44.74526" lon="5.44791">
        <ele>1226.1999511719</ele>
        <time>2022-05-29T08:21:09.000Z</time>
      </trkpt>
      <trkpt lat="44.74531" lon="5.44782">
        <ele>1220.8000488281</ele>
        <time>2022-05-29T08:21:15.000Z</time>
      </trkpt>
      <trkpt lat="44.74538" lon="5.44783">
        <ele>1218.1999511719</ele>
        <time>2022-05-29T08:21:26.000Z</time>
      </trkpt>
      <trkpt lat="44.74537" lon="5.44782">
        <ele>1218.1999511719</ele>
        <time>2022-05-29T08:21:30.000Z</time>
      </trkpt>
      <trkpt lat="44.74538" lon="5.44787">
        <ele>1220</ele>
        <time>2022-05-29T08:21:43.000Z</time>
      </trkpt>
      <trkpt lat="44.7454" lon="5.44808">
        <ele>1228</ele>
        <time>2022-05-29T08:22:01.000Z</time>
      </trkpt>
      <trkpt lat="44.74551" lon="5.4482">
        <ele>1226.8000488281</ele>
        <time>2022-05-29T08:22:25.000Z</time>
      </trkpt>
      <trkpt lat="44.74566" lon="5.44833">
        <ele>1225</ele>
        <time>2022-05-29T08:22:38.000Z</time>
      </trkpt>
      <trkpt lat="44.74568" lon="5.44834">
        <ele>1224.5999755859</ele>
        <time>2022-05-29T08:22:39.000Z</time>
      </trkpt>
      <trkpt lat="44.74575" lon="5.44838">
        <ele>1223</ele>
        <time>2022-05-29T08:22:43.000Z</time>
      </trkpt>
      <trkpt lat="44.74587" lon="5.44843">
        <ele>1219.1999511719</ele>
        <time>2022-05-29T08:22:50.000Z</time>
      </trkpt>
      <trkpt lat="44.74609" lon="5.44839">
        <ele>1209</ele>
        <time>2022-05-29T08:23:18.000Z</time>
      </trkpt>
      <trkpt lat="44.74618" lon="5.44826">
        <ele>1201</ele>
        <time>2022-05-29T08:24:48.000Z</time>
      </trkpt>
      <trkpt lat="44.74615" lon="5.44823">
        <ele>1201.4000244141</ele>
        <time>2022-05-29T08:24:58.000Z</time>
      </trkpt>
      <trkpt lat="44.74612" lon="5.44823">
        <ele>1202.1999511719</ele>
        <time>2022-05-29T08:25:02.000Z</time>
      </trkpt>
      <trkpt lat="44.74608" lon="5.44824">
        <ele>1204.1999511719</ele>
        <time>2022-05-29T08:25:10.000Z</time>
      </trkpt>
      <trkpt lat="44.74604" lon="5.44823">
        <ele>1205.4000244141</ele>
        <time>2022-05-29T08:25:14.000Z</time>
      </trkpt>
      <trkpt lat="44.74604" lon="5.44823">
        <ele>1205.5999755859</ele>
        <time>2022-05-29T08:25:20.000Z</time>
      </trkpt>
      <trkpt lat="44.74607" lon="5.44825">
        <ele>1205</ele>
        <time>2022-05-29T08:25:29.000Z</time>
      </trkpt>
      <trkpt lat="44.74609" lon="5.44822">
        <ele>1203.1999511719</ele>
        <time>2022-05-29T08:25:41.000Z</time>
      </trkpt>
      <trkpt lat="44.74619" lon="5.44824">
        <ele>1199.8000488281</ele>
        <time>2022-05-29T08:25:54.000Z</time>
      </trkpt>
      <trkpt lat="44.7462" lon="5.44823">
        <ele>1199</ele>
        <time>2022-05-29T08:25:57.000Z</time>
      </trkpt>
      <trkpt lat="44.74621" lon="5.44823">
        <ele>1198.8000488281</ele>
        <time>2022-05-29T08:25:58.000Z</time>
      </trkpt>
      <trkpt lat="44.74622" lon="5.44823">
        <ele>1198.5999755859</ele>
        <time>2022-05-29T08:26:01.000Z</time>
      </trkpt>
      <trkpt lat="44.74621" lon="5.44822">
        <ele>1198.4000244141</ele>
        <time>2022-05-29T08:26:03.000Z</time>
      </trkpt>
      <trkpt lat="44.7462" lon="5.44822">
        <ele>1198.8000488281</ele>
        <time>2022-05-29T08:26:05.000Z</time>
      </trkpt>
      <trkpt lat="44.7462" lon="5.44823">
        <ele>1199</ele>
        <time>2022-05-29T08:26:06.000Z</time>
      </trkpt>
      <trkpt lat="44.7462" lon="5.44824">
        <ele>1199.4000244141</ele>
        <time>2022-05-29T08:26:07.000Z</time>
      </trkpt>
      <trkpt lat="44.74621" lon="5.44827">
        <ele>1200</ele>
        <time>2022-05-29T08:26:12.000Z</time>
      </trkpt>
      <trkpt lat="44.7462" lon="5.44828">
        <ele>1200.5999755859</ele>
        <time>2022-05-29T08:26:14.000Z</time>
      </trkpt>
      <trkpt lat="44.7462" lon="5.44828">
        <ele>1200.8000488281</ele>
        <time>2022-05-29T08:26:15.000Z</time>
      </trkpt>
      <trkpt lat="44.7462" lon="5.44828">
        <ele>1200.8000488281</ele>
        <time>2022-05-29T08:26:20.000Z</time>
      </trkpt>
      <trkpt lat="44.74622" lon="5.44829">
        <ele>1200.4000244141</ele>
        <time>2022-05-29T08:26:37.000Z</time>
      </trkpt>
      <trkpt lat="44.74616" lon="5.44826">
        <ele>1201.8000488281</ele>
        <time>2022-05-29T08:26:55.000Z</time>
      </trkpt>
      <trkpt lat="44.74613" lon="5.44824">
        <ele>1202.1999511719</ele>
        <time>2022-05-29T08:27:03.000Z</time>
      </trkpt>
      <trkpt lat="44.74615" lon="5.44827">
        <ele>1202.4000244141</ele>
        <time>2022-05-29T08:27:11.000Z</time>
      </trkpt>
      <trkpt lat="44.74618" lon="5.44829">
        <ele>1202</ele>
        <time>2022-05-29T08:27:19.000Z</time>
      </trkpt>
      <trkpt lat="44.74616" lon="5.44827">
        <ele>1202.1999511719</ele>
        <time>2022-05-29T08:27:32.000Z</time>
      </trkpt>
      <trkpt lat="44.74617" lon="5.44828">
        <ele>1202</ele>
        <time>2022-05-29T08:27:42.000Z</time>
      </trkpt>
      <trkpt lat="44.74617" lon="5.4483">
        <ele>1202.5999755859</ele>
        <time>2022-05-29T08:27:50.000Z</time>
      </trkpt>
      <trkpt lat="44.74616" lon="5.44823">
        <ele>1201</ele>
        <time>2022-05-29T08:28:01.000Z</time>
      </trkpt>
      <trkpt lat="44.74615" lon="5.44822">
        <ele>1200.8000488281</ele>
        <time>2022-05-29T08:28:48.000Z</time>
      </trkpt>
      <trkpt lat="44.74611" lon="5.44821">
        <ele>1202.1999511719</ele>
        <time>2022-05-29T08:29:56.000Z</time>
      </trkpt>
      <trkpt lat="44.74615" lon="5.44816">
        <ele>1199</ele>
        <time>2022-05-29T08:30:22.000Z</time>
      </trkpt>
      <trkpt lat="44.74615" lon="5.44816">
        <ele>1199.1999511719</ele>
        <time>2022-05-29T08:30:46.000Z</time>
      </trkpt>
      <trkpt lat="44.74612" lon="5.44836">
        <ele>1206.8000488281</ele>
        <time>2022-05-29T08:31:20.000Z</time>
      </trkpt>
      <trkpt lat="44.74614" lon="5.44831">
        <ele>1204.1999511719</ele>
        <time>2022-05-29T08:32:06.000Z</time>
      </trkpt>
      <trkpt lat="44.74621" lon="5.44828">
        <ele>1200.1999511719</ele>
        <time>2022-05-29T08:32:45.000Z</time>
      </trkpt>
      <trkpt lat="44.74621" lon="5.44825">
        <ele>1199.4000244141</ele>
        <time>2022-05-29T08:32:51.000Z</time>
      </trkpt>
      <trkpt lat="44.7462" lon="5.44824">
        <ele>1199.5999755859</ele>
        <time>2022-05-29T08:32:53.000Z</time>
      </trkpt>
      <trkpt lat="44.74619" lon="5.44824">
        <ele>1199.8000488281</ele>
        <time>2022-05-29T08:32:54.000Z</time>
      </trkpt>
      <trkpt lat="44.74624" lon="5.44824">
        <ele>1198.8000488281</ele>
        <time>2022-05-29T08:33:01.000Z</time>
      </trkpt>
      <trkpt lat="44.74626" lon="5.4482">
        <ele>1197.4000244141</ele>
        <time>2022-05-29T08:33:04.000Z</time>
      </trkpt>
      <trkpt lat="44.74624" lon="5.44815">
        <ele>1196</ele>
        <time>2022-05-29T08:33:10.000Z</time>
      </trkpt>
      <trkpt lat="44.74618" lon="5.44814">
        <ele>1197.1999511719</ele>
        <time>2022-05-29T08:33:24.000Z</time>
      </trkpt>
      <trkpt lat="44.7462" lon="5.44821">
        <ele>1198.4000244141</ele>
        <time>2022-05-29T08:33:35.000Z</time>
      </trkpt>
      <trkpt lat="44.74617" lon="5.44821">
        <ele>1199.5999755859</ele>
        <time>2022-05-29T08:33:43.000Z</time>
      </trkpt>
      <trkpt lat="44.74617" lon="5.44823">
        <ele>1200.4000244141</ele>
        <time>2022-05-29T08:33:49.000Z</time>
      </trkpt>
      <trkpt lat="44.74611" lon="5.44824">
        <ele>1203</ele>
        <time>2022-05-29T08:34:04.000Z</time>
      </trkpt>
      <trkpt lat="44.74615" lon="5.44828">
        <ele>1202.5999755859</ele>
        <time>2022-05-29T08:34:24.000Z</time>
      </trkpt>
      <trkpt lat="44.74616" lon="5.44832">
        <ele>1203.5999755859</ele>
        <time>2022-05-29T08:34:58.000Z</time>
      </trkpt>
      <trkpt lat="44.74615" lon="5.44831">
        <ele>1203.8000488281</ele>
        <time>2022-05-29T08:35:03.000Z</time>
      </trkpt>
      <trkpt lat="44.74616" lon="5.4483">
        <ele>1203.1999511719</ele>
        <time>2022-05-29T08:35:08.000Z</time>
      </trkpt>
      <trkpt lat="44.74617" lon="5.44825">
        <ele>1200.8000488281</ele>
        <time>2022-05-29T08:35:14.000Z</time>
      </trkpt>
      <trkpt lat="44.74617" lon="5.44825">
        <ele>1200.8000488281</ele>
        <time>2022-05-29T08:35:15.000Z</time>
      </trkpt>
      <trkpt lat="44.74617" lon="5.44825">
        <ele>1201.1999511719</ele>
        <time>2022-05-29T08:35:23.000Z</time>
      </trkpt>
      <trkpt lat="44.74615" lon="5.44826">
        <ele>1202</ele>
        <time>2022-05-29T08:35:32.000Z</time>
      </trkpt>
      <trkpt lat="44.74612" lon="5.44827">
        <ele>1203.8000488281</ele>
        <time>2022-05-29T08:35:43.000Z</time>
      </trkpt>
      <trkpt lat="44.7461" lon="5.44824">
        <ele>1203.8000488281</ele>
        <time>2022-05-29T08:35:51.000Z</time>
      </trkpt>
      <trkpt lat="44.74611" lon="5.44827">
        <ele>1204</ele>
        <time>2022-05-29T08:35:58.000Z</time>
      </trkpt>
      <trkpt lat="44.74612" lon="5.44817">
        <ele>1200.8000488281</ele>
        <time>2022-05-29T08:36:09.000Z</time>
      </trkpt>
      <trkpt lat="44.7462" lon="5.4479">
        <ele>1188</ele>
        <time>2022-05-29T08:36:30.000Z</time>
      </trkpt>
      <trkpt lat="44.74622" lon="5.4478">
        <ele>1184</ele>
        <time>2022-05-29T08:36:38.000Z</time>
      </trkpt>
      <trkpt lat="44.74627" lon="5.44776">
        <ele>1181.5999755859</ele>
        <time>2022-05-29T08:36:43.000Z</time>
      </trkpt>
      <trkpt lat="44.74671" lon="5.44775">
        <ele>1175.5999755859</ele>
        <time>2022-05-29T08:37:18.000Z</time>
      </trkpt>
      <trkpt lat="44.74674" lon="5.44774">
        <ele>1175</ele>
        <time>2022-05-29T08:37:20.000Z</time>
      </trkpt>
      <trkpt lat="44.7469" lon="5.4477">
        <ele>1169.5999755859</ele>
        <time>2022-05-29T08:37:34.000Z</time>
      </trkpt>
      <trkpt lat="44.74693" lon="5.4477">
        <ele>1169</ele>
        <time>2022-05-29T08:37:36.000Z</time>
      </trkpt>
      <trkpt lat="44.74695" lon="5.44769">
        <ele>1168.1999511719</ele>
        <time>2022-05-29T08:37:37.000Z</time>
      </trkpt>
      <trkpt lat="44.74696" lon="5.44769">
        <ele>1167.5999755859</ele>
        <time>2022-05-29T08:37:38.000Z</time>
      </trkpt>
      <trkpt lat="44.74699" lon="5.44768">
        <ele>1166.5999755859</ele>
        <time>2022-05-29T08:37:40.000Z</time>
      </trkpt>
      <trkpt lat="44.747" lon="5.44768">
        <ele>1166.4000244141</ele>
        <time>2022-05-29T08:37:41.000Z</time>
      </trkpt>
      <trkpt lat="44.747" lon="5.44767">
        <ele>1166.1999511719</ele>
        <time>2022-05-29T08:37:44.000Z</time>
      </trkpt>
      <trkpt lat="44.74702" lon="5.44768">
        <ele>1165.8000488281</ele>
        <time>2022-05-29T08:37:48.000Z</time>
      </trkpt>
      <trkpt lat="44.74703" lon="5.44767">
        <ele>1165.1999511719</ele>
        <time>2022-05-29T08:37:49.000Z</time>
      </trkpt>
      <trkpt lat="44.74706" lon="5.44766">
        <ele>1164.1999511719</ele>
        <time>2022-05-29T08:37:51.000Z</time>
      </trkpt>
      <trkpt lat="44.74707" lon="5.44766">
        <ele>1163.5999755859</ele>
        <time>2022-05-29T08:37:52.000Z</time>
      </trkpt>
      <trkpt lat="44.74715" lon="5.44765">
        <ele>1161.1999511719</ele>
        <time>2022-05-29T08:37:58.000Z</time>
      </trkpt>
      <trkpt lat="44.74716" lon="5.44765">
        <ele>1161.1999511719</ele>
        <time>2022-05-29T08:37:59.000Z</time>
      </trkpt>
      <trkpt lat="44.74723" lon="5.44769">
        <ele>1161.1999511719</ele>
        <time>2022-05-29T08:38:08.000Z</time>
      </trkpt>
      <trkpt lat="44.74724" lon="5.44769">
        <ele>1160.8000488281</ele>
        <time>2022-05-29T08:38:09.000Z</time>
      </trkpt>
      <trkpt lat="44.74729" lon="5.44764">
        <ele>1157.1999511719</ele>
        <time>2022-05-29T08:38:19.000Z</time>
      </trkpt>
      <trkpt lat="44.7473" lon="5.44763">
        <ele>1156.8000488281</ele>
        <time>2022-05-29T08:38:20.000Z</time>
      </trkpt>
      <trkpt lat="44.74739" lon="5.44761">
        <ele>1153.1999511719</ele>
        <time>2022-05-29T08:38:34.000Z</time>
      </trkpt>
      <trkpt lat="44.7474" lon="5.44759">
        <ele>1152.4000244141</ele>
        <time>2022-05-29T08:38:35.000Z</time>
      </trkpt>
      <trkpt lat="44.74747" lon="5.44758">
        <ele>1150.1999511719</ele>
        <time>2022-05-29T08:38:44.000Z</time>
      </trkpt>
      <trkpt lat="44.74749" lon="5.4476">
        <ele>1150.4000244141</ele>
        <time>2022-05-29T08:38:53.000Z</time>
      </trkpt>
      <trkpt lat="44.74752" lon="5.44764">
        <ele>1151.4000244141</ele>
        <time>2022-05-29T08:39:13.000Z</time>
      </trkpt>
      <trkpt lat="44.7475" lon="5.44759">
        <ele>1150</ele>
        <time>2022-05-29T08:39:28.000Z</time>
      </trkpt>
      <trkpt lat="44.74749" lon="5.44757">
        <ele>1149.1999511719</ele>
        <time>2022-05-29T08:39:37.000Z</time>
      </trkpt>
      <trkpt lat="44.74748" lon="5.44755">
        <ele>1148.8000488281</ele>
        <time>2022-05-29T08:39:43.000Z</time>
      </trkpt>
      <trkpt lat="44.74748" lon="5.44756">
        <ele>1149</ele>
        <time>2022-05-29T08:39:51.000Z</time>
      </trkpt>
      <trkpt lat="44.74749" lon="5.44758">
        <ele>1149.4000244141</ele>
        <time>2022-05-29T08:39:57.000Z</time>
      </trkpt>
      <trkpt lat="44.74752" lon="5.44762">
        <ele>1150.8000488281</ele>
        <time>2022-05-29T08:40:06.000Z</time>
      </trkpt>
      <trkpt lat="44.74756" lon="5.44763">
        <ele>1150.1999511719</ele>
        <time>2022-05-29T08:40:10.000Z</time>
      </trkpt>
      <trkpt lat="44.7476" lon="5.44761">
        <ele>1149</ele>
        <time>2022-05-29T08:40:13.000Z</time>
      </trkpt>
      <trkpt lat="44.74762" lon="5.44766">
        <ele>1150.4000244141</ele>
        <time>2022-05-29T08:40:16.000Z</time>
      </trkpt>
      <trkpt lat="44.74767" lon="5.44764">
        <ele>1148.8000488281</ele>
        <time>2022-05-29T08:40:21.000Z</time>
      </trkpt>
      <trkpt lat="44.7477" lon="5.44765">
        <ele>1148.4000244141</ele>
        <time>2022-05-29T08:40:25.000Z</time>
      </trkpt>
      <trkpt lat="44.74777" lon="5.44773">
        <ele>1150.4000244141</ele>
        <time>2022-05-29T08:40:31.000Z</time>
      </trkpt>
      <trkpt lat="44.74781" lon="5.44778">
        <ele>1151.5999755859</ele>
        <time>2022-05-29T08:40:34.000Z</time>
      </trkpt>
      <trkpt lat="44.74784" lon="5.4478">
        <ele>1152.1999511719</ele>
        <time>2022-05-29T08:40:36.000Z</time>
      </trkpt>
      <trkpt lat="44.74784" lon="5.44782">
        <ele>1152.5999755859</ele>
        <time>2022-05-29T08:40:37.000Z</time>
      </trkpt>
      <trkpt lat="44.74785" lon="5.44783">
        <ele>1152.8000488281</ele>
        <time>2022-05-29T08:40:38.000Z</time>
      </trkpt>
      <trkpt lat="44.74787" lon="5.44786">
        <ele>1154</ele>
        <time>2022-05-29T08:40:41.000Z</time>
      </trkpt>
      <trkpt lat="44.74789" lon="5.4479">
        <ele>1154.8000488281</ele>
        <time>2022-05-29T08:40:43.000Z</time>
      </trkpt>
      <trkpt lat="44.74789" lon="5.44791">
        <ele>1155</ele>
        <time>2022-05-29T08:40:44.000Z</time>
      </trkpt>
      <trkpt lat="44.7479" lon="5.44792">
        <ele>1155.1999511719</ele>
        <time>2022-05-29T08:40:45.000Z</time>
      </trkpt>
      <trkpt lat="44.74797" lon="5.44798">
        <ele>1154</ele>
        <time>2022-05-29T08:40:50.000Z</time>
      </trkpt>
      <trkpt lat="44.74802" lon="5.44801">
        <ele>1152.8000488281</ele>
        <time>2022-05-29T08:40:53.000Z</time>
      </trkpt>
      <trkpt lat="44.74804" lon="5.44803">
        <ele>1152.8000488281</ele>
        <time>2022-05-29T08:40:54.000Z</time>
      </trkpt>
      <trkpt lat="44.74805" lon="5.44805">
        <ele>1152.8000488281</ele>
        <time>2022-05-29T08:40:55.000Z</time>
      </trkpt>
      <trkpt lat="44.74807" lon="5.44807">
        <ele>1152.4000244141</ele>
        <time>2022-05-29T08:40:56.000Z</time>
      </trkpt>
      <trkpt lat="44.74811" lon="5.4481">
        <ele>1151.4000244141</ele>
        <time>2022-05-29T08:40:58.000Z</time>
      </trkpt>
      <trkpt lat="44.74813" lon="5.44811">
        <ele>1150.5999755859</ele>
        <time>2022-05-29T08:40:59.000Z</time>
      </trkpt>
      <trkpt lat="44.74815" lon="5.44812">
        <ele>1150.1999511719</ele>
        <time>2022-05-29T08:41:00.000Z</time>
      </trkpt>
      <trkpt lat="44.74828" lon="5.4482">
        <ele>1146.4000244141</ele>
        <time>2022-05-29T08:41:07.000Z</time>
      </trkpt>
      <trkpt lat="44.74835" lon="5.44821">
        <ele>1143.4000244141</ele>
        <time>2022-05-29T08:41:11.000Z</time>
      </trkpt>
      <trkpt lat="44.74839" lon="5.44826">
        <ele>1143</ele>
        <time>2022-05-29T08:41:15.000Z</time>
      </trkpt>
      <trkpt lat="44.74849" lon="5.44845">
        <ele>1143.8000488281</ele>
        <time>2022-05-29T08:41:27.000Z</time>
      </trkpt>
      <trkpt lat="44.74852" lon="5.4485">
        <ele>1143.8000488281</ele>
        <time>2022-05-29T08:41:32.000Z</time>
      </trkpt>
      <trkpt lat="44.74854" lon="5.44855">
        <ele>1144.1999511719</ele>
        <time>2022-05-29T08:41:35.000Z</time>
      </trkpt>
      <trkpt lat="44.74856" lon="5.44863">
        <ele>1145.1999511719</ele>
        <time>2022-05-29T08:41:44.000Z</time>
      </trkpt>
      <trkpt lat="44.74855" lon="5.44862">
        <ele>1145.5999755859</ele>
        <time>2022-05-29T08:41:48.000Z</time>
      </trkpt>
      <trkpt lat="44.74855" lon="5.44861">
        <ele>1145</ele>
        <time>2022-05-29T08:41:53.000Z</time>
      </trkpt>
      <trkpt lat="44.74857" lon="5.44867">
        <ele>1146.1999511719</ele>
        <time>2022-05-29T08:42:00.000Z</time>
      </trkpt>
      <trkpt lat="44.74857" lon="5.44871">
        <ele>1147</ele>
        <time>2022-05-29T08:42:03.000Z</time>
      </trkpt>
      <trkpt lat="44.74861" lon="5.44875">
        <ele>1146.5999755859</ele>
        <time>2022-05-29T08:42:09.000Z</time>
      </trkpt>
      <trkpt lat="44.74863" lon="5.44876">
        <ele>1146</ele>
        <time>2022-05-29T08:42:13.000Z</time>
      </trkpt>
      <trkpt lat="44.74869" lon="5.4488">
        <ele>1143.8000488281</ele>
        <time>2022-05-29T08:42:19.000Z</time>
      </trkpt>
      <trkpt lat="44.74878" lon="5.44879">
        <ele>1139.8000488281</ele>
        <time>2022-05-29T08:42:36.000Z</time>
      </trkpt>
      <trkpt lat="44.74886" lon="5.44869">
        <ele>1133.4000244141</ele>
        <time>2022-05-29T08:42:48.000Z</time>
      </trkpt>
      <trkpt lat="44.74894" lon="5.44869">
        <ele>1129.8000488281</ele>
        <time>2022-05-29T08:42:59.000Z</time>
      </trkpt>
      <trkpt lat="44.74902" lon="5.44885">
        <ele>1130.5999755859</ele>
        <time>2022-05-29T08:43:41.000Z</time>
      </trkpt>
      <trkpt lat="44.74906" lon="5.44886">
        <ele>1129.5999755859</ele>
        <time>2022-05-29T08:43:47.000Z</time>
      </trkpt>
      <trkpt lat="44.74906" lon="5.44882">
        <ele>1127.5999755859</ele>
        <time>2022-05-29T08:43:59.000Z</time>
      </trkpt>
      <trkpt lat="44.74906" lon="5.44882">
        <ele>1127.5999755859</ele>
        <time>2022-05-29T08:44:00.000Z</time>
      </trkpt>
      <trkpt lat="44.74903" lon="5.44881">
        <ele>1128.8000488281</ele>
        <time>2022-05-29T08:44:09.000Z</time>
      </trkpt>
      <trkpt lat="44.74909" lon="5.44881">
        <ele>1126.5999755859</ele>
        <time>2022-05-29T08:44:21.000Z</time>
      </trkpt>
      <trkpt lat="44.74911" lon="5.44882">
        <ele>1125.5999755859</ele>
        <time>2022-05-29T08:44:23.000Z</time>
      </trkpt>
      <trkpt lat="44.74914" lon="5.44882">
        <ele>1124.4000244141</ele>
        <time>2022-05-29T08:44:28.000Z</time>
      </trkpt>
      <trkpt lat="44.74923" lon="5.44874">
        <ele>1118</ele>
        <time>2022-05-29T08:44:36.000Z</time>
      </trkpt>
      <trkpt lat="44.74929" lon="5.4486">
        <ele>1111.5999755859</ele>
        <time>2022-05-29T08:44:45.000Z</time>
      </trkpt>
      <trkpt lat="44.74929" lon="5.44859">
        <ele>1111.4000244141</ele>
        <time>2022-05-29T08:44:49.000Z</time>
      </trkpt>
      <trkpt lat="44.74934" lon="5.44846">
        <ele>1104.8000488281</ele>
        <time>2022-05-29T08:45:46.000Z</time>
      </trkpt>
      <trkpt lat="44.74936" lon="5.44844">
        <ele>1103.1999511719</ele>
        <time>2022-05-29T08:47:15.000Z</time>
      </trkpt>
      <trkpt lat="44.74936" lon="5.44835">
        <ele>1100.1999511719</ele>
        <time>2022-05-29T08:47:26.000Z</time>
      </trkpt>
      <trkpt lat="44.74939" lon="5.44833">
        <ele>1098.4000244141</ele>
        <time>2022-05-29T08:47:29.000Z</time>
      </trkpt>
      <trkpt lat="44.74943" lon="5.44823">
        <ele>1092.8000488281</ele>
        <time>2022-05-29T08:47:39.000Z</time>
      </trkpt>
      <trkpt lat="44.74943" lon="5.44821">
        <ele>1092.4000244141</ele>
        <time>2022-05-29T08:47:40.000Z</time>
      </trkpt>
      <trkpt lat="44.74944" lon="5.44812">
        <ele>1089.1999511719</ele>
        <time>2022-05-29T08:47:46.000Z</time>
      </trkpt>
      <trkpt lat="44.74948" lon="5.44801">
        <ele>1083.8000488281</ele>
        <time>2022-05-29T08:47:54.000Z</time>
      </trkpt>
      <trkpt lat="44.74949" lon="5.448">
        <ele>1083</ele>
        <time>2022-05-29T08:47:55.000Z</time>
      </trkpt>
      <trkpt lat="44.74951" lon="5.44798">
        <ele>1081.4000244141</ele>
        <time>2022-05-29T08:47:57.000Z</time>
      </trkpt>
      <trkpt lat="44.74954" lon="5.44794">
        <ele>1078.5999755859</ele>
        <time>2022-05-29T08:48:01.000Z</time>
      </trkpt>
      <trkpt lat="44.7496" lon="5.44785">
        <ele>1077.8000488281</ele>
        <time>2022-05-29T08:48:07.000Z</time>
      </trkpt>
      <trkpt lat="44.74963" lon="5.44783">
        <ele>1078</ele>
        <time>2022-05-29T08:48:09.000Z</time>
      </trkpt>
      <trkpt lat="44.74966" lon="5.44779">
        <ele>1077.5999755859</ele>
        <time>2022-05-29T08:48:12.000Z</time>
      </trkpt>
      <trkpt lat="44.74971" lon="5.44767">
        <ele>1075.8000488281</ele>
        <time>2022-05-29T08:48:20.000Z</time>
      </trkpt>
      <trkpt lat="44.74971" lon="5.44751">
        <ele>1071.4000244141</ele>
        <time>2022-05-29T08:48:34.000Z</time>
      </trkpt>
      <trkpt lat="44.74973" lon="5.44741">
        <ele>1069.1999511719</ele>
        <time>2022-05-29T08:48:44.000Z</time>
      </trkpt>
      <trkpt lat="44.74978" lon="5.44723">
        <ele>1065.1999511719</ele>
        <time>2022-05-29T08:49:01.000Z</time>
      </trkpt>
      <trkpt lat="44.74981" lon="5.44715">
        <ele>1063.4000244141</ele>
        <time>2022-05-29T08:49:08.000Z</time>
      </trkpt>
      <trkpt lat="44.74983" lon="5.44709">
        <ele>1062</ele>
        <time>2022-05-29T08:49:11.000Z</time>
      </trkpt>
      <trkpt lat="44.74989" lon="5.44687">
        <ele>1056.5999755859</ele>
        <time>2022-05-29T08:49:25.000Z</time>
      </trkpt>
      <trkpt lat="44.74991" lon="5.44677">
        <ele>1054</ele>
        <time>2022-05-29T08:49:34.000Z</time>
      </trkpt>
      <trkpt lat="44.74992" lon="5.44664">
        <ele>1050.5999755859</ele>
        <time>2022-05-29T08:49:45.000Z</time>
      </trkpt>
      <trkpt lat="44.7499" lon="5.44655">
        <ele>1047.8000488281</ele>
        <time>2022-05-29T08:49:51.000Z</time>
      </trkpt>
      <trkpt lat="44.74992" lon="5.4465">
        <ele>1047</ele>
        <time>2022-05-29T08:49:55.000Z</time>
      </trkpt>
      <trkpt lat="44.74994" lon="5.44645">
        <ele>1046.4000244141</ele>
        <time>2022-05-29T08:49:58.000Z</time>
      </trkpt>
      <trkpt lat="44.75001" lon="5.44626">
        <ele>1042.5999755859</ele>
        <time>2022-05-29T08:50:09.000Z</time>
      </trkpt>
      <trkpt lat="44.75012" lon="5.44606">
        <ele>1037.4000244141</ele>
        <time>2022-05-29T08:50:27.000Z</time>
      </trkpt>
      <trkpt lat="44.75032" lon="5.44583">
        <ele>1037.8000488281</ele>
        <time>2022-05-29T08:50:52.000Z</time>
      </trkpt>
      <trkpt lat="44.75047" lon="5.44569">
        <ele>1039.8000488281</ele>
        <time>2022-05-29T08:51:08.000Z</time>
      </trkpt>
      <trkpt lat="44.75053" lon="5.44561">
        <ele>1039.5999755859</ele>
        <time>2022-05-29T08:51:16.000Z</time>
      </trkpt>
      <trkpt lat="44.75055" lon="5.44556">
        <ele>1038.4000244141</ele>
        <time>2022-05-29T08:51:19.000Z</time>
      </trkpt>
      <trkpt lat="44.7506" lon="5.4455">
        <ele>1038</ele>
        <time>2022-05-29T08:51:24.000Z</time>
      </trkpt>
      <trkpt lat="44.75065" lon="5.44544">
        <ele>1037.8000488281</ele>
        <time>2022-05-29T08:51:29.000Z</time>
      </trkpt>
      <trkpt lat="44.75069" lon="5.44538">
        <ele>1037.1999511719</ele>
        <time>2022-05-29T08:51:36.000Z</time>
      </trkpt>
      <trkpt lat="44.75079" lon="5.44526">
        <ele>1036.8000488281</ele>
        <time>2022-05-29T08:51:48.000Z</time>
      </trkpt>
      <trkpt lat="44.75088" lon="5.44515">
        <ele>1036.4000244141</ele>
        <time>2022-05-29T08:51:59.000Z</time>
      </trkpt>
      <trkpt lat="44.75097" lon="5.44503">
        <ele>1035.8000488281</ele>
        <time>2022-05-29T08:52:08.000Z</time>
      </trkpt>
      <trkpt lat="44.751" lon="5.44495">
        <ele>1034.4000244141</ele>
        <time>2022-05-29T08:52:12.000Z</time>
      </trkpt>
      <trkpt lat="44.75104" lon="5.44486">
        <ele>1033.1999511719</ele>
        <time>2022-05-29T08:52:18.000Z</time>
      </trkpt>
      <trkpt lat="44.75142" lon="5.44453">
        <ele>1032.4000244141</ele>
        <time>2022-05-29T08:52:44.000Z</time>
      </trkpt>
      <trkpt lat="44.75151" lon="5.44444">
        <ele>1031.1999511719</ele>
        <time>2022-05-29T08:52:54.000Z</time>
      </trkpt>
      <trkpt lat="44.75154" lon="5.44442">
        <ele>1030.8000488281</ele>
        <time>2022-05-29T08:52:57.000Z</time>
      </trkpt>
      <trkpt lat="44.75166" lon="5.44434">
        <ele>1030.4000244141</ele>
        <time>2022-05-29T08:53:20.000Z</time>
      </trkpt>
      <trkpt lat="44.75164" lon="5.44424">
        <ele>1027.1999511719</ele>
        <time>2022-05-29T08:53:39.000Z</time>
      </trkpt>
      <trkpt lat="44.75154" lon="5.44419">
        <ele>1024.1999511719</ele>
        <time>2022-05-29T08:53:52.000Z</time>
      </trkpt>
      <trkpt lat="44.75137" lon="5.44418">
        <ele>1021.4000244141</ele>
        <time>2022-05-29T08:54:05.000Z</time>
      </trkpt>
      <trkpt lat="44.75136" lon="5.44417">
        <ele>1021.200012207</ele>
        <time>2022-05-29T08:54:06.000Z</time>
      </trkpt>
      <trkpt lat="44.75135" lon="5.44417">
        <ele>1021</ele>
        <time>2022-05-29T08:54:07.000Z</time>
      </trkpt>
      <trkpt lat="44.75133" lon="5.44417">
        <ele>1020.799987793</ele>
        <time>2022-05-29T08:54:08.000Z</time>
      </trkpt>
      <trkpt lat="44.75111" lon="5.4442">
        <ele>1015.5999755859</ele>
        <time>2022-05-29T08:54:24.000Z</time>
      </trkpt>
      <trkpt lat="44.75067" lon="5.44435">
        <ele>1001.4000244141</ele>
        <time>2022-05-29T08:54:51.000Z</time>
      </trkpt>
      <trkpt lat="44.75049" lon="5.44457">
        <ele>1001.799987793</ele>
        <time>2022-05-29T08:55:02.000Z</time>
      </trkpt>
      <trkpt lat="44.75048" lon="5.44458">
        <ele>1001.5999755859</ele>
        <time>2022-05-29T08:55:03.000Z</time>
      </trkpt>
      <trkpt lat="44.75047" lon="5.44459">
        <ele>1001.4000244141</ele>
        <time>2022-05-29T08:55:04.000Z</time>
      </trkpt>
      <trkpt lat="44.75046" lon="5.4446">
        <ele>1001.4000244141</ele>
        <time>2022-05-29T08:55:05.000Z</time>
      </trkpt>
      <trkpt lat="44.75037" lon="5.4447">
        <ele>1001.4000244141</ele>
        <time>2022-05-29T08:55:16.000Z</time>
      </trkpt>
      <trkpt lat="44.75036" lon="5.44471">
        <ele>1001.200012207</ele>
        <time>2022-05-29T08:55:17.000Z</time>
      </trkpt>
      <trkpt lat="44.75031" lon="5.44473">
        <ele>999.79998779297</ele>
        <time>2022-05-29T08:55:19.000Z</time>
      </trkpt>
      <trkpt lat="44.75019" lon="5.44481">
        <ele>996.79998779297</ele>
        <time>2022-05-29T08:55:26.000Z</time>
      </trkpt>
      <trkpt lat="44.75002" lon="5.4449">
        <ele>992.40002441406</ele>
        <time>2022-05-29T08:55:39.000Z</time>
      </trkpt>
      <trkpt lat="44.74982" lon="5.44497">
        <ele>986.40002441406</ele>
        <time>2022-05-29T08:55:55.000Z</time>
      </trkpt>
      <trkpt lat="44.74965" lon="5.44508">
        <ele>984.20001220703</ele>
        <time>2022-05-29T08:56:10.000Z</time>
      </trkpt>
      <trkpt lat="44.7496" lon="5.44515">
        <ele>985.40002441406</ele>
        <time>2022-05-29T08:56:18.000Z</time>
      </trkpt>
      <trkpt lat="44.74957" lon="5.44521">
        <ele>986.59997558594</ele>
        <time>2022-05-29T08:56:22.000Z</time>
      </trkpt>
      <trkpt lat="44.74937" lon="5.44577">
        <ele>1006.799987793</ele>
        <time>2022-05-29T08:56:56.000Z</time>
      </trkpt>
      <trkpt lat="44.74934" lon="5.44582">
        <ele>1008.4000244141</ele>
        <time>2022-05-29T08:57:00.000Z</time>
      </trkpt>
      <trkpt lat="44.74932" lon="5.44588">
        <ele>1010.799987793</ele>
        <time>2022-05-29T08:57:05.000Z</time>
      </trkpt>
      <trkpt lat="44.74919" lon="5.44605">
        <ele>1018.200012207</ele>
        <time>2022-05-29T08:57:31.000Z</time>
      </trkpt>
      <trkpt lat="44.74915" lon="5.44603">
        <ele>1017.4000244141</ele>
        <time>2022-05-29T08:57:35.000Z</time>
      </trkpt>
      <trkpt lat="44.74879" lon="5.44563">
        <ele>997</ele>
        <time>2022-05-29T08:58:10.000Z</time>
      </trkpt>
      <trkpt lat="44.7486" lon="5.4456">
        <ele>996.20001220703</ele>
        <time>2022-05-29T08:58:31.000Z</time>
      </trkpt>
      <trkpt lat="44.7484" lon="5.4456">
        <ele>996.59997558594</ele>
        <time>2022-05-29T08:58:46.000Z</time>
      </trkpt>
      <trkpt lat="44.74834" lon="5.44562">
        <ele>997.59997558594</ele>
        <time>2022-05-29T08:58:52.000Z</time>
      </trkpt>
      <trkpt lat="44.74809" lon="5.44556">
        <ele>994.40002441406</ele>
        <time>2022-05-29T08:59:15.000Z</time>
      </trkpt>
      <trkpt lat="44.74793" lon="5.44546">
        <ele>988.20001220703</ele>
        <time>2022-05-29T08:59:58.000Z</time>
      </trkpt>
      <trkpt lat="44.74769" lon="5.44538">
        <ele>990</ele>
        <time>2022-05-29T09:00:25.000Z</time>
      </trkpt>
      <trkpt lat="44.74757" lon="5.4453">
        <ele>989.40002441406</ele>
        <time>2022-05-29T09:00:35.000Z</time>
      </trkpt>
      <trkpt lat="44.74738" lon="5.44534">
        <ele>998.40002441406</ele>
        <time>2022-05-29T09:00:53.000Z</time>
      </trkpt>
      <trkpt lat="44.74729" lon="5.44528">
        <ele>998</ele>
        <time>2022-05-29T09:01:03.000Z</time>
      </trkpt>
      <trkpt lat="44.74728" lon="5.44523">
        <ele>995.79998779297</ele>
        <time>2022-05-29T09:01:33.000Z</time>
      </trkpt>
      <trkpt lat="44.74737" lon="5.44517">
        <ele>989.40002441406</ele>
        <time>2022-05-29T09:02:05.000Z</time>
      </trkpt>
      <trkpt lat="44.74736" lon="5.44517">
        <ele>989.59997558594</ele>
        <time>2022-05-29T09:02:13.000Z</time>
      </trkpt>
      <trkpt lat="44.74734" lon="5.44517">
        <ele>990.40002441406</ele>
        <time>2022-05-29T09:02:26.000Z</time>
      </trkpt>
      <trkpt lat="44.74732" lon="5.4452">
        <ele>992.59997558594</ele>
        <time>2022-05-29T09:02:33.000Z</time>
      </trkpt>
      <trkpt lat="44.74731" lon="5.44519">
        <ele>992.59997558594</ele>
        <time>2022-05-29T09:02:39.000Z</time>
      </trkpt>
      <trkpt lat="44.7473" lon="5.44519">
        <ele>993</ele>
        <time>2022-05-29T09:02:44.000Z</time>
      </trkpt>
      <trkpt lat="44.74726" lon="5.44514">
        <ele>991</ele>
        <time>2022-05-29T09:02:58.000Z</time>
      </trkpt>
      <trkpt lat="44.74723" lon="5.44511">
        <ele>990.59997558594</ele>
        <time>2022-05-29T09:03:02.000Z</time>
      </trkpt>
      <trkpt lat="44.74718" lon="5.44504">
        <ele>988.59997558594</ele>
        <time>2022-05-29T09:03:07.000Z</time>
      </trkpt>
      <trkpt lat="44.74715" lon="5.44498">
        <ele>986.20001220703</ele>
        <time>2022-05-29T09:03:11.000Z</time>
      </trkpt>
      <trkpt lat="44.74713" lon="5.44497">
        <ele>985.59997558594</ele>
        <time>2022-05-29T09:03:12.000Z</time>
      </trkpt>
      <trkpt lat="44.74708" lon="5.44488">
        <ele>982.40002441406</ele>
        <time>2022-05-29T09:03:20.000Z</time>
      </trkpt>
      <trkpt lat="44.74706" lon="5.44486">
        <ele>982.20001220703</ele>
        <time>2022-05-29T09:03:22.000Z</time>
      </trkpt>
      <trkpt lat="44.74704" lon="5.44484">
        <ele>981.20001220703</ele>
        <time>2022-05-29T09:03:26.000Z</time>
      </trkpt>
      <trkpt lat="44.74703" lon="5.44483">
        <ele>981.40002441406</ele>
        <time>2022-05-29T09:03:27.000Z</time>
      </trkpt>
      <trkpt lat="44.74694" lon="5.44482">
        <ele>983</ele>
        <time>2022-05-29T09:03:36.000Z</time>
      </trkpt>
      <trkpt lat="44.74692" lon="5.4448">
        <ele>983.20001220703</ele>
        <time>2022-05-29T09:03:38.000Z</time>
      </trkpt>
      <trkpt lat="44.74684" lon="5.44478">
        <ele>984</ele>
        <time>2022-05-29T09:03:44.000Z</time>
      </trkpt>
      <trkpt lat="44.74677" lon="5.4447">
        <ele>981.79998779297</ele>
        <time>2022-05-29T09:03:51.000Z</time>
      </trkpt>
      <trkpt lat="44.74638" lon="5.44436">
        <ele>975.40002441406</ele>
        <time>2022-05-29T09:04:30.000Z</time>
      </trkpt>
      <trkpt lat="44.74637" lon="5.44435">
        <ele>975</ele>
        <time>2022-05-29T09:04:32.000Z</time>
      </trkpt>
      <trkpt lat="44.74636" lon="5.44434">
        <ele>974.79998779297</ele>
        <time>2022-05-29T09:04:33.000Z</time>
      </trkpt>
      <trkpt lat="44.74636" lon="5.44432">
        <ele>974.20001220703</ele>
        <time>2022-05-29T09:04:34.000Z</time>
      </trkpt>
      <trkpt lat="44.74635" lon="5.44431">
        <ele>973.59997558594</ele>
        <time>2022-05-29T09:04:35.000Z</time>
      </trkpt>
      <trkpt lat="44.74626" lon="5.4442">
        <ele>970.79998779297</ele>
        <time>2022-05-29T09:04:43.000Z</time>
      </trkpt>
      <trkpt lat="44.74624" lon="5.44419">
        <ele>971</ele>
        <time>2022-05-29T09:04:45.000Z</time>
      </trkpt>
      <trkpt lat="44.74611" lon="5.44416">
        <ele>976</ele>
        <time>2022-05-29T09:04:55.000Z</time>
      </trkpt>
      <trkpt lat="44.74608" lon="5.44416">
        <ele>978.20001220703</ele>
        <time>2022-05-29T09:04:59.000Z</time>
      </trkpt>
      <trkpt lat="44.74605" lon="5.44414">
        <ele>979.20001220703</ele>
        <time>2022-05-29T09:05:02.000Z</time>
      </trkpt>
      <trkpt lat="44.74602" lon="5.44413">
        <ele>980.20001220703</ele>
        <time>2022-05-29T09:05:06.000Z</time>
      </trkpt>
      <trkpt lat="44.74601" lon="5.44412">
        <ele>980.20001220703</ele>
        <time>2022-05-29T09:05:07.000Z</time>
      </trkpt>
      <trkpt lat="44.74597" lon="5.44407">
        <ele>980.59997558594</ele>
        <time>2022-05-29T09:05:12.000Z</time>
      </trkpt>
      <trkpt lat="44.74592" lon="5.44403">
        <ele>981.79998779297</ele>
        <time>2022-05-29T09:05:18.000Z</time>
      </trkpt>
      <trkpt lat="44.74586" lon="5.44408">
        <ele>987.40002441406</ele>
        <time>2022-05-29T09:05:30.000Z</time>
      </trkpt>
      <trkpt lat="44.74578" lon="5.44406">
        <ele>991.40002441406</ele>
        <time>2022-05-29T09:05:40.000Z</time>
      </trkpt>
      <trkpt lat="44.7457" lon="5.44402">
        <ele>994</ele>
        <time>2022-05-29T09:05:51.000Z</time>
      </trkpt>
      <trkpt lat="44.74571" lon="5.44399">
        <ele>992</ele>
        <time>2022-05-29T09:05:54.000Z</time>
      </trkpt>
      <trkpt lat="44.74563" lon="5.44387">
        <ele>990.40002441406</ele>
        <time>2022-05-29T09:06:26.000Z</time>
      </trkpt>
      <trkpt lat="44.7456" lon="5.44369">
        <ele>987.40002441406</ele>
        <time>2022-05-29T09:06:39.000Z</time>
      </trkpt>
      <trkpt lat="44.7456" lon="5.44366">
        <ele>986.40002441406</ele>
        <time>2022-05-29T09:06:41.000Z</time>
      </trkpt>
      <trkpt lat="44.74561" lon="5.44364">
        <ele>985.79998779297</ele>
        <time>2022-05-29T09:06:42.000Z</time>
      </trkpt>
      <trkpt lat="44.74561" lon="5.44363">
        <ele>985.40002441406</ele>
        <time>2022-05-29T09:06:43.000Z</time>
      </trkpt>
      <trkpt lat="44.7456" lon="5.44359">
        <ele>984.79998779297</ele>
        <time>2022-05-29T09:06:46.000Z</time>
      </trkpt>
      <trkpt lat="44.7456" lon="5.44357">
        <ele>984.59997558594</ele>
        <time>2022-05-29T09:06:47.000Z</time>
      </trkpt>
      <trkpt lat="44.74559" lon="5.44357">
        <ele>984.79998779297</ele>
        <time>2022-05-29T09:06:48.000Z</time>
      </trkpt>
      <trkpt lat="44.74558" lon="5.44355">
        <ele>984.79998779297</ele>
        <time>2022-05-29T09:06:49.000Z</time>
      </trkpt>
      <trkpt lat="44.74557" lon="5.4435">
        <ele>984.59997558594</ele>
        <time>2022-05-29T09:06:54.000Z</time>
      </trkpt>
      <trkpt lat="44.74557" lon="5.44339">
        <ele>982.20001220703</ele>
        <time>2022-05-29T09:06:59.000Z</time>
      </trkpt>
      <trkpt lat="44.74561" lon="5.44323">
        <ele>975.79998779297</ele>
        <time>2022-05-29T09:07:08.000Z</time>
      </trkpt>
      <trkpt lat="44.74551" lon="5.44261">
        <ele>958.40002441406</ele>
        <time>2022-05-29T09:07:56.000Z</time>
      </trkpt>
      <trkpt lat="44.74552" lon="5.44257">
        <ele>956</ele>
        <time>2022-05-29T09:08:12.000Z</time>
      </trkpt>
      <trkpt lat="44.7455" lon="5.44249">
        <ele>953.40002441406</ele>
        <time>2022-05-29T09:08:26.000Z</time>
      </trkpt>
      <trkpt lat="44.74531" lon="5.44212">
        <ele>944.79998779297</ele>
        <time>2022-05-29T09:09:02.000Z</time>
      </trkpt>
      <trkpt lat="44.74529" lon="5.44214">
        <ele>946.20001220703</ele>
        <time>2022-05-29T09:09:10.000Z</time>
      </trkpt>
      <trkpt lat="44.74529" lon="5.44222">
        <ele>950.59997558594</ele>
        <time>2022-05-29T09:09:23.000Z</time>
      </trkpt>
      <trkpt lat="44.74543" lon="5.44235">
        <ele>951.79998779297</ele>
        <time>2022-05-29T09:09:40.000Z</time>
      </trkpt>
      <trkpt lat="44.7457" lon="5.44243">
        <ele>937.40002441406</ele>
        <time>2022-05-29T09:10:02.000Z</time>
      </trkpt>
      <trkpt lat="44.74585" lon="5.44265">
        <ele>936.20001220703</ele>
        <time>2022-05-29T09:10:25.000Z</time>
      </trkpt>
      <trkpt lat="44.746" lon="5.44276">
        <ele>931</ele>
        <time>2022-05-29T09:11:06.000Z</time>
      </trkpt>
      <trkpt lat="44.74595" lon="5.44251">
        <ele>926.20001220703</ele>
        <time>2022-05-29T09:11:23.000Z</time>
      </trkpt>
      <trkpt lat="44.74593" lon="5.44234">
        <ele>922</ele>
        <time>2022-05-29T09:11:35.000Z</time>
      </trkpt>
      <trkpt lat="44.74587" lon="5.44224">
        <ele>922</ele>
        <time>2022-05-29T09:11:43.000Z</time>
      </trkpt>
      <trkpt lat="44.74582" lon="5.44211">
        <ele>919.40002441406</ele>
        <time>2022-05-29T09:11:55.000Z</time>
      </trkpt>
      <trkpt lat="44.7458" lon="5.44208">
        <ele>919</ele>
        <time>2022-05-29T09:11:59.000Z</time>
      </trkpt>
      <trkpt lat="44.74565" lon="5.44201">
        <ele>923</ele>
        <time>2022-05-29T09:12:20.000Z</time>
      </trkpt>
      <trkpt lat="44.74561" lon="5.44197">
        <ele>922.20001220703</ele>
        <time>2022-05-29T09:12:25.000Z</time>
      </trkpt>
      <trkpt lat="44.74543" lon="5.44159">
        <ele>909</ele>
        <time>2022-05-29T09:12:54.000Z</time>
      </trkpt>
      <trkpt lat="44.7458" lon="5.44189">
        <ele>906.59997558594</ele>
        <time>2022-05-29T09:13:33.000Z</time>
      </trkpt>
      <trkpt lat="44.74595" lon="5.44186">
        <ele>897.20001220703</ele>
        <time>2022-05-29T09:14:19.000Z</time>
      </trkpt>
      <trkpt lat="44.746" lon="5.4419">
        <ele>897</ele>
        <time>2022-05-29T09:14:26.000Z</time>
      </trkpt>
      <trkpt lat="44.74612" lon="5.44202">
        <ele>898</ele>
        <time>2022-05-29T09:14:38.000Z</time>
      </trkpt>
      <trkpt lat="44.74615" lon="5.44204">
        <ele>897.59997558594</ele>
        <time>2022-05-29T09:14:41.000Z</time>
      </trkpt>
      <trkpt lat="44.74621" lon="5.44212">
        <ele>899.20001220703</ele>
        <time>2022-05-29T09:14:50.000Z</time>
      </trkpt>
      <trkpt lat="44.74623" lon="5.44217">
        <ele>900.20001220703</ele>
        <time>2022-05-29T09:14:53.000Z</time>
      </trkpt>
      <trkpt lat="44.74625" lon="5.44224">
        <ele>901.40002441406</ele>
        <time>2022-05-29T09:14:57.000Z</time>
      </trkpt>
      <trkpt lat="44.74627" lon="5.44256">
        <ele>910.40002441406</ele>
        <time>2022-05-29T09:15:22.000Z</time>
      </trkpt>
      <trkpt lat="44.74642" lon="5.44291">
        <ele>913.59997558594</ele>
        <time>2022-05-29T09:16:26.000Z</time>
      </trkpt>
      <trkpt lat="44.74642" lon="5.44291">
        <ele>913.20001220703</ele>
        <time>2022-05-29T09:16:32.000Z</time>
      </trkpt>
      <trkpt lat="44.7464" lon="5.4429">
        <ele>914.20001220703</ele>
        <time>2022-05-29T09:16:39.000Z</time>
      </trkpt>
      <trkpt lat="44.74639" lon="5.44289">
        <ele>914.20001220703</ele>
        <time>2022-05-29T09:16:54.000Z</time>
      </trkpt>
      <trkpt lat="44.7464" lon="5.44289">
        <ele>914</ele>
        <time>2022-05-29T09:17:00.000Z</time>
      </trkpt>
      <trkpt lat="44.74647" lon="5.44293">
        <ele>911.79998779297</ele>
        <time>2022-05-29T09:17:09.000Z</time>
      </trkpt>
      <trkpt lat="44.74655" lon="5.44288">
        <ele>906</ele>
        <time>2022-05-29T09:17:16.000Z</time>
      </trkpt>
      <trkpt lat="44.74669" lon="5.44283">
        <ele>897.40002441406</ele>
        <time>2022-05-29T09:17:22.000Z</time>
      </trkpt>
      <trkpt lat="44.74676" lon="5.44278">
        <ele>891.79998779297</ele>
        <time>2022-05-29T09:17:25.000Z</time>
      </trkpt>
      <trkpt lat="44.74679" lon="5.44275">
        <ele>889.59997558594</ele>
        <time>2022-05-29T09:17:26.000Z</time>
      </trkpt>
      <trkpt lat="44.74681" lon="5.44272">
        <ele>887</ele>
        <time>2022-05-29T09:17:27.000Z</time>
      </trkpt>
      <trkpt lat="44.74683" lon="5.44268">
        <ele>884</ele>
        <time>2022-05-29T09:17:28.000Z</time>
      </trkpt>
      <trkpt lat="44.74689" lon="5.44262">
        <ele>878.40002441406</ele>
        <time>2022-05-29T09:17:30.000Z</time>
      </trkpt>
      <trkpt lat="44.74689" lon="5.44262">
        <ele>878.40002441406</ele>
        <time>2022-05-29T09:17:31.000Z</time>
      </trkpt>
      <trkpt lat="44.7469" lon="5.44262">
        <ele>877.40002441406</ele>
        <time>2022-05-29T09:17:32.000Z</time>
      </trkpt>
      <trkpt lat="44.74692" lon="5.44262">
        <ele>876.79998779297</ele>
        <time>2022-05-29T09:17:33.000Z</time>
      </trkpt>
      <trkpt lat="44.74693" lon="5.44263">
        <ele>876.20001220703</ele>
        <time>2022-05-29T09:17:34.000Z</time>
      </trkpt>
      <trkpt lat="44.74696" lon="5.44265">
        <ele>875.40002441406</ele>
        <time>2022-05-29T09:17:37.000Z</time>
      </trkpt>
      <trkpt lat="44.74698" lon="5.44268">
        <ele>875.40002441406</ele>
        <time>2022-05-29T09:17:39.000Z</time>
      </trkpt>
      <trkpt lat="44.74699" lon="5.44269">
        <ele>875.40002441406</ele>
        <time>2022-05-29T09:17:40.000Z</time>
      </trkpt>
      <trkpt lat="44.747" lon="5.4427">
        <ele>875.40002441406</ele>
        <time>2022-05-29T09:17:41.000Z</time>
      </trkpt>
      <trkpt lat="44.74707" lon="5.44278">
        <ele>875</ele>
        <time>2022-05-29T09:17:48.000Z</time>
      </trkpt>
      <trkpt lat="44.74711" lon="5.44281">
        <ele>875.40002441406</ele>
        <time>2022-05-29T09:17:51.000Z</time>
      </trkpt>
      <trkpt lat="44.74712" lon="5.44281">
        <ele>875.20001220703</ele>
        <time>2022-05-29T09:17:52.000Z</time>
      </trkpt>
      <trkpt lat="44.74715" lon="5.44282">
        <ele>875</ele>
        <time>2022-05-29T09:17:54.000Z</time>
      </trkpt>
      <trkpt lat="44.74721" lon="5.44282">
        <ele>874</ele>
        <time>2022-05-29T09:17:58.000Z</time>
      </trkpt>
      <trkpt lat="44.74732" lon="5.4428">
        <ele>870.79998779297</ele>
        <time>2022-05-29T09:18:05.000Z</time>
      </trkpt>
      <trkpt lat="44.74751" lon="5.4426">
        <ele>859.20001220703</ele>
        <time>2022-05-29T09:18:26.000Z</time>
      </trkpt>
      <trkpt lat="44.74751" lon="5.44258">
        <ele>858.20001220703</ele>
        <time>2022-05-29T09:18:34.000Z</time>
      </trkpt>
      <trkpt lat="44.74747" lon="5.44258">
        <ele>859</ele>
        <time>2022-05-29T09:18:46.000Z</time>
      </trkpt>
      <trkpt lat="44.74741" lon="5.44255">
        <ele>859</ele>
        <time>2022-05-29T09:18:51.000Z</time>
      </trkpt>
      <trkpt lat="44.74739" lon="5.44255">
        <ele>859.40002441406</ele>
        <time>2022-05-29T09:18:54.000Z</time>
      </trkpt>
      <trkpt lat="44.74734" lon="5.44253">
        <ele>859.79998779297</ele>
        <time>2022-05-29T09:18:58.000Z</time>
      </trkpt>
      <trkpt lat="44.74723" lon="5.44238">
        <ele>856</ele>
        <time>2022-05-29T09:19:20.000Z</time>
      </trkpt>
      <trkpt lat="44.7472" lon="5.44244">
        <ele>859</ele>
        <time>2022-05-29T09:19:32.000Z</time>
      </trkpt>
      <trkpt lat="44.74722" lon="5.44244">
        <ele>858.79998779297</ele>
        <time>2022-05-29T09:19:41.000Z</time>
      </trkpt>
      <trkpt lat="44.74724" lon="5.44245">
        <ele>858.40002441406</ele>
        <time>2022-05-29T09:19:49.000Z</time>
      </trkpt>
      <trkpt lat="44.74726" lon="5.44245">
        <ele>858.20001220703</ele>
        <time>2022-05-29T09:19:55.000Z</time>
      </trkpt>
      <trkpt lat="44.74725" lon="5.44245">
        <ele>858.20001220703</ele>
        <time>2022-05-29T09:20:02.000Z</time>
      </trkpt>
      <trkpt lat="44.74726" lon="5.44244">
        <ele>857.79998779297</ele>
        <time>2022-05-29T09:20:11.000Z</time>
      </trkpt>
      <trkpt lat="44.7472" lon="5.44241">
        <ele>857.79998779297</ele>
        <time>2022-05-29T09:20:39.000Z</time>
      </trkpt>
      <trkpt lat="44.74719" lon="5.44242">
        <ele>858.20001220703</ele>
        <time>2022-05-29T09:20:46.000Z</time>
      </trkpt>
      <trkpt lat="44.7472" lon="5.44242">
        <ele>858</ele>
        <time>2022-05-29T09:20:54.000Z</time>
      </trkpt>
      <trkpt lat="44.74715" lon="5.44245">
        <ele>860.40002441406</ele>
        <time>2022-05-29T09:21:05.000Z</time>
      </trkpt>
      <trkpt lat="44.74715" lon="5.4424">
        <ele>858.40002441406</ele>
        <time>2022-05-29T09:21:10.000Z</time>
      </trkpt>
      <trkpt lat="44.74716" lon="5.4423">
        <ele>854.40002441406</ele>
        <time>2022-05-29T09:21:17.000Z</time>
      </trkpt>
      <trkpt lat="44.74714" lon="5.44223">
        <ele>852</ele>
        <time>2022-05-29T09:21:23.000Z</time>
      </trkpt>
      <trkpt lat="44.74709" lon="5.44221">
        <ele>852.20001220703</ele>
        <time>2022-05-29T09:21:27.000Z</time>
      </trkpt>
      <trkpt lat="44.74708" lon="5.44221">
        <ele>852.40002441406</ele>
        <time>2022-05-29T09:21:28.000Z</time>
      </trkpt>
      <trkpt lat="44.74705" lon="5.44222">
        <ele>853.40002441406</ele>
        <time>2022-05-29T09:21:30.000Z</time>
      </trkpt>
      <trkpt lat="44.74704" lon="5.44223">
        <ele>853.79998779297</ele>
        <time>2022-05-29T09:21:32.000Z</time>
      </trkpt>
      <trkpt lat="44.74704" lon="5.44223">
        <ele>854</ele>
        <time>2022-05-29T09:21:34.000Z</time>
      </trkpt>
      <trkpt lat="44.74701" lon="5.44224">
        <ele>856</ele>
        <time>2022-05-29T09:21:39.000Z</time>
      </trkpt>
      <trkpt lat="44.74694" lon="5.44229">
        <ele>862.20001220703</ele>
        <time>2022-05-29T09:21:45.000Z</time>
      </trkpt>
      <trkpt lat="44.74691" lon="5.44227">
        <ele>863.40002441406</ele>
        <time>2022-05-29T09:21:51.000Z</time>
      </trkpt>
      <trkpt lat="44.74689" lon="5.44225">
        <ele>863.59997558594</ele>
        <time>2022-05-29T09:21:54.000Z</time>
      </trkpt>
      <trkpt lat="44.74688" lon="5.44223">
        <ele>863.59997558594</ele>
        <time>2022-05-29T09:22:00.000Z</time>
      </trkpt>
      <trkpt lat="44.74687" lon="5.44222">
        <ele>863.79998779297</ele>
        <time>2022-05-29T09:22:02.000Z</time>
      </trkpt>
      <trkpt lat="44.74681" lon="5.44217">
        <ele>865.40002441406</ele>
        <time>2022-05-29T09:22:08.000Z</time>
      </trkpt>
      <trkpt lat="44.74676" lon="5.44216">
        <ele>867.79998779297</ele>
        <time>2022-05-29T09:22:12.000Z</time>
      </trkpt>
      <trkpt lat="44.74674" lon="5.44212">
        <ele>867.59997558594</ele>
        <time>2022-05-29T09:22:18.000Z</time>
      </trkpt>
      <trkpt lat="44.74672" lon="5.44206">
        <ele>866</ele>
        <time>2022-05-29T09:22:22.000Z</time>
      </trkpt>
      <trkpt lat="44.7467" lon="5.442">
        <ele>863.79998779297</ele>
        <time>2022-05-29T09:22:27.000Z</time>
      </trkpt>
      <trkpt lat="44.74664" lon="5.44137">
        <ele>843.59997558594</ele>
        <time>2022-05-29T09:22:58.000Z</time>
      </trkpt>
      <trkpt lat="44.74645" lon="5.4411">
        <ele>838.40002441406</ele>
        <time>2022-05-29T09:23:17.000Z</time>
      </trkpt>
      <trkpt lat="44.74641" lon="5.44106">
        <ele>838.20001220703</ele>
        <time>2022-05-29T09:23:23.000Z</time>
      </trkpt>
      <trkpt lat="44.7464" lon="5.44105">
        <ele>837.59997558594</ele>
        <time>2022-05-29T09:23:24.000Z</time>
      </trkpt>
      <trkpt lat="44.7464" lon="5.44105">
        <ele>837.59997558594</ele>
        <time>2022-05-29T09:23:25.000Z</time>
      </trkpt>
      <trkpt lat="44.74639" lon="5.44103">
        <ele>837.40002441406</ele>
        <time>2022-05-29T09:23:27.000Z</time>
      </trkpt>
      <trkpt lat="44.74638" lon="5.44103">
        <ele>837.59997558594</ele>
        <time>2022-05-29T09:23:28.000Z</time>
      </trkpt>
      <trkpt lat="44.74637" lon="5.44102">
        <ele>837.59997558594</ele>
        <time>2022-05-29T09:23:29.000Z</time>
      </trkpt>
      <trkpt lat="44.74631" lon="5.441">
        <ele>839</ele>
        <time>2022-05-29T09:23:34.000Z</time>
      </trkpt>
      <trkpt lat="44.7463" lon="5.441">
        <ele>839.79998779297</ele>
        <time>2022-05-29T09:23:36.000Z</time>
      </trkpt>
      <trkpt lat="44.74626" lon="5.44098">
        <ele>840.20001220703</ele>
        <time>2022-05-29T09:23:38.000Z</time>
      </trkpt>
      <trkpt lat="44.7462" lon="5.44098">
        <ele>842.40002441406</ele>
        <time>2022-05-29T09:23:41.000Z</time>
      </trkpt>
      <trkpt lat="44.74594" lon="5.44084">
        <ele>841.20001220703</ele>
        <time>2022-05-29T09:24:03.000Z</time>
      </trkpt>
      <trkpt lat="44.7458" lon="5.44058">
        <ele>830.40002441406</ele>
        <time>2022-05-29T09:24:20.000Z</time>
      </trkpt>
      <trkpt lat="44.74553" lon="5.44021">
        <ele>818.79998779297</ele>
        <time>2022-05-29T09:24:36.000Z</time>
      </trkpt>
      <trkpt lat="44.74529" lon="5.43998">
        <ele>813.79998779297</ele>
        <time>2022-05-29T09:24:44.000Z</time>
      </trkpt>
      <trkpt lat="44.74526" lon="5.43997">
        <ele>813.79998779297</ele>
        <time>2022-05-29T09:24:45.000Z</time>
      </trkpt>
      <trkpt lat="44.74519" lon="5.43995">
        <ele>814.40002441406</ele>
        <time>2022-05-29T09:24:47.000Z</time>
      </trkpt>
      <trkpt lat="44.74508" lon="5.44001">
        <ele>819.79998779297</ele>
        <time>2022-05-29T09:24:52.000Z</time>
      </trkpt>
      <trkpt lat="44.74502" lon="5.44002">
        <ele>821.79998779297</ele>
        <time>2022-05-29T09:24:55.000Z</time>
      </trkpt>
      <trkpt lat="44.74501" lon="5.44002">
        <ele>822.40002441406</ele>
        <time>2022-05-29T09:24:56.000Z</time>
      </trkpt>
      <trkpt lat="44.74499" lon="5.44002">
        <ele>822.79998779297</ele>
        <time>2022-05-29T09:24:57.000Z</time>
      </trkpt>
      <trkpt lat="44.74496" lon="5.44001">
        <ele>822.79998779297</ele>
        <time>2022-05-29T09:24:59.000Z</time>
      </trkpt>
      <trkpt lat="44.74493" lon="5.44">
        <ele>823</ele>
        <time>2022-05-29T09:25:01.000Z</time>
      </trkpt>
      <trkpt lat="44.74492" lon="5.43998">
        <ele>822.59997558594</ele>
        <time>2022-05-29T09:25:03.000Z</time>
      </trkpt>
      <trkpt lat="44.74487" lon="5.43996">
        <ele>822.79998779297</ele>
        <time>2022-05-29T09:25:06.000Z</time>
      </trkpt>
      <trkpt lat="44.74484" lon="5.43996">
        <ele>823.40002441406</ele>
        <time>2022-05-29T09:25:08.000Z</time>
      </trkpt>
      <trkpt lat="44.74483" lon="5.43995">
        <ele>823.20001220703</ele>
        <time>2022-05-29T09:25:11.000Z</time>
      </trkpt>
      <trkpt lat="44.74487" lon="5.43992">
        <ele>820.79998779297</ele>
        <time>2022-05-29T09:25:15.000Z</time>
      </trkpt>
      <trkpt lat="44.74489" lon="5.43992">
        <ele>820.20001220703</ele>
        <time>2022-05-29T09:25:17.000Z</time>
      </trkpt>
      <trkpt lat="44.7449" lon="5.43992">
        <ele>820.20001220703</ele>
        <time>2022-05-29T09:25:19.000Z</time>
      </trkpt>
      <trkpt lat="44.74491" lon="5.43993">
        <ele>820.20001220703</ele>
        <time>2022-05-29T09:25:20.000Z</time>
      </trkpt>
      <trkpt lat="44.74492" lon="5.43993">
        <ele>820.20001220703</ele>
        <time>2022-05-29T09:25:21.000Z</time>
      </trkpt>
      <trkpt lat="44.74493" lon="5.43994">
        <ele>820.20001220703</ele>
        <time>2022-05-29T09:25:22.000Z</time>
      </trkpt>
      <trkpt lat="44.74493" lon="5.43993">
        <ele>819.79998779297</ele>
        <time>2022-05-29T09:25:23.000Z</time>
      </trkpt>
      <trkpt lat="44.74495" lon="5.43992">
        <ele>818.79998779297</ele>
        <time>2022-05-29T09:25:26.000Z</time>
      </trkpt>
      <trkpt lat="44.74497" lon="5.43989">
        <ele>816.59997558594</ele>
        <time>2022-05-29T09:25:28.000Z</time>
      </trkpt>
      <trkpt lat="44.74503" lon="5.43982">
        <ele>812.20001220703</ele>
        <time>2022-05-29T09:25:33.000Z</time>
      </trkpt>
      <trkpt lat="44.74506" lon="5.43976">
        <ele>808.40002441406</ele>
        <time>2022-05-29T09:25:36.000Z</time>
      </trkpt>
      <trkpt lat="44.7451" lon="5.43973">
        <ele>806.20001220703</ele>
        <time>2022-05-29T09:25:39.000Z</time>
      </trkpt>
      <trkpt lat="44.74514" lon="5.43971">
        <ele>804.40002441406</ele>
        <time>2022-05-29T09:25:42.000Z</time>
      </trkpt>
      <trkpt lat="44.7452" lon="5.43966">
        <ele>800.40002441406</ele>
        <time>2022-05-29T09:25:47.000Z</time>
      </trkpt>
      <trkpt lat="44.74539" lon="5.43962">
        <ele>794.40002441406</ele>
        <time>2022-05-29T09:26:00.000Z</time>
      </trkpt>
      <trkpt lat="44.74543" lon="5.43962">
        <ele>793.79998779297</ele>
        <time>2022-05-29T09:26:05.000Z</time>
      </trkpt>
      <trkpt lat="44.74545" lon="5.43962">
        <ele>793.79998779297</ele>
        <time>2022-05-29T09:26:06.000Z</time>
      </trkpt>
      <trkpt lat="44.7455" lon="5.43965">
        <ele>794</ele>
        <time>2022-05-29T09:26:11.000Z</time>
      </trkpt>
      <trkpt lat="44.74555" lon="5.43967">
        <ele>794.20001220703</ele>
        <time>2022-05-29T09:26:17.000Z</time>
      </trkpt>
      <trkpt lat="44.74558" lon="5.43967">
        <ele>793.59997558594</ele>
        <time>2022-05-29T09:26:23.000Z</time>
      </trkpt>
      <trkpt lat="44.74562" lon="5.43969">
        <ele>793.79998779297</ele>
        <time>2022-05-29T09:26:27.000Z</time>
      </trkpt>
      <trkpt lat="44.7458" lon="5.43982">
        <ele>796</ele>
        <time>2022-05-29T09:26:50.000Z</time>
      </trkpt>
      <trkpt lat="44.74594" lon="5.43993">
        <ele>798.20001220703</ele>
        <time>2022-05-29T09:27:04.000Z</time>
      </trkpt>
      <trkpt lat="44.74601" lon="5.43996">
        <ele>798.40002441406</ele>
        <time>2022-05-29T09:27:13.000Z</time>
      </trkpt>
      <trkpt lat="44.74606" lon="5.43997">
        <ele>798.20001220703</ele>
        <time>2022-05-29T09:27:17.000Z</time>
      </trkpt>
      <trkpt lat="44.74619" lon="5.43999">
        <ele>797.20001220703</ele>
        <time>2022-05-29T09:27:28.000Z</time>
      </trkpt>
      <trkpt lat="44.74628" lon="5.43995">
        <ele>793.79998779297</ele>
        <time>2022-05-29T09:27:36.000Z</time>
      </trkpt>
      <trkpt lat="44.74634" lon="5.43988">
        <ele>789.59997558594</ele>
        <time>2022-05-29T09:27:44.000Z</time>
      </trkpt>
      <trkpt lat="44.74644" lon="5.43973">
        <ele>782</ele>
        <time>2022-05-29T09:27:52.000Z</time>
      </trkpt>
      <trkpt lat="44.74649" lon="5.43972">
        <ele>780.59997558594</ele>
        <time>2022-05-29T09:27:57.000Z</time>
      </trkpt>
      <trkpt lat="44.74653" lon="5.43979">
        <ele>782.40002441406</ele>
        <time>2022-05-29T09:28:04.000Z</time>
      </trkpt>
      <trkpt lat="44.74654" lon="5.43984">
        <ele>783.79998779297</ele>
        <time>2022-05-29T09:28:07.000Z</time>
      </trkpt>
      <trkpt lat="44.74661" lon="5.43994">
        <ele>785.79998779297</ele>
        <time>2022-05-29T09:28:16.000Z</time>
      </trkpt>
      <trkpt lat="44.74663" lon="5.43995">
        <ele>785.79998779297</ele>
        <time>2022-05-29T09:28:18.000Z</time>
      </trkpt>
      <trkpt lat="44.74672" lon="5.43989">
        <ele>781.79998779297</ele>
        <time>2022-05-29T09:28:29.000Z</time>
      </trkpt>
      <trkpt lat="44.74678" lon="5.4398">
        <ele>777.40002441406</ele>
        <time>2022-05-29T09:28:35.000Z</time>
      </trkpt>
      <trkpt lat="44.74689" lon="5.43966">
        <ele>770</ele>
        <time>2022-05-29T09:28:47.000Z</time>
      </trkpt>
      <trkpt lat="44.74697" lon="5.43961">
        <ele>766.79998779297</ele>
        <time>2022-05-29T09:28:54.000Z</time>
      </trkpt>
      <trkpt lat="44.74699" lon="5.4395">
        <ele>763.40002441406</ele>
        <time>2022-05-29T09:29:02.000Z</time>
      </trkpt>
      <trkpt lat="44.74694" lon="5.43943">
        <ele>761.79998779297</ele>
        <time>2022-05-29T09:29:10.000Z</time>
      </trkpt>
      <trkpt lat="44.74687" lon="5.43912">
        <ele>754.59997558594</ele>
        <time>2022-05-29T09:29:31.000Z</time>
      </trkpt>
      <trkpt lat="44.74687" lon="5.43911">
        <ele>754.20001220703</ele>
        <time>2022-05-29T09:29:32.000Z</time>
      </trkpt>
      <trkpt lat="44.74678" lon="5.43894">
        <ele>750.59997558594</ele>
        <time>2022-05-29T09:29:56.000Z</time>
      </trkpt>
      <trkpt lat="44.74678" lon="5.43894">
        <ele>750.40002441406</ele>
        <time>2022-05-29T09:29:57.000Z</time>
      </trkpt>
      <trkpt lat="44.74679" lon="5.43893">
        <ele>750.20001220703</ele>
        <time>2022-05-29T09:29:58.000Z</time>
      </trkpt>
      <trkpt lat="44.74678" lon="5.43895">
        <ele>750.79998779297</ele>
        <time>2022-05-29T09:30:24.000Z</time>
      </trkpt>
      <trkpt lat="44.74681" lon="5.43894">
        <ele>750.40002441406</ele>
        <time>2022-05-29T09:30:35.000Z</time>
      </trkpt>
      <trkpt lat="44.74682" lon="5.43892">
        <ele>749.79998779297</ele>
        <time>2022-05-29T09:30:44.000Z</time>
      </trkpt>
      <trkpt lat="44.74684" lon="5.43892">
        <ele>749.59997558594</ele>
        <time>2022-05-29T09:31:01.000Z</time>
      </trkpt>
      <trkpt lat="44.74684" lon="5.43891">
        <ele>749.40002441406</ele>
        <time>2022-05-29T09:31:11.000Z</time>
      </trkpt>
      <trkpt lat="44.74683" lon="5.43892">
        <ele>749.59997558594</ele>
        <time>2022-05-29T09:31:22.000Z</time>
      </trkpt>
      <trkpt lat="44.74684" lon="5.43892">
        <ele>749.59997558594</ele>
        <time>2022-05-29T09:31:30.000Z</time>
      </trkpt>
      <trkpt lat="44.74683" lon="5.43891">
        <ele>749.40002441406</ele>
        <time>2022-05-29T09:31:43.000Z</time>
      </trkpt>
      <trkpt lat="44.74683" lon="5.43891">
        <ele>749.40002441406</ele>
        <time>2022-05-29T09:31:55.000Z</time>
      </trkpt>
      <trkpt lat="44.74681" lon="5.43899">
        <ele>751.59997558594</ele>
        <time>2022-05-29T09:32:07.000Z</time>
      </trkpt>
      <trkpt lat="44.74677" lon="5.43896">
        <ele>751</ele>
        <time>2022-05-29T09:32:22.000Z</time>
      </trkpt>
      <trkpt lat="44.74674" lon="5.43888">
        <ele>749.20001220703</ele>
        <time>2022-05-29T09:32:28.000Z</time>
      </trkpt>
      <trkpt lat="44.74674" lon="5.43887">
        <ele>749</ele>
        <time>2022-05-29T09:32:29.000Z</time>
      </trkpt>
      <trkpt lat="44.74673" lon="5.43884">
        <ele>748.40002441406</ele>
        <time>2022-05-29T09:32:30.000Z</time>
      </trkpt>
      <trkpt lat="44.74672" lon="5.43882">
        <ele>747.79998779297</ele>
        <time>2022-05-29T09:32:32.000Z</time>
      </trkpt>
      <trkpt lat="44.74671" lon="5.43881">
        <ele>747.59997558594</ele>
        <time>2022-05-29T09:32:33.000Z</time>
      </trkpt>
      <trkpt lat="44.74671" lon="5.43878">
        <ele>747</ele>
        <time>2022-05-29T09:32:36.000Z</time>
      </trkpt>
      <trkpt lat="44.74669" lon="5.43875">
        <ele>746.40002441406</ele>
        <time>2022-05-29T09:32:39.000Z</time>
      </trkpt>
      <trkpt lat="44.74669" lon="5.43874">
        <ele>746.20001220703</ele>
        <time>2022-05-29T09:32:40.000Z</time>
      </trkpt>
      <trkpt lat="44.74668" lon="5.43871">
        <ele>745.40002441406</ele>
        <time>2022-05-29T09:32:42.000Z</time>
      </trkpt>
      <trkpt lat="44.74668" lon="5.4387">
        <ele>745.20001220703</ele>
        <time>2022-05-29T09:32:43.000Z</time>
      </trkpt>
      <trkpt lat="44.74668" lon="5.4387">
        <ele>745.20001220703</ele>
        <time>2022-05-29T09:32:44.000Z</time>
      </trkpt>
      <trkpt lat="44.74666" lon="5.43861">
        <ele>743.20001220703</ele>
        <time>2022-05-29T09:32:56.000Z</time>
      </trkpt>
      <trkpt lat="44.74664" lon="5.43858">
        <ele>742.40002441406</ele>
        <time>2022-05-29T09:33:00.000Z</time>
      </trkpt>
      <trkpt lat="44.74662" lon="5.43853">
        <ele>741.59997558594</ele>
        <time>2022-05-29T09:33:05.000Z</time>
      </trkpt>
      <trkpt lat="44.74661" lon="5.43851">
        <ele>741</ele>
        <time>2022-05-29T09:33:07.000Z</time>
      </trkpt>
      <trkpt lat="44.74661" lon="5.4385">
        <ele>740.79998779297</ele>
        <time>2022-05-29T09:33:09.000Z</time>
      </trkpt>
      <trkpt lat="44.74656" lon="5.43835">
        <ele>737.59997558594</ele>
        <time>2022-05-29T09:33:21.000Z</time>
      </trkpt>
      <trkpt lat="44.74653" lon="5.43828">
        <ele>736.59997558594</ele>
        <time>2022-05-29T09:33:25.000Z</time>
      </trkpt>
      <trkpt lat="44.7465" lon="5.43816">
        <ele>735</ele>
        <time>2022-05-29T09:33:36.000Z</time>
      </trkpt>
      <trkpt lat="44.74651" lon="5.43806">
        <ele>734</ele>
        <time>2022-05-29T09:33:43.000Z</time>
      </trkpt>
      <trkpt lat="44.74647" lon="5.43795">
        <ele>732.40002441406</ele>
        <time>2022-05-29T09:34:21.000Z</time>
      </trkpt>
      <trkpt lat="44.74646" lon="5.43798">
        <ele>732.79998779297</ele>
        <time>2022-05-29T09:34:32.000Z</time>
      </trkpt>
      <trkpt lat="44.74645" lon="5.43807">
        <ele>733.59997558594</ele>
        <time>2022-05-29T09:34:39.000Z</time>
      </trkpt>
      <trkpt lat="44.7464" lon="5.43823">
        <ele>735.59997558594</ele>
        <time>2022-05-29T09:34:48.000Z</time>
      </trkpt>
      <trkpt lat="44.74639" lon="5.43826">
        <ele>736.40002441406</ele>
        <time>2022-05-29T09:34:50.000Z</time>
      </trkpt>
      <trkpt lat="44.74639" lon="5.43832">
        <ele>737.79998779297</ele>
        <time>2022-05-29T09:34:53.000Z</time>
      </trkpt>
      <trkpt lat="44.74638" lon="5.43836">
        <ele>739</ele>
        <time>2022-05-29T09:34:56.000Z</time>
      </trkpt>
      <trkpt lat="44.74638" lon="5.43845">
        <ele>741</ele>
        <time>2022-05-29T09:35:02.000Z</time>
      </trkpt>
      <trkpt lat="44.74634" lon="5.43854">
        <ele>743.40002441406</ele>
        <time>2022-05-29T09:35:08.000Z</time>
      </trkpt>
      <trkpt lat="44.74631" lon="5.43857">
        <ele>744.40002441406</ele>
        <time>2022-05-29T09:35:11.000Z</time>
      </trkpt>
      <trkpt lat="44.74625" lon="5.43862">
        <ele>745.79998779297</ele>
        <time>2022-05-29T09:35:23.000Z</time>
      </trkpt>
      <trkpt lat="44.74624" lon="5.43862">
        <ele>746</ele>
        <time>2022-05-29T09:35:24.000Z</time>
      </trkpt>
      <trkpt lat="44.74617" lon="5.4386">
        <ele>747.20001220703</ele>
        <time>2022-05-29T09:35:35.000Z</time>
      </trkpt>
      <trkpt lat="44.74611" lon="5.43851">
        <ele>747.20001220703</ele>
        <time>2022-05-29T09:35:53.000Z</time>
      </trkpt>
      <trkpt lat="44.74611" lon="5.43848">
        <ele>746.59997558594</ele>
        <time>2022-05-29T09:35:56.000Z</time>
      </trkpt>
      <trkpt lat="44.7461" lon="5.43847">
        <ele>746.40002441406</ele>
        <time>2022-05-29T09:35:57.000Z</time>
      </trkpt>
      <trkpt lat="44.74609" lon="5.43846">
        <ele>746.40002441406</ele>
        <time>2022-05-29T09:35:59.000Z</time>
      </trkpt>
      <trkpt lat="44.74608" lon="5.43845">
        <ele>746.59997558594</ele>
        <time>2022-05-29T09:36:00.000Z</time>
      </trkpt>
      <trkpt lat="44.74606" lon="5.43841">
        <ele>746.79998779297</ele>
        <time>2022-05-29T09:36:02.000Z</time>
      </trkpt>
      <trkpt lat="44.74604" lon="5.43838">
        <ele>746.59997558594</ele>
        <time>2022-05-29T09:36:04.000Z</time>
      </trkpt>
      <trkpt lat="44.74602" lon="5.43838">
        <ele>747</ele>
        <time>2022-05-29T09:36:06.000Z</time>
      </trkpt>
      <trkpt lat="44.746" lon="5.43834">
        <ele>747</ele>
        <time>2022-05-29T09:36:11.000Z</time>
      </trkpt>
      <trkpt lat="44.746" lon="5.43832">
        <ele>746.79998779297</ele>
        <time>2022-05-29T09:36:12.000Z</time>
      </trkpt>
      <trkpt lat="44.74599" lon="5.43831">
        <ele>746.59997558594</ele>
        <time>2022-05-29T09:36:13.000Z</time>
      </trkpt>
      <trkpt lat="44.74597" lon="5.43827">
        <ele>746.59997558594</ele>
        <time>2022-05-29T09:36:16.000Z</time>
      </trkpt>
      <trkpt lat="44.74596" lon="5.43826">
        <ele>746.59997558594</ele>
        <time>2022-05-29T09:36:17.000Z</time>
      </trkpt>
      <trkpt lat="44.74595" lon="5.43825">
        <ele>746.79998779297</ele>
        <time>2022-05-29T09:36:18.000Z</time>
      </trkpt>
      <trkpt lat="44.74595" lon="5.43824">
        <ele>746.59997558594</ele>
        <time>2022-05-29T09:36:19.000Z</time>
      </trkpt>
      <trkpt lat="44.74595" lon="5.43822">
        <ele>746.20001220703</ele>
        <time>2022-05-29T09:36:20.000Z</time>
      </trkpt>
      <trkpt lat="44.74592" lon="5.4382">
        <ele>746.59997558594</ele>
        <time>2022-05-29T09:36:24.000Z</time>
      </trkpt>
      <trkpt lat="44.74592" lon="5.43819">
        <ele>746.59997558594</ele>
        <time>2022-05-29T09:36:25.000Z</time>
      </trkpt>
      <trkpt lat="44.74591" lon="5.43817">
        <ele>746.20001220703</ele>
        <time>2022-05-29T09:36:26.000Z</time>
      </trkpt>
      <trkpt lat="44.74585" lon="5.43805">
        <ele>746</ele>
        <time>2022-05-29T09:36:38.000Z</time>
      </trkpt>
      <trkpt lat="44.74581" lon="5.43804">
        <ele>747</ele>
        <time>2022-05-29T09:36:43.000Z</time>
      </trkpt>
      <trkpt lat="44.74576" lon="5.43803">
        <ele>748.79998779297</ele>
        <time>2022-05-29T09:36:49.000Z</time>
      </trkpt>
      <trkpt lat="44.74569" lon="5.43802">
        <ele>750.79998779297</ele>
        <time>2022-05-29T09:36:55.000Z</time>
      </trkpt>
      <trkpt lat="44.74562" lon="5.43799">
        <ele>752.79998779297</ele>
        <time>2022-05-29T09:37:03.000Z</time>
      </trkpt>
      <trkpt lat="44.74558" lon="5.43796">
        <ele>753.79998779297</ele>
        <time>2022-05-29T09:37:11.000Z</time>
      </trkpt>
      <trkpt lat="44.74558" lon="5.4379">
        <ele>753</ele>
        <time>2022-05-29T09:37:22.000Z</time>
      </trkpt>
      <trkpt lat="44.74556" lon="5.43776">
        <ele>751.59997558594</ele>
        <time>2022-05-29T09:37:32.000Z</time>
      </trkpt>
      <trkpt lat="44.74557" lon="5.43759">
        <ele>749</ele>
        <time>2022-05-29T09:37:44.000Z</time>
      </trkpt>
      <trkpt lat="44.74553" lon="5.43736">
        <ele>747</ele>
        <time>2022-05-29T09:37:58.000Z</time>
      </trkpt>
      <trkpt lat="44.74553" lon="5.43729">
        <ele>746.20001220703</ele>
        <time>2022-05-29T09:38:02.000Z</time>
      </trkpt>
      <trkpt lat="44.74545" lon="5.43693">
        <ele>743.40002441406</ele>
        <time>2022-05-29T09:38:25.000Z</time>
      </trkpt>
      <trkpt lat="44.74545" lon="5.43658">
        <ele>737.59997558594</ele>
        <time>2022-05-29T09:38:48.000Z</time>
      </trkpt>
      <trkpt lat="44.74544" lon="5.43645">
        <ele>735.59997558594</ele>
        <time>2022-05-29T09:38:56.000Z</time>
      </trkpt>
      <trkpt lat="44.74541" lon="5.43586">
        <ele>726.79998779297</ele>
        <time>2022-05-29T09:39:30.000Z</time>
      </trkpt>
      <trkpt lat="44.74539" lon="5.43577">
        <ele>726</ele>
        <time>2022-05-29T09:39:37.000Z</time>
      </trkpt>
      <trkpt lat="44.74536" lon="5.43534">
        <ele>720</ele>
        <time>2022-05-29T09:40:10.000Z</time>
      </trkpt>
      <trkpt lat="44.74535" lon="5.43518">
        <ele>718</ele>
        <time>2022-05-29T09:40:22.000Z</time>
      </trkpt>
      <trkpt lat="44.74533" lon="5.43499">
        <ele>715.79998779297</ele>
        <time>2022-05-29T09:40:36.000Z</time>
      </trkpt>
      <trkpt lat="44.7453" lon="5.43437">
        <ele>707.79998779297</ele>
        <time>2022-05-29T09:41:28.000Z</time>
      </trkpt>
      <trkpt lat="44.74529" lon="5.43431">
        <ele>707.20001220703</ele>
        <time>2022-05-29T09:41:33.000Z</time>
      </trkpt>
      <trkpt lat="44.74529" lon="5.43424">
        <ele>706.40002441406</ele>
        <time>2022-05-29T09:41:37.000Z</time>
      </trkpt>
      <trkpt lat="44.74525" lon="5.43373">
        <ele>700.79998779297</ele>
        <time>2022-05-29T09:42:20.000Z</time>
      </trkpt>
      <trkpt lat="44.74532" lon="5.43348">
        <ele>692.40002441406</ele>
        <time>2022-05-29T09:42:37.000Z</time>
      </trkpt>
      <trkpt lat="44.74532" lon="5.43335">
        <ele>690.20001220703</ele>
        <time>2022-05-29T09:42:55.000Z</time>
      </trkpt>
      <trkpt lat="44.7453" lon="5.43331">
        <ele>690.59997558594</ele>
        <time>2022-05-29T09:42:59.000Z</time>
      </trkpt>
      <trkpt lat="44.74517" lon="5.43274">
        <ele>687.20001220703</ele>
        <time>2022-05-29T09:43:39.000Z</time>
      </trkpt>
      <trkpt lat="44.74522" lon="5.43276">
        <ele>685.20001220703</ele>
        <time>2022-05-29T09:44:08.000Z</time>
      </trkpt>
      <trkpt lat="44.74536" lon="5.43335">
        <ele>687.79998779297</ele>
        <time>2022-05-29T09:44:51.000Z</time>
      </trkpt>
      <trkpt lat="44.74541" lon="5.43339">
        <ele>687</ele>
        <time>2022-05-29T09:45:17.000Z</time>
      </trkpt>
      <trkpt lat="44.74539" lon="5.43336">
        <ele>686.79998779297</ele>
        <time>2022-05-29T09:45:20.000Z</time>
      </trkpt>
      <trkpt lat="44.74526" lon="5.43299">
        <ele>687.59997558594</ele>
        <time>2022-05-29T09:45:30.000Z</time>
      </trkpt>
      <trkpt lat="44.74525" lon="5.43296">
        <ele>687.59997558594</ele>
        <time>2022-05-29T09:45:31.000Z</time>
      </trkpt>
      <trkpt lat="44.74522" lon="5.43288">
        <ele>687.20001220703</ele>
        <time>2022-05-29T09:45:33.000Z</time>
      </trkpt>
      <trkpt lat="44.7452" lon="5.43284">
        <ele>687.40002441406</ele>
        <time>2022-05-29T09:45:36.000Z</time>
      </trkpt>
      <trkpt lat="44.74519" lon="5.43282">
        <ele>687.59997558594</ele>
        <time>2022-05-29T09:45:37.000Z</time>
      </trkpt>
      <trkpt lat="44.74518" lon="5.43282">
        <ele>688</ele>
        <time>2022-05-29T09:45:38.000Z</time>
      </trkpt>
      <trkpt lat="44.74518" lon="5.43281">
        <ele>688.20001220703</ele>
        <time>2022-05-29T09:45:39.000Z</time>
      </trkpt>
      <trkpt lat="44.74517" lon="5.43281">
        <ele>688.59997558594</ele>
        <time>2022-05-29T09:45:41.000Z</time>
      </trkpt>
      <trkpt lat="44.74517" lon="5.43282">
        <ele>689</ele>
        <time>2022-05-29T09:45:44.000Z</time>
      </trkpt>
      <trkpt lat="44.74516" lon="5.43282">
        <ele>689</ele>
        <time>2022-05-29T09:45:46.000Z</time>
      </trkpt>
      <trkpt lat="44.74516" lon="5.43281">
        <ele>689.20001220703</ele>
        <time>2022-05-29T09:45:50.000Z</time>
      </trkpt>
      <trkpt lat="44.74518" lon="5.43285">
        <ele>688.79998779297</ele>
        <time>2022-05-29T09:45:56.000Z</time>
      </trkpt>
      <trkpt lat="44.7452" lon="5.43287">
        <ele>688.59997558594</ele>
        <time>2022-05-29T09:45:57.000Z</time>
      </trkpt>
      <trkpt lat="44.7452" lon="5.43287">
        <ele>688.59997558594</ele>
        <time>2022-05-29T09:45:58.000Z</time>
      </trkpt>
      <trkpt lat="44.74521" lon="5.4329">
        <ele>688.40002441406</ele>
        <time>2022-05-29T09:45:59.000Z</time>
      </trkpt>
      <trkpt lat="44.74522" lon="5.43292">
        <ele>688.20001220703</ele>
        <time>2022-05-29T09:46:00.000Z</time>
      </trkpt>
      <trkpt lat="44.74525" lon="5.43303">
        <ele>688.79998779297</ele>
        <time>2022-05-29T09:46:03.000Z</time>
      </trkpt>
      <trkpt lat="44.74526" lon="5.43307">
        <ele>689</ele>
        <time>2022-05-29T09:46:04.000Z</time>
      </trkpt>
      <trkpt lat="44.74528" lon="5.43311">
        <ele>688.79998779297</ele>
        <time>2022-05-29T09:46:05.000Z</time>
      </trkpt>
      <trkpt lat="44.74529" lon="5.43316">
        <ele>688.59997558594</ele>
        <time>2022-05-29T09:46:06.000Z</time>
      </trkpt>
      <trkpt lat="44.74532" lon="5.43326">
        <ele>689</ele>
        <time>2022-05-29T09:46:09.000Z</time>
      </trkpt>
      <trkpt lat="44.74532" lon="5.43329">
        <ele>689.20001220703</ele>
        <time>2022-05-29T09:46:10.000Z</time>
      </trkpt>
      <trkpt lat="44.74537" lon="5.43333">
        <ele>686.79998779297</ele>
        <time>2022-05-29T09:46:22.000Z</time>
      </trkpt>
      <trkpt lat="44.74538" lon="5.43332">
        <ele>686.40002441406</ele>
        <time>2022-05-29T09:46:24.000Z</time>
      </trkpt>
      <trkpt lat="44.74539" lon="5.43332">
        <ele>686.20001220703</ele>
        <time>2022-05-29T09:46:25.000Z</time>
      </trkpt>
      <trkpt lat="44.74539" lon="5.43332">
        <ele>686.20001220703</ele>
        <time>2022-05-29T09:46:26.000Z</time>
      </trkpt>
      <trkpt lat="44.74539" lon="5.43331">
        <ele>686.20001220703</ele>
        <time>2022-05-29T09:46:27.000Z</time>
      </trkpt>
      <trkpt lat="44.74539" lon="5.4333">
        <ele>685.79998779297</ele>
        <time>2022-05-29T09:46:29.000Z</time>
      </trkpt>
      <trkpt lat="44.74538" lon="5.43333">
        <ele>686.40002441406</ele>
        <time>2022-05-29T09:46:51.000Z</time>
      </trkpt>
      <trkpt lat="44.74538" lon="5.43333">
        <ele>686.59997558594</ele>
        <time>2022-05-29T09:46:58.000Z</time>
      </trkpt>
      <trkpt lat="44.74537" lon="5.43333">
        <ele>687.20001220703</ele>
        <time>2022-05-29T09:46:59.000Z</time>
      </trkpt>
      <trkpt lat="44.74536" lon="5.43333">
        <ele>687.59997558594</ele>
        <time>2022-05-29T09:47:01.000Z</time>
      </trkpt>
      <trkpt lat="44.74534" lon="5.43331">
        <ele>688.59997558594</ele>
        <time>2022-05-29T09:47:03.000Z</time>
      </trkpt>
      <trkpt lat="44.74532" lon="5.4333">
        <ele>689.79998779297</ele>
        <time>2022-05-29T09:47:06.000Z</time>
      </trkpt>
      <trkpt lat="44.7453" lon="5.43326">
        <ele>689.79998779297</ele>
        <time>2022-05-29T09:47:09.000Z</time>
      </trkpt>
      <trkpt lat="44.7453" lon="5.4332">
        <ele>689</ele>
        <time>2022-05-29T09:47:12.000Z</time>
      </trkpt>
      <trkpt lat="44.74529" lon="5.43315">
        <ele>688.59997558594</ele>
        <time>2022-05-29T09:47:17.000Z</time>
      </trkpt>
      <trkpt lat="44.74528" lon="5.4331">
        <ele>688.20001220703</ele>
        <time>2022-05-29T09:47:22.000Z</time>
      </trkpt>
      <trkpt lat="44.74522" lon="5.43296">
        <ele>689.59997558594</ele>
        <time>2022-05-29T09:47:43.000Z</time>
      </trkpt>
      <trkpt lat="44.74525" lon="5.43288">
        <ele>685.79998779297</ele>
        <time>2022-05-29T09:48:03.000Z</time>
      </trkpt>
      <trkpt lat="44.74528" lon="5.43278">
        <ele>683</ele>
        <time>2022-05-29T09:48:12.000Z</time>
      </trkpt>
      <trkpt lat="44.74533" lon="5.4327">
        <ele>679.79998779297</ele>
        <time>2022-05-29T09:48:18.000Z</time>
      </trkpt>
      <trkpt lat="44.74536" lon="5.43266">
        <ele>678</ele>
        <time>2022-05-29T09:48:21.000Z</time>
      </trkpt>
      <trkpt lat="44.74539" lon="5.43265">
        <ele>677.20001220703</ele>
        <time>2022-05-29T09:48:23.000Z</time>
      </trkpt>
      <trkpt lat="44.74543" lon="5.43262">
        <ele>676</ele>
        <time>2022-05-29T09:48:44.000Z</time>
      </trkpt>
      <trkpt lat="44.74539" lon="5.43258">
        <ele>676.20001220703</ele>
        <time>2022-05-29T09:48:52.000Z</time>
      </trkpt>
      <trkpt lat="44.74538" lon="5.43268">
        <ele>677.59997558594</ele>
        <time>2022-05-29T09:49:34.000Z</time>
      </trkpt>
      <trkpt lat="44.74539" lon="5.43265">
        <ele>677</ele>
        <time>2022-05-29T09:49:41.000Z</time>
      </trkpt>
      <trkpt lat="44.74539" lon="5.43266">
        <ele>677.20001220703</ele>
        <time>2022-05-29T09:49:54.000Z</time>
      </trkpt>
      <trkpt lat="44.7454" lon="5.43261">
        <ele>676.40002441406</ele>
        <time>2022-05-29T09:50:53.000Z</time>
      </trkpt>
      <trkpt lat="44.74539" lon="5.43262">
        <ele>676.79998779297</ele>
        <time>2022-05-29T09:51:00.000Z</time>
      </trkpt>
      <trkpt lat="44.74535" lon="5.43257">
        <ele>677.59997558594</ele>
        <time>2022-05-29T09:51:17.000Z</time>
      </trkpt>
      <trkpt lat="44.74533" lon="5.43256">
        <ele>678.40002441406</ele>
        <time>2022-05-29T09:51:29.000Z</time>
      </trkpt>
      <trkpt lat="44.74533" lon="5.43267">
        <ele>679.79998779297</ele>
        <time>2022-05-29T09:51:47.000Z</time>
      </trkpt>
      <trkpt lat="44.74535" lon="5.43261">
        <ele>678.20001220703</ele>
        <time>2022-05-29T09:52:05.000Z</time>
      </trkpt>
      <trkpt lat="44.74537" lon="5.43266">
        <ele>677.79998779297</ele>
        <time>2022-05-29T09:52:13.000Z</time>
      </trkpt>
      <trkpt lat="44.74536" lon="5.43267">
        <ele>678.20001220703</ele>
        <time>2022-05-29T09:52:16.000Z</time>
      </trkpt>
      <trkpt lat="44.74536" lon="5.43267">
        <ele>678</ele>
        <time>2022-05-29T09:52:18.000Z</time>
      </trkpt>
      <trkpt lat="44.74542" lon="5.43248">
        <ele>674.79998779297</ele>
        <time>2022-05-29T09:52:57.000Z</time>
      </trkpt>
      <trkpt lat="44.74544" lon="5.43253">
        <ele>675</ele>
        <time>2022-05-29T09:53:07.000Z</time>
      </trkpt>
      <trkpt lat="44.74536" lon="5.43273">
        <ele>678.59997558594</ele>
        <time>2022-05-29T09:53:55.000Z</time>
      </trkpt>
      <trkpt lat="44.74536" lon="5.43273">
        <ele>678.79998779297</ele>
        <time>2022-05-29T09:53:58.000Z</time>
      </trkpt>
      <trkpt lat="44.74535" lon="5.43273">
        <ele>679.20001220703</ele>
        <time>2022-05-29T09:54:01.000Z</time>
      </trkpt>
      <trkpt lat="44.74535" lon="5.43272">
        <ele>679.40002441406</ele>
        <time>2022-05-29T09:54:03.000Z</time>
      </trkpt>
      <trkpt lat="44.74534" lon="5.43271">
        <ele>679.59997558594</ele>
        <time>2022-05-29T09:54:04.000Z</time>
      </trkpt>
      <trkpt lat="44.74534" lon="5.43263">
        <ele>678.79998779297</ele>
        <time>2022-05-29T09:54:10.000Z</time>
      </trkpt>
      <trkpt lat="44.7454" lon="5.43254">
        <ele>675.79998779297</ele>
        <time>2022-05-29T09:54:34.000Z</time>
      </trkpt>
      <trkpt lat="44.74539" lon="5.43257">
        <ele>676.20001220703</ele>
        <time>2022-05-29T10:03:08.000Z</time>
      </trkpt>
      <trkpt lat="44.74539" lon="5.43256">
        <ele>676.20001220703</ele>
        <time>2022-05-29T10:03:09.000Z</time>
      </trkpt>
      <trkpt lat="44.74538" lon="5.43255">
        <ele>676.20001220703</ele>
        <time>2022-05-29T10:03:10.000Z</time>
      </trkpt>
      <trkpt lat="44.74544" lon="5.43244">
        <ele>673.79998779297</ele>
        <time>2022-05-29T10:03:24.000Z</time>
      </trkpt>
      <trkpt lat="44.74545" lon="5.43243">
        <ele>673.59997558594</ele>
        <time>2022-05-29T10:03:25.000Z</time>
      </trkpt>
      <trkpt lat="44.74547" lon="5.43243">
        <ele>673.20001220703</ele>
        <time>2022-05-29T10:03:27.000Z</time>
      </trkpt>
      <trkpt lat="44.74551" lon="5.43243">
        <ele>672.40002441406</ele>
        <time>2022-05-29T10:03:32.000Z</time>
      </trkpt>
      <trkpt lat="44.74553" lon="5.43243">
        <ele>672.20001220703</ele>
        <time>2022-05-29T10:03:35.000Z</time>
      </trkpt>
      <trkpt lat="44.74556" lon="5.43245">
        <ele>671.79998779297</ele>
        <time>2022-05-29T10:03:42.000Z</time>
      </trkpt>
      <trkpt lat="44.74561" lon="5.43245">
        <ele>671</ele>
        <time>2022-05-29T10:03:47.000Z</time>
      </trkpt>
      <trkpt lat="44.74574" lon="5.43254">
        <ele>669.59997558594</ele>
        <time>2022-05-29T10:04:00.000Z</time>
      </trkpt>
      <trkpt lat="44.74583" lon="5.43269">
        <ele>669.40002441406</ele>
        <time>2022-05-29T10:04:18.000Z</time>
      </trkpt>
      <trkpt lat="44.74585" lon="5.4327">
        <ele>669.20001220703</ele>
        <time>2022-05-29T10:04:20.000Z</time>
      </trkpt>
      <trkpt lat="44.74587" lon="5.43272">
        <ele>669.20001220703</ele>
        <time>2022-05-29T10:04:22.000Z</time>
      </trkpt>
      <trkpt lat="44.74588" lon="5.43273">
        <ele>669.20001220703</ele>
        <time>2022-05-29T10:04:23.000Z</time>
      </trkpt>
      <trkpt lat="44.74589" lon="5.43274">
        <ele>669</ele>
        <time>2022-05-29T10:04:24.000Z</time>
      </trkpt>
      <trkpt lat="44.7459" lon="5.43275">
        <ele>669</ele>
        <time>2022-05-29T10:04:25.000Z</time>
      </trkpt>
      <trkpt lat="44.74593" lon="5.43278">
        <ele>668.79998779297</ele>
        <time>2022-05-29T10:04:28.000Z</time>
      </trkpt>
      <trkpt lat="44.74596" lon="5.43281">
        <ele>668.40002441406</ele>
        <time>2022-05-29T10:04:31.000Z</time>
      </trkpt>
      <trkpt lat="44.74602" lon="5.43285">
        <ele>667.79998779297</ele>
        <time>2022-05-29T10:04:36.000Z</time>
      </trkpt>
      <trkpt lat="44.74607" lon="5.43285">
        <ele>667</ele>
        <time>2022-05-29T10:04:43.000Z</time>
      </trkpt>
      <trkpt lat="44.74611" lon="5.43282">
        <ele>666.40002441406</ele>
        <time>2022-05-29T10:04:47.000Z</time>
      </trkpt>
      <trkpt lat="44.74615" lon="5.4328">
        <ele>665.79998779297</ele>
        <time>2022-05-29T10:05:04.000Z</time>
      </trkpt>
      <trkpt lat="44.74615" lon="5.43279">
        <ele>665.59997558594</ele>
        <time>2022-05-29T10:05:12.000Z</time>
      </trkpt>
      <trkpt lat="44.74619" lon="5.43277">
        <ele>665.20001220703</ele>
        <time>2022-05-29T10:05:16.000Z</time>
      </trkpt>
      <trkpt lat="44.7462" lon="5.43276">
        <ele>665</ele>
        <time>2022-05-29T10:05:17.000Z</time>
      </trkpt>
      <trkpt lat="44.74625" lon="5.4327">
        <ele>665</ele>
        <time>2022-05-29T10:05:26.000Z</time>
      </trkpt>
      <trkpt lat="44.74628" lon="5.43265">
        <ele>665</ele>
        <time>2022-05-29T10:05:33.000Z</time>
      </trkpt>
      <trkpt lat="44.74629" lon="5.43265">
        <ele>665.20001220703</ele>
        <time>2022-05-29T10:05:40.000Z</time>
      </trkpt>
      <trkpt lat="44.74636" lon="5.43259">
        <ele>665.40002441406</ele>
        <time>2022-05-29T10:05:54.000Z</time>
      </trkpt>
      <trkpt lat="44.74644" lon="5.43242">
        <ele>665.20001220703</ele>
        <time>2022-05-29T10:06:15.000Z</time>
      </trkpt>
      <trkpt lat="44.74642" lon="5.43247">
        <ele>665.20001220703</ele>
        <time>2022-05-29T10:06:40.000Z</time>
      </trkpt>
      <trkpt lat="44.74637" lon="5.43257">
        <ele>665.40002441406</ele>
        <time>2022-05-29T10:06:48.000Z</time>
      </trkpt>
      <trkpt lat="44.74613" lon="5.43295">
        <ele>667</ele>
        <time>2022-05-29T10:07:27.000Z</time>
      </trkpt>
      <trkpt lat="44.74605" lon="5.43326">
        <ele>671.59997558594</ele>
        <time>2022-05-29T10:08:18.000Z</time>
      </trkpt>
      <trkpt lat="44.74604" lon="5.43326">
        <ele>671.59997558594</ele>
        <time>2022-05-29T10:08:28.000Z</time>
      </trkpt>
      <trkpt lat="44.74604" lon="5.43324">
        <ele>671.40002441406</ele>
        <time>2022-05-29T10:08:39.000Z</time>
      </trkpt>
      <trkpt lat="44.74606" lon="5.43308">
        <ele>669.59997558594</ele>
        <time>2022-05-29T10:08:48.000Z</time>
      </trkpt>
      <trkpt lat="44.74608" lon="5.43305">
        <ele>669</ele>
        <time>2022-05-29T10:08:50.000Z</time>
      </trkpt>
      <trkpt lat="44.74608" lon="5.43304">
        <ele>668.79998779297</ele>
        <time>2022-05-29T10:08:51.000Z</time>
      </trkpt>
      <trkpt lat="44.74613" lon="5.43297">
        <ele>667.20001220703</ele>
        <time>2022-05-29T10:08:58.000Z</time>
      </trkpt>
      <trkpt lat="44.74614" lon="5.43296">
        <ele>667</ele>
        <time>2022-05-29T10:08:59.000Z</time>
      </trkpt>
      <trkpt lat="44.74614" lon="5.43294">
        <ele>666.59997558594</ele>
        <time>2022-05-29T10:09:01.000Z</time>
      </trkpt>
      <trkpt lat="44.74615" lon="5.43293">
        <ele>666.40002441406</ele>
        <time>2022-05-29T10:09:04.000Z</time>
      </trkpt>
      <trkpt lat="44.7462" lon="5.43286">
        <ele>665.40002441406</ele>
        <time>2022-05-29T10:09:10.000Z</time>
      </trkpt>
      <trkpt lat="44.74621" lon="5.43284">
        <ele>665.40002441406</ele>
        <time>2022-05-29T10:09:12.000Z</time>
      </trkpt>
      <trkpt lat="44.74622" lon="5.43284">
        <ele>665.40002441406</ele>
        <time>2022-05-29T10:09:13.000Z</time>
      </trkpt>
      <trkpt lat="44.74625" lon="5.43282">
        <ele>665.59997558594</ele>
        <time>2022-05-29T10:09:16.000Z</time>
      </trkpt>
      <trkpt lat="44.74631" lon="5.43275">
        <ele>665.79998779297</ele>
        <time>2022-05-29T10:09:23.000Z</time>
      </trkpt>
      <trkpt lat="44.74632" lon="5.43275">
        <ele>665.79998779297</ele>
        <time>2022-05-29T10:09:24.000Z</time>
      </trkpt>
      <trkpt lat="44.74634" lon="5.43268">
        <ele>665.59997558594</ele>
        <time>2022-05-29T10:09:28.000Z</time>
      </trkpt>
      <trkpt lat="44.74635" lon="5.43265">
        <ele>665.59997558594</ele>
        <time>2022-05-29T10:09:30.000Z</time>
      </trkpt>
      <trkpt lat="44.74646" lon="5.43233">
        <ele>664.79998779297</ele>
        <time>2022-05-29T10:09:50.000Z</time>
      </trkpt>
      <trkpt lat="44.74652" lon="5.43195">
        <ele>662.79998779297</ele>
        <time>2022-05-29T10:10:15.000Z</time>
      </trkpt>
      <trkpt lat="44.7464" lon="5.43167">
        <ele>659.79998779297</ele>
        <time>2022-05-29T10:10:34.000Z</time>
      </trkpt>
      <trkpt lat="44.74641" lon="5.43164">
        <ele>659.79998779297</ele>
        <time>2022-05-29T10:10:51.000Z</time>
      </trkpt>
      <trkpt lat="44.74646" lon="5.43154">
        <ele>659.59997558594</ele>
        <time>2022-05-29T10:11:03.000Z</time>
      </trkpt>
      <trkpt lat="44.74651" lon="5.43145">
        <ele>659.59997558594</ele>
        <time>2022-05-29T10:11:12.000Z</time>
      </trkpt>
      <trkpt lat="44.74654" lon="5.4314">
        <ele>659.59997558594</ele>
        <time>2022-05-29T10:11:16.000Z</time>
      </trkpt>
      <trkpt lat="44.74657" lon="5.43117">
        <ele>657.20001220703</ele>
        <time>2022-05-29T10:11:26.000Z</time>
      </trkpt>
      <trkpt lat="44.74657" lon="5.43112">
        <ele>656.59997558594</ele>
        <time>2022-05-29T10:11:28.000Z</time>
      </trkpt>
      <trkpt lat="44.74656" lon="5.43067">
        <ele>651.20001220703</ele>
        <time>2022-05-29T10:11:40.000Z</time>
      </trkpt>
      <trkpt lat="44.74655" lon="5.43063">
        <ele>650.79998779297</ele>
        <time>2022-05-29T10:11:41.000Z</time>
      </trkpt>
      <trkpt lat="44.74655" lon="5.43058">
        <ele>650.40002441406</ele>
        <time>2022-05-29T10:11:43.000Z</time>
      </trkpt>
      <trkpt lat="44.74655" lon="5.43056">
        <ele>650.20001220703</ele>
        <time>2022-05-29T10:11:45.000Z</time>
      </trkpt>
      <trkpt lat="44.74654" lon="5.43055">
        <ele>650.20001220703</ele>
        <time>2022-05-29T10:11:46.000Z</time>
      </trkpt>
      <trkpt lat="44.74654" lon="5.43055">
        <ele>650.20001220703</ele>
        <time>2022-05-29T10:11:47.000Z</time>
      </trkpt>
      <trkpt lat="44.74656" lon="5.43056">
        <ele>650.40002441406</ele>
        <time>2022-05-29T10:11:58.000Z</time>
      </trkpt>
      <trkpt lat="44.74658" lon="5.43053">
        <ele>650.59997558594</ele>
        <time>2022-05-29T10:12:01.000Z</time>
      </trkpt>
      <trkpt lat="44.74659" lon="5.4305">
        <ele>650.40002441406</ele>
        <time>2022-05-29T10:12:03.000Z</time>
      </trkpt>
      <trkpt lat="44.74659" lon="5.43048">
        <ele>650.40002441406</ele>
        <time>2022-05-29T10:12:11.000Z</time>
      </trkpt>
      <trkpt lat="44.74658" lon="5.43048">
        <ele>650.20001220703</ele>
        <time>2022-05-29T10:12:15.000Z</time>
      </trkpt>
      <trkpt lat="44.74658" lon="5.43048">
        <ele>650.20001220703</ele>
        <time>2022-05-29T10:12:19.000Z</time>
      </trkpt>
      <trkpt lat="44.74658" lon="5.43049">
        <ele>650.20001220703</ele>
        <time>2022-05-29T10:12:23.000Z</time>
      </trkpt>
      <trkpt lat="44.74658" lon="5.43049">
        <ele>650.20001220703</ele>
        <time>2022-05-29T10:12:27.000Z</time>
      </trkpt>
      <trkpt lat="44.74658" lon="5.43048">
        <ele>650.20001220703</ele>
        <time>2022-05-29T10:12:29.000Z</time>
      </trkpt>
      <trkpt lat="44.74657" lon="5.43048">
        <ele>650</ele>
        <time>2022-05-29T10:12:32.000Z</time>
      </trkpt>
      <trkpt lat="44.74657" lon="5.43047">
        <ele>650</ele>
        <time>2022-05-29T10:12:33.000Z</time>
      </trkpt>
      <trkpt lat="44.74657" lon="5.43047">
        <ele>650</ele>
        <time>2022-05-29T10:12:34.000Z</time>
      </trkpt>
      <trkpt lat="44.74657" lon="5.43047">
        <ele>650</ele>
        <time>2022-05-29T10:12:35.000Z</time>
      </trkpt>
      <trkpt lat="44.74656" lon="5.43038">
        <ele>649.40002441406</ele>
        <time>2022-05-29T10:12:41.000Z</time>
      </trkpt>
      <trkpt lat="44.74654" lon="5.43023">
        <ele>648</ele>
        <time>2022-05-29T10:12:48.000Z</time>
      </trkpt>
      <trkpt lat="44.74653" lon="5.43001">
        <ele>646.59997558594</ele>
        <time>2022-05-29T10:12:55.000Z</time>
      </trkpt>
      <trkpt lat="44.74655" lon="5.4299">
        <ele>646.59997558594</ele>
        <time>2022-05-29T10:12:57.000Z</time>
      </trkpt>
      <trkpt lat="44.74665" lon="5.42969">
        <ele>648</ele>
        <time>2022-05-29T10:13:07.000Z</time>
      </trkpt>
      <trkpt lat="44.74711" lon="5.42957">
        <ele>655.79998779297</ele>
        <time>2022-05-29T10:13:22.000Z</time>
      </trkpt>
      <trkpt lat="44.74712" lon="5.42956">
        <ele>656</ele>
        <time>2022-05-29T10:13:23.000Z</time>
      </trkpt>
      <trkpt lat="44.74714" lon="5.42956">
        <ele>656.20001220703</ele>
        <time>2022-05-29T10:13:24.000Z</time>
      </trkpt>
      <trkpt lat="44.74714" lon="5.42957">
        <ele>656.40002441406</ele>
        <time>2022-05-29T10:13:27.000Z</time>
      </trkpt>
      <trkpt lat="44.74714" lon="5.42958">
        <ele>656.40002441406</ele>
        <time>2022-05-29T10:13:29.000Z</time>
      </trkpt>
      <trkpt lat="44.74714" lon="5.42958">
        <ele>656.40002441406</ele>
        <time>2022-05-29T10:13:30.000Z</time>
      </trkpt>
      <trkpt lat="44.74717" lon="5.42957">
        <ele>656.59997558594</ele>
        <time>2022-05-29T10:13:32.000Z</time>
      </trkpt>
      <trkpt lat="44.74722" lon="5.42954">
        <ele>657</ele>
        <time>2022-05-29T10:13:36.000Z</time>
      </trkpt>
      <trkpt lat="44.74732" lon="5.42949">
        <ele>657.79998779297</ele>
        <time>2022-05-29T10:13:43.000Z</time>
      </trkpt>
      <trkpt lat="44.74773" lon="5.42941">
        <ele>661.59997558594</ele>
        <time>2022-05-29T10:14:06.000Z</time>
      </trkpt>
      <trkpt lat="44.74777" lon="5.4294">
        <ele>661.79998779297</ele>
        <time>2022-05-29T10:14:09.000Z</time>
      </trkpt>
      <trkpt lat="44.74779" lon="5.4294">
        <ele>662</ele>
        <time>2022-05-29T10:14:11.000Z</time>
      </trkpt>
      <trkpt lat="44.7478" lon="5.4294">
        <ele>662</ele>
        <time>2022-05-29T10:14:12.000Z</time>
      </trkpt>
      <trkpt lat="44.74781" lon="5.4294">
        <ele>662.20001220703</ele>
        <time>2022-05-29T10:14:13.000Z</time>
      </trkpt>
      <trkpt lat="44.74783" lon="5.42941">
        <ele>662.40002441406</ele>
        <time>2022-05-29T10:14:14.000Z</time>
      </trkpt>
      <trkpt lat="44.74789" lon="5.42946">
        <ele>663.79998779297</ele>
        <time>2022-05-29T10:14:18.000Z</time>
      </trkpt>
      <trkpt lat="44.74803" lon="5.42963">
        <ele>666.59997558594</ele>
        <time>2022-05-29T10:14:31.000Z</time>
      </trkpt>
      <trkpt lat="44.74811" lon="5.42961">
        <ele>666.59997558594</ele>
        <time>2022-05-29T10:14:37.000Z</time>
      </trkpt>
      <trkpt lat="44.74813" lon="5.42955">
        <ele>665.59997558594</ele>
        <time>2022-05-29T10:14:42.000Z</time>
      </trkpt>
      <trkpt lat="44.74816" lon="5.42948">
        <ele>664.40002441406</ele>
        <time>2022-05-29T10:14:47.000Z</time>
      </trkpt>
      <trkpt lat="44.74805" lon="5.42913">
        <ele>658.40002441406</ele>
        <time>2022-05-29T10:15:09.000Z</time>
      </trkpt>
      <trkpt lat="44.74808" lon="5.42903">
        <ele>656.79998779297</ele>
        <time>2022-05-29T10:15:14.000Z</time>
      </trkpt>
      <trkpt lat="44.74826" lon="5.42895">
        <ele>657.79998779297</ele>
        <time>2022-05-29T10:15:29.000Z</time>
      </trkpt>
      <trkpt lat="44.7484" lon="5.42885">
        <ele>658.20001220703</ele>
        <time>2022-05-29T10:15:43.000Z</time>
      </trkpt>
      <trkpt lat="44.74843" lon="5.42882">
        <ele>658.20001220703</ele>
        <time>2022-05-29T10:15:46.000Z</time>
      </trkpt>
      <trkpt lat="44.74845" lon="5.4288">
        <ele>658.20001220703</ele>
        <time>2022-05-29T10:15:48.000Z</time>
      </trkpt>
      <trkpt lat="44.74846" lon="5.42879">
        <ele>658.20001220703</ele>
        <time>2022-05-29T10:15:49.000Z</time>
      </trkpt>
      <trkpt lat="44.74857" lon="5.42872">
        <ele>658.79998779297</ele>
        <time>2022-05-29T10:15:58.000Z</time>
      </trkpt>
      <trkpt lat="44.74862" lon="5.4287">
        <ele>659</ele>
        <time>2022-05-29T10:16:02.000Z</time>
      </trkpt>
      <trkpt lat="44.74888" lon="5.4286">
        <ele>663.59997558594</ele>
        <time>2022-05-29T10:16:23.000Z</time>
      </trkpt>
      <trkpt lat="44.74896" lon="5.42847">
        <ele>664.79998779297</ele>
        <time>2022-05-29T10:16:32.000Z</time>
      </trkpt>
      <trkpt lat="44.74918" lon="5.42817">
        <ele>666.59997558594</ele>
        <time>2022-05-29T10:16:55.000Z</time>
      </trkpt>
      <trkpt lat="44.74923" lon="5.42804">
        <ele>666</ele>
        <time>2022-05-29T10:17:04.000Z</time>
      </trkpt>
      <trkpt lat="44.74921" lon="5.4277">
        <ele>664.20001220703</ele>
        <time>2022-05-29T10:17:23.000Z</time>
      </trkpt>
      <trkpt lat="44.74921" lon="5.42764">
        <ele>664</ele>
        <time>2022-05-29T10:17:27.000Z</time>
      </trkpt>
      <trkpt lat="44.7492" lon="5.42755">
        <ele>663.40002441406</ele>
        <time>2022-05-29T10:17:35.000Z</time>
      </trkpt>
      <trkpt lat="44.74922" lon="5.42748">
        <ele>663.40002441406</ele>
        <time>2022-05-29T10:17:39.000Z</time>
      </trkpt>
      <trkpt lat="44.74927" lon="5.42734">
        <ele>663.20001220703</ele>
        <time>2022-05-29T10:17:53.000Z</time>
      </trkpt>
      <trkpt lat="44.74956" lon="5.42686">
        <ele>667.59997558594</ele>
        <time>2022-05-29T10:18:32.000Z</time>
      </trkpt>
      <trkpt lat="44.74966" lon="5.42671">
        <ele>670.20001220703</ele>
        <time>2022-05-29T10:18:47.000Z</time>
      </trkpt>
      <trkpt lat="44.74968" lon="5.4267">
        <ele>670.59997558594</ele>
        <time>2022-05-29T10:18:50.000Z</time>
      </trkpt>
      <trkpt lat="44.74969" lon="5.42669">
        <ele>670.79998779297</ele>
        <time>2022-05-29T10:18:51.000Z</time>
      </trkpt>
      <trkpt lat="44.74969" lon="5.42669">
        <ele>671</ele>
        <time>2022-05-29T10:18:52.000Z</time>
      </trkpt>
      <trkpt lat="44.7497" lon="5.42669">
        <ele>671.20001220703</ele>
        <time>2022-05-29T10:18:53.000Z</time>
      </trkpt>
      <trkpt lat="44.74975" lon="5.42664">
        <ele>672.40002441406</ele>
        <time>2022-05-29T10:18:59.000Z</time>
      </trkpt>
      <trkpt lat="44.74985" lon="5.42658">
        <ele>674.59997558594</ele>
        <time>2022-05-29T10:19:08.000Z</time>
      </trkpt>
      <trkpt lat="44.74994" lon="5.42653">
        <ele>676.59997558594</ele>
        <time>2022-05-29T10:19:19.000Z</time>
      </trkpt>
      <trkpt lat="44.75013" lon="5.42643">
        <ele>680.59997558594</ele>
        <time>2022-05-29T10:19:44.000Z</time>
      </trkpt>
      <trkpt lat="44.75015" lon="5.42641">
        <ele>681.20001220703</ele>
        <time>2022-05-29T10:19:48.000Z</time>
      </trkpt>
      <trkpt lat="44.75016" lon="5.4264">
        <ele>681.40002441406</ele>
        <time>2022-05-29T10:19:49.000Z</time>
      </trkpt>
      <trkpt lat="44.75017" lon="5.42639">
        <ele>681.59997558594</ele>
        <time>2022-05-29T10:19:50.000Z</time>
      </trkpt>
      <trkpt lat="44.75018" lon="5.42638">
        <ele>681.79998779297</ele>
        <time>2022-05-29T10:19:51.000Z</time>
      </trkpt>
      <trkpt lat="44.75019" lon="5.42638">
        <ele>682</ele>
        <time>2022-05-29T10:19:52.000Z</time>
      </trkpt>
      <trkpt lat="44.75021" lon="5.42637">
        <ele>682.59997558594</ele>
        <time>2022-05-29T10:19:54.000Z</time>
      </trkpt>
      <trkpt lat="44.75025" lon="5.42636">
        <ele>683.20001220703</ele>
        <time>2022-05-29T10:19:57.000Z</time>
      </trkpt>
      <trkpt lat="44.75031" lon="5.42635">
        <ele>684.59997558594</ele>
        <time>2022-05-29T10:20:08.000Z</time>
      </trkpt>
      <trkpt lat="44.75033" lon="5.42635">
        <ele>685</ele>
        <time>2022-05-29T10:20:12.000Z</time>
      </trkpt>
      <trkpt lat="44.75038" lon="5.42633">
        <ele>686.20001220703</ele>
        <time>2022-05-29T10:20:17.000Z</time>
      </trkpt>
      <trkpt lat="44.75046" lon="5.42627">
        <ele>688.79998779297</ele>
        <time>2022-05-29T10:20:23.000Z</time>
      </trkpt>
      <trkpt lat="44.75051" lon="5.42619">
        <ele>691</ele>
        <time>2022-05-29T10:20:30.000Z</time>
      </trkpt>
      <trkpt lat="44.75052" lon="5.42615">
        <ele>691.59997558594</ele>
        <time>2022-05-29T10:20:34.000Z</time>
      </trkpt>
      <trkpt lat="44.75051" lon="5.42611">
        <ele>691.40002441406</ele>
        <time>2022-05-29T10:20:38.000Z</time>
      </trkpt>
      <trkpt lat="44.75049" lon="5.42607">
        <ele>691.40002441406</ele>
        <time>2022-05-29T10:20:43.000Z</time>
      </trkpt>
      <trkpt lat="44.75048" lon="5.42605">
        <ele>691.20001220703</ele>
        <time>2022-05-29T10:20:45.000Z</time>
      </trkpt>
      <trkpt lat="44.75043" lon="5.42599">
        <ele>690.20001220703</ele>
        <time>2022-05-29T10:20:53.000Z</time>
      </trkpt>
      <trkpt lat="44.75041" lon="5.42596">
        <ele>689.59997558594</ele>
        <time>2022-05-29T10:20:57.000Z</time>
      </trkpt>
      <trkpt lat="44.75035" lon="5.42585">
        <ele>689</ele>
        <time>2022-05-29T10:21:06.000Z</time>
      </trkpt>
      <trkpt lat="44.75034" lon="5.42582">
        <ele>689</ele>
        <time>2022-05-29T10:21:08.000Z</time>
      </trkpt>
      <trkpt lat="44.75034" lon="5.42582">
        <ele>689</ele>
        <time>2022-05-29T10:21:09.000Z</time>
      </trkpt>
      <trkpt lat="44.75032" lon="5.4258">
        <ele>689</ele>
        <time>2022-05-29T10:21:11.000Z</time>
      </trkpt>
      <trkpt lat="44.7503" lon="5.42576">
        <ele>688.79998779297</ele>
        <time>2022-05-29T10:21:15.000Z</time>
      </trkpt>
      <trkpt lat="44.75027" lon="5.42571">
        <ele>688.59997558594</ele>
        <time>2022-05-29T10:21:19.000Z</time>
      </trkpt>
      <trkpt lat="44.75026" lon="5.4257">
        <ele>688.59997558594</ele>
        <time>2022-05-29T10:21:20.000Z</time>
      </trkpt>
      <trkpt lat="44.75025" lon="5.42569">
        <ele>688.40002441406</ele>
        <time>2022-05-29T10:21:21.000Z</time>
      </trkpt>
      <trkpt lat="44.75024" lon="5.42568">
        <ele>688.40002441406</ele>
        <time>2022-05-29T10:21:22.000Z</time>
      </trkpt>
      <trkpt lat="44.75021" lon="5.4256">
        <ele>688.40002441406</ele>
        <time>2022-05-29T10:21:27.000Z</time>
      </trkpt>
      <trkpt lat="44.75021" lon="5.42552">
        <ele>689</ele>
        <time>2022-05-29T10:21:32.000Z</time>
      </trkpt>
      <trkpt lat="44.7502" lon="5.42548">
        <ele>689.20001220703</ele>
        <time>2022-05-29T10:21:35.000Z</time>
      </trkpt>
      <trkpt lat="44.75023" lon="5.42543">
        <ele>691</ele>
        <time>2022-05-29T10:21:41.000Z</time>
      </trkpt>
      <trkpt lat="44.75025" lon="5.42539">
        <ele>692.20001220703</ele>
        <time>2022-05-29T10:21:44.000Z</time>
      </trkpt>
      <trkpt lat="44.75029" lon="5.4253">
        <ele>694.40002441406</ele>
        <time>2022-05-29T10:21:51.000Z</time>
      </trkpt>
      <trkpt lat="44.75031" lon="5.42516">
        <ele>696.79998779297</ele>
        <time>2022-05-29T10:21:59.000Z</time>
      </trkpt>
      <trkpt lat="44.75033" lon="5.425">
        <ele>699.59997558594</ele>
        <time>2022-05-29T10:22:10.000Z</time>
      </trkpt>
      <trkpt lat="44.75034" lon="5.42499">
        <ele>700</ele>
        <time>2022-05-29T10:22:11.000Z</time>
      </trkpt>
      <trkpt lat="44.75034" lon="5.42498">
        <ele>700.20001220703</ele>
        <time>2022-05-29T10:22:12.000Z</time>
      </trkpt>
      <trkpt lat="44.75035" lon="5.42495">
        <ele>700.79998779297</ele>
        <time>2022-05-29T10:22:13.000Z</time>
      </trkpt>
      <trkpt lat="44.75036" lon="5.42485">
        <ele>702.40002441406</ele>
        <time>2022-05-29T10:22:23.000Z</time>
      </trkpt>
      <trkpt lat="44.75045" lon="5.42467">
        <ele>707.79998779297</ele>
        <time>2022-05-29T10:22:37.000Z</time>
      </trkpt>
      <trkpt lat="44.75046" lon="5.42466">
        <ele>708.20001220703</ele>
        <time>2022-05-29T10:22:38.000Z</time>
      </trkpt>
      <trkpt lat="44.75047" lon="5.42464">
        <ele>708.59997558594</ele>
        <time>2022-05-29T10:22:39.000Z</time>
      </trkpt>
      <trkpt lat="44.75054" lon="5.42445">
        <ele>713.20001220703</ele>
        <time>2022-05-29T10:22:52.000Z</time>
      </trkpt>
      <trkpt lat="44.75059" lon="5.42416">
        <ele>718.59997558594</ele>
        <time>2022-05-29T10:23:10.000Z</time>
      </trkpt>
      <trkpt lat="44.75063" lon="5.42413">
        <ele>720</ele>
        <time>2022-05-29T10:23:14.000Z</time>
      </trkpt>
      <trkpt lat="44.75079" lon="5.42354">
        <ele>723.40002441406</ele>
        <time>2022-05-29T10:23:48.000Z</time>
      </trkpt>
      <trkpt lat="44.75078" lon="5.4231">
        <ele>724</ele>
        <time>2022-05-29T10:24:13.000Z</time>
      </trkpt>
      <trkpt lat="44.75083" lon="5.42272">
        <ele>724.20001220703</ele>
        <time>2022-05-29T10:24:37.000Z</time>
      </trkpt>
      <trkpt lat="44.75085" lon="5.42266">
        <ele>724.20001220703</ele>
        <time>2022-05-29T10:24:42.000Z</time>
      </trkpt>
      <trkpt lat="44.75085" lon="5.42264">
        <ele>724.20001220703</ele>
        <time>2022-05-29T10:24:43.000Z</time>
      </trkpt>
      <trkpt lat="44.75086" lon="5.42263">
        <ele>724.20001220703</ele>
        <time>2022-05-29T10:24:44.000Z</time>
      </trkpt>
      <trkpt lat="44.75088" lon="5.42255">
        <ele>725.20001220703</ele>
        <time>2022-05-29T10:24:52.000Z</time>
      </trkpt>
      <trkpt lat="44.75088" lon="5.42253">
        <ele>725.20001220703</ele>
        <time>2022-05-29T10:24:53.000Z</time>
      </trkpt>
      <trkpt lat="44.75091" lon="5.4225">
        <ele>725.59997558594</ele>
        <time>2022-05-29T10:25:13.000Z</time>
      </trkpt>
      <trkpt lat="44.75091" lon="5.42252">
        <ele>725.40002441406</ele>
        <time>2022-05-29T10:25:19.000Z</time>
      </trkpt>
      <trkpt lat="44.75091" lon="5.42252">
        <ele>725.40002441406</ele>
        <time>2022-05-29T10:25:21.000Z</time>
      </trkpt>
      <trkpt lat="44.75093" lon="5.42246">
        <ele>726</ele>
        <time>2022-05-29T10:25:34.000Z</time>
      </trkpt>
      <trkpt lat="44.75094" lon="5.42236">
        <ele>727.20001220703</ele>
        <time>2022-05-29T10:25:43.000Z</time>
      </trkpt>
      <trkpt lat="44.75089" lon="5.42186">
        <ele>732.79998779297</ele>
        <time>2022-05-29T10:26:15.000Z</time>
      </trkpt>
      <trkpt lat="44.75052" lon="5.42151">
        <ele>737.59997558594</ele>
        <time>2022-05-29T10:26:54.000Z</time>
      </trkpt>
      <trkpt lat="44.7501" lon="5.42128">
        <ele>740.79998779297</ele>
        <time>2022-05-29T10:27:30.000Z</time>
      </trkpt>
      <trkpt lat="44.74988" lon="5.42121">
        <ele>741.59997558594</ele>
        <time>2022-05-29T10:27:52.000Z</time>
      </trkpt>
      <trkpt lat="44.74954" lon="5.42107">
        <ele>743.40002441406</ele>
        <time>2022-05-29T10:28:22.000Z</time>
      </trkpt>
      <trkpt lat="44.74917" lon="5.42077">
        <ele>754.40002441406</ele>
        <time>2022-05-29T10:28:56.000Z</time>
      </trkpt>
      <trkpt lat="44.74896" lon="5.42044">
        <ele>761.79998779297</ele>
        <time>2022-05-29T10:29:27.000Z</time>
      </trkpt>
      <trkpt lat="44.749" lon="5.41985">
        <ele>762.20001220703</ele>
        <time>2022-05-29T10:30:03.000Z</time>
      </trkpt>
      <trkpt lat="44.74903" lon="5.41949">
        <ele>762.79998779297</ele>
        <time>2022-05-29T10:30:39.000Z</time>
      </trkpt>
      <trkpt lat="44.74906" lon="5.41954">
        <ele>761.79998779297</ele>
        <time>2022-05-29T10:30:59.000Z</time>
      </trkpt>
      <trkpt lat="44.74905" lon="5.41954">
        <ele>762.20001220703</ele>
        <time>2022-05-29T10:31:13.000Z</time>
      </trkpt>
      <trkpt lat="44.74909" lon="5.41954">
        <ele>761.40002441406</ele>
        <time>2022-05-29T10:31:27.000Z</time>
      </trkpt>
      <trkpt lat="44.74901" lon="5.41955">
        <ele>763</ele>
        <time>2022-05-29T10:31:30.000Z</time>
      </trkpt>
      <trkpt lat="44.74899" lon="5.41958">
        <ele>763.40002441406</ele>
        <time>2022-05-29T10:31:34.000Z</time>
      </trkpt>
      <trkpt lat="44.74903" lon="5.41975">
        <ele>761.79998779297</ele>
        <time>2022-05-29T10:31:46.000Z</time>
      </trkpt>
      <trkpt lat="44.74904" lon="5.41984">
        <ele>761.40002441406</ele>
        <time>2022-05-29T10:31:52.000Z</time>
      </trkpt>
      <trkpt lat="44.74904" lon="5.41998">
        <ele>761</ele>
        <time>2022-05-29T10:32:00.000Z</time>
      </trkpt>
      <trkpt lat="44.74904" lon="5.42002">
        <ele>761</ele>
        <time>2022-05-29T10:32:02.000Z</time>
      </trkpt>
      <trkpt lat="44.74905" lon="5.42005">
        <ele>760.79998779297</ele>
        <time>2022-05-29T10:32:04.000Z</time>
      </trkpt>
      <trkpt lat="44.74905" lon="5.4201">
        <ele>760.59997558594</ele>
        <time>2022-05-29T10:32:06.000Z</time>
      </trkpt>
      <trkpt lat="44.74905" lon="5.42014">
        <ele>760.40002441406</ele>
        <time>2022-05-29T10:32:08.000Z</time>
      </trkpt>
      <trkpt lat="44.74899" lon="5.42046">
        <ele>761</ele>
        <time>2022-05-29T10:32:28.000Z</time>
      </trkpt>
      <trkpt lat="44.74902" lon="5.42048">
        <ele>760.40002441406</ele>
        <time>2022-05-29T10:32:31.000Z</time>
      </trkpt>
      <trkpt lat="44.74918" lon="5.42067">
        <ele>755</ele>
        <time>2022-05-29T10:32:47.000Z</time>
      </trkpt>
      <trkpt lat="44.74927" lon="5.42084">
        <ele>751.40002441406</ele>
        <time>2022-05-29T10:32:58.000Z</time>
      </trkpt>
      <trkpt lat="44.74922" lon="5.42092">
        <ele>751.79998779297</ele>
        <time>2022-05-29T10:33:06.000Z</time>
      </trkpt>
      <trkpt lat="44.74917" lon="5.42091">
        <ele>753</ele>
        <time>2022-05-29T10:33:14.000Z</time>
      </trkpt>
      <trkpt lat="44.74893" lon="5.42086">
        <ele>759</ele>
        <time>2022-05-29T10:33:38.000Z</time>
      </trkpt>
      <trkpt lat="44.74886" lon="5.42085">
        <ele>761</ele>
        <time>2022-05-29T10:33:44.000Z</time>
      </trkpt>
      <trkpt lat="44.74885" lon="5.42085">
        <ele>761.20001220703</ele>
        <time>2022-05-29T10:33:45.000Z</time>
      </trkpt>
      <trkpt lat="44.74884" lon="5.42084">
        <ele>761.40002441406</ele>
        <time>2022-05-29T10:33:46.000Z</time>
      </trkpt>
      <trkpt lat="44.74883" lon="5.42083">
        <ele>761.79998779297</ele>
        <time>2022-05-29T10:33:47.000Z</time>
      </trkpt>
      <trkpt lat="44.74882" lon="5.42082">
        <ele>762</ele>
        <time>2022-05-29T10:33:48.000Z</time>
      </trkpt>
      <trkpt lat="44.7488" lon="5.42081">
        <ele>762.79998779297</ele>
        <time>2022-05-29T10:33:50.000Z</time>
      </trkpt>
      <trkpt lat="44.74878" lon="5.42079">
        <ele>763.40002441406</ele>
        <time>2022-05-29T10:33:52.000Z</time>
      </trkpt>
      <trkpt lat="44.74876" lon="5.42077">
        <ele>764</ele>
        <time>2022-05-29T10:33:54.000Z</time>
      </trkpt>
      <trkpt lat="44.74875" lon="5.42075">
        <ele>764.40002441406</ele>
        <time>2022-05-29T10:33:56.000Z</time>
      </trkpt>
      <trkpt lat="44.74874" lon="5.42074">
        <ele>764.59997558594</ele>
        <time>2022-05-29T10:33:57.000Z</time>
      </trkpt>
      <trkpt lat="44.74873" lon="5.42073">
        <ele>765</ele>
        <time>2022-05-29T10:33:59.000Z</time>
      </trkpt>
      <trkpt lat="44.74871" lon="5.42072">
        <ele>765.59997558594</ele>
        <time>2022-05-29T10:34:01.000Z</time>
      </trkpt>
      <trkpt lat="44.74869" lon="5.42071">
        <ele>765.79998779297</ele>
        <time>2022-05-29T10:34:03.000Z</time>
      </trkpt>
      <trkpt lat="44.74858" lon="5.42064">
        <ele>768</ele>
        <time>2022-05-29T10:34:15.000Z</time>
      </trkpt>
      <trkpt lat="44.74857" lon="5.42063">
        <ele>768.20001220703</ele>
        <time>2022-05-29T10:34:16.000Z</time>
      </trkpt>
      <trkpt lat="44.74847" lon="5.42053">
        <ele>770.20001220703</ele>
        <time>2022-05-29T10:34:28.000Z</time>
      </trkpt>
      <trkpt lat="44.74839" lon="5.42045">
        <ele>771</ele>
        <time>2022-05-29T10:34:38.000Z</time>
      </trkpt>
      <trkpt lat="44.74819" lon="5.42023">
        <ele>771.40002441406</ele>
        <time>2022-05-29T10:34:58.000Z</time>
      </trkpt>
      <trkpt lat="44.7481" lon="5.42013">
        <ele>771.40002441406</ele>
        <time>2022-05-29T10:35:08.000Z</time>
      </trkpt>
      <trkpt lat="44.74807" lon="5.42011">
        <ele>771.79998779297</ele>
        <time>2022-05-29T10:35:11.000Z</time>
      </trkpt>
      <trkpt lat="44.74806" lon="5.42011">
        <ele>771.79998779297</ele>
        <time>2022-05-29T10:35:12.000Z</time>
      </trkpt>
      <trkpt lat="44.74804" lon="5.42008">
        <ele>771.59997558594</ele>
        <time>2022-05-29T10:35:14.000Z</time>
      </trkpt>
      <trkpt lat="44.74804" lon="5.42007">
        <ele>771.59997558594</ele>
        <time>2022-05-29T10:35:15.000Z</time>
      </trkpt>
      <trkpt lat="44.74805" lon="5.42003">
        <ele>771.20001220703</ele>
        <time>2022-05-29T10:35:18.000Z</time>
      </trkpt>
      <trkpt lat="44.74805" lon="5.42001">
        <ele>770.79998779297</ele>
        <time>2022-05-29T10:35:20.000Z</time>
      </trkpt>
      <trkpt lat="44.74806" lon="5.41997">
        <ele>770.20001220703</ele>
        <time>2022-05-29T10:35:24.000Z</time>
      </trkpt>
      <trkpt lat="44.74805" lon="5.4199">
        <ele>769.40002441406</ele>
        <time>2022-05-29T10:35:28.000Z</time>
      </trkpt>
      <trkpt lat="44.74803" lon="5.41978">
        <ele>768.59997558594</ele>
        <time>2022-05-29T10:35:35.000Z</time>
      </trkpt>
      <trkpt lat="44.748" lon="5.41961">
        <ele>769.40002441406</ele>
        <time>2022-05-29T10:35:45.000Z</time>
      </trkpt>
      <trkpt lat="44.74796" lon="5.4195">
        <ele>770.40002441406</ele>
        <time>2022-05-29T10:35:51.000Z</time>
      </trkpt>
      <trkpt lat="44.74786" lon="5.41928">
        <ele>772</ele>
        <time>2022-05-29T10:36:07.000Z</time>
      </trkpt>
      <trkpt lat="44.74775" lon="5.41907">
        <ele>771.79998779297</ele>
        <time>2022-05-29T10:36:22.000Z</time>
      </trkpt>
      <trkpt lat="44.74764" lon="5.41877">
        <ele>772.20001220703</ele>
        <time>2022-05-29T10:36:49.000Z</time>
      </trkpt>
      <trkpt lat="44.74757" lon="5.41866">
        <ele>772</ele>
        <time>2022-05-29T10:37:05.000Z</time>
      </trkpt>
      <trkpt lat="44.74751" lon="5.41856">
        <ele>771.79998779297</ele>
        <time>2022-05-29T10:37:13.000Z</time>
      </trkpt>
      <trkpt lat="44.74749" lon="5.41849">
        <ele>772.20001220703</ele>
        <time>2022-05-29T10:37:18.000Z</time>
      </trkpt>
      <trkpt lat="44.74734" lon="5.41813">
        <ele>774</ele>
        <time>2022-05-29T10:37:47.000Z</time>
      </trkpt>
      <trkpt lat="44.74729" lon="5.418">
        <ele>774.59997558594</ele>
        <time>2022-05-29T10:37:58.000Z</time>
      </trkpt>
      <trkpt lat="44.74725" lon="5.41786">
        <ele>776</ele>
        <time>2022-05-29T10:38:08.000Z</time>
      </trkpt>
      <trkpt lat="44.74723" lon="5.41761">
        <ele>779.40002441406</ele>
        <time>2022-05-29T10:38:28.000Z</time>
      </trkpt>
      <trkpt lat="44.74723" lon="5.41759">
        <ele>779.59997558594</ele>
        <time>2022-05-29T10:38:29.000Z</time>
      </trkpt>
      <trkpt lat="44.74724" lon="5.41756">
        <ele>780.40002441406</ele>
        <time>2022-05-29T10:38:31.000Z</time>
      </trkpt>
      <trkpt lat="44.74724" lon="5.41754">
        <ele>780.79998779297</ele>
        <time>2022-05-29T10:38:32.000Z</time>
      </trkpt>
      <trkpt lat="44.74725" lon="5.41752">
        <ele>781.20001220703</ele>
        <time>2022-05-29T10:38:33.000Z</time>
      </trkpt>
      <trkpt lat="44.74725" lon="5.4175">
        <ele>781.59997558594</ele>
        <time>2022-05-29T10:38:34.000Z</time>
      </trkpt>
      <trkpt lat="44.74725" lon="5.41742">
        <ele>782.79998779297</ele>
        <time>2022-05-29T10:38:38.000Z</time>
      </trkpt>
      <trkpt lat="44.74726" lon="5.41739">
        <ele>783.40002441406</ele>
        <time>2022-05-29T10:38:40.000Z</time>
      </trkpt>
      <trkpt lat="44.74726" lon="5.41739">
        <ele>783.59997558594</ele>
        <time>2022-05-29T10:38:41.000Z</time>
      </trkpt>
      <trkpt lat="44.74726" lon="5.41732">
        <ele>785.20001220703</ele>
        <time>2022-05-29T10:38:45.000Z</time>
      </trkpt>
      <trkpt lat="44.74727" lon="5.41728">
        <ele>786.20001220703</ele>
        <time>2022-05-29T10:38:47.000Z</time>
      </trkpt>
      <trkpt lat="44.74726" lon="5.41717">
        <ele>788.79998779297</ele>
        <time>2022-05-29T10:38:54.000Z</time>
      </trkpt>
      <trkpt lat="44.74726" lon="5.41703">
        <ele>792</ele>
        <time>2022-05-29T10:39:05.000Z</time>
      </trkpt>
      <trkpt lat="44.74725" lon="5.41697">
        <ele>792.79998779297</ele>
        <time>2022-05-29T10:39:09.000Z</time>
      </trkpt>
      <trkpt lat="44.74724" lon="5.41686">
        <ele>794.79998779297</ele>
        <time>2022-05-29T10:39:14.000Z</time>
      </trkpt>
      <trkpt lat="44.74724" lon="5.41675">
        <ele>797.20001220703</ele>
        <time>2022-05-29T10:39:20.000Z</time>
      </trkpt>
      <trkpt lat="44.74721" lon="5.4166">
        <ele>799.40002441406</ele>
        <time>2022-05-29T10:39:29.000Z</time>
      </trkpt>
      <trkpt lat="44.7472" lon="5.41646">
        <ele>802.20001220703</ele>
        <time>2022-05-29T10:39:37.000Z</time>
      </trkpt>
      <trkpt lat="44.74718" lon="5.41633">
        <ele>803.59997558594</ele>
        <time>2022-05-29T10:39:45.000Z</time>
      </trkpt>
      <trkpt lat="44.74707" lon="5.41612">
        <ele>807.59997558594</ele>
        <time>2022-05-29T10:40:00.000Z</time>
      </trkpt>
      <trkpt lat="44.74701" lon="5.416">
        <ele>810.59997558594</ele>
        <time>2022-05-29T10:40:12.000Z</time>
      </trkpt>
      <trkpt lat="44.74694" lon="5.41595">
        <ele>811.59997558594</ele>
        <time>2022-05-29T10:40:21.000Z</time>
      </trkpt>
      <trkpt lat="44.74691" lon="5.41594">
        <ele>811.40002441406</ele>
        <time>2022-05-29T10:40:24.000Z</time>
      </trkpt>
      <trkpt lat="44.74681" lon="5.41587">
        <ele>812.40002441406</ele>
        <time>2022-05-29T10:40:36.000Z</time>
      </trkpt>
      <trkpt lat="44.74678" lon="5.41584">
        <ele>813</ele>
        <time>2022-05-29T10:40:42.000Z</time>
      </trkpt>
      <trkpt lat="44.74668" lon="5.41576">
        <ele>814.59997558594</ele>
        <time>2022-05-29T10:40:54.000Z</time>
      </trkpt>
      <trkpt lat="44.7466" lon="5.41571">
        <ele>815.40002441406</ele>
        <time>2022-05-29T10:41:03.000Z</time>
      </trkpt>
      <trkpt lat="44.74635" lon="5.41562">
        <ele>815.20001220703</ele>
        <time>2022-05-29T10:41:29.000Z</time>
      </trkpt>
      <trkpt lat="44.74635" lon="5.41555">
        <ele>817.59997558594</ele>
        <time>2022-05-29T10:41:38.000Z</time>
      </trkpt>
      <trkpt lat="44.74644" lon="5.41552">
        <ele>819.79998779297</ele>
        <time>2022-05-29T10:41:51.000Z</time>
      </trkpt>
      <trkpt lat="44.74659" lon="5.4155">
        <ele>822.59997558594</ele>
        <time>2022-05-29T10:42:07.000Z</time>
      </trkpt>
      <trkpt lat="44.74665" lon="5.41549">
        <ele>823.59997558594</ele>
        <time>2022-05-29T10:42:11.000Z</time>
      </trkpt>
      <trkpt lat="44.7469" lon="5.41543">
        <ele>829.40002441406</ele>
        <time>2022-05-29T10:42:35.000Z</time>
      </trkpt>
      <trkpt lat="44.74707" lon="5.41533">
        <ele>835.40002441406</ele>
        <time>2022-05-29T10:42:48.000Z</time>
      </trkpt>
      <trkpt lat="44.74726" lon="5.41534">
        <ele>837.59997558594</ele>
        <time>2022-05-29T10:43:04.000Z</time>
      </trkpt>
      <trkpt lat="44.74728" lon="5.41536">
        <ele>837</ele>
        <time>2022-05-29T10:43:06.000Z</time>
      </trkpt>
      <trkpt lat="44.74744" lon="5.41544">
        <ele>836</ele>
        <time>2022-05-29T10:43:24.000Z</time>
      </trkpt>
      <trkpt lat="44.74751" lon="5.41544">
        <ele>837</ele>
        <time>2022-05-29T10:43:28.000Z</time>
      </trkpt>
      <trkpt lat="44.74765" lon="5.41555">
        <ele>835.59997558594</ele>
        <time>2022-05-29T10:43:39.000Z</time>
      </trkpt>
      <trkpt lat="44.74782" lon="5.41591">
        <ele>830.79998779297</ele>
        <time>2022-05-29T10:44:03.000Z</time>
      </trkpt>
      <trkpt lat="44.74793" lon="5.41601">
        <ele>830</ele>
        <time>2022-05-29T10:44:18.000Z</time>
      </trkpt>
      <trkpt lat="44.74805" lon="5.41588">
        <ele>834.20001220703</ele>
        <time>2022-05-29T10:44:31.000Z</time>
      </trkpt>
      <trkpt lat="44.74818" lon="5.41572">
        <ele>839.20001220703</ele>
        <time>2022-05-29T10:44:43.000Z</time>
      </trkpt>
      <trkpt lat="44.74817" lon="5.41568">
        <ele>839.79998779297</ele>
        <time>2022-05-29T10:44:45.000Z</time>
      </trkpt>
      <trkpt lat="44.74817" lon="5.41567">
        <ele>840.40002441406</ele>
        <time>2022-05-29T10:44:49.000Z</time>
      </trkpt>
      <trkpt lat="44.74817" lon="5.41566">
        <ele>840.40002441406</ele>
        <time>2022-05-29T10:44:50.000Z</time>
      </trkpt>
      <trkpt lat="44.74817" lon="5.41566">
        <ele>840.40002441406</ele>
        <time>2022-05-29T10:44:51.000Z</time>
      </trkpt>
      <trkpt lat="44.74817" lon="5.41568">
        <ele>840</ele>
        <time>2022-05-29T10:44:58.000Z</time>
      </trkpt>
      <trkpt lat="44.74814" lon="5.41569">
        <ele>839.20001220703</ele>
        <time>2022-05-29T10:45:18.000Z</time>
      </trkpt>
      <trkpt lat="44.74813" lon="5.41569">
        <ele>839.20001220703</ele>
        <time>2022-05-29T10:45:21.000Z</time>
      </trkpt>
      <trkpt lat="44.74814" lon="5.41568">
        <ele>839.59997558594</ele>
        <time>2022-05-29T10:45:25.000Z</time>
      </trkpt>
      <trkpt lat="44.74815" lon="5.41568">
        <ele>839.59997558594</ele>
        <time>2022-05-29T10:45:29.000Z</time>
      </trkpt>
      <trkpt lat="44.74815" lon="5.41568">
        <ele>839.59997558594</ele>
        <time>2022-05-29T10:45:33.000Z</time>
      </trkpt>
      <trkpt lat="44.74815" lon="5.41568">
        <ele>839.59997558594</ele>
        <time>2022-05-29T10:45:39.000Z</time>
      </trkpt>
      <trkpt lat="44.74814" lon="5.41568">
        <ele>839.59997558594</ele>
        <time>2022-05-29T10:45:46.000Z</time>
      </trkpt>
      <trkpt lat="44.74814" lon="5.41568">
        <ele>839.59997558594</ele>
        <time>2022-05-29T10:45:59.000Z</time>
      </trkpt>
      <trkpt lat="44.74814" lon="5.41568">
        <ele>839.40002441406</ele>
        <time>2022-05-29T10:46:02.000Z</time>
      </trkpt>
      <trkpt lat="44.74813" lon="5.41566">
        <ele>839.79998779297</ele>
        <time>2022-05-29T10:46:30.000Z</time>
      </trkpt>
      <trkpt lat="44.74813" lon="5.41564">
        <ele>840.20001220703</ele>
        <time>2022-05-29T10:46:42.000Z</time>
      </trkpt>
      <trkpt lat="44.74811" lon="5.41564">
        <ele>840</ele>
        <time>2022-05-29T10:46:53.000Z</time>
      </trkpt>
      <trkpt lat="44.74812" lon="5.41567">
        <ele>839.40002441406</ele>
        <time>2022-05-29T10:47:01.000Z</time>
      </trkpt>
      <trkpt lat="44.74812" lon="5.41567">
        <ele>839.40002441406</ele>
        <time>2022-05-29T10:47:02.000Z</time>
      </trkpt>
      <trkpt lat="44.74812" lon="5.41567">
        <ele>839.40002441406</ele>
        <time>2022-05-29T10:47:03.000Z</time>
      </trkpt>
      <trkpt lat="44.74815" lon="5.41567">
        <ele>840</ele>
        <time>2022-05-29T10:47:06.000Z</time>
      </trkpt>
      <trkpt lat="44.74816" lon="5.41561">
        <ele>841.40002441406</ele>
        <time>2022-05-29T10:47:18.000Z</time>
      </trkpt>
      <trkpt lat="44.74827" lon="5.41552">
        <ele>845.40002441406</ele>
        <time>2022-05-29T10:47:32.000Z</time>
      </trkpt>
      <trkpt lat="44.74834" lon="5.41542">
        <ele>849.20001220703</ele>
        <time>2022-05-29T10:47:43.000Z</time>
      </trkpt>
      <trkpt lat="44.74837" lon="5.4154">
        <ele>850</ele>
        <time>2022-05-29T10:47:46.000Z</time>
      </trkpt>
      <trkpt lat="44.74842" lon="5.41536">
        <ele>852</ele>
        <time>2022-05-29T10:47:53.000Z</time>
      </trkpt>
      <trkpt lat="44.74843" lon="5.41535">
        <ele>852.59997558594</ele>
        <time>2022-05-29T10:47:55.000Z</time>
      </trkpt>
      <trkpt lat="44.74844" lon="5.41535">
        <ele>852.79998779297</ele>
        <time>2022-05-29T10:47:56.000Z</time>
      </trkpt>
      <trkpt lat="44.74844" lon="5.41534">
        <ele>853</ele>
        <time>2022-05-29T10:47:57.000Z</time>
      </trkpt>
      <trkpt lat="44.74845" lon="5.41534">
        <ele>853.20001220703</ele>
        <time>2022-05-29T10:47:58.000Z</time>
      </trkpt>
      <trkpt lat="44.74853" lon="5.41529">
        <ele>855.79998779297</ele>
        <time>2022-05-29T10:48:06.000Z</time>
      </trkpt>
      <trkpt lat="44.74856" lon="5.41524">
        <ele>857.59997558594</ele>
        <time>2022-05-29T10:48:14.000Z</time>
      </trkpt>
      <trkpt lat="44.74859" lon="5.41518">
        <ele>859.59997558594</ele>
        <time>2022-05-29T10:48:19.000Z</time>
      </trkpt>
      <trkpt lat="44.74871" lon="5.41503">
        <ele>865.59997558594</ele>
        <time>2022-05-29T10:48:36.000Z</time>
      </trkpt>
      <trkpt lat="44.74878" lon="5.41496">
        <ele>866.59997558594</ele>
        <time>2022-05-29T10:48:45.000Z</time>
      </trkpt>
      <trkpt lat="44.74882" lon="5.41493">
        <ele>867</ele>
        <time>2022-05-29T10:48:49.000Z</time>
      </trkpt>
      <trkpt lat="44.74884" lon="5.41491">
        <ele>867.20001220703</ele>
        <time>2022-05-29T10:48:52.000Z</time>
      </trkpt>
      <trkpt lat="44.74888" lon="5.41489">
        <ele>867.40002441406</ele>
        <time>2022-05-29T10:48:54.000Z</time>
      </trkpt>
      <trkpt lat="44.74888" lon="5.41489">
        <ele>867.40002441406</ele>
        <time>2022-05-29T10:48:55.000Z</time>
      </trkpt>
      <trkpt lat="44.7489" lon="5.41487">
        <ele>867.59997558594</ele>
        <time>2022-05-29T10:48:57.000Z</time>
      </trkpt>
      <trkpt lat="44.74899" lon="5.41483">
        <ele>867.79998779297</ele>
        <time>2022-05-29T10:49:06.000Z</time>
      </trkpt>
      <trkpt lat="44.749" lon="5.41483">
        <ele>867.79998779297</ele>
        <time>2022-05-29T10:49:07.000Z</time>
      </trkpt>
      <trkpt lat="44.74901" lon="5.41481">
        <ele>868.40002441406</ele>
        <time>2022-05-29T10:49:09.000Z</time>
      </trkpt>
      <trkpt lat="44.74905" lon="5.41478">
        <ele>868.59997558594</ele>
        <time>2022-05-29T10:49:14.000Z</time>
      </trkpt>
      <trkpt lat="44.74914" lon="5.4147">
        <ele>869.79998779297</ele>
        <time>2022-05-29T10:49:29.000Z</time>
      </trkpt>
      <trkpt lat="44.74915" lon="5.41469">
        <ele>870.20001220703</ele>
        <time>2022-05-29T10:49:30.000Z</time>
      </trkpt>
      <trkpt lat="44.74919" lon="5.41462">
        <ele>871.79998779297</ele>
        <time>2022-05-29T10:49:35.000Z</time>
      </trkpt>
      <trkpt lat="44.74922" lon="5.41458">
        <ele>873</ele>
        <time>2022-05-29T10:49:39.000Z</time>
      </trkpt>
      <trkpt lat="44.74922" lon="5.41448">
        <ele>876.59997558594</ele>
        <time>2022-05-29T10:49:47.000Z</time>
      </trkpt>
      <trkpt lat="44.74925" lon="5.41444">
        <ele>877.59997558594</ele>
        <time>2022-05-29T10:49:50.000Z</time>
      </trkpt>
      <trkpt lat="44.74929" lon="5.41437">
        <ele>879.40002441406</ele>
        <time>2022-05-29T10:49:59.000Z</time>
      </trkpt>
      <trkpt lat="44.74932" lon="5.41424">
        <ele>883.20001220703</ele>
        <time>2022-05-29T10:50:09.000Z</time>
      </trkpt>
      <trkpt lat="44.74937" lon="5.4141">
        <ele>887.20001220703</ele>
        <time>2022-05-29T10:50:21.000Z</time>
      </trkpt>
      <trkpt lat="44.74942" lon="5.41402">
        <ele>889</ele>
        <time>2022-05-29T10:50:29.000Z</time>
      </trkpt>
      <trkpt lat="44.74944" lon="5.41399">
        <ele>889.79998779297</ele>
        <time>2022-05-29T10:50:31.000Z</time>
      </trkpt>
      <trkpt lat="44.74945" lon="5.41397">
        <ele>890.20001220703</ele>
        <time>2022-05-29T10:50:33.000Z</time>
      </trkpt>
      <trkpt lat="44.74948" lon="5.41397">
        <ele>890.20001220703</ele>
        <time>2022-05-29T10:50:34.000Z</time>
      </trkpt>
      <trkpt lat="44.74949" lon="5.41395">
        <ele>890.20001220703</ele>
        <time>2022-05-29T10:50:35.000Z</time>
      </trkpt>
      <trkpt lat="44.74956" lon="5.41388">
        <ele>891.79998779297</ele>
        <time>2022-05-29T10:50:43.000Z</time>
      </trkpt>
      <trkpt lat="44.74956" lon="5.41386">
        <ele>892</ele>
        <time>2022-05-29T10:50:44.000Z</time>
      </trkpt>
      <trkpt lat="44.74961" lon="5.41383">
        <ele>892.20001220703</ele>
        <time>2022-05-29T10:50:50.000Z</time>
      </trkpt>
      <trkpt lat="44.74961" lon="5.41381">
        <ele>892.40002441406</ele>
        <time>2022-05-29T10:50:52.000Z</time>
      </trkpt>
      <trkpt lat="44.74961" lon="5.41381">
        <ele>892.59997558594</ele>
        <time>2022-05-29T10:50:53.000Z</time>
      </trkpt>
      <trkpt lat="44.74962" lon="5.4138">
        <ele>892.79998779297</ele>
        <time>2022-05-29T10:50:54.000Z</time>
      </trkpt>
      <trkpt lat="44.74963" lon="5.41375">
        <ele>894.40002441406</ele>
        <time>2022-05-29T10:50:58.000Z</time>
      </trkpt>
      <trkpt lat="44.74965" lon="5.41368">
        <ele>896</ele>
        <time>2022-05-29T10:51:04.000Z</time>
      </trkpt>
      <trkpt lat="44.74969" lon="5.41365">
        <ele>896.40002441406</ele>
        <time>2022-05-29T10:51:07.000Z</time>
      </trkpt>
      <trkpt lat="44.7497" lon="5.41362">
        <ele>897</ele>
        <time>2022-05-29T10:51:08.000Z</time>
      </trkpt>
      <trkpt lat="44.7498" lon="5.41352">
        <ele>898.20001220703</ele>
        <time>2022-05-29T10:51:16.000Z</time>
      </trkpt>
      <trkpt lat="44.74982" lon="5.41347">
        <ele>899.59997558594</ele>
        <time>2022-05-29T10:51:21.000Z</time>
      </trkpt>
      <trkpt lat="44.74994" lon="5.41316">
        <ele>905.40002441406</ele>
        <time>2022-05-29T10:51:46.000Z</time>
      </trkpt>
      <trkpt lat="44.74999" lon="5.41311">
        <ele>905.20001220703</ele>
        <time>2022-05-29T10:51:50.000Z</time>
      </trkpt>
      <trkpt lat="44.74999" lon="5.41308">
        <ele>906</ele>
        <time>2022-05-29T10:51:53.000Z</time>
      </trkpt>
      <trkpt lat="44.74998" lon="5.41305">
        <ele>907.20001220703</ele>
        <time>2022-05-29T10:51:56.000Z</time>
      </trkpt>
      <trkpt lat="44.75002" lon="5.41301">
        <ele>906.79998779297</ele>
        <time>2022-05-29T10:52:02.000Z</time>
      </trkpt>
      <trkpt lat="44.75004" lon="5.41299">
        <ele>906.79998779297</ele>
        <time>2022-05-29T10:52:04.000Z</time>
      </trkpt>
      <trkpt lat="44.7501" lon="5.41291">
        <ele>907.40002441406</ele>
        <time>2022-05-29T10:52:10.000Z</time>
      </trkpt>
      <trkpt lat="44.75017" lon="5.41285">
        <ele>906.40002441406</ele>
        <time>2022-05-29T10:52:17.000Z</time>
      </trkpt>
      <trkpt lat="44.75021" lon="5.4128">
        <ele>907.20001220703</ele>
        <time>2022-05-29T10:52:23.000Z</time>
      </trkpt>
      <trkpt lat="44.75023" lon="5.41268">
        <ele>910.79998779297</ele>
        <time>2022-05-29T10:52:31.000Z</time>
      </trkpt>
      <trkpt lat="44.75033" lon="5.41246">
        <ele>915.79998779297</ele>
        <time>2022-05-29T10:52:50.000Z</time>
      </trkpt>
      <trkpt lat="44.75047" lon="5.41231">
        <ele>916</ele>
        <time>2022-05-29T10:53:05.000Z</time>
      </trkpt>
      <trkpt lat="44.75055" lon="5.41201">
        <ele>923.20001220703</ele>
        <time>2022-05-29T10:53:31.000Z</time>
      </trkpt>
      <trkpt lat="44.75057" lon="5.41199">
        <ele>923</ele>
        <time>2022-05-29T10:53:33.000Z</time>
      </trkpt>
      <trkpt lat="44.75058" lon="5.41197">
        <ele>923</ele>
        <time>2022-05-29T10:53:34.000Z</time>
      </trkpt>
      <trkpt lat="44.7506" lon="5.41193">
        <ele>923.40002441406</ele>
        <time>2022-05-29T10:53:38.000Z</time>
      </trkpt>
      <trkpt lat="44.75061" lon="5.41191">
        <ele>923.59997558594</ele>
        <time>2022-05-29T10:53:40.000Z</time>
      </trkpt>
      <trkpt lat="44.75063" lon="5.41189">
        <ele>923.59997558594</ele>
        <time>2022-05-29T10:53:42.000Z</time>
      </trkpt>
      <trkpt lat="44.75072" lon="5.41147">
        <ele>932.79998779297</ele>
        <time>2022-05-29T10:54:15.000Z</time>
      </trkpt>
      <trkpt lat="44.75075" lon="5.41131">
        <ele>936.79998779297</ele>
        <time>2022-05-29T10:54:30.000Z</time>
      </trkpt>
      <trkpt lat="44.75081" lon="5.41128">
        <ele>935.40002441406</ele>
        <time>2022-05-29T10:54:34.000Z</time>
      </trkpt>
      <trkpt lat="44.75082" lon="5.41128">
        <ele>935.20001220703</ele>
        <time>2022-05-29T10:54:35.000Z</time>
      </trkpt>
      <trkpt lat="44.75084" lon="5.41128">
        <ele>934.40002441406</ele>
        <time>2022-05-29T10:54:36.000Z</time>
      </trkpt>
      <trkpt lat="44.7509" lon="5.41126">
        <ele>932.59997558594</ele>
        <time>2022-05-29T10:54:40.000Z</time>
      </trkpt>
      <trkpt lat="44.75091" lon="5.41125">
        <ele>932.79998779297</ele>
        <time>2022-05-29T10:54:42.000Z</time>
      </trkpt>
      <trkpt lat="44.75091" lon="5.41122">
        <ele>933.40002441406</ele>
        <time>2022-05-29T10:54:44.000Z</time>
      </trkpt>
      <trkpt lat="44.75092" lon="5.41117">
        <ele>935</ele>
        <time>2022-05-29T10:54:48.000Z</time>
      </trkpt>
      <trkpt lat="44.75096" lon="5.41108">
        <ele>936.40002441406</ele>
        <time>2022-05-29T10:54:56.000Z</time>
      </trkpt>
      <trkpt lat="44.75102" lon="5.41093">
        <ele>938.79998779297</ele>
        <time>2022-05-29T10:55:09.000Z</time>
      </trkpt>
      <trkpt lat="44.75107" lon="5.41083">
        <ele>939.79998779297</ele>
        <time>2022-05-29T10:55:16.000Z</time>
      </trkpt>
      <trkpt lat="44.75107" lon="5.41082">
        <ele>940.40002441406</ele>
        <time>2022-05-29T10:55:18.000Z</time>
      </trkpt>
      <trkpt lat="44.7511" lon="5.41077">
        <ele>940.40002441406</ele>
        <time>2022-05-29T10:55:21.000Z</time>
      </trkpt>
      <trkpt lat="44.75112" lon="5.41066">
        <ele>943.20001220703</ele>
        <time>2022-05-29T10:55:27.000Z</time>
      </trkpt>
      <trkpt lat="44.75115" lon="5.4106">
        <ele>943.59997558594</ele>
        <time>2022-05-29T10:55:31.000Z</time>
      </trkpt>
      <trkpt lat="44.75116" lon="5.41058">
        <ele>943.79998779297</ele>
        <time>2022-05-29T10:55:32.000Z</time>
      </trkpt>
      <trkpt lat="44.75117" lon="5.41057">
        <ele>943.79998779297</ele>
        <time>2022-05-29T10:55:33.000Z</time>
      </trkpt>
      <trkpt lat="44.75123" lon="5.41053">
        <ele>942.79998779297</ele>
        <time>2022-05-29T10:55:38.000Z</time>
      </trkpt>
      <trkpt lat="44.75125" lon="5.41051">
        <ele>942.79998779297</ele>
        <time>2022-05-29T10:55:40.000Z</time>
      </trkpt>
      <trkpt lat="44.75128" lon="5.41048">
        <ele>942.59997558594</ele>
        <time>2022-05-29T10:55:43.000Z</time>
      </trkpt>
      <trkpt lat="44.7513" lon="5.41044">
        <ele>943.40002441406</ele>
        <time>2022-05-29T10:55:47.000Z</time>
      </trkpt>
      <trkpt lat="44.75132" lon="5.41043">
        <ele>943</ele>
        <time>2022-05-29T10:55:49.000Z</time>
      </trkpt>
      <trkpt lat="44.75135" lon="5.41041">
        <ele>942.40002441406</ele>
        <time>2022-05-29T10:55:51.000Z</time>
      </trkpt>
      <trkpt lat="44.75138" lon="5.41032">
        <ele>944.40002441406</ele>
        <time>2022-05-29T10:56:02.000Z</time>
      </trkpt>
      <trkpt lat="44.75139" lon="5.41029">
        <ele>945.40002441406</ele>
        <time>2022-05-29T10:56:03.000Z</time>
      </trkpt>
      <trkpt lat="44.75139" lon="5.41029">
        <ele>945.40002441406</ele>
        <time>2022-05-29T10:56:04.000Z</time>
      </trkpt>
      <trkpt lat="44.75139" lon="5.41025">
        <ele>946.59997558594</ele>
        <time>2022-05-29T10:56:06.000Z</time>
      </trkpt>
      <trkpt lat="44.75145" lon="5.41014">
        <ele>948.20001220703</ele>
        <time>2022-05-29T10:56:18.000Z</time>
      </trkpt>
      <trkpt lat="44.75147" lon="5.41011">
        <ele>948.59997558594</ele>
        <time>2022-05-29T10:56:22.000Z</time>
      </trkpt>
      <trkpt lat="44.75149" lon="5.41005">
        <ele>950</ele>
        <time>2022-05-29T10:56:26.000Z</time>
      </trkpt>
      <trkpt lat="44.75149" lon="5.41002">
        <ele>950.79998779297</ele>
        <time>2022-05-29T10:56:28.000Z</time>
      </trkpt>
      <trkpt lat="44.7515" lon="5.41002">
        <ele>951</ele>
        <time>2022-05-29T10:56:29.000Z</time>
      </trkpt>
      <trkpt lat="44.7515" lon="5.41001">
        <ele>951</ele>
        <time>2022-05-29T10:56:30.000Z</time>
      </trkpt>
      <trkpt lat="44.75151" lon="5.40998">
        <ele>951.59997558594</ele>
        <time>2022-05-29T10:56:32.000Z</time>
      </trkpt>
      <trkpt lat="44.75152" lon="5.40997">
        <ele>952</ele>
        <time>2022-05-29T10:56:33.000Z</time>
      </trkpt>
      <trkpt lat="44.75157" lon="5.4099">
        <ele>951</ele>
        <time>2022-05-29T10:56:41.000Z</time>
      </trkpt>
      <trkpt lat="44.75159" lon="5.40975">
        <ele>954.20001220703</ele>
        <time>2022-05-29T10:56:50.000Z</time>
      </trkpt>
      <trkpt lat="44.75156" lon="5.40969">
        <ele>957</ele>
        <time>2022-05-29T10:56:54.000Z</time>
      </trkpt>
      <trkpt lat="44.75155" lon="5.40966">
        <ele>958.40002441406</ele>
        <time>2022-05-29T10:56:57.000Z</time>
      </trkpt>
      <trkpt lat="44.75154" lon="5.40961">
        <ele>959.59997558594</ele>
        <time>2022-05-29T10:57:00.000Z</time>
      </trkpt>
      <trkpt lat="44.75155" lon="5.40958">
        <ele>960.20001220703</ele>
        <time>2022-05-29T10:57:02.000Z</time>
      </trkpt>
      <trkpt lat="44.75156" lon="5.40951">
        <ele>961.40002441406</ele>
        <time>2022-05-29T10:57:06.000Z</time>
      </trkpt>
      <trkpt lat="44.75158" lon="5.40947">
        <ele>961</ele>
        <time>2022-05-29T10:57:08.000Z</time>
      </trkpt>
      <trkpt lat="44.75158" lon="5.40941">
        <ele>962.40002441406</ele>
        <time>2022-05-29T10:57:13.000Z</time>
      </trkpt>
      <trkpt lat="44.75162" lon="5.40933">
        <ele>962.40002441406</ele>
        <time>2022-05-29T10:57:19.000Z</time>
      </trkpt>
      <trkpt lat="44.75165" lon="5.4092">
        <ele>963.59997558594</ele>
        <time>2022-05-29T10:57:27.000Z</time>
      </trkpt>
      <trkpt lat="44.75162" lon="5.40911">
        <ele>966.59997558594</ele>
        <time>2022-05-29T10:57:34.000Z</time>
      </trkpt>
      <trkpt lat="44.75159" lon="5.40902">
        <ele>969.40002441406</ele>
        <time>2022-05-29T10:57:40.000Z</time>
      </trkpt>
      <trkpt lat="44.75163" lon="5.40889">
        <ele>969.40002441406</ele>
        <time>2022-05-29T10:57:50.000Z</time>
      </trkpt>
      <trkpt lat="44.75168" lon="5.40875">
        <ele>966.20001220703</ele>
        <time>2022-05-29T10:57:59.000Z</time>
      </trkpt>
      <trkpt lat="44.75167" lon="5.40846">
        <ele>960.59997558594</ele>
        <time>2022-05-29T10:58:16.000Z</time>
      </trkpt>
      <trkpt lat="44.75168" lon="5.40844">
        <ele>960.40002441406</ele>
        <time>2022-05-29T10:58:18.000Z</time>
      </trkpt>
      <trkpt lat="44.75169" lon="5.40841">
        <ele>960.59997558594</ele>
        <time>2022-05-29T10:58:21.000Z</time>
      </trkpt>
      <trkpt lat="44.75168" lon="5.40819">
        <ele>963.79998779297</ele>
        <time>2022-05-29T10:58:34.000Z</time>
      </trkpt>
      <trkpt lat="44.75168" lon="5.40787">
        <ele>960.79998779297</ele>
        <time>2022-05-29T10:58:53.000Z</time>
      </trkpt>
      <trkpt lat="44.75175" lon="5.40774">
        <ele>953.40002441406</ele>
        <time>2022-05-29T10:59:03.000Z</time>
      </trkpt>
      <trkpt lat="44.75177" lon="5.40762">
        <ele>952</ele>
        <time>2022-05-29T10:59:13.000Z</time>
      </trkpt>
      <trkpt lat="44.75181" lon="5.40753">
        <ele>953.20001220703</ele>
        <time>2022-05-29T10:59:18.000Z</time>
      </trkpt>
      <trkpt lat="44.75182" lon="5.40752">
        <ele>953.59997558594</ele>
        <time>2022-05-29T10:59:19.000Z</time>
      </trkpt>
      <trkpt lat="44.75182" lon="5.40751">
        <ele>953.79998779297</ele>
        <time>2022-05-29T10:59:20.000Z</time>
      </trkpt>
      <trkpt lat="44.75183" lon="5.40749">
        <ele>954</ele>
        <time>2022-05-29T10:59:21.000Z</time>
      </trkpt>
      <trkpt lat="44.75184" lon="5.40748">
        <ele>954.40002441406</ele>
        <time>2022-05-29T10:59:23.000Z</time>
      </trkpt>
      <trkpt lat="44.75185" lon="5.40748">
        <ele>954.79998779297</ele>
        <time>2022-05-29T10:59:24.000Z</time>
      </trkpt>
      <trkpt lat="44.75186" lon="5.40747">
        <ele>955</ele>
        <time>2022-05-29T10:59:25.000Z</time>
      </trkpt>
      <trkpt lat="44.75187" lon="5.40746">
        <ele>955.20001220703</ele>
        <time>2022-05-29T10:59:26.000Z</time>
      </trkpt>
      <trkpt lat="44.75187" lon="5.40746">
        <ele>955.40002441406</ele>
        <time>2022-05-29T10:59:27.000Z</time>
      </trkpt>
      <trkpt lat="44.75188" lon="5.40745">
        <ele>955.59997558594</ele>
        <time>2022-05-29T10:59:28.000Z</time>
      </trkpt>
      <trkpt lat="44.7519" lon="5.40743">
        <ele>956.20001220703</ele>
        <time>2022-05-29T10:59:32.000Z</time>
      </trkpt>
      <trkpt lat="44.75192" lon="5.40742">
        <ele>957</ele>
        <time>2022-05-29T10:59:35.000Z</time>
      </trkpt>
      <trkpt lat="44.75194" lon="5.40738">
        <ele>957.59997558594</ele>
        <time>2022-05-29T10:59:39.000Z</time>
      </trkpt>
      <trkpt lat="44.75199" lon="5.40732">
        <ele>959.20001220703</ele>
        <time>2022-05-29T10:59:49.000Z</time>
      </trkpt>
      <trkpt lat="44.75208" lon="5.40727">
        <ele>959.59997558594</ele>
        <time>2022-05-29T10:59:57.000Z</time>
      </trkpt>
      <trkpt lat="44.75214" lon="5.40724">
        <ele>957.79998779297</ele>
        <time>2022-05-29T11:00:04.000Z</time>
      </trkpt>
      <trkpt lat="44.75224" lon="5.40721">
        <ele>957.40002441406</ele>
        <time>2022-05-29T11:00:12.000Z</time>
      </trkpt>
      <trkpt lat="44.75229" lon="5.40719">
        <ele>957.40002441406</ele>
        <time>2022-05-29T11:00:18.000Z</time>
      </trkpt>
      <trkpt lat="44.75233" lon="5.40715">
        <ele>957.79998779297</ele>
        <time>2022-05-29T11:00:24.000Z</time>
      </trkpt>
      <trkpt lat="44.75238" lon="5.4071">
        <ele>955.20001220703</ele>
        <time>2022-05-29T11:00:33.000Z</time>
      </trkpt>
      <trkpt lat="44.75241" lon="5.40705">
        <ele>952.79998779297</ele>
        <time>2022-05-29T11:00:40.000Z</time>
      </trkpt>
      <trkpt lat="44.75247" lon="5.40704">
        <ele>952</ele>
        <time>2022-05-29T11:00:45.000Z</time>
      </trkpt>
      <trkpt lat="44.75269" lon="5.40702">
        <ele>948.59997558594</ele>
        <time>2022-05-29T11:01:06.000Z</time>
      </trkpt>
      <trkpt lat="44.75272" lon="5.40703">
        <ele>948.79998779297</ele>
        <time>2022-05-29T11:01:10.000Z</time>
      </trkpt>
      <trkpt lat="44.75278" lon="5.40702">
        <ele>949</ele>
        <time>2022-05-29T11:01:17.000Z</time>
      </trkpt>
      <trkpt lat="44.75286" lon="5.40695">
        <ele>950.40002441406</ele>
        <time>2022-05-29T11:01:31.000Z</time>
      </trkpt>
      <trkpt lat="44.7529" lon="5.4069">
        <ele>950.40002441406</ele>
        <time>2022-05-29T11:01:37.000Z</time>
      </trkpt>
      <trkpt lat="44.75297" lon="5.40686">
        <ele>949.79998779297</ele>
        <time>2022-05-29T11:01:47.000Z</time>
      </trkpt>
      <trkpt lat="44.75304" lon="5.40675">
        <ele>949</ele>
        <time>2022-05-29T11:01:56.000Z</time>
      </trkpt>
      <trkpt lat="44.75316" lon="5.40679">
        <ele>948.79998779297</ele>
        <time>2022-05-29T11:02:51.000Z</time>
      </trkpt>
      <trkpt lat="44.75312" lon="5.40667">
        <ele>948.20001220703</ele>
        <time>2022-05-29T11:03:03.000Z</time>
      </trkpt>
      <trkpt lat="44.75312" lon="5.4067">
        <ele>948.40002441406</ele>
        <time>2022-05-29T11:03:12.000Z</time>
      </trkpt>
      <trkpt lat="44.75313" lon="5.40669">
        <ele>948.20001220703</ele>
        <time>2022-05-29T11:03:27.000Z</time>
      </trkpt>
      <trkpt lat="44.75309" lon="5.40672">
        <ele>948.59997558594</ele>
        <time>2022-05-29T11:04:06.000Z</time>
      </trkpt>
      <trkpt lat="44.75309" lon="5.40669">
        <ele>948.40002441406</ele>
        <time>2022-05-29T11:04:33.000Z</time>
      </trkpt>
      <trkpt lat="44.75309" lon="5.4067">
        <ele>948.59997558594</ele>
        <time>2022-05-29T11:04:38.000Z</time>
      </trkpt>
      <trkpt lat="44.75307" lon="5.40669">
        <ele>948.59997558594</ele>
        <time>2022-05-29T11:04:42.000Z</time>
      </trkpt>
      <trkpt lat="44.75306" lon="5.40668">
        <ele>948.59997558594</ele>
        <time>2022-05-29T11:04:45.000Z</time>
      </trkpt>
      <trkpt lat="44.75306" lon="5.40668">
        <ele>948.59997558594</ele>
        <time>2022-05-29T11:04:48.000Z</time>
      </trkpt>
      <trkpt lat="44.75308" lon="5.4067">
        <ele>948.59997558594</ele>
        <time>2022-05-29T11:04:53.000Z</time>
      </trkpt>
      <trkpt lat="44.75308" lon="5.4067">
        <ele>948.59997558594</ele>
        <time>2022-05-29T11:04:54.000Z</time>
      </trkpt>
      <trkpt lat="44.75312" lon="5.4067">
        <ele>948.40002441406</ele>
        <time>2022-05-29T11:04:58.000Z</time>
      </trkpt>
      <trkpt lat="44.75316" lon="5.40669">
        <ele>948.20001220703</ele>
        <time>2022-05-29T11:05:02.000Z</time>
      </trkpt>
      <trkpt lat="44.7532" lon="5.40669">
        <ele>948</ele>
        <time>2022-05-29T11:05:05.000Z</time>
      </trkpt>
      <trkpt lat="44.75322" lon="5.40669">
        <ele>948</ele>
        <time>2022-05-29T11:05:06.000Z</time>
      </trkpt>
      <trkpt lat="44.75326" lon="5.40668">
        <ele>948</ele>
        <time>2022-05-29T11:05:09.000Z</time>
      </trkpt>
      <trkpt lat="44.75328" lon="5.40662">
        <ele>948.59997558594</ele>
        <time>2022-05-29T11:05:12.000Z</time>
      </trkpt>
      <trkpt lat="44.75329" lon="5.40658">
        <ele>948.79998779297</ele>
        <time>2022-05-29T11:05:14.000Z</time>
      </trkpt>
      <trkpt lat="44.75329" lon="5.40656">
        <ele>949</ele>
        <time>2022-05-29T11:05:15.000Z</time>
      </trkpt>
      <trkpt lat="44.75336" lon="5.40652">
        <ele>949.79998779297</ele>
        <time>2022-05-29T11:06:15.000Z</time>
      </trkpt>
      <trkpt lat="44.7534" lon="5.40644">
        <ele>950.79998779297</ele>
        <time>2022-05-29T11:07:03.000Z</time>
      </trkpt>
      <trkpt lat="44.75344" lon="5.40648">
        <ele>950.79998779297</ele>
        <time>2022-05-29T11:07:26.000Z</time>
      </trkpt>
      <trkpt lat="44.75348" lon="5.40648">
        <ele>951.20001220703</ele>
        <time>2022-05-29T11:07:30.000Z</time>
      </trkpt>
      <trkpt lat="44.75353" lon="5.40645">
        <ele>951.79998779297</ele>
        <time>2022-05-29T11:07:37.000Z</time>
      </trkpt>
      <trkpt lat="44.75354" lon="5.40645">
        <ele>951.79998779297</ele>
        <time>2022-05-29T11:07:48.000Z</time>
      </trkpt>
      <trkpt lat="44.75355" lon="5.40646">
        <ele>951.79998779297</ele>
        <time>2022-05-29T11:07:53.000Z</time>
      </trkpt>
      <trkpt lat="44.75368" lon="5.40652">
        <ele>952.59997558594</ele>
        <time>2022-05-29T11:08:21.000Z</time>
      </trkpt>
      <trkpt lat="44.7537" lon="5.40651">
        <ele>952.79998779297</ele>
        <time>2022-05-29T11:08:22.000Z</time>
      </trkpt>
      <trkpt lat="44.75378" lon="5.40646">
        <ele>954.20001220703</ele>
        <time>2022-05-29T11:08:28.000Z</time>
      </trkpt>
      <trkpt lat="44.75379" lon="5.40643">
        <ele>954.40002441406</ele>
        <time>2022-05-29T11:08:29.000Z</time>
      </trkpt>
      <trkpt lat="44.7538" lon="5.40641">
        <ele>954.79998779297</ele>
        <time>2022-05-29T11:08:30.000Z</time>
      </trkpt>
      <trkpt lat="44.75382" lon="5.40635">
        <ele>955.79998779297</ele>
        <time>2022-05-29T11:08:35.000Z</time>
      </trkpt>
      <trkpt lat="44.75381" lon="5.40635">
        <ele>955.59997558594</ele>
        <time>2022-05-29T11:08:37.000Z</time>
      </trkpt>
      <trkpt lat="44.75382" lon="5.40633">
        <ele>956</ele>
        <time>2022-05-29T11:08:40.000Z</time>
      </trkpt>
      <trkpt lat="44.75381" lon="5.4063">
        <ele>955.20001220703</ele>
        <time>2022-05-29T11:08:42.000Z</time>
      </trkpt>
      <trkpt lat="44.7538" lon="5.40628">
        <ele>954.40002441406</ele>
        <time>2022-05-29T11:08:43.000Z</time>
      </trkpt>
      <trkpt lat="44.75373" lon="5.40625">
        <ele>951.79998779297</ele>
        <time>2022-05-29T11:08:48.000Z</time>
      </trkpt>
      <trkpt lat="44.75371" lon="5.40624">
        <ele>950.79998779297</ele>
        <time>2022-05-29T11:08:50.000Z</time>
      </trkpt>
      <trkpt lat="44.75363" lon="5.40624">
        <ele>949.20001220703</ele>
        <time>2022-05-29T11:08:58.000Z</time>
      </trkpt>
      <trkpt lat="44.75357" lon="5.40631">
        <ele>952.40002441406</ele>
        <time>2022-05-29T11:09:03.000Z</time>
      </trkpt>
      <trkpt lat="44.75356" lon="5.40628">
        <ele>950.79998779297</ele>
        <time>2022-05-29T11:09:09.000Z</time>
      </trkpt>
      <trkpt lat="44.75366" lon="5.4061">
        <ele>943.79998779297</ele>
        <time>2022-05-29T11:09:50.000Z</time>
      </trkpt>
      <trkpt lat="44.75366" lon="5.40611">
        <ele>944</ele>
        <time>2022-05-29T11:09:52.000Z</time>
      </trkpt>
      <trkpt lat="44.75367" lon="5.40611">
        <ele>944</ele>
        <time>2022-05-29T11:09:53.000Z</time>
      </trkpt>
      <trkpt lat="44.75367" lon="5.4061">
        <ele>944</ele>
        <time>2022-05-29T11:09:54.000Z</time>
      </trkpt>
      <trkpt lat="44.75367" lon="5.4061">
        <ele>943.79998779297</ele>
        <time>2022-05-29T11:09:55.000Z</time>
      </trkpt>
      <trkpt lat="44.75367" lon="5.40609">
        <ele>943.59997558594</ele>
        <time>2022-05-29T11:09:57.000Z</time>
      </trkpt>
      <trkpt lat="44.75367" lon="5.40609">
        <ele>943.40002441406</ele>
        <time>2022-05-29T11:09:58.000Z</time>
      </trkpt>
      <trkpt lat="44.75367" lon="5.40609">
        <ele>943.40002441406</ele>
        <time>2022-05-29T11:10:00.000Z</time>
      </trkpt>
      <trkpt lat="44.75366" lon="5.40607">
        <ele>942.40002441406</ele>
        <time>2022-05-29T11:10:03.000Z</time>
      </trkpt>
      <trkpt lat="44.75365" lon="5.40607">
        <ele>942</ele>
        <time>2022-05-29T11:10:05.000Z</time>
      </trkpt>
      <trkpt lat="44.75364" lon="5.40605">
        <ele>941</ele>
        <time>2022-05-29T11:10:08.000Z</time>
      </trkpt>
      <trkpt lat="44.75358" lon="5.40603">
        <ele>939</ele>
        <time>2022-05-29T11:10:14.000Z</time>
      </trkpt>
      <trkpt lat="44.75357" lon="5.40602">
        <ele>938.59997558594</ele>
        <time>2022-05-29T11:10:16.000Z</time>
      </trkpt>
      <trkpt lat="44.75356" lon="5.40602">
        <ele>938.20001220703</ele>
        <time>2022-05-29T11:10:17.000Z</time>
      </trkpt>
      <trkpt lat="44.75355" lon="5.40601">
        <ele>937.79998779297</ele>
        <time>2022-05-29T11:10:18.000Z</time>
      </trkpt>
      <trkpt lat="44.75354" lon="5.40601">
        <ele>937.40002441406</ele>
        <time>2022-05-29T11:10:20.000Z</time>
      </trkpt>
      <trkpt lat="44.75354" lon="5.406">
        <ele>936.79998779297</ele>
        <time>2022-05-29T11:10:26.000Z</time>
      </trkpt>
      <trkpt lat="44.75353" lon="5.40598">
        <ele>936</ele>
        <time>2022-05-29T11:10:30.000Z</time>
      </trkpt>
      <trkpt lat="44.75356" lon="5.40597">
        <ele>936</ele>
        <time>2022-05-29T11:10:34.000Z</time>
      </trkpt>
      <trkpt lat="44.75357" lon="5.40597">
        <ele>936.20001220703</ele>
        <time>2022-05-29T11:10:35.000Z</time>
      </trkpt>
      <trkpt lat="44.75339" lon="5.40582">
        <ele>926.40002441406</ele>
        <time>2022-05-29T11:11:02.000Z</time>
      </trkpt>
      <trkpt lat="44.75338" lon="5.4058">
        <ele>925.40002441406</ele>
        <time>2022-05-29T11:11:04.000Z</time>
      </trkpt>
      <trkpt lat="44.75332" lon="5.40576">
        <ele>922.40002441406</ele>
        <time>2022-05-29T11:11:08.000Z</time>
      </trkpt>
      <trkpt lat="44.75331" lon="5.40575">
        <ele>921.79998779297</ele>
        <time>2022-05-29T11:11:11.000Z</time>
      </trkpt>
      <trkpt lat="44.75328" lon="5.40575">
        <ele>921</ele>
        <time>2022-05-29T11:11:17.000Z</time>
      </trkpt>
      <trkpt lat="44.75331" lon="5.4057">
        <ele>919.79998779297</ele>
        <time>2022-05-29T11:11:27.000Z</time>
      </trkpt>
      <trkpt lat="44.75333" lon="5.40568">
        <ele>919</ele>
        <time>2022-05-29T11:11:31.000Z</time>
      </trkpt>
      <trkpt lat="44.75335" lon="5.40563">
        <ele>917.40002441406</ele>
        <time>2022-05-29T11:11:36.000Z</time>
      </trkpt>
      <trkpt lat="44.75338" lon="5.40561">
        <ele>917</ele>
        <time>2022-05-29T11:11:43.000Z</time>
      </trkpt>
      <trkpt lat="44.75341" lon="5.40555">
        <ele>915.20001220703</ele>
        <time>2022-05-29T11:11:50.000Z</time>
      </trkpt>
      <trkpt lat="44.75342" lon="5.40551">
        <ele>913.40002441406</ele>
        <time>2022-05-29T11:11:54.000Z</time>
      </trkpt>
      <trkpt lat="44.75342" lon="5.4055">
        <ele>913.20001220703</ele>
        <time>2022-05-29T11:11:56.000Z</time>
      </trkpt>
      <trkpt lat="44.75344" lon="5.40549">
        <ele>913.20001220703</ele>
        <time>2022-05-29T11:12:00.000Z</time>
      </trkpt>
      <trkpt lat="44.75346" lon="5.40549">
        <ele>913.20001220703</ele>
        <time>2022-05-29T11:12:01.000Z</time>
      </trkpt>
      <trkpt lat="44.75348" lon="5.40548">
        <ele>913.40002441406</ele>
        <time>2022-05-29T11:12:04.000Z</time>
      </trkpt>
      <trkpt lat="44.75353" lon="5.40547">
        <ele>913.79998779297</ele>
        <time>2022-05-29T11:12:08.000Z</time>
      </trkpt>
      <trkpt lat="44.75376" lon="5.40517">
        <ele>904.59997558594</ele>
        <time>2022-05-29T11:12:32.000Z</time>
      </trkpt>
      <trkpt lat="44.75377" lon="5.40513">
        <ele>903</ele>
        <time>2022-05-29T11:12:36.000Z</time>
      </trkpt>
      <trkpt lat="44.75383" lon="5.40496">
        <ele>896.79998779297</ele>
        <time>2022-05-29T11:12:46.000Z</time>
      </trkpt>
      <trkpt lat="44.75394" lon="5.40481">
        <ele>892.79998779297</ele>
        <time>2022-05-29T11:13:00.000Z</time>
      </trkpt>
      <trkpt lat="44.754" lon="5.40474">
        <ele>891.59997558594</ele>
        <time>2022-05-29T11:13:07.000Z</time>
      </trkpt>
      <trkpt lat="44.75395" lon="5.40459">
        <ele>883.59997558594</ele>
        <time>2022-05-29T11:13:19.000Z</time>
      </trkpt>
      <trkpt lat="44.75392" lon="5.40457">
        <ele>881.40002441406</ele>
        <time>2022-05-29T11:13:22.000Z</time>
      </trkpt>
      <trkpt lat="44.7539" lon="5.40456">
        <ele>880.59997558594</ele>
        <time>2022-05-29T11:13:24.000Z</time>
      </trkpt>
      <trkpt lat="44.75388" lon="5.40454">
        <ele>879</ele>
        <time>2022-05-29T11:13:27.000Z</time>
      </trkpt>
      <trkpt lat="44.75386" lon="5.40453">
        <ele>878.20001220703</ele>
        <time>2022-05-29T11:13:29.000Z</time>
      </trkpt>
      <trkpt lat="44.75388" lon="5.4045">
        <ele>877</ele>
        <time>2022-05-29T11:13:35.000Z</time>
      </trkpt>
      <trkpt lat="44.75389" lon="5.40449">
        <ele>876.59997558594</ele>
        <time>2022-05-29T11:13:36.000Z</time>
      </trkpt>
      <trkpt lat="44.7539" lon="5.40448">
        <ele>876.59997558594</ele>
        <time>2022-05-29T11:13:37.000Z</time>
      </trkpt>
      <trkpt lat="44.7539" lon="5.40443">
        <ele>874.40002441406</ele>
        <time>2022-05-29T11:13:40.000Z</time>
      </trkpt>
      <trkpt lat="44.75388" lon="5.40441">
        <ele>872.79998779297</ele>
        <time>2022-05-29T11:13:42.000Z</time>
      </trkpt>
      <trkpt lat="44.75379" lon="5.4044">
        <ele>869.59997558594</ele>
        <time>2022-05-29T11:13:50.000Z</time>
      </trkpt>
      <trkpt lat="44.75378" lon="5.4044">
        <ele>869.40002441406</ele>
        <time>2022-05-29T11:13:52.000Z</time>
      </trkpt>
      <trkpt lat="44.75377" lon="5.40439">
        <ele>868.79998779297</ele>
        <time>2022-05-29T11:13:53.000Z</time>
      </trkpt>
      <trkpt lat="44.75373" lon="5.40439">
        <ele>867.20001220703</ele>
        <time>2022-05-29T11:13:56.000Z</time>
      </trkpt>
      <trkpt lat="44.75369" lon="5.40439">
        <ele>866.20001220703</ele>
        <time>2022-05-29T11:13:59.000Z</time>
      </trkpt>
      <trkpt lat="44.75368" lon="5.40438">
        <ele>865.40002441406</ele>
        <time>2022-05-29T11:14:01.000Z</time>
      </trkpt>
      <trkpt lat="44.75368" lon="5.40437">
        <ele>865</ele>
        <time>2022-05-29T11:14:02.000Z</time>
      </trkpt>
      <trkpt lat="44.75369" lon="5.40436">
        <ele>864.59997558594</ele>
        <time>2022-05-29T11:14:03.000Z</time>
      </trkpt>
      <trkpt lat="44.7537" lon="5.40434">
        <ele>864.20001220703</ele>
        <time>2022-05-29T11:14:05.000Z</time>
      </trkpt>
      <trkpt lat="44.7537" lon="5.40433">
        <ele>863.79998779297</ele>
        <time>2022-05-29T11:14:07.000Z</time>
      </trkpt>
      <trkpt lat="44.7537" lon="5.40428">
        <ele>861.40002441406</ele>
        <time>2022-05-29T11:14:12.000Z</time>
      </trkpt>
      <trkpt lat="44.7537" lon="5.40427">
        <ele>861</ele>
        <time>2022-05-29T11:14:13.000Z</time>
      </trkpt>
      <trkpt lat="44.75372" lon="5.40425">
        <ele>860.59997558594</ele>
        <time>2022-05-29T11:14:15.000Z</time>
      </trkpt>
      <trkpt lat="44.75374" lon="5.40423">
        <ele>860.20001220703</ele>
        <time>2022-05-29T11:14:17.000Z</time>
      </trkpt>
      <trkpt lat="44.75374" lon="5.4042">
        <ele>858.79998779297</ele>
        <time>2022-05-29T11:14:21.000Z</time>
      </trkpt>
      <trkpt lat="44.75374" lon="5.40419">
        <ele>858.40002441406</ele>
        <time>2022-05-29T11:14:22.000Z</time>
      </trkpt>
      <trkpt lat="44.7537" lon="5.40419">
        <ele>857.20001220703</ele>
        <time>2022-05-29T11:14:25.000Z</time>
      </trkpt>
      <trkpt lat="44.75368" lon="5.40418">
        <ele>856.40002441406</ele>
        <time>2022-05-29T11:14:27.000Z</time>
      </trkpt>
      <trkpt lat="44.75365" lon="5.40418">
        <ele>855.59997558594</ele>
        <time>2022-05-29T11:14:29.000Z</time>
      </trkpt>
      <trkpt lat="44.75365" lon="5.40418">
        <ele>855.40002441406</ele>
        <time>2022-05-29T11:14:30.000Z</time>
      </trkpt>
      <trkpt lat="44.75361" lon="5.40418">
        <ele>854.79998779297</ele>
        <time>2022-05-29T11:14:34.000Z</time>
      </trkpt>
      <trkpt lat="44.75359" lon="5.40419">
        <ele>854.59997558594</ele>
        <time>2022-05-29T11:14:37.000Z</time>
      </trkpt>
      <trkpt lat="44.75355" lon="5.40417">
        <ele>853</ele>
        <time>2022-05-29T11:14:42.000Z</time>
      </trkpt>
      <trkpt lat="44.75353" lon="5.40419">
        <ele>853.40002441406</ele>
        <time>2022-05-29T11:14:47.000Z</time>
      </trkpt>
      <trkpt lat="44.75353" lon="5.40418">
        <ele>853</ele>
        <time>2022-05-29T11:14:52.000Z</time>
      </trkpt>
      <trkpt lat="44.75354" lon="5.40415">
        <ele>851.40002441406</ele>
        <time>2022-05-29T11:14:55.000Z</time>
      </trkpt>
      <trkpt lat="44.75357" lon="5.4041">
        <ele>850.20001220703</ele>
        <time>2022-05-29T11:15:01.000Z</time>
      </trkpt>
      <trkpt lat="44.75352" lon="5.40401">
        <ele>844.40002441406</ele>
        <time>2022-05-29T11:15:14.000Z</time>
      </trkpt>
      <trkpt lat="44.75349" lon="5.40394">
        <ele>840.79998779297</ele>
        <time>2022-05-29T11:15:23.000Z</time>
      </trkpt>
      <trkpt lat="44.75342" lon="5.40394">
        <ele>839</ele>
        <time>2022-05-29T11:15:33.000Z</time>
      </trkpt>
      <trkpt lat="44.75339" lon="5.40395">
        <ele>838.79998779297</ele>
        <time>2022-05-29T11:15:37.000Z</time>
      </trkpt>
      <trkpt lat="44.75338" lon="5.40391">
        <ele>837</ele>
        <time>2022-05-29T11:15:42.000Z</time>
      </trkpt>
      <trkpt lat="44.75344" lon="5.40382">
        <ele>834</ele>
        <time>2022-05-29T11:15:56.000Z</time>
      </trkpt>
      <trkpt lat="44.75341" lon="5.40376">
        <ele>830.79998779297</ele>
        <time>2022-05-29T11:16:01.000Z</time>
      </trkpt>
      <trkpt lat="44.75333" lon="5.40373">
        <ele>827.79998779297</ele>
        <time>2022-05-29T11:16:10.000Z</time>
      </trkpt>
      <trkpt lat="44.75329" lon="5.40373">
        <ele>826.79998779297</ele>
        <time>2022-05-29T11:16:14.000Z</time>
      </trkpt>
      <trkpt lat="44.75325" lon="5.40372">
        <ele>825.59997558594</ele>
        <time>2022-05-29T11:16:19.000Z</time>
      </trkpt>
      <trkpt lat="44.75322" lon="5.40374">
        <ele>825.79998779297</ele>
        <time>2022-05-29T11:16:22.000Z</time>
      </trkpt>
      <trkpt lat="44.75316" lon="5.40377">
        <ele>825.59997558594</ele>
        <time>2022-05-29T11:16:27.000Z</time>
      </trkpt>
      <trkpt lat="44.75314" lon="5.40376">
        <ele>824.79998779297</ele>
        <time>2022-05-29T11:16:28.000Z</time>
      </trkpt>
      <trkpt lat="44.75311" lon="5.40375">
        <ele>823.79998779297</ele>
        <time>2022-05-29T11:16:29.000Z</time>
      </trkpt>
      <trkpt lat="44.75311" lon="5.40375">
        <ele>823.79998779297</ele>
        <time>2022-05-29T11:16:30.000Z</time>
      </trkpt>
      <trkpt lat="44.75307" lon="5.40375">
        <ele>823</ele>
        <time>2022-05-29T11:16:34.000Z</time>
      </trkpt>
      <trkpt lat="44.75305" lon="5.40376">
        <ele>822.79998779297</ele>
        <time>2022-05-29T11:16:37.000Z</time>
      </trkpt>
      <trkpt lat="44.75304" lon="5.40376">
        <ele>822.20001220703</ele>
        <time>2022-05-29T11:16:38.000Z</time>
      </trkpt>
      <trkpt lat="44.75303" lon="5.40375">
        <ele>821.79998779297</ele>
        <time>2022-05-29T11:16:39.000Z</time>
      </trkpt>
      <trkpt lat="44.75297" lon="5.40373">
        <ele>819.59997558594</ele>
        <time>2022-05-29T11:16:43.000Z</time>
      </trkpt>
      <trkpt lat="44.75291" lon="5.40372">
        <ele>817.59997558594</ele>
        <time>2022-05-29T11:16:49.000Z</time>
      </trkpt>
      <trkpt lat="44.75289" lon="5.40371">
        <ele>817.20001220703</ele>
        <time>2022-05-29T11:16:51.000Z</time>
      </trkpt>
      <trkpt lat="44.75288" lon="5.40371">
        <ele>816.59997558594</ele>
        <time>2022-05-29T11:16:53.000Z</time>
      </trkpt>
      <trkpt lat="44.75287" lon="5.40371">
        <ele>816.40002441406</ele>
        <time>2022-05-29T11:16:54.000Z</time>
      </trkpt>
      <trkpt lat="44.75286" lon="5.4037">
        <ele>815.79998779297</ele>
        <time>2022-05-29T11:16:55.000Z</time>
      </trkpt>
      <trkpt lat="44.75283" lon="5.40369">
        <ele>814.20001220703</ele>
        <time>2022-05-29T11:16:57.000Z</time>
      </trkpt>
      <trkpt lat="44.75275" lon="5.40366">
        <ele>809.59997558594</ele>
        <time>2022-05-29T11:17:03.000Z</time>
      </trkpt>
      <trkpt lat="44.75272" lon="5.40365">
        <ele>808</ele>
        <time>2022-05-29T11:17:05.000Z</time>
      </trkpt>
      <trkpt lat="44.7527" lon="5.40364">
        <ele>807.20001220703</ele>
        <time>2022-05-29T11:17:06.000Z</time>
      </trkpt>
      <trkpt lat="44.75269" lon="5.40364">
        <ele>806.20001220703</ele>
        <time>2022-05-29T11:17:07.000Z</time>
      </trkpt>
      <trkpt lat="44.75267" lon="5.40364">
        <ele>805.40002441406</ele>
        <time>2022-05-29T11:17:08.000Z</time>
      </trkpt>
      <trkpt lat="44.75265" lon="5.40364">
        <ele>804.20001220703</ele>
        <time>2022-05-29T11:17:11.000Z</time>
      </trkpt>
      <trkpt lat="44.75249" lon="5.40365">
        <ele>798.40002441406</ele>
        <time>2022-05-29T11:17:24.000Z</time>
      </trkpt>
      <trkpt lat="44.75247" lon="5.40366">
        <ele>797.59997558594</ele>
        <time>2022-05-29T11:17:25.000Z</time>
      </trkpt>
      <trkpt lat="44.75246" lon="5.40366">
        <ele>797</ele>
        <time>2022-05-29T11:17:27.000Z</time>
      </trkpt>
      <trkpt lat="44.75243" lon="5.40366">
        <ele>795.79998779297</ele>
        <time>2022-05-29T11:17:29.000Z</time>
      </trkpt>
      <trkpt lat="44.75242" lon="5.40365">
        <ele>795.20001220703</ele>
        <time>2022-05-29T11:17:30.000Z</time>
      </trkpt>
      <trkpt lat="44.75237" lon="5.40366">
        <ele>793.40002441406</ele>
        <time>2022-05-29T11:17:35.000Z</time>
      </trkpt>
      <trkpt lat="44.75235" lon="5.40366">
        <ele>792</ele>
        <time>2022-05-29T11:17:37.000Z</time>
      </trkpt>
      <trkpt lat="44.75232" lon="5.40365">
        <ele>790.59997558594</ele>
        <time>2022-05-29T11:17:39.000Z</time>
      </trkpt>
      <trkpt lat="44.7523" lon="5.40365">
        <ele>789.79998779297</ele>
        <time>2022-05-29T11:17:41.000Z</time>
      </trkpt>
      <trkpt lat="44.75229" lon="5.40366">
        <ele>789.59997558594</ele>
        <time>2022-05-29T11:17:42.000Z</time>
      </trkpt>
      <trkpt lat="44.75225" lon="5.40365">
        <ele>787.59997558594</ele>
        <time>2022-05-29T11:17:47.000Z</time>
      </trkpt>
      <trkpt lat="44.75225" lon="5.40363">
        <ele>787</ele>
        <time>2022-05-29T11:17:49.000Z</time>
      </trkpt>
      <trkpt lat="44.75223" lon="5.40353">
        <ele>782.40002441406</ele>
        <time>2022-05-29T11:18:05.000Z</time>
      </trkpt>
      <trkpt lat="44.75229" lon="5.40352">
        <ele>784.40002441406</ele>
        <time>2022-05-29T11:18:11.000Z</time>
      </trkpt>
      <trkpt lat="44.75232" lon="5.40349">
        <ele>784.59997558594</ele>
        <time>2022-05-29T11:18:17.000Z</time>
      </trkpt>
      <trkpt lat="44.75231" lon="5.40346">
        <ele>783.20001220703</ele>
        <time>2022-05-29T11:18:21.000Z</time>
      </trkpt>
      <trkpt lat="44.75225" lon="5.40344">
        <ele>779.59997558594</ele>
        <time>2022-05-29T11:18:29.000Z</time>
      </trkpt>
      <trkpt lat="44.75222" lon="5.40343">
        <ele>778.20001220703</ele>
        <time>2022-05-29T11:18:33.000Z</time>
      </trkpt>
      <trkpt lat="44.75215" lon="5.40342">
        <ele>774.79998779297</ele>
        <time>2022-05-29T11:18:40.000Z</time>
      </trkpt>
      <trkpt lat="44.75211" lon="5.40342">
        <ele>773.40002441406</ele>
        <time>2022-05-29T11:18:43.000Z</time>
      </trkpt>
      <trkpt lat="44.75208" lon="5.40346">
        <ele>773.20001220703</ele>
        <time>2022-05-29T11:18:48.000Z</time>
      </trkpt>
      <trkpt lat="44.75208" lon="5.40348">
        <ele>774.20001220703</ele>
        <time>2022-05-29T11:19:05.000Z</time>
      </trkpt>
      <trkpt lat="44.75209" lon="5.40347">
        <ele>774.20001220703</ele>
        <time>2022-05-29T11:19:13.000Z</time>
      </trkpt>
      <trkpt lat="44.7521" lon="5.40343">
        <ele>773.20001220703</ele>
        <time>2022-05-29T11:19:18.000Z</time>
      </trkpt>
      <trkpt lat="44.75211" lon="5.40341">
        <ele>772.79998779297</ele>
        <time>2022-05-29T11:19:21.000Z</time>
      </trkpt>
      <trkpt lat="44.7521" lon="5.40338">
        <ele>771</ele>
        <time>2022-05-29T11:19:25.000Z</time>
      </trkpt>
      <trkpt lat="44.75208" lon="5.40331">
        <ele>768</ele>
        <time>2022-05-29T11:19:33.000Z</time>
      </trkpt>
      <trkpt lat="44.75208" lon="5.40323">
        <ele>764.79998779297</ele>
        <time>2022-05-29T11:19:40.000Z</time>
      </trkpt>
      <trkpt lat="44.75211" lon="5.40316">
        <ele>763.20001220703</ele>
        <time>2022-05-29T11:19:46.000Z</time>
      </trkpt>
      <trkpt lat="44.75219" lon="5.40299">
        <ele>760.40002441406</ele>
        <time>2022-05-29T11:20:02.000Z</time>
      </trkpt>
      <trkpt lat="44.75217" lon="5.40279">
        <ele>753.40002441406</ele>
        <time>2022-05-29T11:20:38.000Z</time>
      </trkpt>
      <trkpt lat="44.7521" lon="5.40241">
        <ele>739.59997558594</ele>
        <time>2022-05-29T11:21:41.000Z</time>
      </trkpt>
      <trkpt lat="44.75226" lon="5.40197">
        <ele>733</ele>
        <time>2022-05-29T11:22:30.000Z</time>
      </trkpt>
      <trkpt lat="44.75226" lon="5.40197">
        <ele>733</ele>
        <time>2022-05-29T11:22:31.000Z</time>
      </trkpt>
      <trkpt lat="44.75227" lon="5.40196">
        <ele>733</ele>
        <time>2022-05-29T11:22:33.000Z</time>
      </trkpt>
      <trkpt lat="44.75227" lon="5.40195">
        <ele>733</ele>
        <time>2022-05-29T11:22:34.000Z</time>
      </trkpt>
      <trkpt lat="44.75229" lon="5.40193">
        <ele>733</ele>
        <time>2022-05-29T11:22:39.000Z</time>
      </trkpt>
      <trkpt lat="44.75229" lon="5.40191">
        <ele>732.59997558594</ele>
        <time>2022-05-29T11:22:44.000Z</time>
      </trkpt>
      <trkpt lat="44.75229" lon="5.40192">
        <ele>732.79998779297</ele>
        <time>2022-05-29T11:22:45.000Z</time>
      </trkpt>
      <trkpt lat="44.75229" lon="5.40192">
        <ele>733</ele>
        <time>2022-05-29T11:22:46.000Z</time>
      </trkpt>
      <trkpt lat="44.7523" lon="5.40192">
        <ele>733</ele>
        <time>2022-05-29T11:22:47.000Z</time>
      </trkpt>
      <trkpt lat="44.75228" lon="5.40191">
        <ele>732.20001220703</ele>
        <time>2022-05-29T11:22:55.000Z</time>
      </trkpt>
      <trkpt lat="44.75227" lon="5.40185">
        <ele>730.59997558594</ele>
        <time>2022-05-29T11:23:02.000Z</time>
      </trkpt>
      <trkpt lat="44.75227" lon="5.40185">
        <ele>730.20001220703</ele>
        <time>2022-05-29T11:23:03.000Z</time>
      </trkpt>
      <trkpt lat="44.75226" lon="5.40183">
        <ele>729.40002441406</ele>
        <time>2022-05-29T11:23:05.000Z</time>
      </trkpt>
      <trkpt lat="44.75227" lon="5.40181">
        <ele>729</ele>
        <time>2022-05-29T11:23:08.000Z</time>
      </trkpt>
      <trkpt lat="44.75226" lon="5.40179">
        <ele>728.40002441406</ele>
        <time>2022-05-29T11:23:11.000Z</time>
      </trkpt>
      <trkpt lat="44.75226" lon="5.40178">
        <ele>728.20001220703</ele>
        <time>2022-05-29T11:23:12.000Z</time>
      </trkpt>
      <trkpt lat="44.75226" lon="5.40169">
        <ele>725.79998779297</ele>
        <time>2022-05-29T11:23:21.000Z</time>
      </trkpt>
      <trkpt lat="44.75227" lon="5.40168">
        <ele>725.59997558594</ele>
        <time>2022-05-29T11:23:22.000Z</time>
      </trkpt>
      <trkpt lat="44.75228" lon="5.40165">
        <ele>725.20001220703</ele>
        <time>2022-05-29T11:23:24.000Z</time>
      </trkpt>
      <trkpt lat="44.7523" lon="5.40156">
        <ele>723.59997558594</ele>
        <time>2022-05-29T11:23:30.000Z</time>
      </trkpt>
      <trkpt lat="44.75233" lon="5.4015">
        <ele>723</ele>
        <time>2022-05-29T11:23:35.000Z</time>
      </trkpt>
      <trkpt lat="44.75241" lon="5.40138">
        <ele>721.59997558594</ele>
        <time>2022-05-29T11:23:45.000Z</time>
      </trkpt>
      <trkpt lat="44.75244" lon="5.40131">
        <ele>720.79998779297</ele>
        <time>2022-05-29T11:23:50.000Z</time>
      </trkpt>
      <trkpt lat="44.75244" lon="5.40127">
        <ele>719.79998779297</ele>
        <time>2022-05-29T11:23:55.000Z</time>
      </trkpt>
      <trkpt lat="44.75244" lon="5.40123">
        <ele>718.40002441406</ele>
        <time>2022-05-29T11:24:01.000Z</time>
      </trkpt>
      <trkpt lat="44.75244" lon="5.40117">
        <ele>717.40002441406</ele>
        <time>2022-05-29T11:24:06.000Z</time>
      </trkpt>
      <trkpt lat="44.75245" lon="5.40112">
        <ele>716</ele>
        <time>2022-05-29T11:24:11.000Z</time>
      </trkpt>
      <trkpt lat="44.75248" lon="5.40106">
        <ele>715.79998779297</ele>
        <time>2022-05-29T11:24:20.000Z</time>
      </trkpt>
      <trkpt lat="44.7525" lon="5.40098">
        <ele>714.40002441406</ele>
        <time>2022-05-29T11:24:28.000Z</time>
      </trkpt>
      <trkpt lat="44.7525" lon="5.40097">
        <ele>714</ele>
        <time>2022-05-29T11:24:32.000Z</time>
      </trkpt>
      <trkpt lat="44.75257" lon="5.40092">
        <ele>714.79998779297</ele>
        <time>2022-05-29T11:24:39.000Z</time>
      </trkpt>
      <trkpt lat="44.75272" lon="5.40048">
        <ele>709</ele>
        <time>2022-05-29T11:25:12.000Z</time>
      </trkpt>
      <trkpt lat="44.75279" lon="5.40042">
        <ele>709.59997558594</ele>
        <time>2022-05-29T11:25:20.000Z</time>
      </trkpt>
      <trkpt lat="44.75309" lon="5.4002">
        <ele>709.79998779297</ele>
        <time>2022-05-29T11:25:51.000Z</time>
      </trkpt>
      <trkpt lat="44.75326" lon="5.39997">
        <ele>706.79998779297</ele>
        <time>2022-05-29T11:26:12.000Z</time>
      </trkpt>
      <trkpt lat="44.75332" lon="5.39991">
        <ele>705.59997558594</ele>
        <time>2022-05-29T11:26:18.000Z</time>
      </trkpt>
      <trkpt lat="44.75346" lon="5.39988">
        <ele>707</ele>
        <time>2022-05-29T11:26:25.000Z</time>
      </trkpt>
      <trkpt lat="44.75359" lon="5.39979">
        <ele>706.40002441406</ele>
        <time>2022-05-29T11:26:37.000Z</time>
      </trkpt>
      <trkpt lat="44.75383" lon="5.39957">
        <ele>702.79998779297</ele>
        <time>2022-05-29T11:27:03.000Z</time>
      </trkpt>
      <trkpt lat="44.75399" lon="5.3995">
        <ele>702</ele>
        <time>2022-05-29T11:27:15.000Z</time>
      </trkpt>
      <trkpt lat="44.75441" lon="5.39922">
        <ele>697</ele>
        <time>2022-05-29T11:27:50.000Z</time>
      </trkpt>
      <trkpt lat="44.75451" lon="5.39918">
        <ele>696.40002441406</ele>
        <time>2022-05-29T11:27:58.000Z</time>
      </trkpt>
      <trkpt lat="44.75461" lon="5.39914">
        <ele>695</ele>
        <time>2022-05-29T11:28:07.000Z</time>
      </trkpt>
      <trkpt lat="44.7547" lon="5.3992">
        <ele>696.59997558594</ele>
        <time>2022-05-29T11:28:15.000Z</time>
      </trkpt>
      <trkpt lat="44.75515" lon="5.39931">
        <ele>697.40002441406</ele>
        <time>2022-05-29T11:28:52.000Z</time>
      </trkpt>
      <trkpt lat="44.75521" lon="5.39932">
        <ele>697.40002441406</ele>
        <time>2022-05-29T11:28:57.000Z</time>
      </trkpt>
      <trkpt lat="44.75526" lon="5.39931">
        <ele>697</ele>
        <time>2022-05-29T11:29:00.000Z</time>
      </trkpt>
      <trkpt lat="44.75529" lon="5.39931">
        <ele>696.79998779297</ele>
        <time>2022-05-29T11:29:02.000Z</time>
      </trkpt>
      <trkpt lat="44.75537" lon="5.39921">
        <ele>693.40002441406</ele>
        <time>2022-05-29T11:29:12.000Z</time>
      </trkpt>
      <trkpt lat="44.75537" lon="5.39908">
        <ele>689.20001220703</ele>
        <time>2022-05-29T11:29:21.000Z</time>
      </trkpt>
      <trkpt lat="44.75537" lon="5.39902">
        <ele>687.40002441406</ele>
        <time>2022-05-29T11:29:26.000Z</time>
      </trkpt>
      <trkpt lat="44.75542" lon="5.39861">
        <ele>676.79998779297</ele>
        <time>2022-05-29T11:29:51.000Z</time>
      </trkpt>
      <trkpt lat="44.75536" lon="5.39834">
        <ele>669</ele>
        <time>2022-05-29T11:30:11.000Z</time>
      </trkpt>
      <trkpt lat="44.75533" lon="5.3977">
        <ele>654.40002441406</ele>
        <time>2022-05-29T11:30:48.000Z</time>
      </trkpt>
      <trkpt lat="44.75531" lon="5.39763">
        <ele>652.79998779297</ele>
        <time>2022-05-29T11:30:54.000Z</time>
      </trkpt>
      <trkpt lat="44.75524" lon="5.3974">
        <ele>648</ele>
        <time>2022-05-29T11:31:06.000Z</time>
      </trkpt>
      <trkpt lat="44.75516" lon="5.39718">
        <ele>643.20001220703</ele>
        <time>2022-05-29T11:31:20.000Z</time>
      </trkpt>
      <trkpt lat="44.75513" lon="5.39713">
        <ele>641.79998779297</ele>
        <time>2022-05-29T11:31:25.000Z</time>
      </trkpt>
      <trkpt lat="44.75511" lon="5.3971">
        <ele>641</ele>
        <time>2022-05-29T11:31:28.000Z</time>
      </trkpt>
      <trkpt lat="44.7551" lon="5.3971">
        <ele>640.79998779297</ele>
        <time>2022-05-29T11:31:29.000Z</time>
      </trkpt>
      <trkpt lat="44.75509" lon="5.39708">
        <ele>640.20001220703</ele>
        <time>2022-05-29T11:31:31.000Z</time>
      </trkpt>
      <trkpt lat="44.75508" lon="5.39707">
        <ele>640</ele>
        <time>2022-05-29T11:31:32.000Z</time>
      </trkpt>
      <trkpt lat="44.75508" lon="5.39705">
        <ele>639.40002441406</ele>
        <time>2022-05-29T11:31:34.000Z</time>
      </trkpt>
      <trkpt lat="44.75507" lon="5.39704">
        <ele>639.20001220703</ele>
        <time>2022-05-29T11:31:35.000Z</time>
      </trkpt>
      <trkpt lat="44.75507" lon="5.39704">
        <ele>639</ele>
        <time>2022-05-29T11:31:36.000Z</time>
      </trkpt>
      <trkpt lat="44.75507" lon="5.39701">
        <ele>638.40002441406</ele>
        <time>2022-05-29T11:31:39.000Z</time>
      </trkpt>
      <trkpt lat="44.75508" lon="5.397">
        <ele>638</ele>
        <time>2022-05-29T11:31:42.000Z</time>
      </trkpt>
      <trkpt lat="44.75508" lon="5.39697">
        <ele>637.40002441406</ele>
        <time>2022-05-29T11:31:46.000Z</time>
      </trkpt>
      <trkpt lat="44.75508" lon="5.39696">
        <ele>637.20001220703</ele>
        <time>2022-05-29T11:31:47.000Z</time>
      </trkpt>
      <trkpt lat="44.75507" lon="5.39691">
        <ele>635.79998779297</ele>
        <time>2022-05-29T11:31:52.000Z</time>
      </trkpt>
      <trkpt lat="44.75504" lon="5.39687">
        <ele>634.59997558594</ele>
        <time>2022-05-29T11:31:58.000Z</time>
      </trkpt>
      <trkpt lat="44.75502" lon="5.39685">
        <ele>634</ele>
        <time>2022-05-29T11:32:04.000Z</time>
      </trkpt>
      <trkpt lat="44.75501" lon="5.39682">
        <ele>633.20001220703</ele>
        <time>2022-05-29T11:32:09.000Z</time>
      </trkpt>
      <trkpt lat="44.75499" lon="5.39675">
        <ele>631.40002441406</ele>
        <time>2022-05-29T11:32:16.000Z</time>
      </trkpt>
      <trkpt lat="44.75499" lon="5.39671">
        <ele>630.59997558594</ele>
        <time>2022-05-29T11:32:20.000Z</time>
      </trkpt>
      <trkpt lat="44.75497" lon="5.39666">
        <ele>629.40002441406</ele>
        <time>2022-05-29T11:32:25.000Z</time>
      </trkpt>
      <trkpt lat="44.75494" lon="5.39658">
        <ele>627.59997558594</ele>
        <time>2022-05-29T11:32:32.000Z</time>
      </trkpt>
      <trkpt lat="44.75493" lon="5.39656">
        <ele>627.20001220703</ele>
        <time>2022-05-29T11:32:35.000Z</time>
      </trkpt>
      <trkpt lat="44.75488" lon="5.3964">
        <ele>623.40002441406</ele>
        <time>2022-05-29T11:32:48.000Z</time>
      </trkpt>
      <trkpt lat="44.75485" lon="5.39628">
        <ele>620.79998779297</ele>
        <time>2022-05-29T11:32:56.000Z</time>
      </trkpt>
      <trkpt lat="44.75479" lon="5.39611">
        <ele>616.40002441406</ele>
        <time>2022-05-29T11:33:09.000Z</time>
      </trkpt>
      <trkpt lat="44.75476" lon="5.39604">
        <ele>614.79998779297</ele>
        <time>2022-05-29T11:33:14.000Z</time>
      </trkpt>
      <trkpt lat="44.75467" lon="5.39569">
        <ele>606.40002441406</ele>
        <time>2022-05-29T11:33:42.000Z</time>
      </trkpt>
      <trkpt lat="44.75466" lon="5.39567">
        <ele>605.79998779297</ele>
        <time>2022-05-29T11:33:43.000Z</time>
      </trkpt>
      <trkpt lat="44.75465" lon="5.39562">
        <ele>604.59997558594</ele>
        <time>2022-05-29T11:33:47.000Z</time>
      </trkpt>
      <trkpt lat="44.75465" lon="5.39558">
        <ele>603.79998779297</ele>
        <time>2022-05-29T11:33:50.000Z</time>
      </trkpt>
      <trkpt lat="44.75464" lon="5.3955">
        <ele>601.40002441406</ele>
        <time>2022-05-29T11:33:58.000Z</time>
      </trkpt>
      <trkpt lat="44.75464" lon="5.39549">
        <ele>601.20001220703</ele>
        <time>2022-05-29T11:34:01.000Z</time>
      </trkpt>
      <trkpt lat="44.75464" lon="5.39548">
        <ele>601</ele>
        <time>2022-05-29T11:34:04.000Z</time>
      </trkpt>
      <trkpt lat="44.75464" lon="5.39548">
        <ele>601</ele>
        <time>2022-05-29T11:34:05.000Z</time>
      </trkpt>
      <trkpt lat="44.75463" lon="5.39548">
        <ele>600.79998779297</ele>
        <time>2022-05-29T11:34:06.000Z</time>
      </trkpt>
      <trkpt lat="44.75463" lon="5.39547">
        <ele>600.79998779297</ele>
        <time>2022-05-29T11:34:08.000Z</time>
      </trkpt>
      <trkpt lat="44.75462" lon="5.39545">
        <ele>600.40002441406</ele>
        <time>2022-05-29T11:34:12.000Z</time>
      </trkpt>
      <trkpt lat="44.75463" lon="5.39545">
        <ele>600.40002441406</ele>
        <time>2022-05-29T11:34:16.000Z</time>
      </trkpt>
      <trkpt lat="44.75463" lon="5.39545">
        <ele>600.59997558594</ele>
        <time>2022-05-29T11:34:20.000Z</time>
      </trkpt>
      <trkpt lat="44.75463" lon="5.39545">
        <ele>600.59997558594</ele>
        <time>2022-05-29T11:34:22.000Z</time>
      </trkpt>
      <trkpt lat="44.75463" lon="5.39544">
        <ele>600.40002441406</ele>
        <time>2022-05-29T11:34:29.000Z</time>
      </trkpt>
      <trkpt lat="44.75462" lon="5.39543">
        <ele>600.40002441406</ele>
        <time>2022-05-29T11:34:30.000Z</time>
      </trkpt>
      <trkpt lat="44.75462" lon="5.39544">
        <ele>600.20001220703</ele>
        <time>2022-05-29T11:34:31.000Z</time>
      </trkpt>
      <trkpt lat="44.75461" lon="5.39544">
        <ele>600.20001220703</ele>
        <time>2022-05-29T11:34:33.000Z</time>
      </trkpt>
      <trkpt lat="44.75461" lon="5.39545">
        <ele>600.40002441406</ele>
        <time>2022-05-29T11:34:39.000Z</time>
      </trkpt>
      <trkpt lat="44.75461" lon="5.39546">
        <ele>600.40002441406</ele>
        <time>2022-05-29T11:34:40.000Z</time>
      </trkpt>
      <trkpt lat="44.75461" lon="5.39545">
        <ele>600.40002441406</ele>
        <time>2022-05-29T11:34:43.000Z</time>
      </trkpt>
      <trkpt lat="44.7546" lon="5.39544">
        <ele>600.20001220703</ele>
        <time>2022-05-29T11:34:47.000Z</time>
      </trkpt>
      <trkpt lat="44.7546" lon="5.39544">
        <ele>600.20001220703</ele>
        <time>2022-05-29T11:34:48.000Z</time>
      </trkpt>
      <trkpt lat="44.7546" lon="5.39544">
        <ele>600.20001220703</ele>
        <time>2022-05-29T11:34:49.000Z</time>
      </trkpt>
      <trkpt lat="44.7546" lon="5.39544">
        <ele>600.20001220703</ele>
        <time>2022-05-29T11:34:51.000Z</time>
      </trkpt>
      <trkpt lat="44.7546" lon="5.39544">
        <ele>600.20001220703</ele>
        <time>2022-05-29T11:34:56.000Z</time>
      </trkpt>
      <trkpt lat="44.75461" lon="5.39545">
        <ele>600.20001220703</ele>
        <time>2022-05-29T11:34:59.000Z</time>
      </trkpt>
      <trkpt lat="44.7546" lon="5.3954">
        <ele>599.79998779297</ele>
        <time>2022-05-29T11:35:36.000Z</time>
      </trkpt>
      <trkpt lat="44.7546" lon="5.39535">
        <ele>599.20001220703</ele>
        <time>2022-05-29T11:35:42.000Z</time>
      </trkpt>
      <trkpt lat="44.75461" lon="5.39529">
        <ele>598.79998779297</ele>
        <time>2022-05-29T11:35:47.000Z</time>
      </trkpt>
      <trkpt lat="44.75462" lon="5.39526">
        <ele>598.59997558594</ele>
        <time>2022-05-29T11:35:50.000Z</time>
      </trkpt>
      <trkpt lat="44.75461" lon="5.39521">
        <ele>598</ele>
        <time>2022-05-29T11:35:55.000Z</time>
      </trkpt>
      <trkpt lat="44.75461" lon="5.39516">
        <ele>597.59997558594</ele>
        <time>2022-05-29T11:35:58.000Z</time>
      </trkpt>
      <trkpt lat="44.75459" lon="5.39512">
        <ele>597</ele>
        <time>2022-05-29T11:36:00.000Z</time>
      </trkpt>
      <trkpt lat="44.75457" lon="5.39504">
        <ele>596</ele>
        <time>2022-05-29T11:36:06.000Z</time>
      </trkpt>
      <trkpt lat="44.75456" lon="5.39502">
        <ele>595.79998779297</ele>
        <time>2022-05-29T11:36:07.000Z</time>
      </trkpt>
      <trkpt lat="44.75455" lon="5.39488">
        <ele>594.20001220703</ele>
        <time>2022-05-29T11:36:19.000Z</time>
      </trkpt>
      <trkpt lat="44.75448" lon="5.3947">
        <ele>592</ele>
        <time>2022-05-29T11:36:32.000Z</time>
      </trkpt>
      <trkpt lat="44.75444" lon="5.39461">
        <ele>590.40002441406</ele>
        <time>2022-05-29T11:36:37.000Z</time>
      </trkpt>
      <trkpt lat="44.75445" lon="5.39441">
        <ele>587.40002441406</ele>
        <time>2022-05-29T11:36:49.000Z</time>
      </trkpt>
      <trkpt lat="44.75443" lon="5.39404">
        <ele>582.40002441406</ele>
        <time>2022-05-29T11:37:24.000Z</time>
      </trkpt>
      <trkpt lat="44.75439" lon="5.39394">
        <ele>580.40002441406</ele>
        <time>2022-05-29T11:37:52.000Z</time>
      </trkpt>
      <trkpt lat="44.75438" lon="5.39383">
        <ele>579</ele>
        <time>2022-05-29T11:38:04.000Z</time>
      </trkpt>
      <trkpt lat="44.75433" lon="5.39365">
        <ele>575.20001220703</ele>
        <time>2022-05-29T11:38:26.000Z</time>
      </trkpt>
      <trkpt lat="44.75436" lon="5.3936">
        <ele>574.79998779297</ele>
        <time>2022-05-29T11:38:34.000Z</time>
      </trkpt>
      <trkpt lat="44.75436" lon="5.3932">
        <ele>568.59997558594</ele>
        <time>2022-05-29T11:39:07.000Z</time>
      </trkpt>
      <trkpt lat="44.75436" lon="5.39318">
        <ele>568.20001220703</ele>
        <time>2022-05-29T11:39:08.000Z</time>
      </trkpt>
      <trkpt lat="44.75436" lon="5.39318">
        <ele>568.20001220703</ele>
        <time>2022-05-29T11:39:09.000Z</time>
      </trkpt>
      <trkpt lat="44.75436" lon="5.39317">
        <ele>568</ele>
        <time>2022-05-29T11:39:10.000Z</time>
      </trkpt>
      <trkpt lat="44.75438" lon="5.39312">
        <ele>567.59997558594</ele>
        <time>2022-05-29T11:39:16.000Z</time>
      </trkpt>
      <trkpt lat="44.75439" lon="5.39309">
        <ele>567.40002441406</ele>
        <time>2022-05-29T11:39:18.000Z</time>
      </trkpt>
      <trkpt lat="44.75439" lon="5.39308">
        <ele>567.20001220703</ele>
        <time>2022-05-29T11:39:19.000Z</time>
      </trkpt>
      <trkpt lat="44.7544" lon="5.39308">
        <ele>567.20001220703</ele>
        <time>2022-05-29T11:39:20.000Z</time>
      </trkpt>
      <trkpt lat="44.7544" lon="5.39304">
        <ele>566.59997558594</ele>
        <time>2022-05-29T11:39:23.000Z</time>
      </trkpt>
      <trkpt lat="44.75441" lon="5.39297">
        <ele>565.79998779297</ele>
        <time>2022-05-29T11:39:32.000Z</time>
      </trkpt>
      <trkpt lat="44.75442" lon="5.39295">
        <ele>565.59997558594</ele>
        <time>2022-05-29T11:39:34.000Z</time>
      </trkpt>
      <trkpt lat="44.75442" lon="5.39294">
        <ele>565.40002441406</ele>
        <time>2022-05-29T11:39:35.000Z</time>
      </trkpt>
      <trkpt lat="44.75443" lon="5.39293">
        <ele>565.40002441406</ele>
        <time>2022-05-29T11:39:36.000Z</time>
      </trkpt>
      <trkpt lat="44.75443" lon="5.39291">
        <ele>565.20001220703</ele>
        <time>2022-05-29T11:39:38.000Z</time>
      </trkpt>
      <trkpt lat="44.75443" lon="5.39287">
        <ele>564.59997558594</ele>
        <time>2022-05-29T11:39:41.000Z</time>
      </trkpt>
      <trkpt lat="44.75442" lon="5.39284">
        <ele>564</ele>
        <time>2022-05-29T11:39:44.000Z</time>
      </trkpt>
      <trkpt lat="44.75442" lon="5.39282">
        <ele>563.40002441406</ele>
        <time>2022-05-29T11:39:47.000Z</time>
      </trkpt>
      <trkpt lat="44.75442" lon="5.39277">
        <ele>562.59997558594</ele>
        <time>2022-05-29T11:39:53.000Z</time>
      </trkpt>
      <trkpt lat="44.75441" lon="5.39275">
        <ele>562</ele>
        <time>2022-05-29T11:39:55.000Z</time>
      </trkpt>
      <trkpt lat="44.7544" lon="5.39269">
        <ele>560.79998779297</ele>
        <time>2022-05-29T11:40:01.000Z</time>
      </trkpt>
      <trkpt lat="44.7544" lon="5.39266">
        <ele>560.20001220703</ele>
        <time>2022-05-29T11:40:07.000Z</time>
      </trkpt>
      <trkpt lat="44.7544" lon="5.39266">
        <ele>560</ele>
        <time>2022-05-29T11:40:09.000Z</time>
      </trkpt>
      <trkpt lat="44.7544" lon="5.39265">
        <ele>560</ele>
        <time>2022-05-29T11:40:10.000Z</time>
      </trkpt>
      <trkpt lat="44.7544" lon="5.39264">
        <ele>559.79998779297</ele>
        <time>2022-05-29T11:40:11.000Z</time>
      </trkpt>
      <trkpt lat="44.75444" lon="5.39258">
        <ele>558.79998779297</ele>
        <time>2022-05-29T11:40:16.000Z</time>
      </trkpt>
      <trkpt lat="44.75444" lon="5.39253">
        <ele>557.79998779297</ele>
        <time>2022-05-29T11:40:18.000Z</time>
      </trkpt>
      <trkpt lat="44.75445" lon="5.39252">
        <ele>557.59997558594</ele>
        <time>2022-05-29T11:40:20.000Z</time>
      </trkpt>
      <trkpt lat="44.75445" lon="5.39251">
        <ele>557.59997558594</ele>
        <time>2022-05-29T11:40:22.000Z</time>
      </trkpt>
      <trkpt lat="44.75445" lon="5.3925">
        <ele>557.20001220703</ele>
        <time>2022-05-29T11:40:25.000Z</time>
      </trkpt>
      <trkpt lat="44.75444" lon="5.3925">
        <ele>557.20001220703</ele>
        <time>2022-05-29T11:40:27.000Z</time>
      </trkpt>
      <trkpt lat="44.75444" lon="5.39247">
        <ele>556.59997558594</ele>
        <time>2022-05-29T11:40:35.000Z</time>
      </trkpt>
      <trkpt lat="44.75449" lon="5.39246">
        <ele>557</ele>
        <time>2022-05-29T11:40:59.000Z</time>
      </trkpt>
      <trkpt lat="44.75448" lon="5.3923">
        <ele>553.40002441406</ele>
        <time>2022-05-29T11:41:18.000Z</time>
      </trkpt>
      <trkpt lat="44.75451" lon="5.39224">
        <ele>552.59997558594</ele>
        <time>2022-05-29T11:41:27.000Z</time>
      </trkpt>
      <trkpt lat="44.75456" lon="5.39205">
        <ele>548.20001220703</ele>
        <time>2022-05-29T11:41:43.000Z</time>
      </trkpt>
      <trkpt lat="44.75458" lon="5.39203">
        <ele>547.20001220703</ele>
        <time>2022-05-29T11:41:45.000Z</time>
      </trkpt>
      <trkpt lat="44.75463" lon="5.39199">
        <ele>545.59997558594</ele>
        <time>2022-05-29T11:41:50.000Z</time>
      </trkpt>
      <trkpt lat="44.75467" lon="5.39193">
        <ele>543.20001220703</ele>
        <time>2022-05-29T11:42:00.000Z</time>
      </trkpt>
      <trkpt lat="44.75471" lon="5.3919">
        <ele>541.79998779297</ele>
        <time>2022-05-29T11:42:05.000Z</time>
      </trkpt>
      <trkpt lat="44.75474" lon="5.39187">
        <ele>540.79998779297</ele>
        <time>2022-05-29T11:42:11.000Z</time>
      </trkpt>
      <trkpt lat="44.75473" lon="5.39181">
        <ele>539</ele>
        <time>2022-05-29T11:42:17.000Z</time>
      </trkpt>
      <trkpt lat="44.75476" lon="5.39176">
        <ele>537.40002441406</ele>
        <time>2022-05-29T11:42:27.000Z</time>
      </trkpt>
      <trkpt lat="44.75476" lon="5.39172">
        <ele>536.20001220703</ele>
        <time>2022-05-29T11:42:33.000Z</time>
      </trkpt>
      <trkpt lat="44.75476" lon="5.39169">
        <ele>535.40002441406</ele>
        <time>2022-05-29T11:42:44.000Z</time>
      </trkpt>
      <trkpt lat="44.75475" lon="5.39172">
        <ele>536.40002441406</ele>
        <time>2022-05-29T11:42:54.000Z</time>
      </trkpt>
      <trkpt lat="44.75475" lon="5.39163">
        <ele>534</ele>
        <time>2022-05-29T11:43:07.000Z</time>
      </trkpt>
      <trkpt lat="44.75469" lon="5.39116">
        <ele>525.20001220703</ele>
        <time>2022-05-29T11:43:38.000Z</time>
      </trkpt>
      <trkpt lat="44.75486" lon="5.39055">
        <ele>515</ele>
        <time>2022-05-29T11:44:16.000Z</time>
      </trkpt>
      <trkpt lat="44.75492" lon="5.3904">
        <ele>514.59997558594</ele>
        <time>2022-05-29T11:44:27.000Z</time>
      </trkpt>
      <trkpt lat="44.75498" lon="5.39021">
        <ele>514.40002441406</ele>
        <time>2022-05-29T11:44:42.000Z</time>
      </trkpt>
      <trkpt lat="44.75517" lon="5.39">
        <ele>514.59997558594</ele>
        <time>2022-05-29T11:45:11.000Z</time>
      </trkpt>
      <trkpt lat="44.75534" lon="5.39025">
        <ele>516.79998779297</ele>
        <time>2022-05-29T11:45:33.000Z</time>
      </trkpt>
      <trkpt lat="44.75536" lon="5.39026">
        <ele>516.79998779297</ele>
        <time>2022-05-29T11:45:35.000Z</time>
      </trkpt>
      <trkpt lat="44.75567" lon="5.39062">
        <ele>513.59997558594</ele>
        <time>2022-05-29T11:46:18.000Z</time>
      </trkpt>
      <trkpt lat="44.7557" lon="5.39061">
        <ele>513</ele>
        <time>2022-05-29T11:46:39.000Z</time>
      </trkpt>
      <trkpt lat="44.75577" lon="5.3906">
        <ele>511.79998779297</ele>
        <time>2022-05-29T11:47:37.000Z</time>
      </trkpt>
      <trkpt lat="44.75577" lon="5.39062">
        <ele>512</ele>
        <time>2022-05-29T11:47:49.000Z</time>
      </trkpt>
      <trkpt lat="44.75575" lon="5.39063">
        <ele>512.20001220703</ele>
        <time>2022-05-29T11:47:55.000Z</time>
      </trkpt>
      <trkpt lat="44.75576" lon="5.39064">
        <ele>512.20001220703</ele>
        <time>2022-05-29T11:48:04.000Z</time>
      </trkpt>
      <trkpt lat="44.75577" lon="5.39062">
        <ele>512</ele>
        <time>2022-05-29T11:48:09.000Z</time>
      </trkpt>
      <trkpt lat="44.75569" lon="5.39064">
        <ele>513.40002441406</ele>
        <time>2022-05-29T11:48:21.000Z</time>
      </trkpt>
      <trkpt lat="44.75568" lon="5.39064">
        <ele>513.40002441406</ele>
        <time>2022-05-29T11:48:23.000Z</time>
      </trkpt>
      <trkpt lat="44.75566" lon="5.39058">
        <ele>513.59997558594</ele>
        <time>2022-05-29T11:48:44.000Z</time>
      </trkpt>
      <trkpt lat="44.75567" lon="5.39059">
        <ele>513.59997558594</ele>
        <time>2022-05-29T11:48:52.000Z</time>
      </trkpt>
      <trkpt lat="44.75575" lon="5.3906">
        <ele>512.20001220703</ele>
        <time>2022-05-29T11:49:09.000Z</time>
      </trkpt>
      <trkpt lat="44.75579" lon="5.3906">
        <ele>511.39999389648</ele>
        <time>2022-05-29T11:49:11.000Z</time>
      </trkpt>
      <trkpt lat="44.75583" lon="5.39057">
        <ele>510.79998779297</ele>
        <time>2022-05-29T11:49:16.000Z</time>
      </trkpt>
      <trkpt lat="44.75592" lon="5.39045">
        <ele>508.79998779297</ele>
        <time>2022-05-29T11:49:27.000Z</time>
      </trkpt>
      <trkpt lat="44.75595" lon="5.39042">
        <ele>508.20001220703</ele>
        <time>2022-05-29T11:49:39.000Z</time>
      </trkpt>
      <trkpt lat="44.75595" lon="5.39043">
        <ele>508.20001220703</ele>
        <time>2022-05-29T11:49:40.000Z</time>
      </trkpt>
      <trkpt lat="44.75595" lon="5.39043">
        <ele>508</ele>
        <time>2022-05-29T11:49:42.000Z</time>
      </trkpt>
      <trkpt lat="44.75596" lon="5.39043">
        <ele>507.79998779297</ele>
        <time>2022-05-29T11:49:43.000Z</time>
      </trkpt>
      <trkpt lat="44.75601" lon="5.3904">
        <ele>507</ele>
        <time>2022-05-29T11:49:49.000Z</time>
      </trkpt>
      <trkpt lat="44.75601" lon="5.39038">
        <ele>506.79998779297</ele>
        <time>2022-05-29T11:49:51.000Z</time>
      </trkpt>
      <trkpt lat="44.75602" lon="5.39037">
        <ele>506.60000610352</ele>
        <time>2022-05-29T11:49:52.000Z</time>
      </trkpt>
      <trkpt lat="44.75603" lon="5.39036">
        <ele>506.39999389648</ele>
        <time>2022-05-29T11:49:53.000Z</time>
      </trkpt>
      <trkpt lat="44.75603" lon="5.39033">
        <ele>506.39999389648</ele>
        <time>2022-05-29T11:49:55.000Z</time>
      </trkpt>
      <trkpt lat="44.75603" lon="5.39031">
        <ele>506.20001220703</ele>
        <time>2022-05-29T11:49:57.000Z</time>
      </trkpt>
      <trkpt lat="44.75602" lon="5.39024">
        <ele>506.20001220703</ele>
        <time>2022-05-29T11:50:04.000Z</time>
      </trkpt>
      <trkpt lat="44.75604" lon="5.3902">
        <ele>505.79998779297</ele>
        <time>2022-05-29T11:50:08.000Z</time>
      </trkpt>
      <trkpt lat="44.75604" lon="5.39019">
        <ele>505.79998779297</ele>
        <time>2022-05-29T11:50:09.000Z</time>
      </trkpt>
      <trkpt lat="44.75604" lon="5.39015">
        <ele>505.60000610352</ele>
        <time>2022-05-29T11:50:12.000Z</time>
      </trkpt>
      <trkpt lat="44.75605" lon="5.39013">
        <ele>505.39999389648</ele>
        <time>2022-05-29T11:50:14.000Z</time>
      </trkpt>
      <trkpt lat="44.75605" lon="5.39011">
        <ele>505.39999389648</ele>
        <time>2022-05-29T11:50:15.000Z</time>
      </trkpt>
      <trkpt lat="44.75604" lon="5.39008">
        <ele>505.39999389648</ele>
        <time>2022-05-29T11:50:18.000Z</time>
      </trkpt>
      <trkpt lat="44.75605" lon="5.39007">
        <ele>505.39999389648</ele>
        <time>2022-05-29T11:50:19.000Z</time>
      </trkpt>
      <trkpt lat="44.75602" lon="5.38999">
        <ele>505.60000610352</ele>
        <time>2022-05-29T11:50:24.000Z</time>
      </trkpt>
      <trkpt lat="44.75601" lon="5.38998">
        <ele>505.60000610352</ele>
        <time>2022-05-29T11:50:25.000Z</time>
      </trkpt>
      <trkpt lat="44.756" lon="5.38991">
        <ele>505.60000610352</ele>
        <time>2022-05-29T11:50:30.000Z</time>
      </trkpt>
      <trkpt lat="44.756" lon="5.3899">
        <ele>505.60000610352</ele>
        <time>2022-05-29T11:50:31.000Z</time>
      </trkpt>
      <trkpt lat="44.75597" lon="5.38982">
        <ele>505.79998779297</ele>
        <time>2022-05-29T11:50:46.000Z</time>
      </trkpt>
      <trkpt lat="44.75594" lon="5.38979">
        <ele>506.20001220703</ele>
        <time>2022-05-29T11:50:49.000Z</time>
      </trkpt>
      <trkpt lat="44.75592" lon="5.38975">
        <ele>506.39999389648</ele>
        <time>2022-05-29T11:50:52.000Z</time>
      </trkpt>
      <trkpt lat="44.7559" lon="5.3897">
        <ele>506.60000610352</ele>
        <time>2022-05-29T11:50:56.000Z</time>
      </trkpt>
      <trkpt lat="44.75588" lon="5.38966">
        <ele>506.79998779297</ele>
        <time>2022-05-29T11:50:59.000Z</time>
      </trkpt>
      <trkpt lat="44.75587" lon="5.38963">
        <ele>506.79998779297</ele>
        <time>2022-05-29T11:51:02.000Z</time>
      </trkpt>
      <trkpt lat="44.75585" lon="5.38958">
        <ele>506.60000610352</ele>
        <time>2022-05-29T11:51:06.000Z</time>
      </trkpt>
      <trkpt lat="44.75584" lon="5.38953">
        <ele>506.39999389648</ele>
        <time>2022-05-29T11:51:10.000Z</time>
      </trkpt>
      <trkpt lat="44.75578" lon="5.38941">
        <ele>506.39999389648</ele>
        <time>2022-05-29T11:51:18.000Z</time>
      </trkpt>
      <trkpt lat="44.75577" lon="5.38939">
        <ele>506.39999389648</ele>
        <time>2022-05-29T11:51:19.000Z</time>
      </trkpt>
      <trkpt lat="44.75574" lon="5.38934">
        <ele>506.39999389648</ele>
        <time>2022-05-29T11:51:23.000Z</time>
      </trkpt>
      <trkpt lat="44.75561" lon="5.38906">
        <ele>506.39999389648</ele>
        <time>2022-05-29T11:51:42.000Z</time>
      </trkpt>
      <trkpt lat="44.7556" lon="5.38901">
        <ele>506.20001220703</ele>
        <time>2022-05-29T11:51:50.000Z</time>
      </trkpt>
      <trkpt lat="44.75555" lon="5.38894">
        <ele>506.20001220703</ele>
        <time>2022-05-29T11:52:07.000Z</time>
      </trkpt>
      <trkpt lat="44.75552" lon="5.38889">
        <ele>506.20001220703</ele>
        <time>2022-05-29T11:52:11.000Z</time>
      </trkpt>
      <trkpt lat="44.75533" lon="5.38846">
        <ele>503.39999389648</ele>
        <time>2022-05-29T11:52:49.000Z</time>
      </trkpt>
      <trkpt lat="44.75511" lon="5.388">
        <ele>497</ele>
        <time>2022-05-29T11:53:23.000Z</time>
      </trkpt>
      <trkpt lat="44.75482" lon="5.38753">
        <ele>486</ele>
        <time>2022-05-29T11:54:04.000Z</time>
      </trkpt>
      <trkpt lat="44.75476" lon="5.38738">
        <ele>482.60000610352</ele>
        <time>2022-05-29T11:54:17.000Z</time>
      </trkpt>
      <trkpt lat="44.75497" lon="5.38716">
        <ele>478.60000610352</ele>
        <time>2022-05-29T11:54:47.000Z</time>
      </trkpt>
      <trkpt lat="44.75507" lon="5.38702">
        <ele>476.60000610352</ele>
        <time>2022-05-29T11:55:02.000Z</time>
      </trkpt>
      <trkpt lat="44.75499" lon="5.38641">
        <ele>467.79998779297</ele>
        <time>2022-05-29T11:55:42.000Z</time>
      </trkpt>
      <trkpt lat="44.75477" lon="5.3861">
        <ele>462.79998779297</ele>
        <time>2022-05-29T11:56:11.000Z</time>
      </trkpt>
      <trkpt lat="44.75471" lon="5.38604">
        <ele>461.79998779297</ele>
        <time>2022-05-29T11:56:25.000Z</time>
      </trkpt>
      <trkpt lat="44.75448" lon="5.38549">
        <ele>455.79998779297</ele>
        <time>2022-05-29T11:57:10.000Z</time>
      </trkpt>
      <trkpt lat="44.75447" lon="5.38538">
        <ele>455</ele>
        <time>2022-05-29T11:57:18.000Z</time>
      </trkpt>
      <trkpt lat="44.75445" lon="5.38533">
        <ele>454.79998779297</ele>
        <time>2022-05-29T11:57:22.000Z</time>
      </trkpt>
      <trkpt lat="44.7543" lon="5.38473">
        <ele>452.20001220703</ele>
        <time>2022-05-29T11:58:04.000Z</time>
      </trkpt>
      <trkpt lat="44.75415" lon="5.38432">
        <ele>448.79998779297</ele>
        <time>2022-05-29T11:58:30.000Z</time>
      </trkpt>
      <trkpt lat="44.75408" lon="5.3841">
        <ele>447.20001220703</ele>
        <time>2022-05-29T11:58:50.000Z</time>
      </trkpt>
      <trkpt lat="44.75402" lon="5.38394">
        <ele>446.20001220703</ele>
        <time>2022-05-29T11:59:04.000Z</time>
      </trkpt>
      <trkpt lat="44.75379" lon="5.38338">
        <ele>441.79998779297</ele>
        <time>2022-05-29T11:59:44.000Z</time>
      </trkpt>
      <trkpt lat="44.75373" lon="5.38312">
        <ele>440.60000610352</ele>
        <time>2022-05-29T12:00:09.000Z</time>
      </trkpt>
      <trkpt lat="44.75376" lon="5.38303">
        <ele>440.79998779297</ele>
        <time>2022-05-29T12:00:17.000Z</time>
      </trkpt>
      <trkpt lat="44.75377" lon="5.38299">
        <ele>440.79998779297</ele>
        <time>2022-05-29T12:00:20.000Z</time>
      </trkpt>
      <trkpt lat="44.75378" lon="5.38287">
        <ele>441.20001220703</ele>
        <time>2022-05-29T12:01:17.000Z</time>
      </trkpt>
      <trkpt lat="44.75377" lon="5.38285">
        <ele>441</ele>
        <time>2022-05-29T12:01:20.000Z</time>
      </trkpt>
      <trkpt lat="44.75386" lon="5.38281">
        <ele>442.39999389648</ele>
        <time>2022-05-29T12:01:30.000Z</time>
      </trkpt>
      <trkpt lat="44.75389" lon="5.38278">
        <ele>442.79998779297</ele>
        <time>2022-05-29T12:01:34.000Z</time>
      </trkpt>
      <trkpt lat="44.754" lon="5.38246">
        <ele>444.79998779297</ele>
        <time>2022-05-29T12:01:54.000Z</time>
      </trkpt>
      <trkpt lat="44.75401" lon="5.38246">
        <ele>445</ele>
        <time>2022-05-29T12:01:55.000Z</time>
      </trkpt>
      <trkpt lat="44.75405" lon="5.3824">
        <ele>444.60000610352</ele>
        <time>2022-05-29T12:02:00.000Z</time>
      </trkpt>
      <trkpt lat="44.75411" lon="5.38229">
        <ele>443.39999389648</ele>
        <time>2022-05-29T12:02:10.000Z</time>
      </trkpt>
      <trkpt lat="44.75415" lon="5.3822">
        <ele>442.60000610352</ele>
        <time>2022-05-29T12:02:16.000Z</time>
      </trkpt>
      <trkpt lat="44.75442" lon="5.38178">
        <ele>441</ele>
        <time>2022-05-29T12:02:45.000Z</time>
      </trkpt>
      <trkpt lat="44.7545" lon="5.3816">
        <ele>438.20001220703</ele>
        <time>2022-05-29T12:02:57.000Z</time>
      </trkpt>
      <trkpt lat="44.75456" lon="5.38142">
        <ele>435.79998779297</ele>
        <time>2022-05-29T12:03:08.000Z</time>
      </trkpt>
      <trkpt lat="44.75461" lon="5.38121">
        <ele>433.79998779297</ele>
        <time>2022-05-29T12:03:21.000Z</time>
      </trkpt>
      <trkpt lat="44.75466" lon="5.38111">
        <ele>432.39999389648</ele>
        <time>2022-05-29T12:03:39.000Z</time>
      </trkpt>
      <trkpt lat="44.75472" lon="5.38104">
        <ele>431.60000610352</ele>
        <time>2022-05-29T12:03:54.000Z</time>
      </trkpt>
      <trkpt lat="44.7549" lon="5.38046">
        <ele>428</ele>
        <time>2022-05-29T12:04:27.000Z</time>
      </trkpt>
      <trkpt lat="44.75499" lon="5.38008">
        <ele>427</ele>
        <time>2022-05-29T12:04:46.000Z</time>
      </trkpt>
      <trkpt lat="44.75507" lon="5.37962">
        <ele>426.20001220703</ele>
        <time>2022-05-29T12:05:10.000Z</time>
      </trkpt>
      <trkpt lat="44.75509" lon="5.37951">
        <ele>425.60000610352</ele>
        <time>2022-05-29T12:05:16.000Z</time>
      </trkpt>
      <trkpt lat="44.7551" lon="5.3794">
        <ele>425.20001220703</ele>
        <time>2022-05-29T12:05:21.000Z</time>
      </trkpt>
      <trkpt lat="44.7551" lon="5.37937">
        <ele>425</ele>
        <time>2022-05-29T12:05:24.000Z</time>
      </trkpt>
      <trkpt lat="44.75509" lon="5.37916">
        <ele>424.20001220703</ele>
        <time>2022-05-29T12:05:39.000Z</time>
      </trkpt>
      <trkpt lat="44.75496" lon="5.37902">
        <ele>423.79998779297</ele>
        <time>2022-05-29T12:06:02.000Z</time>
      </trkpt>
      <trkpt lat="44.75475" lon="5.37896">
        <ele>423.60000610352</ele>
        <time>2022-05-29T12:06:29.000Z</time>
      </trkpt>
      <trkpt lat="44.75478" lon="5.3788">
        <ele>423</ele>
        <time>2022-05-29T12:07:11.000Z</time>
      </trkpt>
      <trkpt lat="44.75472" lon="5.37867">
        <ele>422.60000610352</ele>
        <time>2022-05-29T12:07:25.000Z</time>
      </trkpt>
      <trkpt lat="44.75472" lon="5.37866">
        <ele>422.60000610352</ele>
        <time>2022-05-29T12:07:26.000Z</time>
      </trkpt>
      <trkpt lat="44.75471" lon="5.37863">
        <ele>422.60000610352</ele>
        <time>2022-05-29T12:07:28.000Z</time>
      </trkpt>
      <trkpt lat="44.7547" lon="5.37861">
        <ele>422.60000610352</ele>
        <time>2022-05-29T12:07:29.000Z</time>
      </trkpt>
      <trkpt lat="44.75469" lon="5.37857">
        <ele>422.39999389648</ele>
        <time>2022-05-29T12:07:32.000Z</time>
      </trkpt>
      <trkpt lat="44.75468" lon="5.37854">
        <ele>422.39999389648</ele>
        <time>2022-05-29T12:07:34.000Z</time>
      </trkpt>
      <trkpt lat="44.75468" lon="5.37849">
        <ele>422.20001220703</ele>
        <time>2022-05-29T12:07:39.000Z</time>
      </trkpt>
      <trkpt lat="44.75456" lon="5.378">
        <ele>421</ele>
        <time>2022-05-29T12:08:12.000Z</time>
      </trkpt>
      <trkpt lat="44.75431" lon="5.37758">
        <ele>420.79998779297</ele>
        <time>2022-05-29T12:09:23.000Z</time>
      </trkpt>
      <trkpt lat="44.75398" lon="5.37712">
        <ele>420.60000610352</ele>
        <time>2022-05-29T12:10:05.000Z</time>
      </trkpt>
      <trkpt lat="44.75388" lon="5.377">
        <ele>420.60000610352</ele>
        <time>2022-05-29T12:10:27.000Z</time>
      </trkpt>
      <trkpt lat="44.7537" lon="5.37683">
        <ele>420.60000610352</ele>
        <time>2022-05-29T12:10:48.000Z</time>
      </trkpt>
      <trkpt lat="44.75358" lon="5.37663">
        <ele>419.79998779297</ele>
        <time>2022-05-29T12:11:07.000Z</time>
      </trkpt>
      <trkpt lat="44.75324" lon="5.37621">
        <ele>417.79998779297</ele>
        <time>2022-05-29T12:11:46.000Z</time>
      </trkpt>
      <trkpt lat="44.75292" lon="5.37577">
        <ele>416.20001220703</ele>
        <time>2022-05-29T12:12:27.000Z</time>
      </trkpt>
      <trkpt lat="44.75256" lon="5.37538">
        <ele>415.60000610352</ele>
        <time>2022-05-29T12:13:02.000Z</time>
      </trkpt>
      <trkpt lat="44.75233" lon="5.37513">
        <ele>415.39999389648</ele>
        <time>2022-05-29T12:13:29.000Z</time>
      </trkpt>
      <trkpt lat="44.75229" lon="5.37461">
        <ele>413.79998779297</ele>
        <time>2022-05-29T12:14:05.000Z</time>
      </trkpt>
      <trkpt lat="44.75239" lon="5.37441">
        <ele>412</ele>
        <time>2022-05-29T12:14:41.000Z</time>
      </trkpt>
      <trkpt lat="44.75239" lon="5.37441">
        <ele>412</ele>
        <time>2022-05-29T12:14:50.000Z</time>
      </trkpt>
      <trkpt lat="44.75241" lon="5.3744">
        <ele>411.79998779297</ele>
        <time>2022-05-29T12:15:01.000Z</time>
      </trkpt>
      <trkpt lat="44.75245" lon="5.37437">
        <ele>411.60000610352</ele>
        <time>2022-05-29T12:15:05.000Z</time>
      </trkpt>
      <trkpt lat="44.75251" lon="5.37432">
        <ele>411</ele>
        <time>2022-05-29T12:15:11.000Z</time>
      </trkpt>
      <trkpt lat="44.75258" lon="5.37425">
        <ele>411</ele>
        <time>2022-05-29T12:15:18.000Z</time>
      </trkpt>
      <trkpt lat="44.7526" lon="5.37422">
        <ele>411.20001220703</ele>
        <time>2022-05-29T12:15:21.000Z</time>
      </trkpt>
      <trkpt lat="44.75263" lon="5.37415">
        <ele>411.39999389648</ele>
        <time>2022-05-29T12:15:30.000Z</time>
      </trkpt>
      <trkpt lat="44.75263" lon="5.37414">
        <ele>411.39999389648</ele>
        <time>2022-05-29T12:15:32.000Z</time>
      </trkpt>
      <trkpt lat="44.75263" lon="5.37414">
        <ele>411.39999389648</ele>
        <time>2022-05-29T12:15:33.000Z</time>
      </trkpt>
      <trkpt lat="44.75266" lon="5.37409">
        <ele>411.60000610352</ele>
        <time>2022-05-29T12:15:38.000Z</time>
      </trkpt>
      <trkpt lat="44.75269" lon="5.37406">
        <ele>411.79998779297</ele>
        <time>2022-05-29T12:15:41.000Z</time>
      </trkpt>
      <trkpt lat="44.75272" lon="5.37402">
        <ele>412</ele>
        <time>2022-05-29T12:15:44.000Z</time>
      </trkpt>
      <trkpt lat="44.7529" lon="5.37378">
        <ele>413</ele>
        <time>2022-05-29T12:16:03.000Z</time>
      </trkpt>
      <trkpt lat="44.75309" lon="5.37352">
        <ele>413.20001220703</ele>
        <time>2022-05-29T12:16:25.000Z</time>
      </trkpt>
      <trkpt lat="44.75341" lon="5.37309">
        <ele>416.20001220703</ele>
        <time>2022-05-29T12:17:04.000Z</time>
      </trkpt>
      <trkpt lat="44.75342" lon="5.37307">
        <ele>416.39999389648</ele>
        <time>2022-05-29T12:17:06.000Z</time>
      </trkpt>
      <trkpt lat="44.75344" lon="5.37304">
        <ele>416.79998779297</ele>
        <time>2022-05-29T12:17:09.000Z</time>
      </trkpt>
      <trkpt lat="44.75344" lon="5.37304">
        <ele>416.79998779297</ele>
        <time>2022-05-29T12:17:13.000Z</time>
      </trkpt>
      <trkpt lat="44.75344" lon="5.37302">
        <ele>416.79998779297</ele>
        <time>2022-05-29T12:17:17.000Z</time>
      </trkpt>
      <trkpt lat="44.75346" lon="5.37295">
        <ele>417.39999389648</ele>
        <time>2022-05-29T12:17:23.000Z</time>
      </trkpt>
      <trkpt lat="44.75354" lon="5.37282">
        <ele>418.79998779297</ele>
        <time>2022-05-29T12:17:48.000Z</time>
      </trkpt>
      <trkpt lat="44.75359" lon="5.37248">
        <ele>420.79998779297</ele>
        <time>2022-05-29T12:18:11.000Z</time>
      </trkpt>
      <trkpt lat="44.75368" lon="5.3722">
        <ele>422.60000610352</ele>
        <time>2022-05-29T12:18:53.000Z</time>
      </trkpt>
      <trkpt lat="44.75376" lon="5.37197">
        <ele>423</ele>
        <time>2022-05-29T12:19:14.000Z</time>
      </trkpt>
      <trkpt lat="44.75387" lon="5.37185">
        <ele>423.79998779297</ele>
        <time>2022-05-29T12:19:27.000Z</time>
      </trkpt>
      <trkpt lat="44.75391" lon="5.37172">
        <ele>424</ele>
        <time>2022-05-29T12:19:40.000Z</time>
      </trkpt>
      <trkpt lat="44.75394" lon="5.37165">
        <ele>424</ele>
        <time>2022-05-29T12:19:46.000Z</time>
      </trkpt>
      <trkpt lat="44.75397" lon="5.37156">
        <ele>424</ele>
        <time>2022-05-29T12:19:54.000Z</time>
      </trkpt>
      <trkpt lat="44.75406" lon="5.37142">
        <ele>422.79998779297</ele>
        <time>2022-05-29T12:20:07.000Z</time>
      </trkpt>
      <trkpt lat="44.75417" lon="5.37126">
        <ele>422</ele>
        <time>2022-05-29T12:20:19.000Z</time>
      </trkpt>
      <trkpt lat="44.75428" lon="5.3711">
        <ele>422.20001220703</ele>
        <time>2022-05-29T12:20:36.000Z</time>
      </trkpt>
      <trkpt lat="44.75431" lon="5.37103">
        <ele>422</ele>
        <time>2022-05-29T12:20:42.000Z</time>
      </trkpt>
      <trkpt lat="44.75434" lon="5.37094">
        <ele>421.60000610352</ele>
        <time>2022-05-29T12:20:50.000Z</time>
      </trkpt>
      <trkpt lat="44.75443" lon="5.37081">
        <ele>421.20001220703</ele>
        <time>2022-05-29T12:21:02.000Z</time>
      </trkpt>
      <trkpt lat="44.75452" lon="5.37062">
        <ele>420.60000610352</ele>
        <time>2022-05-29T12:21:16.000Z</time>
      </trkpt>
      <trkpt lat="44.75463" lon="5.37041">
        <ele>420</ele>
        <time>2022-05-29T12:21:34.000Z</time>
      </trkpt>
      <trkpt lat="44.75479" lon="5.37029">
        <ele>420</ele>
        <time>2022-05-29T12:21:45.000Z</time>
      </trkpt>
      <trkpt lat="44.75495" lon="5.36986">
        <ele>420.20001220703</ele>
        <time>2022-05-29T12:22:19.000Z</time>
      </trkpt>
      <trkpt lat="44.75511" lon="5.36968">
        <ele>420.20001220703</ele>
        <time>2022-05-29T12:22:56.000Z</time>
      </trkpt>
      <trkpt lat="44.75514" lon="5.36969">
        <ele>420.20001220703</ele>
        <time>2022-05-29T12:23:17.000Z</time>
      </trkpt>
      <trkpt lat="44.75514" lon="5.36968">
        <ele>420.20001220703</ele>
        <time>2022-05-29T12:23:24.000Z</time>
      </trkpt>
      <trkpt lat="44.75515" lon="5.36968">
        <ele>420.20001220703</ele>
        <time>2022-05-29T12:23:29.000Z</time>
      </trkpt>
      <trkpt lat="44.75515" lon="5.36968">
        <ele>420.20001220703</ele>
        <time>2022-05-29T12:23:36.000Z</time>
      </trkpt>
      <trkpt lat="44.75512" lon="5.36967">
        <ele>420.20001220703</ele>
        <time>2022-05-29T12:23:52.000Z</time>
      </trkpt>
      <trkpt lat="44.75513" lon="5.36967">
        <ele>420.20001220703</ele>
        <time>2022-05-29T12:24:03.000Z</time>
      </trkpt>
      <trkpt lat="44.75513" lon="5.36968">
        <ele>420.20001220703</ele>
        <time>2022-05-29T12:24:13.000Z</time>
      </trkpt>
      <trkpt lat="44.75513" lon="5.36968">
        <ele>420.20001220703</ele>
        <time>2022-05-29T12:24:15.000Z</time>
      </trkpt>
    </trkseg>
  </trk>
</gpx>